<?xml version='1.0' encoding='UTF-8'?><gpx version="1.1" creator="JPX - https://github.com/jenetics/jpx" xmlns="http://www.topografix.com/GPX/1/1"><trk><trkseg><trkpt lat="44.8867584842585" lon="7.273388262529022"><ele>424.0</ele><time>2026-04-16T08:43:26.999Z</time></trkpt><trkpt lat="44.88673643358426" lon="7.273255198447897"><ele>424.0</ele><time>2026-04-16T08:43:28.999Z</time></trkpt><trkpt lat="44.88672399881604" lon="7.273119115865082"><ele>424.0</ele><time>2026-04-16T08:43:30.999Z</time></trkpt><trkpt lat="44.8867056877171" lon="7.272960535990351"><ele>424.0</ele><time>2026-04-16T08:43:32.999Z</time></trkpt><trkpt lat="44.88669808101456" lon="7.272842018257887"><ele>424.0</ele><time>2026-04-16T08:43:34.999Z</time></trkpt><trkpt lat="44.886693567289576" lon="7.272715042525028"><ele>424.4</ele><time>2026-04-16T08:43:36.999Z</time></trkpt><trkpt lat="44.886681762529825" lon="7.272502927968826"><ele>424.79999999999995</ele><time>2026-04-16T08:43:39Z</time></trkpt><trkpt lat="44.88666936637161" lon="7.272389273459005"><ele>425.20000000000005</ele><time>2026-04-16T08:43:40Z</time></trkpt><trkpt lat="44.886653507742274" lon="7.272277856683846"><ele>425.6</ele><time>2026-04-16T08:43:41Z</time></trkpt><trkpt lat="44.886638740039324" lon="7.272169319041641"><ele>426.0</ele><time>2026-04-16T08:43:42Z</time></trkpt><trkpt lat="44.886625825983856" lon="7.272031286746472"><ele>426.0</ele><time>2026-04-16T08:43:43Z</time></trkpt><trkpt lat="44.886615400507" lon="7.2718984352058245"><ele>426.0</ele><time>2026-04-16T08:43:44Z</time></trkpt><trkpt lat="44.886617358513455" lon="7.271763523477241"><ele>426.0</ele><time>2026-04-16T08:43:45Z</time></trkpt><trkpt lat="44.88662448624797" lon="7.2716311687811785"><ele>426.0</ele><time>2026-04-16T08:43:46Z</time></trkpt><trkpt lat="44.88663356327556" lon="7.271516356781872"><ele>426.0</ele><time>2026-04-16T08:43:47Z</time></trkpt><trkpt lat="44.88664150399741" lon="7.27141035172372"><ele>426.0</ele><time>2026-04-16T08:43:48Z</time></trkpt><trkpt lat="44.88665448258858" lon="7.271309937532357"><ele>425.8</ele><time>2026-04-16T08:43:49Z</time></trkpt><trkpt lat="44.88666843315703" lon="7.2712230512215"><ele>425.6</ele><time>2026-04-16T08:43:50Z</time></trkpt><trkpt lat="44.88668541926893" lon="7.271065656800107"><ele>425.4</ele><time>2026-04-16T08:43:52Z</time></trkpt><trkpt lat="44.8867022779827" lon="7.270927888109951"><ele>425.2</ele><time>2026-04-16T08:43:54Z</time></trkpt><trkpt lat="44.88671997582027" lon="7.270771056245439"><ele>425.0</ele><time>2026-04-16T08:43:56Z</time></trkpt><trkpt lat="44.88673368527738" lon="7.270596983624844"><ele>425.66666666666663</ele><time>2026-04-16T08:43:58Z</time></trkpt><trkpt lat="44.886746455106874" lon="7.270481096766408"><ele>426.3333333333333</ele><time>2026-04-16T08:43:59Z</time></trkpt><trkpt lat="44.88676708330826" lon="7.270340228385379"><ele>427.0</ele><time>2026-04-16T08:44:00Z</time></trkpt><trkpt lat="44.886787470134536" lon="7.270219312642797"><ele>427.66666666666663</ele><time>2026-04-16T08:44:01Z</time></trkpt><trkpt lat="44.886804461468394" lon="7.270095961484191"><ele>428.3333333333333</ele><time>2026-04-16T08:44:02Z</time></trkpt><trkpt lat="44.88682139507283" lon="7.269975341617996"><ele>429.0</ele><time>2026-04-16T08:44:03Z</time></trkpt><trkpt lat="44.886833846152086" lon="7.269858296803963"><ele>430.8333333333333</ele><time>2026-04-16T08:44:04Z</time></trkpt><trkpt lat="44.88685079923755" lon="7.269725210180689"><ele>432.66666666666663</ele><time>2026-04-16T08:44:05Z</time></trkpt><trkpt lat="44.886867511404205" lon="7.269599977120963"><ele>434.5</ele><time>2026-04-16T08:44:06Z</time></trkpt><trkpt lat="44.88687979563687" lon="7.269476700409712"><ele>436.3333333333333</ele><time>2026-04-16T08:44:07Z</time></trkpt><trkpt lat="44.88689800627084" lon="7.269349434161414"><ele>438.16666666666663</ele><time>2026-04-16T08:44:08Z</time></trkpt><trkpt lat="44.88690697428319" lon="7.26923335135959"><ele>440.0</ele><time>2026-04-16T08:44:09Z</time></trkpt><trkpt lat="44.88692281482403" lon="7.269114129376763"><ele>439.99999999999994</ele><time>2026-04-16T08:44:10Z</time></trkpt><trkpt lat="44.88693662586837" lon="7.269003531218473"><ele>440.0</ele><time>2026-04-16T08:44:11Z</time></trkpt><trkpt lat="44.88694966127338" lon="7.2688946738283216"><ele>440.0</ele><time>2026-04-16T08:44:12Z</time></trkpt><trkpt lat="44.886966633787495" lon="7.268768550271631"><ele>440.0</ele><time>2026-04-16T08:44:13Z</time></trkpt><trkpt lat="44.88697751846654" lon="7.268646665591245"><ele>439.99999999999994</ele><time>2026-04-16T08:44:14Z</time></trkpt><trkpt lat="44.88698795861346" lon="7.268516083032262"><ele>440.0</ele><time>2026-04-16T08:44:15Z</time></trkpt><trkpt lat="44.88700491592999" lon="7.268380036709984"><ele>439.4</ele><time>2026-04-16T08:44:16Z</time></trkpt><trkpt lat="44.887017155761036" lon="7.268258534191805"><ele>438.8</ele><time>2026-04-16T08:44:17Z</time></trkpt><trkpt lat="44.88703172339767" lon="7.268134349608201"><ele>438.20000000000005</ele><time>2026-04-16T08:44:18Z</time></trkpt><trkpt lat="44.88704725091159" lon="7.267996795704583"><ele>437.6</ele><time>2026-04-16T08:44:19Z</time></trkpt><trkpt lat="44.887066585886615" lon="7.267852610071228"><ele>437.0</ele><time>2026-04-16T08:44:20Z</time></trkpt><trkpt lat="44.88708715172091" lon="7.267711177253892"><ele>436.75</ele><time>2026-04-16T08:44:21Z</time></trkpt><trkpt lat="44.88710513036923" lon="7.267565013940798"><ele>436.5</ele><time>2026-04-16T08:44:22Z</time></trkpt><trkpt lat="44.88712698840115" lon="7.267407338484122"><ele>436.25</ele><time>2026-04-16T08:44:23Z</time></trkpt><trkpt lat="44.887151537673205" lon="7.2672189644582845"><ele>436.0</ele><time>2026-04-16T08:44:24Z</time></trkpt><trkpt lat="44.88718383481231" lon="7.267030323047098"><ele>435.5</ele><time>2026-04-16T08:44:25Z</time></trkpt><trkpt lat="44.88723225060048" lon="7.266853756015472"><ele>435.0</ele><time>2026-04-16T08:44:26Z</time></trkpt><trkpt lat="44.88728998241588" lon="7.266685626738914"><ele>434.5</ele><time>2026-04-16T08:44:27Z</time></trkpt><trkpt lat="44.88735580896316" lon="7.266517153189105"><ele>434.0</ele><time>2026-04-16T08:44:28Z</time></trkpt><trkpt lat="44.88742481253722" lon="7.266352181545324"><ele>433.79999999999995</ele><time>2026-04-16T08:44:29Z</time></trkpt><trkpt lat="44.887478869978715" lon="7.266187256474739"><ele>433.59999999999997</ele><time>2026-04-16T08:44:30Z</time></trkpt><trkpt lat="44.88753297380669" lon="7.266039048684253"><ele>433.4</ele><time>2026-04-16T08:44:31Z</time></trkpt><trkpt lat="44.88758500304609" lon="7.265914209804026"><ele>433.2</ele><time>2026-04-16T08:44:32Z</time></trkpt><trkpt lat="44.887620641113124" lon="7.2657906384343"><ele>433.0</ele><time>2026-04-16T08:44:33Z</time></trkpt><trkpt lat="44.88766822541747" lon="7.26565655918147"><ele>436.75</ele><time>2026-04-16T08:44:34Z</time></trkpt><trkpt lat="44.88771398859127" lon="7.265516905664903"><ele>440.5</ele><time>2026-04-16T08:44:35Z</time></trkpt><trkpt lat="44.88777100975018" lon="7.265359705036903"><ele>444.25</ele><time>2026-04-16T08:44:36Z</time></trkpt><trkpt lat="44.8878329568777" lon="7.2651911849635304"><ele>448.0</ele><time>2026-04-16T08:44:37Z</time></trkpt><trkpt lat="44.88789646554795" lon="7.265006784421381"><ele>448.0</ele><time>2026-04-16T08:44:38Z</time></trkpt><trkpt lat="44.88795969431265" lon="7.2648260119474966"><ele>448.0</ele><time>2026-04-16T08:44:39Z</time></trkpt><trkpt lat="44.888024129881636" lon="7.264652777334219"><ele>448.0</ele><time>2026-04-16T08:44:40Z</time></trkpt><trkpt lat="44.888083733998585" lon="7.2644932509396805"><ele>448.0</ele><time>2026-04-16T08:44:41Z</time></trkpt><trkpt lat="44.88815485999494" lon="7.264339773699676"><ele>445.5</ele><time>2026-04-16T08:44:42Z</time></trkpt><trkpt lat="44.88822952996516" lon="7.264199768210054"><ele>443.0</ele><time>2026-04-16T08:44:43Z</time></trkpt><trkpt lat="44.8883116101291" lon="7.264055390398196"><ele>440.5</ele><time>2026-04-16T08:44:44Z</time></trkpt><trkpt lat="44.888401983114974" lon="7.26390718363279"><ele>438.0</ele><time>2026-04-16T08:44:45Z</time></trkpt><trkpt lat="44.888494898072054" lon="7.2637518097214775"><ele>439.25</ele><time>2026-04-16T08:44:46Z</time></trkpt><trkpt lat="44.888573798035445" lon="7.263579089471843"><ele>440.5</ele><time>2026-04-16T08:44:47Z</time></trkpt><trkpt lat="44.88865353453229" lon="7.263402790489648"><ele>441.75</ele><time>2026-04-16T08:44:48Z</time></trkpt><trkpt lat="44.888736258998904" lon="7.263228346526044"><ele>443.0</ele><time>2026-04-16T08:44:49Z</time></trkpt><trkpt lat="44.88881133126241" lon="7.2630593296184855"><ele>443.0</ele><time>2026-04-16T08:44:50Z</time></trkpt><trkpt lat="44.888894189226605" lon="7.262887242070317"><ele>443.0</ele><time>2026-04-16T08:44:51Z</time></trkpt><trkpt lat="44.88895806358225" lon="7.2627134408775715"><ele>443.0</ele><time>2026-04-16T08:44:52Z</time></trkpt><trkpt lat="44.88902449404506" lon="7.2625724192753935"><ele>443.0</ele><time>2026-04-16T08:44:53Z</time></trkpt><trkpt lat="44.88911014589741" lon="7.262389342825"><ele>440.5</ele><time>2026-04-16T08:44:54Z</time></trkpt><trkpt lat="44.88917258545446" lon="7.262240718584806"><ele>438.0</ele><time>2026-04-16T08:44:55Z</time></trkpt><trkpt lat="44.8892552649968" lon="7.262089321823156"><ele>435.5</ele><time>2026-04-16T08:44:56Z</time></trkpt><trkpt lat="44.88933443316336" lon="7.261913395222853"><ele>433.0</ele><time>2026-04-16T08:44:56.998Z</time></trkpt><trkpt lat="44.88941459030757" lon="7.261733341902259"><ele>437.33333333333337</ele><time>2026-04-16T08:44:57.998Z</time></trkpt><trkpt lat="44.88949670699454" lon="7.261550896872856"><ele>441.66666666666663</ele><time>2026-04-16T08:44:58.998Z</time></trkpt><trkpt lat="44.88957771419943" lon="7.261370814383194"><ele>446.0</ele><time>2026-04-16T08:44:59.998Z</time></trkpt><trkpt lat="44.88966409005506" lon="7.2611916702533925"><ele>446.0</ele><time>2026-04-16T08:45:00.998Z</time></trkpt><trkpt lat="44.889742720023435" lon="7.261028893866155"><ele>446.0</ele><time>2026-04-16T08:45:01.998Z</time></trkpt><trkpt lat="44.8898176796702" lon="7.260858783404465"><ele>446.0</ele><time>2026-04-16T08:45:02.998Z</time></trkpt><trkpt lat="44.88989045485737" lon="7.260690670532506"><ele>446.0</ele><time>2026-04-16T08:45:03.998Z</time></trkpt><trkpt lat="44.88997388579659" lon="7.260511294192896"><ele>443.5</ele><time>2026-04-16T08:45:04.998Z</time></trkpt><trkpt lat="44.89005340140692" lon="7.260337013810886"><ele>441.0</ele><time>2026-04-16T08:45:05.998Z</time></trkpt><trkpt lat="44.89012446538281" lon="7.260183725960495"><ele>438.5</ele><time>2026-04-16T08:45:06.998Z</time></trkpt><trkpt lat="44.89020904058246" lon="7.260017995416639"><ele>436.0</ele><time>2026-04-16T08:45:07.998Z</time></trkpt><trkpt lat="44.89028691650439" lon="7.25984903985777"><ele>439.0</ele><time>2026-04-16T08:45:08.998Z</time></trkpt><trkpt lat="44.890365224565286" lon="7.259680100713383"><ele>442.0</ele><time>2026-04-16T08:45:09.999Z</time></trkpt><trkpt lat="44.89044581138977" lon="7.259509396659642"><ele>445.0</ele><time>2026-04-16T08:45:10.999Z</time></trkpt><trkpt lat="44.89051868834259" lon="7.259342106946003"><ele>448.0</ele><time>2026-04-16T08:45:11.999Z</time></trkpt><trkpt lat="44.890575607294714" lon="7.259159333333838"><ele>447.0</ele><time>2026-04-16T08:45:12.999Z</time></trkpt><trkpt lat="44.89062711464342" lon="7.2589362188999305"><ele>446.0</ele><time>2026-04-16T08:45:13.999Z</time></trkpt><trkpt lat="44.89066702092761" lon="7.258724409795118"><ele>445.0</ele><time>2026-04-16T08:45:14.999Z</time></trkpt><trkpt lat="44.89068923766859" lon="7.258517118543374"><ele>445.0</ele><time>2026-04-16T08:45:15.999Z</time></trkpt><trkpt lat="44.89071396238749" lon="7.258329902736977"><ele>445.0</ele><time>2026-04-16T08:45:16.999Z</time></trkpt><trkpt lat="44.890741867999694" lon="7.258136650877608"><ele>445.0</ele><time>2026-04-16T08:45:17.999Z</time></trkpt><trkpt lat="44.890769051258125" lon="7.25794617123779"><ele>445.0</ele><time>2026-04-16T08:45:18.999Z</time></trkpt><trkpt lat="44.8908021405202" lon="7.257697319212449"><ele>445.33333333333337</ele><time>2026-04-16T08:45:19.999Z</time></trkpt><trkpt lat="44.890841350518905" lon="7.25747581752384"><ele>445.66666666666663</ele><time>2026-04-16T08:45:20.999Z</time></trkpt><trkpt lat="44.89086663954417" lon="7.257253252954307"><ele>446.0</ele><time>2026-04-16T08:45:21.999Z</time></trkpt><trkpt lat="44.89089501823127" lon="7.257036265350887"><ele>446.0</ele><time>2026-04-16T08:45:22.999Z</time></trkpt><trkpt lat="44.89092373723779" lon="7.256817431955073"><ele>446.0</ele><time>2026-04-16T08:45:23.999Z</time></trkpt><trkpt lat="44.89095728518054" lon="7.256599793597661"><ele>446.0</ele><time>2026-04-16T08:45:24.999Z</time></trkpt><trkpt lat="44.890986978236974" lon="7.2563832840452"><ele>460.66666666666663</ele><time>2026-04-16T08:45:25.999Z</time></trkpt><trkpt lat="44.8910194706106" lon="7.256180553966684"><ele>475.33333333333337</ele><time>2026-04-16T08:45:26.999Z</time></trkpt><trkpt lat="44.891052032258266" lon="7.255969690213826"><ele>490.0</ele><time>2026-04-16T08:45:27.999Z</time></trkpt><trkpt lat="44.891077693336655" lon="7.255745772228186"><ele>487.6666666666667</ele><time>2026-04-16T08:45:28.999Z</time></trkpt><trkpt lat="44.89110396315395" lon="7.2555277098404085"><ele>485.33333333333337</ele><time>2026-04-16T08:45:29.999Z</time></trkpt><trkpt lat="44.89112922437232" lon="7.2553168077255785"><ele>483.0</ele><time>2026-04-16T08:45:30.999Z</time></trkpt><trkpt lat="44.891144444716126" lon="7.255102047272818"><ele>483.0</ele><time>2026-04-16T08:45:31.999Z</time></trkpt><trkpt lat="44.89114282269319" lon="7.2548840321437655"><ele>483.0</ele><time>2026-04-16T08:45:32.999Z</time></trkpt><trkpt lat="44.89113174404466" lon="7.254665790699933"><ele>483.0</ele><time>2026-04-16T08:45:33.999Z</time></trkpt><trkpt lat="44.89112018429998" lon="7.254454480877274"><ele>483.0</ele><time>2026-04-16T08:45:34.999Z</time></trkpt><trkpt lat="44.8911072738921" lon="7.254238754975602"><ele>483.0</ele><time>2026-04-16T08:45:35.999Z</time></trkpt><trkpt lat="44.89109383132825" lon="7.254020575395624"><ele>483.0</ele><time>2026-04-16T08:45:36.999Z</time></trkpt><trkpt lat="44.89108495867287" lon="7.253805325178164"><ele>483.0</ele><time>2026-04-16T08:45:37.999Z</time></trkpt><trkpt lat="44.89107397588146" lon="7.253589179820372"><ele>483.0</ele><time>2026-04-16T08:45:38.999Z</time></trkpt><trkpt lat="44.89106178507457" lon="7.253366236596166"><ele>483.0</ele><time>2026-04-16T08:45:39.999Z</time></trkpt><trkpt lat="44.89104788836446" lon="7.253145273732718"><ele>486.0</ele><time>2026-04-16T08:45:40.999Z</time></trkpt><trkpt lat="44.89103690659472" lon="7.2529247901345455"><ele>489.0</ele><time>2026-04-16T08:45:41.999Z</time></trkpt><trkpt lat="44.891026658576195" lon="7.252708777904766"><ele>492.0</ele><time>2026-04-16T08:45:42.999Z</time></trkpt><trkpt lat="44.89101653198061" lon="7.252504419520791"><ele>492.0</ele><time>2026-04-16T08:45:43.999Z</time></trkpt><trkpt lat="44.89099761117228" lon="7.252302886231765"><ele>492.0</ele><time>2026-04-16T08:45:44.999Z</time></trkpt><trkpt lat="44.8909747426226" lon="7.252091528162523"><ele>492.0</ele><time>2026-04-16T08:45:46Z</time></trkpt><trkpt lat="44.89095083101742" lon="7.251881405844029"><ele>492.0</ele><time>2026-04-16T08:45:47Z</time></trkpt><trkpt lat="44.89092605653859" lon="7.25167171877419"><ele>482.5</ele><time>2026-04-16T08:45:48Z</time></trkpt><trkpt lat="44.890900321677634" lon="7.25146240360687"><ele>473.0</ele><time>2026-04-16T08:45:49Z</time></trkpt><trkpt lat="44.89087540102942" lon="7.251253960668107"><ele>463.5</ele><time>2026-04-16T08:45:50Z</time></trkpt><trkpt lat="44.890852666941676" lon="7.251049794637187"><ele>454.0</ele><time>2026-04-16T08:45:51Z</time></trkpt><trkpt lat="44.89083050535291" lon="7.250851823677513"><ele>454.0</ele><time>2026-04-16T08:45:52Z</time></trkpt><trkpt lat="44.89080835001" lon="7.250664899877728"><ele>454.0</ele><time>2026-04-16T08:45:53Z</time></trkpt><trkpt lat="44.890788079978634" lon="7.250485997841195"><ele>454.0</ele><time>2026-04-16T08:45:54Z</time></trkpt><trkpt lat="44.8907657821385" lon="7.250339286657728"><ele>454.0</ele><time>2026-04-16T08:45:55Z</time></trkpt><trkpt lat="44.890749831255086" lon="7.25020843990944"><ele>454.1666666666667</ele><time>2026-04-16T08:45:56Z</time></trkpt><trkpt lat="44.89073585677942" lon="7.250095931024369"><ele>454.33333333333337</ele><time>2026-04-16T08:45:57Z</time></trkpt><trkpt lat="44.89072525050877" lon="7.2500037318360535"><ele>454.5</ele><time>2026-04-16T08:45:58Z</time></trkpt><trkpt lat="44.89070976222487" lon="7.249878438289341"><ele>454.66666666666663</ele><time>2026-04-16T08:46:00Z</time></trkpt><trkpt lat="44.89070067967378" lon="7.249783873494963"><ele>454.8333333333333</ele><time>2026-04-16T08:46:05Z</time></trkpt><trkpt lat="44.89067989493184" lon="7.249630270793977"><ele>455.0</ele><time>2026-04-16T08:46:08Z</time></trkpt><trkpt lat="44.89066539127461" lon="7.249536539853242"><ele>454.4</ele><time>2026-04-16T08:46:09Z</time></trkpt><trkpt lat="44.89065148469853" lon="7.249422728968695"><ele>453.8</ele><time>2026-04-16T08:46:10Z</time></trkpt><trkpt lat="44.89064459151941" lon="7.249307388877118"><ele>453.20000000000005</ele><time>2026-04-16T08:46:11Z</time></trkpt><trkpt lat="44.89063370673215" lon="7.2491866100666975"><ele>452.6</ele><time>2026-04-16T08:46:12Z</time></trkpt><trkpt lat="44.89061725185953" lon="7.249039882785146"><ele>452.0</ele><time>2026-04-16T08:46:13Z</time></trkpt><trkpt lat="44.89060046914091" lon="7.248887282473067"><ele>452.0</ele><time>2026-04-16T08:46:14Z</time></trkpt><trkpt lat="44.890589589584366" lon="7.248735954086823"><ele>452.0</ele><time>2026-04-16T08:46:15Z</time></trkpt><trkpt lat="44.89058245798518" lon="7.248567186281219"><ele>452.0</ele><time>2026-04-16T08:46:16Z</time></trkpt><trkpt lat="44.890581060259194" lon="7.248379107824067"><ele>452.0</ele><time>2026-04-16T08:46:17Z</time></trkpt><trkpt lat="44.8905871116866" lon="7.24817377705861"><ele>452.0</ele><time>2026-04-16T08:46:18Z</time></trkpt><trkpt lat="44.89060685048462" lon="7.247937687236987"><ele>452.0</ele><time>2026-04-16T08:46:19Z</time></trkpt><trkpt lat="44.890638886829386" lon="7.247704415857271"><ele>452.0</ele><time>2026-04-16T08:46:20Z</time></trkpt><trkpt lat="44.89068356380068" lon="7.247500717070417"><ele>452.0</ele><time>2026-04-16T08:46:21Z</time></trkpt><trkpt lat="44.89074110381224" lon="7.247306153039721"><ele>452.0</ele><time>2026-04-16T08:46:22Z</time></trkpt><trkpt lat="44.89080476733704" lon="7.247119578608152"><ele>452.0</ele><time>2026-04-16T08:46:23Z</time></trkpt><trkpt lat="44.89087159118717" lon="7.2469521387427625"><ele>452.0</ele><time>2026-04-16T08:46:24Z</time></trkpt><trkpt lat="44.89094131645675" lon="7.246798451061874"><ele>452.25</ele><time>2026-04-16T08:46:25Z</time></trkpt><trkpt lat="44.89101195577698" lon="7.246646201624952"><ele>452.5</ele><time>2026-04-16T08:46:26Z</time></trkpt><trkpt lat="44.89108228779468" lon="7.246482107727209"><ele>452.75</ele><time>2026-04-16T08:46:27Z</time></trkpt><trkpt lat="44.89116247877614" lon="7.246319594909766"><ele>453.0</ele><time>2026-04-16T08:46:28Z</time></trkpt><trkpt lat="44.89124104728251" lon="7.246152466922462"><ele>453.0</ele><time>2026-04-16T08:46:29Z</time></trkpt><trkpt lat="44.89131798897848" lon="7.245993303684869"><ele>453.0</ele><time>2026-04-16T08:46:30Z</time></trkpt><trkpt lat="44.89139607750193" lon="7.245845835837642"><ele>453.0</ele><time>2026-04-16T08:46:31Z</time></trkpt><trkpt lat="44.89147085164977" lon="7.245706764488261"><ele>453.0</ele><time>2026-04-16T08:46:32Z</time></trkpt><trkpt lat="44.89155311269893" lon="7.245568385763693"><ele>453.5</ele><time>2026-04-16T08:46:33Z</time></trkpt><trkpt lat="44.89163884326972" lon="7.245437304758559"><ele>454.0</ele><time>2026-04-16T08:46:34Z</time></trkpt><trkpt lat="44.89172711086375" lon="7.24532732205366"><ele>454.5</ele><time>2026-04-16T08:46:35Z</time></trkpt><trkpt lat="44.89181691042895" lon="7.2452250394191156"><ele>455.0</ele><time>2026-04-16T08:46:36Z</time></trkpt><trkpt lat="44.89189753617717" lon="7.245135782774067"><ele>455.0</ele><time>2026-04-16T08:46:37Z</time></trkpt><trkpt lat="44.89197372624542" lon="7.245050062030243"><ele>455.0</ele><time>2026-04-16T08:46:38Z</time></trkpt><trkpt lat="44.89201954634844" lon="7.244941504809806"><ele>455.0</ele><time>2026-04-16T08:46:39Z</time></trkpt><trkpt lat="44.89211237330685" lon="7.244873118637736"><ele>455.0</ele><time>2026-04-16T08:46:40Z</time></trkpt><trkpt lat="44.892194348101235" lon="7.244781707813724"><ele>455.0</ele><time>2026-04-16T08:46:41Z</time></trkpt><trkpt lat="44.89228318337671" lon="7.244658889404081"><ele>455.0</ele><time>2026-04-16T08:46:42Z</time></trkpt><trkpt lat="44.892349822504954" lon="7.244547190482687"><ele>455.0</ele><time>2026-04-16T08:46:43Z</time></trkpt><trkpt lat="44.89241919380998" lon="7.2444317962850455"><ele>455.0</ele><time>2026-04-16T08:46:44Z</time></trkpt><trkpt lat="44.89249874150934" lon="7.244350039653237"><ele>455.0</ele><time>2026-04-16T08:46:45Z</time></trkpt><trkpt lat="44.89259520606286" lon="7.244301072780241"><ele>455.0</ele><time>2026-04-16T08:46:46Z</time></trkpt><trkpt lat="44.89270900090856" lon="7.2442734159401985"><ele>456.5</ele><time>2026-04-16T08:46:47Z</time></trkpt><trkpt lat="44.892829744616385" lon="7.244255277016294"><ele>458.0</ele><time>2026-04-16T08:46:48Z</time></trkpt><trkpt lat="44.89297205181061" lon="7.244239450114933"><ele>459.5</ele><time>2026-04-16T08:46:49Z</time></trkpt><trkpt lat="44.89312120810418" lon="7.244231837417375"><ele>461.0</ele><time>2026-04-16T08:46:50Z</time></trkpt><trkpt lat="44.893284727405984" lon="7.2442414282358625"><ele>461.66666666666663</ele><time>2026-04-16T08:46:51Z</time></trkpt><trkpt lat="44.89347258095435" lon="7.244263260506036"><ele>462.33333333333337</ele><time>2026-04-16T08:46:52Z</time></trkpt><trkpt lat="44.89366203611749" lon="7.244296776821804"><ele>463.0</ele><time>2026-04-16T08:46:53Z</time></trkpt><trkpt lat="44.89382238276283" lon="7.244337735537495"><ele>463.0</ele><time>2026-04-16T08:46:54Z</time></trkpt><trkpt lat="44.89397070622287" lon="7.244359833699359"><ele>463.0</ele><time>2026-04-16T08:46:55Z</time></trkpt><trkpt lat="44.894126450987784" lon="7.244384944040261"><ele>463.0</ele><time>2026-04-16T08:46:56Z</time></trkpt><trkpt lat="44.894286891489536" lon="7.244408185427078"><ele>462.33333333333337</ele><time>2026-04-16T08:46:57Z</time></trkpt><trkpt lat="44.89445472219888" lon="7.244441160305792"><ele>461.66666666666663</ele><time>2026-04-16T08:46:58Z</time></trkpt><trkpt lat="44.89461805787289" lon="7.244471623067635"><ele>461.0</ele><time>2026-04-16T08:46:59Z</time></trkpt><trkpt lat="44.894782850551394" lon="7.244504683154485"><ele>461.0</ele><time>2026-04-16T08:47:00Z</time></trkpt><trkpt lat="44.894944093558074" lon="7.244527125646428"><ele>461.0</ele><time>2026-04-16T08:47:01Z</time></trkpt><trkpt lat="44.89509687584919" lon="7.244557246373493"><ele>461.0</ele><time>2026-04-16T08:47:02Z</time></trkpt><trkpt lat="44.895236779740664" lon="7.244590006773828"><ele>460.75</ele><time>2026-04-16T08:47:02.998Z</time></trkpt><trkpt lat="44.89537844022276" lon="7.244614257710549"><ele>460.5</ele><time>2026-04-16T08:47:03.998Z</time></trkpt><trkpt lat="44.895527749180566" lon="7.244642259312329"><ele>460.25</ele><time>2026-04-16T08:47:04.998Z</time></trkpt><trkpt lat="44.89567628353012" lon="7.244666328854691"><ele>460.0</ele><time>2026-04-16T08:47:05.998Z</time></trkpt><trkpt lat="44.89581344105797" lon="7.244686855823113"><ele>460.2</ele><time>2026-04-16T08:47:06.998Z</time></trkpt><trkpt lat="44.89594082817726" lon="7.244723796928578"><ele>460.4</ele><time>2026-04-16T08:47:07.998Z</time></trkpt><trkpt lat="44.89605430781967" lon="7.244760720358834"><ele>460.6</ele><time>2026-04-16T08:47:08.998Z</time></trkpt><trkpt lat="44.89615298884459" lon="7.244791100761346"><ele>460.8</ele><time>2026-04-16T08:47:09.998Z</time></trkpt><trkpt lat="44.8962479055188" lon="7.244828370109283"><ele>461.0</ele><time>2026-04-16T08:47:10.998Z</time></trkpt><trkpt lat="44.896353486250106" lon="7.244873613157931"><ele>464.0</ele><time>2026-04-16T08:47:11.998Z</time></trkpt><trkpt lat="44.89643854553714" lon="7.244922682135798"><ele>467.0</ele><time>2026-04-16T08:47:12.998Z</time></trkpt><trkpt lat="44.896499505167874" lon="7.244960446411156"><ele>470.0</ele><time>2026-04-16T08:47:14.998Z</time></trkpt><trkpt lat="44.89656819676032" lon="7.245033419893047"><ele>473.0</ele><time>2026-04-16T08:47:16.999Z</time></trkpt><trkpt lat="44.89666266326629" lon="7.245008497525407"><ele>476.0</ele><time>2026-04-16T08:47:18.999Z</time></trkpt><trkpt lat="44.89665264312179" lon="7.244836674643331"><ele>473.0</ele><time>2026-04-16T08:47:20.999Z</time></trkpt><trkpt lat="44.89665405922002" lon="7.244703242177944"><ele>470.0</ele><time>2026-04-16T08:47:21.999Z</time></trkpt><trkpt lat="44.896699458738176" lon="7.244574542598737"><ele>467.0</ele><time>2026-04-16T08:47:22.999Z</time></trkpt><trkpt lat="44.89674538898277" lon="7.244433777251385"><ele>464.0</ele><time>2026-04-16T08:47:23.999Z</time></trkpt><trkpt lat="44.89679205125602" lon="7.24429214198543"><ele>461.0</ele><time>2026-04-16T08:47:24.999Z</time></trkpt><trkpt lat="44.89684396031915" lon="7.244156578554965"><ele>460.5</ele><time>2026-04-16T08:47:25.999Z</time></trkpt><trkpt lat="44.89690287898625" lon="7.244031541727614"><ele>460.0</ele><time>2026-04-16T08:47:26.999Z</time></trkpt><trkpt lat="44.89696684212457" lon="7.2439007015144625"><ele>459.5</ele><time>2026-04-16T08:47:27.999Z</time></trkpt><trkpt lat="44.89704010965668" lon="7.24374826471606"><ele>459.0</ele><time>2026-04-16T08:47:28.999Z</time></trkpt><trkpt lat="44.89710746841505" lon="7.2435996568273"><ele>460.0</ele><time>2026-04-16T08:47:29.999Z</time></trkpt><trkpt lat="44.897173258035444" lon="7.243446753536994"><ele>461.0</ele><time>2026-04-16T08:47:30.999Z</time></trkpt><trkpt lat="44.89724497534894" lon="7.243307373902159"><ele>462.0</ele><time>2026-04-16T08:47:31.999Z</time></trkpt><trkpt lat="44.89731240795419" lon="7.243184240477484"><ele>463.0</ele><time>2026-04-16T08:47:32.999Z</time></trkpt><trkpt lat="44.89737044424897" lon="7.243052758757377"><ele>464.0</ele><time>2026-04-16T08:47:33.999Z</time></trkpt><trkpt lat="44.8974289466737" lon="7.242914830193305"><ele>464.99999999999994</ele><time>2026-04-16T08:47:34.999Z</time></trkpt><trkpt lat="44.89747452176128" lon="7.242787740507708"><ele>465.99999999999994</ele><time>2026-04-16T08:47:35.999Z</time></trkpt><trkpt lat="44.89750821601504" lon="7.2426598183950155"><ele>467.0</ele><time>2026-04-16T08:47:36.999Z</time></trkpt><trkpt lat="44.89753028162803" lon="7.242505112224362"><ele>468.0</ele><time>2026-04-16T08:47:37.999Z</time></trkpt><trkpt lat="44.89754376084964" lon="7.242320370483453"><ele>468.5</ele><time>2026-04-16T08:47:38.999Z</time></trkpt><trkpt lat="44.89755758394019" lon="7.242122740365045"><ele>469.0</ele><time>2026-04-16T08:47:39.999Z</time></trkpt><trkpt lat="44.897567748320405" lon="7.241908535984164"><ele>469.5</ele><time>2026-04-16T08:47:40.999Z</time></trkpt><trkpt lat="44.89758773378037" lon="7.241694437955622"><ele>470.0</ele><time>2026-04-16T08:47:41.999Z</time></trkpt><trkpt lat="44.897613854284806" lon="7.2414557341106125"><ele>474.3333333333333</ele><time>2026-04-16T08:47:42.999Z</time></trkpt><trkpt lat="44.89764056587783" lon="7.24119138769485"><ele>478.66666666666663</ele><time>2026-04-16T08:47:43.999Z</time></trkpt><trkpt lat="44.897667405449425" lon="7.240933131659336"><ele>483.0</ele><time>2026-04-16T08:47:44.999Z</time></trkpt><trkpt lat="44.89771433587063" lon="7.240734037279864"><ele>483.25</ele><time>2026-04-16T08:47:45.999Z</time></trkpt><trkpt lat="44.89778013498137" lon="7.240567286635609"><ele>483.5</ele><time>2026-04-16T08:47:47Z</time></trkpt><trkpt lat="44.897847230281" lon="7.240423943974401"><ele>483.75</ele><time>2026-04-16T08:47:48Z</time></trkpt><trkpt lat="44.89790296532175" lon="7.240292352102837"><ele>484.0</ele><time>2026-04-16T08:47:49Z</time></trkpt><trkpt lat="44.897950159310845" lon="7.240175518040328"><ele>484.00000000000006</ele><time>2026-04-16T08:47:50Z</time></trkpt><trkpt lat="44.89799825039777" lon="7.240065664910909"><ele>484.0</ele><time>2026-04-16T08:47:51Z</time></trkpt><trkpt lat="44.89804300163423" lon="7.239953116366319"><ele>484.0</ele><time>2026-04-16T08:47:52Z</time></trkpt><trkpt lat="44.89809244261486" lon="7.239836220472439"><ele>484.0</ele><time>2026-04-16T08:47:53Z</time></trkpt><trkpt lat="44.89813798697795" lon="7.239728873113173"><ele>484.00000000000006</ele><time>2026-04-16T08:47:54Z</time></trkpt><trkpt lat="44.89819376759139" lon="7.23965258511594"><ele>484.0</ele><time>2026-04-16T08:47:55Z</time></trkpt><trkpt lat="44.89825309258" lon="7.239605835183045"><ele>483.83333333333337</ele><time>2026-04-16T08:47:56Z</time></trkpt><trkpt lat="44.89836135130925" lon="7.239621457513113"><ele>483.6666666666667</ele><time>2026-04-16T08:47:57Z</time></trkpt><trkpt lat="44.89847142940179" lon="7.239627349195987"><ele>483.5</ele><time>2026-04-16T08:47:58Z</time></trkpt><trkpt lat="44.8985523488021" lon="7.239602391844526"><ele>483.33333333333337</ele><time>2026-04-16T08:47:59Z</time></trkpt><trkpt lat="44.89861040253865" lon="7.239566194723562"><ele>483.1666666666667</ele><time>2026-04-16T08:48:00Z</time></trkpt><trkpt lat="44.89868469349258" lon="7.239523801206305"><ele>483.0</ele><time>2026-04-16T08:48:02Z</time></trkpt><trkpt lat="44.89876144552958" lon="7.239487822683931"><ele>484.3333333333333</ele><time>2026-04-16T08:48:04Z</time></trkpt><trkpt lat="44.898826781930026" lon="7.23947917988681"><ele>485.66666666666663</ele><time>2026-04-16T08:48:07Z</time></trkpt><trkpt lat="44.898914351801544" lon="7.239426894404225"><ele>487.0</ele><time>2026-04-16T08:48:10Z</time></trkpt><trkpt lat="44.898991670053036" lon="7.239381641216806"><ele>488.3333333333333</ele><time>2026-04-16T08:48:12Z</time></trkpt><trkpt lat="44.899084525290185" lon="7.239334921454651"><ele>489.66666666666663</ele><time>2026-04-16T08:48:14Z</time></trkpt><trkpt lat="44.89914748567816" lon="7.239319689695058"><ele>491.0</ele><time>2026-04-16T08:48:15Z</time></trkpt><trkpt lat="44.899234094564456" lon="7.2392957983057045"><ele>491.4</ele><time>2026-04-16T08:48:16Z</time></trkpt><trkpt lat="44.899312066436714" lon="7.239250296327604"><ele>491.8</ele><time>2026-04-16T08:48:17Z</time></trkpt><trkpt lat="44.899427452892" lon="7.239266139595764"><ele>492.19999999999993</ele><time>2026-04-16T08:48:19Z</time></trkpt><trkpt lat="44.8995445674741" lon="7.2392781431279225"><ele>492.59999999999997</ele><time>2026-04-16T08:48:21Z</time></trkpt><trkpt lat="44.89962443833394" lon="7.239300119492312"><ele>493.0</ele><time>2026-04-16T08:48:23Z</time></trkpt><trkpt lat="44.89970602642915" lon="7.2393113363906085"><ele>493.0</ele><time>2026-04-16T08:48:25Z</time></trkpt><trkpt lat="44.89979201865807" lon="7.239310288198706"><ele>492.99999999999994</ele><time>2026-04-16T08:48:27Z</time></trkpt><trkpt lat="44.89988174433298" lon="7.239281535780985"><ele>492.99999999999994</ele><time>2026-04-16T08:48:29Z</time></trkpt><trkpt lat="44.900026392592466" lon="7.2392319432792736"><ele>493.0</ele><time>2026-04-16T08:48:31Z</time></trkpt><trkpt lat="44.90010805323226" lon="7.23922707363213"><ele>493.0</ele><time>2026-04-16T08:48:32Z</time></trkpt><trkpt lat="44.90033058810405" lon="7.23920284501913"><ele>494.25</ele><time>2026-04-16T08:48:34Z</time></trkpt><trkpt lat="44.900498452629385" lon="7.239210650371137"><ele>495.5</ele><time>2026-04-16T08:48:35Z</time></trkpt><trkpt lat="44.90061771715303" lon="7.239175335509016"><ele>496.75</ele><time>2026-04-16T08:48:36Z</time></trkpt><trkpt lat="44.90075471873462" lon="7.239125834669901"><ele>498.0</ele><time>2026-04-16T08:48:37Z</time></trkpt><trkpt lat="44.90090537785749" lon="7.23908112141386"><ele>499.66666666666663</ele><time>2026-04-16T08:48:38Z</time></trkpt><trkpt lat="44.90108792318367" lon="7.239025570396439"><ele>501.3333333333333</ele><time>2026-04-16T08:48:39Z</time></trkpt><trkpt lat="44.901260071155" lon="7.238969935505278"><ele>503.0</ele><time>2026-04-16T08:48:40Z</time></trkpt><trkpt lat="44.901397520003336" lon="7.238923258115578"><ele>506.0</ele><time>2026-04-16T08:48:41Z</time></trkpt><trkpt lat="44.90151840534129" lon="7.238892101776609"><ele>509.0</ele><time>2026-04-16T08:48:42Z</time></trkpt><trkpt lat="44.90165360631313" lon="7.238862353755845"><ele>512.0</ele><time>2026-04-16T08:48:43Z</time></trkpt><trkpt lat="44.901776510394484" lon="7.238839167388446"><ele>515.0</ele><time>2026-04-16T08:48:44Z</time></trkpt><trkpt lat="44.90189574478299" lon="7.238833248036651"><ele>515.0</ele><time>2026-04-16T08:48:45Z</time></trkpt><trkpt lat="44.90199963932445" lon="7.238876648588013"><ele>515.0</ele><time>2026-04-16T08:48:46Z</time></trkpt><trkpt lat="44.902149617133325" lon="7.238897413312833"><ele>515.0</ele><time>2026-04-16T08:48:47Z</time></trkpt><trkpt lat="44.90228907477831" lon="7.238940004255766"><ele>515.0</ele><time>2026-04-16T08:48:48Z</time></trkpt><trkpt lat="44.9024458188621" lon="7.239003508344073"><ele>511.0</ele><time>2026-04-16T08:48:49Z</time></trkpt><trkpt lat="44.9026043273157" lon="7.2390572819732"><ele>507.0</ele><time>2026-04-16T08:48:50Z</time></trkpt><trkpt lat="44.90275236099503" lon="7.2391093325135785"><ele>503.0</ele><time>2026-04-16T08:48:51Z</time></trkpt><trkpt lat="44.902898758096256" lon="7.239127782163385"><ele>503.0</ele><time>2026-04-16T08:48:52Z</time></trkpt><trkpt lat="44.90307656243946" lon="7.239086119955304"><ele>503.0</ele><time>2026-04-16T08:48:53Z</time></trkpt><trkpt lat="44.903249729488245" lon="7.239045586414641"><ele>503.0</ele><time>2026-04-16T08:48:54Z</time></trkpt><trkpt lat="44.90343769231385" lon="7.239011783779531"><ele>503.0</ele><time>2026-04-16T08:48:55.001Z</time></trkpt><trkpt lat="44.903619643774576" lon="7.238983418710787"><ele>503.0</ele><time>2026-04-16T08:48:56.001Z</time></trkpt><trkpt lat="44.903800563269485" lon="7.238961804772674"><ele>503.0</ele><time>2026-04-16T08:48:57.001Z</time></trkpt><trkpt lat="44.90397108971491" lon="7.238926330565724"><ele>507.5</ele><time>2026-04-16T08:48:58.001Z</time></trkpt><trkpt lat="44.90412378238889" lon="7.2389132546640065"><ele>512.0</ele><time>2026-04-16T08:48:59.001Z</time></trkpt><trkpt lat="44.90426449863387" lon="7.238896959040148"><ele>516.5</ele><time>2026-04-16T08:49:00.001Z</time></trkpt><trkpt lat="44.904407584828384" lon="7.23889320621113"><ele>521.0</ele><time>2026-04-16T08:49:01.001Z</time></trkpt><trkpt lat="44.90455334435289" lon="7.238901856004092"><ele>522.0</ele><time>2026-04-16T08:49:02.001Z</time></trkpt><trkpt lat="44.90468759522516" lon="7.238937482937029"><ele>523.0</ele><time>2026-04-16T08:49:03.001Z</time></trkpt><trkpt lat="44.90482036186929" lon="7.238979089577547"><ele>524.0</ele><time>2026-04-16T08:49:04.001Z</time></trkpt><trkpt lat="44.90493447834556" lon="7.23901443249506"><ele>525.0</ele><time>2026-04-16T08:49:05.001Z</time></trkpt><trkpt lat="44.90503987071048" lon="7.239055784957526"><ele>526.1666666666666</ele><time>2026-04-16T08:49:06.001Z</time></trkpt><trkpt lat="44.90513058128166" lon="7.239097430293812"><ele>527.3333333333334</ele><time>2026-04-16T08:49:07.001Z</time></trkpt><trkpt lat="44.90521540606945" lon="7.239094600746527"><ele>528.5</ele><time>2026-04-16T08:49:08.001Z</time></trkpt><trkpt lat="44.90527427665053" lon="7.2390289780237005"><ele>529.6666666666667</ele><time>2026-04-16T08:49:08.999Z</time></trkpt><trkpt lat="44.90531316493818" lon="7.238922376814445"><ele>530.8333333333334</ele><time>2026-04-16T08:49:09.999Z</time></trkpt><trkpt lat="44.90531289223802" lon="7.238803198435875"><ele>532.0</ele><time>2026-04-16T08:49:10.999Z</time></trkpt><trkpt lat="44.90526946209261" lon="7.238686858899874"><ele>532.0</ele><time>2026-04-16T08:49:11.999Z</time></trkpt><trkpt lat="44.90520029598961" lon="7.238601750666476"><ele>532.0</ele><time>2026-04-16T08:49:12.999Z</time></trkpt><trkpt lat="44.90510454049008" lon="7.238564917597847"><ele>532.0</ele><time>2026-04-16T08:49:13.999Z</time></trkpt><trkpt lat="44.9049952092958" lon="7.238539597320043"><ele>532.0</ele><time>2026-04-16T08:49:14.999Z</time></trkpt><trkpt lat="44.90485840851727" lon="7.238499760210237"><ele>532.0</ele><time>2026-04-16T08:49:15.999Z</time></trkpt><trkpt lat="44.904703509411455" lon="7.238450867599047"><ele>529.6666666666667</ele><time>2026-04-16T08:49:16.999Z</time></trkpt><trkpt lat="44.90453823508576" lon="7.2383877129020044"><ele>527.3333333333334</ele><time>2026-04-16T08:49:17.999Z</time></trkpt><trkpt lat="44.904350790429554" lon="7.238323234534686"><ele>525.0</ele><time>2026-04-16T08:49:18.999Z</time></trkpt><trkpt lat="44.90418097199291" lon="7.238278112050299"><ele>523.6666666666666</ele><time>2026-04-16T08:49:19.999Z</time></trkpt><trkpt lat="44.904001093562165" lon="7.238191820816461"><ele>522.3333333333333</ele><time>2026-04-16T08:49:20.999Z</time></trkpt><trkpt lat="44.90383600261577" lon="7.238112772096752"><ele>521.0</ele><time>2026-04-16T08:49:21.999Z</time></trkpt><trkpt lat="44.90370971675219" lon="7.238008563726553"><ele>525.3333333333333</ele><time>2026-04-16T08:49:22.999Z</time></trkpt><trkpt lat="44.90359057190305" lon="7.237868352373847"><ele>529.6666666666666</ele><time>2026-04-16T08:49:23.999Z</time></trkpt><trkpt lat="44.903468865008605" lon="7.237715374348359"><ele>534.0</ele><time>2026-04-16T08:49:24.999Z</time></trkpt><trkpt lat="44.9033418032392" lon="7.237543940797922"><ele>534.0</ele><time>2026-04-16T08:49:25.999Z</time></trkpt><trkpt lat="44.90321194037599" lon="7.237339907871134"><ele>534.0</ele><time>2026-04-16T08:49:26.999Z</time></trkpt><trkpt lat="44.90305419714604" lon="7.237126128419183"><ele>534.0</ele><time>2026-04-16T08:49:27.999Z</time></trkpt><trkpt lat="44.902903754733906" lon="7.236922291959854"><ele>539.6666666666666</ele><time>2026-04-16T08:49:28.999Z</time></trkpt><trkpt lat="44.90278012019969" lon="7.236752899487791"><ele>545.3333333333333</ele><time>2026-04-16T08:49:29.999Z</time></trkpt><trkpt lat="44.90266194345377" lon="7.23658678345215"><ele>551.0</ele><time>2026-04-16T08:49:30.999Z</time></trkpt><trkpt lat="44.90256555987" lon="7.23639732175199"><ele>551.0</ele><time>2026-04-16T08:49:31.999Z</time></trkpt><trkpt lat="44.90245505271878" lon="7.236180957649431"><ele>551.0</ele><time>2026-04-16T08:49:33Z</time></trkpt><trkpt lat="44.90234807656449" lon="7.235920282985291"><ele>551.0</ele><time>2026-04-16T08:49:34Z</time></trkpt><trkpt lat="44.90222820315721" lon="7.235626593246813"><ele>556.5</ele><time>2026-04-16T08:49:35Z</time></trkpt><trkpt lat="44.90211026775776" lon="7.235341489349027"><ele>562.0</ele><time>2026-04-16T08:49:36Z</time></trkpt><trkpt lat="44.90199032973691" lon="7.235044838752522"><ele>560.3333333333334</ele><time>2026-04-16T08:49:37Z</time></trkpt><trkpt lat="44.90188098382395" lon="7.234761193108552"><ele>558.6666666666666</ele><time>2026-04-16T08:49:38Z</time></trkpt><trkpt lat="44.90178530878327" lon="7.234487712831831"><ele>557.0</ele><time>2026-04-16T08:49:39Z</time></trkpt><trkpt lat="44.90170814472357" lon="7.234233551730951"><ele>557.0</ele><time>2026-04-16T08:49:40Z</time></trkpt><trkpt lat="44.901650279724656" lon="7.234014637686116"><ele>557.0</ele><time>2026-04-16T08:49:41Z</time></trkpt><trkpt lat="44.901586373321734" lon="7.2338161315317215"><ele>557.0</ele><time>2026-04-16T08:49:42Z</time></trkpt><trkpt lat="44.90153325409226" lon="7.233637089774865"><ele>559.6</ele><time>2026-04-16T08:49:43Z</time></trkpt><trkpt lat="44.90148394307499" lon="7.233485119028325"><ele>562.2</ele><time>2026-04-16T08:49:44Z</time></trkpt><trkpt lat="44.90144546502812" lon="7.233351519848001"><ele>564.8</ele><time>2026-04-16T08:49:45Z</time></trkpt><trkpt lat="44.90142370706677" lon="7.23320963560806"><ele>567.4</ele><time>2026-04-16T08:49:46Z</time></trkpt><trkpt lat="44.90143763185323" lon="7.233063475407395"><ele>570.0</ele><time>2026-04-16T08:49:47Z</time></trkpt><trkpt lat="44.90147506494468" lon="7.232893683452933"><ele>570.3333333333334</ele><time>2026-04-16T08:49:48Z</time></trkpt><trkpt lat="44.90153768846545" lon="7.23269887172735"><ele>570.6666666666667</ele><time>2026-04-16T08:49:49Z</time></trkpt><trkpt lat="44.90161117718878" lon="7.2324899931236155"><ele>571.0</ele><time>2026-04-16T08:49:50Z</time></trkpt><trkpt lat="44.90166824425416" lon="7.232305997939177"><ele>569.2</ele><time>2026-04-16T08:49:51Z</time></trkpt><trkpt lat="44.90168389091856" lon="7.23216609571395"><ele>567.4000000000001</ele><time>2026-04-16T08:49:52Z</time></trkpt><trkpt lat="44.90168250528075" lon="7.2320139551854945"><ele>565.6</ele><time>2026-04-16T08:49:53Z</time></trkpt><trkpt lat="44.90168495075355" lon="7.231850406781817"><ele>563.8000000000001</ele><time>2026-04-16T08:49:54Z</time></trkpt><trkpt lat="44.90170535670928" lon="7.231729148626571"><ele>562.0</ele><time>2026-04-16T08:49:55Z</time></trkpt><trkpt lat="44.90174313132624" lon="7.231652358287522"><ele>568.8333333333334</ele><time>2026-04-16T08:49:56Z</time></trkpt><trkpt lat="44.90180833212044" lon="7.231599129896145"><ele>575.6666666666667</ele><time>2026-04-16T08:49:57Z</time></trkpt><trkpt lat="44.90189471674519" lon="7.23155068567841"><ele>582.5</ele><time>2026-04-16T08:49:58Z</time></trkpt><trkpt lat="44.901972428154764" lon="7.231489195134113"><ele>589.3333333333334</ele><time>2026-04-16T08:49:59Z</time></trkpt><trkpt lat="44.90203426989242" lon="7.231397353973925"><ele>596.1666666666666</ele><time>2026-04-16T08:50:00Z</time></trkpt><trkpt lat="44.90206541113085" lon="7.231279802535345"><ele>603.0</ele><time>2026-04-16T08:50:01Z</time></trkpt><trkpt lat="44.90205188731047" lon="7.231159350794752"><ele>603.0</ele><time>2026-04-16T08:50:02Z</time></trkpt><trkpt lat="44.902063510291605" lon="7.23099726199404"><ele>603.0</ele><time>2026-04-16T08:50:03Z</time></trkpt><trkpt lat="44.90205347598632" lon="7.230793848047975"><ele>603.0</ele><time>2026-04-16T08:50:04Z</time></trkpt><trkpt lat="44.9020299929109" lon="7.230578843991793"><ele>603.0</ele><time>2026-04-16T08:50:05Z</time></trkpt><trkpt lat="44.902017131838264" lon="7.230387368635604"><ele>603.6</ele><time>2026-04-16T08:50:06Z</time></trkpt><trkpt lat="44.90201822339369" lon="7.230227724300978"><ele>604.1999999999999</ele><time>2026-04-16T08:50:07Z</time></trkpt><trkpt lat="44.90205747496413" lon="7.230088124429011"><ele>604.8</ele><time>2026-04-16T08:50:08Z</time></trkpt><trkpt lat="44.902149476513884" lon="7.22999721878527"><ele>605.4</ele><time>2026-04-16T08:50:09Z</time></trkpt><trkpt lat="44.9022265647188" lon="7.229908571767297"><ele>606.0</ele><time>2026-04-16T08:50:10Z</time></trkpt><trkpt lat="44.902300198459024" lon="7.229863560647187"><ele>607.6</ele><time>2026-04-16T08:50:11Z</time></trkpt><trkpt lat="44.902339954044464" lon="7.2297737295638465"><ele>609.2</ele><time>2026-04-16T08:50:12Z</time></trkpt><trkpt lat="44.902329528669995" lon="7.229652576420592"><ele>610.8</ele><time>2026-04-16T08:50:13.001Z</time></trkpt><trkpt lat="44.90228121392255" lon="7.2295440037301635"><ele>612.4</ele><time>2026-04-16T08:50:14.001Z</time></trkpt><trkpt lat="44.902196277632754" lon="7.229447565054942"><ele>614.0</ele><time>2026-04-16T08:50:15.001Z</time></trkpt><trkpt lat="44.9020866860691" lon="7.229376634474044"><ele>614.0</ele><time>2026-04-16T08:50:16.001Z</time></trkpt><trkpt lat="44.90198791062391" lon="7.229298086886604"><ele>614.0</ele><time>2026-04-16T08:50:17.001Z</time></trkpt><trkpt lat="44.90193637403527" lon="7.229189724372511"><ele>614.0</ele><time>2026-04-16T08:50:18.001Z</time></trkpt><trkpt lat="44.901947745930784" lon="7.229052867912054"><ele>614.0</ele><time>2026-04-16T08:50:19.001Z</time></trkpt><trkpt lat="44.901953518664726" lon="7.228868513873269"><ele>614.0</ele><time>2026-04-16T08:50:20.001Z</time></trkpt><trkpt lat="44.90195812141975" lon="7.228635637506762"><ele>617.3333333333333</ele><time>2026-04-16T08:50:21.001Z</time></trkpt><trkpt lat="44.9019722166418" lon="7.228385618789071"><ele>620.6666666666666</ele><time>2026-04-16T08:50:22.001Z</time></trkpt><trkpt lat="44.90200035675049" lon="7.228126432344158"><ele>624.0</ele><time>2026-04-16T08:50:23.001Z</time></trkpt><trkpt lat="44.90201515348879" lon="7.227839418440727"><ele>624.0</ele><time>2026-04-16T08:50:24.001Z</time></trkpt><trkpt lat="44.90199351614805" lon="7.227549435118792"><ele>624.0</ele><time>2026-04-16T08:50:25.001Z</time></trkpt><trkpt lat="44.90194756963915" lon="7.227255777053077"><ele>624.0</ele><time>2026-04-16T08:50:26.001Z</time></trkpt><trkpt lat="44.90189949555104" lon="7.226976235421505"><ele>623.3333333333334</ele><time>2026-04-16T08:50:27.001Z</time></trkpt><trkpt lat="44.901854489707524" lon="7.226726724236304"><ele>622.6666666666667</ele><time>2026-04-16T08:50:28.001Z</time></trkpt><trkpt lat="44.90180735321523" lon="7.226505795273509"><ele>622.0</ele><time>2026-04-16T08:50:29.001Z</time></trkpt><trkpt lat="44.901756948177784" lon="7.2263045969876485"><ele>614.0</ele><time>2026-04-16T08:50:30.001Z</time></trkpt><trkpt lat="44.901695527441575" lon="7.2261361908970585"><ele>606.0</ele><time>2026-04-16T08:50:31.001Z</time></trkpt><trkpt lat="44.901635430776885" lon="7.225985623327422"><ele>598.0</ele><time>2026-04-16T08:50:32.001Z</time></trkpt><trkpt lat="44.901616471811664" lon="7.225839987861222"><ele>590.0</ele><time>2026-04-16T08:50:33.001Z</time></trkpt><trkpt lat="44.90163545564589" lon="7.225674373092041"><ele>591.3333333333333</ele><time>2026-04-16T08:50:34.001Z</time></trkpt><trkpt lat="44.901690623379096" lon="7.225502550071288"><ele>592.6666666666666</ele><time>2026-04-16T08:50:35.001Z</time></trkpt><trkpt lat="44.90174314566503" lon="7.22529982579059"><ele>594.0</ele><time>2026-04-16T08:50:36.001Z</time></trkpt><trkpt lat="44.90175033352748" lon="7.225063281480629"><ele>594.0</ele><time>2026-04-16T08:50:37.001Z</time></trkpt><trkpt lat="44.90173549463447" lon="7.224818833998461"><ele>594.0</ele><time>2026-04-16T08:50:38.001Z</time></trkpt><trkpt lat="44.90171786726863" lon="7.224556874738175"><ele>594.0</ele><time>2026-04-16T08:50:39.001Z</time></trkpt><trkpt lat="44.90170587561948" lon="7.224301956611239"><ele>594.5</ele><time>2026-04-16T08:50:40.001Z</time></trkpt><trkpt lat="44.901700433714936" lon="7.224079053122995"><ele>595.0</ele><time>2026-04-16T08:50:41.001Z</time></trkpt><trkpt lat="44.90169686970077" lon="7.223898522133362"><ele>595.5</ele><time>2026-04-16T08:50:42.001Z</time></trkpt><trkpt lat="44.90166844123477" lon="7.223732258683058"><ele>596.0</ele><time>2026-04-16T08:50:43.001Z</time></trkpt><trkpt lat="44.90158885926627" lon="7.223564302274405"><ele>598.25</ele><time>2026-04-16T08:50:44.001Z</time></trkpt><trkpt lat="44.90152040149566" lon="7.223362584550681"><ele>600.5</ele><time>2026-04-16T08:50:45.001Z</time></trkpt><trkpt lat="44.9014580222576" lon="7.223203914956455"><ele>602.75</ele><time>2026-04-16T08:50:46.001Z</time></trkpt><trkpt lat="44.90140664888552" lon="7.2230308300075485"><ele>605.0</ele><time>2026-04-16T08:50:47.001Z</time></trkpt><trkpt lat="44.90137912396836" lon="7.222837486748632"><ele>605.3333333333333</ele><time>2026-04-16T08:50:48.001Z</time></trkpt><trkpt lat="44.901372458793446" lon="7.222618340544884"><ele>605.6666666666666</ele><time>2026-04-16T08:50:49.001Z</time></trkpt><trkpt lat="44.90137243167625" lon="7.222379077100843"><ele>606.0</ele><time>2026-04-16T08:50:50.001Z</time></trkpt><trkpt lat="44.901363365703155" lon="7.222107745650528"><ele>606.0</ele><time>2026-04-16T08:50:51.001Z</time></trkpt><trkpt lat="44.901369036495524" lon="7.2218631907222015"><ele>606.0</ele><time>2026-04-16T08:50:52.001Z</time></trkpt><trkpt lat="44.90139702262871" lon="7.221632267478234"><ele>606.0</ele><time>2026-04-16T08:50:53.001Z</time></trkpt><trkpt lat="44.90144967405855" lon="7.221396178199914"><ele>605.3333333333334</ele><time>2026-04-16T08:50:54.001Z</time></trkpt><trkpt lat="44.9015412771623" lon="7.221141227767567"><ele>604.6666666666667</ele><time>2026-04-16T08:50:55.001Z</time></trkpt><trkpt lat="44.90163736191604" lon="7.220904302700475"><ele>604.0</ele><time>2026-04-16T08:50:56.001Z</time></trkpt><trkpt lat="44.901736832456855" lon="7.220702157824297"><ele>610.3333333333334</ele><time>2026-04-16T08:50:57.001Z</time></trkpt><trkpt lat="44.90185376193252" lon="7.220498056081084"><ele>616.6666666666666</ele><time>2026-04-16T08:50:58.001Z</time></trkpt><trkpt lat="44.901973073472476" lon="7.220278667301777"><ele>623.0</ele><time>2026-04-16T08:50:59.001Z</time></trkpt><trkpt lat="44.90210969755413" lon="7.220077268725221"><ele>623.0</ele><time>2026-04-16T08:51:00.001Z</time></trkpt><trkpt lat="44.90223294061357" lon="7.219917899114777"><ele>623.0</ele><time>2026-04-16T08:51:01.001Z</time></trkpt><trkpt lat="44.90232560791791" lon="7.21970460274391"><ele>623.0</ele><time>2026-04-16T08:51:02.001Z</time></trkpt><trkpt lat="44.902407204067295" lon="7.219445625088159"><ele>620.3333333333333</ele><time>2026-04-16T08:51:03.001Z</time></trkpt><trkpt lat="44.9024794930763" lon="7.219179441715704"><ele>617.6666666666666</ele><time>2026-04-16T08:51:04.001Z</time></trkpt><trkpt lat="44.90254085401754" lon="7.218909995870213"><ele>615.0</ele><time>2026-04-16T08:51:05.001Z</time></trkpt><trkpt lat="44.90258812175124" lon="7.218651587749881"><ele>628.6666666666666</ele><time>2026-04-16T08:51:06.001Z</time></trkpt><trkpt lat="44.90262734457345" lon="7.218402365551673"><ele>642.3333333333333</ele><time>2026-04-16T08:51:07.001Z</time></trkpt><trkpt lat="44.90265071866546" lon="7.218173235424573"><ele>656.0</ele><time>2026-04-16T08:51:08.001Z</time></trkpt><trkpt lat="44.90267435691669" lon="7.217934116117416"><ele>656.6666666666666</ele><time>2026-04-16T08:51:09.001Z</time></trkpt><trkpt lat="44.902699075741054" lon="7.217711577418897"><ele>657.3333333333334</ele><time>2026-04-16T08:51:10.001Z</time></trkpt><trkpt lat="44.902726552445955" lon="7.2174922652816385"><ele>658.0</ele><time>2026-04-16T08:51:11.002Z</time></trkpt><trkpt lat="44.90276057643749" lon="7.217278841560367"><ele>659.3333333333334</ele><time>2026-04-16T08:51:12.002Z</time></trkpt><trkpt lat="44.90278066021551" lon="7.217064609945973"><ele>660.6666666666666</ele><time>2026-04-16T08:51:13.002Z</time></trkpt><trkpt lat="44.902781751584136" lon="7.216845038600063"><ele>662.0</ele><time>2026-04-16T08:51:14.002Z</time></trkpt><trkpt lat="44.90275770055718" lon="7.216578561669811"><ele>662.0</ele><time>2026-04-16T08:51:15Z</time></trkpt><trkpt lat="44.902692489192084" lon="7.216305067396257"><ele>662.0</ele><time>2026-04-16T08:51:16Z</time></trkpt><trkpt lat="44.90265367393322" lon="7.216060163472483"><ele>662.0</ele><time>2026-04-16T08:51:17Z</time></trkpt><trkpt lat="44.90265738988859" lon="7.215831896571715"><ele>662.0</ele><time>2026-04-16T08:51:18Z</time></trkpt><trkpt lat="44.90268528541675" lon="7.215600980304931"><ele>662.0</ele><time>2026-04-16T08:51:19Z</time></trkpt><trkpt lat="44.9027223065254" lon="7.215339824495302"><ele>662.0</ele><time>2026-04-16T08:51:20Z</time></trkpt><trkpt lat="44.90275195840905" lon="7.215059188349943"><ele>660.6666666666666</ele><time>2026-04-16T08:51:21Z</time></trkpt><trkpt lat="44.90279482961551" lon="7.2147797281335055"><ele>659.3333333333334</ele><time>2026-04-16T08:51:22Z</time></trkpt><trkpt lat="44.90283824473451" lon="7.214506263469998"><ele>658.0</ele><time>2026-04-16T08:51:23Z</time></trkpt><trkpt lat="44.90290534376618" lon="7.214234852223225"><ele>656.3333333333334</ele><time>2026-04-16T08:51:24Z</time></trkpt><trkpt lat="44.902984704175594" lon="7.213963378442956"><ele>654.6666666666666</ele><time>2026-04-16T08:51:25Z</time></trkpt><trkpt lat="44.90304965971592" lon="7.213723451613141"><ele>653.0</ele><time>2026-04-16T08:51:26Z</time></trkpt><trkpt lat="44.90309372672904" lon="7.21350141146504"><ele>653.0</ele><time>2026-04-16T08:51:27Z</time></trkpt><trkpt lat="44.903128154853384" lon="7.213274265837257"><ele>653.0</ele><time>2026-04-16T08:51:28Z</time></trkpt><trkpt lat="44.90314229241912" lon="7.213043913852752"><ele>653.0</ele><time>2026-04-16T08:51:29Z</time></trkpt><trkpt lat="44.90315111160122" lon="7.2128281643276075"><ele>652.5</ele><time>2026-04-16T08:51:30Z</time></trkpt><trkpt lat="44.90314878134768" lon="7.212640471992841"><ele>652.0</ele><time>2026-04-16T08:51:31Z</time></trkpt><trkpt lat="44.90313779941391" lon="7.212483174029653"><ele>651.5</ele><time>2026-04-16T08:51:32Z</time></trkpt><trkpt lat="44.903125279443614" lon="7.212326100745762"><ele>651.0</ele><time>2026-04-16T08:51:33Z</time></trkpt><trkpt lat="44.90311802769101" lon="7.212146476931019"><ele>651.25</ele><time>2026-04-16T08:51:34Z</time></trkpt><trkpt lat="44.903114482679115" lon="7.211953409773359"><ele>651.5</ele><time>2026-04-16T08:51:35Z</time></trkpt><trkpt lat="44.903115271650925" lon="7.211769872822555"><ele>651.75</ele><time>2026-04-16T08:51:36Z</time></trkpt><trkpt lat="44.90311056960337" lon="7.211587027716055"><ele>652.0</ele><time>2026-04-16T08:51:37Z</time></trkpt><trkpt lat="44.90309941047833" lon="7.211405179896001"><ele>652.0</ele><time>2026-04-16T08:51:38Z</time></trkpt><trkpt lat="44.90309266313057" lon="7.211225753782589"><ele>652.0</ele><time>2026-04-16T08:51:39Z</time></trkpt><trkpt lat="44.903081422228716" lon="7.211034546913045"><ele>652.0</ele><time>2026-04-16T08:51:40Z</time></trkpt><trkpt lat="44.90307148578897" lon="7.210847630410358"><ele>652.0</ele><time>2026-04-16T08:51:41Z</time></trkpt><trkpt lat="44.90306610895139" lon="7.210648800934074"><ele>652.75</ele><time>2026-04-16T08:51:42Z</time></trkpt><trkpt lat="44.903057087381065" lon="7.210451426754372"><ele>653.5</ele><time>2026-04-16T08:51:43Z</time></trkpt><trkpt lat="44.90304495098734" lon="7.210246191785703"><ele>654.25</ele><time>2026-04-16T08:51:44Z</time></trkpt><trkpt lat="44.90303583155158" lon="7.210040079458466"><ele>655.0</ele><time>2026-04-16T08:51:45Z</time></trkpt><trkpt lat="44.903027135965864" lon="7.209834174766802"><ele>658.3333333333334</ele><time>2026-04-16T08:51:46Z</time></trkpt><trkpt lat="44.90301973712688" lon="7.209618857178571"><ele>661.6666666666666</ele><time>2026-04-16T08:51:47Z</time></trkpt><trkpt lat="44.903010522804614" lon="7.2094099566413075"><ele>665.0</ele><time>2026-04-16T08:51:48Z</time></trkpt><trkpt lat="44.90299016869773" lon="7.2091695736534325"><ele>669.0</ele><time>2026-04-16T08:51:49Z</time></trkpt><trkpt lat="44.90298003810341" lon="7.208940247643666"><ele>673.0</ele><time>2026-04-16T08:51:50Z</time></trkpt><trkpt lat="44.90296900756284" lon="7.208708608433116"><ele>677.0</ele><time>2026-04-16T08:51:51Z</time></trkpt><trkpt lat="44.90296239935407" lon="7.208470296770552"><ele>677.0</ele><time>2026-04-16T08:51:52Z</time></trkpt><trkpt lat="44.902958320291425" lon="7.208240731848756"><ele>677.0</ele><time>2026-04-16T08:51:53Z</time></trkpt><trkpt lat="44.90295080505004" lon="7.2080160168982665"><ele>677.0</ele><time>2026-04-16T08:51:54Z</time></trkpt><trkpt lat="44.90294384833662" lon="7.207830150888483"><ele>678.75</ele><time>2026-04-16T08:51:55Z</time></trkpt><trkpt lat="44.9029324002214" lon="7.2076642042772185"><ele>680.5</ele><time>2026-04-16T08:51:56.001Z</time></trkpt><trkpt lat="44.90292129052964" lon="7.207488885045215"><ele>682.25</ele><time>2026-04-16T08:51:57.001Z</time></trkpt><trkpt lat="44.90290009960255" lon="7.207326709612177"><ele>684.0</ele><time>2026-04-16T08:51:58.001Z</time></trkpt><trkpt lat="44.902858506300944" lon="7.207162779359838"><ele>683.25</ele><time>2026-04-16T08:51:59.001Z</time></trkpt><trkpt lat="44.90279785142717" lon="7.207003454555409"><ele>682.5</ele><time>2026-04-16T08:52:00.001Z</time></trkpt><trkpt lat="44.90271502614895" lon="7.206844866595124"><ele>681.75</ele><time>2026-04-16T08:52:01.001Z</time></trkpt><trkpt lat="44.902629169843905" lon="7.206697134237671"><ele>681.0</ele><time>2026-04-16T08:52:02.001Z</time></trkpt><trkpt lat="44.90256666902493" lon="7.206586176632588"><ele>681.0</ele><time>2026-04-16T08:52:03.001Z</time></trkpt><trkpt lat="44.90252348098296" lon="7.206507901601045"><ele>681.0</ele><time>2026-04-16T08:52:04.001Z</time></trkpt><trkpt lat="44.90246333247983" lon="7.20640295479441"><ele>681.0</ele><time>2026-04-16T08:52:06.001Z</time></trkpt><trkpt lat="44.90234935515561" lon="7.206491674110033"><ele>681.0</ele><time>2026-04-16T08:52:08.001Z</time></trkpt><trkpt lat="44.90228196785422" lon="7.206545424362119"><ele>681.0</ele><time>2026-04-16T08:52:10.001Z</time></trkpt><trkpt lat="44.90221074085417" lon="7.2065751904937745"><ele>681.0</ele><time>2026-04-16T08:52:12.001Z</time></trkpt><trkpt lat="44.90216174096268" lon="7.206479557018359"><ele>683.75</ele><time>2026-04-16T08:52:14.001Z</time></trkpt><trkpt lat="44.902059304384025" lon="7.206341705616522"><ele>686.5</ele><time>2026-04-16T08:52:16.001Z</time></trkpt><trkpt lat="44.90198363238001" lon="7.2062540676596925"><ele>689.25</ele><time>2026-04-16T08:52:17.001Z</time></trkpt><trkpt lat="44.901873636747325" lon="7.206120256513721"><ele>692.0</ele><time>2026-04-16T08:52:18.001Z</time></trkpt><trkpt lat="44.90177261157889" lon="7.205995441858764"><ele>692.3333333333333</ele><time>2026-04-16T08:52:19.001Z</time></trkpt><trkpt lat="44.90165087056807" lon="7.205866531039134"><ele>692.6666666666666</ele><time>2026-04-16T08:52:20.001Z</time></trkpt><trkpt lat="44.901505139036146" lon="7.205725827276113"><ele>693.0</ele><time>2026-04-16T08:52:21.001Z</time></trkpt><trkpt lat="44.90136391577927" lon="7.20557994462941"><ele>694.0</ele><time>2026-04-16T08:52:22.001Z</time></trkpt><trkpt lat="44.901216122463076" lon="7.20541259988384"><ele>695.0</ele><time>2026-04-16T08:52:23.001Z</time></trkpt><trkpt lat="44.90109558202454" lon="7.205274823216719"><ele>696.0</ele><time>2026-04-16T08:52:24.001Z</time></trkpt><trkpt lat="44.90100025538225" lon="7.205189775136356"><ele>696.0</ele><time>2026-04-16T08:52:25.001Z</time></trkpt><trkpt lat="44.90093445913973" lon="7.2051358034919275"><ele>696.0</ele><time>2026-04-16T08:52:26.001Z</time></trkpt><trkpt lat="44.90086080638256" lon="7.205094640307722"><ele>696.0</ele><time>2026-04-16T08:52:28.001Z</time></trkpt><trkpt lat="44.900808632834256" lon="7.205160501610739"><ele>696.0</ele><time>2026-04-16T08:52:30.001Z</time></trkpt><trkpt lat="44.900829753859064" lon="7.20532250493538"><ele>696.0</ele><time>2026-04-16T08:52:32.001Z</time></trkpt><trkpt lat="44.900901835629604" lon="7.205410232736625"><ele>696.0</ele><time>2026-04-16T08:52:33.001Z</time></trkpt><trkpt lat="44.90097927947412" lon="7.205510294950722"><ele>696.0</ele><time>2026-04-16T08:52:34.001Z</time></trkpt><trkpt lat="44.901068685799174" lon="7.205621919906158"><ele>696.0</ele><time>2026-04-16T08:52:35.001Z</time></trkpt><trkpt lat="44.90116253701156" lon="7.205715854986609"><ele>696.0</ele><time>2026-04-16T08:52:36.001Z</time></trkpt><trkpt lat="44.90123782544186" lon="7.205827328947016"><ele>696.0</ele><time>2026-04-16T08:52:37.001Z</time></trkpt><trkpt lat="44.90136972087079" lon="7.20602523154837"><ele>695.4</ele><time>2026-04-16T08:52:38.001Z</time></trkpt><trkpt lat="44.90146479085139" lon="7.2061596536768056"><ele>694.8</ele><time>2026-04-16T08:52:39.001Z</time></trkpt><trkpt lat="44.901530386812524" lon="7.206291600377653"><ele>694.1999999999999</ele><time>2026-04-16T08:52:40.001Z</time></trkpt><trkpt lat="44.901592112871725" lon="7.206385403551849"><ele>693.5999999999999</ele><time>2026-04-16T08:52:41.001Z</time></trkpt><trkpt lat="44.90165888437771" lon="7.206471307855375"><ele>693.0</ele><time>2026-04-16T08:52:42.001Z</time></trkpt><trkpt lat="44.901597318504585" lon="7.206421621608032"><ele>693.0</ele><time>2026-04-16T08:52:44.001Z</time></trkpt><trkpt lat="44.90150747633299" lon="7.2063700562625455"><ele>693.0</ele><time>2026-04-16T08:52:47.001Z</time></trkpt><trkpt lat="44.90144199037243" lon="7.206316484369755"><ele>693.0</ele><time>2026-04-16T08:52:48.001Z</time></trkpt><trkpt lat="44.90131843918086" lon="7.206231892202159"><ele>693.0</ele><time>2026-04-16T08:52:49.001Z</time></trkpt><trkpt lat="44.901204756067735" lon="7.206119732998899"><ele>693.0</ele><time>2026-04-16T08:52:50.001Z</time></trkpt><trkpt lat="44.901092007183905" lon="7.205994906308058"><ele>693.0</ele><time>2026-04-16T08:52:51.001Z</time></trkpt><trkpt lat="44.90097393149886" lon="7.205855740346618"><ele>693.0</ele><time>2026-04-16T08:52:52.001Z</time></trkpt><trkpt lat="44.90086718703948" lon="7.2057199266509375"><ele>693.0</ele><time>2026-04-16T08:52:53.001Z</time></trkpt><trkpt lat="44.90075041978037" lon="7.205624767681068"><ele>693.0</ele><time>2026-04-16T08:52:54.001Z</time></trkpt><trkpt lat="44.90066208091283" lon="7.205517782260558"><ele>696.5</ele><time>2026-04-16T08:52:55.002Z</time></trkpt><trkpt lat="44.90054612198592" lon="7.205401577425158"><ele>700.0</ele><time>2026-04-16T08:52:56.002Z</time></trkpt><trkpt lat="44.90043501717607" lon="7.2053094187430755"><ele>703.5</ele><time>2026-04-16T08:52:57.002Z</time></trkpt><trkpt lat="44.90031812433767" lon="7.2051922045162184"><ele>707.0</ele><time>2026-04-16T08:52:58.002Z</time></trkpt><trkpt lat="44.900219913450876" lon="7.205123046452244"><ele>707.0</ele><time>2026-04-16T08:52:59.002Z</time></trkpt><trkpt lat="44.90013798416939" lon="7.205032046550377"><ele>707.0</ele><time>2026-04-16T08:53:00.002Z</time></trkpt><trkpt lat="44.90003235054634" lon="7.204915630505558"><ele>707.0</ele><time>2026-04-16T08:53:01.002Z</time></trkpt><trkpt lat="44.899898891755754" lon="7.204753509564656"><ele>707.0</ele><time>2026-04-16T08:53:02.002Z</time></trkpt><trkpt lat="44.89979139485941" lon="7.2046264224541385"><ele>710.6666666666666</ele><time>2026-04-16T08:53:03.002Z</time></trkpt><trkpt lat="44.899669967489345" lon="7.204460691745465"><ele>714.3333333333334</ele><time>2026-04-16T08:53:04.002Z</time></trkpt><trkpt lat="44.89956797548317" lon="7.204287996059071"><ele>718.0</ele><time>2026-04-16T08:53:05.002Z</time></trkpt><trkpt lat="44.8994752164038" lon="7.204149511417763"><ele>718.0</ele><time>2026-04-16T08:53:06.002Z</time></trkpt><trkpt lat="44.89938532962017" lon="7.204035807058338"><ele>718.0</ele><time>2026-04-16T08:53:07.002Z</time></trkpt><trkpt lat="44.899319573378385" lon="7.203924778004344"><ele>718.0</ele><time>2026-04-16T08:53:08.002Z</time></trkpt><trkpt lat="44.89924685618026" lon="7.203805650319962"><ele>718.0</ele><time>2026-04-16T08:53:09.002Z</time></trkpt><trkpt lat="44.899181175378565" lon="7.2036770603493405"><ele>718.0</ele><time>2026-04-16T08:53:10.002Z</time></trkpt><trkpt lat="44.899118016282735" lon="7.203576691856223"><ele>721.4</ele><time>2026-04-16T08:53:11.002Z</time></trkpt><trkpt lat="44.899048338517375" lon="7.203498004962071"><ele>724.8</ele><time>2026-04-16T08:53:12.002Z</time></trkpt><trkpt lat="44.89896163627581" lon="7.203459550157501"><ele>728.2</ele><time>2026-04-16T08:53:14.002Z</time></trkpt><trkpt lat="44.898868740343865" lon="7.203621725863905"><ele>731.6</ele><time>2026-04-16T08:53:16.002Z</time></trkpt><trkpt lat="44.898927834040634" lon="7.203734812165409"><ele>735.0</ele><time>2026-04-16T08:53:17.002Z</time></trkpt><trkpt lat="44.89896818040472" lon="7.203818248470163"><ele>735.0</ele><time>2026-04-16T08:53:18.002Z</time></trkpt><trkpt lat="44.89901036346139" lon="7.203908840087724"><ele>735.0</ele><time>2026-04-16T08:53:19.002Z</time></trkpt><trkpt lat="44.899051358125455" lon="7.2039988433089786"><ele>735.0</ele><time>2026-04-16T08:53:20.002Z</time></trkpt><trkpt lat="44.89910149934761" lon="7.204116343192141"><ele>735.0</ele><time>2026-04-16T08:53:21Z</time></trkpt><trkpt lat="44.89915394888129" lon="7.204250973921976"><ele>735.0</ele><time>2026-04-16T08:53:22Z</time></trkpt><trkpt lat="44.89920141816822" lon="7.20438764225064"><ele>735.75</ele><time>2026-04-16T08:53:23Z</time></trkpt><trkpt lat="44.89927281065561" lon="7.204550235785142"><ele>736.5</ele><time>2026-04-16T08:53:24Z</time></trkpt><trkpt lat="44.89929915163128" lon="7.2047160319679495"><ele>737.25</ele><time>2026-04-16T08:53:25Z</time></trkpt><trkpt lat="44.89937940285767" lon="7.20487523734239"><ele>738.0</ele><time>2026-04-16T08:53:26Z</time></trkpt><trkpt lat="44.89941155598908" lon="7.205012148450268"><ele>738.0</ele><time>2026-04-16T08:53:27Z</time></trkpt><trkpt lat="44.89949523143917" lon="7.205177294699254"><ele>738.0</ele><time>2026-04-16T08:53:28Z</time></trkpt><trkpt lat="44.89957741645449" lon="7.2053805865257905"><ele>738.0</ele><time>2026-04-16T08:53:29Z</time></trkpt><trkpt lat="44.89969412176345" lon="7.2055816758867905"><ele>747.0</ele><time>2026-04-16T08:53:30Z</time></trkpt><trkpt lat="44.899796056351406" lon="7.205783080768837"><ele>756.0</ele><time>2026-04-16T08:53:31Z</time></trkpt><trkpt lat="44.89990769939426" lon="7.20598501331252"><ele>765.0</ele><time>2026-04-16T08:53:32Z</time></trkpt><trkpt lat="44.900005824604094" lon="7.206143660347738"><ele>762.6666666666666</ele><time>2026-04-16T08:53:33Z</time></trkpt><trkpt lat="44.90011719344307" lon="7.206307504794072"><ele>760.3333333333333</ele><time>2026-04-16T08:53:34Z</time></trkpt><trkpt lat="44.900250263312316" lon="7.2064720831499525"><ele>758.0</ele><time>2026-04-16T08:53:35Z</time></trkpt><trkpt lat="44.900353437932665" lon="7.206620869971606"><ele>758.0</ele><time>2026-04-16T08:53:36Z</time></trkpt><trkpt lat="44.90047069559556" lon="7.206712039385456"><ele>758.0</ele><time>2026-04-16T08:53:37Z</time></trkpt><trkpt lat="44.90058261648248" lon="7.206813847759677"><ele>758.0</ele><time>2026-04-16T08:53:38Z</time></trkpt><trkpt lat="44.90064997908345" lon="7.2068832753609895"><ele>758.0</ele><time>2026-04-16T08:53:39Z</time></trkpt><trkpt lat="44.90072104272657" lon="7.2069701868502785"><ele>758.0</ele><time>2026-04-16T08:53:40Z</time></trkpt><trkpt lat="44.900780464870145" lon="7.207084040327424"><ele>758.0</ele><time>2026-04-16T08:53:41Z</time></trkpt><trkpt lat="44.90087805791487" lon="7.20717044380127"><ele>758.0</ele><time>2026-04-16T08:53:42Z</time></trkpt><trkpt lat="44.90092608778857" lon="7.207291700524023"><ele>758.0</ele><time>2026-04-16T08:53:43Z</time></trkpt><trkpt lat="44.900961208077554" lon="7.207371294922286"><ele>758.0</ele><time>2026-04-16T08:53:44Z</time></trkpt><trkpt lat="44.90098708611514" lon="7.207479928371631"><ele>758.0</ele><time>2026-04-16T08:53:46Z</time></trkpt><trkpt lat="44.90091866270561" lon="7.207523853907443"><ele>758.0</ele><time>2026-04-16T08:53:47.001Z</time></trkpt><trkpt lat="44.90084243605726" lon="7.20745659198243"><ele>758.0</ele><time>2026-04-16T08:53:49.001Z</time></trkpt><trkpt lat="44.900787175966876" lon="7.2074069795176685"><ele>758.0</ele><time>2026-04-16T08:53:50.001Z</time></trkpt><trkpt lat="44.9007184321258" lon="7.2073797498139776"><ele>758.0</ele><time>2026-04-16T08:53:51.001Z</time></trkpt><trkpt lat="44.900650143323816" lon="7.207348430151297"><ele>758.0</ele><time>2026-04-16T08:53:52.001Z</time></trkpt><trkpt lat="44.900576771085674" lon="7.207314779171045"><ele>758.0</ele><time>2026-04-16T08:53:53.001Z</time></trkpt><trkpt lat="44.900429443789044" lon="7.207244439160621"><ele>758.0</ele><time>2026-04-16T08:53:54.001Z</time></trkpt><trkpt lat="44.900268554816165" lon="7.207178278933778"><ele>758.0</ele><time>2026-04-16T08:53:55.001Z</time></trkpt><trkpt lat="44.90014637660666" lon="7.207077318747182"><ele>758.0</ele><time>2026-04-16T08:53:56.001Z</time></trkpt><trkpt lat="44.90005019857462" lon="7.20695447042967"><ele>758.0</ele><time>2026-04-16T08:53:57.001Z</time></trkpt><trkpt lat="44.899925029973765" lon="7.206843619248393"><ele>758.0</ele><time>2026-04-16T08:53:58.001Z</time></trkpt><trkpt lat="44.89986807564858" lon="7.2067371828425095"><ele>759.75</ele><time>2026-04-16T08:53:59.001Z</time></trkpt><trkpt lat="44.89976338907648" lon="7.206662955632857"><ele>761.5</ele><time>2026-04-16T08:54:00.001Z</time></trkpt><trkpt lat="44.89965257452838" lon="7.206587860613437"><ele>763.25</ele><time>2026-04-16T08:54:01.001Z</time></trkpt><trkpt lat="44.89952664301915" lon="7.20648161144879"><ele>765.0</ele><time>2026-04-16T08:54:02.001Z</time></trkpt><trkpt lat="44.89941786827787" lon="7.206404391151758"><ele>765.0</ele><time>2026-04-16T08:54:03.001Z</time></trkpt><trkpt lat="44.899323706987865" lon="7.206322202801478"><ele>765.0</ele><time>2026-04-16T08:54:04.001Z</time></trkpt><trkpt lat="44.89922214373202" lon="7.206203651385853"><ele>765.0</ele><time>2026-04-16T08:54:05.001Z</time></trkpt><trkpt lat="44.89910171489009" lon="7.206068263718803"><ele>765.0</ele><time>2026-04-16T08:54:06.001Z</time></trkpt><trkpt lat="44.89897147867516" lon="7.205884384714882"><ele>770.0</ele><time>2026-04-16T08:54:07.001Z</time></trkpt><trkpt lat="44.89886539975096" lon="7.205697564177762"><ele>775.0</ele><time>2026-04-16T08:54:08.001Z</time></trkpt><trkpt lat="44.89874217178181" lon="7.205536846916733"><ele>780.0</ele><time>2026-04-16T08:54:09.001Z</time></trkpt><trkpt lat="44.89863235556139" lon="7.205405824874766"><ele>780.0</ele><time>2026-04-16T08:54:10.001Z</time></trkpt><trkpt lat="44.89853513927812" lon="7.20524000518443"><ele>780.0</ele><time>2026-04-16T08:54:11.001Z</time></trkpt><trkpt lat="44.89837577823541" lon="7.205086760905918"><ele>780.0</ele><time>2026-04-16T08:54:12.001Z</time></trkpt><trkpt lat="44.89823500815335" lon="7.204918524429789"><ele>784.75</ele><time>2026-04-16T08:54:13.001Z</time></trkpt><trkpt lat="44.89810311739357" lon="7.20478955083358"><ele>789.5</ele><time>2026-04-16T08:54:14.001Z</time></trkpt><trkpt lat="44.89800289396397" lon="7.204692090902769"><ele>794.25</ele><time>2026-04-16T08:54:15.001Z</time></trkpt><trkpt lat="44.89789280254984" lon="7.204579825018736"><ele>799.0</ele><time>2026-04-16T08:54:16.001Z</time></trkpt><trkpt lat="44.89780874469194" lon="7.20449570502788"><ele>799.0</ele><time>2026-04-16T08:54:17.001Z</time></trkpt><trkpt lat="44.89771677873907" lon="7.204424145632311"><ele>799.0</ele><time>2026-04-16T08:54:18.001Z</time></trkpt><trkpt lat="44.897627140216436" lon="7.204362306438761"><ele>799.0</ele><time>2026-04-16T08:54:19.001Z</time></trkpt><trkpt lat="44.89752805250768" lon="7.204298218545967"><ele>799.0</ele><time>2026-04-16T08:54:20.001Z</time></trkpt><trkpt lat="44.89744852131737" lon="7.204316072512904"><ele>799.0</ele><time>2026-04-16T08:54:21.001Z</time></trkpt><trkpt lat="44.89737255767943" lon="7.2043012345411634"><ele>806.0</ele><time>2026-04-16T08:54:22.001Z</time></trkpt><trkpt lat="44.89725630018406" lon="7.204312594914126"><ele>813.0</ele><time>2026-04-16T08:54:23.001Z</time></trkpt><trkpt lat="44.89715692459633" lon="7.20434038658709"><ele>820.0</ele><time>2026-04-16T08:54:24.001Z</time></trkpt><trkpt lat="44.89703530477027" lon="7.204401667043517"><ele>827.0</ele><time>2026-04-16T08:54:25.001Z</time></trkpt><trkpt lat="44.89692891802759" lon="7.204467869563758"><ele>827.0</ele><time>2026-04-16T08:54:26.001Z</time></trkpt><trkpt lat="44.896826822465094" lon="7.204544309384902"><ele>827.0</ele><time>2026-04-16T08:54:27.001Z</time></trkpt><trkpt lat="44.89674289616523" lon="7.204603158782025"><ele>827.0</ele><time>2026-04-16T08:54:28.001Z</time></trkpt><trkpt lat="44.89668369573656" lon="7.204666220604658"><ele>827.0</ele><time>2026-04-16T08:54:29.001Z</time></trkpt><trkpt lat="44.896619446780036" lon="7.204758472361352"><ele>827.0</ele><time>2026-04-16T08:54:30.001Z</time></trkpt><trkpt lat="44.89657177631344" lon="7.204887008860897"><ele>831.1666666666667</ele><time>2026-04-16T08:54:31.001Z</time></trkpt><trkpt lat="44.896523303888536" lon="7.205029647871439"><ele>835.3333333333334</ele><time>2026-04-16T08:54:32.001Z</time></trkpt><trkpt lat="44.8964760028118" lon="7.20512409126832"><ele>839.5</ele><time>2026-04-16T08:54:33.001Z</time></trkpt><trkpt lat="44.896445028885005" lon="7.205216459278518"><ele>843.6666666666667</ele><time>2026-04-16T08:54:34.001Z</time></trkpt><trkpt lat="44.89654937105117" lon="7.205281783774988"><ele>847.8333333333334</ele><time>2026-04-16T08:54:37.001Z</time></trkpt><trkpt lat="44.89657880869343" lon="7.205202699129914"><ele>852.0</ele><time>2026-04-16T08:54:38.001Z</time></trkpt><trkpt lat="44.89667639515493" lon="7.205076826600805"><ele>852.0</ele><time>2026-04-16T08:54:40.001Z</time></trkpt><trkpt lat="44.896736899457736" lon="7.205028999563058"><ele>852.0</ele><time>2026-04-16T08:54:41.001Z</time></trkpt><trkpt lat="44.89683566450405" lon="7.204950014727012"><ele>852.0</ele><time>2026-04-16T08:54:42.001Z</time></trkpt><trkpt lat="44.89693281195486" lon="7.204955618190026"><ele>852.0</ele><time>2026-04-16T08:54:43.001Z</time></trkpt><trkpt lat="44.89703132528534" lon="7.204948164455971"><ele>852.0</ele><time>2026-04-16T08:54:44.001Z</time></trkpt><trkpt lat="44.897129763475114" lon="7.204954632626954"><ele>852.3333333333334</ele><time>2026-04-16T08:54:45.001Z</time></trkpt><trkpt lat="44.89720576032172" lon="7.204966149003948"><ele>852.6666666666667</ele><time>2026-04-16T08:54:46.001Z</time></trkpt><trkpt lat="44.89729429305724" lon="7.205005268764986"><ele>853.0</ele><time>2026-04-16T08:54:48.001Z</time></trkpt><trkpt lat="44.89736156998799" lon="7.205064073482754"><ele>853.3333333333334</ele><time>2026-04-16T08:54:51.001Z</time></trkpt><trkpt lat="44.89740747171764" lon="7.2051733364820425"><ele>853.6666666666667</ele><time>2026-04-16T08:54:55.002Z</time></trkpt><trkpt lat="44.89744617726927" lon="7.2052935025582645"><ele>854.0</ele><time>2026-04-16T08:54:57.002Z</time></trkpt><trkpt lat="44.89749141029353" lon="7.205476401966007"><ele>854.0</ele><time>2026-04-16T08:54:59.002Z</time></trkpt><trkpt lat="44.89751675231299" lon="7.205568599937714"><ele>854.0000000000001</ele><time>2026-04-16T08:55:00.002Z</time></trkpt><trkpt lat="44.89756676502682" lon="7.205695061266095"><ele>854.0000000000001</ele><time>2026-04-16T08:55:01.002Z</time></trkpt><trkpt lat="44.897624958319696" lon="7.205796746320795"><ele>854.0</ele><time>2026-04-16T08:55:02.002Z</time></trkpt><trkpt lat="44.89768777090731" lon="7.205898362059494"><ele>854.0</ele><time>2026-04-16T08:55:03.002Z</time></trkpt><trkpt lat="44.897746506293345" lon="7.205998953362658"><ele>852.6</ele><time>2026-04-16T08:55:04.002Z</time></trkpt><trkpt lat="44.89781073824105" lon="7.206123394659837"><ele>851.2</ele><time>2026-04-16T08:55:05.002Z</time></trkpt><trkpt lat="44.897865620639614" lon="7.206238056369646"><ele>849.8000000000001</ele><time>2026-04-16T08:55:06.002Z</time></trkpt><trkpt lat="44.89792874234598" lon="7.206342866638906"><ele>848.4000000000001</ele><time>2026-04-16T08:55:07.002Z</time></trkpt><trkpt lat="44.89798046678185" lon="7.206465458610605"><ele>847.0</ele><time>2026-04-16T08:55:08.002Z</time></trkpt><trkpt lat="44.898042078831956" lon="7.206582269060185"><ele>852.2</ele><time>2026-04-16T08:55:09.002Z</time></trkpt><trkpt lat="44.89808550651896" lon="7.206674733837819"><ele>857.4000000000001</ele><time>2026-04-16T08:55:10.002Z</time></trkpt><trkpt lat="44.89812311651904" lon="7.206799131568045"><ele>862.5999999999999</ele><time>2026-04-16T08:55:11.002Z</time></trkpt><trkpt lat="44.89817999128116" lon="7.206921258893227"><ele>867.8</ele><time>2026-04-16T08:55:12.002Z</time></trkpt><trkpt lat="44.89821697184686" lon="7.207063905180433"><ele>873.0</ele><time>2026-04-16T08:55:13.002Z</time></trkpt><trkpt lat="44.898269577269396" lon="7.2071963937830095"><ele>868.75</ele><time>2026-04-16T08:55:14.002Z</time></trkpt><trkpt lat="44.89833873307452" lon="7.207356178351471"><ele>864.5</ele><time>2026-04-16T08:55:15.002Z</time></trkpt><trkpt lat="44.89840044240665" lon="7.207493509411813"><ele>860.25</ele><time>2026-04-16T08:55:16.002Z</time></trkpt><trkpt lat="44.89845582134101" lon="7.207651019431193"><ele>856.0</ele><time>2026-04-16T08:55:17.002Z</time></trkpt><trkpt lat="44.89850132284674" lon="7.207823761892762"><ele>856.0</ele><time>2026-04-16T08:55:18.002Z</time></trkpt><trkpt lat="44.89853886695302" lon="7.207960223186694"><ele>855.9999999999999</ele><time>2026-04-16T08:55:19.002Z</time></trkpt><trkpt lat="44.89858647217554" lon="7.208085518872776"><ele>855.9999999999999</ele><time>2026-04-16T08:55:20.002Z</time></trkpt><trkpt lat="44.898640947867406" lon="7.208204341941406"><ele>856.0</ele><time>2026-04-16T08:55:21.002Z</time></trkpt><trkpt lat="44.89868101674921" lon="7.208313558911894"><ele>856.0</ele><time>2026-04-16T08:55:22.002Z</time></trkpt><trkpt lat="44.898717053394606" lon="7.20841075328161"><ele>859.9999999999999</ele><time>2026-04-16T08:55:23.002Z</time></trkpt><trkpt lat="44.898750994760235" lon="7.208495806635356"><ele>864.0</ele><time>2026-04-16T08:55:24.002Z</time></trkpt><trkpt lat="44.89878782094524" lon="7.208595305981209"><ele>868.0</ele><time>2026-04-16T08:55:25.002Z</time></trkpt><trkpt lat="44.89886082892815" lon="7.208700712046336"><ele>872.0</ele><time>2026-04-16T08:55:27.002Z</time></trkpt><trkpt lat="44.898766296344" lon="7.208663062604675"><ele>875.9999999999999</ele><time>2026-04-16T08:55:33.001Z</time></trkpt><trkpt lat="44.89870446182474" lon="7.208589259589413"><ele>880.0</ele><time>2026-04-16T08:55:34.001Z</time></trkpt><trkpt lat="44.89862477253627" lon="7.208539739962035"><ele>880.0</ele><time>2026-04-16T08:55:35.001Z</time></trkpt><trkpt lat="44.898550628202116" lon="7.208455819776917"><ele>880.0</ele><time>2026-04-16T08:55:36.001Z</time></trkpt><trkpt lat="44.898450157619074" lon="7.20833862336128"><ele>880.0</ele><time>2026-04-16T08:55:37.001Z</time></trkpt><trkpt lat="44.89837062894263" lon="7.208220106294387"><ele>880.0</ele><time>2026-04-16T08:55:38.001Z</time></trkpt><trkpt lat="44.89826425475942" lon="7.2081230994778736"><ele>882.75</ele><time>2026-04-16T08:55:39.001Z</time></trkpt><trkpt lat="44.898152943518376" lon="7.208020059602502"><ele>885.5</ele><time>2026-04-16T08:55:40.001Z</time></trkpt><trkpt lat="44.89804424504948" lon="7.207899773275104"><ele>888.25</ele><time>2026-04-16T08:55:41.001Z</time></trkpt><trkpt lat="44.897953227583" lon="7.207797640136284"><ele>891.0</ele><time>2026-04-16T08:55:42.001Z</time></trkpt><trkpt lat="44.89788307219038" lon="7.2077080009231835"><ele>891.0</ele><time>2026-04-16T08:55:43.001Z</time></trkpt><trkpt lat="44.89779652891664" lon="7.207621127247857"><ele>890.9999999999999</ele><time>2026-04-16T08:55:44.001Z</time></trkpt><trkpt lat="44.89770715691491" lon="7.207498148141076"><ele>890.9999999999999</ele><time>2026-04-16T08:55:45.001Z</time></trkpt><trkpt lat="44.897627198060974" lon="7.207413107799339"><ele>891.0</ele><time>2026-04-16T08:55:46.001Z</time></trkpt><trkpt lat="44.897585541533324" lon="7.2073352714800905"><ele>891.0</ele><time>2026-04-16T08:55:47.001Z</time></trkpt><trkpt lat="44.89752024971384" lon="7.207239299610086"><ele>892.3333333333334</ele><time>2026-04-16T08:55:48.001Z</time></trkpt><trkpt lat="44.89745019402006" lon="7.207157568018917"><ele>893.6666666666667</ele><time>2026-04-16T08:55:49.001Z</time></trkpt><trkpt lat="44.89736904251978" lon="7.2070801984381205"><ele>895.0</ele><time>2026-04-16T08:55:50.001Z</time></trkpt><trkpt lat="44.897276888522946" lon="7.207050343852749"><ele>896.3333333333334</ele><time>2026-04-16T08:55:51.001Z</time></trkpt><trkpt lat="44.89720974015674" lon="7.206999069708717"><ele>897.6666666666667</ele><time>2026-04-16T08:55:52.001Z</time></trkpt><trkpt lat="44.897135390337326" lon="7.206984084393687"><ele>899.0</ele><time>2026-04-16T08:55:53.001Z</time></trkpt><trkpt lat="44.89706099997243" lon="7.206999794955428"><ele>899.0</ele><time>2026-04-16T08:55:54.001Z</time></trkpt><trkpt lat="44.896978373393" lon="7.207010121093188"><ele>899.0000000000001</ele><time>2026-04-16T08:55:55.001Z</time></trkpt><trkpt lat="44.8968882199397" lon="7.207032585888067"><ele>899.0000000000001</ele><time>2026-04-16T08:55:56.001Z</time></trkpt><trkpt lat="44.89679567290464" lon="7.207068945625996"><ele>899.0</ele><time>2026-04-16T08:55:57.001Z</time></trkpt><trkpt lat="44.896695903999245" lon="7.207122409646714"><ele>899.0</ele><time>2026-04-16T08:55:58.001Z</time></trkpt><trkpt lat="44.89659304405372" lon="7.207189874878357"><ele>899.4000000000001</ele><time>2026-04-16T08:55:59.001Z</time></trkpt><trkpt lat="44.896502050518656" lon="7.207223710699023"><ele>899.8000000000001</ele><time>2026-04-16T08:56:00.001Z</time></trkpt><trkpt lat="44.896417028596055" lon="7.207286570509973"><ele>900.1999999999999</ele><time>2026-04-16T08:56:01.001Z</time></trkpt><trkpt lat="44.89632612692089" lon="7.207362564501646"><ele>900.5999999999999</ele><time>2026-04-16T08:56:02.001Z</time></trkpt><trkpt lat="44.89624609852121" lon="7.207418216641296"><ele>901.0</ele><time>2026-04-16T08:56:03.001Z</time></trkpt><trkpt lat="44.89618099876278" lon="7.207515752370875"><ele>907.8</ele><time>2026-04-16T08:56:06.001Z</time></trkpt><trkpt lat="44.896188687822274" lon="7.2076061901435935"><ele>914.5999999999999</ele><time>2026-04-16T08:56:07.001Z</time></trkpt><trkpt lat="44.89624470260114" lon="7.20765644718789"><ele>921.4</ele><time>2026-04-16T08:56:08.001Z</time></trkpt><trkpt lat="44.89632884627364" lon="7.207659147699006"><ele>928.2</ele><time>2026-04-16T08:56:09.001Z</time></trkpt><trkpt lat="44.89642900134895" lon="7.207652363587421"><ele>935.0</ele><time>2026-04-16T08:56:10.001Z</time></trkpt><trkpt lat="44.89656177614845" lon="7.207611450899258"><ele>935.0</ele><time>2026-04-16T08:56:11.001Z</time></trkpt><trkpt lat="44.896642835275266" lon="7.207595749255531"><ele>935.0</ele><time>2026-04-16T08:56:12.001Z</time></trkpt><trkpt lat="44.896743523575346" lon="7.207648818110502"><ele>935.0</ele><time>2026-04-16T08:56:14.001Z</time></trkpt><trkpt lat="44.89685176389147" lon="7.207738835163778"><ele>935.0</ele><time>2026-04-16T08:56:16.001Z</time></trkpt><trkpt lat="44.89698217010082" lon="7.207870787675849"><ele>937.5</ele><time>2026-04-16T08:56:17.001Z</time></trkpt><trkpt lat="44.89708604269065" lon="7.207984557414849"><ele>940.0</ele><time>2026-04-16T08:56:18.001Z</time></trkpt><trkpt lat="44.89721308093586" lon="7.208134724436867"><ele>942.5</ele><time>2026-04-16T08:56:19.001Z</time></trkpt><trkpt lat="44.89732128851186" lon="7.208269893534752"><ele>945.0</ele><time>2026-04-16T08:56:20.001Z</time></trkpt><trkpt lat="44.8974091315077" lon="7.2083703749043915"><ele>945.0</ele><time>2026-04-16T08:56:21.001Z</time></trkpt><trkpt lat="44.8974990355608" lon="7.208493829707986"><ele>945.0</ele><time>2026-04-16T08:56:22.001Z</time></trkpt><trkpt lat="44.89757698717397" lon="7.208621709217284"><ele>945.0</ele><time>2026-04-16T08:56:23.001Z</time></trkpt><trkpt lat="44.897615440071405" lon="7.208703141641733"><ele>945.0</ele><time>2026-04-16T08:56:24.001Z</time></trkpt><trkpt lat="44.897679867943715" lon="7.20884108044592"><ele>945.0</ele><time>2026-04-16T08:56:25.001Z</time></trkpt><trkpt lat="44.89771028617951" lon="7.208937301696308"><ele>945.0</ele><time>2026-04-16T08:56:26.001Z</time></trkpt><trkpt lat="44.89773466310609" lon="7.209021851876965"><ele>945.0</ele><time>2026-04-16T08:56:27.001Z</time></trkpt><trkpt lat="44.89772789614081" lon="7.209149404379749"><ele>945.0</ele><time>2026-04-16T08:56:29.001Z</time></trkpt><trkpt lat="44.897638833880904" lon="7.2091524939001745"><ele>945.0</ele><time>2026-04-16T08:56:32.001Z</time></trkpt><trkpt lat="44.89758198392015" lon="7.209013524146466"><ele>945.0</ele><time>2026-04-16T08:56:34.001Z</time></trkpt><trkpt lat="44.89752991497962" lon="7.208936990487346"><ele>945.0</ele><time>2026-04-16T08:56:35.001Z</time></trkpt><trkpt lat="44.897462263707986" lon="7.2088822979824805"><ele>945.0</ele><time>2026-04-16T08:56:36.001Z</time></trkpt><trkpt lat="44.89741159144908" lon="7.208828605070502"><ele>945.0</ele><time>2026-04-16T08:56:37.001Z</time></trkpt><trkpt lat="44.89730579495257" lon="7.208753777841958"><ele>945.0</ele><time>2026-04-16T08:56:38.001Z</time></trkpt><trkpt lat="44.89720483207411" lon="7.208704661219497"><ele>945.0</ele><time>2026-04-16T08:56:39.001Z</time></trkpt><trkpt lat="44.897090997839626" lon="7.2086367857057425"><ele>945.0</ele><time>2026-04-16T08:56:40.001Z</time></trkpt><trkpt lat="44.89698977432455" lon="7.208590098757552"><ele>945.0</ele><time>2026-04-16T08:56:41.001Z</time></trkpt><trkpt lat="44.89690206571793" lon="7.208557169982425"><ele>945.0</ele><time>2026-04-16T08:56:42.001Z</time></trkpt><trkpt lat="44.8968240081948" lon="7.208551435455483"><ele>945.0</ele><time>2026-04-16T08:56:43.001Z</time></trkpt><trkpt lat="44.8967346171066" lon="7.208534983082994"><ele>945.0</ele><time>2026-04-16T08:56:44.001Z</time></trkpt><trkpt lat="44.89665104840675" lon="7.2085612550136675"><ele>945.0</ele><time>2026-04-16T08:56:45.001Z</time></trkpt><trkpt lat="44.89659145430829" lon="7.20859598995896"><ele>945.0</ele><time>2026-04-16T08:56:46.001Z</time></trkpt><trkpt lat="44.896481431516776" lon="7.208668931979863"><ele>949.0</ele><time>2026-04-16T08:56:47.001Z</time></trkpt><trkpt lat="44.89639649796075" lon="7.20872547207503"><ele>953.0</ele><time>2026-04-16T08:56:48.001Z</time></trkpt><trkpt lat="44.896297518475876" lon="7.20878036668099"><ele>957.0</ele><time>2026-04-16T08:56:49.001Z</time></trkpt><trkpt lat="44.89619597011379" lon="7.208835363017428"><ele>961.0</ele><time>2026-04-16T08:56:50.001Z</time></trkpt><trkpt lat="44.89611258726784" lon="7.208902461729375"><ele>965.0</ele><time>2026-04-16T08:56:51.001Z</time></trkpt><trkpt lat="44.89605157117458" lon="7.208973771510266"><ele>966.4</ele><time>2026-04-16T08:56:52.002Z</time></trkpt><trkpt lat="44.896013459955725" lon="7.209069633369498"><ele>967.8</ele><time>2026-04-16T08:56:53.002Z</time></trkpt><trkpt lat="44.89598613578407" lon="7.209172460202321"><ele>969.2</ele><time>2026-04-16T08:56:54.002Z</time></trkpt><trkpt lat="44.89595997785053" lon="7.209288471581499"><ele>970.6</ele><time>2026-04-16T08:56:55.002Z</time></trkpt><trkpt lat="44.89593602172011" lon="7.209431246627543"><ele>972.0</ele><time>2026-04-16T08:56:56.002Z</time></trkpt><trkpt lat="44.89591152595023" lon="7.209595434446912"><ele>975.25</ele><time>2026-04-16T08:56:57.002Z</time></trkpt><trkpt lat="44.89590011147047" lon="7.209765233172576"><ele>978.5</ele><time>2026-04-16T08:56:58.002Z</time></trkpt><trkpt lat="44.89587517028817" lon="7.209920923166098"><ele>981.75</ele><time>2026-04-16T08:56:59.002Z</time></trkpt><trkpt lat="44.89584141939907" lon="7.210082461427837"><ele>985.0</ele><time>2026-04-16T08:57:00.002Z</time></trkpt><trkpt lat="44.89582723232562" lon="7.21023596523806"><ele>987.25</ele><time>2026-04-16T08:57:01.002Z</time></trkpt><trkpt lat="44.89579099770468" lon="7.210429481354821"><ele>989.5</ele><time>2026-04-16T08:57:02.002Z</time></trkpt><trkpt lat="44.895785289531695" lon="7.210610688033216"><ele>991.75</ele><time>2026-04-16T08:57:03.002Z</time></trkpt><trkpt lat="44.89576020385912" lon="7.210759687330161"><ele>994.0</ele><time>2026-04-16T08:57:04.002Z</time></trkpt><trkpt lat="44.89577113387254" lon="7.210865686570083"><ele>993.9999999999999</ele><time>2026-04-16T08:57:05.002Z</time></trkpt><trkpt lat="44.89574919869072" lon="7.211002385835835"><ele>994.0</ele><time>2026-04-16T08:57:07.002Z</time></trkpt><trkpt lat="44.89568265071594" lon="7.210987597918173"><ele>994.0</ele><time>2026-04-16T08:57:09.002Z</time></trkpt><trkpt lat="44.89568531474052" lon="7.210885424350082"><ele>994.0</ele><time>2026-04-16T08:57:11.002Z</time></trkpt><trkpt lat="44.89566740405595" lon="7.21076379008003"><ele>993.9999999999999</ele><time>2026-04-16T08:57:12.002Z</time></trkpt><trkpt lat="44.895642357623714" lon="7.210655125407704"><ele>994.0</ele><time>2026-04-16T08:57:13.002Z</time></trkpt><trkpt lat="44.89563867611401" lon="7.210524117148749"><ele>994.2</ele><time>2026-04-16T08:57:14.002Z</time></trkpt><trkpt lat="44.8956128525242" lon="7.210373673151231"><ele>994.4000000000001</ele><time>2026-04-16T08:57:15.002Z</time></trkpt><trkpt lat="44.8955910133961" lon="7.210248022328993"><ele>994.6</ele><time>2026-04-16T08:57:16.002Z</time></trkpt><trkpt lat="44.895561119796966" lon="7.210141090864531"><ele>994.8</ele><time>2026-04-16T08:57:17.002Z</time></trkpt><trkpt lat="44.89549159420565" lon="7.21000971291469"><ele>995.0</ele><time>2026-04-16T08:57:19.002Z</time></trkpt><trkpt lat="44.895415062109436" lon="7.209975628230934"><ele>995.0000000000001</ele><time>2026-04-16T08:57:20.002Z</time></trkpt><trkpt lat="44.895346706959195" lon="7.2099346219552825"><ele>995.0</ele><time>2026-04-16T08:57:21.002Z</time></trkpt><trkpt lat="44.8952745433051" lon="7.2099094067477365"><ele>995.0</ele><time>2026-04-16T08:57:22.002Z</time></trkpt><trkpt lat="44.895195251079485" lon="7.209903673405405"><ele>995.0</ele><time>2026-04-16T08:57:23.002Z</time></trkpt><trkpt lat="44.89509937644264" lon="7.209958894132744"><ele>995.0000000000001</ele><time>2026-04-16T08:57:24.002Z</time></trkpt><trkpt lat="44.8950045923776" lon="7.209982487661686"><ele>995.0</ele><time>2026-04-16T08:57:25.002Z</time></trkpt><trkpt lat="44.894917722538345" lon="7.210018630851078"><ele>999.2</ele><time>2026-04-16T08:57:26.002Z</time></trkpt><trkpt lat="44.89485912339967" lon="7.210053434407744"><ele>1003.4</ele><time>2026-04-16T08:57:27.002Z</time></trkpt><trkpt lat="44.894786574676104" lon="7.210126191660332"><ele>1007.5999999999999</ele><time>2026-04-16T08:57:28.002Z</time></trkpt><trkpt lat="44.894695027870654" lon="7.210191916702712"><ele>1011.8</ele><time>2026-04-16T08:57:29.002Z</time></trkpt><trkpt lat="44.89456787313576" lon="7.210223035724333"><ele>1016.0</ele><time>2026-04-16T08:57:30.002Z</time></trkpt><trkpt lat="44.89444909414903" lon="7.210246133177072"><ele>1016.0</ele><time>2026-04-16T08:57:31.002Z</time></trkpt><trkpt lat="44.89431913000064" lon="7.210291831461851"><ele>1015.9999999999999</ele><time>2026-04-16T08:57:32.002Z</time></trkpt><trkpt lat="44.89421289936452" lon="7.210303241858886"><ele>1015.9999999999999</ele><time>2026-04-16T08:57:33.002Z</time></trkpt><trkpt lat="44.894128925979246" lon="7.210332929102341"><ele>1016.0</ele><time>2026-04-16T08:57:34.002Z</time></trkpt><trkpt lat="44.89405757681184" lon="7.210369513491828"><ele>1016.0</ele><time>2026-04-16T08:57:35.002Z</time></trkpt><trkpt lat="44.89395238059188" lon="7.210445186913406"><ele>1017.1666666666667</ele><time>2026-04-16T08:57:37.002Z</time></trkpt><trkpt lat="44.89388993620329" lon="7.210470993580459"><ele>1018.3333333333334</ele><time>2026-04-16T08:57:38.002Z</time></trkpt><trkpt lat="44.893805772990646" lon="7.210500710258768"><ele>1019.5</ele><time>2026-04-16T08:57:39.002Z</time></trkpt><trkpt lat="44.893724027213956" lon="7.210536045809664"><ele>1020.6666666666667</ele><time>2026-04-16T08:57:40.002Z</time></trkpt><trkpt lat="44.89365479924015" lon="7.210573087793271"><ele>1021.8333333333334</ele><time>2026-04-16T08:57:41.001Z</time></trkpt><trkpt lat="44.89359940451705" lon="7.210629188018542"><ele>1023.0</ele><time>2026-04-16T08:57:42.001Z</time></trkpt><trkpt lat="44.89355266855035" lon="7.210760922268965"><ele>1027.6</ele><time>2026-04-16T08:57:43.001Z</time></trkpt><trkpt lat="44.89346151587926" lon="7.210851295617492"><ele>1032.1999999999998</ele><time>2026-04-16T08:57:44.001Z</time></trkpt><trkpt lat="44.89337194540379" lon="7.210944991702896"><ele>1036.8</ele><time>2026-04-16T08:57:45.001Z</time></trkpt><trkpt lat="44.89328642444534" lon="7.210997334040258"><ele>1041.3999999999999</ele><time>2026-04-16T08:57:46.001Z</time></trkpt><trkpt lat="44.89319787219856" lon="7.210955889421785"><ele>1046.0</ele><time>2026-04-16T08:57:47.001Z</time></trkpt><trkpt lat="44.89310178892135" lon="7.210957232927251"><ele>1046.0</ele><time>2026-04-16T08:57:48.001Z</time></trkpt><trkpt lat="44.89302291259673" lon="7.210971908768205"><ele>1046.0</ele><time>2026-04-16T08:57:49.001Z</time></trkpt><trkpt lat="44.89296172374494" lon="7.211015297473157"><ele>1046.0</ele><time>2026-04-16T08:57:50.001Z</time></trkpt><trkpt lat="44.89290466869961" lon="7.211064972563084"><ele>1046.0</ele><time>2026-04-16T08:57:51.001Z</time></trkpt><trkpt lat="44.89281780392644" lon="7.21115447767844"><ele>1046.0</ele><time>2026-04-16T08:57:53.001Z</time></trkpt><trkpt lat="44.89278396014162" lon="7.21126046852267"><ele>1046.0</ele><time>2026-04-16T08:57:55.001Z</time></trkpt><trkpt lat="44.89281597504975" lon="7.211349749318139"><ele>1046.0</ele><time>2026-04-16T08:57:56.001Z</time></trkpt><trkpt lat="44.89288664218592" lon="7.211395296147387"><ele>1046.0</ele><time>2026-04-16T08:57:57.001Z</time></trkpt><trkpt lat="44.89297670676635" lon="7.211429245282292"><ele>1046.0</ele><time>2026-04-16T08:57:58.001Z</time></trkpt><trkpt lat="44.8930612801982" lon="7.211451242463869"><ele>1046.0</ele><time>2026-04-16T08:57:59.001Z</time></trkpt><trkpt lat="44.893159456238024" lon="7.211452909904158"><ele>1046.0</ele><time>2026-04-16T08:58:00.001Z</time></trkpt><trkpt lat="44.89322840892792" lon="7.211446236741484"><ele>1046.0</ele><time>2026-04-16T08:58:01.001Z</time></trkpt><trkpt lat="44.893314793196645" lon="7.21142158216698"><ele>1046.0</ele><time>2026-04-16T08:58:03.001Z</time></trkpt><trkpt lat="44.89343981212649" lon="7.211359026019051"><ele>1046.0</ele><time>2026-04-16T08:58:05.001Z</time></trkpt><trkpt lat="44.89350822127774" lon="7.2113194375960425"><ele>1046.0</ele><time>2026-04-16T08:58:06.001Z</time></trkpt><trkpt lat="44.893582666047024" lon="7.211308652009112"><ele>1046.0</ele><time>2026-04-16T08:58:07.001Z</time></trkpt><trkpt lat="44.89366531207821" lon="7.2113975146739255"><ele>1046.0</ele><time>2026-04-16T08:58:09.001Z</time></trkpt><trkpt lat="44.893679479479026" lon="7.211514725377645"><ele>1048.2</ele><time>2026-04-16T08:58:10.001Z</time></trkpt><trkpt lat="44.893695323457095" lon="7.211614689243979"><ele>1050.3999999999999</ele><time>2026-04-16T08:58:11.001Z</time></trkpt><trkpt lat="44.89367865282879" lon="7.211719675104612"><ele>1052.6</ele><time>2026-04-16T08:58:12.001Z</time></trkpt><trkpt lat="44.89365728152506" lon="7.2118654329182785"><ele>1054.8</ele><time>2026-04-16T08:58:13.001Z</time></trkpt><trkpt lat="44.893637438796155" lon="7.212046219248853"><ele>1057.0</ele><time>2026-04-16T08:58:14.001Z</time></trkpt><trkpt lat="44.89363223782346" lon="7.212240895043951"><ele>1059.5</ele><time>2026-04-16T08:58:15.001Z</time></trkpt><trkpt lat="44.89365843679338" lon="7.212401006694633"><ele>1062.0</ele><time>2026-04-16T08:58:16.001Z</time></trkpt><trkpt lat="44.89370811088288" lon="7.212559215656827"><ele>1064.5</ele><time>2026-04-16T08:58:17.001Z</time></trkpt><trkpt lat="44.89374358347687" lon="7.212716695673704"><ele>1067.0</ele><time>2026-04-16T08:58:18.001Z</time></trkpt><trkpt lat="44.89381555933199" lon="7.212868807340689"><ele>1067.0</ele><time>2026-04-16T08:58:19.001Z</time></trkpt><trkpt lat="44.8939237278094" lon="7.2129703160882945"><ele>1067.0</ele><time>2026-04-16T08:58:20.001Z</time></trkpt><trkpt lat="44.893992024315374" lon="7.2130343775965775"><ele>1067.0</ele><time>2026-04-16T08:58:21.001Z</time></trkpt><trkpt lat="44.89404875431765" lon="7.21317688061528"><ele>1067.0</ele><time>2026-04-16T08:58:23.001Z</time></trkpt><trkpt lat="44.89404419517042" lon="7.21328168876935"><ele>1067.0</ele><time>2026-04-16T08:58:24.001Z</time></trkpt><trkpt lat="44.894010723612844" lon="7.213401765112431"><ele>1067.4</ele><time>2026-04-16T08:58:25.001Z</time></trkpt><trkpt lat="44.89400680303706" lon="7.213504526817701"><ele>1067.8000000000002</ele><time>2026-04-16T08:58:26.001Z</time></trkpt><trkpt lat="44.89400344233413" lon="7.2137050520581925"><ele>1068.2</ele><time>2026-04-16T08:58:28.001Z</time></trkpt><trkpt lat="44.894037148200276" lon="7.213800308632639"><ele>1068.6000000000001</ele><time>2026-04-16T08:58:29.001Z</time></trkpt><trkpt lat="44.89402777117807" lon="7.213890667314884"><ele>1069.0</ele><time>2026-04-16T08:58:30.001Z</time></trkpt><trkpt lat="44.89399884935331" lon="7.214042156092743"><ele>1069.0</ele><time>2026-04-16T08:58:32.001Z</time></trkpt><trkpt lat="44.8939380551729" lon="7.214081725360462"><ele>1069.0</ele><time>2026-04-16T08:58:33.001Z</time></trkpt><trkpt lat="44.893883322401315" lon="7.214154543606071"><ele>1069.0</ele><time>2026-04-16T08:58:34.001Z</time></trkpt><trkpt lat="44.89383192055251" lon="7.2142359141822086"><ele>1069.0</ele><time>2026-04-16T08:58:35.001Z</time></trkpt><trkpt lat="44.89375996691093" lon="7.214332965831085"><ele>1069.0</ele><time>2026-04-16T08:58:36.001Z</time></trkpt><trkpt lat="44.89367243185698" lon="7.214458206658492"><ele>1069.0</ele><time>2026-04-16T08:58:37.001Z</time></trkpt><trkpt lat="44.8936230525919" lon="7.214551501909042"><ele>1069.0</ele><time>2026-04-16T08:58:38.001Z</time></trkpt><trkpt lat="44.89359520848867" lon="7.214681374576278"><ele>1069.0</ele><time>2026-04-16T08:58:39.001Z</time></trkpt><trkpt lat="44.89356696701517" lon="7.214867098125037"><ele>1069.0</ele><time>2026-04-16T08:58:40.001Z</time></trkpt><trkpt lat="44.89355861862173" lon="7.2150464189092975"><ele>1069.0</ele><time>2026-04-16T08:58:41.001Z</time></trkpt><trkpt lat="44.893520702119986" lon="7.21523086986928"><ele>1068.75</ele><time>2026-04-16T08:58:42.001Z</time></trkpt><trkpt lat="44.89350598616686" lon="7.215395890005656"><ele>1068.5</ele><time>2026-04-16T08:58:43.001Z</time></trkpt><trkpt lat="44.89351377439075" lon="7.21557610750955"><ele>1068.25</ele><time>2026-04-16T08:58:44.001Z</time></trkpt><trkpt lat="44.89350879604696" lon="7.215746773274764"><ele>1068.0</ele><time>2026-04-16T08:58:45.001Z</time></trkpt><trkpt lat="44.89351781372871" lon="7.215902713133554"><ele>1068.0</ele><time>2026-04-16T08:58:46.001Z</time></trkpt><trkpt lat="44.89350904514361" lon="7.2160292820684"><ele>1068.0</ele><time>2026-04-16T08:58:47.001Z</time></trkpt><trkpt lat="44.893509655654356" lon="7.216167678664354"><ele>1068.0</ele><time>2026-04-16T08:58:48.001Z</time></trkpt><trkpt lat="44.893505632028436" lon="7.21630220969892"><ele>1068.0</ele><time>2026-04-16T08:58:49.001Z</time></trkpt><trkpt lat="44.89349653492347" lon="7.216412591265358"><ele>1068.0</ele><time>2026-04-16T08:58:50.001Z</time></trkpt><trkpt lat="44.89346929374076" lon="7.216560087280375"><ele>1073.6666666666667</ele><time>2026-04-16T08:58:52.001Z</time></trkpt><trkpt lat="44.893399426045924" lon="7.2165516731776185"><ele>1079.3333333333333</ele><time>2026-04-16T08:58:55.001Z</time></trkpt><trkpt lat="44.893395381477205" lon="7.216443283094065"><ele>1085.0</ele><time>2026-04-16T08:58:57.001Z</time></trkpt><trkpt lat="44.893378235037936" lon="7.216328118554156"><ele>1090.6666666666665</ele><time>2026-04-16T08:58:58.001Z</time></trkpt><trkpt lat="44.89336563805939" lon="7.216222069085245"><ele>1096.3333333333333</ele><time>2026-04-16T08:58:59.001Z</time></trkpt><trkpt lat="44.8933315184335" lon="7.216118248919229"><ele>1102.0</ele><time>2026-04-16T08:59:00.001Z</time></trkpt><trkpt lat="44.89331039873614" lon="7.215986331243454"><ele>1102.0</ele><time>2026-04-16T08:59:02.001Z</time></trkpt><trkpt lat="44.89330465359348" lon="7.215879261626346"><ele>1102.0</ele><time>2026-04-16T08:59:43.001Z</time></trkpt><trkpt lat="44.893417723756436" lon="7.215728225435796"><ele>1102.0</ele><time>2026-04-16T08:59:44.001Z</time></trkpt><trkpt lat="44.89346563672492" lon="7.21559561003486"><ele>1102.0</ele><time>2026-04-16T08:59:45.001Z</time></trkpt><trkpt lat="44.89350430987923" lon="7.215510629946616"><ele>1102.0</ele><time>2026-04-16T08:59:46.001Z</time></trkpt><trkpt lat="44.89359821702696" lon="7.215381124779896"><ele>1101.5</ele><time>2026-04-16T08:59:48.001Z</time></trkpt><trkpt lat="44.89364694120747" lon="7.215275623435566"><ele>1101.0</ele><time>2026-04-16T08:59:49.001Z</time></trkpt><trkpt lat="44.89364819540667" lon="7.215137550955987"><ele>1100.5</ele><time>2026-04-16T08:59:50.001Z</time></trkpt><trkpt lat="44.89353393286067" lon="7.215079879130903"><ele>1100.0</ele><time>2026-04-16T08:59:51.001Z</time></trkpt><trkpt lat="44.89292540923766" lon="7.215010851935702"><ele>1100.0</ele><time>2026-04-16T08:59:52.001Z</time></trkpt><trkpt lat="44.89288406224806" lon="7.215107754291869"><ele>1100.0</ele><time>2026-04-16T08:59:54.001Z</time></trkpt><trkpt lat="44.89289848118431" lon="7.215285233904466"><ele>1100.0</ele><time>2026-04-16T08:59:56.001Z</time></trkpt><trkpt lat="44.892884953696594" lon="7.215397625383074"><ele>1100.0</ele><time>2026-04-16T08:59:57.001Z</time></trkpt><trkpt lat="44.89288033889367" lon="7.215536858821602"><ele>1100.0</ele><time>2026-04-16T08:59:58.001Z</time></trkpt><trkpt lat="44.89288024934352" lon="7.215719926003956"><ele>1100.6666666666667</ele><time>2026-04-16T08:59:59.001Z</time></trkpt><trkpt lat="44.89285075447996" lon="7.215942750038992"><ele>1101.3333333333333</ele><time>2026-04-16T09:00:00.001Z</time></trkpt><trkpt lat="44.892816030047356" lon="7.216163131026046"><ele>1102.0</ele><time>2026-04-16T09:00:01.001Z</time></trkpt><trkpt lat="44.8927684526239" lon="7.2163511209786595"><ele>1102.0</ele><time>2026-04-16T09:00:02.001Z</time></trkpt><trkpt lat="44.89272732539683" lon="7.216563506635891"><ele>1102.0</ele><time>2026-04-16T09:00:03.001Z</time></trkpt><trkpt lat="44.89270282630717" lon="7.216668373320577"><ele>1102.0</ele><time>2026-04-16T09:00:04.001Z</time></trkpt><trkpt lat="44.89266598764775" lon="7.216784867552057"><ele>1102.0</ele><time>2026-04-16T09:00:05.001Z</time></trkpt><trkpt lat="44.892617626871704" lon="7.2168836154724465"><ele>1102.0</ele><time>2026-04-16T09:00:06.001Z</time></trkpt><trkpt lat="44.89255276686182" lon="7.216959962191081"><ele>1108.25</ele><time>2026-04-16T09:00:07.001Z</time></trkpt><trkpt lat="44.892473955221845" lon="7.217074381998043"><ele>1114.5</ele><time>2026-04-16T09:00:08.001Z</time></trkpt><trkpt lat="44.89237158488975" lon="7.217219543406885"><ele>1120.75</ele><time>2026-04-16T09:00:09.001Z</time></trkpt><trkpt lat="44.89227680167887" lon="7.217352206136739"><ele>1127.0</ele><time>2026-04-16T09:00:10.001Z</time></trkpt><trkpt lat="44.892185714667725" lon="7.217479713807731"><ele>1127.0</ele><time>2026-04-16T09:00:11.001Z</time></trkpt><trkpt lat="44.89209629690538" lon="7.2176376889427525"><ele>1127.0</ele><time>2026-04-16T09:00:12.001Z</time></trkpt><trkpt lat="44.891994918987784" lon="7.21776383391062"><ele>1127.0</ele><time>2026-04-16T09:00:13.001Z</time></trkpt><trkpt lat="44.89191894054516" lon="7.217895745515704"><ele>1127.0</ele><time>2026-04-16T09:00:14.001Z</time></trkpt><trkpt lat="44.89188976656625" lon="7.218027778038657"><ele>1125.3333333333335</ele><time>2026-04-16T09:00:15.001Z</time></trkpt><trkpt lat="44.89186999854787" lon="7.2181614788245705"><ele>1123.6666666666667</ele><time>2026-04-16T09:00:16.001Z</time></trkpt><trkpt lat="44.89186581081097" lon="7.2183089810499075"><ele>1122.0</ele><time>2026-04-16T09:00:17.001Z</time></trkpt><trkpt lat="44.89187811541579" lon="7.218433650485911"><ele>1120.3333333333333</ele><time>2026-04-16T09:00:18.001Z</time></trkpt><trkpt lat="44.89188865640393" lon="7.218555701662545"><ele>1118.6666666666665</ele><time>2026-04-16T09:00:19.001Z</time></trkpt><trkpt lat="44.89190041931005" lon="7.218654043403037"><ele>1117.0</ele><time>2026-04-16T09:00:20.001Z</time></trkpt><trkpt lat="44.89189055575447" lon="7.218798802215993"><ele>1117.0</ele><time>2026-04-16T09:00:22.001Z</time></trkpt><trkpt lat="44.891828040785136" lon="7.218836473324182"><ele>1117.0</ele><time>2026-04-16T09:00:24.001Z</time></trkpt><trkpt lat="44.891761610167684" lon="7.218798470901069"><ele>1117.0</ele><time>2026-04-16T09:00:26.001Z</time></trkpt><trkpt lat="44.89164669447233" lon="7.2187503645893445"><ele>1117.0</ele><time>2026-04-16T09:00:28.001Z</time></trkpt><trkpt lat="44.89157691440195" lon="7.218719999134513"><ele>1117.0</ele><time>2026-04-16T09:00:29.001Z</time></trkpt><trkpt lat="44.89147155196671" lon="7.218671457893065"><ele>1117.0</ele><time>2026-04-16T09:00:31.001Z</time></trkpt><trkpt lat="44.891359868888536" lon="7.218635395108735"><ele>1121.4</ele><time>2026-04-16T09:00:33.001Z</time></trkpt><trkpt lat="44.89124678588652" lon="7.218562252678157"><ele>1125.8000000000002</ele><time>2026-04-16T09:00:35.001Z</time></trkpt><trkpt lat="44.89118146989128" lon="7.218540938191374"><ele>1130.2</ele><time>2026-04-16T09:00:40.001Z</time></trkpt><trkpt lat="44.89108485507313" lon="7.218508681000638"><ele>1134.6000000000001</ele><time>2026-04-16T09:00:41.001Z</time></trkpt><trkpt lat="44.89098065828944" lon="7.218507342289535"><ele>1139.0</ele><time>2026-04-16T09:00:42.001Z</time></trkpt><trkpt lat="44.89088311664092" lon="7.218492167982579"><ele>1139.0</ele><time>2026-04-16T09:00:44.001Z</time></trkpt><trkpt lat="44.89082396303468" lon="7.218536823327699"><ele>1139.0</ele><time>2026-04-16T09:01:32.001Z</time></trkpt><trkpt lat="44.89075218617521" lon="7.218530802285877"><ele>1139.0</ele><time>2026-04-16T09:01:39.001Z</time></trkpt><trkpt lat="44.89086675864858" lon="7.218464344613619"><ele>1139.0</ele><time>2026-04-16T09:01:51.001Z</time></trkpt><trkpt lat="44.89097148769655" lon="7.21858772747556"><ele>1139.0</ele><time>2026-04-16T09:01:52.001Z</time></trkpt><trkpt lat="44.89104938924854" lon="7.218580376234187"><ele>1139.0</ele><time>2026-04-16T09:01:53.001Z</time></trkpt><trkpt lat="44.89113683454938" lon="7.218589987887527"><ele>1139.0</ele><time>2026-04-16T09:01:55.001Z</time></trkpt><trkpt lat="44.89129916742643" lon="7.2186180476981034"><ele>1139.0</ele><time>2026-04-16T09:01:57.001Z</time></trkpt><trkpt lat="44.89143647806305" lon="7.218696697147874"><ele>1139.0</ele><time>2026-04-16T09:01:59.001Z</time></trkpt><trkpt lat="44.891560266047016" lon="7.218778795303293"><ele>1139.0</ele><time>2026-04-16T09:02:01.001Z</time></trkpt><trkpt lat="44.891643663195396" lon="7.218815381819221"><ele>1139.0</ele><time>2026-04-16T09:02:02.001Z</time></trkpt><trkpt lat="44.89171528715155" lon="7.218836375037735"><ele>1139.0</ele><time>2026-04-16T09:02:03.001Z</time></trkpt><trkpt lat="44.891811497716574" lon="7.218846874454475"><ele>1139.0</ele><time>2026-04-16T09:02:05.001Z</time></trkpt><trkpt lat="44.891882945424655" lon="7.2188455952627875"><ele>1139.0</ele><time>2026-04-16T09:02:07.001Z</time></trkpt><trkpt lat="44.89193298738224" lon="7.2187365833285195"><ele>1139.0</ele><time>2026-04-16T09:02:09.001Z</time></trkpt><trkpt lat="44.8919181977945" lon="7.218647540469137"><ele>1136.6000000000001</ele><time>2026-04-16T09:02:10.001Z</time></trkpt><trkpt lat="44.891903506483295" lon="7.2184780550753915"><ele>1134.2</ele><time>2026-04-16T09:02:12Z</time></trkpt><trkpt lat="44.89190047575349" lon="7.218374141542102"><ele>1131.8000000000002</ele><time>2026-04-16T09:02:13Z</time></trkpt><trkpt lat="44.89190279665551" lon="7.218262060642307"><ele>1129.4</ele><time>2026-04-16T09:02:14Z</time></trkpt><trkpt lat="44.89191553614063" lon="7.218117229856863"><ele>1127.0</ele><time>2026-04-16T09:02:15Z</time></trkpt><trkpt lat="44.891935995615974" lon="7.217986650743455"><ele>1127.0</ele><time>2026-04-16T09:02:16Z</time></trkpt><trkpt lat="44.891986710282296" lon="7.217850883421028"><ele>1127.0</ele><time>2026-04-16T09:02:18Z</time></trkpt><trkpt lat="44.89203727574308" lon="7.2177621268937076"><ele>1127.0</ele><time>2026-04-16T09:02:19Z</time></trkpt><trkpt lat="44.89208449454403" lon="7.217663259443307"><ele>1127.0</ele><time>2026-04-16T09:02:20Z</time></trkpt><trkpt lat="44.89214487732456" lon="7.217585671393857"><ele>1127.0</ele><time>2026-04-16T09:02:21Z</time></trkpt><trkpt lat="44.89220327361416" lon="7.217521201601999"><ele>1127.0</ele><time>2026-04-16T09:02:22Z</time></trkpt><trkpt lat="44.89227951282652" lon="7.217414471623518"><ele>1127.8333333333335</ele><time>2026-04-16T09:02:23Z</time></trkpt><trkpt lat="44.8923486154326" lon="7.217317752527653"><ele>1128.6666666666667</ele><time>2026-04-16T09:02:24Z</time></trkpt><trkpt lat="44.89242148187891" lon="7.217247111436357"><ele>1129.5</ele><time>2026-04-16T09:02:25Z</time></trkpt><trkpt lat="44.89248667297762" lon="7.217157550635751"><ele>1130.3333333333333</ele><time>2026-04-16T09:02:27Z</time></trkpt><trkpt lat="44.8925437092683" lon="7.217076213275584"><ele>1131.1666666666665</ele><time>2026-04-16T09:02:28Z</time></trkpt><trkpt lat="44.89260409455733" lon="7.217013367305235"><ele>1132.0</ele><time>2026-04-16T09:02:29Z</time></trkpt><trkpt lat="44.89263310698375" lon="7.216924386743342"><ele>1132.0</ele><time>2026-04-16T09:02:40Z</time></trkpt><trkpt lat="44.89261847912902" lon="7.217027429893555"><ele>1132.0</ele><time>2026-04-16T09:03:07Z</time></trkpt><trkpt lat="44.89253396201434" lon="7.21706021193795"><ele>1132.0</ele><time>2026-04-16T09:03:08Z</time></trkpt><trkpt lat="44.89249427235498" lon="7.217132734574247"><ele>1132.0</ele><time>2026-04-16T09:03:09Z</time></trkpt><trkpt lat="44.89240214635912" lon="7.217214003992735"><ele>1132.0</ele><time>2026-04-16T09:03:10Z</time></trkpt><trkpt lat="44.892304460483565" lon="7.217370951425158"><ele>1130.3333333333333</ele><time>2026-04-16T09:03:11Z</time></trkpt><trkpt lat="44.89220183126531" lon="7.217518595325348"><ele>1128.6666666666667</ele><time>2026-04-16T09:03:12Z</time></trkpt><trkpt lat="44.89206863802084" lon="7.217643879319222"><ele>1127.0</ele><time>2026-04-16T09:03:13Z</time></trkpt><trkpt lat="44.89196773019333" lon="7.217805685067886"><ele>1127.0</ele><time>2026-04-16T09:03:14Z</time></trkpt><trkpt lat="44.89192514210181" lon="7.217951865659144"><ele>1127.0</ele><time>2026-04-16T09:03:15Z</time></trkpt><trkpt lat="44.891888365223764" lon="7.21809356822078"><ele>1127.0</ele><time>2026-04-16T09:03:16Z</time></trkpt><trkpt lat="44.891879643324415" lon="7.218223106700926"><ele>1127.0</ele><time>2026-04-16T09:03:17Z</time></trkpt><trkpt lat="44.89187918970253" lon="7.218351783310088"><ele>1127.0</ele><time>2026-04-16T09:03:18Z</time></trkpt><trkpt lat="44.89186950990336" lon="7.218497741641532"><ele>1125.0</ele><time>2026-04-16T09:03:19Z</time></trkpt><trkpt lat="44.89189671571477" lon="7.218634730909226"><ele>1123.0</ele><time>2026-04-16T09:03:20Z</time></trkpt><trkpt lat="44.89190816407733" lon="7.218725696306667"><ele>1121.0</ele><time>2026-04-16T09:03:21Z</time></trkpt><trkpt lat="44.89188526716026" lon="7.218813009448248"><ele>1119.0</ele><time>2026-04-16T09:03:22Z</time></trkpt><trkpt lat="44.89168918424151" lon="7.2187688729691235"><ele>1117.0</ele><time>2026-04-16T09:03:27Z</time></trkpt><trkpt lat="44.89161234732709" lon="7.218735418101391"><ele>1122.5</ele><time>2026-04-16T09:03:28.001Z</time></trkpt><trkpt lat="44.891496037551434" lon="7.218686262171302"><ele>1128.0</ele><time>2026-04-16T09:03:29.001Z</time></trkpt><trkpt lat="44.891336420210685" lon="7.218621987530985"><ele>1133.5</ele><time>2026-04-16T09:03:30.001Z</time></trkpt><trkpt lat="44.89123860609727" lon="7.218595505534799"><ele>1139.0</ele><time>2026-04-16T09:03:31.001Z</time></trkpt><trkpt lat="44.89112698584264" lon="7.2185676911812235"><ele>1139.0</ele><time>2026-04-16T09:03:32.001Z</time></trkpt><trkpt lat="44.89100926589825" lon="7.218524927776038"><ele>1139.0</ele><time>2026-04-16T09:03:34.001Z</time></trkpt><trkpt lat="44.89091658638042" lon="7.2185149930525805"><ele>1139.0</ele><time>2026-04-16T09:03:37.001Z</time></trkpt><trkpt lat="44.89084295514224" lon="7.218515028567725"><ele>1139.0</ele><time>2026-04-16T09:03:38.001Z</time></trkpt><trkpt lat="44.89073315345675" lon="7.218534863517102"><ele>1139.0</ele><time>2026-04-16T09:03:39.001Z</time></trkpt><trkpt lat="44.89062377735666" lon="7.2186008964741655"><ele>1142.0</ele><time>2026-04-16T09:03:40.001Z</time></trkpt><trkpt lat="44.890529860608666" lon="7.21864884183018"><ele>1145.0</ele><time>2026-04-16T09:03:41.001Z</time></trkpt><trkpt lat="44.890415935231935" lon="7.218734176224461"><ele>1148.0</ele><time>2026-04-16T09:03:42.001Z</time></trkpt><trkpt lat="44.890304126505875" lon="7.218833600037904"><ele>1151.0</ele><time>2026-04-16T09:03:43.001Z</time></trkpt><trkpt lat="44.89019482816431" lon="7.218898898114831"><ele>1151.0</ele><time>2026-04-16T09:03:44.001Z</time></trkpt><trkpt lat="44.890116978782416" lon="7.218874084662604"><ele>1151.0</ele><time>2026-04-16T09:03:46.001Z</time></trkpt><trkpt lat="44.89000560932846" lon="7.218863829433839"><ele>1151.0</ele><time>2026-04-16T09:03:48.001Z</time></trkpt><trkpt lat="44.889922757925994" lon="7.218836662657486"><ele>1151.0</ele><time>2026-04-16T09:03:49.001Z</time></trkpt><trkpt lat="44.889834637146805" lon="7.2188148700095"><ele>1151.0</ele><time>2026-04-16T09:03:50.001Z</time></trkpt><trkpt lat="44.889759634618954" lon="7.218784184694016"><ele>1151.0</ele><time>2026-04-16T09:03:51Z</time></trkpt><trkpt lat="44.88961229617574" lon="7.218813277722048"><ele>1148.5</ele><time>2026-04-16T09:03:52Z</time></trkpt><trkpt lat="44.88950871782409" lon="7.218889941312138"><ele>1146.0</ele><time>2026-04-16T09:03:53Z</time></trkpt><trkpt lat="44.88942049526749" lon="7.219029746053443"><ele>1143.5</ele><time>2026-04-16T09:03:54Z</time></trkpt><trkpt lat="44.88936537057832" lon="7.219188501313578"><ele>1141.0</ele><time>2026-04-16T09:03:55Z</time></trkpt><trkpt lat="44.88928922970032" lon="7.219319982116077"><ele>1143.3999999999999</ele><time>2026-04-16T09:03:56Z</time></trkpt><trkpt lat="44.889197567008935" lon="7.219440828128209"><ele>1145.8</ele><time>2026-04-16T09:03:57Z</time></trkpt><trkpt lat="44.889125480764974" lon="7.219575464525989"><ele>1148.1999999999998</ele><time>2026-04-16T09:03:58Z</time></trkpt><trkpt lat="44.88907526442436" lon="7.219709213905009"><ele>1150.6</ele><time>2026-04-16T09:03:59Z</time></trkpt><trkpt lat="44.88903519856277" lon="7.2198130125337014"><ele>1153.0</ele><time>2026-04-16T09:04:00Z</time></trkpt><trkpt lat="44.88897884749817" lon="7.21996508574577"><ele>1153.0</ele><time>2026-04-16T09:04:01Z</time></trkpt><trkpt lat="44.88892411682447" lon="7.220106212825408"><ele>1153.0</ele><time>2026-04-16T09:04:02Z</time></trkpt><trkpt lat="44.88885556228713" lon="7.2202354066070855"><ele>1153.0</ele><time>2026-04-16T09:04:04Z</time></trkpt><trkpt lat="44.88874367621715" lon="7.220357878457071"><ele>1153.0</ele><time>2026-04-16T09:04:06Z</time></trkpt><trkpt lat="44.888667585240526" lon="7.220399420854106"><ele>1153.0</ele><time>2026-04-16T09:04:07Z</time></trkpt><trkpt lat="44.88854994813049" lon="7.22047314921921"><ele>1153.0</ele><time>2026-04-16T09:04:09Z</time></trkpt><trkpt lat="44.888464220123296" lon="7.220508116160017"><ele>1153.0</ele><time>2026-04-16T09:04:10Z</time></trkpt><trkpt lat="44.888369619027436" lon="7.220501022595028"><ele>1153.0</ele><time>2026-04-16T09:04:11Z</time></trkpt><trkpt lat="44.88825554863612" lon="7.22052116479216"><ele>1153.0</ele><time>2026-04-16T09:04:12Z</time></trkpt><trkpt lat="44.88814843576916" lon="7.2205661647031665"><ele>1154.6</ele><time>2026-04-16T09:04:13Z</time></trkpt><trkpt lat="44.888071747506054" lon="7.220619423067013"><ele>1156.1999999999998</ele><time>2026-04-16T09:04:14Z</time></trkpt><trkpt lat="44.888011220765755" lon="7.220646811136092"><ele>1157.8</ele><time>2026-04-16T09:04:15Z</time></trkpt><trkpt lat="44.8879513799799" lon="7.220721345534244"><ele>1159.3999999999999</ele><time>2026-04-16T09:04:16Z</time></trkpt><trkpt lat="44.8879097814545" lon="7.220923031353559"><ele>1161.0</ele><time>2026-04-16T09:04:18Z</time></trkpt><trkpt lat="44.88788738045711" lon="7.221035227759554"><ele>1161.0</ele><time>2026-04-16T09:04:19Z</time></trkpt><trkpt lat="44.88780975404053" lon="7.221156717779395"><ele>1161.0</ele><time>2026-04-16T09:04:21Z</time></trkpt><trkpt lat="44.88775068403933" lon="7.221218831600783"><ele>1161.0</ele><time>2026-04-16T09:04:23Z</time></trkpt><trkpt lat="44.887683767679924" lon="7.221219030540975"><ele>1161.0</ele><time>2026-04-16T09:04:24Z</time></trkpt><trkpt lat="44.887605738135036" lon="7.221267441703237"><ele>1161.0</ele><time>2026-04-16T09:04:25Z</time></trkpt><trkpt lat="44.88754707424743" lon="7.221309850266201"><ele>1161.0</ele><time>2026-04-16T09:04:26Z</time></trkpt><trkpt lat="44.88748377605827" lon="7.2213058027098445"><ele>1161.0</ele><time>2026-04-16T09:04:29Z</time></trkpt><trkpt lat="44.887504172289155" lon="7.221155725257141"><ele>1161.0</ele><time>2026-04-16T09:04:40Z</time></trkpt><trkpt lat="44.88756260199031" lon="7.221041763720711"><ele>1161.0</ele><time>2026-04-16T09:04:42Z</time></trkpt><trkpt lat="44.88758855436417" lon="7.22092768562652"><ele>1161.0</ele><time>2026-04-16T09:04:43Z</time></trkpt><trkpt lat="44.88761091322823" lon="7.2207793459185705"><ele>1161.0</ele><time>2026-04-16T09:04:45Z</time></trkpt><trkpt lat="44.88761746676529" lon="7.220646584021718"><ele>1164.8333333333333</ele><time>2026-04-16T09:04:47Z</time></trkpt><trkpt lat="44.88761950044168" lon="7.220501093538377"><ele>1168.6666666666667</ele><time>2026-04-16T09:04:49Z</time></trkpt><trkpt lat="44.8876702707161" lon="7.220447726121922"><ele>1172.5</ele><time>2026-04-16T09:04:51Z</time></trkpt><trkpt lat="44.887738519230545" lon="7.220457149938708"><ele>1176.3333333333335</ele><time>2026-04-16T09:04:52Z</time></trkpt><trkpt lat="44.8878445740183" lon="7.2203651028998115"><ele>1180.1666666666667</ele><time>2026-04-16T09:04:54Z</time></trkpt><trkpt lat="44.88790769790671" lon="7.220335929802892"><ele>1184.0</ele><time>2026-04-16T09:04:55Z</time></trkpt><trkpt lat="44.88797563753192" lon="7.220302782786852"><ele>1184.0</ele><time>2026-04-16T09:04:56Z</time></trkpt><trkpt lat="44.88808891442458" lon="7.22015792202078"><ele>1184.0</ele><time>2026-04-16T09:04:58Z</time></trkpt><trkpt lat="44.88813918849436" lon="7.2200895385225685"><ele>1184.0</ele><time>2026-04-16T09:04:59Z</time></trkpt><trkpt lat="44.88821851554865" lon="7.21997077899173"><ele>1184.0</ele><time>2026-04-16T09:05:01Z</time></trkpt><trkpt lat="44.888276985763554" lon="7.219871441294642"><ele>1184.0</ele><time>2026-04-16T09:05:02Z</time></trkpt><trkpt lat="44.88833951872803" lon="7.219743852636541"><ele>1187.4</ele><time>2026-04-16T09:05:03Z</time></trkpt><trkpt lat="44.88838480402469" lon="7.219629037713469"><ele>1190.8000000000002</ele><time>2026-04-16T09:05:04Z</time></trkpt><trkpt lat="44.888422530556475" lon="7.219496154641406"><ele>1194.1999999999998</ele><time>2026-04-16T09:05:06Z</time></trkpt><trkpt lat="44.88844603695031" lon="7.219401276964893"><ele>1197.6</ele><time>2026-04-16T09:05:07Z</time></trkpt><trkpt lat="44.88848549312992" lon="7.21928958506147"><ele>1201.0</ele><time>2026-04-16T09:05:08Z</time></trkpt><trkpt lat="44.88850429292543" lon="7.219145582506898"><ele>1198.3999999999999</ele><time>2026-04-16T09:05:09Z</time></trkpt><trkpt lat="44.88854071427126" lon="7.218961001829968"><ele>1195.8</ele><time>2026-04-16T09:05:10Z</time></trkpt><trkpt lat="44.888578746011426" lon="7.218856967523655"><ele>1193.1999999999998</ele><time>2026-04-16T09:05:11Z</time></trkpt><trkpt lat="44.88860411241751" lon="7.218755715558893"><ele>1190.6</ele><time>2026-04-16T09:05:12Z</time></trkpt><trkpt lat="44.88862460316125" lon="7.218632732895702"><ele>1188.0</ele><time>2026-04-16T09:05:13Z</time></trkpt><trkpt lat="44.88867856518837" lon="7.218492736674792"><ele>1188.0</ele><time>2026-04-16T09:05:14Z</time></trkpt><trkpt lat="44.88874818407422" lon="7.21837845410503"><ele>1188.0</ele><time>2026-04-16T09:05:15Z</time></trkpt><trkpt lat="44.88887629700441" lon="7.218313208580126"><ele>1188.0</ele><time>2026-04-16T09:05:16Z</time></trkpt><trkpt lat="44.88898856217458" lon="7.218236219806872"><ele>1188.0</ele><time>2026-04-16T09:05:17Z</time></trkpt><trkpt lat="44.88906370722623" lon="7.21814796148544"><ele>1188.25</ele><time>2026-04-16T09:05:18Z</time></trkpt><trkpt lat="44.88913992369274" lon="7.218030498803024"><ele>1188.5</ele><time>2026-04-16T09:05:20Z</time></trkpt><trkpt lat="44.88916997579455" lon="7.217865483509625"><ele>1188.75</ele><time>2026-04-16T09:05:21Z</time></trkpt><trkpt lat="44.889238286666625" lon="7.217729515825676"><ele>1189.0</ele><time>2026-04-16T09:05:22Z</time></trkpt><trkpt lat="44.88930989271509" lon="7.217593852009379"><ele>1189.0</ele><time>2026-04-16T09:05:23Z</time></trkpt><trkpt lat="44.889371987511076" lon="7.217472171210507"><ele>1189.0</ele><time>2026-04-16T09:05:24Z</time></trkpt><trkpt lat="44.889437079562164" lon="7.21735788670153"><ele>1189.0</ele><time>2026-04-16T09:05:25Z</time></trkpt><trkpt lat="44.889512272222376" lon="7.217222720653331"><ele>1189.0</ele><time>2026-04-16T09:05:26Z</time></trkpt><trkpt lat="44.8895949163595" lon="7.217089888815235"><ele>1192.0</ele><time>2026-04-16T09:05:27Z</time></trkpt><trkpt lat="44.889686295390725" lon="7.21695883850541"><ele>1195.0</ele><time>2026-04-16T09:05:28Z</time></trkpt><trkpt lat="44.88979731898917" lon="7.216903727427282"><ele>1198.0</ele><time>2026-04-16T09:05:29Z</time></trkpt><trkpt lat="44.8898764732573" lon="7.216822204422664"><ele>1201.0</ele><time>2026-04-16T09:05:30Z</time></trkpt><trkpt lat="44.889938746970635" lon="7.21674005807291"><ele>1204.0</ele><time>2026-04-16T09:05:31Z</time></trkpt><trkpt lat="44.889987409828436" lon="7.216643314598331"><ele>1204.0</ele><time>2026-04-16T09:05:32Z</time></trkpt><trkpt lat="44.890021282060175" lon="7.21656450125748"><ele>1204.0</ele><time>2026-04-16T09:05:33Z</time></trkpt><trkpt lat="44.88999738509933" lon="7.2164107961704245"><ele>1204.0</ele><time>2026-04-16T09:05:35Z</time></trkpt><trkpt lat="44.88996937629414" lon="7.216297321565445"><ele>1204.0</ele><time>2026-04-16T09:05:36Z</time></trkpt><trkpt lat="44.88996932136827" lon="7.216167078429115"><ele>1204.0</ele><time>2026-04-16T09:05:37Z</time></trkpt><trkpt lat="44.889984640724464" lon="7.216046435225041"><ele>1204.0</ele><time>2026-04-16T09:05:38Z</time></trkpt><trkpt lat="44.8899918683998" lon="7.215946889519112"><ele>1204.4</ele><time>2026-04-16T09:05:39Z</time></trkpt><trkpt lat="44.8899744627306" lon="7.215834282408755"><ele>1204.8000000000002</ele><time>2026-04-16T09:05:40Z</time></trkpt><trkpt lat="44.889940376561675" lon="7.215743855397612"><ele>1205.1999999999998</ele><time>2026-04-16T09:05:41Z</time></trkpt><trkpt lat="44.88989743490917" lon="7.215652942941339"><ele>1205.6</ele><time>2026-04-16T09:05:42Z</time></trkpt><trkpt lat="44.88983390445203" lon="7.215499015524534"><ele>1206.0</ele><time>2026-04-16T09:05:44Z</time></trkpt><trkpt lat="44.889782699452105" lon="7.215341285888537"><ele>1203.75</ele><time>2026-04-16T09:05:46Z</time></trkpt><trkpt lat="44.88973293283676" lon="7.215222395010852"><ele>1201.5</ele><time>2026-04-16T09:05:47Z</time></trkpt><trkpt lat="44.889671867043575" lon="7.215129697729019"><ele>1199.25</ele><time>2026-04-16T09:05:49Z</time></trkpt><trkpt lat="44.889547167514486" lon="7.2150320354938176"><ele>1197.0</ele><time>2026-04-16T09:05:51Z</time></trkpt><trkpt lat="44.88941917578421" lon="7.214995368252692"><ele>1197.0</ele><time>2026-04-16T09:05:52Z</time></trkpt><trkpt lat="44.88928387165193" lon="7.214949826289526"><ele>1197.0</ele><time>2026-04-16T09:05:53Z</time></trkpt><trkpt lat="44.889192945391436" lon="7.214914322823938"><ele>1197.0</ele><time>2026-04-16T09:05:54Z</time></trkpt><trkpt lat="44.88913842103186" lon="7.214858678157098"><ele>1197.0</ele><time>2026-04-16T09:05:55Z</time></trkpt><trkpt lat="44.88909456181564" lon="7.214680529689534"><ele>1197.0</ele><time>2026-04-16T09:05:57Z</time></trkpt><trkpt lat="44.889050543461835" lon="7.214616777350782"><ele>1198.6</ele><time>2026-04-16T09:05:58Z</time></trkpt><trkpt lat="44.88899324093989" lon="7.2145104301284055"><ele>1200.2</ele><time>2026-04-16T09:05:59Z</time></trkpt><trkpt lat="44.888900651492264" lon="7.214387418904878"><ele>1201.8</ele><time>2026-04-16T09:06:01Z</time></trkpt><trkpt lat="44.888803978021166" lon="7.214323038976798"><ele>1203.4</ele><time>2026-04-16T09:06:02Z</time></trkpt><trkpt lat="44.888718385553325" lon="7.214224327462737"><ele>1205.0</ele><time>2026-04-16T09:06:03Z</time></trkpt><trkpt lat="44.88862726931258" lon="7.214156787716943"><ele>1205.0</ele><time>2026-04-16T09:06:04Z</time></trkpt><trkpt lat="44.888539453800774" lon="7.214107484232427"><ele>1205.0</ele><time>2026-04-16T09:06:05Z</time></trkpt><trkpt lat="44.88842694991767" lon="7.214032468273497"><ele>1205.0</ele><time>2026-04-16T09:06:06Z</time></trkpt><trkpt lat="44.888277542348504" lon="7.213930448344321"><ele>1205.0</ele><time>2026-04-16T09:06:07Z</time></trkpt><trkpt lat="44.88818529259401" lon="7.213850305771604"><ele>1207.2</ele><time>2026-04-16T09:06:08Z</time></trkpt><trkpt lat="44.888090031498066" lon="7.213767533580866"><ele>1209.4</ele><time>2026-04-16T09:06:09Z</time></trkpt><trkpt lat="44.887984097625576" lon="7.213651947839002"><ele>1211.6</ele><time>2026-04-16T09:06:10Z</time></trkpt><trkpt lat="44.88788056960563" lon="7.213560998879861"><ele>1213.8</ele><time>2026-04-16T09:06:11Z</time></trkpt><trkpt lat="44.887808710618515" lon="7.213518137703739"><ele>1216.0</ele><time>2026-04-16T09:06:12Z</time></trkpt><trkpt lat="44.887716857317024" lon="7.213488258941221"><ele>1216.0</ele><time>2026-04-16T09:06:13Z</time></trkpt><trkpt lat="44.88760003680614" lon="7.213447729587799"><ele>1216.0</ele><time>2026-04-16T09:06:14Z</time></trkpt><trkpt lat="44.88745956295855" lon="7.213406242678401"><ele>1216.0</ele><time>2026-04-16T09:06:15Z</time></trkpt><trkpt lat="44.88733898525025" lon="7.213369338186725"><ele>1216.0</ele><time>2026-04-16T09:06:16Z</time></trkpt><trkpt lat="44.88726812223376" lon="7.21331030455075"><ele>1217.1666666666665</ele><time>2026-04-16T09:06:17Z</time></trkpt><trkpt lat="44.887210616491885" lon="7.213234377970948"><ele>1218.3333333333333</ele><time>2026-04-16T09:06:18Z</time></trkpt><trkpt lat="44.88714757751642" lon="7.213154131487671"><ele>1219.5</ele><time>2026-04-16T09:06:19Z</time></trkpt><trkpt lat="44.887113421028545" lon="7.213040116426275"><ele>1220.6666666666667</ele><time>2026-04-16T09:06:20Z</time></trkpt><trkpt lat="44.887059434599436" lon="7.2129502281868945"><ele>1221.8333333333335</ele><time>2026-04-16T09:06:21Z</time></trkpt><trkpt lat="44.88700837536378" lon="7.212860836299281"><ele>1223.0</ele><time>2026-04-16T09:06:22Z</time></trkpt><trkpt lat="44.886957653860094" lon="7.212775754185172"><ele>1223.0</ele><time>2026-04-16T09:06:23Z</time></trkpt><trkpt lat="44.8868982989782" lon="7.212688107810507"><ele>1223.0</ele><time>2026-04-16T09:06:24Z</time></trkpt><trkpt lat="44.88680772611374" lon="7.212606566480312"><ele>1223.0</ele><time>2026-04-16T09:06:26Z</time></trkpt><trkpt lat="44.88673079265953" lon="7.212591399257581"><ele>1223.0</ele><time>2026-04-16T09:06:59Z</time></trkpt><trkpt lat="44.8866692730101" lon="7.2126648367668045"><ele>1223.0</ele><time>2026-04-16T09:07:00Z</time></trkpt><trkpt lat="44.88659521505066" lon="7.212766119120299"><ele>1225.6</ele><time>2026-04-16T09:07:01Z</time></trkpt><trkpt lat="44.88652263544134" lon="7.212860684259811"><ele>1228.1999999999998</ele><time>2026-04-16T09:07:02Z</time></trkpt><trkpt lat="44.88643909842403" lon="7.212888738228011"><ele>1230.8</ele><time>2026-04-16T09:07:04Z</time></trkpt><trkpt lat="44.88636104511781" lon="7.212842051419877"><ele>1233.3999999999999</ele><time>2026-04-16T09:07:06Z</time></trkpt><trkpt lat="44.886267892127556" lon="7.212684864877052"><ele>1236.0</ele><time>2026-04-16T09:07:07Z</time></trkpt><trkpt lat="44.886201976430556" lon="7.212546888239097"><ele>1236.0</ele><time>2026-04-16T09:07:08Z</time></trkpt><trkpt lat="44.88614971204949" lon="7.21243443514759"><ele>1236.0</ele><time>2026-04-16T09:07:09Z</time></trkpt><trkpt lat="44.88611760048981" lon="7.212310641754278"><ele>1236.0</ele><time>2026-04-16T09:07:10Z</time></trkpt><trkpt lat="44.88605517404838" lon="7.212171925168421"><ele>1236.0</ele><time>2026-04-16T09:07:11Z</time></trkpt><trkpt lat="44.886018936209375" lon="7.211986822244523"><ele>1236.0</ele><time>2026-04-16T09:07:12Z</time></trkpt><trkpt lat="44.885938315545324" lon="7.2117824633099366"><ele>1240.25</ele><time>2026-04-16T09:07:13Z</time></trkpt><trkpt lat="44.88589243807955" lon="7.211604460556991"><ele>1244.5</ele><time>2026-04-16T09:07:14Z</time></trkpt><trkpt lat="44.88583708466479" lon="7.211427516949239"><ele>1248.75</ele><time>2026-04-16T09:07:15Z</time></trkpt><trkpt lat="44.88580921588773" lon="7.211303797165159"><ele>1253.0</ele><time>2026-04-16T09:07:16Z</time></trkpt><trkpt lat="44.88578528533495" lon="7.211171048856293"><ele>1253.0</ele><time>2026-04-16T09:07:17Z</time></trkpt><trkpt lat="44.88576942630785" lon="7.211058380459704"><ele>1253.0</ele><time>2026-04-16T09:07:18Z</time></trkpt><trkpt lat="44.885723135305625" lon="7.210918030936594"><ele>1253.0</ele><time>2026-04-16T09:07:20Z</time></trkpt><trkpt lat="44.88566659247838" lon="7.210809406896475"><ele>1253.0</ele><time>2026-04-16T09:07:21Z</time></trkpt><trkpt lat="44.88559490942779" lon="7.210713099905914"><ele>1253.0</ele><time>2026-04-16T09:07:22Z</time></trkpt><trkpt lat="44.88550282505288" lon="7.210606907867098"><ele>1250.8</ele><time>2026-04-16T09:07:24Z</time></trkpt><trkpt lat="44.88544760411854" lon="7.210551854671912"><ele>1248.6</ele><time>2026-04-16T09:07:25Z</time></trkpt><trkpt lat="44.88536565458608" lon="7.210439840879742"><ele>1246.4</ele><time>2026-04-16T09:07:27Z</time></trkpt><trkpt lat="44.88529098084679" lon="7.210381925326319"><ele>1244.2</ele><time>2026-04-16T09:07:28Z</time></trkpt><trkpt lat="44.8851951506726" lon="7.210292503477631"><ele>1242.0</ele><time>2026-04-16T09:07:29Z</time></trkpt><trkpt lat="44.885098134749164" lon="7.210216958880885"><ele>1245.5</ele><time>2026-04-16T09:07:30Z</time></trkpt><trkpt lat="44.88504058368908" lon="7.210180156465552"><ele>1249.0</ele><time>2026-04-16T09:07:31Z</time></trkpt><trkpt lat="44.88495771815004" lon="7.210187904390827"><ele>1252.5</ele><time>2026-04-16T09:07:32Z</time></trkpt><trkpt lat="44.8848940894799" lon="7.210211698828025"><ele>1256.0</ele><time>2026-04-16T09:07:33Z</time></trkpt><trkpt lat="44.88484549462514" lon="7.2102919634677"><ele>1259.5</ele><time>2026-04-16T09:07:34Z</time></trkpt><trkpt lat="44.884746838569214" lon="7.210299131031299"><ele>1263.0</ele><time>2026-04-16T09:07:36Z</time></trkpt><trkpt lat="44.88467031455276" lon="7.210272163517695"><ele>1263.0</ele><time>2026-04-16T09:07:37Z</time></trkpt><trkpt lat="44.88457712102301" lon="7.210237548113317"><ele>1263.0</ele><time>2026-04-16T09:07:38Z</time></trkpt><trkpt lat="44.88449141737637" lon="7.210195328830913"><ele>1263.0</ele><time>2026-04-16T09:07:39Z</time></trkpt><trkpt lat="44.8844069961445" lon="7.210224214748234"><ele>1263.0</ele><time>2026-04-16T09:07:40Z</time></trkpt><trkpt lat="44.88430418322241" lon="7.210266801319028"><ele>1263.0</ele><time>2026-04-16T09:07:41Z</time></trkpt><trkpt lat="44.88417572293928" lon="7.210336560099193"><ele>1263.0</ele><time>2026-04-16T09:07:42Z</time></trkpt><trkpt lat="44.884093855679076" lon="7.210379403009686"><ele>1263.0</ele><time>2026-04-16T09:07:43Z</time></trkpt><trkpt lat="44.88403662641659" lon="7.210429363655043"><ele>1263.0</ele><time>2026-04-16T09:07:45Z</time></trkpt><trkpt lat="44.884062514810076" lon="7.210515308617225"><ele>1263.0</ele><time>2026-04-16T09:07:49Z</time></trkpt><trkpt lat="44.8841430344889" lon="7.210494921602726"><ele>1263.0</ele><time>2026-04-16T09:07:50Z</time></trkpt><trkpt lat="44.88421783566055" lon="7.210506014537232"><ele>1263.0</ele><time>2026-04-16T09:07:51Z</time></trkpt><trkpt lat="44.884292348978576" lon="7.210491897398606"><ele>1263.0</ele><time>2026-04-16T09:07:52Z</time></trkpt><trkpt lat="44.88435690990152" lon="7.210496894335448"><ele>1263.0</ele><time>2026-04-16T09:07:53Z</time></trkpt><trkpt lat="44.884433708367844" lon="7.2105433485839985"><ele>1263.0</ele><time>2026-04-16T09:07:54Z</time></trkpt><trkpt lat="44.88450217818854" lon="7.210627084800192"><ele>1263.0</ele><time>2026-04-16T09:07:55Z</time></trkpt><trkpt lat="44.884535478421036" lon="7.2107280453969365"><ele>1263.0</ele><time>2026-04-16T09:07:57Z</time></trkpt><trkpt lat="44.88451406813113" lon="7.210843787404999"><ele>1263.0</ele><time>2026-04-16T09:07:58Z</time></trkpt><trkpt lat="44.884521147564726" lon="7.211009163632049"><ele>1266.2</ele><time>2026-04-16T09:07:59Z</time></trkpt><trkpt lat="44.88454189281114" lon="7.2111760800314055"><ele>1269.4</ele><time>2026-04-16T09:08:00Z</time></trkpt><trkpt lat="44.88460785967413" lon="7.211325113775712"><ele>1272.6000000000001</ele><time>2026-04-16T09:08:01Z</time></trkpt><trkpt lat="44.884654357334426" lon="7.211441728935547"><ele>1275.8</ele><time>2026-04-16T09:08:02Z</time></trkpt><trkpt lat="44.884710693408074" lon="7.21150894307023"><ele>1279.0</ele><time>2026-04-16T09:08:03Z</time></trkpt><trkpt lat="44.88476233863216" lon="7.211583479110239"><ele>1281.3333333333333</ele><time>2026-04-16T09:08:04Z</time></trkpt><trkpt lat="44.88482626809811" lon="7.2116757391010475"><ele>1283.6666666666665</ele><time>2026-04-16T09:08:05Z</time></trkpt><trkpt lat="44.88488857112742" lon="7.211776995675171"><ele>1286.0</ele><time>2026-04-16T09:08:06Z</time></trkpt><trkpt lat="44.884921599527" lon="7.211873627703661"><ele>1288.3333333333333</ele><time>2026-04-16T09:08:07Z</time></trkpt><trkpt lat="44.88495738036583" lon="7.21196228667084"><ele>1290.6666666666667</ele><time>2026-04-16T09:08:08Z</time></trkpt><trkpt lat="44.88501762480845" lon="7.21206544993092"><ele>1293.0</ele><time>2026-04-16T09:08:09Z</time></trkpt><trkpt lat="44.88502834069311" lon="7.212165425834715"><ele>1295.8000000000002</ele><time>2026-04-16T09:08:10Z</time></trkpt><trkpt lat="44.88503427939386" lon="7.21237868805183"><ele>1298.6</ele><time>2026-04-16T09:08:11Z</time></trkpt><trkpt lat="44.88504841894167" lon="7.212486978512118"><ele>1301.4</ele><time>2026-04-16T09:08:12Z</time></trkpt><trkpt lat="44.8850615377994" lon="7.212599132616086"><ele>1304.1999999999998</ele><time>2026-04-16T09:08:14Z</time></trkpt><trkpt lat="44.88501094357979" lon="7.2125143143930295"><ele>1307.0</ele><time>2026-04-16T09:08:16Z</time></trkpt><trkpt lat="44.88491682052593" lon="7.212410407664954"><ele>1304.1999999999998</ele><time>2026-04-16T09:08:19Z</time></trkpt><trkpt lat="44.88487974174688" lon="7.2123190821199685"><ele>1301.4</ele><time>2026-04-16T09:08:20Z</time></trkpt><trkpt lat="44.88480653370344" lon="7.212234103495129"><ele>1298.6</ele><time>2026-04-16T09:08:21Z</time></trkpt><trkpt lat="44.88472481989033" lon="7.212125787912556"><ele>1295.8000000000002</ele><time>2026-04-16T09:08:22Z</time></trkpt><trkpt lat="44.88460510830906" lon="7.21196438614721"><ele>1293.0</ele><time>2026-04-16T09:08:23Z</time></trkpt><trkpt lat="44.8845301301406" lon="7.211845463579533"><ele>1293.0</ele><time>2026-04-16T09:08:24Z</time></trkpt><trkpt lat="44.88445636790913" lon="7.211746386430349"><ele>1293.0</ele><time>2026-04-16T09:08:25Z</time></trkpt><trkpt lat="44.88439818754399" lon="7.211682781692045"><ele>1293.0</ele><time>2026-04-16T09:08:26Z</time></trkpt><trkpt lat="44.884330555294554" lon="7.211681437401112"><ele>1293.0</ele><time>2026-04-16T09:08:27Z</time></trkpt><trkpt lat="44.884237384883825" lon="7.211642100199518"><ele>1293.0</ele><time>2026-04-16T09:08:29Z</time></trkpt><trkpt lat="44.884166910561284" lon="7.211681116735976"><ele>1293.0</ele><time>2026-04-16T09:08:30Z</time></trkpt><trkpt lat="44.88409559297257" lon="7.2116991530543055"><ele>1295.8000000000002</ele><time>2026-04-16T09:08:31Z</time></trkpt><trkpt lat="44.88403779781547" lon="7.211767263370539"><ele>1298.6</ele><time>2026-04-16T09:08:32Z</time></trkpt><trkpt lat="44.88399040787168" lon="7.211873964354689"><ele>1301.4</ele><time>2026-04-16T09:08:33Z</time></trkpt><trkpt lat="44.883945374796795" lon="7.211991778637364"><ele>1304.1999999999998</ele><time>2026-04-16T09:08:34Z</time></trkpt><trkpt lat="44.88389754457256" lon="7.21212519959616"><ele>1307.0</ele><time>2026-04-16T09:08:35Z</time></trkpt><trkpt lat="44.88385185601861" lon="7.212311397777163"><ele>1310.3999999999999</ele><time>2026-04-16T09:08:36Z</time></trkpt><trkpt lat="44.88383551365167" lon="7.2124994693652065"><ele>1313.8</ele><time>2026-04-16T09:08:37Z</time></trkpt><trkpt lat="44.88381589789596" lon="7.212662564809149"><ele>1317.2</ele><time>2026-04-16T09:08:38Z</time></trkpt><trkpt lat="44.88378585247687" lon="7.212793467143674"><ele>1320.6</ele><time>2026-04-16T09:08:39Z</time></trkpt><trkpt lat="44.88373617780639" lon="7.212883672222226"><ele>1324.0</ele><time>2026-04-16T09:08:40Z</time></trkpt><trkpt lat="44.88367504263183" lon="7.212968602210362"><ele>1324.0</ele><time>2026-04-16T09:08:41Z</time></trkpt><trkpt lat="44.883598837726936" lon="7.213053043446355"><ele>1324.0</ele><time>2026-04-16T09:08:42Z</time></trkpt><trkpt lat="44.88350535863934" lon="7.213124648983344"><ele>1324.0</ele><time>2026-04-16T09:08:43Z</time></trkpt><trkpt lat="44.88340160898858" lon="7.213175743062164"><ele>1324.0</ele><time>2026-04-16T09:08:44Z</time></trkpt><trkpt lat="44.88331005560909" lon="7.213208775933674"><ele>1324.0</ele><time>2026-04-16T09:08:45Z</time></trkpt><trkpt lat="44.883213494777905" lon="7.213233229530143"><ele>1324.0</ele><time>2026-04-16T09:08:46Z</time></trkpt><trkpt lat="44.88309763088427" lon="7.213247896162818"><ele>1324.0</ele><time>2026-04-16T09:08:47Z</time></trkpt><trkpt lat="44.88300487549975" lon="7.2132426683267585"><ele>1324.0</ele><time>2026-04-16T09:08:48Z</time></trkpt><trkpt lat="44.88289448425092" lon="7.213215644687983"><ele>1324.0</ele><time>2026-04-16T09:08:49Z</time></trkpt><trkpt lat="44.8827997582025" lon="7.213175112004171"><ele>1324.0</ele><time>2026-04-16T09:08:50Z</time></trkpt><trkpt lat="44.88271882281739" lon="7.213136234907528"><ele>1324.6</ele><time>2026-04-16T09:08:51Z</time></trkpt><trkpt lat="44.88263904461524" lon="7.2130956662975"><ele>1325.2</ele><time>2026-04-16T09:08:52Z</time></trkpt><trkpt lat="44.882534045282966" lon="7.213055729993716"><ele>1325.8</ele><time>2026-04-16T09:08:53Z</time></trkpt><trkpt lat="44.88243409466801" lon="7.212990111325595"><ele>1326.3999999999999</ele><time>2026-04-16T09:08:54Z</time></trkpt><trkpt lat="44.88237987044231" lon="7.21291163937229"><ele>1327.0</ele><time>2026-04-16T09:08:55Z</time></trkpt><trkpt lat="44.88231069875202" lon="7.212790885276614"><ele>1327.0</ele><time>2026-04-16T09:08:57Z</time></trkpt><trkpt lat="44.8822823658657" lon="7.212646823805884"><ele>1327.0</ele><time>2026-04-16T09:08:59Z</time></trkpt><trkpt lat="44.88223373705118" lon="7.212569998734672"><ele>1327.0</ele><time>2026-04-16T09:09:00Z</time></trkpt><trkpt lat="44.88217156997097" lon="7.212474438346346"><ele>1327.0</ele><time>2026-04-16T09:09:01Z</time></trkpt><trkpt lat="44.88211144866174" lon="7.212382048423589"><ele>1327.0</ele><time>2026-04-16T09:09:02Z</time></trkpt><trkpt lat="44.88205811537591" lon="7.212268511432546"><ele>1325.75</ele><time>2026-04-16T09:09:03Z</time></trkpt><trkpt lat="44.88197904554345" lon="7.212147912859766"><ele>1324.5</ele><time>2026-04-16T09:09:04Z</time></trkpt><trkpt lat="44.881895001955684" lon="7.212030372693233"><ele>1323.25</ele><time>2026-04-16T09:09:05Z</time></trkpt><trkpt lat="44.881825589933676" lon="7.211900298748015"><ele>1322.0</ele><time>2026-04-16T09:09:06Z</time></trkpt><trkpt lat="44.88176049281803" lon="7.211768655068884"><ele>1324.8</ele><time>2026-04-16T09:09:07Z</time></trkpt><trkpt lat="44.88170860418093" lon="7.211635232672603"><ele>1327.6</ele><time>2026-04-16T09:09:08Z</time></trkpt><trkpt lat="44.88167480097016" lon="7.211541300797374"><ele>1330.3999999999999</ele><time>2026-04-16T09:09:09Z</time></trkpt><trkpt lat="44.88169823789473" lon="7.211438474059715"><ele>1333.1999999999998</ele><time>2026-04-16T09:09:10Z</time></trkpt><trkpt lat="44.88166415331416" lon="7.211295436236954"><ele>1336.0</ele><time>2026-04-16T09:09:12Z</time></trkpt><trkpt lat="44.881591723568285" lon="7.211216230989326"><ele>1336.0</ele><time>2026-04-16T09:09:14Z</time></trkpt><trkpt lat="44.8815115101845" lon="7.211270875633136"><ele>1336.0</ele><time>2026-04-16T09:09:15Z</time></trkpt><trkpt lat="44.88155179054713" lon="7.211455646127738"><ele>1336.0</ele><time>2026-04-16T09:09:17Z</time></trkpt><trkpt lat="44.88155602032698" lon="7.211676066046109"><ele>1336.0</ele><time>2026-04-16T09:09:19Z</time></trkpt><trkpt lat="44.881564364675285" lon="7.211839496869035"><ele>1338.3333333333333</ele><time>2026-04-16T09:09:20Z</time></trkpt><trkpt lat="44.881578124053895" lon="7.212047603833516"><ele>1340.6666666666667</ele><time>2026-04-16T09:09:21Z</time></trkpt><trkpt lat="44.881573748224696" lon="7.2122850118180635"><ele>1343.0</ele><time>2026-04-16T09:09:22Z</time></trkpt><trkpt lat="44.881574384013796" lon="7.212532730437392"><ele>1344.5</ele><time>2026-04-16T09:09:23Z</time></trkpt><trkpt lat="44.881567323192115" lon="7.212734039918742"><ele>1346.0</ele><time>2026-04-16T09:09:24Z</time></trkpt><trkpt lat="44.88158128769593" lon="7.21286909772155"><ele>1347.5</ele><time>2026-04-16T09:09:25Z</time></trkpt><trkpt lat="44.8815838710213" lon="7.2130292196558905"><ele>1349.0</ele><time>2026-04-16T09:09:26Z</time></trkpt><trkpt lat="44.88159833653099" lon="7.213195976977406"><ele>1350.2</ele><time>2026-04-16T09:09:27Z</time></trkpt><trkpt lat="44.88160876754001" lon="7.213356299330814"><ele>1351.4</ele><time>2026-04-16T09:09:28Z</time></trkpt><trkpt lat="44.8816074857652" lon="7.213506786437298"><ele>1352.6</ele><time>2026-04-16T09:09:29Z</time></trkpt><trkpt lat="44.881613880438074" lon="7.213648709415941"><ele>1353.8</ele><time>2026-04-16T09:09:30Z</time></trkpt><trkpt lat="44.88162847252257" lon="7.2137772287159025"><ele>1355.0</ele><time>2026-04-16T09:09:31Z</time></trkpt><trkpt lat="44.88164678503558" lon="7.213912930652453"><ele>1355.6</ele><time>2026-04-16T09:09:32Z</time></trkpt><trkpt lat="44.88165540297545" lon="7.214066618450682"><ele>1356.2</ele><time>2026-04-16T09:09:33Z</time></trkpt><trkpt lat="44.88164819753675" lon="7.214209326085842"><ele>1356.8000000000002</ele><time>2026-04-16T09:09:34Z</time></trkpt><trkpt lat="44.88163143932185" lon="7.214333520623331"><ele>1357.4</ele><time>2026-04-16T09:09:35Z</time></trkpt><trkpt lat="44.88160891655245" lon="7.214423162781145"><ele>1358.0</ele><time>2026-04-16T09:09:36Z</time></trkpt><trkpt lat="44.88156210452418" lon="7.214560627312178"><ele>1358.0</ele><time>2026-04-16T09:09:38Z</time></trkpt><trkpt lat="44.88146819522359" lon="7.2146338789008055"><ele>1358.0</ele><time>2026-04-16T09:09:40Z</time></trkpt><trkpt lat="44.88134459750444" lon="7.214708984487683"><ele>1358.0</ele><time>2026-04-16T09:09:42Z</time></trkpt><trkpt lat="44.881255909878064" lon="7.214712709562227"><ele>1358.0</ele><time>2026-04-16T09:09:43Z</time></trkpt><trkpt lat="44.88116844439771" lon="7.214724776493749"><ele>1358.0</ele><time>2026-04-16T09:09:44Z</time></trkpt><trkpt lat="44.881093084153555" lon="7.214732434061418"><ele>1358.0</ele><time>2026-04-16T09:09:45Z</time></trkpt><trkpt lat="44.88101489731353" lon="7.214739672743763"><ele>1358.0</ele><time>2026-04-16T09:09:46Z</time></trkpt><trkpt lat="44.88091753862984" lon="7.214750756607169"><ele>1358.0</ele><time>2026-04-16T09:09:47Z</time></trkpt><trkpt lat="44.88080912867951" lon="7.21476702732837"><ele>1358.0</ele><time>2026-04-16T09:09:48Z</time></trkpt><trkpt lat="44.88069955727088" lon="7.2147981386695434"><ele>1358.0</ele><time>2026-04-16T09:09:49Z</time></trkpt><trkpt lat="44.88057322422366" lon="7.2147931210264415"><ele>1359.75</ele><time>2026-04-16T09:09:50Z</time></trkpt><trkpt lat="44.88043698022409" lon="7.214810369961773"><ele>1361.5</ele><time>2026-04-16T09:09:51Z</time></trkpt><trkpt lat="44.88032319451091" lon="7.214807819703974"><ele>1363.25</ele><time>2026-04-16T09:09:52Z</time></trkpt><trkpt lat="44.880219969635355" lon="7.214831219031935"><ele>1365.0</ele><time>2026-04-16T09:09:53Z</time></trkpt><trkpt lat="44.88010435222977" lon="7.214882165580533"><ele>1368.25</ele><time>2026-04-16T09:09:54Z</time></trkpt><trkpt lat="44.87999391518967" lon="7.214937655186162"><ele>1371.5</ele><time>2026-04-16T09:09:55Z</time></trkpt><trkpt lat="44.87986121021485" lon="7.215005144860683"><ele>1374.75</ele><time>2026-04-16T09:09:56Z</time></trkpt><trkpt lat="44.87975302651988" lon="7.215048044172522"><ele>1378.0</ele><time>2026-04-16T09:09:57Z</time></trkpt><trkpt lat="44.8796714326711" lon="7.215107248458012"><ele>1378.0</ele><time>2026-04-16T09:09:58Z</time></trkpt><trkpt lat="44.879561832011404" lon="7.215157243572888"><ele>1378.0</ele><time>2026-04-16T09:09:59Z</time></trkpt><trkpt lat="44.87946362216219" lon="7.215227831295387"><ele>1378.0</ele><time>2026-04-16T09:10:00Z</time></trkpt><trkpt lat="44.87933194219088" lon="7.21527815720443"><ele>1378.0</ele><time>2026-04-16T09:10:01Z</time></trkpt><trkpt lat="44.87923824156471" lon="7.215354264132489"><ele>1380.3333333333333</ele><time>2026-04-16T09:10:02Z</time></trkpt><trkpt lat="44.87916752576888" lon="7.215386269369992"><ele>1382.6666666666665</ele><time>2026-04-16T09:10:03Z</time></trkpt><trkpt lat="44.879092839495215" lon="7.215434709946995"><ele>1385.0</ele><time>2026-04-16T09:10:04Z</time></trkpt><trkpt lat="44.87901855038458" lon="7.2154704041657345"><ele>1387.3333333333333</ele><time>2026-04-16T09:10:05Z</time></trkpt><trkpt lat="44.878933135619505" lon="7.21550923456552"><ele>1389.6666666666667</ele><time>2026-04-16T09:10:06Z</time></trkpt><trkpt lat="44.87885657244099" lon="7.215532041402844"><ele>1392.0</ele><time>2026-04-16T09:10:07Z</time></trkpt><trkpt lat="44.87879790679086" lon="7.215566751407607"><ele>1392.0</ele><time>2026-04-16T09:10:08Z</time></trkpt><trkpt lat="44.87871909600096" lon="7.215553225525833"><ele>1392.0</ele><time>2026-04-16T09:10:10.001Z</time></trkpt><trkpt lat="44.87876804442448" lon="7.215453519549975"><ele>1392.0</ele><time>2026-04-16T09:10:14.001Z</time></trkpt><trkpt lat="44.87883280505382" lon="7.215448482487389"><ele>1392.0</ele><time>2026-04-16T09:10:15.001Z</time></trkpt><trkpt lat="44.87891719479532" lon="7.215425050515177"><ele>1392.0</ele><time>2026-04-16T09:10:16.001Z</time></trkpt><trkpt lat="44.87899752996474" lon="7.215383263155378"><ele>1392.0</ele><time>2026-04-16T09:10:17.001Z</time></trkpt><trkpt lat="44.87908191557904" lon="7.215255134274527"><ele>1392.0</ele><time>2026-04-16T09:10:18.001Z</time></trkpt><trkpt lat="44.879164132068105" lon="7.215165769527971"><ele>1392.0</ele><time>2026-04-16T09:10:19.001Z</time></trkpt><trkpt lat="44.87924758598853" lon="7.215082518994455"><ele>1392.0</ele><time>2026-04-16T09:10:20.001Z</time></trkpt><trkpt lat="44.879325177305844" lon="7.215016947997042"><ele>1392.0</ele><time>2026-04-16T09:10:21.001Z</time></trkpt><trkpt lat="44.8793822946516" lon="7.214945326472448"><ele>1392.0</ele><time>2026-04-16T09:10:22.001Z</time></trkpt><trkpt lat="44.87946980338288" lon="7.214854490278509"><ele>1391.6666666666667</ele><time>2026-04-16T09:10:23Z</time></trkpt><trkpt lat="44.87954539412339" lon="7.214782469037598"><ele>1391.3333333333333</ele><time>2026-04-16T09:10:24Z</time></trkpt><trkpt lat="44.87959431426102" lon="7.214715352135344"><ele>1391.0</ele><time>2026-04-16T09:10:25Z</time></trkpt><trkpt lat="44.879651299605186" lon="7.2146650709174"><ele>1390.6666666666665</ele><time>2026-04-16T09:10:26Z</time></trkpt><trkpt lat="44.879720552531126" lon="7.214551259760184"><ele>1390.3333333333333</ele><time>2026-04-16T09:10:27Z</time></trkpt><trkpt lat="44.87976150492259" lon="7.214480902196417"><ele>1390.0</ele><time>2026-04-16T09:10:28Z</time></trkpt><trkpt lat="44.879803866608555" lon="7.214346439283719"><ele>1390.0</ele><time>2026-04-16T09:10:30Z</time></trkpt><trkpt lat="44.8798133791328" lon="7.214173699379748"><ele>1390.0</ele><time>2026-04-16T09:10:32Z</time></trkpt><trkpt lat="44.87979159376441" lon="7.2140731443471"><ele>1390.0</ele><time>2026-04-16T09:10:33Z</time></trkpt><trkpt lat="44.879761443949604" lon="7.213993043639834"><ele>1390.0</ele><time>2026-04-16T09:10:34Z</time></trkpt><trkpt lat="44.8797460358631" lon="7.2138651005583485"><ele>1390.0</ele><time>2026-04-16T09:10:35Z</time></trkpt><trkpt lat="44.87972167461694" lon="7.213743901470083"><ele>1390.0</ele><time>2026-04-16T09:10:36Z</time></trkpt><trkpt lat="44.87969431532664" lon="7.213624992944358"><ele>1390.1666666666665</ele><time>2026-04-16T09:10:37Z</time></trkpt><trkpt lat="44.879661471331005" lon="7.213502028054772"><ele>1390.3333333333333</ele><time>2026-04-16T09:10:38Z</time></trkpt><trkpt lat="44.87962777340153" lon="7.213416684346789"><ele>1390.5</ele><time>2026-04-16T09:10:39Z</time></trkpt><trkpt lat="44.879605157055" lon="7.213323147846814"><ele>1390.6666666666667</ele><time>2026-04-16T09:10:40Z</time></trkpt><trkpt lat="44.87952908679961" lon="7.213176050861059"><ele>1390.8333333333335</ele><time>2026-04-16T09:10:42Z</time></trkpt><trkpt lat="44.87946303406273" lon="7.213138121480097"><ele>1391.0</ele><time>2026-04-16T09:10:43Z</time></trkpt><trkpt lat="44.879403754486454" lon="7.213094978189173"><ele>1391.0</ele><time>2026-04-16T09:10:44Z</time></trkpt><trkpt lat="44.87936772123208" lon="7.213014886291294"><ele>1391.0</ele><time>2026-04-16T09:10:46Z</time></trkpt><trkpt lat="44.879314702589674" lon="7.2129188960962445"><ele>1391.0</ele><time>2026-04-16T09:10:49Z</time></trkpt><trkpt lat="44.87922389299505" lon="7.212807594841826"><ele>1391.0</ele><time>2026-04-16T09:10:51Z</time></trkpt><trkpt lat="44.879181279134265" lon="7.212723955971435"><ele>1391.0</ele><time>2026-04-16T09:10:52Z</time></trkpt><trkpt lat="44.87910878654087" lon="7.212589084790746"><ele>1392.8333333333335</ele><time>2026-04-16T09:10:54Z</time></trkpt><trkpt lat="44.879057385795974" lon="7.212513103761049"><ele>1394.6666666666667</ele><time>2026-04-16T09:10:55Z</time></trkpt><trkpt lat="44.87900062150855" lon="7.212431591872462"><ele>1396.5</ele><time>2026-04-16T09:10:56Z</time></trkpt><trkpt lat="44.878941743499006" lon="7.212364339009434"><ele>1398.3333333333333</ele><time>2026-04-16T09:10:57Z</time></trkpt><trkpt lat="44.87890323406214" lon="7.212291562124592"><ele>1400.1666666666665</ele><time>2026-04-16T09:10:58Z</time></trkpt><trkpt lat="44.87885923443011" lon="7.212215838970607"><ele>1402.0</ele><time>2026-04-16T09:10:59Z</time></trkpt><trkpt lat="44.87879547864543" lon="7.212114807203658"><ele>1402.0</ele><time>2026-04-16T09:11:00Z</time></trkpt><trkpt lat="44.87872445450309" lon="7.212014184591432"><ele>1402.0</ele><time>2026-04-16T09:11:01Z</time></trkpt><trkpt lat="44.87865811052622" lon="7.211917555555457"><ele>1402.0</ele><time>2026-04-16T09:11:02Z</time></trkpt><trkpt lat="44.87857553505351" lon="7.211816256432759"><ele>1402.0</ele><time>2026-04-16T09:11:03Z</time></trkpt><trkpt lat="44.878485841218044" lon="7.211701994600159"><ele>1402.0</ele><time>2026-04-16T09:11:04Z</time></trkpt><trkpt lat="44.878449030942726" lon="7.211611605490864"><ele>1404.0</ele><time>2026-04-16T09:11:05Z</time></trkpt><trkpt lat="44.87836937958768" lon="7.211517981261557"><ele>1406.0</ele><time>2026-04-16T09:11:06Z</time></trkpt><trkpt lat="44.87827318680476" lon="7.2114070553184675"><ele>1408.0</ele><time>2026-04-16T09:11:07Z</time></trkpt><trkpt lat="44.87820649103729" lon="7.2113144108566125"><ele>1410.0</ele><time>2026-04-16T09:11:08Z</time></trkpt><trkpt lat="44.87815324275716" lon="7.211211850581148"><ele>1412.0</ele><time>2026-04-16T09:11:09Z</time></trkpt><trkpt lat="44.87807210002971" lon="7.211076435079325"><ele>1412.0</ele><time>2026-04-16T09:11:10Z</time></trkpt><trkpt lat="44.87800320549192" lon="7.2109718794321145"><ele>1412.0</ele><time>2026-04-16T09:11:11Z</time></trkpt><trkpt lat="44.87795913019098" lon="7.21090551905045"><ele>1412.0</ele><time>2026-04-16T09:11:12Z</time></trkpt><trkpt lat="44.877895515824214" lon="7.210777881939316"><ele>1412.0</ele><time>2026-04-16T09:11:14Z</time></trkpt><trkpt lat="44.87783236586038" lon="7.210653805812556"><ele>1412.0</ele><time>2026-04-16T09:11:15Z</time></trkpt><trkpt lat="44.87776168549433" lon="7.210529679411693"><ele>1411.6</ele><time>2026-04-16T09:11:16Z</time></trkpt><trkpt lat="44.877716272101615" lon="7.210372972164688"><ele>1411.1999999999998</ele><time>2026-04-16T09:11:17Z</time></trkpt><trkpt lat="44.87767649231833" lon="7.21022982283936"><ele>1410.8</ele><time>2026-04-16T09:11:18Z</time></trkpt><trkpt lat="44.87761319079853" lon="7.2101211688321865"><ele>1410.4</ele><time>2026-04-16T09:11:19Z</time></trkpt><trkpt lat="44.87757088690065" lon="7.210050955406859"><ele>1410.0</ele><time>2026-04-16T09:11:20Z</time></trkpt><trkpt lat="44.87753651721974" lon="7.20995358930222"><ele>1413.5</ele><time>2026-04-16T09:11:24Z</time></trkpt><trkpt lat="44.87751489883743" lon="7.209863798355213"><ele>1417.0</ele><time>2026-04-16T09:11:31Z</time></trkpt><trkpt lat="44.877495499244795" lon="7.209771169437024"><ele>1420.5</ele><time>2026-04-16T09:11:34Z</time></trkpt><trkpt lat="44.877481301002014" lon="7.209660371921948"><ele>1424.0</ele><time>2026-04-16T09:11:36Z</time></trkpt><trkpt lat="44.877441592910145" lon="7.209550322205011"><ele>1427.5</ele><time>2026-04-16T09:11:38Z</time></trkpt><trkpt lat="44.877433615110185" lon="7.2093874948214465"><ele>1431.0</ele><time>2026-04-16T09:11:40Z</time></trkpt><trkpt lat="44.87742098124316" lon="7.209280608906518"><ele>1431.0</ele><time>2026-04-16T09:11:41Z</time></trkpt><trkpt lat="44.877408955771585" lon="7.209184624986535"><ele>1431.0</ele><time>2026-04-16T09:11:42Z</time></trkpt><trkpt lat="44.87738619392877" lon="7.2090794185615055"><ele>1431.0</ele><time>2026-04-16T09:11:43Z</time></trkpt><trkpt lat="44.87737219164983" lon="7.2089588636655355"><ele>1431.0</ele><time>2026-04-16T09:11:44Z</time></trkpt><trkpt lat="44.87737285515659" lon="7.208813715046139"><ele>1431.0</ele><time>2026-04-16T09:11:45Z</time></trkpt><trkpt lat="44.8773470149122" lon="7.208706753658574"><ele>1431.0</ele><time>2026-04-16T09:11:46Z</time></trkpt><trkpt lat="44.87732903965444" lon="7.20857727571942"><ele>1431.0</ele><time>2026-04-16T09:11:48Z</time></trkpt><trkpt lat="44.87727909437742" lon="7.208428086764974"><ele>1431.0</ele><time>2026-04-16T09:11:50Z</time></trkpt><trkpt lat="44.877236214161705" lon="7.208317101315058"><ele>1431.0</ele><time>2026-04-16T09:11:52Z</time></trkpt><trkpt lat="44.87723406341165" lon="7.2082277384166815"><ele>1431.0</ele><time>2026-04-16T09:11:53Z</time></trkpt><trkpt lat="44.87721194092507" lon="7.208073288221189"><ele>1431.0</ele><time>2026-04-16T09:11:55Z</time></trkpt><trkpt lat="44.87718851716136" lon="7.207976276308461"><ele>1431.0</ele><time>2026-04-16T09:11:56Z</time></trkpt><trkpt lat="44.877175307263734" lon="7.20788429795086"><ele>1431.0</ele><time>2026-04-16T09:11:57Z</time></trkpt><trkpt lat="44.87713527956951" lon="7.207741798780108"><ele>1431.0</ele><time>2026-04-16T09:11:58Z</time></trkpt><trkpt lat="44.8771034427161" lon="7.207602511541912"><ele>1431.0</ele><time>2026-04-16T09:11:59Z</time></trkpt><trkpt lat="44.87707292277514" lon="7.207524342269197"><ele>1431.0</ele><time>2026-04-16T09:12:00Z</time></trkpt><trkpt lat="44.87702098078426" lon="7.2072982188519905"><ele>1430.8333333333333</ele><time>2026-04-16T09:12:02Z</time></trkpt><trkpt lat="44.87703388217945" lon="7.207178541647873"><ele>1430.6666666666667</ele><time>2026-04-16T09:12:03Z</time></trkpt><trkpt lat="44.87703095721743" lon="7.207075299589528"><ele>1430.5</ele><time>2026-04-16T09:12:04Z</time></trkpt><trkpt lat="44.877024478353995" lon="7.206979402665388"><ele>1430.3333333333335</ele><time>2026-04-16T09:12:05Z</time></trkpt><trkpt lat="44.87699894337721" lon="7.206853069683541"><ele>1430.1666666666667</ele><time>2026-04-16T09:12:07Z</time></trkpt><trkpt lat="44.876937781362045" lon="7.206784027227288"><ele>1430.0</ele><time>2026-04-16T09:12:09Z</time></trkpt><trkpt lat="44.87684987323348" lon="7.206720187654183"><ele>1430.0</ele><time>2026-04-16T09:12:11Z</time></trkpt><trkpt lat="44.87681468831485" lon="7.206618173048793"><ele>1430.0</ele><time>2026-04-16T09:12:13Z</time></trkpt><trkpt lat="44.87676499187827" lon="7.206497415330989"><ele>1430.0</ele><time>2026-04-16T09:12:15.001Z</time></trkpt><trkpt lat="44.876705878438464" lon="7.206424728893543"><ele>1430.0</ele><time>2026-04-16T09:12:17.001Z</time></trkpt><trkpt lat="44.87669662264206" lon="7.206329522391513"><ele>1430.0</ele><time>2026-04-16T09:12:20.001Z</time></trkpt><trkpt lat="44.876661805905094" lon="7.20622897080285"><ele>1430.0</ele><time>2026-04-16T09:12:22Z</time></trkpt><trkpt lat="44.87661864414804" lon="7.206086317238641"><ele>1432.1666666666667</ele><time>2026-04-16T09:12:24Z</time></trkpt><trkpt lat="44.87657556153526" lon="7.205967522299194"><ele>1434.3333333333335</ele><time>2026-04-16T09:12:26Z</time></trkpt><trkpt lat="44.87654296404899" lon="7.205852222676098"><ele>1436.5</ele><time>2026-04-16T09:12:29Z</time></trkpt><trkpt lat="44.876511049232974" lon="7.205754032678768"><ele>1438.6666666666667</ele><time>2026-04-16T09:12:31Z</time></trkpt><trkpt lat="44.87648303552537" lon="7.205674321605892"><ele>1440.8333333333333</ele><time>2026-04-16T09:12:33Z</time></trkpt><trkpt lat="44.87643424553692" lon="7.205593785704187"><ele>1443.0</ele><time>2026-04-16T09:12:35Z</time></trkpt><trkpt lat="44.87639478174174" lon="7.20547054163674"><ele>1443.0</ele><time>2026-04-16T09:12:37Z</time></trkpt><trkpt lat="44.87634807318432" lon="7.205385557350181"><ele>1443.0</ele><time>2026-04-16T09:12:39Z</time></trkpt><trkpt lat="44.876326022517574" lon="7.205274079437988"><ele>1443.0</ele><time>2026-04-16T09:12:41Z</time></trkpt><trkpt lat="44.876287902450635" lon="7.205120840135248"><ele>1443.0</ele><time>2026-04-16T09:12:43Z</time></trkpt><trkpt lat="44.876258971939144" lon="7.205001233576853"><ele>1443.0</ele><time>2026-04-16T09:12:45Z</time></trkpt><trkpt lat="44.87623417090725" lon="7.204906032706057"><ele>1443.0</ele><time>2026-04-16T09:12:47Z</time></trkpt><trkpt lat="44.87621028195682" lon="7.204811246501178"><ele>1442.6666666666667</ele><time>2026-04-16T09:12:50Z</time></trkpt><trkpt lat="44.87617966513829" lon="7.20472274220033"><ele>1442.3333333333333</ele><time>2026-04-16T09:12:53Z</time></trkpt><trkpt lat="44.876124983502145" lon="7.204599677568665"><ele>1442.0</ele><time>2026-04-16T09:12:55Z</time></trkpt><trkpt lat="44.876093950661655" lon="7.204499239964165"><ele>1441.6666666666665</ele><time>2026-04-16T09:12:57Z</time></trkpt><trkpt lat="44.87605398416111" lon="7.204402493884492"><ele>1441.3333333333333</ele><time>2026-04-16T09:13:16Z</time></trkpt><trkpt lat="44.87608054636" lon="7.204490184606059"><ele>1441.0</ele><time>2026-04-16T09:17:31Z</time></trkpt><trkpt lat="44.87607622866321" lon="7.204391094882056"><ele>1441.0</ele><time>2026-04-16T09:18:51.999Z</time></trkpt><trkpt lat="44.87603274181153" lon="7.204307448421823"><ele>1441.0</ele><time>2026-04-16T09:19:34Z</time></trkpt><trkpt lat="44.87598576721789" lon="7.20420582453321"><ele>1441.0</ele><time>2026-04-16T09:19:46Z</time></trkpt><trkpt lat="44.87597629508064" lon="7.2040775655272276"><ele>1441.0</ele><time>2026-04-16T09:19:48Z</time></trkpt><trkpt lat="44.8759554229909" lon="7.203991170619031"><ele>1441.0</ele><time>2026-04-16T09:19:49Z</time></trkpt><trkpt lat="44.87593280433779" lon="7.203896964029878"><ele>1441.0</ele><time>2026-04-16T09:20:27Z</time></trkpt><trkpt lat="44.8759042083215" lon="7.203783612826455"><ele>1444.5</ele><time>2026-04-16T09:21:12.999Z</time></trkpt><trkpt lat="44.87587239391304" lon="7.203678032806425"><ele>1448.0</ele><time>2026-04-16T09:21:13.999Z</time></trkpt><trkpt lat="44.875841130795486" lon="7.203579635767006"><ele>1451.5</ele><time>2026-04-16T09:21:15Z</time></trkpt><trkpt lat="44.87579935805459" lon="7.203483790078778"><ele>1455.0</ele><time>2026-04-16T09:21:16Z</time></trkpt><trkpt lat="44.87577206590352" lon="7.203401815391632"><ele>1458.5</ele><time>2026-04-16T09:21:17Z</time></trkpt><trkpt lat="44.87572422272192" lon="7.203257546742042"><ele>1462.0</ele><time>2026-04-16T09:21:19Z</time></trkpt><trkpt lat="44.875703994706974" lon="7.2031373238598295"><ele>1462.0</ele><time>2026-04-16T09:21:21Z</time></trkpt><trkpt lat="44.875674028918816" lon="7.203026436593475"><ele>1462.0</ele><time>2026-04-16T09:21:23Z</time></trkpt><trkpt lat="44.875720605725114" lon="7.203132787167674"><ele>1462.0</ele><time>2026-04-16T09:21:30Z</time></trkpt><trkpt lat="44.875744784540494" lon="7.203219588738747"><ele>1462.0</ele><time>2026-04-16T09:21:31Z</time></trkpt><trkpt lat="44.87580463777652" lon="7.203363330838383"><ele>1462.0</ele><time>2026-04-16T09:21:33Z</time></trkpt><trkpt lat="44.87582634162829" lon="7.203503713112803"><ele>1462.0</ele><time>2026-04-16T09:21:35Z</time></trkpt><trkpt lat="44.87575436870209" lon="7.203577808692043"><ele>1462.0</ele><time>2026-04-16T09:43:03Z</time></trkpt><trkpt lat="44.875702693113595" lon="7.203526786846868"><ele>1462.0</ele><time>2026-04-16T09:43:05Z</time></trkpt><trkpt lat="44.87570788976463" lon="7.203418762090239"><ele>1462.0</ele><time>2026-04-16T09:43:08Z</time></trkpt><trkpt lat="44.87570903561196" lon="7.203328759272043"><ele>1462.0</ele><time>2026-04-16T09:43:11Z</time></trkpt><trkpt lat="44.8757166218888" lon="7.203232050262803"><ele>1462.0</ele><time>2026-04-16T09:43:14Z</time></trkpt><trkpt lat="44.87569355415227" lon="7.203125015849663"><ele>1462.0</ele><time>2026-04-16T09:43:36Z</time></trkpt><trkpt lat="44.87565349851939" lon="7.203030501708092"><ele>1462.3333333333333</ele><time>2026-04-16T09:43:40Z</time></trkpt><trkpt lat="44.875633663338036" lon="7.202942228507686"><ele>1462.6666666666665</ele><time>2026-04-16T09:43:43Z</time></trkpt><trkpt lat="44.875632886472985" lon="7.202836766283978"><ele>1463.0</ele><time>2026-04-16T09:43:47Z</time></trkpt><trkpt lat="44.87562522838107" lon="7.202739077398847"><ele>1463.3333333333333</ele><time>2026-04-16T09:43:51Z</time></trkpt><trkpt lat="44.87564183992964" lon="7.202645500451289"><ele>1463.6666666666667</ele><time>2026-04-16T09:43:54Z</time></trkpt><trkpt lat="44.87565881825838" lon="7.202523081316322"><ele>1464.0</ele><time>2026-04-16T09:43:57Z</time></trkpt><trkpt lat="44.87567774593918" lon="7.202402461958786"><ele>1464.0</ele><time>2026-04-16T09:44:00Z</time></trkpt><trkpt lat="44.87568923981535" lon="7.202269668437633"><ele>1464.0</ele><time>2026-04-16T09:44:02Z</time></trkpt><trkpt lat="44.875699450984634" lon="7.202119424245152"><ele>1464.0</ele><time>2026-04-16T09:44:04Z</time></trkpt><trkpt lat="44.875699099056675" lon="7.201986636322578"><ele>1464.0</ele><time>2026-04-16T09:44:06Z</time></trkpt><trkpt lat="44.87569059018445" lon="7.20185184729339"><ele>1464.0</ele><time>2026-04-16T09:44:08Z</time></trkpt><trkpt lat="44.87568051223904" lon="7.2017150359208255"><ele>1464.0</ele><time>2026-04-16T09:44:10Z</time></trkpt><trkpt lat="44.875659894103016" lon="7.201593695166306"><ele>1464.0</ele><time>2026-04-16T09:44:12Z</time></trkpt><trkpt lat="44.87563837190242" lon="7.2014707858112"><ele>1464.0</ele><time>2026-04-16T09:44:14Z</time></trkpt><trkpt lat="44.87561450961214" lon="7.201336783008398"><ele>1464.0</ele><time>2026-04-16T09:44:16Z</time></trkpt><trkpt lat="44.87560133644842" lon="7.2012458047564"><ele>1464.0</ele><time>2026-04-16T09:44:17Z</time></trkpt><trkpt lat="44.875607558613034" lon="7.201133852831419"><ele>1464.0</ele><time>2026-04-16T09:44:18Z</time></trkpt><trkpt lat="44.875592790006436" lon="7.2010283858889546"><ele>1464.6</ele><time>2026-04-16T09:44:19Z</time></trkpt><trkpt lat="44.87557541991444" lon="7.200909524398984"><ele>1465.2</ele><time>2026-04-16T09:44:20Z</time></trkpt><trkpt lat="44.87555733096299" lon="7.200785621906911"><ele>1465.8</ele><time>2026-04-16T09:44:21Z</time></trkpt><trkpt lat="44.87552611705592" lon="7.200650855453268"><ele>1466.3999999999999</ele><time>2026-04-16T09:44:22Z</time></trkpt><trkpt lat="44.87551330787429" lon="7.200508523037389"><ele>1467.0</ele><time>2026-04-16T09:44:23Z</time></trkpt><trkpt lat="44.87549861244732" lon="7.200373286285514"><ele>1467.0</ele><time>2026-04-16T09:44:24Z</time></trkpt><trkpt lat="44.875480130291564" lon="7.200252311132561"><ele>1467.0</ele><time>2026-04-16T09:44:25Z</time></trkpt><trkpt lat="44.875463515242" lon="7.200140496017091"><ele>1467.0</ele><time>2026-04-16T09:44:26Z</time></trkpt><trkpt lat="44.87545106135607" lon="7.200029007164267"><ele>1467.0</ele><time>2026-04-16T09:44:27Z</time></trkpt><trkpt lat="44.87543888676229" lon="7.199928937546758"><ele>1467.0</ele><time>2026-04-16T09:44:28Z</time></trkpt><trkpt lat="44.87542497492026" lon="7.199817621412246"><ele>1467.0</ele><time>2026-04-16T09:44:29Z</time></trkpt><trkpt lat="44.8754146210834" lon="7.199708548769367"><ele>1467.3333333333333</ele><time>2026-04-16T09:44:30Z</time></trkpt><trkpt lat="44.87540623504237" lon="7.1996045818510295"><ele>1467.6666666666667</ele><time>2026-04-16T09:44:31Z</time></trkpt><trkpt lat="44.87539784349406" lon="7.199492030151201"><ele>1468.0</ele><time>2026-04-16T09:44:32Z</time></trkpt><trkpt lat="44.87538306760491" lon="7.199391567461507"><ele>1468.3333333333335</ele><time>2026-04-16T09:44:33Z</time></trkpt><trkpt lat="44.87537163325413" lon="7.199283273410324"><ele>1468.6666666666667</ele><time>2026-04-16T09:44:34Z</time></trkpt><trkpt lat="44.8753631086985" lon="7.199161780589316"><ele>1469.0</ele><time>2026-04-16T09:44:35Z</time></trkpt><trkpt lat="44.87535562525157" lon="7.199052451890601"><ele>1469.0</ele><time>2026-04-16T09:44:36Z</time></trkpt><trkpt lat="44.875353589962394" lon="7.198944268003301"><ele>1469.0</ele><time>2026-04-16T09:44:37Z</time></trkpt><trkpt lat="44.87535575825313" lon="7.198834296538048"><ele>1469.0</ele><time>2026-04-16T09:44:38Z</time></trkpt><trkpt lat="44.875365956623" lon="7.198716264415466"><ele>1469.0</ele><time>2026-04-16T09:44:39Z</time></trkpt><trkpt lat="44.87537913058945" lon="7.198600733459015"><ele>1469.0</ele><time>2026-04-16T09:44:40Z</time></trkpt><trkpt lat="44.87538887450192" lon="7.1984861225299115"><ele>1469.0</ele><time>2026-04-16T09:44:41Z</time></trkpt><trkpt lat="44.87539316351998" lon="7.198356944070288"><ele>1469.0</ele><time>2026-04-16T09:44:42Z</time></trkpt><trkpt lat="44.87538839227608" lon="7.198222092851545"><ele>1469.0</ele><time>2026-04-16T09:44:43Z</time></trkpt><trkpt lat="44.87538053411779" lon="7.19808203716188"><ele>1469.0</ele><time>2026-04-16T09:44:44Z</time></trkpt><trkpt lat="44.87536815864915" lon="7.197941077758988"><ele>1469.0</ele><time>2026-04-16T09:44:45Z</time></trkpt><trkpt lat="44.87534953056311" lon="7.19778718917906"><ele>1469.0</ele><time>2026-04-16T09:44:46Z</time></trkpt><trkpt lat="44.87533398127986" lon="7.197631882967484"><ele>1469.0</ele><time>2026-04-16T09:44:47Z</time></trkpt><trkpt lat="44.8753220299833" lon="7.197479654527829"><ele>1469.0</ele><time>2026-04-16T09:44:48Z</time></trkpt><trkpt lat="44.875317155982685" lon="7.1973293110292325"><ele>1469.0</ele><time>2026-04-16T09:44:49Z</time></trkpt><trkpt lat="44.87531530180989" lon="7.197171283344565"><ele>1469.0</ele><time>2026-04-16T09:44:50Z</time></trkpt><trkpt lat="44.87532565256572" lon="7.197006533866301"><ele>1469.0</ele><time>2026-04-16T09:44:51Z</time></trkpt><trkpt lat="44.87528502549709" lon="7.196859056791365"><ele>1472.2</ele><time>2026-04-16T09:44:52Z</time></trkpt><trkpt lat="44.87525000448805" lon="7.196704815216243"><ele>1475.4</ele><time>2026-04-16T09:44:53Z</time></trkpt><trkpt lat="44.87521435230446" lon="7.196560491500242"><ele>1478.6</ele><time>2026-04-16T09:44:54Z</time></trkpt><trkpt lat="44.87516157497692" lon="7.196417302341783"><ele>1481.8</ele><time>2026-04-16T09:44:55Z</time></trkpt><trkpt lat="44.8751092547394" lon="7.196278677067723"><ele>1485.0</ele><time>2026-04-16T09:44:56Z</time></trkpt><trkpt lat="44.875066058838385" lon="7.196148702358757"><ele>1480.8</ele><time>2026-04-16T09:44:57Z</time></trkpt><trkpt lat="44.875028389144695" lon="7.196021780148046"><ele>1476.6</ele><time>2026-04-16T09:44:58Z</time></trkpt><trkpt lat="44.874994132334976" lon="7.195901197427707"><ele>1472.4</ele><time>2026-04-16T09:44:59Z</time></trkpt><trkpt lat="44.8749681917372" lon="7.195776549488315"><ele>1468.2</ele><time>2026-04-16T09:45:00Z</time></trkpt><trkpt lat="44.87494961387277" lon="7.195678376460323"><ele>1464.0</ele><time>2026-04-16T09:45:01Z</time></trkpt><trkpt lat="44.87491376108706" lon="7.195524357140381"><ele>1464.0</ele><time>2026-04-16T09:45:03Z</time></trkpt><trkpt lat="44.874837422626634" lon="7.195473241633316"><ele>1464.0</ele><time>2026-04-16T09:45:05Z</time></trkpt><trkpt lat="44.8747424368066" lon="7.1955518697403065"><ele>1464.0</ele><time>2026-04-16T09:45:07Z</time></trkpt><trkpt lat="44.874784977363234" lon="7.195679314539278"><ele>1464.0</ele><time>2026-04-16T09:45:08Z</time></trkpt><trkpt lat="44.8747824559672" lon="7.195769816461715"><ele>1464.0</ele><time>2026-04-16T09:45:09Z</time></trkpt><trkpt lat="44.87478743867587" lon="7.195883534946274"><ele>1464.0</ele><time>2026-04-16T09:45:10Z</time></trkpt><trkpt lat="44.87479270356426" lon="7.196014702733112"><ele>1461.0</ele><time>2026-04-16T09:45:11Z</time></trkpt><trkpt lat="44.87479524130251" lon="7.19614470663794"><ele>1458.0</ele><time>2026-04-16T09:45:12Z</time></trkpt><trkpt lat="44.87479676866843" lon="7.196301570857308"><ele>1455.0</ele><time>2026-04-16T09:45:13Z</time></trkpt><trkpt lat="44.87480497191887" lon="7.19646635550297"><ele>1452.0</ele><time>2026-04-16T09:45:14Z</time></trkpt><trkpt lat="44.87480907982947" lon="7.196626668067242"><ele>1449.0</ele><time>2026-04-16T09:45:15Z</time></trkpt><trkpt lat="44.87481169798602" lon="7.196787604543374"><ele>1448.3333333333333</ele><time>2026-04-16T09:45:16Z</time></trkpt><trkpt lat="44.87481309705444" lon="7.19691862611891"><ele>1447.6666666666667</ele><time>2026-04-16T09:45:17Z</time></trkpt><trkpt lat="44.874775868293476" lon="7.197029667050465"><ele>1447.0</ele><time>2026-04-16T09:45:18Z</time></trkpt><trkpt lat="44.87473737841018" lon="7.1971392830035175"><ele>1446.3333333333335</ele><time>2026-04-16T09:45:19Z</time></trkpt><trkpt lat="44.87471174243257" lon="7.197264798994235"><ele>1445.6666666666667</ele><time>2026-04-16T09:45:20Z</time></trkpt><trkpt lat="44.8746822910637" lon="7.197381522786532"><ele>1445.0</ele><time>2026-04-16T09:45:21Z</time></trkpt><trkpt lat="44.87466726471967" lon="7.197484198370793"><ele>1442.8</ele><time>2026-04-16T09:45:22Z</time></trkpt><trkpt lat="44.87465524251149" lon="7.197608357572421"><ele>1440.6</ele><time>2026-04-16T09:45:23Z</time></trkpt><trkpt lat="44.87468402652315" lon="7.197761044450748"><ele>1438.4</ele><time>2026-04-16T09:45:24Z</time></trkpt><trkpt lat="44.87472727646479" lon="7.197874172823993"><ele>1436.2</ele><time>2026-04-16T09:45:25Z</time></trkpt><trkpt lat="44.87474532396817" lon="7.1979682118054535"><ele>1434.0</ele><time>2026-04-16T09:45:26Z</time></trkpt><trkpt lat="44.87472068677013" lon="7.198106961046771"><ele>1433.2</ele><time>2026-04-16T09:45:27Z</time></trkpt><trkpt lat="44.87469265093146" lon="7.198275641669554"><ele>1432.4</ele><time>2026-04-16T09:45:28Z</time></trkpt><trkpt lat="44.87468403627799" lon="7.198368363080275"><ele>1431.6</ele><time>2026-04-16T09:45:29Z</time></trkpt><trkpt lat="44.87467052212699" lon="7.198505295632472"><ele>1430.8</ele><time>2026-04-16T09:45:30Z</time></trkpt><trkpt lat="44.874666440532046" lon="7.198638330495548"><ele>1430.0</ele><time>2026-04-16T09:45:31Z</time></trkpt><trkpt lat="44.874661717905354" lon="7.1987668798773585"><ele>1430.0</ele><time>2026-04-16T09:45:32Z</time></trkpt><trkpt lat="44.87463567248493" lon="7.198902884969321"><ele>1430.0</ele><time>2026-04-16T09:45:33Z</time></trkpt><trkpt lat="44.874643456985154" lon="7.199057553396857"><ele>1430.0</ele><time>2026-04-16T09:45:34Z</time></trkpt><trkpt lat="44.87464090186365" lon="7.1991997419613165"><ele>1430.0</ele><time>2026-04-16T09:45:35Z</time></trkpt><trkpt lat="44.87464060612939" lon="7.1993379185779105"><ele>1430.0</ele><time>2026-04-16T09:45:36Z</time></trkpt><trkpt lat="44.87462369787724" lon="7.199475555544671"><ele>1430.2</ele><time>2026-04-16T09:45:37Z</time></trkpt><trkpt lat="44.8745913318357" lon="7.199602686889306"><ele>1430.4</ele><time>2026-04-16T09:45:38Z</time></trkpt><trkpt lat="44.874561805547664" lon="7.199725737928027"><ele>1430.6</ele><time>2026-04-16T09:45:39Z</time></trkpt><trkpt lat="44.874535453063075" lon="7.199847349161414"><ele>1430.8</ele><time>2026-04-16T09:45:40Z</time></trkpt><trkpt lat="44.87451008367298" lon="7.199974664821771"><ele>1431.0</ele><time>2026-04-16T09:45:41Z</time></trkpt><trkpt lat="44.874485884596126" lon="7.200103396764822"><ele>1431.6</ele><time>2026-04-16T09:45:42Z</time></trkpt><trkpt lat="44.87446644445172" lon="7.200243141266181"><ele>1432.1999999999998</ele><time>2026-04-16T09:45:43Z</time></trkpt><trkpt lat="44.87445554609167" lon="7.200385161925193"><ele>1432.8000000000002</ele><time>2026-04-16T09:45:44Z</time></trkpt><trkpt lat="44.87443814868799" lon="7.200533201887067"><ele>1433.4</ele><time>2026-04-16T09:45:45Z</time></trkpt><trkpt lat="44.874407363848995" lon="7.2006531582243385"><ele>1434.0</ele><time>2026-04-16T09:45:46Z</time></trkpt><trkpt lat="44.87439135184775" lon="7.200798672892888"><ele>1434.4</ele><time>2026-04-16T09:45:47Z</time></trkpt><trkpt lat="44.87435113115555" lon="7.200941810244655"><ele>1434.8000000000002</ele><time>2026-04-16T09:45:48Z</time></trkpt><trkpt lat="44.87431314256271" lon="7.201070345177483"><ele>1435.1999999999998</ele><time>2026-04-16T09:45:49Z</time></trkpt><trkpt lat="44.87427338878777" lon="7.201207964893632"><ele>1435.6</ele><time>2026-04-16T09:45:50Z</time></trkpt><trkpt lat="44.874241410113456" lon="7.201343894151466"><ele>1436.0</ele><time>2026-04-16T09:45:50.999Z</time></trkpt><trkpt lat="44.874207112097686" lon="7.201482689994429"><ele>1428.6</ele><time>2026-04-16T09:45:51.999Z</time></trkpt><trkpt lat="44.87418454810484" lon="7.201624506010552"><ele>1421.1999999999998</ele><time>2026-04-16T09:45:52.999Z</time></trkpt><trkpt lat="44.87416112844263" lon="7.20176903724818"><ele>1413.8000000000002</ele><time>2026-04-16T09:45:53.999Z</time></trkpt><trkpt lat="44.87413430282451" lon="7.20191485455397"><ele>1406.4</ele><time>2026-04-16T09:45:54.999Z</time></trkpt><trkpt lat="44.87411340677301" lon="7.202053714169827"><ele>1399.0</ele><time>2026-04-16T09:45:55.999Z</time></trkpt><trkpt lat="44.874062139747274" lon="7.202180328695419"><ele>1399.0</ele><time>2026-04-16T09:45:56.999Z</time></trkpt><trkpt lat="44.87402102774664" lon="7.2022956302380665"><ele>1399.0</ele><time>2026-04-16T09:45:57.999Z</time></trkpt><trkpt lat="44.873971907401646" lon="7.202428552257447"><ele>1399.0</ele><time>2026-04-16T09:45:58.999Z</time></trkpt><trkpt lat="44.87393383046192" lon="7.202561724799591"><ele>1399.0</ele><time>2026-04-16T09:45:59.999Z</time></trkpt><trkpt lat="44.873897151701605" lon="7.202698646718291"><ele>1399.0</ele><time>2026-04-16T09:46:00.999Z</time></trkpt><trkpt lat="44.87386069815343" lon="7.202832783102374"><ele>1399.4</ele><time>2026-04-16T09:46:01.999Z</time></trkpt><trkpt lat="44.87381536925467" lon="7.202971103776184"><ele>1399.8000000000002</ele><time>2026-04-16T09:46:02.999Z</time></trkpt><trkpt lat="44.8737746588494" lon="7.203093000352575"><ele>1400.1999999999998</ele><time>2026-04-16T09:46:03.999Z</time></trkpt><trkpt lat="44.87373768842201" lon="7.203220686192777"><ele>1400.6</ele><time>2026-04-16T09:46:04.999Z</time></trkpt><trkpt lat="44.87371559237474" lon="7.203357405085889"><ele>1401.0</ele><time>2026-04-16T09:46:05.999Z</time></trkpt><trkpt lat="44.87371312042533" lon="7.2035073754067"><ele>1402.8</ele><time>2026-04-16T09:46:06.999Z</time></trkpt><trkpt lat="44.873706251179" lon="7.203638667475493"><ele>1404.6</ele><time>2026-04-16T09:46:07.999Z</time></trkpt><trkpt lat="44.873676325317895" lon="7.203764506837958"><ele>1406.4</ele><time>2026-04-16T09:46:08.999Z</time></trkpt><trkpt lat="44.87362673172294" lon="7.203887836868803"><ele>1408.2</ele><time>2026-04-16T09:46:09.999Z</time></trkpt><trkpt lat="44.87359227494854" lon="7.204014783916443"><ele>1410.0</ele><time>2026-04-16T09:46:10.999Z</time></trkpt><trkpt lat="44.873567541038724" lon="7.2041555649756805"><ele>1410.0</ele><time>2026-04-16T09:46:11.999Z</time></trkpt><trkpt lat="44.873552822687316" lon="7.204322510823425"><ele>1410.0</ele><time>2026-04-16T09:46:12.999Z</time></trkpt><trkpt lat="44.87354318309162" lon="7.204468532738654"><ele>1410.0</ele><time>2026-04-16T09:46:13.999Z</time></trkpt><trkpt lat="44.87353198804875" lon="7.20461483714447"><ele>1410.0</ele><time>2026-04-16T09:46:14.999Z</time></trkpt><trkpt lat="44.873519591188995" lon="7.2047535565663585"><ele>1410.0</ele><time>2026-04-16T09:46:15.999Z</time></trkpt><trkpt lat="44.873498206735796" lon="7.204893557755693"><ele>1410.4</ele><time>2026-04-16T09:46:16.999Z</time></trkpt><trkpt lat="44.873470798452495" lon="7.205018047693597"><ele>1410.8</ele><time>2026-04-16T09:46:17.999Z</time></trkpt><trkpt lat="44.873444142817554" lon="7.205134032483048"><ele>1411.1999999999998</ele><time>2026-04-16T09:46:18.999Z</time></trkpt><trkpt lat="44.8734228929942" lon="7.205252136539502"><ele>1411.6</ele><time>2026-04-16T09:46:19.999Z</time></trkpt><trkpt lat="44.873409644181336" lon="7.205373310346223"><ele>1412.0</ele><time>2026-04-16T09:46:20.999Z</time></trkpt><trkpt lat="44.87334322574071" lon="7.20550987687139"><ele>1407.8333333333335</ele><time>2026-04-16T09:46:22.999Z</time></trkpt><trkpt lat="44.87327308675993" lon="7.205537054167121"><ele>1403.6666666666667</ele><time>2026-04-16T09:46:23.999Z</time></trkpt><trkpt lat="44.87320416685426" lon="7.205605818366231"><ele>1399.5</ele><time>2026-04-16T09:46:25Z</time></trkpt><trkpt lat="44.87313236770516" lon="7.205679350043338"><ele>1395.3333333333333</ele><time>2026-04-16T09:46:26Z</time></trkpt><trkpt lat="44.87306599200271" lon="7.205763908451247"><ele>1391.1666666666665</ele><time>2026-04-16T09:46:27Z</time></trkpt><trkpt lat="44.873009530215384" lon="7.205856947897853"><ele>1387.0</ele><time>2026-04-16T09:46:28Z</time></trkpt><trkpt lat="44.8729644982896" lon="7.205946746689895"><ele>1387.0</ele><time>2026-04-16T09:46:29Z</time></trkpt><trkpt lat="44.87290106349698" lon="7.206059532570446"><ele>1387.0</ele><time>2026-04-16T09:46:31Z</time></trkpt><trkpt lat="44.87286406884013" lon="7.205954269020472"><ele>1387.0</ele><time>2026-04-16T09:46:34Z</time></trkpt><trkpt lat="44.872925755342145" lon="7.205862507280666"><ele>1387.0</ele><time>2026-04-16T09:46:36Z</time></trkpt><trkpt lat="44.87297441711234" lon="7.205778744563956"><ele>1387.0</ele><time>2026-04-16T09:46:37Z</time></trkpt><trkpt lat="44.87302668911371" lon="7.205687217396376"><ele>1387.0</ele><time>2026-04-16T09:46:38Z</time></trkpt><trkpt lat="44.8730907640234" lon="7.205565875134032"><ele>1384.0</ele><time>2026-04-16T09:46:39Z</time></trkpt><trkpt lat="44.873160498086136" lon="7.20543571621123"><ele>1381.0</ele><time>2026-04-16T09:46:40Z</time></trkpt><trkpt lat="44.87321845847495" lon="7.205336438743695"><ele>1378.0</ele><time>2026-04-16T09:46:41Z</time></trkpt><trkpt lat="44.87324253682817" lon="7.2052334270806675"><ele>1375.0</ele><time>2026-04-16T09:46:42Z</time></trkpt><trkpt lat="44.87326656646721" lon="7.2051394667081405"><ele>1372.0</ele><time>2026-04-16T09:46:43Z</time></trkpt><trkpt lat="44.87322479603661" lon="7.2050243384245"><ele>1369.0</ele><time>2026-04-16T09:46:44Z</time></trkpt><trkpt lat="44.87321631698695" lon="7.204900856493809"><ele>1369.0</ele><time>2026-04-16T09:46:45Z</time></trkpt><trkpt lat="44.873232100767105" lon="7.2048122725925206"><ele>1369.0</ele><time>2026-04-16T09:46:46Z</time></trkpt><trkpt lat="44.87322090782195" lon="7.204691627741308"><ele>1369.0</ele><time>2026-04-16T09:46:48Z</time></trkpt><trkpt lat="44.873150733573226" lon="7.204669414524611"><ele>1369.0</ele><time>2026-04-16T09:46:49Z</time></trkpt><trkpt lat="44.873095445271616" lon="7.204754109341885"><ele>1369.0</ele><time>2026-04-16T09:46:50Z</time></trkpt><trkpt lat="44.87309972869925" lon="7.204860227410267"><ele>1369.0</ele><time>2026-04-16T09:46:51Z</time></trkpt><trkpt lat="44.87309665555783" lon="7.204962906128737"><ele>1369.0</ele><time>2026-04-16T09:46:52Z</time></trkpt><trkpt lat="44.87308921613003" lon="7.205077204640791"><ele>1369.0</ele><time>2026-04-16T09:46:53Z</time></trkpt><trkpt lat="44.87306893500808" lon="7.205186998815316"><ele>1369.0</ele><time>2026-04-16T09:46:54Z</time></trkpt><trkpt lat="44.873036742369514" lon="7.205268215870086"><ele>1369.0</ele><time>2026-04-16T09:46:55Z</time></trkpt><trkpt lat="44.87291631560679" lon="7.205317927950145"><ele>1369.0</ele><time>2026-04-16T09:46:57Z</time></trkpt><trkpt lat="44.87278972617252" lon="7.205385192661414"><ele>1369.0</ele><time>2026-04-16T09:46:59Z</time></trkpt><trkpt lat="44.872686672808136" lon="7.205474164586717"><ele>1369.0</ele><time>2026-04-16T09:47:01Z</time></trkpt><trkpt lat="44.8726261175175" lon="7.205542846386034"><ele>1369.0</ele><time>2026-04-16T09:47:02Z</time></trkpt><trkpt lat="44.87257377361562" lon="7.205636589425976"><ele>1369.0</ele><time>2026-04-16T09:47:03Z</time></trkpt><trkpt lat="44.872528724842276" lon="7.205742604512501"><ele>1369.0</ele><time>2026-04-16T09:47:04Z</time></trkpt><trkpt lat="44.872495516157805" lon="7.20584134335643"><ele>1369.0</ele><time>2026-04-16T09:47:05Z</time></trkpt><trkpt lat="44.87245777757534" lon="7.205951771265948"><ele>1365.6666666666665</ele><time>2026-04-16T09:47:06Z</time></trkpt><trkpt lat="44.8724306577975" lon="7.206038309817086"><ele>1362.3333333333333</ele><time>2026-04-16T09:47:07Z</time></trkpt><trkpt lat="44.872405231189425" lon="7.20612559043152"><ele>1359.0</ele><time>2026-04-16T09:47:08Z</time></trkpt><trkpt lat="44.872379637541556" lon="7.206215339124831"><ele>1355.6666666666667</ele><time>2026-04-16T09:47:09Z</time></trkpt><trkpt lat="44.87236113397395" lon="7.20630725912366"><ele>1352.3333333333335</ele><time>2026-04-16T09:47:10Z</time></trkpt><trkpt lat="44.872369320735814" lon="7.206474838498004"><ele>1349.0</ele><time>2026-04-16T09:47:12Z</time></trkpt><trkpt lat="44.87241092895413" lon="7.206559307786795"><ele>1348.1666666666667</ele><time>2026-04-16T09:47:13Z</time></trkpt><trkpt lat="44.872465545869254" lon="7.206641956078912"><ele>1347.3333333333335</ele><time>2026-04-16T09:47:14Z</time></trkpt><trkpt lat="44.87252005017627" lon="7.206720215157773"><ele>1346.5</ele><time>2026-04-16T09:47:15Z</time></trkpt><trkpt lat="44.87257712692169" lon="7.206798391657188"><ele>1345.6666666666667</ele><time>2026-04-16T09:47:16Z</time></trkpt><trkpt lat="44.87262663154215" lon="7.206866318212554"><ele>1344.8333333333333</ele><time>2026-04-16T09:47:17Z</time></trkpt><trkpt lat="44.872682545942126" lon="7.206943784150453"><ele>1344.0</ele><time>2026-04-16T09:47:18Z</time></trkpt><trkpt lat="44.87273746534626" lon="7.207020544080304"><ele>1348.0</ele><time>2026-04-16T09:47:19Z</time></trkpt><trkpt lat="44.87278481479306" lon="7.2070843130135644"><ele>1352.0</ele><time>2026-04-16T09:47:20Z</time></trkpt><trkpt lat="44.87283727163743" lon="7.207151089427432"><ele>1356.0</ele><time>2026-04-16T09:47:21Z</time></trkpt><trkpt lat="44.87290503262771" lon="7.207225258855981"><ele>1360.0</ele><time>2026-04-16T09:47:22Z</time></trkpt><trkpt lat="44.872983613093695" lon="7.207332004399272"><ele>1364.0</ele><time>2026-04-16T09:47:23Z</time></trkpt><trkpt lat="44.8730210911112" lon="7.207412928434041"><ele>1368.0</ele><time>2026-04-16T09:47:24Z</time></trkpt><trkpt lat="44.87302572822617" lon="7.207518344869334"><ele>1368.0</ele><time>2026-04-16T09:47:26Z</time></trkpt><trkpt lat="44.873000882723446" lon="7.207604981327108"><ele>1368.0</ele><time>2026-04-16T09:47:27Z</time></trkpt><trkpt lat="44.872962879554265" lon="7.207704865642621"><ele>1368.0</ele><time>2026-04-16T09:47:28Z</time></trkpt><trkpt lat="44.87292235608463" lon="7.207836913816573"><ele>1368.0</ele><time>2026-04-16T09:47:29Z</time></trkpt><trkpt lat="44.87285694053617" lon="7.20797063836159"><ele>1368.0</ele><time>2026-04-16T09:47:30Z</time></trkpt><trkpt lat="44.872818983631824" lon="7.2081040013658715"><ele>1368.6000000000001</ele><time>2026-04-16T09:47:31Z</time></trkpt><trkpt lat="44.87276939071196" lon="7.20823489038979"><ele>1369.2</ele><time>2026-04-16T09:47:32Z</time></trkpt><trkpt lat="44.87271072008517" lon="7.208351385455089"><ele>1369.8</ele><time>2026-04-16T09:47:33Z</time></trkpt><trkpt lat="44.872652950029014" lon="7.208464562827747"><ele>1370.4</ele><time>2026-04-16T09:47:34Z</time></trkpt><trkpt lat="44.87259848102081" lon="7.208556252086669"><ele>1371.0</ele><time>2026-04-16T09:47:35Z</time></trkpt><trkpt lat="44.87256148791248" lon="7.208638068342957"><ele>1362.4</ele><time>2026-04-16T09:47:36Z</time></trkpt><trkpt lat="44.87255007772712" lon="7.20874395092872"><ele>1353.8</ele><time>2026-04-16T09:47:37Z</time></trkpt><trkpt lat="44.87254142917942" lon="7.208885504980052"><ele>1345.2</ele><time>2026-04-16T09:47:38Z</time></trkpt><trkpt lat="44.87255114277403" lon="7.209066706070454"><ele>1336.6000000000001</ele><time>2026-04-16T09:47:39Z</time></trkpt><trkpt lat="44.87252156618443" lon="7.209244706867233"><ele>1328.0</ele><time>2026-04-16T09:47:40Z</time></trkpt><trkpt lat="44.87249385585953" lon="7.209389356350914"><ele>1328.0</ele><time>2026-04-16T09:47:41Z</time></trkpt><trkpt lat="44.872464489415535" lon="7.209503241288051"><ele>1328.0</ele><time>2026-04-16T09:47:42Z</time></trkpt><trkpt lat="44.87241816991194" lon="7.209604081734708"><ele>1328.0</ele><time>2026-04-16T09:47:43Z</time></trkpt><trkpt lat="44.87234364016389" lon="7.209740507019412"><ele>1328.0</ele><time>2026-04-16T09:47:44Z</time></trkpt><trkpt lat="44.87225770596133" lon="7.2098185944580715"><ele>1328.0</ele><time>2026-04-16T09:47:45Z</time></trkpt><trkpt lat="44.872157812751375" lon="7.209836262345988"><ele>1330.5</ele><time>2026-04-16T09:47:46Z</time></trkpt><trkpt lat="44.872076759777" lon="7.20987518688661"><ele>1333.0</ele><time>2026-04-16T09:47:47Z</time></trkpt><trkpt lat="44.87200529743623" lon="7.209891775411549"><ele>1335.5</ele><time>2026-04-16T09:47:48Z</time></trkpt><trkpt lat="44.87191347800309" lon="7.209948851683185"><ele>1338.0</ele><time>2026-04-16T09:47:49Z</time></trkpt><trkpt lat="44.871839359213844" lon="7.210010612554554"><ele>1340.5</ele><time>2026-04-16T09:47:50Z</time></trkpt><trkpt lat="44.87178697717451" lon="7.210094490028038"><ele>1343.0</ele><time>2026-04-16T09:47:51Z</time></trkpt><trkpt lat="44.87178126436472" lon="7.210228574635566"><ele>1343.0</ele><time>2026-04-16T09:47:52Z</time></trkpt><trkpt lat="44.871779862103615" lon="7.210368052145079"><ele>1343.0</ele><time>2026-04-16T09:47:53Z</time></trkpt><trkpt lat="44.87175123869172" lon="7.210520044908922"><ele>1343.0</ele><time>2026-04-16T09:47:54Z</time></trkpt><trkpt lat="44.871720149548594" lon="7.210656167183363"><ele>1343.0</ele><time>2026-04-16T09:47:55Z</time></trkpt><trkpt lat="44.87168437923825" lon="7.210781024672842"><ele>1343.0</ele><time>2026-04-16T09:47:56Z</time></trkpt><trkpt lat="44.87164488055973" lon="7.210906150124238"><ele>1338.8000000000002</ele><time>2026-04-16T09:47:56.999Z</time></trkpt><trkpt lat="44.87161290114169" lon="7.211025801315204"><ele>1334.6</ele><time>2026-04-16T09:47:57.999Z</time></trkpt><trkpt lat="44.87158572196969" lon="7.211172079556514"><ele>1330.4</ele><time>2026-04-16T09:47:58.999Z</time></trkpt><trkpt lat="44.871581384759374" lon="7.2113028453188495"><ele>1326.1999999999998</ele><time>2026-04-16T09:47:59.999Z</time></trkpt><trkpt lat="44.871579353314004" lon="7.211441143412919"><ele>1322.0</ele><time>2026-04-16T09:48:00.999Z</time></trkpt><trkpt lat="44.87157070477029" lon="7.2115677450583915"><ele>1322.0</ele><time>2026-04-16T09:48:01.999Z</time></trkpt><trkpt lat="44.87156274288912" lon="7.2116842747529395"><ele>1322.0</ele><time>2026-04-16T09:48:02.999Z</time></trkpt><trkpt lat="44.87152791365202" lon="7.211803430759854"><ele>1322.0</ele><time>2026-04-16T09:48:03.999Z</time></trkpt><trkpt lat="44.87148211419024" lon="7.211930178507717"><ele>1322.0</ele><time>2026-04-16T09:48:04.999Z</time></trkpt><trkpt lat="44.87142935977365" lon="7.212066128183327"><ele>1322.0</ele><time>2026-04-16T09:48:05.999Z</time></trkpt><trkpt lat="44.87134001001135" lon="7.2121665020158"><ele>1322.0</ele><time>2026-04-16T09:48:06.999Z</time></trkpt><trkpt lat="44.87127218913711" lon="7.212303369603592"><ele>1322.0</ele><time>2026-04-16T09:48:07.999Z</time></trkpt><trkpt lat="44.8712294131403" lon="7.212457887646229"><ele>1322.0</ele><time>2026-04-16T09:48:08.999Z</time></trkpt><trkpt lat="44.87117918552399" lon="7.212591017749682"><ele>1322.0</ele><time>2026-04-16T09:48:09.999Z</time></trkpt><trkpt lat="44.8711046603863" lon="7.212677039127068"><ele>1322.0</ele><time>2026-04-16T09:48:10.999Z</time></trkpt><trkpt lat="44.87101655497525" lon="7.212764405019979"><ele>1317.3999999999999</ele><time>2026-04-16T09:48:12.999Z</time></trkpt><trkpt lat="44.870922610788355" lon="7.212769458251774"><ele>1312.8</ele><time>2026-04-16T09:48:14.999Z</time></trkpt><trkpt lat="44.87084420662367" lon="7.2127385436058065"><ele>1308.2</ele><time>2026-04-16T09:48:16.999Z</time></trkpt><trkpt lat="44.8707873326555" lon="7.2126941812831795"><ele>1303.6</ele><time>2026-04-16T09:48:30.999Z</time></trkpt><trkpt lat="44.87075552972814" lon="7.212839881888856"><ele>1299.0</ele><time>2026-04-16T09:48:56Z</time></trkpt><trkpt lat="44.87066205611182" lon="7.2129144043884255"><ele>1299.0</ele><time>2026-04-16T09:48:58Z</time></trkpt><trkpt lat="44.87059252295337" lon="7.213005998961203"><ele>1299.0</ele><time>2026-04-16T09:49:01Z</time></trkpt><trkpt lat="44.870527137175294" lon="7.213096242755324"><ele>1299.0</ele><time>2026-04-16T09:49:06Z</time></trkpt><trkpt lat="44.870446137363956" lon="7.213167196146652"><ele>1299.0</ele><time>2026-04-16T09:49:09Z</time></trkpt><trkpt lat="44.87035313355184" lon="7.213228278657425"><ele>1299.0</ele><time>2026-04-16T09:49:11Z</time></trkpt><trkpt lat="44.87015961183946" lon="7.213342275169111"><ele>1300.6</ele><time>2026-04-16T09:49:48Z</time></trkpt><trkpt lat="44.87006447372857" lon="7.213398005969364"><ele>1302.2</ele><time>2026-04-16T09:49:50Z</time></trkpt><trkpt lat="44.869920803712546" lon="7.213465705607632"><ele>1303.8</ele><time>2026-04-16T09:49:52Z</time></trkpt><trkpt lat="44.869858229119465" lon="7.213539290201289"><ele>1305.3999999999999</ele><time>2026-04-16T09:49:54Z</time></trkpt><trkpt lat="44.86979743274322" lon="7.213630205595272"><ele>1307.0</ele><time>2026-04-16T09:49:56Z</time></trkpt><trkpt lat="44.86977400536487" lon="7.2137275731707255"><ele>1307.0</ele><time>2026-04-16T09:49:57Z</time></trkpt><trkpt lat="44.86974309011572" lon="7.213816638113148"><ele>1307.0</ele><time>2026-04-16T09:49:59Z</time></trkpt><trkpt lat="44.8697088402613" lon="7.213932134021667"><ele>1307.0</ele><time>2026-04-16T09:50:00Z</time></trkpt><trkpt lat="44.86968265063549" lon="7.214028477225074"><ele>1307.0</ele><time>2026-04-16T09:50:01Z</time></trkpt><trkpt lat="44.869649800186906" lon="7.214111234435127"><ele>1307.0</ele><time>2026-04-16T09:50:02Z</time></trkpt><trkpt lat="44.86962437904237" lon="7.214199931344783"><ele>1307.0</ele><time>2026-04-16T09:50:02.999Z</time></trkpt><trkpt lat="44.86961886053662" lon="7.214331865005645"><ele>1311.3999999999999</ele><time>2026-04-16T09:50:03.999Z</time></trkpt><trkpt lat="44.869598006418585" lon="7.214420292928137"><ele>1315.8</ele><time>2026-04-16T09:50:04.999Z</time></trkpt><trkpt lat="44.86957051793929" lon="7.214538481291093"><ele>1320.2</ele><time>2026-04-16T09:50:05.999Z</time></trkpt><trkpt lat="44.8695407549339" lon="7.214696470751689"><ele>1324.6</ele><time>2026-04-16T09:50:07.999Z</time></trkpt><trkpt lat="44.86953993747058" lon="7.214786888349244"><ele>1329.0</ele><time>2026-04-16T09:50:08.999Z</time></trkpt><trkpt lat="44.869542509710215" lon="7.21497175826506"><ele>1331.8000000000002</ele><time>2026-04-16T09:50:09.999Z</time></trkpt><trkpt lat="44.86950315681872" lon="7.215129223508225"><ele>1334.6000000000001</ele><time>2026-04-16T09:50:10.999Z</time></trkpt><trkpt lat="44.86943821319154" lon="7.215238532867565"><ele>1337.4</ele><time>2026-04-16T09:50:11.999Z</time></trkpt><trkpt lat="44.86938016957944" lon="7.215340951403465"><ele>1340.2</ele><time>2026-04-16T09:50:12.999Z</time></trkpt><trkpt lat="44.8692925477585" lon="7.21546764262853"><ele>1343.0</ele><time>2026-04-16T09:50:13.999Z</time></trkpt><trkpt lat="44.869223197298474" lon="7.215538642033985"><ele>1340.142857142857</ele><time>2026-04-16T09:50:14.999Z</time></trkpt><trkpt lat="44.86916913384386" lon="7.215616669283176"><ele>1337.2857142857142</ele><time>2026-04-16T09:50:15.999Z</time></trkpt><trkpt lat="44.86911460331616" lon="7.2156696078340925"><ele>1334.4285714285716</ele><time>2026-04-16T09:50:16.999Z</time></trkpt><trkpt lat="44.86906075762715" lon="7.215734431251474"><ele>1331.5714285714284</ele><time>2026-04-16T09:50:17.999Z</time></trkpt><trkpt lat="44.86900388593737" lon="7.215785923207098"><ele>1328.7142857142858</ele><time>2026-04-16T09:50:18.999Z</time></trkpt><trkpt lat="44.868976651935526" lon="7.215892657705316"><ele>1325.857142857143</ele><time>2026-04-16T09:50:19.999Z</time></trkpt><trkpt lat="44.86893793311308" lon="7.215985333070741"><ele>1323.0</ele><time>2026-04-16T09:50:20.999Z</time></trkpt><trkpt lat="44.868924214225224" lon="7.216099940483614"><ele>1323.0</ele><time>2026-04-16T09:50:21.999Z</time></trkpt><trkpt lat="44.86889366744192" lon="7.21623765514094"><ele>1323.0</ele><time>2026-04-16T09:50:22.999Z</time></trkpt><trkpt lat="44.86889457238837" lon="7.216448810023279"><ele>1323.0</ele><time>2026-04-16T09:50:25Z</time></trkpt><trkpt lat="44.868907315878424" lon="7.216560154085232"><ele>1323.0</ele><time>2026-04-16T09:50:26Z</time></trkpt><trkpt lat="44.86892199367723" lon="7.216712489893089"><ele>1323.0</ele><time>2026-04-16T09:50:27Z</time></trkpt><trkpt lat="44.86890029509193" lon="7.216811831530023"><ele>1325.0</ele><time>2026-04-16T09:50:28Z</time></trkpt><trkpt lat="44.86887139307243" lon="7.216891154560901"><ele>1327.0</ele><time>2026-04-16T09:50:29Z</time></trkpt><trkpt lat="44.868839146314315" lon="7.21697534426033"><ele>1329.0</ele><time>2026-04-16T09:50:30Z</time></trkpt><trkpt lat="44.868795893160815" lon="7.217091600569839"><ele>1331.0</ele><time>2026-04-16T09:50:31Z</time></trkpt><trkpt lat="44.86875924131201" lon="7.217181732185776"><ele>1333.0</ele><time>2026-04-16T09:50:32Z</time></trkpt><trkpt lat="44.8687061086244" lon="7.217284287000037"><ele>1335.0</ele><time>2026-04-16T09:50:34Z</time></trkpt><trkpt lat="44.86864703356395" lon="7.217402229106367"><ele>1338.2</ele><time>2026-04-16T09:50:35Z</time></trkpt><trkpt lat="44.86856825607709" lon="7.2174763725768"><ele>1341.4</ele><time>2026-04-16T09:50:36Z</time></trkpt><trkpt lat="44.86850187532464" lon="7.21757106284853"><ele>1344.6</ele><time>2026-04-16T09:50:37Z</time></trkpt><trkpt lat="44.86842995868278" lon="7.217679522646652"><ele>1347.8</ele><time>2026-04-16T09:50:38Z</time></trkpt><trkpt lat="44.86835974888359" lon="7.217829452233614"><ele>1351.0</ele><time>2026-04-16T09:50:39Z</time></trkpt><trkpt lat="44.86834100714492" lon="7.217940754869198"><ele>1348.8</ele><time>2026-04-16T09:50:40Z</time></trkpt><trkpt lat="44.868287770227624" lon="7.21803033703663"><ele>1346.6</ele><time>2026-04-16T09:50:41Z</time></trkpt><trkpt lat="44.86822589045416" lon="7.21814428144256"><ele>1344.4</ele><time>2026-04-16T09:50:42Z</time></trkpt><trkpt lat="44.86813922587789" lon="7.218280018782899"><ele>1342.2</ele><time>2026-04-16T09:50:43Z</time></trkpt><trkpt lat="44.86806422502842" lon="7.218362997294653"><ele>1340.0</ele><time>2026-04-16T09:50:44Z</time></trkpt><trkpt lat="44.867958060053475" lon="7.218458707325565"><ele>1340.0</ele><time>2026-04-16T09:50:45Z</time></trkpt><trkpt lat="44.867862919538695" lon="7.218550899036199"><ele>1340.0</ele><time>2026-04-16T09:50:46Z</time></trkpt><trkpt lat="44.86776844940731" lon="7.218650163792419"><ele>1340.0</ele><time>2026-04-16T09:50:47Z</time></trkpt><trkpt lat="44.86768408273214" lon="7.218726545260203"><ele>1340.0</ele><time>2026-04-16T09:50:48Z</time></trkpt><trkpt lat="44.86762553925135" lon="7.218784034993771"><ele>1340.0</ele><time>2026-04-16T09:50:49Z</time></trkpt><trkpt lat="44.867508004499285" lon="7.218906947198071"><ele>1337.8</ele><time>2026-04-16T09:50:51Z</time></trkpt><trkpt lat="44.867421654163024" lon="7.219009309424817"><ele>1335.6</ele><time>2026-04-16T09:50:52Z</time></trkpt><trkpt lat="44.867349618705646" lon="7.2191253329109175"><ele>1333.4</ele><time>2026-04-16T09:50:53Z</time></trkpt><trkpt lat="44.86730942295869" lon="7.219255623340489"><ele>1331.2</ele><time>2026-04-16T09:50:55Z</time></trkpt><trkpt lat="44.86727435267176" lon="7.219385102052528"><ele>1329.0</ele><time>2026-04-16T09:50:59Z</time></trkpt><trkpt lat="44.86724042016417" lon="7.219506434030953"><ele>1329.0</ele><time>2026-04-16T09:51:02Z</time></trkpt><trkpt lat="44.86717010779582" lon="7.219602389094859"><ele>1329.0</ele><time>2026-04-16T09:51:04Z</time></trkpt><trkpt lat="44.8671078670609" lon="7.219676604600582"><ele>1329.0</ele><time>2026-04-16T09:51:06Z</time></trkpt><trkpt lat="44.8670532394671" lon="7.2197257842660205"><ele>1329.0</ele><time>2026-04-16T09:51:14Z</time></trkpt><trkpt lat="44.86697781962173" lon="7.219750861344164"><ele>1329.0</ele><time>2026-04-16T09:51:16Z</time></trkpt><trkpt lat="44.86689901511097" lon="7.2197890213760365"><ele>1329.0</ele><time>2026-04-16T09:51:17Z</time></trkpt><trkpt lat="44.86681009009021" lon="7.21984944798396"><ele>1327.75</ele><time>2026-04-16T09:51:18Z</time></trkpt><trkpt lat="44.86670931920565" lon="7.219929666012442"><ele>1326.5</ele><time>2026-04-16T09:51:19Z</time></trkpt><trkpt lat="44.866608305097316" lon="7.2200126215402785"><ele>1325.25</ele><time>2026-04-16T09:51:20Z</time></trkpt><trkpt lat="44.866498217592095" lon="7.220129457997011"><ele>1324.0</ele><time>2026-04-16T09:51:21Z</time></trkpt><trkpt lat="44.86638412770228" lon="7.220260527210178"><ele>1324.0</ele><time>2026-04-16T09:51:22Z</time></trkpt><trkpt lat="44.86625461648001" lon="7.220359220975214"><ele>1324.0</ele><time>2026-04-16T09:51:23Z</time></trkpt><trkpt lat="44.86615111395434" lon="7.220450683889062"><ele>1324.0</ele><time>2026-04-16T09:51:24Z</time></trkpt><trkpt lat="44.86604781714706" lon="7.220532833514939"><ele>1324.0</ele><time>2026-04-16T09:51:25Z</time></trkpt><trkpt lat="44.865969170874045" lon="7.220592533353349"><ele>1323.0</ele><time>2026-04-16T09:51:26Z</time></trkpt><trkpt lat="44.865895612748616" lon="7.220615978026488"><ele>1322.0</ele><time>2026-04-16T09:51:27Z</time></trkpt><trkpt lat="44.865836725631745" lon="7.220680686284021"><ele>1321.0</ele><time>2026-04-16T09:51:29Z</time></trkpt><trkpt lat="44.865811790634964" lon="7.220826687718174"><ele>1320.0</ele><time>2026-04-16T09:51:31Z</time></trkpt><trkpt lat="44.865778318482164" lon="7.220928952714429"><ele>1319.0</ele><time>2026-04-16T09:51:32Z</time></trkpt><trkpt lat="44.865746673800935" lon="7.221060801203609"><ele>1318.0</ele><time>2026-04-16T09:51:33Z</time></trkpt><trkpt lat="44.865718080327134" lon="7.22118500496687"><ele>1318.0</ele><time>2026-04-16T09:51:34Z</time></trkpt><trkpt lat="44.86568044922293" lon="7.221320394333191"><ele>1318.0</ele><time>2026-04-16T09:51:35Z</time></trkpt><trkpt lat="44.86564149333486" lon="7.221490997629697"><ele>1318.0</ele><time>2026-04-16T09:51:36Z</time></trkpt><trkpt lat="44.86557596989091" lon="7.221629999401285"><ele>1318.0</ele><time>2026-04-16T09:51:37Z</time></trkpt><trkpt lat="44.865519321784674" lon="7.221785544723901"><ele>1318.1666666666665</ele><time>2026-04-16T09:51:38Z</time></trkpt><trkpt lat="44.86546572706277" lon="7.22191971279381"><ele>1318.3333333333333</ele><time>2026-04-16T09:51:39Z</time></trkpt><trkpt lat="44.86540925747991" lon="7.222019701209886"><ele>1318.5</ele><time>2026-04-16T09:51:40Z</time></trkpt><trkpt lat="44.86535848979906" lon="7.222102325136482"><ele>1318.6666666666667</ele><time>2026-04-16T09:51:41Z</time></trkpt><trkpt lat="44.86533215816791" lon="7.222199916042309"><ele>1318.8333333333335</ele><time>2026-04-16T09:51:42Z</time></trkpt><trkpt lat="44.865281913442196" lon="7.222309991655498"><ele>1319.0</ele><time>2026-04-16T09:51:43Z</time></trkpt><trkpt lat="44.86523145833356" lon="7.22244535070354"><ele>1317.4</ele><time>2026-04-16T09:51:44Z</time></trkpt><trkpt lat="44.86518039309811" lon="7.222592078606528"><ele>1315.8000000000002</ele><time>2026-04-16T09:51:45Z</time></trkpt><trkpt lat="44.865143810736264" lon="7.222713682842974"><ele>1314.1999999999998</ele><time>2026-04-16T09:51:46Z</time></trkpt><trkpt lat="44.86512657975704" lon="7.222800863616433"><ele>1312.6</ele><time>2026-04-16T09:51:47Z</time></trkpt><trkpt lat="44.865065634148515" lon="7.222941593714433"><ele>1311.0</ele><time>2026-04-16T09:51:49Z</time></trkpt><trkpt lat="44.86503256132295" lon="7.223052822723155"><ele>1311.1999999999998</ele><time>2026-04-16T09:51:50Z</time></trkpt><trkpt lat="44.86496432541905" lon="7.22317975058939"><ele>1311.3999999999999</ele><time>2026-04-16T09:51:51Z</time></trkpt><trkpt lat="44.864908487282555" lon="7.223305870436022"><ele>1311.6</ele><time>2026-04-16T09:51:52Z</time></trkpt><trkpt lat="44.86487366406142" lon="7.223407873721409"><ele>1311.8</ele><time>2026-04-16T09:51:53Z</time></trkpt><trkpt lat="44.864810838993364" lon="7.223540349040675"><ele>1312.0</ele><time>2026-04-16T09:51:55Z</time></trkpt><trkpt lat="44.86475983321621" lon="7.223660465345519"><ele>1312.0</ele><time>2026-04-16T09:51:57.001Z</time></trkpt><trkpt lat="44.8646935825788" lon="7.223752247658784"><ele>1312.0</ele><time>2026-04-16T09:51:59.001Z</time></trkpt><trkpt lat="44.864659209569275" lon="7.223835081987333"><ele>1312.0</ele><time>2026-04-16T09:52:01.001Z</time></trkpt><trkpt lat="44.86462017676518" lon="7.223976454169132"><ele>1312.0</ele><time>2026-04-16T09:52:04.001Z</time></trkpt><trkpt lat="44.864572826867914" lon="7.224063050141597"><ele>1312.0</ele><time>2026-04-16T09:52:06.001Z</time></trkpt><trkpt lat="44.86453167651225" lon="7.224145086088556"><ele>1312.0</ele><time>2026-04-16T09:52:07.001Z</time></trkpt><trkpt lat="44.86448438361679" lon="7.224243983780584"><ele>1310.8</ele><time>2026-04-16T09:52:09Z</time></trkpt><trkpt lat="44.86444019045694" lon="7.2243364436500315"><ele>1309.6</ele><time>2026-04-16T09:52:12Z</time></trkpt><trkpt lat="44.864373372426805" lon="7.224477833675746"><ele>1308.3999999999999</ele><time>2026-04-16T09:52:21Z</time></trkpt><trkpt lat="44.864328175714746" lon="7.224573472489649"><ele>1307.1999999999998</ele><time>2026-04-16T09:52:22Z</time></trkpt><trkpt lat="44.864274233755324" lon="7.224681808320241"><ele>1306.0</ele><time>2026-04-16T09:52:23Z</time></trkpt><trkpt lat="44.864202968559425" lon="7.22484554283041"><ele>1306.0</ele><time>2026-04-16T09:52:24Z</time></trkpt><trkpt lat="44.864128065772256" lon="7.225011562612172"><ele>1306.0</ele><time>2026-04-16T09:52:25Z</time></trkpt><trkpt lat="44.864064689911416" lon="7.225154858282166"><ele>1306.0</ele><time>2026-04-16T09:52:26Z</time></trkpt><trkpt lat="44.864027869773786" lon="7.225266113771972"><ele>1306.0</ele><time>2026-04-16T09:52:27Z</time></trkpt><trkpt lat="44.863996960939886" lon="7.225348921638467"><ele>1306.0</ele><time>2026-04-16T09:52:28Z</time></trkpt><trkpt lat="44.86395054087347" lon="7.225423584761174"><ele>1306.0</ele><time>2026-04-16T09:52:29Z</time></trkpt><trkpt lat="44.86394267934491" lon="7.225544415956107"><ele>1306.0</ele><time>2026-04-16T09:52:30Z</time></trkpt><trkpt lat="44.86389632589049" lon="7.225667920763049"><ele>1306.0</ele><time>2026-04-16T09:52:31Z</time></trkpt><trkpt lat="44.86384870060081" lon="7.225798235678953"><ele>1306.0</ele><time>2026-04-16T09:52:32Z</time></trkpt><trkpt lat="44.863805023842566" lon="7.225917746155441"><ele>1306.0</ele><time>2026-04-16T09:52:33Z</time></trkpt><trkpt lat="44.86377391174564" lon="7.226003013393731"><ele>1306.4</ele><time>2026-04-16T09:52:34Z</time></trkpt><trkpt lat="44.863720527175815" lon="7.226093630150627"><ele>1306.8</ele><time>2026-04-16T09:52:35Z</time></trkpt><trkpt lat="44.863673608390016" lon="7.22622213202432"><ele>1307.2</ele><time>2026-04-16T09:52:37Z</time></trkpt><trkpt lat="44.86360190631588" lon="7.226413500508907"><ele>1307.6000000000001</ele><time>2026-04-16T09:52:39Z</time></trkpt><trkpt lat="44.86356019950513" lon="7.226526236153389"><ele>1308.0</ele><time>2026-04-16T09:52:40Z</time></trkpt><trkpt lat="44.86352751694837" lon="7.226605892099283"><ele>1308.1666666666667</ele><time>2026-04-16T09:52:41Z</time></trkpt><trkpt lat="44.863480709016955" lon="7.226684551121944"><ele>1308.3333333333333</ele><time>2026-04-16T09:52:42Z</time></trkpt><trkpt lat="44.86342692205209" lon="7.226742379367254"><ele>1308.5</ele><time>2026-04-16T09:52:43Z</time></trkpt><trkpt lat="44.863345482968654" lon="7.226779804731051"><ele>1308.6666666666665</ele><time>2026-04-16T09:52:44Z</time></trkpt><trkpt lat="44.86324377802476" lon="7.226812173288698"><ele>1308.8333333333333</ele><time>2026-04-16T09:52:45Z</time></trkpt><trkpt lat="44.863132747859986" lon="7.226843321549688"><ele>1309.0</ele><time>2026-04-16T09:52:46Z</time></trkpt><trkpt lat="44.86305566602426" lon="7.2268615836976"><ele>1309.0</ele><time>2026-04-16T09:52:47Z</time></trkpt><trkpt lat="44.86296834879671" lon="7.226881574536799"><ele>1309.0</ele><time>2026-04-16T09:52:48Z</time></trkpt><trkpt lat="44.86289624421808" lon="7.226897237805742"><ele>1309.0</ele><time>2026-04-16T09:52:50Z</time></trkpt><trkpt lat="44.86281102513569" lon="7.226917180468854"><ele>1309.0</ele><time>2026-04-16T09:52:51Z</time></trkpt><trkpt lat="44.86272483698384" lon="7.226948358721757"><ele>1309.0</ele><time>2026-04-16T09:52:52Z</time></trkpt><trkpt lat="44.86264471157761" lon="7.22699254880887"><ele>1309.0</ele><time>2026-04-16T09:52:53Z</time></trkpt><trkpt lat="44.862553369241965" lon="7.227049580573035"><ele>1308.75</ele><time>2026-04-16T09:52:54Z</time></trkpt><trkpt lat="44.86243413969883" lon="7.227171682143747"><ele>1308.5</ele><time>2026-04-16T09:52:55Z</time></trkpt><trkpt lat="44.86235810273064" lon="7.227228465185404"><ele>1308.25</ele><time>2026-04-16T09:52:56Z</time></trkpt><trkpt lat="44.86224456137901" lon="7.227331599452868"><ele>1308.0</ele><time>2026-04-16T09:52:58Z</time></trkpt><trkpt lat="44.862178340201574" lon="7.227403326670936"><ele>1308.0</ele><time>2026-04-16T09:52:59Z</time></trkpt><trkpt lat="44.86206085798526" lon="7.227541511326423"><ele>1308.0</ele><time>2026-04-16T09:53:00Z</time></trkpt><trkpt lat="44.861957062944235" lon="7.227711925081461"><ele>1308.0</ele><time>2026-04-16T09:53:01Z</time></trkpt><trkpt lat="44.86186705738701" lon="7.2278149566671335"><ele>1308.0</ele><time>2026-04-16T09:53:02Z</time></trkpt><trkpt lat="44.86181008730395" lon="7.227884178533136"><ele>1305.8000000000002</ele><time>2026-04-16T09:53:03Z</time></trkpt><trkpt lat="44.861739249522074" lon="7.228002254174909"><ele>1303.6</ele><time>2026-04-16T09:53:04Z</time></trkpt><trkpt lat="44.86167597815792" lon="7.2280610116259245"><ele>1301.4</ele><time>2026-04-16T09:53:05Z</time></trkpt><trkpt lat="44.861613959267835" lon="7.228125046685634"><ele>1299.1999999999998</ele><time>2026-04-16T09:53:06Z</time></trkpt><trkpt lat="44.86151462589107" lon="7.228213503799679"><ele>1297.0</ele><time>2026-04-16T09:53:08Z</time></trkpt><trkpt lat="44.861415446938885" lon="7.228270931088401"><ele>1297.0</ele><time>2026-04-16T09:53:10Z</time></trkpt><trkpt lat="44.86125214457807" lon="7.228389266185505"><ele>1297.0</ele><time>2026-04-16T09:53:12Z</time></trkpt><trkpt lat="44.8611434531345" lon="7.228459189275395"><ele>1297.0</ele><time>2026-04-16T09:53:13Z</time></trkpt><trkpt lat="44.861048096134844" lon="7.228520554566515"><ele>1297.0</ele><time>2026-04-16T09:53:14Z</time></trkpt><trkpt lat="44.86096231937744" lon="7.228621129494785"><ele>1295.3333333333333</ele><time>2026-04-16T09:53:15Z</time></trkpt><trkpt lat="44.86086706215903" lon="7.228679733878261"><ele>1293.6666666666665</ele><time>2026-04-16T09:53:16Z</time></trkpt><trkpt lat="44.86078807152371" lon="7.228755516282665"><ele>1292.0</ele><time>2026-04-16T09:53:17Z</time></trkpt><trkpt lat="44.86073740807757" lon="7.2288369622731"><ele>1290.3333333333333</ele><time>2026-04-16T09:53:18Z</time></trkpt><trkpt lat="44.86067538594521" lon="7.2288976734106125"><ele>1288.6666666666667</ele><time>2026-04-16T09:53:19Z</time></trkpt><trkpt lat="44.86061671269193" lon="7.228972846087433"><ele>1287.0</ele><time>2026-04-16T09:53:20Z</time></trkpt><trkpt lat="44.860553611712376" lon="7.229033127868113"><ele>1287.0</ele><time>2026-04-16T09:53:21Z</time></trkpt><trkpt lat="44.86044429733992" lon="7.229161421422334"><ele>1287.0</ele><time>2026-04-16T09:53:23Z</time></trkpt><trkpt lat="44.86037615297813" lon="7.229247315905476"><ele>1287.0</ele><time>2026-04-16T09:53:24Z</time></trkpt><trkpt lat="44.86031655427642" lon="7.229331433980852"><ele>1287.0</ele><time>2026-04-16T09:53:25.001Z</time></trkpt><trkpt lat="44.86024189578293" lon="7.229447004569096"><ele>1287.0</ele><time>2026-04-16T09:53:26.001Z</time></trkpt><trkpt lat="44.86017696854475" lon="7.229550576483626"><ele>1282.6</ele><time>2026-04-16T09:53:27.001Z</time></trkpt><trkpt lat="44.86011300491479" lon="7.229652391613202"><ele>1278.1999999999998</ele><time>2026-04-16T09:53:28.001Z</time></trkpt><trkpt lat="44.860048570278984" lon="7.22974812849311"><ele>1273.8</ele><time>2026-04-16T09:53:29.001Z</time></trkpt><trkpt lat="44.85998088874272" lon="7.2298377632666835"><ele>1269.4</ele><time>2026-04-16T09:53:30.001Z</time></trkpt><trkpt lat="44.859933451718845" lon="7.229896328461776"><ele>1265.0</ele><time>2026-04-16T09:53:31.001Z</time></trkpt><trkpt lat="44.85985340092504" lon="7.229991315268872"><ele>1265.0</ele><time>2026-04-16T09:53:32.001Z</time></trkpt><trkpt lat="44.8598089468192" lon="7.230059850100934"><ele>1265.0</ele><time>2026-04-16T09:53:33.001Z</time></trkpt><trkpt lat="44.859724550279665" lon="7.230127628080207"><ele>1265.0</ele><time>2026-04-16T09:53:35.001Z</time></trkpt><trkpt lat="44.8596497682133" lon="7.230192036282636"><ele>1265.0</ele><time>2026-04-16T09:53:37.001Z</time></trkpt><trkpt lat="44.85958960645594" lon="7.230232597133939"><ele>1265.0</ele><time>2026-04-16T09:55:34.001Z</time></trkpt><trkpt lat="44.85949025592011" lon="7.230289871469337"><ele>1265.0</ele><time>2026-04-16T09:55:36.001Z</time></trkpt><trkpt lat="44.859430288675874" lon="7.230337116835241"><ele>1265.0</ele><time>2026-04-16T09:55:37.001Z</time></trkpt><trkpt lat="44.85937174990038" lon="7.230391196037903"><ele>1265.0</ele><time>2026-04-16T09:55:38.001Z</time></trkpt><trkpt lat="44.859246367031375" lon="7.230481108564169"><ele>1265.0</ele><time>2026-04-16T09:55:40.001Z</time></trkpt><trkpt lat="44.859167494553105" lon="7.230552788975146"><ele>1265.0</ele><time>2026-04-16T09:55:41.001Z</time></trkpt><trkpt lat="44.85910533445628" lon="7.230599541083409"><ele>1265.0</ele><time>2026-04-16T09:55:42.001Z</time></trkpt><trkpt lat="44.85903889293267" lon="7.2306549476720585"><ele>1263.6666666666667</ele><time>2026-04-16T09:55:43.001Z</time></trkpt><trkpt lat="44.85894349895061" lon="7.230742351021951"><ele>1262.3333333333335</ele><time>2026-04-16T09:55:45.001Z</time></trkpt><trkpt lat="44.85887842168704" lon="7.2307974438745815"><ele>1261.0</ele><time>2026-04-16T09:55:46.001Z</time></trkpt><trkpt lat="44.85882363543648" lon="7.2308460080552095"><ele>1259.6666666666667</ele><time>2026-04-16T09:55:47.001Z</time></trkpt><trkpt lat="44.858768525279245" lon="7.230916526384641"><ele>1258.3333333333333</ele><time>2026-04-16T09:55:48.001Z</time></trkpt><trkpt lat="44.85869307136026" lon="7.230986360309879"><ele>1257.0</ele><time>2026-04-16T09:55:50.001Z</time></trkpt><trkpt lat="44.85858336515706" lon="7.231089518096087"><ele>1257.0</ele><time>2026-04-16T09:55:52.001Z</time></trkpt><trkpt lat="44.858516338285256" lon="7.231177791603451"><ele>1257.0</ele><time>2026-04-16T09:55:53.001Z</time></trkpt><trkpt lat="44.85845671968813" lon="7.231274814238281"><ele>1257.0</ele><time>2026-04-16T09:55:54.001Z</time></trkpt><trkpt lat="44.85839933519003" lon="7.231395293506981"><ele>1257.0</ele><time>2026-04-16T09:55:55.001Z</time></trkpt><trkpt lat="44.85835864689474" lon="7.231503217986136"><ele>1257.0</ele><time>2026-04-16T09:55:56.001Z</time></trkpt><trkpt lat="44.85832709264476" lon="7.231606079301899"><ele>1254.4</ele><time>2026-04-16T09:55:57.001Z</time></trkpt><trkpt lat="44.85830162361721" lon="7.231692492892224"><ele>1251.8000000000002</ele><time>2026-04-16T09:55:58.001Z</time></trkpt><trkpt lat="44.858292965958405" lon="7.23178102508171"><ele>1249.2</ele><time>2026-04-16T09:55:59.001Z</time></trkpt><trkpt lat="44.85828536577256" lon="7.231954040484602"><ele>1246.6000000000001</ele><time>2026-04-16T09:56:01.001Z</time></trkpt><trkpt lat="44.858222925253735" lon="7.232140669994728"><ele>1244.0</ele><time>2026-04-16T09:56:03.001Z</time></trkpt><trkpt lat="44.858170470631535" lon="7.232241637819226"><ele>1242.6666666666667</ele><time>2026-04-16T09:56:05.001Z</time></trkpt><trkpt lat="44.85811766696314" lon="7.232327125762524"><ele>1241.3333333333335</ele><time>2026-04-16T09:56:07.001Z</time></trkpt><trkpt lat="44.858071715564456" lon="7.2324024192533365"><ele>1240.0</ele><time>2026-04-16T09:56:08.001Z</time></trkpt><trkpt lat="44.85799593915034" lon="7.23248347201671"><ele>1238.6666666666667</ele><time>2026-04-16T09:56:10.001Z</time></trkpt><trkpt lat="44.85796226273812" lon="7.23257213216559"><ele>1237.3333333333333</ele><time>2026-04-16T09:56:11.001Z</time></trkpt><trkpt lat="44.85788314061641" lon="7.232645416554043"><ele>1236.0</ele><time>2026-04-16T09:56:13.001Z</time></trkpt><trkpt lat="44.8578358095484" lon="7.232717225485455"><ele>1236.0</ele><time>2026-04-16T09:56:14.001Z</time></trkpt><trkpt lat="44.85777428944713" lon="7.232764758659818"><ele>1236.0</ele><time>2026-04-16T09:56:15.001Z</time></trkpt><trkpt lat="44.857739974907396" lon="7.23285614612539"><ele>1236.0</ele><time>2026-04-16T09:56:17.001Z</time></trkpt><trkpt lat="44.85765083065716" lon="7.232964479350477"><ele>1236.0</ele><time>2026-04-16T09:56:19.001Z</time></trkpt><trkpt lat="44.85760242793741" lon="7.233035977736354"><ele>1236.0</ele><time>2026-04-16T09:56:20.001Z</time></trkpt><trkpt lat="44.85755644747781" lon="7.233103898424224"><ele>1236.0</ele><time>2026-04-16T09:56:21.001Z</time></trkpt><trkpt lat="44.85750262469607" lon="7.2332160847060925"><ele>1231.6</ele><time>2026-04-16T09:56:23.001Z</time></trkpt><trkpt lat="44.857406357133414" lon="7.23331183894754"><ele>1227.1999999999998</ele><time>2026-04-16T09:56:25.001Z</time></trkpt><trkpt lat="44.857336048278384" lon="7.233415875036775"><ele>1222.8000000000002</ele><time>2026-04-16T09:56:27.001Z</time></trkpt><trkpt lat="44.85730490294878" lon="7.23350919211587"><ele>1218.4</ele><time>2026-04-16T09:56:28.001Z</time></trkpt><trkpt lat="44.857270265103246" lon="7.233613029953504"><ele>1214.0</ele><time>2026-04-16T09:56:29.001Z</time></trkpt><trkpt lat="44.85722730131507" lon="7.23371413654527"><ele>1214.0</ele><time>2026-04-16T09:56:30.001Z</time></trkpt><trkpt lat="44.85717472240019" lon="7.233798050971606"><ele>1214.0</ele><time>2026-04-16T09:56:31.001Z</time></trkpt><trkpt lat="44.857134943304" lon="7.233878639007114"><ele>1214.0</ele><time>2026-04-16T09:56:32.001Z</time></trkpt><trkpt lat="44.85705757843569" lon="7.23401050822897"><ele>1214.0</ele><time>2026-04-16T09:56:34.001Z</time></trkpt><trkpt lat="44.8569936122213" lon="7.234084711254654"><ele>1214.0</ele><time>2026-04-16T09:56:35.001Z</time></trkpt><trkpt lat="44.856948728339844" lon="7.234148438923273"><ele>1214.0</ele><time>2026-04-16T09:56:36.001Z</time></trkpt><trkpt lat="44.8568788813468" lon="7.2342151387371425"><ele>1210.0</ele><time>2026-04-16T09:56:37.001Z</time></trkpt><trkpt lat="44.85682103096161" lon="7.2343083433675845"><ele>1206.0</ele><time>2026-04-16T09:56:38.001Z</time></trkpt><trkpt lat="44.856768648150236" lon="7.234375802422542"><ele>1202.0</ele><time>2026-04-16T09:56:39.001Z</time></trkpt><trkpt lat="44.8567133488924" lon="7.234451229619215"><ele>1198.0</ele><time>2026-04-16T09:56:40.001Z</time></trkpt><trkpt lat="44.8566344791473" lon="7.234561418972899"><ele>1194.0</ele><time>2026-04-16T09:56:42.001Z</time></trkpt><trkpt lat="44.85653710924679" lon="7.234655893700396"><ele>1194.0</ele><time>2026-04-16T09:56:44.001Z</time></trkpt><trkpt lat="44.85647336508218" lon="7.234693267080239"><ele>1194.0</ele><time>2026-04-16T09:56:45.001Z</time></trkpt><trkpt lat="44.856393482233436" lon="7.234757566505004"><ele>1194.0</ele><time>2026-04-16T09:56:47.001Z</time></trkpt><trkpt lat="44.85630411541261" lon="7.234831121273686"><ele>1194.0</ele><time>2026-04-16T09:56:49.001Z</time></trkpt><trkpt lat="44.85624313002748" lon="7.234875958710861"><ele>1194.0</ele><time>2026-04-16T09:56:50.001Z</time></trkpt><trkpt lat="44.85616436229145" lon="7.234901915618987"><ele>1194.0</ele><time>2026-04-16T09:56:51.001Z</time></trkpt><trkpt lat="44.856082624392926" lon="7.2349428299176095"><ele>1192.0</ele><time>2026-04-16T09:56:52.001Z</time></trkpt><trkpt lat="44.85598637523528" lon="7.2349734048859755"><ele>1190.0</ele><time>2026-04-16T09:56:53.001Z</time></trkpt><trkpt lat="44.85586649193079" lon="7.2349903575814904"><ele>1188.0</ele><time>2026-04-16T09:56:54.001Z</time></trkpt><trkpt lat="44.85573905181648" lon="7.235045206229467"><ele>1186.0</ele><time>2026-04-16T09:56:55.001Z</time></trkpt><trkpt lat="44.85560689576577" lon="7.235099488724856"><ele>1185.25</ele><time>2026-04-16T09:56:56.001Z</time></trkpt><trkpt lat="44.85547311900339" lon="7.235148606381933"><ele>1184.5</ele><time>2026-04-16T09:56:57.001Z</time></trkpt><trkpt lat="44.85536860459515" lon="7.235105805976932"><ele>1183.75</ele><time>2026-04-16T09:56:58.001Z</time></trkpt><trkpt lat="44.855273502819294" lon="7.235174589961706"><ele>1183.0</ele><time>2026-04-16T09:56:59.001Z</time></trkpt><trkpt lat="44.8551690946102" lon="7.235196937348619"><ele>1181.6666666666665</ele><time>2026-04-16T09:57:00.001Z</time></trkpt><trkpt lat="44.85509727360428" lon="7.235202800176463"><ele>1180.3333333333333</ele><time>2026-04-16T09:57:01.001Z</time></trkpt><trkpt lat="44.85498167922006" lon="7.235240118910472"><ele>1179.0</ele><time>2026-04-16T09:57:03.001Z</time></trkpt><trkpt lat="44.854911308615925" lon="7.23531137607861"><ele>1177.6666666666667</ele><time>2026-04-16T09:57:04.001Z</time></trkpt><trkpt lat="44.85485029533817" lon="7.235368065361545"><ele>1176.3333333333335</ele><time>2026-04-16T09:57:05.001Z</time></trkpt><trkpt lat="44.85479769048279" lon="7.235452853979439"><ele>1175.0</ele><time>2026-04-16T09:57:06.001Z</time></trkpt><trkpt lat="44.854726955585846" lon="7.235564327019317"><ele>1174.2</ele><time>2026-04-16T09:57:07.001Z</time></trkpt><trkpt lat="44.854639040568735" lon="7.235661208113459"><ele>1173.4</ele><time>2026-04-16T09:57:08.001Z</time></trkpt><trkpt lat="44.85457701056051" lon="7.235729010843654"><ele>1172.6</ele><time>2026-04-16T09:57:09.001Z</time></trkpt><trkpt lat="44.85447657100371" lon="7.235781095824433"><ele>1171.8</ele><time>2026-04-16T09:57:10.001Z</time></trkpt><trkpt lat="44.85438577334381" lon="7.23585025559628"><ele>1171.0</ele><time>2026-04-16T09:57:11.001Z</time></trkpt><trkpt lat="44.8543088353127" lon="7.235890072557235"><ele>1171.2</ele><time>2026-04-16T09:57:13.001Z</time></trkpt><trkpt lat="44.854226407221994" lon="7.235935153966329"><ele>1171.3999999999999</ele><time>2026-04-16T09:57:14.001Z</time></trkpt><trkpt lat="44.854142554219" lon="7.235987566111242"><ele>1171.6</ele><time>2026-04-16T09:57:15.001Z</time></trkpt><trkpt lat="44.85405240155012" lon="7.236027170343066"><ele>1171.8</ele><time>2026-04-16T09:57:16.001Z</time></trkpt><trkpt lat="44.85398025336143" lon="7.236077333880122"><ele>1172.0</ele><time>2026-04-16T09:57:17.001Z</time></trkpt><trkpt lat="44.85389281396083" lon="7.236146641799062"><ele>1172.0</ele><time>2026-04-16T09:57:18.001Z</time></trkpt><trkpt lat="44.8538321491425" lon="7.236234334395454"><ele>1172.0</ele><time>2026-04-16T09:57:19.001Z</time></trkpt><trkpt lat="44.853746326851244" lon="7.23628484580494"><ele>1172.0</ele><time>2026-04-16T09:57:21.001Z</time></trkpt><trkpt lat="44.8536771042035" lon="7.236297201375583"><ele>1172.0</ele><time>2026-04-16T09:57:22.001Z</time></trkpt><trkpt lat="44.85357653908603" lon="7.236302291027166"><ele>1172.0</ele><time>2026-04-16T09:57:23.001Z</time></trkpt><trkpt lat="44.85349495715836" lon="7.236326596724916"><ele>1172.0</ele><time>2026-04-16T09:57:24.001Z</time></trkpt><trkpt lat="44.853409947845236" lon="7.236326855096023"><ele>1170.3333333333335</ele><time>2026-04-16T09:57:25.001Z</time></trkpt><trkpt lat="44.853324922083054" lon="7.236336332567214"><ele>1168.6666666666667</ele><time>2026-04-16T09:57:26.001Z</time></trkpt><trkpt lat="44.85323410141595" lon="7.236322674738805"><ele>1167.0</ele><time>2026-04-16T09:57:27.001Z</time></trkpt><trkpt lat="44.8531425576986" lon="7.236329390644632"><ele>1165.3333333333333</ele><time>2026-04-16T09:57:28.001Z</time></trkpt><trkpt lat="44.85304844725435" lon="7.23633279647418"><ele>1163.6666666666665</ele><time>2026-04-16T09:57:29.001Z</time></trkpt><trkpt lat="44.852971347808015" lon="7.236331689904579"><ele>1162.0</ele><time>2026-04-16T09:57:30.001Z</time></trkpt><trkpt lat="44.8528545414831" lon="7.23632764523577"><ele>1162.0</ele><time>2026-04-16T09:57:32.001Z</time></trkpt><trkpt lat="44.85281383150875" lon="7.236240180320696"><ele>1162.0</ele><time>2026-04-16T09:57:34.001Z</time></trkpt><trkpt lat="44.852807193089596" lon="7.236150191639058"><ele>1162.0</ele><time>2026-04-16T09:57:35.001Z</time></trkpt><trkpt lat="44.852827847903136" lon="7.23592022579501"><ele>1162.0</ele><time>2026-04-16T09:57:37.001Z</time></trkpt><trkpt lat="44.85284269712834" lon="7.235805202768211"><ele>1162.0</ele><time>2026-04-16T09:57:38.001Z</time></trkpt><trkpt lat="44.852863598168746" lon="7.235697049222466"><ele>1159.6</ele><time>2026-04-16T09:57:39.001Z</time></trkpt><trkpt lat="44.85286977563594" lon="7.235557933322121"><ele>1157.2</ele><time>2026-04-16T09:57:40.001Z</time></trkpt><trkpt lat="44.852879464709105" lon="7.235423909551704"><ele>1154.8</ele><time>2026-04-16T09:57:41.001Z</time></trkpt><trkpt lat="44.85289346944158" lon="7.235323856968913"><ele>1152.4</ele><time>2026-04-16T09:57:42.001Z</time></trkpt><trkpt lat="44.852866871539725" lon="7.235213271128967"><ele>1150.0</ele><time>2026-04-16T09:57:43.001Z</time></trkpt><trkpt lat="44.85291440343028" lon="7.235052550590681"><ele>1150.0</ele><time>2026-04-16T09:57:45.001Z</time></trkpt><trkpt lat="44.85293333591596" lon="7.234957729715763"><ele>1150.0</ele><time>2026-04-16T09:57:46.001Z</time></trkpt><trkpt lat="44.85293701109883" lon="7.234851055875612"><ele>1150.0</ele><time>2026-04-16T09:57:47.001Z</time></trkpt><trkpt lat="44.85294091404825" lon="7.234719039301615"><ele>1150.0</ele><time>2026-04-16T09:57:48.001Z</time></trkpt><trkpt lat="44.85293768145042" lon="7.234600826018909"><ele>1150.0</ele><time>2026-04-16T09:57:49.001Z</time></trkpt><trkpt lat="44.85294964270555" lon="7.234452590761419"><ele>1150.0</ele><time>2026-04-16T09:57:51.001Z</time></trkpt><trkpt lat="44.85296794753762" lon="7.2343594923472665"><ele>1148.0</ele><time>2026-04-16T09:57:53.001Z</time></trkpt><trkpt lat="44.853030356356925" lon="7.234299952156453"><ele>1146.0</ele><time>2026-04-16T09:57:55.001Z</time></trkpt><trkpt lat="44.853074089653035" lon="7.234216853606325"><ele>1144.0</ele><time>2026-04-16T09:58:00.001Z</time></trkpt><trkpt lat="44.85305202588212" lon="7.234102854683788"><ele>1142.0</ele><time>2026-04-16T09:58:08.001Z</time></trkpt><trkpt lat="44.8529598460961" lon="7.234060388011062"><ele>1140.0</ele><time>2026-04-16T09:58:10.001Z</time></trkpt><trkpt lat="44.85283495846501" lon="7.2340318127277"><ele>1140.0</ele><time>2026-04-16T09:58:12.001Z</time></trkpt><trkpt lat="44.85272661013061" lon="7.233972319605491"><ele>1140.0</ele><time>2026-04-16T09:58:13.001Z</time></trkpt><trkpt lat="44.85263286502058" lon="7.23385640287422"><ele>1140.0</ele><time>2026-04-16T09:58:15.001Z</time></trkpt><trkpt lat="44.852578734071834" lon="7.233795911600233"><ele>1140.0</ele><time>2026-04-16T09:58:16.001Z</time></trkpt><trkpt lat="44.85250404838492" lon="7.233751337638705"><ele>1140.0</ele><time>2026-04-16T09:58:17.001Z</time></trkpt><trkpt lat="44.852408628786705" lon="7.233730997504489"><ele>1136.6666666666667</ele><time>2026-04-16T09:58:18.001Z</time></trkpt><trkpt lat="44.85229557254632" lon="7.233676713335889"><ele>1133.3333333333333</ele><time>2026-04-16T09:58:20.001Z</time></trkpt><trkpt lat="44.852221144660305" lon="7.233649337859268"><ele>1130.0</ele><time>2026-04-16T09:58:21.001Z</time></trkpt><trkpt lat="44.85215393929308" lon="7.233607471173249"><ele>1126.6666666666665</ele><time>2026-04-16T09:58:22.001Z</time></trkpt><trkpt lat="44.85209680358365" lon="7.233561532569361"><ele>1123.3333333333333</ele><time>2026-04-16T09:58:23.001Z</time></trkpt><trkpt lat="44.85203348033662" lon="7.233498646202195"><ele>1120.0</ele><time>2026-04-16T09:58:25.001Z</time></trkpt><trkpt lat="44.85199687506016" lon="7.233389939418699"><ele>1120.0</ele><time>2026-04-16T09:58:28Z</time></trkpt><trkpt lat="44.851953407355985" lon="7.23331222923998"><ele>1120.0</ele><time>2026-04-16T09:58:29Z</time></trkpt><trkpt lat="44.85182525957768" lon="7.23329477720146"><ele>1120.0</ele><time>2026-04-16T09:58:31Z</time></trkpt><trkpt lat="44.85174295862124" lon="7.233383943926944"><ele>1120.0</ele><time>2026-04-16T09:58:33Z</time></trkpt><trkpt lat="44.85163897907566" lon="7.233439156820987"><ele>1120.0</ele><time>2026-04-16T09:58:35Z</time></trkpt><trkpt lat="44.85156951650236" lon="7.233399218345954"><ele>1118.6</ele><time>2026-04-16T09:58:37Z</time></trkpt><trkpt lat="44.85151587124941" lon="7.233277506581977"><ele>1117.2</ele><time>2026-04-16T09:58:39Z</time></trkpt><trkpt lat="44.85148094290547" lon="7.2331791395463885"><ele>1115.8</ele><time>2026-04-16T09:58:40Z</time></trkpt><trkpt lat="44.85142972467673" lon="7.2330474840298695"><ele>1114.4</ele><time>2026-04-16T09:58:42Z</time></trkpt><trkpt lat="44.85135869880561" lon="7.232928751723962"><ele>1113.0</ele><time>2026-04-16T09:58:44Z</time></trkpt><trkpt lat="44.851283614050914" lon="7.232812768499479"><ele>1110.3333333333333</ele><time>2026-04-16T09:58:46Z</time></trkpt><trkpt lat="44.85121897452585" lon="7.232705177869678"><ele>1107.6666666666667</ele><time>2026-04-16T09:58:48Z</time></trkpt><trkpt lat="44.851164098631834" lon="7.232660975703624"><ele>1105.0</ele><time>2026-04-16T09:58:49Z</time></trkpt><trkpt lat="44.85108248449246" lon="7.232590443228744"><ele>1102.3333333333335</ele><time>2026-04-16T09:58:50Z</time></trkpt><trkpt lat="44.85101409430244" lon="7.232551178684451"><ele>1099.6666666666667</ele><time>2026-04-16T09:58:51Z</time></trkpt><trkpt lat="44.85096080495448" lon="7.23247123210912"><ele>1097.0</ele><time>2026-04-16T09:58:52Z</time></trkpt><trkpt lat="44.85090850449181" lon="7.232341007481617"><ele>1092.2</ele><time>2026-04-16T09:58:53Z</time></trkpt><trkpt lat="44.85084863762372" lon="7.232287326314471"><ele>1087.4</ele><time>2026-04-16T09:58:54Z</time></trkpt><trkpt lat="44.85077862063559" lon="7.232209348382391"><ele>1082.6</ele><time>2026-04-16T09:58:55Z</time></trkpt><trkpt lat="44.8507294978512" lon="7.232136619660605"><ele>1077.8</ele><time>2026-04-16T09:58:57Z</time></trkpt><trkpt lat="44.85066927603048" lon="7.231990191177209"><ele>1073.0</ele><time>2026-04-16T09:58:59Z</time></trkpt><trkpt lat="44.85060788983742" lon="7.231876298488358"><ele>1073.0</ele><time>2026-04-16T09:59:01Z</time></trkpt><trkpt lat="44.85057477019549" lon="7.231786467782511"><ele>1073.0</ele><time>2026-04-16T09:59:02Z</time></trkpt><trkpt lat="44.85053014599852" lon="7.231669341967465"><ele>1073.0</ele><time>2026-04-16T09:59:04Z</time></trkpt><trkpt lat="44.850497346676754" lon="7.231577279759947"><ele>1073.0</ele><time>2026-04-16T09:59:06Z</time></trkpt><trkpt lat="44.85042928303666" lon="7.23150427800631"><ele>1073.0</ele><time>2026-04-16T09:59:10Z</time></trkpt><trkpt lat="44.8503450114693" lon="7.231488931175855"><ele>1073.0</ele><time>2026-04-16T09:59:13Z</time></trkpt><trkpt lat="44.85025905734725" lon="7.231497075446264"><ele>1073.0</ele><time>2026-04-16T09:59:15Z</time></trkpt><trkpt lat="44.850134081562025" lon="7.231487170979623"><ele>1073.0</ele><time>2026-04-16T09:59:17Z</time></trkpt><trkpt lat="44.85004818421496" lon="7.231489315702903"><ele>1073.0</ele><time>2026-04-16T09:59:18Z</time></trkpt><trkpt lat="44.84994681136005" lon="7.2314905029810355"><ele>1073.0</ele><time>2026-04-16T09:59:19Z</time></trkpt><trkpt lat="44.8498418686583" lon="7.231489350679512"><ele>1073.0</ele><time>2026-04-16T09:59:20Z</time></trkpt><trkpt lat="44.84973033354578" lon="7.2314904154202955"><ele>1073.6</ele><time>2026-04-16T09:59:21Z</time></trkpt><trkpt lat="44.84963054246853" lon="7.231496522555988"><ele>1074.1999999999998</ele><time>2026-04-16T09:59:22Z</time></trkpt><trkpt lat="44.8495389731952" lon="7.2315205715558815"><ele>1074.8</ele><time>2026-04-16T09:59:23Z</time></trkpt><trkpt lat="44.84945972929266" lon="7.231560151949872"><ele>1075.3999999999999</ele><time>2026-04-16T09:59:24Z</time></trkpt><trkpt lat="44.849378521851214" lon="7.231626830590289"><ele>1076.0</ele><time>2026-04-16T09:59:25Z</time></trkpt><trkpt lat="44.84930593901038" lon="7.231718792577511"><ele>1074.0</ele><time>2026-04-16T09:59:26Z</time></trkpt><trkpt lat="44.849244958379316" lon="7.231822938458013"><ele>1072.0</ele><time>2026-04-16T09:59:27Z</time></trkpt><trkpt lat="44.84919299094063" lon="7.231940486534683"><ele>1070.0</ele><time>2026-04-16T09:59:28Z</time></trkpt><trkpt lat="44.84916692901597" lon="7.232068861461292"><ele>1068.0</ele><time>2026-04-16T09:59:29Z</time></trkpt><trkpt lat="44.84915275958328" lon="7.232209854987419"><ele>1066.0</ele><time>2026-04-16T09:59:30Z</time></trkpt><trkpt lat="44.84915409065664" lon="7.23237274934609"><ele>1066.0</ele><time>2026-04-16T09:59:31Z</time></trkpt><trkpt lat="44.84915297654425" lon="7.232541199703431"><ele>1066.0</ele><time>2026-04-16T09:59:32Z</time></trkpt><trkpt lat="44.84914265600274" lon="7.232728325118813"><ele>1066.0</ele><time>2026-04-16T09:59:33Z</time></trkpt><trkpt lat="44.84912400060587" lon="7.2328936938757895"><ele>1066.0</ele><time>2026-04-16T09:59:34Z</time></trkpt><trkpt lat="44.849106091019934" lon="7.233055554929031"><ele>1066.75</ele><time>2026-04-16T09:59:35Z</time></trkpt><trkpt lat="44.8490987249267" lon="7.233211359975633"><ele>1067.5</ele><time>2026-04-16T09:59:36Z</time></trkpt><trkpt lat="44.84910253153923" lon="7.233379115770641"><ele>1068.25</ele><time>2026-04-16T09:59:37Z</time></trkpt><trkpt lat="44.849115107179415" lon="7.233537801993324"><ele>1069.0</ele><time>2026-04-16T09:59:38Z</time></trkpt><trkpt lat="44.8491181471064" lon="7.233689489746981"><ele>1069.0</ele><time>2026-04-16T09:59:39Z</time></trkpt><trkpt lat="44.84910490059744" lon="7.233841992562042"><ele>1069.0</ele><time>2026-04-16T09:59:40Z</time></trkpt><trkpt lat="44.84907238078989" lon="7.2339921561709595"><ele>1069.0</ele><time>2026-04-16T09:59:41Z</time></trkpt><trkpt lat="44.8490370063026" lon="7.23413725461179"><ele>1069.0</ele><time>2026-04-16T09:59:42Z</time></trkpt><trkpt lat="44.849025611891015" lon="7.234272724691333"><ele>1069.0</ele><time>2026-04-16T09:59:43Z</time></trkpt><trkpt lat="44.849016785347985" lon="7.234443300514984"><ele>1070.0</ele><time>2026-04-16T09:59:44.001Z</time></trkpt><trkpt lat="44.84899160232404" lon="7.234585236959301"><ele>1071.0</ele><time>2026-04-16T09:59:45.001Z</time></trkpt><trkpt lat="44.84896721782538" lon="7.234710482452059"><ele>1072.0</ele><time>2026-04-16T09:59:46.001Z</time></trkpt><trkpt lat="44.84896376959853" lon="7.234817491858507"><ele>1073.0</ele><time>2026-04-16T09:59:47.001Z</time></trkpt><trkpt lat="44.848972421754105" lon="7.234917338752724"><ele>1074.0</ele><time>2026-04-16T09:59:48.001Z</time></trkpt><trkpt lat="44.84900777101519" lon="7.235026233356828"><ele>1075.0</ele><time>2026-04-16T09:59:49.001Z</time></trkpt><trkpt lat="44.84908506387382" lon="7.235148401708536"><ele>1075.2</ele><time>2026-04-16T09:59:50.001Z</time></trkpt><trkpt lat="44.84915723547285" lon="7.235257572823416"><ele>1075.4</ele><time>2026-04-16T09:59:51.001Z</time></trkpt><trkpt lat="44.84919725767894" lon="7.235343156709447"><ele>1075.6</ele><time>2026-04-16T09:59:52.001Z</time></trkpt><trkpt lat="44.84918436921784" lon="7.235518583202652"><ele>1075.8</ele><time>2026-04-16T09:59:54.001Z</time></trkpt><trkpt lat="44.84913393091724" lon="7.235590495949313"><ele>1076.0</ele><time>2026-04-16T09:59:55.001Z</time></trkpt><trkpt lat="44.84906298447544" lon="7.235668789624902"><ele>1075.5</ele><time>2026-04-16T09:59:56.001Z</time></trkpt><trkpt lat="44.84897509888191" lon="7.235740530382939"><ele>1075.0</ele><time>2026-04-16T09:59:57.001Z</time></trkpt><trkpt lat="44.84890507921576" lon="7.235800642740305"><ele>1074.5</ele><time>2026-04-16T09:59:58.001Z</time></trkpt><trkpt lat="44.84884165291438" lon="7.235861026124543"><ele>1074.0</ele><time>2026-04-16T09:59:59.001Z</time></trkpt><trkpt lat="44.84878427380699" lon="7.235932366825066"><ele>1073.5</ele><time>2026-04-16T10:00:00.001Z</time></trkpt><trkpt lat="44.84874122306233" lon="7.236007958810912"><ele>1073.0</ele><time>2026-04-16T10:00:01.001Z</time></trkpt><trkpt lat="44.848699467315996" lon="7.236098384328194"><ele>1073.0</ele><time>2026-04-16T10:00:02.001Z</time></trkpt><trkpt lat="44.848657575046886" lon="7.236214513509579"><ele>1073.0</ele><time>2026-04-16T10:00:03.001Z</time></trkpt><trkpt lat="44.84862141807394" lon="7.236312373349601"><ele>1073.0</ele><time>2026-04-16T10:00:04.001Z</time></trkpt><trkpt lat="44.848595101741054" lon="7.236394768648195"><ele>1073.0</ele><time>2026-04-16T10:00:05.001Z</time></trkpt><trkpt lat="44.848581256653134" lon="7.236491619389711"><ele>1073.0</ele><time>2026-04-16T10:00:06.001Z</time></trkpt><trkpt lat="44.84858090524897" lon="7.236589642361558"><ele>1073.0</ele><time>2026-04-16T10:00:07.001Z</time></trkpt><trkpt lat="44.84858687775604" lon="7.236713168824824"><ele>1075.8</ele><time>2026-04-16T10:00:08.001Z</time></trkpt><trkpt lat="44.84855969168537" lon="7.23690436004937"><ele>1078.6</ele><time>2026-04-16T10:00:10.001Z</time></trkpt><trkpt lat="44.84848832762004" lon="7.23698595836347"><ele>1081.4</ele><time>2026-04-16T10:00:11.001Z</time></trkpt><trkpt lat="44.8484130009447" lon="7.2370455029218785"><ele>1084.2</ele><time>2026-04-16T10:00:12.001Z</time></trkpt><trkpt lat="44.84832300845477" lon="7.237087854743253"><ele>1087.0</ele><time>2026-04-16T10:00:13.001Z</time></trkpt><trkpt lat="44.84821422951532" lon="7.23711793365063"><ele>1082.4</ele><time>2026-04-16T10:00:14.001Z</time></trkpt><trkpt lat="44.848115577404805" lon="7.23714478539954"><ele>1077.8000000000002</ele><time>2026-04-16T10:00:15.001Z</time></trkpt><trkpt lat="44.84804200991789" lon="7.2371710052318505"><ele>1073.2</ele><time>2026-04-16T10:00:16.001Z</time></trkpt><trkpt lat="44.847967138666675" lon="7.237235534428329"><ele>1068.6000000000001</ele><time>2026-04-16T10:00:17.001Z</time></trkpt><trkpt lat="44.847891563606105" lon="7.2373415241638135"><ele>1064.0</ele><time>2026-04-16T10:00:18.001Z</time></trkpt><trkpt lat="44.8478098225636" lon="7.237504581437535"><ele>1064.0</ele><time>2026-04-16T10:00:19.001Z</time></trkpt><trkpt lat="44.8477168392954" lon="7.23766596684019"><ele>1064.0</ele><time>2026-04-16T10:00:20.001Z</time></trkpt><trkpt lat="44.84760470701752" lon="7.237822437528037"><ele>1064.0</ele><time>2026-04-16T10:00:21.001Z</time></trkpt><trkpt lat="44.84749569907384" lon="7.237974228763164"><ele>1058.25</ele><time>2026-04-16T10:00:22.001Z</time></trkpt><trkpt lat="44.847396565356966" lon="7.238122098147222"><ele>1052.5</ele><time>2026-04-16T10:00:23.001Z</time></trkpt><trkpt lat="44.847309240639674" lon="7.238261885065279"><ele>1046.75</ele><time>2026-04-16T10:00:24.001Z</time></trkpt><trkpt lat="44.8472316763854" lon="7.238376167346262"><ele>1041.0</ele><time>2026-04-16T10:00:25.001Z</time></trkpt><trkpt lat="44.8471589283014" lon="7.238479261992845"><ele>1041.0</ele><time>2026-04-16T10:00:26.001Z</time></trkpt><trkpt lat="44.84709823048506" lon="7.238567776304715"><ele>1041.0</ele><time>2026-04-16T10:00:27.001Z</time></trkpt><trkpt lat="44.84705307417018" lon="7.238646171891928"><ele>1041.0</ele><time>2026-04-16T10:00:28.001Z</time></trkpt><trkpt lat="44.847019626056536" lon="7.238732699495578"><ele>1041.0</ele><time>2026-04-16T10:00:29.001Z</time></trkpt><trkpt lat="44.84698734771871" lon="7.238841053319798"><ele>1041.0</ele><time>2026-04-16T10:00:30.001Z</time></trkpt><trkpt lat="44.846965998276296" lon="7.238934296258718"><ele>1041.0</ele><time>2026-04-16T10:00:31.001Z</time></trkpt><trkpt lat="44.84693902061141" lon="7.239035097141315"><ele>1041.0</ele><time>2026-04-16T10:00:32.001Z</time></trkpt><trkpt lat="44.8469326172415" lon="7.239142290308958"><ele>1041.0</ele><time>2026-04-16T10:00:33Z</time></trkpt><trkpt lat="44.846944610740536" lon="7.239255684346849"><ele>1041.0</ele><time>2026-04-16T10:00:34Z</time></trkpt><trkpt lat="44.84697535479833" lon="7.239361532527213"><ele>1041.0</ele><time>2026-04-16T10:00:35Z</time></trkpt><trkpt lat="44.84703199958566" lon="7.239476243297665"><ele>1041.0</ele><time>2026-04-16T10:00:36Z</time></trkpt><trkpt lat="44.847100782267745" lon="7.239611857842677"><ele>1041.0</ele><time>2026-04-16T10:00:37Z</time></trkpt><trkpt lat="44.84716443493347" lon="7.239748132931902"><ele>1041.0</ele><time>2026-04-16T10:00:38Z</time></trkpt><trkpt lat="44.84722193118359" lon="7.239849644574795"><ele>1041.0</ele><time>2026-04-16T10:00:39Z</time></trkpt><trkpt lat="44.8472704274573" lon="7.239934302549198"><ele>1041.0</ele><time>2026-04-16T10:00:40Z</time></trkpt><trkpt lat="44.84734985767531" lon="7.239985617916461"><ele>1041.0</ele><time>2026-04-16T10:00:41Z</time></trkpt><trkpt lat="44.84742510376895" lon="7.240016090059088"><ele>1040.5</ele><time>2026-04-16T10:00:42Z</time></trkpt><trkpt lat="44.84749957255365" lon="7.24004585387574"><ele>1040.0</ele><time>2026-04-16T10:00:43Z</time></trkpt><trkpt lat="44.84757155832557" lon="7.24003273931721"><ele>1039.5</ele><time>2026-04-16T10:00:44Z</time></trkpt><trkpt lat="44.84766458363618" lon="7.240004610434184"><ele>1039.0</ele><time>2026-04-16T10:00:46Z</time></trkpt><trkpt lat="44.84775011375942" lon="7.239975336288272"><ele>1038.5</ele><time>2026-04-16T10:00:50Z</time></trkpt><trkpt lat="44.84781852073762" lon="7.2399397848378255"><ele>1038.0</ele><time>2026-04-16T10:00:53Z</time></trkpt><trkpt lat="44.8478910771819" lon="7.2400006283572385"><ele>1038.0</ele><time>2026-04-16T10:01:07Z</time></trkpt><trkpt lat="44.847973007214705" lon="7.240064723032797"><ele>1038.0</ele><time>2026-04-16T10:01:09Z</time></trkpt><trkpt lat="44.84805937946932" lon="7.240145056359334"><ele>1038.0</ele><time>2026-04-16T10:01:11Z</time></trkpt><trkpt lat="44.848098949401646" lon="7.240225362394182"><ele>1038.0</ele><time>2026-04-16T10:01:12Z</time></trkpt><trkpt lat="44.848207724145446" lon="7.240298508770557"><ele>1038.0</ele><time>2026-04-16T10:01:14Z</time></trkpt><trkpt lat="44.848287452138734" lon="7.240354203505081"><ele>1038.0</ele><time>2026-04-16T10:01:16Z</time></trkpt><trkpt lat="44.84835388018201" lon="7.24038363598753"><ele>1038.0</ele><time>2026-04-16T10:01:17Z</time></trkpt><trkpt lat="44.848424589432156" lon="7.240406000566572"><ele>1038.0</ele><time>2026-04-16T10:01:18Z</time></trkpt><trkpt lat="44.84849332798957" lon="7.240402183255987"><ele>1038.0</ele><time>2026-04-16T10:01:19Z</time></trkpt><trkpt lat="44.84858124322664" lon="7.240383077486696"><ele>1038.0</ele><time>2026-04-16T10:01:21Z</time></trkpt><trkpt lat="44.848681140935064" lon="7.24034185005786"><ele>1038.0</ele><time>2026-04-16T10:01:23Z</time></trkpt><trkpt lat="44.84872247900782" lon="7.240270321619385"><ele>1038.4</ele><time>2026-04-16T10:01:24Z</time></trkpt><trkpt lat="44.84878601151471" lon="7.240272598092486"><ele>1038.8</ele><time>2026-04-16T10:01:25Z</time></trkpt><trkpt lat="44.84891345738506" lon="7.240280870464024"><ele>1039.2</ele><time>2026-04-16T10:01:27Z</time></trkpt><trkpt lat="44.848994825962556" lon="7.240313873585684"><ele>1039.6</ele><time>2026-04-16T10:01:28Z</time></trkpt><trkpt lat="44.84910446234152" lon="7.240332483814966"><ele>1040.0</ele><time>2026-04-16T10:01:30Z</time></trkpt><trkpt lat="44.849195159155755" lon="7.240307365788393"><ele>1040.0</ele><time>2026-04-16T10:01:31Z</time></trkpt><trkpt lat="44.84928866466413" lon="7.24029840383761"><ele>1040.0</ele><time>2026-04-16T10:01:32Z</time></trkpt><trkpt lat="44.8493793505383" lon="7.240277657781404"><ele>1040.0</ele><time>2026-04-16T10:01:33Z</time></trkpt><trkpt lat="44.84945860261571" lon="7.240262878325517"><ele>1040.0</ele><time>2026-04-16T10:01:34Z</time></trkpt><trkpt lat="44.84954673278061" lon="7.24031207998593"><ele>1040.0</ele><time>2026-04-16T10:01:36Z</time></trkpt><trkpt lat="44.849593392560124" lon="7.240389224652133"><ele>1040.0</ele><time>2026-04-16T10:01:38Z</time></trkpt><trkpt lat="44.849646045081414" lon="7.2404765621452425"><ele>1042.0</ele><time>2026-04-16T10:01:40Z</time></trkpt><trkpt lat="44.84971951274006" lon="7.240590202621789"><ele>1044.0</ele><time>2026-04-16T10:01:42Z</time></trkpt><trkpt lat="44.84976928669922" lon="7.24066182072742"><ele>1046.0</ele><time>2026-04-16T10:01:43Z</time></trkpt><trkpt lat="44.84984202962354" lon="7.2406963021963024"><ele>1048.0</ele><time>2026-04-16T10:01:44Z</time></trkpt><trkpt lat="44.84989913502634" lon="7.240734082383446"><ele>1050.0</ele><time>2026-04-16T10:01:45Z</time></trkpt><trkpt lat="44.850008475006355" lon="7.240751897822485"><ele>1052.0</ele><time>2026-04-16T10:01:47Z</time></trkpt><trkpt lat="44.85010795980793" lon="7.240678493539114"><ele>1053.4</ele><time>2026-04-16T10:01:49Z</time></trkpt><trkpt lat="44.850223948557144" lon="7.240552100241827"><ele>1054.8000000000002</ele><time>2026-04-16T10:01:51Z</time></trkpt><trkpt lat="44.85029316054073" lon="7.240528628730818"><ele>1056.2</ele><time>2026-04-16T10:01:52Z</time></trkpt><trkpt lat="44.85038123328723" lon="7.240513642615344"><ele>1057.6000000000001</ele><time>2026-04-16T10:01:54Z</time></trkpt><trkpt lat="44.850463419339945" lon="7.240528951138479"><ele>1059.0</ele><time>2026-04-16T10:01:56.001Z</time></trkpt><trkpt lat="44.850539873921576" lon="7.240477702046939"><ele>1059.0</ele><time>2026-04-16T10:01:58.001Z</time></trkpt><trkpt lat="44.85061825447613" lon="7.240473555433743"><ele>1059.0</ele><time>2026-04-16T10:02:00.001Z</time></trkpt><trkpt lat="44.85070966461241" lon="7.240453763844406"><ele>1059.0</ele><time>2026-04-16T10:02:01.001Z</time></trkpt><trkpt lat="44.85084628560687" lon="7.24048851880187"><ele>1059.0</ele><time>2026-04-16T10:02:03.001Z</time></trkpt><trkpt lat="44.85092434347779" lon="7.240500961889669"><ele>1059.0</ele><time>2026-04-16T10:02:04.001Z</time></trkpt><trkpt lat="44.85099084972599" lon="7.240560104275174"><ele>1056.6666666666667</ele><time>2026-04-16T10:02:05.001Z</time></trkpt><trkpt lat="44.85100708786252" lon="7.240668183486794"><ele>1054.3333333333333</ele><time>2026-04-16T10:02:06.001Z</time></trkpt><trkpt lat="44.851043222789194" lon="7.240776443120441"><ele>1052.0</ele><time>2026-04-16T10:02:07.001Z</time></trkpt><trkpt lat="44.85108243193107" lon="7.240901355202768"><ele>1049.6666666666665</ele><time>2026-04-16T10:02:08.001Z</time></trkpt><trkpt lat="44.851112382975884" lon="7.241020658410317"><ele>1047.3333333333333</ele><time>2026-04-16T10:02:09.001Z</time></trkpt><trkpt lat="44.85113549104947" lon="7.241130784306532"><ele>1045.0</ele><time>2026-04-16T10:02:10.001Z</time></trkpt><trkpt lat="44.85116583192386" lon="7.241270039159034"><ele>1045.0</ele><time>2026-04-16T10:02:11.001Z</time></trkpt><trkpt lat="44.85117401558964" lon="7.241406884187805"><ele>1045.0</ele><time>2026-04-16T10:02:12.001Z</time></trkpt><trkpt lat="44.85118981098845" lon="7.241495043261359"><ele>1045.0</ele><time>2026-04-16T10:02:13.001Z</time></trkpt><trkpt lat="44.85128462156713" lon="7.241565000905157"><ele>1045.0</ele><time>2026-04-16T10:02:15.001Z</time></trkpt><trkpt lat="44.85136072296469" lon="7.241598491004223"><ele>1045.0</ele><time>2026-04-16T10:02:16.001Z</time></trkpt><trkpt lat="44.851450295919726" lon="7.241633996418809"><ele>1045.0</ele><time>2026-04-16T10:02:17.001Z</time></trkpt><trkpt lat="44.85155471511245" lon="7.241658809814335"><ele>1042.8333333333333</ele><time>2026-04-16T10:02:18.001Z</time></trkpt><trkpt lat="44.85162189210141" lon="7.241689508445194"><ele>1040.6666666666665</ele><time>2026-04-16T10:02:19.001Z</time></trkpt><trkpt lat="44.8517135530378" lon="7.2417973667360345"><ele>1038.5</ele><time>2026-04-16T10:02:21.001Z</time></trkpt><trkpt lat="44.85177788537408" lon="7.241862776927658"><ele>1036.3333333333333</ele><time>2026-04-16T10:02:22.001Z</time></trkpt><trkpt lat="44.85182520444298" lon="7.241940475603178"><ele>1034.1666666666667</ele><time>2026-04-16T10:02:23.001Z</time></trkpt><trkpt lat="44.85191188255024" lon="7.242025117714472"><ele>1032.0</ele><time>2026-04-16T10:02:24.001Z</time></trkpt><trkpt lat="44.851995076376454" lon="7.242099802809284"><ele>1032.0</ele><time>2026-04-16T10:02:25.001Z</time></trkpt><trkpt lat="44.852064862499105" lon="7.242157477531401"><ele>1032.0</ele><time>2026-04-16T10:02:26.001Z</time></trkpt><trkpt lat="44.85213314369683" lon="7.242235497674698"><ele>1032.0</ele><time>2026-04-16T10:02:27.001Z</time></trkpt><trkpt lat="44.85217692868772" lon="7.24231426130326"><ele>1032.0</ele><time>2026-04-16T10:02:28.001Z</time></trkpt><trkpt lat="44.85220314585335" lon="7.242413645748217"><ele>1032.0</ele><time>2026-04-16T10:02:29.001Z</time></trkpt><trkpt lat="44.852233086488994" lon="7.242510033091966"><ele>1032.0</ele><time>2026-04-16T10:02:30.001Z</time></trkpt><trkpt lat="44.85223328179147" lon="7.242628928709015"><ele>1028.8</ele><time>2026-04-16T10:02:31.001Z</time></trkpt><trkpt lat="44.85226509354422" lon="7.242753522098329"><ele>1025.6</ele><time>2026-04-16T10:02:32.001Z</time></trkpt><trkpt lat="44.85230109345141" lon="7.2428627712504365"><ele>1022.3999999999999</ele><time>2026-04-16T10:02:33.001Z</time></trkpt><trkpt lat="44.85241329532302" lon="7.242932007893419"><ele>1019.1999999999999</ele><time>2026-04-16T10:02:35.001Z</time></trkpt><trkpt lat="44.852491389967845" lon="7.242987006014576"><ele>1016.0</ele><time>2026-04-16T10:02:36.001Z</time></trkpt><trkpt lat="44.85254668468014" lon="7.24304494508591"><ele>1011.5999999999999</ele><time>2026-04-16T10:02:37.001Z</time></trkpt><trkpt lat="44.85263651184383" lon="7.243110046715922"><ele>1007.1999999999999</ele><time>2026-04-16T10:02:39Z</time></trkpt><trkpt lat="44.852683877903075" lon="7.2431939249437844"><ele>1002.8000000000001</ele><time>2026-04-16T10:02:52Z</time></trkpt><trkpt lat="44.852711468761" lon="7.243341508114295"><ele>998.4000000000001</ele><time>2026-04-16T10:02:54Z</time></trkpt><trkpt lat="44.85273087110726" lon="7.243455240773497"><ele>994.0</ele><time>2026-04-16T10:02:55Z</time></trkpt><trkpt lat="44.852732478160846" lon="7.243573400359923"><ele>993.3333333333333</ele><time>2026-04-16T10:02:56Z</time></trkpt><trkpt lat="44.852737101839104" lon="7.2437045483944305"><ele>992.6666666666666</ele><time>2026-04-16T10:02:57Z</time></trkpt><trkpt lat="44.85272306971811" lon="7.243804314292793"><ele>992.0</ele><time>2026-04-16T10:02:58Z</time></trkpt><trkpt lat="44.8527261045737" lon="7.243894351617027"><ele>991.3333333333333</ele><time>2026-04-16T10:02:59Z</time></trkpt><trkpt lat="44.852741658904996" lon="7.244035347748693"><ele>990.6666666666666</ele><time>2026-04-16T10:03:01Z</time></trkpt><trkpt lat="44.85275086963168" lon="7.2441266818088925"><ele>990.0</ele><time>2026-04-16T10:03:02Z</time></trkpt><trkpt lat="44.85280078404298" lon="7.2441913862465"><ele>989.8</ele><time>2026-04-16T10:03:04Z</time></trkpt><trkpt lat="44.852891574562555" lon="7.244188416295583"><ele>989.6</ele><time>2026-04-16T10:03:06Z</time></trkpt><trkpt lat="44.852986144744364" lon="7.244155395863507"><ele>989.4000000000001</ele><time>2026-04-16T10:03:08Z</time></trkpt><trkpt lat="44.85302335851808" lon="7.244241600079085"><ele>989.2</ele><time>2026-04-16T10:03:10Z</time></trkpt><trkpt lat="44.85299700034555" lon="7.244405296173263"><ele>989.0</ele><time>2026-04-16T10:03:12Z</time></trkpt><trkpt lat="44.85300631117331" lon="7.244510175988271"><ele>989.0000000000001</ele><time>2026-04-16T10:03:13Z</time></trkpt><trkpt lat="44.853022633359956" lon="7.244633295566562"><ele>989.0</ele><time>2026-04-16T10:03:14Z</time></trkpt><trkpt lat="44.85298999747161" lon="7.244728609197875"><ele>989.0</ele><time>2026-04-16T10:03:15Z</time></trkpt><trkpt lat="44.85299110706682" lon="7.244826261794851"><ele>989.0</ele><time>2026-04-16T10:03:16Z</time></trkpt><trkpt lat="44.85299441921099" lon="7.244924115546978"><ele>989.0000000000001</ele><time>2026-04-16T10:03:17Z</time></trkpt><trkpt lat="44.85300359096005" lon="7.245044638384066"><ele>989.0</ele><time>2026-04-16T10:03:18Z</time></trkpt><trkpt lat="44.85301427453846" lon="7.245147880062748"><ele>988.4000000000001</ele><time>2026-04-16T10:03:19Z</time></trkpt><trkpt lat="44.85312142440442" lon="7.245330751338233"><ele>987.8000000000001</ele><time>2026-04-16T10:03:21Z</time></trkpt><trkpt lat="44.853177699577" lon="7.2454228691991105"><ele>987.1999999999999</ele><time>2026-04-16T10:03:22Z</time></trkpt><trkpt lat="44.85323642603001" lon="7.245504342678856"><ele>986.5999999999999</ele><time>2026-04-16T10:03:23Z</time></trkpt><trkpt lat="44.853310293023966" lon="7.245586080894068"><ele>986.0</ele><time>2026-04-16T10:03:24Z</time></trkpt><trkpt lat="44.853386837919594" lon="7.245705359411509"><ele>983.5000000000001</ele><time>2026-04-16T10:03:26Z</time></trkpt><trkpt lat="44.8534416829117" lon="7.245782444588556"><ele>981.0</ele><time>2026-04-16T10:03:27Z</time></trkpt><trkpt lat="44.85351222504333" lon="7.245825645354717"><ele>978.5</ele><time>2026-04-16T10:03:29Z</time></trkpt><trkpt lat="44.85357033851387" lon="7.245779729514887"><ele>976.0</ele><time>2026-04-16T10:03:30Z</time></trkpt><trkpt lat="44.85361570756362" lon="7.245645377523064"><ele>973.5000000000001</ele><time>2026-04-16T10:03:32Z</time></trkpt><trkpt lat="44.853638327194886" lon="7.245527323071269"><ele>971.0</ele><time>2026-04-16T10:03:33Z</time></trkpt><trkpt lat="44.853678049108154" lon="7.245446357518404"><ele>967.5999999999999</ele><time>2026-04-16T10:03:36Z</time></trkpt><trkpt lat="44.853736701422854" lon="7.245524541264487"><ele>964.1999999999999</ele><time>2026-04-16T10:03:38Z</time></trkpt><trkpt lat="44.853728692988824" lon="7.24563890890733"><ele>960.8000000000001</ele><time>2026-04-16T10:03:40Z</time></trkpt><trkpt lat="44.85380093879074" lon="7.245764493254195"><ele>957.4000000000001</ele><time>2026-04-16T10:03:42Z</time></trkpt><trkpt lat="44.85382632381748" lon="7.245911804442023"><ele>954.0</ele><time>2026-04-16T10:03:44Z</time></trkpt><trkpt lat="44.853847528975095" lon="7.246044185234864"><ele>953.6666666666666</ele><time>2026-04-16T10:03:46Z</time></trkpt><trkpt lat="44.85388684538004" lon="7.246173372927414"><ele>953.3333333333333</ele><time>2026-04-16T10:03:48.001Z</time></trkpt><trkpt lat="44.85390649084272" lon="7.246260089061534"><ele>953.0</ele><time>2026-04-16T10:03:49.001Z</time></trkpt><trkpt lat="44.8539597392599" lon="7.246351875248066"><ele>952.6666666666666</ele><time>2026-04-16T10:03:51.001Z</time></trkpt><trkpt lat="44.85389353343694" lon="7.246435660590924"><ele>952.3333333333333</ele><time>2026-04-16T10:03:53.001Z</time></trkpt><trkpt lat="44.85394384805178" lon="7.2465371604097015"><ele>952.0</ele><time>2026-04-16T10:03:55.001Z</time></trkpt><trkpt lat="44.85399353384742" lon="7.246671571479674"><ele>950.4999999999999</ele><time>2026-04-16T10:03:57.001Z</time></trkpt><trkpt lat="44.85402129468605" lon="7.246777004703472"><ele>949.0</ele><time>2026-04-16T10:03:59.001Z</time></trkpt><trkpt lat="44.85413742474468" lon="7.246844512016645"><ele>947.5</ele><time>2026-04-16T10:04:01.001Z</time></trkpt><trkpt lat="44.85419287739613" lon="7.246899761535802"><ele>946.0</ele><time>2026-04-16T10:04:03.001Z</time></trkpt><trkpt lat="44.85425995857414" lon="7.246811405911538"><ele>944.4999999999999</ele><time>2026-04-16T10:04:07.001Z</time></trkpt><trkpt lat="44.85429149143283" lon="7.246720546868424"><ele>943.0</ele><time>2026-04-16T10:04:10.001Z</time></trkpt><trkpt lat="44.85430101983095" lon="7.24655982813072"><ele>937.2</ele><time>2026-04-16T10:04:13.001Z</time></trkpt><trkpt lat="44.85434524849581" lon="7.246471211501941"><ele>931.4</ele><time>2026-04-16T10:04:16.001Z</time></trkpt><trkpt lat="44.854315192176784" lon="7.2463372527318555"><ele>925.6000000000001</ele><time>2026-04-16T10:04:18.001Z</time></trkpt><trkpt lat="44.854375022090714" lon="7.246214983726478"><ele>919.8000000000001</ele><time>2026-04-16T10:04:21.001Z</time></trkpt><trkpt lat="44.85440229018578" lon="7.246024011275428"><ele>914.0</ele><time>2026-04-16T10:04:23.001Z</time></trkpt><trkpt lat="44.85442838272367" lon="7.2459337002049695"><ele>913.7142857142858</ele><time>2026-04-16T10:04:24.001Z</time></trkpt><trkpt lat="44.85447773722082" lon="7.245867819019635"><ele>913.4285714285714</ele><time>2026-04-16T10:04:25.001Z</time></trkpt><trkpt lat="44.8545370575449" lon="7.245776836848668"><ele>913.1428571428571</ele><time>2026-04-16T10:04:26.001Z</time></trkpt><trkpt lat="44.85458474605468" lon="7.245685785585217"><ele>912.8571428571429</ele><time>2026-04-16T10:04:27.001Z</time></trkpt><trkpt lat="44.85461826123881" lon="7.245598042923919"><ele>912.5714285714284</ele><time>2026-04-16T10:04:28.001Z</time></trkpt><trkpt lat="44.85466719960025" lon="7.245530382230241"><ele>912.2857142857142</ele><time>2026-04-16T10:04:29.001Z</time></trkpt><trkpt lat="44.85472024328076" lon="7.24547844167645"><ele>912.0</ele><time>2026-04-16T10:04:30.001Z</time></trkpt><trkpt lat="44.85478582093566" lon="7.245406032759385"><ele>912.0</ele><time>2026-04-16T10:04:32.001Z</time></trkpt><trkpt lat="44.8548431026332" lon="7.245361678112095"><ele>912.0</ele><time>2026-04-16T10:04:33.001Z</time></trkpt><trkpt lat="44.85488192978519" lon="7.245186780826995"><ele>912.0</ele><time>2026-04-16T10:04:35.001Z</time></trkpt><trkpt lat="44.85490085570712" lon="7.245075142427656"><ele>912.0</ele><time>2026-04-16T10:04:36.001Z</time></trkpt><trkpt lat="44.85492182768096" lon="7.244988685964687"><ele>912.0</ele><time>2026-04-16T10:04:37.001Z</time></trkpt><trkpt lat="44.85497907804935" lon="7.244842314118771"><ele>911.5714285714286</ele><time>2026-04-16T10:04:39.001Z</time></trkpt><trkpt lat="44.855009100586045" lon="7.244747570449399"><ele>911.1428571428571</ele><time>2026-04-16T10:04:40.001Z</time></trkpt><trkpt lat="44.855023589413605" lon="7.244658211101412"><ele>910.7142857142857</ele><time>2026-04-16T10:04:41.001Z</time></trkpt><trkpt lat="44.85507547821347" lon="7.244568473643573"><ele>910.2857142857142</ele><time>2026-04-16T10:04:42.001Z</time></trkpt><trkpt lat="44.85508825526924" lon="7.244466377434107"><ele>909.8571428571429</ele><time>2026-04-16T10:04:43.001Z</time></trkpt><trkpt lat="44.85503599121638" lon="7.244407401844801"><ele>909.4285714285713</ele><time>2026-04-16T10:04:45Z</time></trkpt><trkpt lat="44.85512330610039" lon="7.244391645784478"><ele>909.0</ele><time>2026-04-16T10:04:47Z</time></trkpt><trkpt lat="44.85516210424607" lon="7.244480302803641"><ele>903.1666666666666</ele><time>2026-04-16T10:04:49Z</time></trkpt><trkpt lat="44.855175913683304" lon="7.244598773113743"><ele>897.3333333333333</ele><time>2026-04-16T10:04:51Z</time></trkpt><trkpt lat="44.85521108326954" lon="7.24469748364372"><ele>891.5</ele><time>2026-04-16T10:04:53Z</time></trkpt><trkpt lat="44.855264089379475" lon="7.2447534362530055"><ele>885.6666666666666</ele><time>2026-04-16T10:04:54Z</time></trkpt><trkpt lat="44.855336596788725" lon="7.244908449928297"><ele>879.8333333333333</ele><time>2026-04-16T10:04:56Z</time></trkpt><trkpt lat="44.8553492684284" lon="7.245001364177424"><ele>874.0</ele><time>2026-04-16T10:04:57Z</time></trkpt><trkpt lat="44.85534767954872" lon="7.245109259719863"><ele>873.9999999999999</ele><time>2026-04-16T10:04:58Z</time></trkpt><trkpt lat="44.85536373171388" lon="7.245224144101914"><ele>874.0</ele><time>2026-04-16T10:04:59Z</time></trkpt><trkpt lat="44.8553705411929" lon="7.245366242341201"><ele>874.0</ele><time>2026-04-16T10:05:00Z</time></trkpt><trkpt lat="44.85535956153999" lon="7.245474272281353"><ele>874.0</ele><time>2026-04-16T10:05:01Z</time></trkpt><trkpt lat="44.85538891149003" lon="7.245597199093332"><ele>873.9999999999999</ele><time>2026-04-16T10:05:02Z</time></trkpt><trkpt lat="44.85539664108622" lon="7.245703852961784"><ele>874.0</ele><time>2026-04-16T10:05:03Z</time></trkpt><trkpt lat="44.855425530493356" lon="7.2458542541204665"><ele>874.1666666666666</ele><time>2026-04-16T10:05:05Z</time></trkpt><trkpt lat="44.855403412095264" lon="7.2459524581562516"><ele>874.3333333333333</ele><time>2026-04-16T10:05:06Z</time></trkpt><trkpt lat="44.855404293549526" lon="7.246047237815631"><ele>874.5</ele><time>2026-04-16T10:05:07Z</time></trkpt><trkpt lat="44.855432104589774" lon="7.24619849717905"><ele>874.6666666666667</ele><time>2026-04-16T10:05:09Z</time></trkpt><trkpt lat="44.85546556930853" lon="7.246291060433337"><ele>874.8333333333334</ele><time>2026-04-16T10:05:10Z</time></trkpt><trkpt lat="44.85550435614906" lon="7.246385195600909"><ele>875.0</ele><time>2026-04-16T10:05:11Z</time></trkpt><trkpt lat="44.85553856577919" lon="7.246484441343151"><ele>875.0</ele><time>2026-04-16T10:05:12Z</time></trkpt><trkpt lat="44.85559282734322" lon="7.246595605561334"><ele>875.0</ele><time>2026-04-16T10:05:13Z</time></trkpt><trkpt lat="44.855620852354654" lon="7.2466996246738615"><ele>875.0</ele><time>2026-04-16T10:05:14Z</time></trkpt><trkpt lat="44.855694346831385" lon="7.246814051127403"><ele>875.0</ele><time>2026-04-16T10:05:15Z</time></trkpt><trkpt lat="44.85572492040897" lon="7.246956681768629"><ele>875.0</ele><time>2026-04-16T10:05:16Z</time></trkpt><trkpt lat="44.855750771425285" lon="7.247123026145892"><ele>875.0</ele><time>2026-04-16T10:05:17Z</time></trkpt><trkpt lat="44.855799222927374" lon="7.247248917092043"><ele>875.0</ele><time>2026-04-16T10:05:18Z</time></trkpt><trkpt lat="44.85585239380534" lon="7.24737623955242"><ele>875.0</ele><time>2026-04-16T10:05:19Z</time></trkpt><trkpt lat="44.8559289677886" lon="7.247458916430605"><ele>875.0</ele><time>2026-04-16T10:05:20Z</time></trkpt><trkpt lat="44.85596512117415" lon="7.247577559915679"><ele>875.0</ele><time>2026-04-16T10:05:21Z</time></trkpt><trkpt lat="44.85600322635549" lon="7.247716768393026"><ele>870.8333333333334</ele><time>2026-04-16T10:05:22Z</time></trkpt><trkpt lat="44.85603981612115" lon="7.2478259344132425"><ele>866.6666666666667</ele><time>2026-04-16T10:05:23Z</time></trkpt><trkpt lat="44.85604162549635" lon="7.247930404064664"><ele>862.5</ele><time>2026-04-16T10:05:24Z</time></trkpt><trkpt lat="44.85604940805579" lon="7.248041524124175"><ele>858.3333333333333</ele><time>2026-04-16T10:05:25Z</time></trkpt><trkpt lat="44.85605101686571" lon="7.248133558549501"><ele>854.1666666666666</ele><time>2026-04-16T10:05:26Z</time></trkpt><trkpt lat="44.85602199620795" lon="7.248213439661557"><ele>850.0</ele><time>2026-04-16T10:05:28Z</time></trkpt><trkpt lat="44.855993517702466" lon="7.248325626321115"><ele>855.8</ele><time>2026-04-16T10:05:30Z</time></trkpt><trkpt lat="44.8559364039784" lon="7.248473487964441"><ele>861.6</ele><time>2026-04-16T10:05:32Z</time></trkpt><trkpt lat="44.85587474827289" lon="7.2485191319834525"><ele>867.4000000000001</ele><time>2026-04-16T10:05:33Z</time></trkpt><trkpt lat="44.855806675362686" lon="7.248530819997314"><ele>873.2</ele><time>2026-04-16T10:05:34Z</time></trkpt><trkpt lat="44.85570371206261" lon="7.248583603447294"><ele>879.0</ele><time>2026-04-16T10:05:36Z</time></trkpt><trkpt lat="44.85557655915715" lon="7.248615430298162"><ele>879.0</ele><time>2026-04-16T10:05:38Z</time></trkpt><trkpt lat="44.85545032722679" lon="7.248585335967519"><ele>879.0</ele><time>2026-04-16T10:05:40Z</time></trkpt><trkpt lat="44.85538213781019" lon="7.248570089971237"><ele>879.0</ele><time>2026-04-16T10:05:41Z</time></trkpt><trkpt lat="44.855283638956315" lon="7.24859819047312"><ele>879.0</ele><time>2026-04-16T10:05:42Z</time></trkpt><trkpt lat="44.8552208883474" lon="7.248621776895037"><ele>879.0</ele><time>2026-04-16T10:05:43Z</time></trkpt><trkpt lat="44.855164915196795" lon="7.248694552440234"><ele>879.0</ele><time>2026-04-16T10:05:44Z</time></trkpt><trkpt lat="44.855104773312966" lon="7.248818341836791"><ele>877.5</ele><time>2026-04-16T10:05:46Z</time></trkpt><trkpt lat="44.855062475232934" lon="7.2489547662741645"><ele>876.0</ele><time>2026-04-16T10:05:48Z</time></trkpt><trkpt lat="44.85502298810602" lon="7.249053459302701"><ele>874.5</ele><time>2026-04-16T10:05:49Z</time></trkpt><trkpt lat="44.854964258817155" lon="7.249130470639976"><ele>873.0</ele><time>2026-04-16T10:05:50Z</time></trkpt><trkpt lat="44.85491538441408" lon="7.2492030167626025"><ele>871.5</ele><time>2026-04-16T10:05:51Z</time></trkpt><trkpt lat="44.85487489771754" lon="7.249304700853234"><ele>870.0</ele><time>2026-04-16T10:05:52Z</time></trkpt><trkpt lat="44.85483035984631" lon="7.249445388233573"><ele>870.0</ele><time>2026-04-16T10:05:54Z</time></trkpt><trkpt lat="44.854791049829814" lon="7.249571412027152"><ele>870.0</ele><time>2026-04-16T10:05:55Z</time></trkpt><trkpt lat="44.8547388432137" lon="7.249700062776779"><ele>870.0</ele><time>2026-04-16T10:05:57Z</time></trkpt><trkpt lat="44.854696131763816" lon="7.249863528289351"><ele>870.0</ele><time>2026-04-16T10:05:59Z</time></trkpt><trkpt lat="44.85472657053194" lon="7.249998311328183"><ele>870.0</ele><time>2026-04-16T10:06:01Z</time></trkpt><trkpt lat="44.85478099731545" lon="7.250144623272503"><ele>867.0</ele><time>2026-04-16T10:06:03Z</time></trkpt><trkpt lat="44.85481518038085" lon="7.250277292061277"><ele>864.0</ele><time>2026-04-16T10:06:05Z</time></trkpt><trkpt lat="44.85481983347204" lon="7.250397593036329"><ele>861.0</ele><time>2026-04-16T10:06:07Z</time></trkpt><trkpt lat="44.85481744677143" lon="7.25055451877068"><ele>858.0</ele><time>2026-04-16T10:06:09Z</time></trkpt><trkpt lat="44.85480636566103" lon="7.250695600806188"><ele>855.0</ele><time>2026-04-16T10:06:11Z</time></trkpt><trkpt lat="44.854783634303615" lon="7.250791912107301"><ele>855.0</ele><time>2026-04-16T10:06:13Z</time></trkpt><trkpt lat="44.85483491446034" lon="7.250861318433952"><ele>855.0</ele><time>2026-04-16T10:06:16Z</time></trkpt><trkpt lat="44.854843805212546" lon="7.250963774215213"><ele>855.0</ele><time>2026-04-16T10:07:30Z</time></trkpt><trkpt lat="44.85461822438674" lon="7.251131509308311"><ele>855.0</ele><time>2026-04-16T10:07:54Z</time></trkpt><trkpt lat="44.854813029901976" lon="7.251039325575119"><ele>855.0</ele><time>2026-04-16T10:07:59Z</time></trkpt><trkpt lat="44.85481115497972" lon="7.251152334833337"><ele>855.0</ele><time>2026-04-16T10:08:24.001Z</time></trkpt><trkpt lat="44.8548508930685" lon="7.25122673368886"><ele>855.0</ele><time>2026-04-16T10:08:34.001Z</time></trkpt><trkpt lat="44.855134041201644" lon="7.251382128420817"><ele>855.0</ele><time>2026-04-16T10:08:35.001Z</time></trkpt><trkpt lat="44.85519480409085" lon="7.251431852805604"><ele>855.0</ele><time>2026-04-16T10:08:37.001Z</time></trkpt><trkpt lat="44.85512519934205" lon="7.251191325039349"><ele>855.0</ele><time>2026-04-16T10:08:41.001Z</time></trkpt><trkpt lat="44.85482864663028" lon="7.251119455937335"><ele>855.0</ele><time>2026-04-16T10:08:42.001Z</time></trkpt><trkpt lat="44.85478852292588" lon="7.250961825754235"><ele>855.0</ele><time>2026-04-16T10:08:56.001Z</time></trkpt><trkpt lat="44.8548842506406" lon="7.2509199291062005"><ele>855.0</ele><time>2026-04-16T10:10:01.001Z</time></trkpt></trkseg><trkseg><trkpt lat="44.85483196694593" lon="7.25080825614185"><ele>855.0</ele><time>2026-04-16T11:14:10Z</time></trkpt><trkpt lat="44.85479553235466" lon="7.250892299735305"><ele>855.0</ele><time>2026-04-16T11:16:12Z</time></trkpt><trkpt lat="44.8547577957715" lon="7.251014707089775"><ele>855.0</ele><time>2026-04-16T11:16:15.999Z</time></trkpt><trkpt lat="44.854722295778565" lon="7.2511216651760435"><ele>855.0</ele><time>2026-04-16T11:16:17.999Z</time></trkpt><trkpt lat="44.854690534938754" lon="7.2512033769844235"><ele>855.0</ele><time>2026-04-16T11:16:19.999Z</time></trkpt><trkpt lat="44.85465925809696" lon="7.25129129178605"><ele>855.0</ele><time>2026-04-16T11:16:21.999Z</time></trkpt><trkpt lat="44.854589162057046" lon="7.251431700316975"><ele>854.1666666666666</ele><time>2026-04-16T11:16:23.999Z</time></trkpt><trkpt lat="44.85453503276829" lon="7.2515178681656085"><ele>853.3333333333333</ele><time>2026-04-16T11:16:25.999Z</time></trkpt><trkpt lat="44.85447726545722" lon="7.251600477324498"><ele>852.5</ele><time>2026-04-16T11:16:28.998Z</time></trkpt><trkpt lat="44.85438781048872" lon="7.251675329690108"><ele>851.6666666666666</ele><time>2026-04-16T11:16:30.998Z</time></trkpt><trkpt lat="44.854318117795415" lon="7.251769468048933"><ele>850.8333333333333</ele><time>2026-04-16T11:16:32.998Z</time></trkpt><trkpt lat="44.854266047947085" lon="7.2518623304208525"><ele>850.0</ele><time>2026-04-16T11:16:34.998Z</time></trkpt><trkpt lat="44.85420481498459" lon="7.251926066409327"><ele>849.9999999999999</ele><time>2026-04-16T11:16:36.998Z</time></trkpt><trkpt lat="44.85419613648614" lon="7.252021969199537"><ele>850.0</ele><time>2026-04-16T11:16:44.999Z</time></trkpt><trkpt lat="44.854233814357606" lon="7.251914660758722"><ele>850.0</ele><time>2026-04-16T11:16:48.999Z</time></trkpt><trkpt lat="44.85428266430095" lon="7.251804130830948"><ele>850.0</ele><time>2026-04-16T11:16:50.999Z</time></trkpt><trkpt lat="44.85435546105167" lon="7.251714222505707"><ele>849.9999999999999</ele><time>2026-04-16T11:16:52.999Z</time></trkpt><trkpt lat="44.85440205912842" lon="7.251646237250186"><ele>850.0</ele><time>2026-04-16T11:16:54.999Z</time></trkpt><trkpt lat="44.85446670670099" lon="7.2515747141987585"><ele>851.0</ele><time>2026-04-16T11:16:56.999Z</time></trkpt><trkpt lat="44.854549755184266" lon="7.25146899368782"><ele>852.0</ele><time>2026-04-16T11:16:58.999Z</time></trkpt><trkpt lat="44.85459532220207" lon="7.251397545351835"><ele>853.0</ele><time>2026-04-16T11:16:59.999Z</time></trkpt><trkpt lat="44.85465189091933" lon="7.251264389769886"><ele>854.0</ele><time>2026-04-16T11:17:01.999Z</time></trkpt><trkpt lat="44.85469313245892" lon="7.251137503652922"><ele>855.0</ele><time>2026-04-16T11:17:03.999Z</time></trkpt><trkpt lat="44.85473064886294" lon="7.251033818458079"><ele>855.0</ele><time>2026-04-16T11:17:05.999Z</time></trkpt><trkpt lat="44.85475855014391" lon="7.250901730250368"><ele>855.0</ele><time>2026-04-16T11:17:07.999Z</time></trkpt><trkpt lat="44.85477623431961" lon="7.2507412958020065"><ele>855.0</ele><time>2026-04-16T11:17:09.999Z</time></trkpt><trkpt lat="44.854801015992116" lon="7.250565908608836"><ele>855.0</ele><time>2026-04-16T11:17:11.999Z</time></trkpt><trkpt lat="44.85480270229446" lon="7.250473512253624"><ele>855.0</ele><time>2026-04-16T11:17:12.999Z</time></trkpt><trkpt lat="44.854797197866056" lon="7.250318093076899"><ele>855.0</ele><time>2026-04-16T11:17:14.999Z</time></trkpt><trkpt lat="44.854776129611324" lon="7.250159415820748"><ele>855.0</ele><time>2026-04-16T11:17:16.999Z</time></trkpt><trkpt lat="44.854755419367294" lon="7.250071259546744"><ele>855.0</ele><time>2026-04-16T11:17:18.999Z</time></trkpt><trkpt lat="44.85471252061541" lon="7.249951122191099"><ele>855.0</ele><time>2026-04-16T11:17:21.999Z</time></trkpt><trkpt lat="44.85467373649211" lon="7.249854803403207"><ele>855.0</ele><time>2026-04-16T11:17:23.999Z</time></trkpt><trkpt lat="44.85470232833303" lon="7.250032709938544"><ele>855.0</ele><time>2026-04-16T11:17:38.999Z</time></trkpt><trkpt lat="44.85472706453884" lon="7.250169261680382"><ele>855.0</ele><time>2026-04-16T11:17:40.999Z</time></trkpt><trkpt lat="44.854788026502405" lon="7.250192937241458"><ele>855.0</ele><time>2026-04-16T11:17:42.999Z</time></trkpt><trkpt lat="44.85481859922214" lon="7.250062425381987"><ele>855.0</ele><time>2026-04-16T11:17:45.999Z</time></trkpt><trkpt lat="44.85479543575925" lon="7.249917641178622"><ele>855.0</ele><time>2026-04-16T11:17:47.999Z</time></trkpt><trkpt lat="44.85481767484879" lon="7.2497804076057335"><ele>857.5</ele><time>2026-04-16T11:17:49.999Z</time></trkpt><trkpt lat="44.85486345796556" lon="7.249682828929076"><ele>860.0</ele><time>2026-04-16T11:17:51.999Z</time></trkpt><trkpt lat="44.85491421703888" lon="7.2495835744063815"><ele>862.5</ele><time>2026-04-16T11:17:54.999Z</time></trkpt><trkpt lat="44.85494399552227" lon="7.2495036940575535"><ele>865.0</ele><time>2026-04-16T11:17:57.999Z</time></trkpt><trkpt lat="44.85498174926874" lon="7.249424761099791"><ele>867.5</ele><time>2026-04-16T11:18:09.999Z</time></trkpt><trkpt lat="44.854935352253726" lon="7.249535273821577"><ele>870.0</ele><time>2026-04-16T11:18:24.999Z</time></trkpt><trkpt lat="44.85489511165993" lon="7.249616549586555"><ele>870.0</ele><time>2026-04-16T11:18:26.999Z</time></trkpt><trkpt lat="44.85487272442422" lon="7.249714904658613"><ele>870.0</ele><time>2026-04-16T11:18:29.999Z</time></trkpt><trkpt lat="44.85487127475714" lon="7.249813228651774"><ele>870.0</ele><time>2026-04-16T11:18:38.998Z</time></trkpt><trkpt lat="44.85484114639044" lon="7.249938465615943"><ele>870.0</ele><time>2026-04-16T11:18:40.998Z</time></trkpt><trkpt lat="44.85481399569855" lon="7.250067450468241"><ele>870.0</ele><time>2026-04-16T11:18:42.998Z</time></trkpt><trkpt lat="44.85480722674168" lon="7.250187809140015"><ele>870.0</ele><time>2026-04-16T11:18:45.998Z</time></trkpt><trkpt lat="44.85474502400629" lon="7.2501722328990965"><ele>867.5</ele><time>2026-04-16T11:18:55.999Z</time></trkpt><trkpt lat="44.854669027667036" lon="7.2501505033902625"><ele>865.0</ele><time>2026-04-16T11:19:35.999Z</time></trkpt><trkpt lat="44.85458554842022" lon="7.250159665943246"><ele>862.5</ele><time>2026-04-16T11:19:37.999Z</time></trkpt><trkpt lat="44.85451932874219" lon="7.250168025800901"><ele>860.0</ele><time>2026-04-16T11:19:40Z</time></trkpt><trkpt lat="44.85444169624872" lon="7.25013259339441"><ele>857.5</ele><time>2026-04-16T11:19:42Z</time></trkpt><trkpt lat="44.85438483519698" lon="7.250052275853651"><ele>855.0</ele><time>2026-04-16T11:19:43Z</time></trkpt><trkpt lat="44.85427142157758" lon="7.250034110514848"><ele>854.0</ele><time>2026-04-16T11:19:45Z</time></trkpt><trkpt lat="44.85415963111767" lon="7.249993259705537"><ele>853.0</ele><time>2026-04-16T11:19:47Z</time></trkpt><trkpt lat="44.85408675825942" lon="7.2499592884659085"><ele>852.0</ele><time>2026-04-16T11:19:49Z</time></trkpt><trkpt lat="44.85397131819612" lon="7.249910790097936"><ele>851.0</ele><time>2026-04-16T11:19:52Z</time></trkpt><trkpt lat="44.85384928789317" lon="7.249899879050741"><ele>850.0</ele><time>2026-04-16T11:19:54Z</time></trkpt><trkpt lat="44.853784128715276" lon="7.2498844601041466"><ele>850.0</ele><time>2026-04-16T11:19:55Z</time></trkpt><trkpt lat="44.853689638523456" lon="7.249824059690392"><ele>850.0</ele><time>2026-04-16T11:19:57Z</time></trkpt><trkpt lat="44.853591137567484" lon="7.249809622131574"><ele>850.0</ele><time>2026-04-16T11:19:59Z</time></trkpt><trkpt lat="44.85356581009187" lon="7.249681188588951"><ele>850.0</ele><time>2026-04-16T11:20:01Z</time></trkpt><trkpt lat="44.853533313602995" lon="7.24954777091837"><ele>850.0</ele><time>2026-04-16T11:20:04Z</time></trkpt><trkpt lat="44.853513934585756" lon="7.24941180236927"><ele>847.6</ele><time>2026-04-16T11:20:06Z</time></trkpt><trkpt lat="44.85348844775055" lon="7.249268134320842"><ele>845.2</ele><time>2026-04-16T11:20:08Z</time></trkpt><trkpt lat="44.85343228227787" lon="7.2491494875072595"><ele>842.8</ele><time>2026-04-16T11:20:11Z</time></trkpt><trkpt lat="44.853388711207984" lon="7.2490219142913475"><ele>840.4</ele><time>2026-04-16T11:20:13Z</time></trkpt><trkpt lat="44.85330946617297" lon="7.248999951716298"><ele>838.0</ele><time>2026-04-16T11:20:15Z</time></trkpt><trkpt lat="44.85320966122122" lon="7.249006435232295"><ele>838.0</ele><time>2026-04-16T11:20:17Z</time></trkpt><trkpt lat="44.853139687836226" lon="7.249014247514833"><ele>838.0</ele><time>2026-04-16T11:20:18Z</time></trkpt><trkpt lat="44.85305011728422" lon="7.2490394993366705"><ele>838.0</ele><time>2026-04-16T11:20:20Z</time></trkpt><trkpt lat="44.8529642281458" lon="7.249019188565737"><ele>838.0</ele><time>2026-04-16T11:20:22Z</time></trkpt><trkpt lat="44.852884468887986" lon="7.249055037472649"><ele>838.0</ele><time>2026-04-16T11:20:24Z</time></trkpt><trkpt lat="44.85275148189528" lon="7.249060690699819"><ele>838.0</ele><time>2026-04-16T11:20:27Z</time></trkpt><trkpt lat="44.8526520250683" lon="7.249057055291522"><ele>838.0</ele><time>2026-04-16T11:20:29Z</time></trkpt><trkpt lat="44.85257841614557" lon="7.249038770497621"><ele>838.0</ele><time>2026-04-16T11:20:31Z</time></trkpt><trkpt lat="44.852468593126204" lon="7.249058743840961"><ele>838.0</ele><time>2026-04-16T11:20:33Z</time></trkpt><trkpt lat="44.85237989675852" lon="7.2491201021819816"><ele>838.0</ele><time>2026-04-16T11:20:35Z</time></trkpt><trkpt lat="44.85229776944043" lon="7.249198396614697"><ele>836.0</ele><time>2026-04-16T11:20:36Z</time></trkpt><trkpt lat="44.85219454243385" lon="7.249289662874122"><ele>834.0</ele><time>2026-04-16T11:20:37Z</time></trkpt><trkpt lat="44.85209221205319" lon="7.249392048000737"><ele>832.0</ele><time>2026-04-16T11:20:38Z</time></trkpt><trkpt lat="44.85200475715114" lon="7.249438065294793"><ele>830.0</ele><time>2026-04-16T11:20:39Z</time></trkpt><trkpt lat="44.851930870843745" lon="7.249487006271122"><ele>828.0</ele><time>2026-04-16T11:20:39.998Z</time></trkpt><trkpt lat="44.85183300400325" lon="7.249498347037222"><ele>827.5999999999999</ele><time>2026-04-16T11:20:40.998Z</time></trkpt><trkpt lat="44.85171280915312" lon="7.249509972960171"><ele>827.1999999999999</ele><time>2026-04-16T11:20:41.998Z</time></trkpt><trkpt lat="44.85164562905707" lon="7.249523573072677"><ele>826.8</ele><time>2026-04-16T11:20:42.998Z</time></trkpt><trkpt lat="44.8515492149904" lon="7.24944959783149"><ele>826.4</ele><time>2026-04-16T11:20:44.999Z</time></trkpt><trkpt lat="44.851497965476945" lon="7.249363877973877"><ele>826.0</ele><time>2026-04-16T11:20:45.999Z</time></trkpt><trkpt lat="44.85144297906464" lon="7.2492708066700375"><ele>826.0</ele><time>2026-04-16T11:20:46.999Z</time></trkpt><trkpt lat="44.85137621195711" lon="7.2491821375932455"><ele>826.0</ele><time>2026-04-16T11:20:47.999Z</time></trkpt><trkpt lat="44.85132404133827" lon="7.249090781666836"><ele>826.0</ele><time>2026-04-16T11:20:48.999Z</time></trkpt><trkpt lat="44.85128212790671" lon="7.249005700111209"><ele>826.0</ele><time>2026-04-16T11:20:49.999Z</time></trkpt><trkpt lat="44.85130077416167" lon="7.248840779309718"><ele>826.0</ele><time>2026-04-16T11:20:50.999Z</time></trkpt><trkpt lat="44.85128793719246" lon="7.248695951124367"><ele>828.0</ele><time>2026-04-16T11:20:51.999Z</time></trkpt><trkpt lat="44.851295966023876" lon="7.248564938330386"><ele>830.0</ele><time>2026-04-16T11:20:52.999Z</time></trkpt><trkpt lat="44.851275732027254" lon="7.248446991217802"><ele>832.0</ele><time>2026-04-16T11:20:53.999Z</time></trkpt><trkpt lat="44.85125934227227" lon="7.2483295642578165"><ele>834.0</ele><time>2026-04-16T11:20:54.999Z</time></trkpt><trkpt lat="44.85125727344655" lon="7.248196097667702"><ele>836.0</ele><time>2026-04-16T11:20:56.999Z</time></trkpt><trkpt lat="44.851152891614035" lon="7.2482019092677294"><ele>836.0</ele><time>2026-04-16T11:20:58.999Z</time></trkpt><trkpt lat="44.85108072894441" lon="7.248166974256735"><ele>836.0</ele><time>2026-04-16T11:20:59.999Z</time></trkpt><trkpt lat="44.850959957438874" lon="7.248070840124548"><ele>836.0</ele><time>2026-04-16T11:21:01.999Z</time></trkpt><trkpt lat="44.85088185647074" lon="7.2480500863291075"><ele>836.0</ele><time>2026-04-16T11:21:02.999Z</time></trkpt><trkpt lat="44.8507981661023" lon="7.2480585048055355"><ele>836.0</ele><time>2026-04-16T11:21:03.999Z</time></trkpt><trkpt lat="44.85061546498082" lon="7.248142521570473"><ele>836.5999999999999</ele><time>2026-04-16T11:21:04.999Z</time></trkpt><trkpt lat="44.850526125900195" lon="7.248144125764019"><ele>837.2</ele><time>2026-04-16T11:21:05.999Z</time></trkpt><trkpt lat="44.85042592219969" lon="7.248182272860637"><ele>837.8</ele><time>2026-04-16T11:21:06.999Z</time></trkpt><trkpt lat="44.850347003007855" lon="7.248148266678639"><ele>838.4000000000001</ele><time>2026-04-16T11:21:07.999Z</time></trkpt><trkpt lat="44.85028213052003" lon="7.247991535251587"><ele>839.0</ele><time>2026-04-16T11:21:09.999Z</time></trkpt><trkpt lat="44.8502464509469" lon="7.247891205700378"><ele>839.0</ele><time>2026-04-16T11:21:10.999Z</time></trkpt><trkpt lat="44.85023758555723" lon="7.247760069686231"><ele>839.0</ele><time>2026-04-16T11:21:11.999Z</time></trkpt><trkpt lat="44.850213720538186" lon="7.247609858338047"><ele>839.0</ele><time>2026-04-16T11:21:12.999Z</time></trkpt><trkpt lat="44.85014851330754" lon="7.2474891973428095"><ele>839.0</ele><time>2026-04-16T11:21:14Z</time></trkpt><trkpt lat="44.850069664017504" lon="7.247401089266369"><ele>839.0</ele><time>2026-04-16T11:21:15Z</time></trkpt><trkpt lat="44.85001287818176" lon="7.247318523170877"><ele>836.1666666666667</ele><time>2026-04-16T11:21:16Z</time></trkpt><trkpt lat="44.8499973815743" lon="7.24714884270668"><ele>833.3333333333334</ele><time>2026-04-16T11:21:17Z</time></trkpt><trkpt lat="44.84993649188244" lon="7.247073677156724"><ele>830.5</ele><time>2026-04-16T11:21:18Z</time></trkpt><trkpt lat="44.8498665878235" lon="7.247009002275814"><ele>827.6666666666667</ele><time>2026-04-16T11:21:19Z</time></trkpt><trkpt lat="44.84981147519857" lon="7.246930041254064"><ele>824.8333333333334</ele><time>2026-04-16T11:21:20Z</time></trkpt><trkpt lat="44.84977615904329" lon="7.246831697671421"><ele>822.0</ele><time>2026-04-16T11:21:21Z</time></trkpt><trkpt lat="44.849744629597794" lon="7.2467254946203825"><ele>822.0</ele><time>2026-04-16T11:21:22Z</time></trkpt><trkpt lat="44.849732570639496" lon="7.24662709355073"><ele>822.0</ele><time>2026-04-16T11:21:23Z</time></trkpt><trkpt lat="44.84974353010749" lon="7.24649891424663"><ele>822.0</ele><time>2026-04-16T11:21:24Z</time></trkpt><trkpt lat="44.84973251779217" lon="7.24637427666343"><ele>822.0</ele><time>2026-04-16T11:21:26Z</time></trkpt><trkpt lat="44.84965680719336" lon="7.246351705308376"><ele>822.0</ele><time>2026-04-16T11:21:28Z</time></trkpt><trkpt lat="44.84956859072378" lon="7.246448164906901"><ele>822.0</ele><time>2026-04-16T11:21:30Z</time></trkpt><trkpt lat="44.849463991956256" lon="7.246529147953804"><ele>822.0</ele><time>2026-04-16T11:21:32Z</time></trkpt><trkpt lat="44.84938475600883" lon="7.246640884623964"><ele>822.0</ele><time>2026-04-16T11:21:34Z</time></trkpt><trkpt lat="44.849326903048926" lon="7.246734139759172"><ele>822.0</ele><time>2026-04-16T11:21:35Z</time></trkpt><trkpt lat="44.84930241204204" lon="7.246839360810385"><ele>822.0</ele><time>2026-04-16T11:21:36Z</time></trkpt><trkpt lat="44.84928443406857" lon="7.2469341031954775"><ele>822.0</ele><time>2026-04-16T11:21:37Z</time></trkpt><trkpt lat="44.849249789531264" lon="7.247010863728369"><ele>822.0</ele><time>2026-04-16T11:21:38Z</time></trkpt><trkpt lat="44.849186750955894" lon="7.247094798342285"><ele>822.4000000000001</ele><time>2026-04-16T11:21:39Z</time></trkpt><trkpt lat="44.849127867457824" lon="7.247176339281469"><ele>822.8000000000001</ele><time>2026-04-16T11:21:40Z</time></trkpt><trkpt lat="44.84904911659128" lon="7.247253401391542"><ele>823.2</ele><time>2026-04-16T11:21:41Z</time></trkpt><trkpt lat="44.84895761957791" lon="7.247323260655279"><ele>823.6</ele><time>2026-04-16T11:21:42Z</time></trkpt><trkpt lat="44.848876398184125" lon="7.247475671325671"><ele>824.0</ele><time>2026-04-16T11:21:43Z</time></trkpt><trkpt lat="44.84878133720936" lon="7.247657876358868"><ele>821.6</ele><time>2026-04-16T11:21:44Z</time></trkpt><trkpt lat="44.84865655604847" lon="7.247791835335319"><ele>819.2</ele><time>2026-04-16T11:21:45Z</time></trkpt><trkpt lat="44.84860885682628" lon="7.24787230306907"><ele>816.8000000000001</ele><time>2026-04-16T11:21:46Z</time></trkpt><trkpt lat="44.84856405265237" lon="7.247970424935128"><ele>814.4000000000001</ele><time>2026-04-16T11:21:47Z</time></trkpt><trkpt lat="44.84851244314556" lon="7.248083748950967"><ele>812.0</ele><time>2026-04-16T11:21:49Z</time></trkpt><trkpt lat="44.84843505800237" lon="7.24811887644073"><ele>812.0000000000001</ele><time>2026-04-16T11:21:52Z</time></trkpt><trkpt lat="44.84836284060769" lon="7.248082058955157"><ele>812.0</ele><time>2026-04-16T11:21:54Z</time></trkpt><trkpt lat="44.84830152309632" lon="7.248027066496901"><ele>812.0</ele><time>2026-04-16T11:21:58Z</time></trkpt><trkpt lat="44.8482320488886" lon="7.247956317122879"><ele>812.0</ele><time>2026-04-16T11:22:00Z</time></trkpt><trkpt lat="44.84826542890526" lon="7.247869995353797"><ele>812.0000000000001</ele><time>2026-04-16T11:22:08Z</time></trkpt><trkpt lat="44.84828222416335" lon="7.247764462403696"><ele>812.0</ele><time>2026-04-16T11:22:10Z</time></trkpt><trkpt lat="44.84829021974067" lon="7.247657352541788"><ele>812.0</ele><time>2026-04-16T11:22:12Z</time></trkpt><trkpt lat="44.848305460323374" lon="7.24750708179724"><ele>812.0</ele><time>2026-04-16T11:22:14Z</time></trkpt><trkpt lat="44.84831904257746" lon="7.247348343175765"><ele>812.0</ele><time>2026-04-16T11:22:16Z</time></trkpt><trkpt lat="44.848317056960425" lon="7.24725641794211"><ele>812.0</ele><time>2026-04-16T11:22:17Z</time></trkpt><trkpt lat="44.84833853937515" lon="7.247089497054684"><ele>812.0</ele><time>2026-04-16T11:22:19Z</time></trkpt><trkpt lat="44.84833032720406" lon="7.246988903325221"><ele>814.1666666666667</ele><time>2026-04-16T11:22:20Z</time></trkpt><trkpt lat="44.84832216199649" lon="7.246888884869305"><ele>816.3333333333334</ele><time>2026-04-16T11:22:21Z</time></trkpt><trkpt lat="44.84830851683778" lon="7.246721740579649"><ele>818.5</ele><time>2026-04-16T11:22:23Z</time></trkpt><trkpt lat="44.848285725665114" lon="7.246625845419959"><ele>820.6666666666667</ele><time>2026-04-16T11:22:24Z</time></trkpt><trkpt lat="44.84828522638774" lon="7.246524645437399"><ele>822.8333333333334</ele><time>2026-04-16T11:22:25Z</time></trkpt><trkpt lat="44.8482742139635" lon="7.246378382445298"><ele>825.0</ele><time>2026-04-16T11:22:27Z</time></trkpt><trkpt lat="44.84825818215426" lon="7.246213864706212"><ele>827.8</ele><time>2026-04-16T11:22:29Z</time></trkpt><trkpt lat="44.84823512812368" lon="7.246082594951365"><ele>830.6</ele><time>2026-04-16T11:22:31Z</time></trkpt><trkpt lat="44.84821968962444" lon="7.245995165325958"><ele>833.4000000000001</ele><time>2026-04-16T11:22:34.001Z</time></trkpt><trkpt lat="44.84816434183005" lon="7.245921580116195"><ele>836.2</ele><time>2026-04-16T11:22:52.999Z</time></trkpt><trkpt lat="44.84811187103401" lon="7.245783463924391"><ele>839.0</ele><time>2026-04-16T11:22:54.999Z</time></trkpt><trkpt lat="44.84811176611225" lon="7.24563310722963"><ele>841.6</ele><time>2026-04-16T11:22:55.999Z</time></trkpt><trkpt lat="44.848088201477125" lon="7.245529002905307"><ele>844.2</ele><time>2026-04-16T11:22:56.999Z</time></trkpt><trkpt lat="44.84806101915372" lon="7.245403750656035"><ele>846.8000000000001</ele><time>2026-04-16T11:22:58Z</time></trkpt><trkpt lat="44.84803857891015" lon="7.245252329277238"><ele>849.4000000000001</ele><time>2026-04-16T11:22:59Z</time></trkpt><trkpt lat="44.84802670672334" lon="7.245110184914185"><ele>852.0</ele><time>2026-04-16T11:23:00Z</time></trkpt><trkpt lat="44.84801602654623" lon="7.244971569198039"><ele>852.0</ele><time>2026-04-16T11:23:01Z</time></trkpt><trkpt lat="44.847976483813206" lon="7.244862813675389"><ele>852.0</ele><time>2026-04-16T11:23:02Z</time></trkpt><trkpt lat="44.84792375099056" lon="7.244771015967125"><ele>852.0</ele><time>2026-04-16T11:23:03Z</time></trkpt><trkpt lat="44.84786029875546" lon="7.244706420445961"><ele>852.0</ele><time>2026-04-16T11:23:04Z</time></trkpt><trkpt lat="44.84776323653854" lon="7.244629827992758"><ele>852.0</ele><time>2026-04-16T11:23:06Z</time></trkpt><trkpt lat="44.84770502169627" lon="7.244555676201646"><ele>852.0</ele><time>2026-04-16T11:23:07Z</time></trkpt><trkpt lat="44.84762970704063" lon="7.244504015066171"><ele>850.0</ele><time>2026-04-16T11:23:08Z</time></trkpt><trkpt lat="44.847582675763356" lon="7.244406722093833"><ele>848.0</ele><time>2026-04-16T11:23:09Z</time></trkpt><trkpt lat="44.84749371701243" lon="7.244360440187576"><ele>846.0</ele><time>2026-04-16T11:23:11Z</time></trkpt><trkpt lat="44.84737811256883" lon="7.244522765288257"><ele>844.0</ele><time>2026-04-16T11:23:14Z</time></trkpt><trkpt lat="44.847217861807266" lon="7.244492774422863"><ele>844.0</ele><time>2026-04-16T11:23:18Z</time></trkpt><trkpt lat="44.84718136629675" lon="7.244402960547476"><ele>844.0</ele><time>2026-04-16T11:23:19Z</time></trkpt><trkpt lat="44.84711540665352" lon="7.244260085183116"><ele>844.0</ele><time>2026-04-16T11:23:21Z</time></trkpt><trkpt lat="44.84704724543565" lon="7.244223842447891"><ele>844.0</ele><time>2026-04-16T11:23:22Z</time></trkpt><trkpt lat="44.84700371021813" lon="7.244090346198583"><ele>844.0</ele><time>2026-04-16T11:23:24Z</time></trkpt><trkpt lat="44.846910447229824" lon="7.244029531996149"><ele>844.0</ele><time>2026-04-16T11:23:25Z</time></trkpt><trkpt lat="44.84684413130446" lon="7.243973651450176"><ele>844.0</ele><time>2026-04-16T11:23:26Z</time></trkpt><trkpt lat="44.84676583926333" lon="7.24385327758585"><ele>844.0</ele><time>2026-04-16T11:23:28Z</time></trkpt><trkpt lat="44.84672716652165" lon="7.243744726102959"><ele>844.0</ele><time>2026-04-16T11:23:29Z</time></trkpt><trkpt lat="44.84666498448898" lon="7.243610560530779"><ele>844.0</ele><time>2026-04-16T11:23:30Z</time></trkpt><trkpt lat="44.84660973594107" lon="7.2434647884201455"><ele>847.1666666666666</ele><time>2026-04-16T11:23:31Z</time></trkpt><trkpt lat="44.8465738484763" lon="7.243360019209615"><ele>850.3333333333333</ele><time>2026-04-16T11:23:32Z</time></trkpt><trkpt lat="44.84654842328104" lon="7.243276823019548"><ele>853.5</ele><time>2026-04-16T11:23:33Z</time></trkpt><trkpt lat="44.8464368752837" lon="7.243282460913709"><ele>856.6666666666667</ele><time>2026-04-16T11:23:36Z</time></trkpt><trkpt lat="44.846357454347356" lon="7.2433465111190785"><ele>859.8333333333334</ele><time>2026-04-16T11:23:37Z</time></trkpt><trkpt lat="44.846307202911035" lon="7.243414361515902"><ele>863.0</ele><time>2026-04-16T11:23:38Z</time></trkpt><trkpt lat="44.8462391247617" lon="7.243484076048259"><ele>863.0</ele><time>2026-04-16T11:23:39Z</time></trkpt><trkpt lat="44.846177054401295" lon="7.243606330048415"><ele>863.0</ele><time>2026-04-16T11:23:40Z</time></trkpt><trkpt lat="44.84610089568989" lon="7.2436314219807905"><ele>863.0</ele><time>2026-04-16T11:23:41Z</time></trkpt><trkpt lat="44.84602596306261" lon="7.243643440906666"><ele>863.0</ele><time>2026-04-16T11:23:42Z</time></trkpt><trkpt lat="44.84589467261621" lon="7.243587934396416"><ele>863.0</ele><time>2026-04-16T11:23:44Z</time></trkpt><trkpt lat="44.845816119140444" lon="7.243576940431348"><ele>864.75</ele><time>2026-04-16T11:23:45Z</time></trkpt><trkpt lat="44.845702185547786" lon="7.243549413524264"><ele>866.5</ele><time>2026-04-16T11:23:46Z</time></trkpt><trkpt lat="44.84560009381169" lon="7.243559367587256"><ele>868.25</ele><time>2026-04-16T11:23:48Z</time></trkpt><trkpt lat="44.84555997899338" lon="7.243717835829695"><ele>870.0</ele><time>2026-04-16T11:23:50Z</time></trkpt><trkpt lat="44.84544166013711" lon="7.243808396468585"><ele>870.0</ele><time>2026-04-16T11:23:52Z</time></trkpt><trkpt lat="44.84538305183694" lon="7.243775817218588"><ele>870.0</ele><time>2026-04-16T11:23:53Z</time></trkpt><trkpt lat="44.84530187625516" lon="7.243808234325304"><ele>870.0</ele><time>2026-04-16T11:23:54Z</time></trkpt><trkpt lat="44.84519878226781" lon="7.243828132369566"><ele>870.0</ele><time>2026-04-16T11:23:55Z</time></trkpt><trkpt lat="44.84510003161937" lon="7.243812372910533"><ele>870.0</ele><time>2026-04-16T11:23:56Z</time></trkpt><trkpt lat="44.845010509345876" lon="7.243730630273838"><ele>873.2</ele><time>2026-04-16T11:23:57Z</time></trkpt><trkpt lat="44.84493216981694" lon="7.2436683059905675"><ele>876.4</ele><time>2026-04-16T11:23:58Z</time></trkpt><trkpt lat="44.84487279692388" lon="7.243638603958377"><ele>879.5999999999999</ele><time>2026-04-16T11:23:59.001Z</time></trkpt><trkpt lat="44.84476916460344" lon="7.243624815185998"><ele>882.8</ele><time>2026-04-16T11:24:00.001Z</time></trkpt><trkpt lat="44.84466787297726" lon="7.24364640094641"><ele>886.0</ele><time>2026-04-16T11:24:01.001Z</time></trkpt><trkpt lat="44.84455994954571" lon="7.243690541303751"><ele>886.0</ele><time>2026-04-16T11:24:02.001Z</time></trkpt><trkpt lat="44.84445687278485" lon="7.2437451456311255"><ele>885.9999999999999</ele><time>2026-04-16T11:24:03.001Z</time></trkpt><trkpt lat="44.8443471253932" lon="7.243801754578379"><ele>885.9999999999999</ele><time>2026-04-16T11:24:04.001Z</time></trkpt><trkpt lat="44.84426548647014" lon="7.243846974128326"><ele>886.0</ele><time>2026-04-16T11:24:05.001Z</time></trkpt><trkpt lat="44.844197644217495" lon="7.243921334272832"><ele>886.0</ele><time>2026-04-16T11:24:06.001Z</time></trkpt><trkpt lat="44.84415304318916" lon="7.244019243709548"><ele>886.4</ele><time>2026-04-16T11:24:07.001Z</time></trkpt><trkpt lat="44.8441258863097" lon="7.244116593648784"><ele>886.8</ele><time>2026-04-16T11:24:08.001Z</time></trkpt><trkpt lat="44.844108962014026" lon="7.2442345138865205"><ele>887.1999999999999</ele><time>2026-04-16T11:24:09.001Z</time></trkpt><trkpt lat="44.84406756851461" lon="7.244400122252675"><ele>887.5999999999999</ele><time>2026-04-16T11:24:30.001Z</time></trkpt><trkpt lat="44.844041635008644" lon="7.244499935466997"><ele>888.0</ele><time>2026-04-16T11:24:31.001Z</time></trkpt><trkpt lat="44.84398132325903" lon="7.244610395258714"><ele>888.0</ele><time>2026-04-16T11:24:33.001Z</time></trkpt><trkpt lat="44.84388111418696" lon="7.244650568427446"><ele>888.0</ele><time>2026-04-16T11:24:35.001Z</time></trkpt><trkpt lat="44.8437992563266" lon="7.244620766702975"><ele>888.0</ele><time>2026-04-16T11:24:37.001Z</time></trkpt><trkpt lat="44.84375464784149" lon="7.244514878390265"><ele>888.0</ele><time>2026-04-16T11:24:39.001Z</time></trkpt><trkpt lat="44.84372317454473" lon="7.244417307826825"><ele>888.0</ele><time>2026-04-16T11:24:40.001Z</time></trkpt><trkpt lat="44.84371283941869" lon="7.2442786318645025"><ele>888.0</ele><time>2026-04-16T11:24:41.001Z</time></trkpt><trkpt lat="44.8437073936456" lon="7.244173609764087"><ele>888.0</ele><time>2026-04-16T11:24:42.001Z</time></trkpt><trkpt lat="44.84365794719866" lon="7.244077645014103"><ele>888.0</ele><time>2026-04-16T11:24:44.001Z</time></trkpt><trkpt lat="44.843586654607876" lon="7.244081601707138"><ele>888.0</ele><time>2026-04-16T11:24:46.001Z</time></trkpt><trkpt lat="44.843527998123264" lon="7.2441318810274185"><ele>888.0</ele><time>2026-04-16T11:24:48.001Z</time></trkpt><trkpt lat="44.84344833588486" lon="7.24426905472942"><ele>888.0</ele><time>2026-04-16T11:24:50.001Z</time></trkpt><trkpt lat="44.843380202083736" lon="7.244309985505606"><ele>895.0</ele><time>2026-04-16T11:24:51.001Z</time></trkpt><trkpt lat="44.84331541830916" lon="7.244370436049715"><ele>902.0</ele><time>2026-04-16T11:24:53Z</time></trkpt><trkpt lat="44.84313120103662" lon="7.2444990975356305"><ele>909.0</ele><time>2026-04-16T11:24:54Z</time></trkpt><trkpt lat="44.8430289174361" lon="7.244573948709066"><ele>916.0</ele><time>2026-04-16T11:24:55Z</time></trkpt><trkpt lat="44.842958083238" lon="7.244576848730935"><ele>916.0</ele><time>2026-04-16T11:24:56Z</time></trkpt><trkpt lat="44.84283933890706" lon="7.24461337651848"><ele>915.9999999999999</ele><time>2026-04-16T11:24:58Z</time></trkpt><trkpt lat="44.84275920876349" lon="7.2445158687706135"><ele>915.9999999999999</ele><time>2026-04-16T11:25:00Z</time></trkpt><trkpt lat="44.84265220076381" lon="7.244503003258105"><ele>916.0</ele><time>2026-04-16T11:25:01Z</time></trkpt><trkpt lat="44.842552614698015" lon="7.244466229100328"><ele>916.0</ele><time>2026-04-16T11:25:02Z</time></trkpt><trkpt lat="44.84249218385773" lon="7.244364351227608"><ele>915.9999999999999</ele><time>2026-04-16T11:25:03Z</time></trkpt><trkpt lat="44.842423087082466" lon="7.244254566248133"><ele>916.0</ele><time>2026-04-16T11:25:05Z</time></trkpt><trkpt lat="44.842346693640586" lon="7.2442853141770085"><ele>916.0</ele><time>2026-04-16T11:25:07Z</time></trkpt><trkpt lat="44.842416555652825" lon="7.244329251183468"><ele>916.0</ele><time>2026-04-16T11:25:33Z</time></trkpt><trkpt lat="44.842486293952526" lon="7.244378111195356"><ele>915.9999999999999</ele><time>2026-04-16T11:25:37Z</time></trkpt><trkpt lat="44.842550607487595" lon="7.244430237161068"><ele>916.0</ele><time>2026-04-16T11:25:40Z</time></trkpt><trkpt lat="44.842701918636784" lon="7.244490910534202"><ele>915.9999999999999</ele><time>2026-04-16T11:25:44Z</time></trkpt><trkpt lat="44.84277612537013" lon="7.244511986880685"><ele>916.0</ele><time>2026-04-16T11:25:46Z</time></trkpt><trkpt lat="44.84285642150457" lon="7.244500106059841"><ele>916.0</ele><time>2026-04-16T11:25:49.001Z</time></trkpt><trkpt lat="44.842941454965285" lon="7.244472312475894"><ele>916.0</ele><time>2026-04-16T11:25:51.001Z</time></trkpt><trkpt lat="44.843004002816954" lon="7.2444125375082935"><ele>915.9999999999999</ele><time>2026-04-16T11:25:53.001Z</time></trkpt><trkpt lat="44.84303797031065" lon="7.244335818621218"><ele>916.0</ele><time>2026-04-16T11:25:55.001Z</time></trkpt><trkpt lat="44.843128624418746" lon="7.244277775929579"><ele>915.9999999999999</ele><time>2026-04-16T11:25:57.001Z</time></trkpt><trkpt lat="44.84319880774713" lon="7.244174848174871"><ele>916.0</ele><time>2026-04-16T11:25:59.001Z</time></trkpt><trkpt lat="44.843277339904354" lon="7.244173270362797"><ele>916.0</ele><time>2026-04-16T11:26:02.001Z</time></trkpt><trkpt lat="44.84334044238805" lon="7.244107331046853"><ele>916.0</ele><time>2026-04-16T11:26:04.001Z</time></trkpt><trkpt lat="44.84341872399105" lon="7.2440411881237505"><ele>915.9999999999999</ele><time>2026-04-16T11:26:05.001Z</time></trkpt><trkpt lat="44.84347768123512" lon="7.244006843487457"><ele>916.0</ele><time>2026-04-16T11:26:07.001Z</time></trkpt><trkpt lat="44.84354928091756" lon="7.243988306511277"><ele>911.3333333333333</ele><time>2026-04-16T11:26:09.001Z</time></trkpt><trkpt lat="44.843615958522776" lon="7.243995642300326"><ele>906.6666666666666</ele><time>2026-04-16T11:26:11.001Z</time></trkpt><trkpt lat="44.843633909006485" lon="7.244084234683117"><ele>902.0</ele><time>2026-04-16T11:26:14.001Z</time></trkpt><trkpt lat="44.84366679828034" lon="7.24423058352553"><ele>897.3333333333333</ele><time>2026-04-16T11:26:16.001Z</time></trkpt><trkpt lat="44.84369646336929" lon="7.244354133790177"><ele>892.6666666666666</ele><time>2026-04-16T11:26:18.001Z</time></trkpt><trkpt lat="44.84373333157006" lon="7.24446367535913"><ele>888.0</ele><time>2026-04-16T11:26:20.001Z</time></trkpt><trkpt lat="44.84378765126557" lon="7.244534151808592"><ele>888.0</ele><time>2026-04-16T11:26:23.001Z</time></trkpt><trkpt lat="44.843870848500046" lon="7.244587252639414"><ele>888.0</ele><time>2026-04-16T11:26:27.001Z</time></trkpt><trkpt lat="44.84396526954898" lon="7.244576258997568"><ele>888.0</ele><time>2026-04-16T11:26:31.001Z</time></trkpt><trkpt lat="44.844040345486256" lon="7.244463409165672"><ele>888.0</ele><time>2026-04-16T11:26:33.001Z</time></trkpt><trkpt lat="44.84405163227502" lon="7.244319978205545"><ele>888.0</ele><time>2026-04-16T11:26:36.001Z</time></trkpt><trkpt lat="44.84408910223389" lon="7.244229089659353"><ele>888.0</ele><time>2026-04-16T11:26:39.001Z</time></trkpt><trkpt lat="44.84414752798525" lon="7.244309962657938"><ele>888.0</ele><time>2026-04-16T11:26:53.001Z</time></trkpt><trkpt lat="44.844164234181584" lon="7.244444345519533"><ele>888.0</ele><time>2026-04-16T11:26:55.001Z</time></trkpt><trkpt lat="44.844166476848166" lon="7.244599183131937"><ele>888.0</ele><time>2026-04-16T11:26:57.001Z</time></trkpt><trkpt lat="44.84416075217506" lon="7.244753552957506"><ele>888.0</ele><time>2026-04-16T11:26:59Z</time></trkpt><trkpt lat="44.84413164681172" lon="7.244889068256745"><ele>886.4</ele><time>2026-04-16T11:27:01Z</time></trkpt><trkpt lat="44.844091299356734" lon="7.245025018711435"><ele>884.8</ele><time>2026-04-16T11:27:03Z</time></trkpt><trkpt lat="44.844028794974534" lon="7.24512650239554"><ele>883.2</ele><time>2026-04-16T11:27:05Z</time></trkpt><trkpt lat="44.84393125363102" lon="7.245211258016766"><ele>881.6</ele><time>2026-04-16T11:27:07Z</time></trkpt><trkpt lat="44.8438181670971" lon="7.245252351042682"><ele>880.0</ele><time>2026-04-16T11:27:09Z</time></trkpt><trkpt lat="44.843753816986386" lon="7.245287544035415"><ele>880.0</ele><time>2026-04-16T11:27:10Z</time></trkpt><trkpt lat="44.84361836707473" lon="7.2453809407277365"><ele>880.0</ele><time>2026-04-16T11:27:11Z</time></trkpt><trkpt lat="44.84350493481564" lon="7.245434738642395"><ele>880.0</ele><time>2026-04-16T11:27:12Z</time></trkpt><trkpt lat="44.84342860885357" lon="7.245489566564297"><ele>880.0</ele><time>2026-04-16T11:27:13Z</time></trkpt><trkpt lat="44.843349092661256" lon="7.245538973716279"><ele>880.0</ele><time>2026-04-16T11:27:14Z</time></trkpt><trkpt lat="44.84328026356349" lon="7.245535990687104"><ele>883.8</ele><time>2026-04-16T11:27:17Z</time></trkpt><trkpt lat="44.843138187062785" lon="7.245476501345425"><ele>887.6</ele><time>2026-04-16T11:27:20Z</time></trkpt><trkpt lat="44.84307528148467" lon="7.24545926476689"><ele>891.4000000000001</ele><time>2026-04-16T11:27:21Z</time></trkpt><trkpt lat="44.84298573439405" lon="7.24541591032746"><ele>895.2</ele><time>2026-04-16T11:27:23Z</time></trkpt><trkpt lat="44.842922367360444" lon="7.245401445176734"><ele>899.0</ele><time>2026-04-16T11:27:24Z</time></trkpt><trkpt lat="44.84283561639585" lon="7.245390355702727"><ele>899.0</ele><time>2026-04-16T11:27:26Z</time></trkpt><trkpt lat="44.84276752199573" lon="7.245308333632983"><ele>899.0000000000001</ele><time>2026-04-16T11:27:28Z</time></trkpt><trkpt lat="44.8427067575831" lon="7.2452374982330285"><ele>899.0000000000001</ele><time>2026-04-16T11:27:30Z</time></trkpt><trkpt lat="44.842620422357314" lon="7.245211687043363"><ele>899.0</ele><time>2026-04-16T11:27:31Z</time></trkpt><trkpt lat="44.8424862262745" lon="7.245174442596949"><ele>899.0</ele><time>2026-04-16T11:27:33Z</time></trkpt><trkpt lat="44.842411895687206" lon="7.245139665945821"><ele>897.2</ele><time>2026-04-16T11:27:34Z</time></trkpt><trkpt lat="44.84233989624283" lon="7.245108513262639"><ele>895.4000000000001</ele><time>2026-04-16T11:27:35Z</time></trkpt><trkpt lat="44.842241441220565" lon="7.245079855761315"><ele>893.6</ele><time>2026-04-16T11:27:37Z</time></trkpt><trkpt lat="44.84210354348076" lon="7.245070893273972"><ele>891.8</ele><time>2026-04-16T11:27:39Z</time></trkpt><trkpt lat="44.84203390797136" lon="7.245079148056724"><ele>890.0</ele><time>2026-04-16T11:27:40Z</time></trkpt><trkpt lat="44.84196385948981" lon="7.245089843523632"><ele>890.0000000000001</ele><time>2026-04-16T11:27:41Z</time></trkpt><trkpt lat="44.84186944278991" lon="7.2450667092584125"><ele>890.0</ele><time>2026-04-16T11:27:43Z</time></trkpt><trkpt lat="44.841802019195335" lon="7.245031655647768"><ele>890.0</ele><time>2026-04-16T11:27:44Z</time></trkpt><trkpt lat="44.841733085716854" lon="7.244986361948708"><ele>890.0</ele><time>2026-04-16T11:27:45Z</time></trkpt><trkpt lat="44.84164017636907" lon="7.24493702088431"><ele>890.0000000000001</ele><time>2026-04-16T11:27:47Z</time></trkpt><trkpt lat="44.84157047310048" lon="7.2449073252803675"><ele>890.0</ele><time>2026-04-16T11:27:48Z</time></trkpt><trkpt lat="44.84149378393378" lon="7.244820921229838"><ele>893.4</ele><time>2026-04-16T11:27:50Z</time></trkpt><trkpt lat="44.841381198273055" lon="7.244736519678764"><ele>896.8</ele><time>2026-04-16T11:27:52Z</time></trkpt><trkpt lat="44.841312334255655" lon="7.2446616984792085"><ele>900.2</ele><time>2026-04-16T11:27:54Z</time></trkpt><trkpt lat="44.84124623559975" lon="7.244548742816782"><ele>903.6</ele><time>2026-04-16T11:27:56Z</time></trkpt><trkpt lat="44.84116193401501" lon="7.24446185389353"><ele>907.0</ele><time>2026-04-16T11:27:58Z</time></trkpt><trkpt lat="44.84111809171218" lon="7.244319572013777"><ele>907.0</ele><time>2026-04-16T11:28:00Z</time></trkpt><trkpt lat="44.84105127008308" lon="7.244227887126388"><ele>907.0</ele><time>2026-04-16T11:28:02Z</time></trkpt><trkpt lat="44.840984040409786" lon="7.244229017352622"><ele>907.0</ele><time>2026-04-16T11:28:05Z</time></trkpt><trkpt lat="44.840910490665166" lon="7.244269281489959"><ele>907.0</ele><time>2026-04-16T11:28:08Z</time></trkpt><trkpt lat="44.84082887511671" lon="7.244261095672941"><ele>907.0</ele><time>2026-04-16T11:28:10Z</time></trkpt><trkpt lat="44.840681043876266" lon="7.244266821914098"><ele>902.4000000000001</ele><time>2026-04-16T11:28:12Z</time></trkpt><trkpt lat="44.84058484588205" lon="7.244246168091693"><ele>897.8000000000001</ele><time>2026-04-16T11:28:13.001Z</time></trkpt><trkpt lat="44.84050991449216" lon="7.244239399365506"><ele>893.2</ele><time>2026-04-16T11:28:14.001Z</time></trkpt><trkpt lat="44.84043839560813" lon="7.244262410805121"><ele>888.6</ele><time>2026-04-16T11:28:15.001Z</time></trkpt><trkpt lat="44.84033957039242" lon="7.244286641967808"><ele>884.0</ele><time>2026-04-16T11:28:17.001Z</time></trkpt><trkpt lat="44.8402537677724" lon="7.244405178391481"><ele>884.0000000000001</ele><time>2026-04-16T11:28:19.001Z</time></trkpt><trkpt lat="44.840179791301054" lon="7.244447573697423"><ele>884.0</ele><time>2026-04-16T11:28:20.001Z</time></trkpt><trkpt lat="44.84011471300183" lon="7.2445474760549775"><ele>884.0</ele><time>2026-04-16T11:28:22.001Z</time></trkpt><trkpt lat="44.8400649477372" lon="7.244611699888601"><ele>884.0</ele><time>2026-04-16T11:28:23.001Z</time></trkpt><trkpt lat="44.839963301640964" lon="7.244716118901294"><ele>884.0000000000001</ele><time>2026-04-16T11:28:25.001Z</time></trkpt><trkpt lat="44.83990932107702" lon="7.244771715297884"><ele>884.0</ele><time>2026-04-16T11:28:26.001Z</time></trkpt><trkpt lat="44.83983706157462" lon="7.244814749750781"><ele>879.6666666666667</ele><time>2026-04-16T11:28:27.001Z</time></trkpt><trkpt lat="44.83976095600061" lon="7.24486117581401"><ele>875.3333333333334</ele><time>2026-04-16T11:28:28.001Z</time></trkpt><trkpt lat="44.83968982744549" lon="7.244907832563339"><ele>871.0</ele><time>2026-04-16T11:28:29.001Z</time></trkpt><trkpt lat="44.83964940732385" lon="7.24498995707472"><ele>866.6666666666667</ele><time>2026-04-16T11:28:30.001Z</time></trkpt><trkpt lat="44.83959771601029" lon="7.245067709076881"><ele>862.3333333333334</ele><time>2026-04-16T11:28:31.001Z</time></trkpt><trkpt lat="44.839535031130666" lon="7.245079822908552"><ele>858.0</ele><time>2026-04-16T11:28:33.001Z</time></trkpt><trkpt lat="44.839435972085845" lon="7.245159839164794"><ele>858.0</ele><time>2026-04-16T11:28:36.001Z</time></trkpt><trkpt lat="44.83934895591133" lon="7.245215313637651"><ele>858.0</ele><time>2026-04-16T11:28:37.001Z</time></trkpt><trkpt lat="44.839296453480955" lon="7.245293702520099"><ele>858.0</ele><time>2026-04-16T11:28:38.001Z</time></trkpt><trkpt lat="44.839190696622666" lon="7.245379001288908"><ele>858.0</ele><time>2026-04-16T11:28:40.001Z</time></trkpt><trkpt lat="44.83913243346124" lon="7.2454652105782005"><ele>858.0</ele><time>2026-04-16T11:28:42.001Z</time></trkpt><trkpt lat="44.839103855674786" lon="7.245544716767795"><ele>858.0</ele><time>2026-04-16T11:28:44.001Z</time></trkpt><trkpt lat="44.839010590598086" lon="7.245607145398171"><ele>858.3333333333334</ele><time>2026-04-16T11:28:46.001Z</time></trkpt><trkpt lat="44.8389442602426" lon="7.245680011921607"><ele>858.6666666666667</ele><time>2026-04-16T11:28:47.001Z</time></trkpt><trkpt lat="44.83888642178558" lon="7.245722900006613"><ele>859.0</ele><time>2026-04-16T11:28:48.001Z</time></trkpt><trkpt lat="44.83879162056478" lon="7.245755305861517"><ele>859.3333333333334</ele><time>2026-04-16T11:28:50.001Z</time></trkpt><trkpt lat="44.83870541171189" lon="7.2457892240704105"><ele>859.6666666666667</ele><time>2026-04-16T11:28:51.001Z</time></trkpt><trkpt lat="44.83860178528342" lon="7.245821681210131"><ele>860.0</ele><time>2026-04-16T11:28:52.001Z</time></trkpt><trkpt lat="44.83852905811139" lon="7.245855307146188"><ele>862.5000000000001</ele><time>2026-04-16T11:28:53.001Z</time></trkpt><trkpt lat="44.83843067432258" lon="7.245880412280441"><ele>865.0</ele><time>2026-04-16T11:28:55.001Z</time></trkpt><trkpt lat="44.83836767321138" lon="7.245803851940264"><ele>867.5</ele><time>2026-04-16T11:28:57.001Z</time></trkpt><trkpt lat="44.83833726680573" lon="7.245722996470392"><ele>870.0</ele><time>2026-04-16T11:28:58.001Z</time></trkpt><trkpt lat="44.83829530503913" lon="7.2455915854902155"><ele>872.5000000000001</ele><time>2026-04-16T11:29:00.001Z</time></trkpt><trkpt lat="44.83828207868514" lon="7.24549118680272"><ele>875.0</ele><time>2026-04-16T11:29:01.001Z</time></trkpt><trkpt lat="44.83823767670548" lon="7.245399523119723"><ele>878.3333333333334</ele><time>2026-04-16T11:29:02.001Z</time></trkpt><trkpt lat="44.83816656940395" lon="7.24530320150318"><ele>881.6666666666667</ele><time>2026-04-16T11:29:03.001Z</time></trkpt><trkpt lat="44.838104377318984" lon="7.245249045577844"><ele>885.0</ele><time>2026-04-16T11:29:04Z</time></trkpt><trkpt lat="44.83805801954744" lon="7.245131042808745"><ele>888.3333333333333</ele><time>2026-04-16T11:29:06Z</time></trkpt><trkpt lat="44.83799554057244" lon="7.24505725042631"><ele>891.6666666666666</ele><time>2026-04-16T11:29:07Z</time></trkpt><trkpt lat="44.837939422310185" lon="7.244990692989026"><ele>895.0</ele><time>2026-04-16T11:29:09Z</time></trkpt><trkpt lat="44.83791899044107" lon="7.244884989625416"><ele>895.0</ele><time>2026-04-16T11:29:11Z</time></trkpt><trkpt lat="44.83782633868821" lon="7.244812091205724"><ele>895.0</ele><time>2026-04-16T11:29:13Z</time></trkpt><trkpt lat="44.83781132854555" lon="7.244694268741917"><ele>895.0</ele><time>2026-04-16T11:29:14Z</time></trkpt><trkpt lat="44.83776650713999" lon="7.244567216790486"><ele>895.0</ele><time>2026-04-16T11:29:16Z</time></trkpt><trkpt lat="44.837696596956015" lon="7.244486877464605"><ele>895.0</ele><time>2026-04-16T11:29:18Z</time></trkpt><trkpt lat="44.83762511325431" lon="7.244431843328617"><ele>895.1666666666666</ele><time>2026-04-16T11:29:20Z</time></trkpt><trkpt lat="44.83754396533162" lon="7.244424020962195"><ele>895.3333333333333</ele><time>2026-04-16T11:29:23Z</time></trkpt><trkpt lat="44.837459045930935" lon="7.244382337679283"><ele>895.5</ele><time>2026-04-16T11:29:25Z</time></trkpt><trkpt lat="44.837372264429256" lon="7.244441647211563"><ele>895.6666666666667</ele><time>2026-04-16T11:29:27Z</time></trkpt><trkpt lat="44.83730237573106" lon="7.244458974371234"><ele>895.8333333333334</ele><time>2026-04-16T11:29:28Z</time></trkpt><trkpt lat="44.83722733895205" lon="7.244553951818378"><ele>896.0</ele><time>2026-04-16T11:29:29Z</time></trkpt><trkpt lat="44.83716502057746" lon="7.2446050196957446"><ele>896.0000000000001</ele><time>2026-04-16T11:29:30Z</time></trkpt><trkpt lat="44.837071432864605" lon="7.244611410361833"><ele>896.0</ele><time>2026-04-16T11:29:33Z</time></trkpt><trkpt lat="44.83699516961368" lon="7.244620724715558"><ele>896.0</ele><time>2026-04-16T11:29:35Z</time></trkpt><trkpt lat="44.83690287938702" lon="7.244631318028412"><ele>896.0</ele><time>2026-04-16T11:29:39Z</time></trkpt><trkpt lat="44.83683199142661" lon="7.244643344179161"><ele>896.0000000000001</ele><time>2026-04-16T11:29:41Z</time></trkpt><trkpt lat="44.836768248080574" lon="7.244624256373956"><ele>896.0</ele><time>2026-04-16T11:29:43Z</time></trkpt><trkpt lat="44.83669404842897" lon="7.2446149161148075"><ele>893.1666666666667</ele><time>2026-04-16T11:29:45Z</time></trkpt><trkpt lat="44.83662270674414" lon="7.244618217984836"><ele>890.3333333333334</ele><time>2026-04-16T11:29:49Z</time></trkpt><trkpt lat="44.83656014775242" lon="7.244647174396472"><ele>887.5</ele><time>2026-04-16T11:29:52Z</time></trkpt><trkpt lat="44.8364862933313" lon="7.244713042358288"><ele>884.6666666666667</ele><time>2026-04-16T11:29:54Z</time></trkpt><trkpt lat="44.8364277022234" lon="7.244822836056037"><ele>881.8333333333334</ele><time>2026-04-16T11:29:57.001Z</time></trkpt><trkpt lat="44.836375262609906" lon="7.244896129127845"><ele>879.0</ele><time>2026-04-16T11:29:59.001Z</time></trkpt><trkpt lat="44.83630343153065" lon="7.244991314487166"><ele>878.3333333333334</ele><time>2026-04-16T11:30:01.001Z</time></trkpt><trkpt lat="44.836237175536134" lon="7.245088223999906"><ele>877.6666666666667</ele><time>2026-04-16T11:30:03.001Z</time></trkpt><trkpt lat="44.83620572532593" lon="7.245178179925665"><ele>877.0</ele><time>2026-04-16T11:30:05.001Z</time></trkpt><trkpt lat="44.83613416857464" lon="7.245279346128353"><ele>876.3333333333334</ele><time>2026-04-16T11:30:07.001Z</time></trkpt><trkpt lat="44.83605992054507" lon="7.245326654569756"><ele>875.6666666666667</ele><time>2026-04-16T11:30:09.001Z</time></trkpt><trkpt lat="44.8359939872742" lon="7.245295612563829"><ele>875.0</ele><time>2026-04-16T11:30:11.001Z</time></trkpt><trkpt lat="44.83588575196484" lon="7.245257541902971"><ele>872.4</ele><time>2026-04-16T11:30:13.001Z</time></trkpt><trkpt lat="44.83578804220096" lon="7.24522059545805"><ele>869.8</ele><time>2026-04-16T11:30:15.001Z</time></trkpt><trkpt lat="44.83572305844041" lon="7.245139915065618"><ele>867.2</ele><time>2026-04-16T11:30:17.001Z</time></trkpt><trkpt lat="44.83566501101124" lon="7.244985305662377"><ele>864.6</ele><time>2026-04-16T11:30:19.001Z</time></trkpt><trkpt lat="44.83563461265766" lon="7.244835456477617"><ele>862.0</ele><time>2026-04-16T11:30:21.001Z</time></trkpt><trkpt lat="44.83563764558244" lon="7.24466836947406"><ele>860.8</ele><time>2026-04-16T11:30:23.001Z</time></trkpt><trkpt lat="44.835667220432256" lon="7.244580924749813"><ele>859.6</ele><time>2026-04-16T11:30:24.001Z</time></trkpt><trkpt lat="44.835714275788014" lon="7.244502091459384"><ele>858.3999999999999</ele><time>2026-04-16T11:30:25.001Z</time></trkpt><trkpt lat="44.835784541704406" lon="7.244424053525679"><ele>857.1999999999999</ele><time>2026-04-16T11:30:26.001Z</time></trkpt><trkpt lat="44.83589186143163" lon="7.244308232190477"><ele>856.0</ele><time>2026-04-16T11:30:27.001Z</time></trkpt><trkpt lat="44.83599539662096" lon="7.244180799210569"><ele>861.75</ele><time>2026-04-16T11:30:28.001Z</time></trkpt><trkpt lat="44.83610409142649" lon="7.244044209673166"><ele>867.5</ele><time>2026-04-16T11:30:29.001Z</time></trkpt><trkpt lat="44.836166407371074" lon="7.2439184526973275"><ele>873.25</ele><time>2026-04-16T11:30:30.001Z</time></trkpt><trkpt lat="44.8362221756489" lon="7.243791226071523"><ele>879.0</ele><time>2026-04-16T11:30:31.001Z</time></trkpt><trkpt lat="44.836261939186144" lon="7.243669655333632"><ele>879.0</ele><time>2026-04-16T11:30:32.001Z</time></trkpt><trkpt lat="44.83627864034402" lon="7.243547612229282"><ele>879.0000000000001</ele><time>2026-04-16T11:30:33.001Z</time></trkpt><trkpt lat="44.836291794871066" lon="7.243423845258792"><ele>879.0000000000001</ele><time>2026-04-16T11:30:34.001Z</time></trkpt><trkpt lat="44.83627059439032" lon="7.243256088626343"><ele>879.0</ele><time>2026-04-16T11:30:35.001Z</time></trkpt><trkpt lat="44.83624298438901" lon="7.243083875935682"><ele>879.0</ele><time>2026-04-16T11:30:36.001Z</time></trkpt><trkpt lat="44.836201772359274" lon="7.242886599576715"><ele>879.5</ele><time>2026-04-16T11:30:37.001Z</time></trkpt><trkpt lat="44.836161030139664" lon="7.242687800516781"><ele>880.0</ele><time>2026-04-16T11:30:38.001Z</time></trkpt><trkpt lat="44.83614270507081" lon="7.242498405465989"><ele>880.5</ele><time>2026-04-16T11:30:39.001Z</time></trkpt><trkpt lat="44.8361143509456" lon="7.242327644903082"><ele>881.0</ele><time>2026-04-16T11:30:40.001Z</time></trkpt><trkpt lat="44.83608050492725" lon="7.242163315254049"><ele>882.0</ele><time>2026-04-16T11:30:41.001Z</time></trkpt><trkpt lat="44.83605244306294" lon="7.242003073434066"><ele>882.9999999999999</ele><time>2026-04-16T11:30:42.001Z</time></trkpt><trkpt lat="44.83602643199164" lon="7.241856234046696"><ele>883.9999999999999</ele><time>2026-04-16T11:30:43.001Z</time></trkpt><trkpt lat="44.836012525149926" lon="7.241737122926088"><ele>885.0</ele><time>2026-04-16T11:30:44.001Z</time></trkpt><trkpt lat="44.83602654529917" lon="7.24163379868049"><ele>886.0</ele><time>2026-04-16T11:30:45.001Z</time></trkpt><trkpt lat="44.8360589809296" lon="7.24152855045899"><ele>885.8</ele><time>2026-04-16T11:30:46.001Z</time></trkpt><trkpt lat="44.836065453078454" lon="7.241415496036137"><ele>885.5999999999999</ele><time>2026-04-16T11:30:47.001Z</time></trkpt><trkpt lat="44.83603173868368" lon="7.241311442727662"><ele>885.4</ele><time>2026-04-16T11:30:48.001Z</time></trkpt><trkpt lat="44.835960153126315" lon="7.241213064027989"><ele>885.2</ele><time>2026-04-16T11:30:49.001Z</time></trkpt><trkpt lat="44.83587452368186" lon="7.241122566043622"><ele>885.0</ele><time>2026-04-16T11:30:50.001Z</time></trkpt><trkpt lat="44.83577724045813" lon="7.241038677773411"><ele>879.8</ele><time>2026-04-16T11:30:51.001Z</time></trkpt><trkpt lat="44.83573274345734" lon="7.2409332967235365"><ele>874.6</ele><time>2026-04-16T11:30:52.001Z</time></trkpt><trkpt lat="44.83572047458658" lon="7.2408161678688865"><ele>869.4000000000001</ele><time>2026-04-16T11:30:53.001Z</time></trkpt><trkpt lat="44.83572445150029" lon="7.240680155151181"><ele>864.2</ele><time>2026-04-16T11:30:54.001Z</time></trkpt><trkpt lat="44.83574145342891" lon="7.240501175849797"><ele>859.0</ele><time>2026-04-16T11:30:55.001Z</time></trkpt><trkpt lat="44.83575479562153" lon="7.240341494222319"><ele>858.9999999999999</ele><time>2026-04-16T11:30:56.001Z</time></trkpt><trkpt lat="44.83575949337104" lon="7.240217263800783"><ele>859.0</ele><time>2026-04-16T11:30:57.001Z</time></trkpt><trkpt lat="44.83573915430174" lon="7.240121924600667"><ele>859.0</ele><time>2026-04-16T11:30:58.001Z</time></trkpt><trkpt lat="44.83569957850575" lon="7.240022558770251"><ele>859.0</ele><time>2026-04-16T11:30:59.001Z</time></trkpt><trkpt lat="44.835621174837826" lon="7.239937430763854"><ele>858.9999999999999</ele><time>2026-04-16T11:31:00.001Z</time></trkpt><trkpt lat="44.83552314623185" lon="7.239903542464836"><ele>859.0</ele><time>2026-04-16T11:31:01.001Z</time></trkpt><trkpt lat="44.83540483344683" lon="7.239855390340295"><ele>859.5</ele><time>2026-04-16T11:31:02.001Z</time></trkpt><trkpt lat="44.83527094386997" lon="7.239767568116237"><ele>860.0</ele><time>2026-04-16T11:31:03.001Z</time></trkpt><trkpt lat="44.83514269599906" lon="7.239695932491393"><ele>860.5</ele><time>2026-04-16T11:31:04.001Z</time></trkpt><trkpt lat="44.835028884073836" lon="7.239649969451239"><ele>861.0</ele><time>2026-04-16T11:31:05.001Z</time></trkpt><trkpt lat="44.83494207557787" lon="7.239614451932918"><ele>857.0</ele><time>2026-04-16T11:31:06.001Z</time></trkpt><trkpt lat="44.83487219771804" lon="7.239578124800628"><ele>853.0</ele><time>2026-04-16T11:31:07.001Z</time></trkpt><trkpt lat="44.83482238736499" lon="7.239517012629198"><ele>849.0</ele><time>2026-04-16T11:31:08.001Z</time></trkpt><trkpt lat="44.83478942814463" lon="7.239429851921172"><ele>845.0</ele><time>2026-04-16T11:31:09.001Z</time></trkpt><trkpt lat="44.83481480409039" lon="7.239313437594842"><ele>841.0</ele><time>2026-04-16T11:31:10Z</time></trkpt><trkpt lat="44.83481423467967" lon="7.239182034707498"><ele>837.0</ele><time>2026-04-16T11:31:11Z</time></trkpt><trkpt lat="44.834811246926044" lon="7.239016608639549"><ele>836.5</ele><time>2026-04-16T11:31:12Z</time></trkpt><trkpt lat="44.83478018527757" lon="7.238837496994418"><ele>836.0</ele><time>2026-04-16T11:31:13Z</time></trkpt><trkpt lat="44.83472936341391" lon="7.238659421882377"><ele>835.5</ele><time>2026-04-16T11:31:14Z</time></trkpt><trkpt lat="44.83469762565296" lon="7.2384888704903165"><ele>835.0</ele><time>2026-04-16T11:31:15Z</time></trkpt><trkpt lat="44.83469370085992" lon="7.2383311048641685"><ele>835.0</ele><time>2026-04-16T11:31:16Z</time></trkpt><trkpt lat="44.834714989270594" lon="7.2381819781344285"><ele>835.0</ele><time>2026-04-16T11:31:17Z</time></trkpt><trkpt lat="44.83474866384193" lon="7.238026687755982"><ele>835.0</ele><time>2026-04-16T11:31:18Z</time></trkpt><trkpt lat="44.83480844244159" lon="7.237842913908154"><ele>835.0</ele><time>2026-04-16T11:31:19Z</time></trkpt><trkpt lat="44.834859761534915" lon="7.237733264221856"><ele>834.3333333333333</ele><time>2026-04-16T11:31:20Z</time></trkpt><trkpt lat="44.83488426294981" lon="7.237614519415232"><ele>833.6666666666666</ele><time>2026-04-16T11:31:22Z</time></trkpt><trkpt lat="44.83492538078297" lon="7.237519310977616"><ele>833.0</ele><time>2026-04-16T11:31:38Z</time></trkpt><trkpt lat="44.83496330555869" lon="7.237438921361748"><ele>832.3333333333333</ele><time>2026-04-16T11:31:39Z</time></trkpt><trkpt lat="44.835002001535784" lon="7.237345321740996"><ele>831.6666666666666</ele><time>2026-04-16T11:31:40Z</time></trkpt><trkpt lat="44.835061431054285" lon="7.237227100118761"><ele>831.0</ele><time>2026-04-16T11:31:41Z</time></trkpt><trkpt lat="44.835134815183594" lon="7.237138689994205"><ele>828.4</ele><time>2026-04-16T11:31:42Z</time></trkpt><trkpt lat="44.83520362358221" lon="7.237055096442008"><ele>825.8</ele><time>2026-04-16T11:31:43Z</time></trkpt><trkpt lat="44.83525046591942" lon="7.236956160253544"><ele>823.1999999999999</ele><time>2026-04-16T11:31:44Z</time></trkpt><trkpt lat="44.835275743492296" lon="7.23681124081863"><ele>820.5999999999999</ele><time>2026-04-16T11:31:45Z</time></trkpt><trkpt lat="44.835275675738814" lon="7.236670189398458"><ele>818.0</ele><time>2026-04-16T11:31:46Z</time></trkpt><trkpt lat="44.835257016206896" lon="7.236502474534092"><ele>814.75</ele><time>2026-04-16T11:31:47Z</time></trkpt><trkpt lat="44.8352460727149" lon="7.2363303268474"><ele>811.5</ele><time>2026-04-16T11:31:48Z</time></trkpt><trkpt lat="44.835241313568794" lon="7.236159023901216"><ele>808.25</ele><time>2026-04-16T11:31:49Z</time></trkpt><trkpt lat="44.835237226802214" lon="7.236005322482565"><ele>805.0</ele><time>2026-04-16T11:31:50Z</time></trkpt><trkpt lat="44.83524432462646" lon="7.235852757515508"><ele>805.0</ele><time>2026-04-16T11:31:51Z</time></trkpt><trkpt lat="44.83526270848837" lon="7.235697406775646"><ele>805.0</ele><time>2026-04-16T11:31:52Z</time></trkpt><trkpt lat="44.83530130835092" lon="7.235537242504474"><ele>805.0</ele><time>2026-04-16T11:31:53Z</time></trkpt><trkpt lat="44.83535976676476" lon="7.235368665040114"><ele>805.0</ele><time>2026-04-16T11:31:54Z</time></trkpt><trkpt lat="44.8354226174626" lon="7.235173760177866"><ele>803.75</ele><time>2026-04-16T11:31:55Z</time></trkpt><trkpt lat="44.835462021426245" lon="7.234967427971653"><ele>802.5</ele><time>2026-04-16T11:31:56Z</time></trkpt><trkpt lat="44.835489061863676" lon="7.23477730514375"><ele>801.25</ele><time>2026-04-16T11:31:57Z</time></trkpt><trkpt lat="44.83551606740578" lon="7.23461889554849"><ele>800.0</ele><time>2026-04-16T11:31:58Z</time></trkpt><trkpt lat="44.83552855737731" lon="7.234452055892352"><ele>799.6</ele><time>2026-04-16T11:31:59Z</time></trkpt><trkpt lat="44.83553647521273" lon="7.234282455458522"><ele>799.2</ele><time>2026-04-16T11:32:00Z</time></trkpt><trkpt lat="44.83552437459078" lon="7.234144302116055"><ele>798.8</ele><time>2026-04-16T11:32:01Z</time></trkpt><trkpt lat="44.835502937516836" lon="7.233989947499989"><ele>798.4</ele><time>2026-04-16T11:32:02Z</time></trkpt><trkpt lat="44.835472326477884" lon="7.233836541341998"><ele>798.0</ele><time>2026-04-16T11:32:03.001Z</time></trkpt><trkpt lat="44.835418516230355" lon="7.233701599671176"><ele>798.5</ele><time>2026-04-16T11:32:04.001Z</time></trkpt><trkpt lat="44.83533303444437" lon="7.233569427575812"><ele>799.0</ele><time>2026-04-16T11:32:05.001Z</time></trkpt><trkpt lat="44.83523065361355" lon="7.233413474669395"><ele>799.5</ele><time>2026-04-16T11:32:06.001Z</time></trkpt><trkpt lat="44.835143295560584" lon="7.233238744273688"><ele>800.0</ele><time>2026-04-16T11:32:07.001Z</time></trkpt><trkpt lat="44.835095294308196" lon="7.233045144933696"><ele>800.0</ele><time>2026-04-16T11:32:08.001Z</time></trkpt><trkpt lat="44.83506811009709" lon="7.232870035317835"><ele>800.0</ele><time>2026-04-16T11:32:09.001Z</time></trkpt><trkpt lat="44.83506036452803" lon="7.232697023783474"><ele>800.0</ele><time>2026-04-16T11:32:10.001Z</time></trkpt><trkpt lat="44.83507126235579" lon="7.232493920033881"><ele>800.0</ele><time>2026-04-16T11:32:11.001Z</time></trkpt><trkpt lat="44.83507712150492" lon="7.232287040283631"><ele>798.5</ele><time>2026-04-16T11:32:12.001Z</time></trkpt><trkpt lat="44.835083644135935" lon="7.232097299954004"><ele>797.0</ele><time>2026-04-16T11:32:13.001Z</time></trkpt><trkpt lat="44.83508935648552" lon="7.231928933114474"><ele>795.5</ele><time>2026-04-16T11:32:14.001Z</time></trkpt><trkpt lat="44.83510919228916" lon="7.23179531747701"><ele>794.0</ele><time>2026-04-16T11:32:15.001Z</time></trkpt><trkpt lat="44.835171570113" lon="7.231604476331827"><ele>790.5000000000001</ele><time>2026-04-16T11:32:16.001Z</time></trkpt><trkpt lat="44.8352281592884" lon="7.231507574472972"><ele>787.0</ele><time>2026-04-16T11:32:17.001Z</time></trkpt><trkpt lat="44.83525521132259" lon="7.231414021576132"><ele>783.5</ele><time>2026-04-16T11:32:18.001Z</time></trkpt><trkpt lat="44.83527656797128" lon="7.231322406165807"><ele>780.0</ele><time>2026-04-16T11:32:19.001Z</time></trkpt><trkpt lat="44.835297476489885" lon="7.231215192591541"><ele>776.5000000000001</ele><time>2026-04-16T11:32:20.001Z</time></trkpt><trkpt lat="44.835262963441615" lon="7.231126413075532"><ele>773.0</ele><time>2026-04-16T11:32:21.001Z</time></trkpt><trkpt lat="44.83519845183147" lon="7.231059046203131"><ele>775.4</ele><time>2026-04-16T11:32:22.001Z</time></trkpt><trkpt lat="44.83512803815119" lon="7.23101509761902"><ele>777.8</ele><time>2026-04-16T11:32:23.001Z</time></trkpt><trkpt lat="44.83503886413576" lon="7.231022595346168"><ele>780.2</ele><time>2026-04-16T11:32:24.001Z</time></trkpt><trkpt lat="44.834943767461056" lon="7.231041819743806"><ele>782.6</ele><time>2026-04-16T11:32:25.001Z</time></trkpt><trkpt lat="44.83483682957656" lon="7.231068056526143"><ele>785.0</ele><time>2026-04-16T11:32:26.001Z</time></trkpt><trkpt lat="44.83471763507066" lon="7.2310823091109615"><ele>785.0</ele><time>2026-04-16T11:32:27.001Z</time></trkpt><trkpt lat="44.834591234309926" lon="7.23109039686601"><ele>785.0</ele><time>2026-04-16T11:32:28.001Z</time></trkpt><trkpt lat="44.83447263173194" lon="7.231083554572538"><ele>785.0</ele><time>2026-04-16T11:32:29.001Z</time></trkpt><trkpt lat="44.834352630496504" lon="7.231082477132624"><ele>785.0</ele><time>2026-04-16T11:32:30.001Z</time></trkpt><trkpt lat="44.8342556358875" lon="7.231072132891972"><ele>784.1666666666667</ele><time>2026-04-16T11:32:31.001Z</time></trkpt><trkpt lat="44.83417966746632" lon="7.231066397948629"><ele>783.3333333333334</ele><time>2026-04-16T11:32:32.001Z</time></trkpt><trkpt lat="44.83411612377496" lon="7.231089389225932"><ele>782.5</ele><time>2026-04-16T11:32:33.001Z</time></trkpt><trkpt lat="44.834056506029995" lon="7.231156837109614"><ele>781.6666666666667</ele><time>2026-04-16T11:32:34.001Z</time></trkpt><trkpt lat="44.83405149010999" lon="7.231281014018685"><ele>780.8333333333334</ele><time>2026-04-16T11:32:35.001Z</time></trkpt><trkpt lat="44.83405458268802" lon="7.23141053645292"><ele>780.0</ele><time>2026-04-16T11:32:36.001Z</time></trkpt><trkpt lat="44.83407029509015" lon="7.231544751058161"><ele>780.0</ele><time>2026-04-16T11:32:37.001Z</time></trkpt><trkpt lat="44.834080654181975" lon="7.231690138478139"><ele>780.0</ele><time>2026-04-16T11:32:38.001Z</time></trkpt><trkpt lat="44.83407511673404" lon="7.231820678738251"><ele>780.0</ele><time>2026-04-16T11:32:39.001Z</time></trkpt><trkpt lat="44.834089469600215" lon="7.232052233877372"><ele>780.0</ele><time>2026-04-16T11:32:40.001Z</time></trkpt><trkpt lat="44.83407484974051" lon="7.2322566986429875"><ele>779.25</ele><time>2026-04-16T11:32:41.001Z</time></trkpt><trkpt lat="44.83407340365212" lon="7.232468598397307"><ele>778.5</ele><time>2026-04-16T11:32:42.001Z</time></trkpt><trkpt lat="44.83409087946228" lon="7.232652566280933"><ele>777.75</ele><time>2026-04-16T11:32:43.001Z</time></trkpt><trkpt lat="44.83410616563959" lon="7.232817931500842"><ele>777.0</ele><time>2026-04-16T11:32:44.001Z</time></trkpt><trkpt lat="44.834116599282666" lon="7.232951992033025"><ele>777.0</ele><time>2026-04-16T11:32:45.001Z</time></trkpt><trkpt lat="44.83410017628763" lon="7.233083236700441"><ele>777.0</ele><time>2026-04-16T11:32:46.001Z</time></trkpt><trkpt lat="44.83404272864695" lon="7.233214561146726"><ele>777.0</ele><time>2026-04-16T11:32:47.001Z</time></trkpt><trkpt lat="44.83398672718988" lon="7.233365123713752"><ele>777.0</ele><time>2026-04-16T11:32:48.001Z</time></trkpt><trkpt lat="44.83396833234758" lon="7.233529070485002"><ele>777.0</ele><time>2026-04-16T11:32:49.001Z</time></trkpt><trkpt lat="44.83394600042887" lon="7.233703419487156"><ele>777.8</ele><time>2026-04-16T11:32:50.001Z</time></trkpt><trkpt lat="44.83390836519205" lon="7.23386086194357"><ele>778.6</ele><time>2026-04-16T11:32:51.001Z</time></trkpt><trkpt lat="44.833879408035955" lon="7.233993577634278"><ele>779.4</ele><time>2026-04-16T11:32:52.001Z</time></trkpt><trkpt lat="44.83386671150789" lon="7.234115085228043"><ele>780.1999999999999</ele><time>2026-04-16T11:32:53.001Z</time></trkpt><trkpt lat="44.833858219794585" lon="7.234209165637873"><ele>781.0</ele><time>2026-04-16T11:32:54.001Z</time></trkpt><trkpt lat="44.83380302502359" lon="7.234335565865646"><ele>780.9999999999999</ele><time>2026-04-16T11:32:56.001Z</time></trkpt><trkpt lat="44.833718575603484" lon="7.234270437317753"><ele>781.0</ele><time>2026-04-16T11:32:58.001Z</time></trkpt><trkpt lat="44.83369248879754" lon="7.234187662804524"><ele>781.0</ele><time>2026-04-16T11:32:59.001Z</time></trkpt><trkpt lat="44.83368276438956" lon="7.234089850162185"><ele>781.0</ele><time>2026-04-16T11:33:00.001Z</time></trkpt><trkpt lat="44.833669351001426" lon="7.233979382045195"><ele>780.9999999999999</ele><time>2026-04-16T11:33:01.001Z</time></trkpt><trkpt lat="44.83366061333236" lon="7.233821710174106"><ele>781.0</ele><time>2026-04-16T11:33:02.001Z</time></trkpt><trkpt lat="44.833669062851" lon="7.233631224113762"><ele>781.0</ele><time>2026-04-16T11:33:03.001Z</time></trkpt><trkpt lat="44.83368943563803" lon="7.233417867544995"><ele>781.0</ele><time>2026-04-16T11:33:04.001Z</time></trkpt><trkpt lat="44.83372169591938" lon="7.23321842637845"><ele>781.0</ele><time>2026-04-16T11:33:05.001Z</time></trkpt><trkpt lat="44.833756010024416" lon="7.233026412711221"><ele>781.0</ele><time>2026-04-16T11:33:06.001Z</time></trkpt><trkpt lat="44.833783149546086" lon="7.232861728609066"><ele>780.8</ele><time>2026-04-16T11:33:07.001Z</time></trkpt><trkpt lat="44.83379818462011" lon="7.232719490113974"><ele>780.5999999999999</ele><time>2026-04-16T11:33:08.001Z</time></trkpt><trkpt lat="44.83379510412299" lon="7.232573202304367"><ele>780.4</ele><time>2026-04-16T11:33:09.001Z</time></trkpt><trkpt lat="44.833767670769475" lon="7.232430874392535"><ele>780.2</ele><time>2026-04-16T11:33:10.001Z</time></trkpt><trkpt lat="44.8337079960941" lon="7.2322836437739015"><ele>780.0</ele><time>2026-04-16T11:33:11.001Z</time></trkpt><trkpt lat="44.833626273063295" lon="7.232142601748561"><ele>780.0</ele><time>2026-04-16T11:33:12.001Z</time></trkpt><trkpt lat="44.83355720421711" lon="7.232017202636836"><ele>780.0</ele><time>2026-04-16T11:33:13.001Z</time></trkpt><trkpt lat="44.83350236858813" lon="7.231872273043619"><ele>780.0</ele><time>2026-04-16T11:33:14.001Z</time></trkpt><trkpt lat="44.833453630701456" lon="7.231709276111126"><ele>780.0</ele><time>2026-04-16T11:33:15.001Z</time></trkpt><trkpt lat="44.83341344901789" lon="7.231531480646369"><ele>772.5</ele><time>2026-04-16T11:33:16Z</time></trkpt><trkpt lat="44.83338840825396" lon="7.2313576865630305"><ele>765.0</ele><time>2026-04-16T11:33:17Z</time></trkpt><trkpt lat="44.83335454169316" lon="7.231173594895061"><ele>757.5</ele><time>2026-04-16T11:33:18Z</time></trkpt><trkpt lat="44.83330208618343" lon="7.231003412137464"><ele>750.0</ele><time>2026-04-16T11:33:19Z</time></trkpt><trkpt lat="44.833236844700245" lon="7.230830737843633"><ele>750.0</ele><time>2026-04-16T11:33:20Z</time></trkpt><trkpt lat="44.83317401094401" lon="7.230679680698688"><ele>750.0</ele><time>2026-04-16T11:33:21Z</time></trkpt><trkpt lat="44.833099999656646" lon="7.230526969883093"><ele>750.0</ele><time>2026-04-16T11:33:22Z</time></trkpt><trkpt lat="44.83302588804945" lon="7.230392311587799"><ele>750.0</ele><time>2026-04-16T11:33:23Z</time></trkpt><trkpt lat="44.83296290898441" lon="7.230271240946998"><ele>748.8</ele><time>2026-04-16T11:33:24Z</time></trkpt><trkpt lat="44.83291546255924" lon="7.230158407265472"><ele>747.6</ele><time>2026-04-16T11:33:25Z</time></trkpt><trkpt lat="44.83287982572707" lon="7.230033591723958"><ele>746.4000000000001</ele><time>2026-04-16T11:33:26Z</time></trkpt><trkpt lat="44.83287704597851" lon="7.229902897759596"><ele>745.2</ele><time>2026-04-16T11:33:27Z</time></trkpt><trkpt lat="44.832922651437066" lon="7.229799275959309"><ele>744.0</ele><time>2026-04-16T11:33:28Z</time></trkpt><trkpt lat="44.83298080419636" lon="7.229698833434839"><ele>741.4000000000001</ele><time>2026-04-16T11:33:29Z</time></trkpt><trkpt lat="44.833034994874794" lon="7.229581908548915"><ele>738.8</ele><time>2026-04-16T11:33:30Z</time></trkpt><trkpt lat="44.83309156057643" lon="7.229458727099474"><ele>736.2</ele><time>2026-04-16T11:33:31Z</time></trkpt><trkpt lat="44.83315339022032" lon="7.2293251192850825"><ele>733.5999999999999</ele><time>2026-04-16T11:33:32Z</time></trkpt><trkpt lat="44.83321571622171" lon="7.2291860562999375"><ele>731.0</ele><time>2026-04-16T11:33:33Z</time></trkpt><trkpt lat="44.8332753805143" lon="7.229069914356356"><ele>731.0</ele><time>2026-04-16T11:33:34Z</time></trkpt><trkpt lat="44.83334240109834" lon="7.228980975520862"><ele>731.0</ele><time>2026-04-16T11:33:35Z</time></trkpt><trkpt lat="44.83342652541482" lon="7.228903057803405"><ele>731.0</ele><time>2026-04-16T11:33:36Z</time></trkpt><trkpt lat="44.83352240048313" lon="7.228822450899543"><ele>731.0</ele><time>2026-04-16T11:33:37Z</time></trkpt><trkpt lat="44.83361949326168" lon="7.228729485662836"><ele>731.0</ele><time>2026-04-16T11:33:38Z</time></trkpt><trkpt lat="44.83372616305624" lon="7.2286444376210275"><ele>729.0</ele><time>2026-04-16T11:33:39Z</time></trkpt><trkpt lat="44.83384000381411" lon="7.22856218344267"><ele>727.0</ele><time>2026-04-16T11:33:40Z</time></trkpt><trkpt lat="44.833945055433695" lon="7.228490678609364"><ele>725.0</ele><time>2026-04-16T11:33:41Z</time></trkpt><trkpt lat="44.83400430765353" lon="7.228436204932757"><ele>723.0</ele><time>2026-04-16T11:33:42Z</time></trkpt><trkpt lat="44.834067652144356" lon="7.228426748611856"><ele>721.0</ele><time>2026-04-16T11:33:43Z</time></trkpt><trkpt lat="44.8341382835599" lon="7.228464820953913"><ele>721.0</ele><time>2026-04-16T11:33:44Z</time></trkpt><trkpt lat="44.834205413290135" lon="7.228535827194062"><ele>721.0</ele><time>2026-04-16T11:33:45Z</time></trkpt><trkpt lat="44.834319956491" lon="7.228537637212632"><ele>721.0</ele><time>2026-04-16T11:33:47Z</time></trkpt><trkpt lat="44.83435838860535" lon="7.2284623242456645"><ele>721.0</ele><time>2026-04-16T11:33:48Z</time></trkpt><trkpt lat="44.83435876215675" lon="7.228318800344108"><ele>721.0</ele><time>2026-04-16T11:33:50Z</time></trkpt><trkpt lat="44.83427882976668" lon="7.228215850213814"><ele>721.0</ele><time>2026-04-16T11:33:52Z</time></trkpt><trkpt lat="44.83416139959681" lon="7.228185462763484"><ele>721.0</ele><time>2026-04-16T11:33:53Z</time></trkpt><trkpt lat="44.834079095782414" lon="7.228128803886566"><ele>721.0</ele><time>2026-04-16T11:33:54Z</time></trkpt><trkpt lat="44.834007139290506" lon="7.228078574204305"><ele>721.0</ele><time>2026-04-16T11:33:55Z</time></trkpt><trkpt lat="44.83393181561351" lon="7.228078702994308"><ele>721.0</ele><time>2026-04-16T11:33:56Z</time></trkpt><trkpt lat="44.83384842382921" lon="7.228121592678656"><ele>721.0</ele><time>2026-04-16T11:33:57Z</time></trkpt><trkpt lat="44.833747707314664" lon="7.228181684546989"><ele>721.0</ele><time>2026-04-16T11:33:58Z</time></trkpt><trkpt lat="44.83363827624539" lon="7.22826423940321"><ele>721.0</ele><time>2026-04-16T11:33:59Z</time></trkpt><trkpt lat="44.83348835001803" lon="7.228333711123813"><ele>721.0</ele><time>2026-04-16T11:34:00Z</time></trkpt><trkpt lat="44.83336943784579" lon="7.228382961960133"><ele>719.4</ele><time>2026-04-16T11:34:01Z</time></trkpt><trkpt lat="44.83326389676635" lon="7.228393408636014"><ele>717.8</ele><time>2026-04-16T11:34:02Z</time></trkpt><trkpt lat="44.833155046341496" lon="7.228366635041752"><ele>716.1999999999999</ele><time>2026-04-16T11:34:03Z</time></trkpt><trkpt lat="44.833045671450435" lon="7.228339850348382"><ele>714.5999999999999</ele><time>2026-04-16T11:34:04Z</time></trkpt><trkpt lat="44.83293023548989" lon="7.228286037180944"><ele>713.0</ele><time>2026-04-16T11:34:05Z</time></trkpt><trkpt lat="44.832823674969646" lon="7.228197513024718"><ele>709.4</ele><time>2026-04-16T11:34:06Z</time></trkpt><trkpt lat="44.832745875696276" lon="7.228094731187162"><ele>705.8</ele><time>2026-04-16T11:34:07Z</time></trkpt><trkpt lat="44.832665850276626" lon="7.228026115009296"><ele>702.2</ele><time>2026-04-16T11:34:08Z</time></trkpt><trkpt lat="44.83258255756886" lon="7.227998494878513"><ele>698.6</ele><time>2026-04-16T11:34:09Z</time></trkpt><trkpt lat="44.8324738982492" lon="7.228004409211694"><ele>695.0</ele><time>2026-04-16T11:34:10Z</time></trkpt><trkpt lat="44.832379683993516" lon="7.228000568181066"><ele>694.3333333333333</ele><time>2026-04-16T11:34:11Z</time></trkpt><trkpt lat="44.832296406453594" lon="7.227997936835094"><ele>693.6666666666666</ele><time>2026-04-16T11:34:12.001Z</time></trkpt><trkpt lat="44.83222378254623" lon="7.228039505827173"><ele>693.0</ele><time>2026-04-16T11:34:13.001Z</time></trkpt><trkpt lat="44.83215130213582" lon="7.228053720543057"><ele>692.3333333333334</ele><time>2026-04-16T11:34:14.001Z</time></trkpt><trkpt lat="44.83210739492304" lon="7.227973980561889"><ele>691.6666666666667</ele><time>2026-04-16T11:34:16.001Z</time></trkpt><trkpt lat="44.83210915593664" lon="7.227838366331423"><ele>691.0</ele><time>2026-04-16T11:34:18.001Z</time></trkpt><trkpt lat="44.83216204202495" lon="7.2277742705516586"><ele>691.0</ele><time>2026-04-16T11:34:19.001Z</time></trkpt><trkpt lat="44.83226490500128" lon="7.227665810461195"><ele>691.0</ele><time>2026-04-16T11:34:20.001Z</time></trkpt><trkpt lat="44.832375859768575" lon="7.227566240438427"><ele>691.0</ele><time>2026-04-16T11:34:21.001Z</time></trkpt><trkpt lat="44.832502100850554" lon="7.2274757051892475"><ele>691.0</ele><time>2026-04-16T11:34:22.001Z</time></trkpt><trkpt lat="44.832610368789844" lon="7.227437838953194"><ele>691.8</ele><time>2026-04-16T11:34:23.001Z</time></trkpt><trkpt lat="44.83269288866406" lon="7.227378740981472"><ele>692.5999999999999</ele><time>2026-04-16T11:34:24.001Z</time></trkpt><trkpt lat="44.83273659420484" lon="7.22730905522693"><ele>693.4</ele><time>2026-04-16T11:34:25.001Z</time></trkpt><trkpt lat="44.83275212129059" lon="7.227181046480315"><ele>694.2</ele><time>2026-04-16T11:34:26.001Z</time></trkpt><trkpt lat="44.83274711084196" lon="7.2270052791292585"><ele>695.0</ele><time>2026-04-16T11:34:27.001Z</time></trkpt><trkpt lat="44.83275071498237" lon="7.226864891980233"><ele>692.0</ele><time>2026-04-16T11:34:28.001Z</time></trkpt><trkpt lat="44.83279375376504" lon="7.226722340304402"><ele>689.0</ele><time>2026-04-16T11:34:29.001Z</time></trkpt><trkpt lat="44.83289250998421" lon="7.226542010913126"><ele>686.0</ele><time>2026-04-16T11:34:30.001Z</time></trkpt><trkpt lat="44.83297930284435" lon="7.226398555723151"><ele>683.0</ele><time>2026-04-16T11:34:31.001Z</time></trkpt><trkpt lat="44.833059131325534" lon="7.2262737444942475"><ele>678.0</ele><time>2026-04-16T11:34:32.001Z</time></trkpt><trkpt lat="44.83316344859474" lon="7.226180559400353"><ele>673.0</ele><time>2026-04-16T11:34:33.001Z</time></trkpt><trkpt lat="44.83326476002671" lon="7.226094813912173"><ele>668.0</ele><time>2026-04-16T11:34:34.001Z</time></trkpt><trkpt lat="44.833379014266896" lon="7.226035592726731"><ele>663.0</ele><time>2026-04-16T11:34:35.001Z</time></trkpt><trkpt lat="44.83349523710614" lon="7.225993856963289"><ele>662.0</ele><time>2026-04-16T11:34:36.001Z</time></trkpt><trkpt lat="44.83361975168694" lon="7.225980037011974"><ele>661.0</ele><time>2026-04-16T11:34:37.001Z</time></trkpt><trkpt lat="44.83374252926075" lon="7.2259931451174895"><ele>660.0</ele><time>2026-04-16T11:34:38.001Z</time></trkpt><trkpt lat="44.83388265493961" lon="7.226034745648947"><ele>659.0</ele><time>2026-04-16T11:34:39.001Z</time></trkpt><trkpt lat="44.834032245205066" lon="7.226095713582046"><ele>659.0</ele><time>2026-04-16T11:34:40.001Z</time></trkpt><trkpt lat="44.834155641471234" lon="7.226160816170801"><ele>659.0</ele><time>2026-04-16T11:34:41.001Z</time></trkpt><trkpt lat="44.83425969994904" lon="7.226230677800821"><ele>659.0</ele><time>2026-04-16T11:34:42.001Z</time></trkpt><trkpt lat="44.83433544330605" lon="7.226265090645973"><ele>659.0</ele><time>2026-04-16T11:34:43.001Z</time></trkpt><trkpt lat="44.83443522254684" lon="7.226294975642058"><ele>659.0</ele><time>2026-04-16T11:34:44.001Z</time></trkpt><trkpt lat="44.83450671437699" lon="7.226287541145248"><ele>658.6</ele><time>2026-04-16T11:34:45.001Z</time></trkpt><trkpt lat="44.83457989343594" lon="7.226213661256189"><ele>658.2</ele><time>2026-04-16T11:34:46.001Z</time></trkpt><trkpt lat="44.83461982514816" lon="7.226136635191492"><ele>657.8000000000001</ele><time>2026-04-16T11:34:47.001Z</time></trkpt><trkpt lat="44.83466474579361" lon="7.2260201399924"><ele>657.4000000000001</ele><time>2026-04-16T11:34:49.001Z</time></trkpt><trkpt lat="44.83460734499158" lon="7.2259457123509865"><ele>657.0</ele><time>2026-04-16T11:34:51.001Z</time></trkpt><trkpt lat="44.83446046281818" lon="7.225911817753093"><ele>657.0</ele><time>2026-04-16T11:34:53.001Z</time></trkpt><trkpt lat="44.834390579827236" lon="7.225894178326144"><ele>657.0</ele><time>2026-04-16T11:34:54.001Z</time></trkpt><trkpt lat="44.83432898729581" lon="7.225857884679497"><ele>657.0</ele><time>2026-04-16T11:34:55.001Z</time></trkpt><trkpt lat="44.83425753722193" lon="7.225805617960921"><ele>657.0</ele><time>2026-04-16T11:34:56.001Z</time></trkpt><trkpt lat="44.834159329954105" lon="7.225753571054265"><ele>657.0</ele><time>2026-04-16T11:34:57.001Z</time></trkpt><trkpt lat="44.83404570922933" lon="7.225704865044554"><ele>657.0</ele><time>2026-04-16T11:34:58.001Z</time></trkpt><trkpt lat="44.8338939591976" lon="7.2256217443679445"><ele>651.6666666666666</ele><time>2026-04-16T11:34:59.001Z</time></trkpt><trkpt lat="44.83376535133769" lon="7.225574577218581"><ele>646.3333333333333</ele><time>2026-04-16T11:35:00.001Z</time></trkpt><trkpt lat="44.83360230214589" lon="7.225482565491702"><ele>641.0</ele><time>2026-04-16T11:35:01.001Z</time></trkpt><trkpt lat="44.83342735848948" lon="7.225400411504034"><ele>641.0</ele><time>2026-04-16T11:35:02.001Z</time></trkpt><trkpt lat="44.83325087663879" lon="7.225327681955392"><ele>641.0</ele><time>2026-04-16T11:35:03.001Z</time></trkpt><trkpt lat="44.83307361966803" lon="7.225245018430145"><ele>641.0</ele><time>2026-04-16T11:35:04.001Z</time></trkpt><trkpt lat="44.83290936727286" lon="7.225161321830985"><ele>641.0</ele><time>2026-04-16T11:35:05.001Z</time></trkpt><trkpt lat="44.83277266069255" lon="7.225099906464993"><ele>641.0</ele><time>2026-04-16T11:35:06.001Z</time></trkpt><trkpt lat="44.83265024928354" lon="7.225030293592467"><ele>641.0</ele><time>2026-04-16T11:35:07.001Z</time></trkpt><trkpt lat="44.83254166889034" lon="7.224970844501472"><ele>641.0</ele><time>2026-04-16T11:35:08.001Z</time></trkpt><trkpt lat="44.83244243972" lon="7.224944242978578"><ele>639.25</ele><time>2026-04-16T11:35:09.001Z</time></trkpt><trkpt lat="44.832330099148336" lon="7.224920559264283"><ele>637.5</ele><time>2026-04-16T11:35:10.001Z</time></trkpt><trkpt lat="44.83223419918051" lon="7.2249307235958815"><ele>635.75</ele><time>2026-04-16T11:35:11.001Z</time></trkpt><trkpt lat="44.83213615912647" lon="7.224992425649292"><ele>634.0</ele><time>2026-04-16T11:35:12.001Z</time></trkpt><trkpt lat="44.832019420307994" lon="7.225090787622634"><ele>634.0</ele><time>2026-04-16T11:35:13.001Z</time></trkpt><trkpt lat="44.83190063382891" lon="7.225218720482395"><ele>634.0</ele><time>2026-04-16T11:35:14.001Z</time></trkpt><trkpt lat="44.831750445242356" lon="7.225332194414162"><ele>634.0</ele><time>2026-04-16T11:35:15.001Z</time></trkpt><trkpt lat="44.83160297156526" lon="7.225447878739076"><ele>636.5</ele><time>2026-04-16T11:35:16.001Z</time></trkpt><trkpt lat="44.83146263071125" lon="7.225560041189479"><ele>639.0</ele><time>2026-04-16T11:35:17.001Z</time></trkpt><trkpt lat="44.83134111694382" lon="7.225654512924576"><ele>641.5</ele><time>2026-04-16T11:35:18.001Z</time></trkpt><trkpt lat="44.83123775032727" lon="7.2257424951856395"><ele>644.0</ele><time>2026-04-16T11:35:19.001Z</time></trkpt><trkpt lat="44.831124299822434" lon="7.225848619155952"><ele>644.0</ele><time>2026-04-16T11:35:20.001Z</time></trkpt><trkpt lat="44.83100726047216" lon="7.225956994905593"><ele>644.0</ele><time>2026-04-16T11:35:21.001Z</time></trkpt><trkpt lat="44.83089615997301" lon="7.226066781632257"><ele>644.0</ele><time>2026-04-16T11:35:22Z</time></trkpt><trkpt lat="44.83078984165499" lon="7.22618364819239"><ele>644.0</ele><time>2026-04-16T11:35:23Z</time></trkpt><trkpt lat="44.83068119045166" lon="7.226291913238221"><ele>643.25</ele><time>2026-04-16T11:35:24Z</time></trkpt><trkpt lat="44.83058161520133" lon="7.226408852560828"><ele>642.5</ele><time>2026-04-16T11:35:25Z</time></trkpt><trkpt lat="44.830475408187624" lon="7.2265459317328835"><ele>641.75</ele><time>2026-04-16T11:35:26Z</time></trkpt><trkpt lat="44.83038306514403" lon="7.226707455410662"><ele>641.0</ele><time>2026-04-16T11:35:27Z</time></trkpt><trkpt lat="44.83030346259916" lon="7.226892143879281"><ele>641.0</ele><time>2026-04-16T11:35:28Z</time></trkpt><trkpt lat="44.83022247115073" lon="7.227099507271361"><ele>641.0</ele><time>2026-04-16T11:35:29Z</time></trkpt><trkpt lat="44.830130281589994" lon="7.227339980145339"><ele>641.0</ele><time>2026-04-16T11:35:30Z</time></trkpt><trkpt lat="44.83003321216557" lon="7.227568963294982"><ele>636.0</ele><time>2026-04-16T11:35:31Z</time></trkpt><trkpt lat="44.829925516017106" lon="7.22780408419245"><ele>631.0</ele><time>2026-04-16T11:35:32Z</time></trkpt><trkpt lat="44.82983253754025" lon="7.22801446099742"><ele>626.0</ele><time>2026-04-16T11:35:33Z</time></trkpt><trkpt lat="44.82974944365324" lon="7.228214843774288"><ele>626.0</ele><time>2026-04-16T11:35:34Z</time></trkpt><trkpt lat="44.82967576480339" lon="7.228387217935261"><ele>626.0</ele><time>2026-04-16T11:35:35Z</time></trkpt><trkpt lat="44.82962429107985" lon="7.2285238809134436"><ele>626.0</ele><time>2026-04-16T11:35:36Z</time></trkpt><trkpt lat="44.82957416091465" lon="7.228651279485607"><ele>626.0</ele><time>2026-04-16T11:35:37Z</time></trkpt><trkpt lat="44.82954644658358" lon="7.228760655160282"><ele>626.0</ele><time>2026-04-16T11:35:38Z</time></trkpt><trkpt lat="44.82950685936448" lon="7.228859461771673"><ele>626.0</ele><time>2026-04-16T11:35:39Z</time></trkpt><trkpt lat="44.82947255924715" lon="7.228946178916828"><ele>626.0</ele><time>2026-04-16T11:35:40Z</time></trkpt><trkpt lat="44.82942878475235" lon="7.229024307636255"><ele>626.0</ele><time>2026-04-16T11:35:41Z</time></trkpt><trkpt lat="44.829361309737585" lon="7.22916624666558"><ele>626.0</ele><time>2026-04-16T11:35:43Z</time></trkpt><trkpt lat="44.8293163250016" lon="7.229325217625944"><ele>626.0</ele><time>2026-04-16T11:35:45Z</time></trkpt><trkpt lat="44.82926229287856" lon="7.229404126027492"><ele>626.0</ele><time>2026-04-16T11:35:47Z</time></trkpt><trkpt lat="44.82933284658419" lon="7.229301907325779"><ele>626.0</ele><time>2026-04-16T11:36:01Z</time></trkpt><trkpt lat="44.829412866103695" lon="7.229091796038726"><ele>626.0</ele><time>2026-04-16T11:36:02Z</time></trkpt><trkpt lat="44.82947495922735" lon="7.228941305872581"><ele>626.0</ele><time>2026-04-16T11:36:03Z</time></trkpt><trkpt lat="44.82953157221926" lon="7.228792055144999"><ele>626.0</ele><time>2026-04-16T11:36:04Z</time></trkpt><trkpt lat="44.829596351055805" lon="7.228643552503582"><ele>626.0</ele><time>2026-04-16T11:36:05Z</time></trkpt><trkpt lat="44.82965534100088" lon="7.228509055813721"><ele>626.0</ele><time>2026-04-16T11:36:06Z</time></trkpt><trkpt lat="44.829700865174495" lon="7.228384140293523"><ele>626.0</ele><time>2026-04-16T11:36:07Z</time></trkpt><trkpt lat="44.82974347267245" lon="7.228272272477078"><ele>626.0</ele><time>2026-04-16T11:36:08Z</time></trkpt><trkpt lat="44.82978695602078" lon="7.228168594181065"><ele>623.0</ele><time>2026-04-16T11:36:09Z</time></trkpt><trkpt lat="44.82983704015396" lon="7.228038531477136"><ele>620.0</ele><time>2026-04-16T11:36:10Z</time></trkpt><trkpt lat="44.829899999590026" lon="7.227891864557583"><ele>617.0</ele><time>2026-04-16T11:36:11Z</time></trkpt><trkpt lat="44.82997585642807" lon="7.227713230498912"><ele>614.0</ele><time>2026-04-16T11:36:12Z</time></trkpt><trkpt lat="44.830046643632414" lon="7.227535111321483"><ele>614.0</ele><time>2026-04-16T11:36:13Z</time></trkpt><trkpt lat="44.830125656243865" lon="7.227336732205031"><ele>614.0</ele><time>2026-04-16T11:36:14Z</time></trkpt><trkpt lat="44.83019325882295" lon="7.22717518465135"><ele>614.0</ele><time>2026-04-16T11:36:15Z</time></trkpt><trkpt lat="44.830252428619396" lon="7.227033451796183"><ele>614.0</ele><time>2026-04-16T11:36:16.001Z</time></trkpt><trkpt lat="44.830302681815496" lon="7.226902245816452"><ele>615.2</ele><time>2026-04-16T11:36:17.001Z</time></trkpt><trkpt lat="44.830356926992906" lon="7.226772258878168"><ele>616.4</ele><time>2026-04-16T11:36:18.001Z</time></trkpt><trkpt lat="44.83042228331358" lon="7.226638000993276"><ele>617.6</ele><time>2026-04-16T11:36:19.001Z</time></trkpt><trkpt lat="44.83049480607392" lon="7.226526216884677"><ele>618.8</ele><time>2026-04-16T11:36:20.001Z</time></trkpt><trkpt lat="44.83057055464719" lon="7.226425145648417"><ele>620.0</ele><time>2026-04-16T11:36:21.001Z</time></trkpt><trkpt lat="44.83064241147905" lon="7.226341585787436"><ele>620.0</ele><time>2026-04-16T11:36:22.001Z</time></trkpt><trkpt lat="44.830709492738734" lon="7.226274450289232"><ele>620.0</ele><time>2026-04-16T11:36:23.001Z</time></trkpt><trkpt lat="44.83077319783353" lon="7.226213241500576"><ele>620.0</ele><time>2026-04-16T11:36:24.001Z</time></trkpt><trkpt lat="44.83082771976395" lon="7.22615955699402"><ele>620.0</ele><time>2026-04-16T11:36:25.001Z</time></trkpt><trkpt lat="44.830901341359464" lon="7.2260865592192545"><ele>620.0</ele><time>2026-04-16T11:36:27.001Z</time></trkpt><trkpt lat="44.830832474240914" lon="7.22602384030603"><ele>620.0</ele><time>2026-04-16T11:36:30.001Z</time></trkpt><trkpt lat="44.83075750150198" lon="7.226103022277411"><ele>620.0</ele><time>2026-04-16T11:36:32.001Z</time></trkpt><trkpt lat="44.83068948174478" lon="7.226171448211111"><ele>620.0</ele><time>2026-04-16T11:36:33.001Z</time></trkpt><trkpt lat="44.83061719740487" lon="7.226234721954989"><ele>620.0</ele><time>2026-04-16T11:36:34.001Z</time></trkpt><trkpt lat="44.83052477571886" lon="7.226315141084617"><ele>620.0</ele><time>2026-04-16T11:36:35.001Z</time></trkpt><trkpt lat="44.8304401975652" lon="7.2263808329660755"><ele>620.0</ele><time>2026-04-16T11:36:36.001Z</time></trkpt><trkpt lat="44.830369273040134" lon="7.226455052773035"><ele>617.8333333333333</ele><time>2026-04-16T11:36:37.001Z</time></trkpt><trkpt lat="44.830308494167326" lon="7.226520502811448"><ele>615.6666666666666</ele><time>2026-04-16T11:36:38.001Z</time></trkpt><trkpt lat="44.83022569916219" lon="7.226649110243069"><ele>613.5</ele><time>2026-04-16T11:36:40.001Z</time></trkpt><trkpt lat="44.83019567260374" lon="7.226753052775017"><ele>611.3333333333334</ele><time>2026-04-16T11:36:41.001Z</time></trkpt><trkpt lat="44.83017056343041" lon="7.22685699572287"><ele>609.1666666666667</ele><time>2026-04-16T11:36:42.001Z</time></trkpt><trkpt lat="44.83014814606556" lon="7.2269724681212795"><ele>607.0</ele><time>2026-04-16T11:36:43.001Z</time></trkpt><trkpt lat="44.83012177790974" lon="7.2270783093591895"><ele>607.0</ele><time>2026-04-16T11:36:44.001Z</time></trkpt><trkpt lat="44.830083688756936" lon="7.22716967112015"><ele>607.0</ele><time>2026-04-16T11:36:45.001Z</time></trkpt><trkpt lat="44.83003109827732" lon="7.227259978524928"><ele>607.0</ele><time>2026-04-16T11:36:46.001Z</time></trkpt><trkpt lat="44.82996740427759" lon="7.227317397027714"><ele>607.0</ele><time>2026-04-16T11:36:47.001Z</time></trkpt><trkpt lat="44.829901048457856" lon="7.2274104223025635"><ele>607.0</ele><time>2026-04-16T11:36:48.001Z</time></trkpt><trkpt lat="44.82985117194161" lon="7.227487927217768"><ele>607.0</ele><time>2026-04-16T11:36:49.001Z</time></trkpt><trkpt lat="44.82978682999524" lon="7.227624850628658"><ele>608.4</ele><time>2026-04-16T11:36:51.001Z</time></trkpt><trkpt lat="44.82968061180884" lon="7.227702583545665"><ele>609.8000000000001</ele><time>2026-04-16T11:36:53.001Z</time></trkpt><trkpt lat="44.829590893275615" lon="7.227718739549117"><ele>611.2</ele><time>2026-04-16T11:36:54.001Z</time></trkpt><trkpt lat="44.82950300092623" lon="7.227748679862097"><ele>612.6</ele><time>2026-04-16T11:36:55.001Z</time></trkpt><trkpt lat="44.82941757495576" lon="7.227765087153954"><ele>614.0</ele><time>2026-04-16T11:36:56.001Z</time></trkpt><trkpt lat="44.829355971845715" lon="7.2278062406369505"><ele>610.1666666666666</ele><time>2026-04-16T11:36:57.001Z</time></trkpt><trkpt lat="44.82925772349841" lon="7.227873868679363"><ele>606.3333333333333</ele><time>2026-04-16T11:36:59.001Z</time></trkpt><trkpt lat="44.82918405586344" lon="7.227835424179071"><ele>602.5</ele><time>2026-04-16T11:37:01.001Z</time></trkpt><trkpt lat="44.829193294720724" lon="7.2277148464021925"><ele>598.6666666666666</ele><time>2026-04-16T11:37:03.001Z</time></trkpt><trkpt lat="44.829227756982654" lon="7.2276319927638495"><ele>594.8333333333334</ele><time>2026-04-16T11:37:04.001Z</time></trkpt><trkpt lat="44.82926731965854" lon="7.227536823753413"><ele>591.0</ele><time>2026-04-16T11:37:05.001Z</time></trkpt><trkpt lat="44.829278217981745" lon="7.227400771836907"><ele>591.0</ele><time>2026-04-16T11:37:07.001Z</time></trkpt><trkpt lat="44.82917268792337" lon="7.227333826834326"><ele>591.0</ele><time>2026-04-16T11:37:09.001Z</time></trkpt><trkpt lat="44.82908179011694" lon="7.227323228158324"><ele>591.0</ele><time>2026-04-16T11:37:10.001Z</time></trkpt><trkpt lat="44.82896965709696" lon="7.2273312146797615"><ele>591.0</ele><time>2026-04-16T11:37:11.001Z</time></trkpt><trkpt lat="44.828845632037016" lon="7.2273542643932895"><ele>591.0</ele><time>2026-04-16T11:37:12.001Z</time></trkpt><trkpt lat="44.82871326348527" lon="7.227373578156268"><ele>591.0</ele><time>2026-04-16T11:37:13.001Z</time></trkpt><trkpt lat="44.828568278002614" lon="7.227381900214421"><ele>591.0</ele><time>2026-04-16T11:37:14.001Z</time></trkpt><trkpt lat="44.828424421528425" lon="7.227376808310226"><ele>591.0</ele><time>2026-04-16T11:37:15.001Z</time></trkpt><trkpt lat="44.828293819041505" lon="7.227363385281877"><ele>591.0</ele><time>2026-04-16T11:37:16.001Z</time></trkpt><trkpt lat="44.8281716627533" lon="7.227355963291072"><ele>588.0</ele><time>2026-04-16T11:37:17.001Z</time></trkpt><trkpt lat="44.828074293150266" lon="7.2273308639457365"><ele>585.0</ele><time>2026-04-16T11:37:18.001Z</time></trkpt><trkpt lat="44.82796466909075" lon="7.2273055398475705"><ele>582.0</ele><time>2026-04-16T11:37:19.001Z</time></trkpt><trkpt lat="44.82783516208098" lon="7.2272662274971955"><ele>579.0</ele><time>2026-04-16T11:37:21.001Z</time></trkpt><trkpt lat="44.82775841050228" lon="7.227308122884776"><ele>576.0</ele><time>2026-04-16T11:37:22.001Z</time></trkpt><trkpt lat="44.8276552391008" lon="7.227374915476658"><ele>572.25</ele><time>2026-04-16T11:37:23.001Z</time></trkpt><trkpt lat="44.8275308315363" lon="7.227454055487427"><ele>568.5</ele><time>2026-04-16T11:37:24.001Z</time></trkpt><trkpt lat="44.827409449144234" lon="7.227524967705592"><ele>564.75</ele><time>2026-04-16T11:37:25.001Z</time></trkpt><trkpt lat="44.82729336254557" lon="7.2275909415298525"><ele>561.0</ele><time>2026-04-16T11:37:26.001Z</time></trkpt><trkpt lat="44.82717590056685" lon="7.227654447910818"><ele>561.0</ele><time>2026-04-16T11:37:27.001Z</time></trkpt><trkpt lat="44.827058259152196" lon="7.227717803460268"><ele>561.0</ele><time>2026-04-16T11:37:28Z</time></trkpt><trkpt lat="44.826944510483315" lon="7.227780955823158"><ele>561.0</ele><time>2026-04-16T11:37:29Z</time></trkpt><trkpt lat="44.82682489600415" lon="7.2278601882019355"><ele>561.0</ele><time>2026-04-16T11:37:30Z</time></trkpt><trkpt lat="44.82669953559282" lon="7.227928874778651"><ele>559.2</ele><time>2026-04-16T11:37:31Z</time></trkpt><trkpt lat="44.82658698331548" lon="7.227990520999054"><ele>557.4000000000001</ele><time>2026-04-16T11:37:32Z</time></trkpt><trkpt lat="44.82648210923845" lon="7.228042243072364"><ele>555.6</ele><time>2026-04-16T11:37:33Z</time></trkpt><trkpt lat="44.826395947550694" lon="7.2280898282323784"><ele>553.8000000000001</ele><time>2026-04-16T11:37:34Z</time></trkpt><trkpt lat="44.82632347461999" lon="7.22812326862318"><ele>552.0</ele><time>2026-04-16T11:37:35Z</time></trkpt><trkpt lat="44.82620563241541" lon="7.228151615405034"><ele>552.0</ele><time>2026-04-16T11:37:37Z</time></trkpt><trkpt lat="44.82611347524928" lon="7.22820880302802"><ele>552.0</ele><time>2026-04-16T11:37:39Z</time></trkpt><trkpt lat="44.826016335169214" lon="7.228217727827043"><ele>552.0</ele><time>2026-04-16T11:37:41Z</time></trkpt><trkpt lat="44.82592938970934" lon="7.228262788103237"><ele>552.0</ele><time>2026-04-16T11:37:42Z</time></trkpt><trkpt lat="44.825825257823965" lon="7.228298643507794"><ele>552.0</ele><time>2026-04-16T11:37:43Z</time></trkpt><trkpt lat="44.82570114844521" lon="7.228315520591418"><ele>549.0</ele><time>2026-04-16T11:37:44Z</time></trkpt><trkpt lat="44.825577692803236" lon="7.228341498985433"><ele>546.0</ele><time>2026-04-16T11:37:45Z</time></trkpt><trkpt lat="44.825446896442266" lon="7.22836615300324"><ele>543.0</ele><time>2026-04-16T11:37:46Z</time></trkpt><trkpt lat="44.8253308348039" lon="7.2283857859794916"><ele>540.0</ele><time>2026-04-16T11:37:47Z</time></trkpt><trkpt lat="44.82522546259273" lon="7.2284136020086365"><ele>539.1666666666666</ele><time>2026-04-16T11:37:48Z</time></trkpt><trkpt lat="44.825132203596034" lon="7.228430949603978"><ele>538.3333333333334</ele><time>2026-04-16T11:37:49Z</time></trkpt><trkpt lat="44.82504594903866" lon="7.228449998375815"><ele>537.5</ele><time>2026-04-16T11:37:50Z</time></trkpt><trkpt lat="44.82496514310803" lon="7.2284803462957194"><ele>536.6666666666667</ele><time>2026-04-16T11:37:51Z</time></trkpt><trkpt lat="44.824880996776095" lon="7.2284972351889545"><ele>535.8333333333334</ele><time>2026-04-16T11:37:52Z</time></trkpt><trkpt lat="44.82480011748693" lon="7.228509520826228"><ele>535.0</ele><time>2026-04-16T11:37:53Z</time></trkpt><trkpt lat="44.82470481414042" lon="7.228526538972492"><ele>535.0</ele><time>2026-04-16T11:37:54Z</time></trkpt><trkpt lat="44.824614101986974" lon="7.228547023607585"><ele>535.0</ele><time>2026-04-16T11:37:55Z</time></trkpt><trkpt lat="44.824535533172565" lon="7.2285557696113925"><ele>535.0</ele><time>2026-04-16T11:37:56Z</time></trkpt><trkpt lat="44.82443953093564" lon="7.2285832307336495"><ele>535.0</ele><time>2026-04-16T11:37:57Z</time></trkpt><trkpt lat="44.824364084413794" lon="7.228607781043002"><ele>535.0</ele><time>2026-04-16T11:37:58Z</time></trkpt><trkpt lat="44.82429707733183" lon="7.228622734590435"><ele>535.0</ele><time>2026-04-16T11:37:59Z</time></trkpt><trkpt lat="44.824179489381464" lon="7.228632273476556"><ele>534.2</ele><time>2026-04-16T11:38:01Z</time></trkpt><trkpt lat="44.82407241274952" lon="7.2286458676472405"><ele>533.4</ele><time>2026-04-16T11:38:03Z</time></trkpt><trkpt lat="44.82395084029671" lon="7.2286831513498795"><ele>532.6</ele><time>2026-04-16T11:38:05Z</time></trkpt><trkpt lat="44.82383895826741" lon="7.228715252774264"><ele>531.8</ele><time>2026-04-16T11:38:07Z</time></trkpt><trkpt lat="44.82378020938253" lon="7.2286727268839845"><ele>531.0</ele><time>2026-04-16T11:38:11Z</time></trkpt><trkpt lat="44.82374270946266" lon="7.228587616257585"><ele>531.0</ele><time>2026-04-16T11:38:13Z</time></trkpt><trkpt lat="44.82373358349537" lon="7.2283806853393555"><ele>531.0</ele><time>2026-04-16T11:38:15Z</time></trkpt><trkpt lat="44.82371315325039" lon="7.228229757896577"><ele>531.0</ele><time>2026-04-16T11:38:16Z</time></trkpt><trkpt lat="44.823682923169" lon="7.228086278601585"><ele>531.0</ele><time>2026-04-16T11:38:17Z</time></trkpt><trkpt lat="44.82363128636783" lon="7.227977410218435"><ele>530.6</ele><time>2026-04-16T11:38:18Z</time></trkpt><trkpt lat="44.823567640417544" lon="7.227899209527804"><ele>530.2</ele><time>2026-04-16T11:38:19Z</time></trkpt><trkpt lat="44.823489414325245" lon="7.22783530007797"><ele>529.8</ele><time>2026-04-16T11:38:20Z</time></trkpt><trkpt lat="44.823404568142166" lon="7.227802343847864"><ele>529.4</ele><time>2026-04-16T11:38:21Z</time></trkpt><trkpt lat="44.823312266241665" lon="7.227784630574972"><ele>529.0</ele><time>2026-04-16T11:38:22Z</time></trkpt><trkpt lat="44.8232142463694" lon="7.227765485953138"><ele>528.6</ele><time>2026-04-16T11:38:23Z</time></trkpt><trkpt lat="44.8231229081373" lon="7.227751613168209"><ele>528.2</ele><time>2026-04-16T11:38:24.001Z</time></trkpt><trkpt lat="44.823025600117695" lon="7.227734257774263"><ele>527.8000000000001</ele><time>2026-04-16T11:38:25.001Z</time></trkpt><trkpt lat="44.82291629481862" lon="7.227712753278822"><ele>527.4</ele><time>2026-04-16T11:38:26.001Z</time></trkpt><trkpt lat="44.82281243453313" lon="7.227691043880882"><ele>527.0</ele><time>2026-04-16T11:38:27.001Z</time></trkpt><trkpt lat="44.822704321141515" lon="7.227670834215644"><ele>526.0</ele><time>2026-04-16T11:38:28.001Z</time></trkpt><trkpt lat="44.82258836763937" lon="7.227651036298167"><ele>525.0</ele><time>2026-04-16T11:38:29.001Z</time></trkpt><trkpt lat="44.82248011243528" lon="7.227638445813055"><ele>524.0</ele><time>2026-04-16T11:38:30.001Z</time></trkpt><trkpt lat="44.82237951749668" lon="7.227635557541802"><ele>523.0</ele><time>2026-04-16T11:38:31.001Z</time></trkpt><trkpt lat="44.82227363805717" lon="7.227643270498816"><ele>522.0</ele><time>2026-04-16T11:38:32.001Z</time></trkpt><trkpt lat="44.82215594882327" lon="7.227658318245419"><ele>522.0</ele><time>2026-04-16T11:38:33.001Z</time></trkpt><trkpt lat="44.82203924573242" lon="7.227712413418253"><ele>522.0</ele><time>2026-04-16T11:38:34.001Z</time></trkpt><trkpt lat="44.821929992590434" lon="7.227754014243837"><ele>522.0</ele><time>2026-04-16T11:38:35.001Z</time></trkpt><trkpt lat="44.82181889994375" lon="7.227796451364514"><ele>522.0</ele><time>2026-04-16T11:38:36.001Z</time></trkpt><trkpt lat="44.821702895766585" lon="7.227835867208621"><ele>521.25</ele><time>2026-04-16T11:38:37.001Z</time></trkpt><trkpt lat="44.82157044643092" lon="7.227886686416341"><ele>520.5</ele><time>2026-04-16T11:38:38.001Z</time></trkpt><trkpt lat="44.821446973368495" lon="7.227921095395221"><ele>519.75</ele><time>2026-04-16T11:38:39.001Z</time></trkpt><trkpt lat="44.82133489770167" lon="7.227966354050953"><ele>519.0</ele><time>2026-04-16T11:38:40.001Z</time></trkpt><trkpt lat="44.821230794633074" lon="7.227990111895847"><ele>519.0</ele><time>2026-04-16T11:38:41.001Z</time></trkpt><trkpt lat="44.821149060738094" lon="7.228019471912606"><ele>519.0</ele><time>2026-04-16T11:38:42.001Z</time></trkpt><trkpt lat="44.82107803839493" lon="7.2280443203719775"><ele>519.0</ele><time>2026-04-16T11:38:43.001Z</time></trkpt><trkpt lat="44.82099124011745" lon="7.22805992795927"><ele>519.0</ele><time>2026-04-16T11:38:45.001Z</time></trkpt><trkpt lat="44.820884336315466" lon="7.228061898564224"><ele>519.0</ele><time>2026-04-16T11:38:55.001Z</time></trkpt><trkpt lat="44.82079930274355" lon="7.228022835829611"><ele>519.0</ele><time>2026-04-16T11:38:57.001Z</time></trkpt><trkpt lat="44.820795710962194" lon="7.227925627978022"><ele>518.8</ele><time>2026-04-16T11:38:59.001Z</time></trkpt><trkpt lat="44.82081432309396" lon="7.227825080984884"><ele>518.5999999999999</ele><time>2026-04-16T11:39:00.001Z</time></trkpt><trkpt lat="44.82083997481766" lon="7.227717122858882"><ele>518.4</ele><time>2026-04-16T11:39:01.001Z</time></trkpt><trkpt lat="44.82085868567715" lon="7.227594352469156"><ele>518.1999999999999</ele><time>2026-04-16T11:39:02.001Z</time></trkpt><trkpt lat="44.82088398575325" lon="7.227448143226764"><ele>518.0</ele><time>2026-04-16T11:39:03.001Z</time></trkpt><trkpt lat="44.82090448277628" lon="7.22730561088347"><ele>518.5</ele><time>2026-04-16T11:39:04.001Z</time></trkpt><trkpt lat="44.82092284183387" lon="7.227184939455931"><ele>519.0</ele><time>2026-04-16T11:39:05.001Z</time></trkpt><trkpt lat="44.82093032939195" lon="7.227067885471189"><ele>519.5</ele><time>2026-04-16T11:39:06.001Z</time></trkpt><trkpt lat="44.820904517670975" lon="7.226960376604244"><ele>520.0</ele><time>2026-04-16T11:39:07.001Z</time></trkpt><trkpt lat="44.82086163368877" lon="7.2268556533841135"><ele>520.5</ele><time>2026-04-16T11:39:08.001Z</time></trkpt><trkpt lat="44.82080287246805" lon="7.226741779487259"><ele>521.0</ele><time>2026-04-16T11:39:09.001Z</time></trkpt><trkpt lat="44.8207364819472" lon="7.226596404299686"><ele>521.2</ele><time>2026-04-16T11:39:10.001Z</time></trkpt><trkpt lat="44.82066350631287" lon="7.226451362727293"><ele>521.4000000000001</ele><time>2026-04-16T11:39:11.001Z</time></trkpt><trkpt lat="44.820614371226945" lon="7.226330227817595"><ele>521.6</ele><time>2026-04-16T11:39:12.001Z</time></trkpt><trkpt lat="44.8205608533181" lon="7.226204077071004"><ele>521.8000000000001</ele><time>2026-04-16T11:39:13.001Z</time></trkpt><trkpt lat="44.82050789912265" lon="7.226080836023552"><ele>522.0</ele><time>2026-04-16T11:39:14.001Z</time></trkpt><trkpt lat="44.820449618163316" lon="7.225951339085828"><ele>522.0</ele><time>2026-04-16T11:39:15.001Z</time></trkpt><trkpt lat="44.82039313287391" lon="7.225812764966127"><ele>522.0</ele><time>2026-04-16T11:39:16.001Z</time></trkpt><trkpt lat="44.82032511967374" lon="7.225681316259936"><ele>522.0</ele><time>2026-04-16T11:39:17.001Z</time></trkpt><trkpt lat="44.82026356474219" lon="7.2255610290323755"><ele>522.0</ele><time>2026-04-16T11:39:18.001Z</time></trkpt><trkpt lat="44.82022376928958" lon="7.225414162455699"><ele>522.0</ele><time>2026-04-16T11:39:19.001Z</time></trkpt><trkpt lat="44.820158468895805" lon="7.225315275466483"><ele>522.0</ele><time>2026-04-16T11:39:20.001Z</time></trkpt><trkpt lat="44.820098359558045" lon="7.225213847962606"><ele>522.0</ele><time>2026-04-16T11:39:21.001Z</time></trkpt><trkpt lat="44.82004531708076" lon="7.2251294720851265"><ele>522.0</ele><time>2026-04-16T11:39:22.001Z</time></trkpt><trkpt lat="44.820005200621296" lon="7.225005313577885"><ele>522.0</ele><time>2026-04-16T11:39:23.001Z</time></trkpt><trkpt lat="44.81996554966877" lon="7.22491666539856"><ele>522.0</ele><time>2026-04-16T11:39:24.001Z</time></trkpt><trkpt lat="44.81992485996582" lon="7.224812569891251"><ele>522.0</ele><time>2026-04-16T11:39:25.001Z</time></trkpt><trkpt lat="44.819895082786836" lon="7.2247276339900095"><ele>522.0</ele><time>2026-04-16T11:39:26.001Z</time></trkpt><trkpt lat="44.81985912024982" lon="7.224649904253796"><ele>522.0</ele><time>2026-04-16T11:39:27.001Z</time></trkpt><trkpt lat="44.8198177041342" lon="7.22452499253035"><ele>522.0</ele><time>2026-04-16T11:39:29.001Z</time></trkpt><trkpt lat="44.81978716289165" lon="7.224429044506234"><ele>522.0</ele><time>2026-04-16T11:39:31.001Z</time></trkpt><trkpt lat="44.819773153900286" lon="7.224330158694464"><ele>522.0</ele><time>2026-04-16T11:39:34Z</time></trkpt><trkpt lat="44.81976722772923" lon="7.224227705237566"><ele>522.0</ele><time>2026-04-16T11:39:37Z</time></trkpt><trkpt lat="44.81975069367038" lon="7.22408410459215"><ele>522.0</ele><time>2026-04-16T11:39:40Z</time></trkpt><trkpt lat="44.81974503611556" lon="7.223991317959991"><ele>522.0</ele><time>2026-04-16T11:39:42Z</time></trkpt><trkpt lat="44.81975026247326" lon="7.223855516847706"><ele>522.0</ele><time>2026-04-16T11:39:44Z</time></trkpt><trkpt lat="44.81975613706106" lon="7.223762781749265"><ele>522.0</ele><time>2026-04-16T11:39:45Z</time></trkpt><trkpt lat="44.81975956864703" lon="7.2236683506639965"><ele>522.0</ele><time>2026-04-16T11:39:46Z</time></trkpt><trkpt lat="44.81974850192004" lon="7.223579751683999"><ele>522.0</ele><time>2026-04-16T11:39:47Z</time></trkpt><trkpt lat="44.81974103877961" lon="7.2234862742833625"><ele>522.0</ele><time>2026-04-16T11:39:48Z</time></trkpt><trkpt lat="44.81974152828907" lon="7.223325312206432"><ele>522.4</ele><time>2026-04-16T11:39:50Z</time></trkpt><trkpt lat="44.81972705200101" lon="7.223199368478184"><ele>522.8000000000001</ele><time>2026-04-16T11:39:52Z</time></trkpt><trkpt lat="44.81971843205435" lon="7.223068952590364"><ele>523.2</ele><time>2026-04-16T11:39:54Z</time></trkpt><trkpt lat="44.81968851752734" lon="7.222965703646185"><ele>523.6</ele><time>2026-04-16T11:40:03Z</time></trkpt><trkpt lat="44.819686032969926" lon="7.222754408749154"><ele>524.0</ele><time>2026-04-16T11:40:05Z</time></trkpt><trkpt lat="44.81967938116107" lon="7.222621018530974"><ele>524.5</ele><time>2026-04-16T11:40:06Z</time></trkpt><trkpt lat="44.81967735372713" lon="7.222457946903876"><ele>525.0</ele><time>2026-04-16T11:40:07Z</time></trkpt><trkpt lat="44.81966969285298" lon="7.222268359365113"><ele>525.5</ele><time>2026-04-16T11:40:08Z</time></trkpt><trkpt lat="44.81965554410763" lon="7.222044361141872"><ele>526.0</ele><time>2026-04-16T11:40:09Z</time></trkpt><trkpt lat="44.81963507849893" lon="7.221842062975886"><ele>526.0</ele><time>2026-04-16T11:40:10Z</time></trkpt><trkpt lat="44.81961982307213" lon="7.221631577276945"><ele>526.0</ele><time>2026-04-16T11:40:11Z</time></trkpt><trkpt lat="44.819616476166374" lon="7.2213884989966175"><ele>526.0</ele><time>2026-04-16T11:40:12Z</time></trkpt><trkpt lat="44.81961022348467" lon="7.221183821697929"><ele>526.0</ele><time>2026-04-16T11:40:13Z</time></trkpt><trkpt lat="44.81960303193979" lon="7.220971749065438"><ele>526.0</ele><time>2026-04-16T11:40:14Z</time></trkpt><trkpt lat="44.81959315751965" lon="7.220756399990119"><ele>526.0</ele><time>2026-04-16T11:40:15Z</time></trkpt><trkpt lat="44.819576865069905" lon="7.220533806091301"><ele>527.0</ele><time>2026-04-16T11:40:16Z</time></trkpt><trkpt lat="44.81956010173977" lon="7.220294095773363"><ele>528.0</ele><time>2026-04-16T11:40:17Z</time></trkpt><trkpt lat="44.819551830386374" lon="7.220061113377823"><ele>529.0</ele><time>2026-04-16T11:40:18Z</time></trkpt><trkpt lat="44.81954492323591" lon="7.219833556605226"><ele>529.0</ele><time>2026-04-16T11:40:19Z</time></trkpt><trkpt lat="44.81953829384131" lon="7.219604775008865"><ele>529.0</ele><time>2026-04-16T11:40:20Z</time></trkpt><trkpt lat="44.819524759291355" lon="7.219366269757877"><ele>529.0</ele><time>2026-04-16T11:40:21Z</time></trkpt><trkpt lat="44.819508983336135" lon="7.219114982959878"><ele>529.6666666666667</ele><time>2026-04-16T11:40:22Z</time></trkpt><trkpt lat="44.81949670576657" lon="7.218880675893385"><ele>530.3333333333334</ele><time>2026-04-16T11:40:23Z</time></trkpt><trkpt lat="44.819484926654724" lon="7.218660800657025"><ele>531.0</ele><time>2026-04-16T11:40:24Z</time></trkpt><trkpt lat="44.81947066062094" lon="7.218441315571558"><ele>531.0</ele><time>2026-04-16T11:40:25Z</time></trkpt><trkpt lat="44.81946089867176" lon="7.218207726628242"><ele>531.0</ele><time>2026-04-16T11:40:26Z</time></trkpt><trkpt lat="44.819452097967044" lon="7.2179771048677965"><ele>531.0</ele><time>2026-04-16T11:40:27Z</time></trkpt><trkpt lat="44.81944439724329" lon="7.217736061662772"><ele>532.0</ele><time>2026-04-16T11:40:28Z</time></trkpt><trkpt lat="44.81943535595509" lon="7.217480467858439"><ele>533.0</ele><time>2026-04-16T11:40:29Z</time></trkpt><trkpt lat="44.81941778972253" lon="7.21721091862639"><ele>534.0</ele><time>2026-04-16T11:40:30Z</time></trkpt><trkpt lat="44.819399257954146" lon="7.216939841942606"><ele>534.6666666666666</ele><time>2026-04-16T11:40:31Z</time></trkpt><trkpt lat="44.819380402929625" lon="7.2166586283031755"><ele>535.3333333333333</ele><time>2026-04-16T11:40:32.001Z</time></trkpt><trkpt lat="44.819365821352484" lon="7.216381431683007"><ele>536.0</ele><time>2026-04-16T11:40:33.001Z</time></trkpt><trkpt lat="44.819350108866985" lon="7.216094741678209"><ele>536.0</ele><time>2026-04-16T11:40:34.001Z</time></trkpt><trkpt lat="44.81933661990518" lon="7.2158181783130715"><ele>536.0</ele><time>2026-04-16T11:40:35.001Z</time></trkpt><trkpt lat="44.819331014781696" lon="7.215575862884602"><ele>536.0</ele><time>2026-04-16T11:40:36.001Z</time></trkpt><trkpt lat="44.81932291053198" lon="7.215345976579314"><ele>536.3333333333333</ele><time>2026-04-16T11:40:37.001Z</time></trkpt><trkpt lat="44.81931735602126" lon="7.215093528249204"><ele>536.6666666666666</ele><time>2026-04-16T11:40:38.001Z</time></trkpt><trkpt lat="44.819322541370575" lon="7.214827112895645"><ele>537.0</ele><time>2026-04-16T11:40:39.001Z</time></trkpt><trkpt lat="44.819331162153105" lon="7.214562447716676"><ele>537.6666666666666</ele><time>2026-04-16T11:40:40.001Z</time></trkpt><trkpt lat="44.8193538300206" lon="7.214297731424438"><ele>538.3333333333333</ele><time>2026-04-16T11:40:41.001Z</time></trkpt><trkpt lat="44.81938604856105" lon="7.214043154918311"><ele>539.0</ele><time>2026-04-16T11:40:42.001Z</time></trkpt><trkpt lat="44.81941587784993" lon="7.213781248355641"><ele>540.0</ele><time>2026-04-16T11:40:43.001Z</time></trkpt><trkpt lat="44.81944693643198" lon="7.213527018358864"><ele>541.0</ele><time>2026-04-16T11:40:44.001Z</time></trkpt><trkpt lat="44.8194729264069" lon="7.213281980663999"><ele>542.0</ele><time>2026-04-16T11:40:45.001Z</time></trkpt><trkpt lat="44.81949682576116" lon="7.213067025618585"><ele>542.5</ele><time>2026-04-16T11:40:46.001Z</time></trkpt><trkpt lat="44.8195139939569" lon="7.2128797998896275"><ele>543.0</ele><time>2026-04-16T11:40:47.001Z</time></trkpt><trkpt lat="44.81952512497472" lon="7.2126984350955246"><ele>543.5</ele><time>2026-04-16T11:40:48.001Z</time></trkpt><trkpt lat="44.819540340516646" lon="7.212510750728933"><ele>544.0</ele><time>2026-04-16T11:40:49.001Z</time></trkpt><trkpt lat="44.819550880717124" lon="7.212335119800782"><ele>544.25</ele><time>2026-04-16T11:40:50.001Z</time></trkpt><trkpt lat="44.81956590107394" lon="7.212154092102495"><ele>544.5</ele><time>2026-04-16T11:40:51.001Z</time></trkpt><trkpt lat="44.81958208297564" lon="7.21197895194591"><ele>544.75</ele><time>2026-04-16T11:40:52.001Z</time></trkpt><trkpt lat="44.81960122318849" lon="7.211815291512134"><ele>545.0</ele><time>2026-04-16T11:40:53.001Z</time></trkpt><trkpt lat="44.81961963781109" lon="7.211643368328907"><ele>544.8</ele><time>2026-04-16T11:40:54.001Z</time></trkpt><trkpt lat="44.8196302578336" lon="7.2114812550225755"><ele>544.6</ele><time>2026-04-16T11:40:55.001Z</time></trkpt><trkpt lat="44.81964058671691" lon="7.211336179438533"><ele>544.4</ele><time>2026-04-16T11:40:56.001Z</time></trkpt><trkpt lat="44.81964671886874" lon="7.211202835808001"><ele>544.2</ele><time>2026-04-16T11:40:57.001Z</time></trkpt><trkpt lat="44.819651776809316" lon="7.211075183740704"><ele>544.0</ele><time>2026-04-16T11:40:58.001Z</time></trkpt><trkpt lat="44.81966190471399" lon="7.21096708798086"><ele>544.0</ele><time>2026-04-16T11:40:59.001Z</time></trkpt><trkpt lat="44.819682829516616" lon="7.210876098754262"><ele>544.0</ele><time>2026-04-16T11:41:00.001Z</time></trkpt><trkpt lat="44.81970056104417" lon="7.210773656665183"><ele>544.0</ele><time>2026-04-16T11:41:02.001Z</time></trkpt><trkpt lat="44.81982867347378" lon="7.210777695070757"><ele>544.0</ele><time>2026-04-16T11:41:03.001Z</time></trkpt><trkpt lat="44.81993915804891" lon="7.210726689484306"><ele>544.0</ele><time>2026-04-16T11:41:05.001Z</time></trkpt><trkpt lat="44.82000277990351" lon="7.2107229317115245"><ele>544.0</ele><time>2026-04-16T11:41:06.001Z</time></trkpt><trkpt lat="44.82006856764698" lon="7.210720632028606"><ele>544.0</ele><time>2026-04-16T11:41:07.001Z</time></trkpt><trkpt lat="44.820132594355854" lon="7.210720916164542"><ele>544.0</ele><time>2026-04-16T11:41:30.001Z</time></trkpt><trkpt lat="44.820069174066894" lon="7.210724886831496"><ele>544.0</ele><time>2026-04-16T11:41:33.001Z</time></trkpt><trkpt lat="44.82008532091807" lon="7.210396512737983"><ele>544.0</ele><time>2026-04-16T11:41:35.001Z</time></trkpt><trkpt lat="44.81993419706547" lon="7.210346098621882"><ele>544.8</ele><time>2026-04-16T11:41:36.001Z</time></trkpt><trkpt lat="44.819902843650524" lon="7.210240083330459"><ele>545.5999999999999</ele><time>2026-04-16T11:41:37.001Z</time></trkpt><trkpt lat="44.819864764950594" lon="7.210123656396555"><ele>546.4</ele><time>2026-04-16T11:41:38.001Z</time></trkpt><trkpt lat="44.81982721357202" lon="7.209992457634166"><ele>547.1999999999999</ele><time>2026-04-16T11:41:39.001Z</time></trkpt><trkpt lat="44.81977916025488" lon="7.209858538053214"><ele>548.0</ele><time>2026-04-16T11:41:40Z</time></trkpt><trkpt lat="44.81972797427675" lon="7.209731268021363"><ele>549.0</ele><time>2026-04-16T11:41:41Z</time></trkpt><trkpt lat="44.819694908429966" lon="7.209599155857912"><ele>550.0</ele><time>2026-04-16T11:41:42Z</time></trkpt><trkpt lat="44.81963661335609" lon="7.209491496950097"><ele>551.0</ele><time>2026-04-16T11:41:43Z</time></trkpt><trkpt lat="44.81960407906227" lon="7.209390978221384"><ele>552.0</ele><time>2026-04-16T11:41:44Z</time></trkpt><trkpt lat="44.81957125749924" lon="7.209314119000557"><ele>553.0</ele><time>2026-04-16T11:41:45Z</time></trkpt><trkpt lat="44.81948136300099" lon="7.209194626202994"><ele>553.0</ele><time>2026-04-16T11:41:47Z</time></trkpt><trkpt lat="44.81944385840467" lon="7.209119588453464"><ele>553.0</ele><time>2026-04-16T11:41:48Z</time></trkpt><trkpt lat="44.81936228634113" lon="7.208969907202522"><ele>553.0</ele><time>2026-04-16T11:41:51Z</time></trkpt><trkpt lat="44.81931486762605" lon="7.208873529004418"><ele>553.0</ele><time>2026-04-16T11:41:52Z</time></trkpt><trkpt lat="44.81926769756118" lon="7.208798466141032"><ele>553.0</ele><time>2026-04-16T11:41:53Z</time></trkpt><trkpt lat="44.81919744765792" lon="7.208722015831158"><ele>553.0</ele><time>2026-04-16T11:41:54Z</time></trkpt><trkpt lat="44.819145957021746" lon="7.208639100260601"><ele>552.0</ele><time>2026-04-16T11:41:55Z</time></trkpt><trkpt lat="44.8190811680835" lon="7.208546751709138"><ele>551.0</ele><time>2026-04-16T11:41:56Z</time></trkpt><trkpt lat="44.81899546513661" lon="7.208446650267414"><ele>550.0</ele><time>2026-04-16T11:41:57Z</time></trkpt><trkpt lat="44.818890284511625" lon="7.2083247120329315"><ele>549.0</ele><time>2026-04-16T11:41:58Z</time></trkpt><trkpt lat="44.8187925529129" lon="7.208207588047426"><ele>547.2</ele><time>2026-04-16T11:41:59Z</time></trkpt><trkpt lat="44.81870736714697" lon="7.208101841701042"><ele>545.4</ele><time>2026-04-16T11:42:00Z</time></trkpt><trkpt lat="44.81862919976553" lon="7.207986861515107"><ele>543.6</ele><time>2026-04-16T11:42:01Z</time></trkpt><trkpt lat="44.81854375861337" lon="7.20788984069971"><ele>541.8</ele><time>2026-04-16T11:42:02Z</time></trkpt><trkpt lat="44.81846087188791" lon="7.207794259079678"><ele>540.0</ele><time>2026-04-16T11:42:03Z</time></trkpt><trkpt lat="44.81841727435235" lon="7.207684139496044"><ele>540.0</ele><time>2026-04-16T11:42:04Z</time></trkpt><trkpt lat="44.81839080988378" lon="7.207588313095616"><ele>540.0</ele><time>2026-04-16T11:42:05Z</time></trkpt><trkpt lat="44.8183774192821" lon="7.2074764739346895"><ele>540.0</ele><time>2026-04-16T11:42:06Z</time></trkpt><trkpt lat="44.81835645579427" lon="7.207330791081099"><ele>540.0</ele><time>2026-04-16T11:42:07Z</time></trkpt><trkpt lat="44.81833522717556" lon="7.207172895753489"><ele>540.0</ele><time>2026-04-16T11:42:08Z</time></trkpt><trkpt lat="44.81832045033612" lon="7.207012556411617"><ele>540.8</ele><time>2026-04-16T11:42:09Z</time></trkpt><trkpt lat="44.818296481854986" lon="7.206835603577526"><ele>541.6</ele><time>2026-04-16T11:42:10Z</time></trkpt><trkpt lat="44.81827552622268" lon="7.206675074288777"><ele>542.4</ele><time>2026-04-16T11:42:11Z</time></trkpt><trkpt lat="44.818250867164565" lon="7.2065509434425294"><ele>543.2</ele><time>2026-04-16T11:42:12Z</time></trkpt><trkpt lat="44.818217685394956" lon="7.206445160699919"><ele>544.0</ele><time>2026-04-16T11:42:13Z</time></trkpt><trkpt lat="44.8181709490525" lon="7.206351039582261"><ele>545.0</ele><time>2026-04-16T11:42:14Z</time></trkpt><trkpt lat="44.81811811159496" lon="7.206291715582576"><ele>546.0</ele><time>2026-04-16T11:42:15Z</time></trkpt><trkpt lat="44.818067543365174" lon="7.206207652717902"><ele>547.0</ele><time>2026-04-16T11:42:16Z</time></trkpt><trkpt lat="44.81798725889629" lon="7.206172240005554"><ele>548.0</ele><time>2026-04-16T11:42:17Z</time></trkpt><trkpt lat="44.817897716757315" lon="7.2061512238533085"><ele>549.0</ele><time>2026-04-16T11:42:18Z</time></trkpt><trkpt lat="44.81780000898227" lon="7.206156562685829"><ele>550.0</ele><time>2026-04-16T11:42:19Z</time></trkpt><trkpt lat="44.817705297525265" lon="7.20616855175542"><ele>547.2</ele><time>2026-04-16T11:42:20Z</time></trkpt><trkpt lat="44.8176059759813" lon="7.206190338693069"><ele>544.4</ele><time>2026-04-16T11:42:21Z</time></trkpt><trkpt lat="44.81750891464476" lon="7.2062342256853436"><ele>541.6</ele><time>2026-04-16T11:42:22Z</time></trkpt><trkpt lat="44.81740363507548" lon="7.206249990033028"><ele>538.8</ele><time>2026-04-16T11:42:23Z</time></trkpt><trkpt lat="44.817296897455705" lon="7.206279725823868"><ele>536.0</ele><time>2026-04-16T11:42:24Z</time></trkpt><trkpt lat="44.817180824000886" lon="7.206303184673642"><ele>536.0</ele><time>2026-04-16T11:42:25Z</time></trkpt><trkpt lat="44.81706209245445" lon="7.206326751493513"><ele>536.0</ele><time>2026-04-16T11:42:26Z</time></trkpt><trkpt lat="44.8169425290254" lon="7.206352978749605"><ele>536.0</ele><time>2026-04-16T11:42:27Z</time></trkpt><trkpt lat="44.816831225013864" lon="7.206374249901423"><ele>536.0</ele><time>2026-04-16T11:42:28Z</time></trkpt><trkpt lat="44.816721773696834" lon="7.206402754897352"><ele>536.0</ele><time>2026-04-16T11:42:29Z</time></trkpt><trkpt lat="44.81660445646478" lon="7.206427325284508"><ele>536.0</ele><time>2026-04-16T11:42:30Z</time></trkpt><trkpt lat="44.81648964368716" lon="7.206450419871818"><ele>536.0</ele><time>2026-04-16T11:42:31Z</time></trkpt><trkpt lat="44.81637615102646" lon="7.2064749807737405"><ele>536.0</ele><time>2026-04-16T11:42:32Z</time></trkpt><trkpt lat="44.81626415576847" lon="7.2065002293006755"><ele>535.8</ele><time>2026-04-16T11:42:33Z</time></trkpt><trkpt lat="44.816153274981566" lon="7.206520707756274"><ele>535.6</ele><time>2026-04-16T11:42:34Z</time></trkpt><trkpt lat="44.816042873668856" lon="7.206532344229098"><ele>535.4</ele><time>2026-04-16T11:42:35.001Z</time></trkpt><trkpt lat="44.81593870574341" lon="7.206527790558094"><ele>535.2</ele><time>2026-04-16T11:42:36.001Z</time></trkpt><trkpt lat="44.81584126315578" lon="7.206483976829873"><ele>535.0</ele><time>2026-04-16T11:42:37.001Z</time></trkpt><trkpt lat="44.81575649306491" lon="7.206385373306906"><ele>536.0</ele><time>2026-04-16T11:42:38.001Z</time></trkpt><trkpt lat="44.815663508273644" lon="7.20629398348663"><ele>537.0</ele><time>2026-04-16T11:42:39.001Z</time></trkpt><trkpt lat="44.81557314030078" lon="7.206203711929798"><ele>538.0</ele><time>2026-04-16T11:42:40.001Z</time></trkpt><trkpt lat="44.81547376709689" lon="7.20612985459455"><ele>539.0</ele><time>2026-04-16T11:42:41.001Z</time></trkpt><trkpt lat="44.81539635787865" lon="7.206046815621269"><ele>540.0</ele><time>2026-04-16T11:42:42.001Z</time></trkpt><trkpt lat="44.815351158615165" lon="7.205963734382023"><ele>540.0</ele><time>2026-04-16T11:42:43.001Z</time></trkpt><trkpt lat="44.815273346427695" lon="7.205854514270352"><ele>540.0</ele><time>2026-04-16T11:42:45.001Z</time></trkpt><trkpt lat="44.81522165540848" lon="7.205767379316393"><ele>540.0</ele><time>2026-04-16T11:42:47.001Z</time></trkpt><trkpt lat="44.815138882171006" lon="7.205811559195526"><ele>540.0</ele><time>2026-04-16T11:42:48.001Z</time></trkpt><trkpt lat="44.81508794141867" lon="7.205724422018874"><ele>540.0</ele><time>2026-04-16T11:42:50.001Z</time></trkpt><trkpt lat="44.81505934151637" lon="7.205617231567973"><ele>540.0</ele><time>2026-04-16T11:42:52.001Z</time></trkpt><trkpt lat="44.814996019571154" lon="7.205494850721323"><ele>541.3333333333334</ele><time>2026-04-16T11:42:54.001Z</time></trkpt><trkpt lat="44.814923193862455" lon="7.205324501367958"><ele>542.6666666666666</ele><time>2026-04-16T11:42:56.001Z</time></trkpt><trkpt lat="44.8148776813225" lon="7.205243045543006"><ele>544.0</ele><time>2026-04-16T11:42:57.001Z</time></trkpt><trkpt lat="44.814823828043586" lon="7.205161873905517"><ele>545.3333333333333</ele><time>2026-04-16T11:42:58.001Z</time></trkpt><trkpt lat="44.81475992477026" lon="7.205101416240073"><ele>546.6666666666666</ele><time>2026-04-16T11:42:59.001Z</time></trkpt><trkpt lat="44.81470085260446" lon="7.205068186287013"><ele>548.0</ele><time>2026-04-16T11:43:00.001Z</time></trkpt><trkpt lat="44.814625324857765" lon="7.205040792783202"><ele>548.0</ele><time>2026-04-16T11:43:01.001Z</time></trkpt><trkpt lat="44.81453736686095" lon="7.20498482306854"><ele>548.0</ele><time>2026-04-16T11:43:03.001Z</time></trkpt><trkpt lat="44.814460865293036" lon="7.20493782547245"><ele>548.0</ele><time>2026-04-16T11:43:07.001Z</time></trkpt><trkpt lat="44.81441081203748" lon="7.204840148417434"><ele>548.0</ele><time>2026-04-16T11:43:09.001Z</time></trkpt><trkpt lat="44.81436801292227" lon="7.204773701187184"><ele>548.0</ele><time>2026-04-16T11:43:10.001Z</time></trkpt><trkpt lat="44.814298526665574" lon="7.2046762766851185"><ele>548.0</ele><time>2026-04-16T11:43:12.001Z</time></trkpt><trkpt lat="44.814350959482965" lon="7.204749695995554"><ele>548.0</ele><time>2026-04-16T11:43:27.001Z</time></trkpt><trkpt lat="44.81442533604518" lon="7.204854960611062"><ele>548.0</ele><time>2026-04-16T11:43:29.001Z</time></trkpt><trkpt lat="44.814503266832794" lon="7.2049311055656275"><ele>548.0</ele><time>2026-04-16T11:43:31.001Z</time></trkpt><trkpt lat="44.814598695346675" lon="7.205029427270071"><ele>548.0</ele><time>2026-04-16T11:43:33.001Z</time></trkpt><trkpt lat="44.814709036333596" lon="7.2050920543131936"><ele>548.0</ele><time>2026-04-16T11:43:35.001Z</time></trkpt><trkpt lat="44.81482603886927" lon="7.2051364915480365"><ele>548.0</ele><time>2026-04-16T11:43:37.001Z</time></trkpt><trkpt lat="44.81490367833064" lon="7.205216461421587"><ele>548.0</ele><time>2026-04-16T11:43:39.001Z</time></trkpt><trkpt lat="44.81494409329672" lon="7.205342450063419"><ele>548.0</ele><time>2026-04-16T11:43:40.001Z</time></trkpt><trkpt lat="44.81498535650887" lon="7.205433149814286"><ele>548.0</ele><time>2026-04-16T11:43:41.001Z</time></trkpt><trkpt lat="44.81504891573958" lon="7.205536548424172"><ele>548.0</ele><time>2026-04-16T11:43:43.001Z</time></trkpt><trkpt lat="44.81507106769277" lon="7.205639046403676"><ele>548.0</ele><time>2026-04-16T11:43:44.001Z</time></trkpt><trkpt lat="44.81513814174033" lon="7.205769850890127"><ele>548.0</ele><time>2026-04-16T11:43:46Z</time></trkpt><trkpt lat="44.81521037802813" lon="7.205792946599067"><ele>548.0</ele><time>2026-04-16T11:43:49Z</time></trkpt><trkpt lat="44.81518583376677" lon="7.205704699321629"><ele>548.0</ele><time>2026-04-16T11:43:53Z</time></trkpt><trkpt lat="44.81510305182579" lon="7.205547915853751"><ele>548.0</ele><time>2026-04-16T11:43:55Z</time></trkpt><trkpt lat="44.81505756667892" lon="7.205453934588512"><ele>548.0</ele><time>2026-04-16T11:43:56Z</time></trkpt><trkpt lat="44.81501083770305" lon="7.205354005338266"><ele>548.0</ele><time>2026-04-16T11:43:57Z</time></trkpt><trkpt lat="44.81495171497937" lon="7.205231729985697"><ele>548.0</ele><time>2026-04-16T11:43:58Z</time></trkpt><trkpt lat="44.81491581037873" lon="7.2051255616696785"><ele>548.0</ele><time>2026-04-16T11:43:59Z</time></trkpt><trkpt lat="44.8148630642299" lon="7.20500299868716"><ele>548.0</ele><time>2026-04-16T11:44:00Z</time></trkpt><trkpt lat="44.81488814082758" lon="7.204815034697395"><ele>548.0</ele><time>2026-04-16T11:44:01Z</time></trkpt><trkpt lat="44.81482364738288" lon="7.204631924444315"><ele>547.5</ele><time>2026-04-16T11:44:02Z</time></trkpt><trkpt lat="44.814754537858946" lon="7.204453595411277"><ele>547.0</ele><time>2026-04-16T11:44:03Z</time></trkpt><trkpt lat="44.81469844526251" lon="7.204267005090687"><ele>546.5</ele><time>2026-04-16T11:44:04Z</time></trkpt><trkpt lat="44.8146181314093" lon="7.2040721900339895"><ele>546.0</ele><time>2026-04-16T11:44:05Z</time></trkpt><trkpt lat="44.8145333059905" lon="7.203845807717057"><ele>545.3333333333334</ele><time>2026-04-16T11:44:06Z</time></trkpt><trkpt lat="44.814470621316" lon="7.203615158679704"><ele>544.6666666666667</ele><time>2026-04-16T11:44:07Z</time></trkpt><trkpt lat="44.8143926203149" lon="7.203387755180873"><ele>544.0</ele><time>2026-04-16T11:44:08Z</time></trkpt><trkpt lat="44.81429293240843" lon="7.203158571977496"><ele>546.3333333333334</ele><time>2026-04-16T11:44:09Z</time></trkpt><trkpt lat="44.81422570495056" lon="7.202921324676356"><ele>548.6666666666666</ele><time>2026-04-16T11:44:10Z</time></trkpt><trkpt lat="44.81414450995749" lon="7.2027312373905215"><ele>551.0</ele><time>2026-04-16T11:44:11Z</time></trkpt><trkpt lat="44.814088377159344" lon="7.202546966308634"><ele>551.0</ele><time>2026-04-16T11:44:12Z</time></trkpt><trkpt lat="44.81407242524828" lon="7.202358261365666"><ele>551.0</ele><time>2026-04-16T11:44:13Z</time></trkpt><trkpt lat="44.81406046779676" lon="7.20217458135687"><ele>551.0</ele><time>2026-04-16T11:44:14Z</time></trkpt><trkpt lat="44.81405783100775" lon="7.201962982593714"><ele>551.0</ele><time>2026-04-16T11:44:15Z</time></trkpt><trkpt lat="44.81406175847872" lon="7.201721887769036"><ele>552.3333333333333</ele><time>2026-04-16T11:44:16Z</time></trkpt><trkpt lat="44.81406977107794" lon="7.201456759922284"><ele>553.6666666666666</ele><time>2026-04-16T11:44:17Z</time></trkpt><trkpt lat="44.81407539117672" lon="7.20124227703564"><ele>555.0</ele><time>2026-04-16T11:44:18Z</time></trkpt><trkpt lat="44.81407774599094" lon="7.201048636480069"><ele>555.0</ele><time>2026-04-16T11:44:19Z</time></trkpt><trkpt lat="44.81407419999334" lon="7.200875467568531"><ele>555.0</ele><time>2026-04-16T11:44:20Z</time></trkpt><trkpt lat="44.81406505455672" lon="7.200693098864695"><ele>555.0</ele><time>2026-04-16T11:44:21Z</time></trkpt><trkpt lat="44.81402894463517" lon="7.2004861141501975"><ele>555.0</ele><time>2026-04-16T11:44:22Z</time></trkpt><trkpt lat="44.813962925696295" lon="7.200265983567221"><ele>555.3333333333334</ele><time>2026-04-16T11:44:23Z</time></trkpt><trkpt lat="44.813875571534126" lon="7.200051386582222"><ele>555.6666666666667</ele><time>2026-04-16T11:44:24Z</time></trkpt><trkpt lat="44.81378260932378" lon="7.199824069893771"><ele>556.0</ele><time>2026-04-16T11:44:25Z</time></trkpt><trkpt lat="44.81368328382036" lon="7.19958490498501"><ele>556.3333333333334</ele><time>2026-04-16T11:44:26Z</time></trkpt><trkpt lat="44.81358527792698" lon="7.199355240393928"><ele>556.6666666666666</ele><time>2026-04-16T11:44:27Z</time></trkpt><trkpt lat="44.813491879807714" lon="7.199121398701243"><ele>557.0</ele><time>2026-04-16T11:44:28Z</time></trkpt><trkpt lat="44.813395986083954" lon="7.198873616185192"><ele>557.6666666666666</ele><time>2026-04-16T11:44:29Z</time></trkpt><trkpt lat="44.813290557324436" lon="7.198617231968733"><ele>558.3333333333334</ele><time>2026-04-16T11:44:30Z</time></trkpt><trkpt lat="44.81318298582101" lon="7.198358682245432"><ele>559.0</ele><time>2026-04-16T11:44:31Z</time></trkpt><trkpt lat="44.81307547902575" lon="7.198100288081128"><ele>560.0</ele><time>2026-04-16T11:44:32Z</time></trkpt><trkpt lat="44.812983055561965" lon="7.19785281633591"><ele>561.0</ele><time>2026-04-16T11:44:33Z</time></trkpt><trkpt lat="44.8128622226473" lon="7.1976384324014715"><ele>562.0</ele><time>2026-04-16T11:44:34Z</time></trkpt><trkpt lat="44.81279040652867" lon="7.197401842023593"><ele>563.0</ele><time>2026-04-16T11:44:35Z</time></trkpt><trkpt lat="44.81271220927619" lon="7.19714963483266"><ele>564.0</ele><time>2026-04-16T11:44:36Z</time></trkpt><trkpt lat="44.81263123038289" lon="7.19688568433462"><ele>565.0</ele><time>2026-04-16T11:44:37Z</time></trkpt><trkpt lat="44.81257358226922" lon="7.196594998705048"><ele>565.6666666666667</ele><time>2026-04-16T11:44:38Z</time></trkpt><trkpt lat="44.812490638873314" lon="7.196337668901729"><ele>566.3333333333334</ele><time>2026-04-16T11:44:39Z</time></trkpt><trkpt lat="44.812405193984155" lon="7.196070383016536"><ele>567.0</ele><time>2026-04-16T11:44:40Z</time></trkpt><trkpt lat="44.812317136913315" lon="7.195797071376455"><ele>568.0</ele><time>2026-04-16T11:44:41Z</time></trkpt><trkpt lat="44.81223602254741" lon="7.195545597091463"><ele>569.0</ele><time>2026-04-16T11:44:42Z</time></trkpt><trkpt lat="44.812162689435965" lon="7.195315643831338"><ele>570.0</ele><time>2026-04-16T11:44:43Z</time></trkpt><trkpt lat="44.81209045350542" lon="7.195084411246255"><ele>570.0</ele><time>2026-04-16T11:44:44.001Z</time></trkpt><trkpt lat="44.812012036196975" lon="7.194845887257067"><ele>570.0</ele><time>2026-04-16T11:44:45.001Z</time></trkpt><trkpt lat="44.81192710467294" lon="7.194597039186928"><ele>570.0</ele><time>2026-04-16T11:44:46.001Z</time></trkpt><trkpt lat="44.811847426261075" lon="7.194349489460181"><ele>570.3333333333334</ele><time>2026-04-16T11:44:47.001Z</time></trkpt><trkpt lat="44.8117658303563" lon="7.194088382547989"><ele>570.6666666666667</ele><time>2026-04-16T11:44:48.001Z</time></trkpt><trkpt lat="44.81168289240181" lon="7.193826079350559"><ele>571.0</ele><time>2026-04-16T11:44:49.001Z</time></trkpt><trkpt lat="44.811603838364995" lon="7.1935897734981635"><ele>571.25</ele><time>2026-04-16T11:44:50.001Z</time></trkpt><trkpt lat="44.81152246138417" lon="7.193387440490172"><ele>571.5</ele><time>2026-04-16T11:44:51.001Z</time></trkpt><trkpt lat="44.81144644575246" lon="7.193221085164069"><ele>571.75</ele><time>2026-04-16T11:44:52.001Z</time></trkpt><trkpt lat="44.811371135561664" lon="7.193079299962397"><ele>572.0</ele><time>2026-04-16T11:44:53.001Z</time></trkpt><trkpt lat="44.81127441584309" lon="7.192983355910765"><ele>572.5</ele><time>2026-04-16T11:44:54.001Z</time></trkpt><trkpt lat="44.811188412406615" lon="7.192878028140439"><ele>573.0</ele><time>2026-04-16T11:44:55.001Z</time></trkpt><trkpt lat="44.81109921773142" lon="7.192764034712113"><ele>573.5</ele><time>2026-04-16T11:44:56.001Z</time></trkpt><trkpt lat="44.81097063751658" lon="7.192700425301262"><ele>574.0</ele><time>2026-04-16T11:44:57.001Z</time></trkpt><trkpt lat="44.81083297050734" lon="7.192617066373554"><ele>574.0</ele><time>2026-04-16T11:44:58.001Z</time></trkpt><trkpt lat="44.81068864744896" lon="7.192535079696804"><ele>574.0</ele><time>2026-04-16T11:44:59.001Z</time></trkpt><trkpt lat="44.81055097238906" lon="7.192437681616281"><ele>574.0</ele><time>2026-04-16T11:45:00.001Z</time></trkpt><trkpt lat="44.81041506514607" lon="7.192357093739915"><ele>574.4</ele><time>2026-04-16T11:45:01.001Z</time></trkpt><trkpt lat="44.810286248686076" lon="7.192288260295032"><ele>574.8</ele><time>2026-04-16T11:45:02.001Z</time></trkpt><trkpt lat="44.81019886222874" lon="7.192257702166111"><ele>575.2</ele><time>2026-04-16T11:45:03.001Z</time></trkpt><trkpt lat="44.81011960309605" lon="7.192215152697844"><ele>575.6</ele><time>2026-04-16T11:45:04.001Z</time></trkpt><trkpt lat="44.81003984506828" lon="7.192165989023044"><ele>576.0</ele><time>2026-04-16T11:45:05.001Z</time></trkpt><trkpt lat="44.80995816649879" lon="7.1921147364035845"><ele>576.6</ele><time>2026-04-16T11:45:06.001Z</time></trkpt><trkpt lat="44.809883922565234" lon="7.192028458799363"><ele>577.2</ele><time>2026-04-16T11:45:07.001Z</time></trkpt><trkpt lat="44.809788068193235" lon="7.191946423067282"><ele>577.8</ele><time>2026-04-16T11:45:08.001Z</time></trkpt><trkpt lat="44.80969222164956" lon="7.191850608020582"><ele>578.4</ele><time>2026-04-16T11:45:09.001Z</time></trkpt><trkpt lat="44.809620281810744" lon="7.191722324742787"><ele>579.0</ele><time>2026-04-16T11:45:10.001Z</time></trkpt><trkpt lat="44.80955938894467" lon="7.191586521994595"><ele>579.25</ele><time>2026-04-16T11:45:11.001Z</time></trkpt><trkpt lat="44.809521452960944" lon="7.191429069674944"><ele>579.5</ele><time>2026-04-16T11:45:12.001Z</time></trkpt><trkpt lat="44.80947218386813" lon="7.1912621869825415"><ele>579.75</ele><time>2026-04-16T11:45:13.001Z</time></trkpt><trkpt lat="44.809427155367175" lon="7.191076189378384"><ele>580.0</ele><time>2026-04-16T11:45:14.001Z</time></trkpt><trkpt lat="44.80937016465198" lon="7.190869277074133"><ele>586.3333333333334</ele><time>2026-04-16T11:45:15.001Z</time></trkpt><trkpt lat="44.80930231723909" lon="7.190644981673521"><ele>592.6666666666666</ele><time>2026-04-16T11:45:16.001Z</time></trkpt><trkpt lat="44.80924388247598" lon="7.1904315950763955"><ele>599.0</ele><time>2026-04-16T11:45:17.001Z</time></trkpt><trkpt lat="44.80921062869278" lon="7.1902210779333"><ele>599.0</ele><time>2026-04-16T11:45:18.001Z</time></trkpt><trkpt lat="44.809165176009934" lon="7.19002443533932"><ele>599.0</ele><time>2026-04-16T11:45:19.001Z</time></trkpt><trkpt lat="44.8091207210014" lon="7.1898329560457634"><ele>599.0</ele><time>2026-04-16T11:45:20.001Z</time></trkpt><trkpt lat="44.8090857158943" lon="7.189616183072"><ele>599.0</ele><time>2026-04-16T11:45:21.001Z</time></trkpt><trkpt lat="44.80905168873251" lon="7.189384621120314"><ele>598.0</ele><time>2026-04-16T11:45:22.001Z</time></trkpt><trkpt lat="44.80900771236375" lon="7.189127718107094"><ele>597.0</ele><time>2026-04-16T11:45:23.001Z</time></trkpt><trkpt lat="44.80896270414876" lon="7.188872582593008"><ele>596.0</ele><time>2026-04-16T11:45:24.001Z</time></trkpt><trkpt lat="44.808920418449276" lon="7.1886379531019635"><ele>595.4</ele><time>2026-04-16T11:45:25.001Z</time></trkpt><trkpt lat="44.80888494226443" lon="7.188440561938131"><ele>594.8</ele><time>2026-04-16T11:45:26.001Z</time></trkpt><trkpt lat="44.80886215970195" lon="7.188297604681992"><ele>594.1999999999999</ele><time>2026-04-16T11:45:27.001Z</time></trkpt><trkpt lat="44.80884179717666" lon="7.188185924947416"><ele>593.6</ele><time>2026-04-16T11:45:28.001Z</time></trkpt><trkpt lat="44.80881222300697" lon="7.1880998242191625"><ele>593.0</ele><time>2026-04-16T11:45:29.001Z</time></trkpt><trkpt lat="44.80877065590188" lon="7.188016511237496"><ele>592.1999999999999</ele><time>2026-04-16T11:45:30.001Z</time></trkpt><trkpt lat="44.808630720961425" lon="7.188040597398464"><ele>591.4</ele><time>2026-04-16T11:45:31.001Z</time></trkpt><trkpt lat="44.808553770124334" lon="7.187977455659556"><ele>590.5999999999999</ele><time>2026-04-16T11:45:32.001Z</time></trkpt><trkpt lat="44.808513981097555" lon="7.187899479307015"><ele>589.8</ele><time>2026-04-16T11:45:33.001Z</time></trkpt><trkpt lat="44.80849363282005" lon="7.187763416702443"><ele>589.0</ele><time>2026-04-16T11:45:35.001Z</time></trkpt><trkpt lat="44.80845488378119" lon="7.187641186274969"><ele>592.3333333333334</ele><time>2026-04-16T11:45:36.001Z</time></trkpt><trkpt lat="44.8084273319279" lon="7.187515549349084"><ele>595.6666666666667</ele><time>2026-04-16T11:45:37.001Z</time></trkpt><trkpt lat="44.808400005735606" lon="7.187408416691172"><ele>599.0</ele><time>2026-04-16T11:45:38.001Z</time></trkpt><trkpt lat="44.808373089255504" lon="7.187309720141508"><ele>602.3333333333334</ele><time>2026-04-16T11:45:39.001Z</time></trkpt><trkpt lat="44.80834920384518" lon="7.187226100248073"><ele>605.6666666666666</ele><time>2026-04-16T11:45:40.001Z</time></trkpt><trkpt lat="44.80831189600494" lon="7.187102366583588"><ele>609.0</ele><time>2026-04-16T11:45:42.001Z</time></trkpt><trkpt lat="44.80826283892395" lon="7.186979209857551"><ele>609.0</ele><time>2026-04-16T11:45:44.001Z</time></trkpt><trkpt lat="44.808225327842365" lon="7.18689320312488"><ele>609.0</ele><time>2026-04-16T11:45:47.001Z</time></trkpt><trkpt lat="44.808115624060626" lon="7.1869332579843626"><ele>609.0</ele><time>2026-04-16T11:45:48.001Z</time></trkpt><trkpt lat="44.80804341728212" lon="7.186927780239001"><ele>609.0</ele><time>2026-04-16T11:45:49.001Z</time></trkpt><trkpt lat="44.80794202381966" lon="7.186930802251852"><ele>609.0</ele><time>2026-04-16T11:45:50.001Z</time></trkpt><trkpt lat="44.807818089328066" lon="7.186935367131032"><ele>609.0</ele><time>2026-04-16T11:45:51.001Z</time></trkpt><trkpt lat="44.80768797850535" lon="7.186942589243546"><ele>609.0</ele><time>2026-04-16T11:45:52Z</time></trkpt><trkpt lat="44.807544506108705" lon="7.186958401477736"><ele>609.0</ele><time>2026-04-16T11:45:53Z</time></trkpt><trkpt lat="44.80739991508888" lon="7.186957946699974"><ele>609.0</ele><time>2026-04-16T11:45:54Z</time></trkpt><trkpt lat="44.80726563046487" lon="7.186960899850587"><ele>610.0</ele><time>2026-04-16T11:45:55Z</time></trkpt><trkpt lat="44.807168524648475" lon="7.186956822767146"><ele>611.0</ele><time>2026-04-16T11:45:56Z</time></trkpt><trkpt lat="44.80709692935497" lon="7.186985698676207"><ele>612.0</ele><time>2026-04-16T11:45:57Z</time></trkpt><trkpt lat="44.80702781871703" lon="7.187024481093628"><ele>613.0</ele><time>2026-04-16T11:45:58Z</time></trkpt><trkpt lat="44.80697235305848" lon="7.187090368157282"><ele>614.0</ele><time>2026-04-16T11:45:59Z</time></trkpt><trkpt lat="44.80693365824268" lon="7.187265283592046"><ele>615.0</ele><time>2026-04-16T11:46:01Z</time></trkpt><trkpt lat="44.80692622705588" lon="7.187402438075662"><ele>615.0</ele><time>2026-04-16T11:46:02Z</time></trkpt><trkpt lat="44.806939610606115" lon="7.187562408822624"><ele>615.0</ele><time>2026-04-16T11:46:03Z</time></trkpt><trkpt lat="44.80697037648377" lon="7.187753621055769"><ele>615.0</ele><time>2026-04-16T11:46:04Z</time></trkpt><trkpt lat="44.80699574249205" lon="7.187983333286107"><ele>615.0</ele><time>2026-04-16T11:46:05Z</time></trkpt><trkpt lat="44.80701866180957" lon="7.188187037230391"><ele>615.6</ele><time>2026-04-16T11:46:06Z</time></trkpt><trkpt lat="44.80704936281555" lon="7.188358523006144"><ele>616.2</ele><time>2026-04-16T11:46:07Z</time></trkpt><trkpt lat="44.80707150402053" lon="7.188483725409571"><ele>616.8</ele><time>2026-04-16T11:46:08Z</time></trkpt><trkpt lat="44.80708216555213" lon="7.188572555626808"><ele>617.4</ele><time>2026-04-16T11:46:09Z</time></trkpt><trkpt lat="44.807051588681965" lon="7.188726679511773"><ele>618.0</ele><time>2026-04-16T11:46:11Z</time></trkpt><trkpt lat="44.80692596608388" lon="7.18872341668842"><ele>618.0</ele><time>2026-04-16T11:46:13Z</time></trkpt><trkpt lat="44.80686273387745" lon="7.188584811952797"><ele>618.0</ele><time>2026-04-16T11:46:15Z</time></trkpt><trkpt lat="44.80688049343848" lon="7.188470438985848"><ele>618.0</ele><time>2026-04-16T11:46:16Z</time></trkpt><trkpt lat="44.806837109916316" lon="7.188359519224643"><ele>618.0</ele><time>2026-04-16T11:46:17Z</time></trkpt><trkpt lat="44.8067839439072" lon="7.188269608567111"><ele>618.0</ele><time>2026-04-16T11:46:18Z</time></trkpt><trkpt lat="44.80670924001559" lon="7.188227332779613"><ele>621.1999999999999</ele><time>2026-04-16T11:46:19Z</time></trkpt><trkpt lat="44.806631115283736" lon="7.188221163924441"><ele>624.4</ele><time>2026-04-16T11:46:20Z</time></trkpt><trkpt lat="44.80654726569927" lon="7.188266938062187"><ele>627.5999999999999</ele><time>2026-04-16T11:46:21Z</time></trkpt><trkpt lat="44.80644769531908" lon="7.188296364642301"><ele>630.8</ele><time>2026-04-16T11:46:22Z</time></trkpt><trkpt lat="44.80634484929651" lon="7.18831461613157"><ele>634.0</ele><time>2026-04-16T11:46:23Z</time></trkpt><trkpt lat="44.80624420088912" lon="7.188332781560367"><ele>634.0</ele><time>2026-04-16T11:46:24Z</time></trkpt><trkpt lat="44.806180861623154" lon="7.188257926576244"><ele>634.0</ele><time>2026-04-16T11:46:25Z</time></trkpt><trkpt lat="44.8061277714869" lon="7.188200771368534"><ele>634.0</ele><time>2026-04-16T11:46:26Z</time></trkpt><trkpt lat="44.80606430002433" lon="7.188137484856878"><ele>634.0</ele><time>2026-04-16T11:46:27Z</time></trkpt><trkpt lat="44.80599741744287" lon="7.188094907272104"><ele>634.0</ele><time>2026-04-16T11:46:28Z</time></trkpt><trkpt lat="44.80593053812185" lon="7.187997553967294"><ele>634.0</ele><time>2026-04-16T11:46:29Z</time></trkpt><trkpt lat="44.80590091477322" lon="7.187895981981723"><ele>636.0</ele><time>2026-04-16T11:46:30Z</time></trkpt><trkpt lat="44.80583989277729" lon="7.187846296366631"><ele>638.0</ele><time>2026-04-16T11:46:31Z</time></trkpt><trkpt lat="44.80577810291138" lon="7.187725608196701"><ele>640.0</ele><time>2026-04-16T11:46:32Z</time></trkpt><trkpt lat="44.80575497718919" lon="7.187566721117595"><ele>642.0</ele><time>2026-04-16T11:46:33Z</time></trkpt><trkpt lat="44.80573838423266" lon="7.187425926541276"><ele>644.0</ele><time>2026-04-16T11:46:34Z</time></trkpt><trkpt lat="44.80572751264107" lon="7.1873223719684995"><ele>644.0</ele><time>2026-04-16T11:46:35Z</time></trkpt><trkpt lat="44.80571571835438" lon="7.18720788257547"><ele>644.0</ele><time>2026-04-16T11:46:36Z</time></trkpt><trkpt lat="44.805714042601686" lon="7.18706658081352"><ele>644.0</ele><time>2026-04-16T11:46:37Z</time></trkpt><trkpt lat="44.8057282408784" lon="7.186915023212217"><ele>644.0</ele><time>2026-04-16T11:46:38Z</time></trkpt><trkpt lat="44.805722445425246" lon="7.186770990616264"><ele>644.0</ele><time>2026-04-16T11:46:39Z</time></trkpt><trkpt lat="44.80568081082238" lon="7.186680798933676"><ele>644.0</ele><time>2026-04-16T11:46:40Z</time></trkpt><trkpt lat="44.80563153982591" lon="7.186617454214017"><ele>644.0</ele><time>2026-04-16T11:46:41Z</time></trkpt><trkpt lat="44.805566756814564" lon="7.186508779483294"><ele>644.0</ele><time>2026-04-16T11:46:42Z</time></trkpt><trkpt lat="44.80547486190918" lon="7.186394221781633"><ele>644.0</ele><time>2026-04-16T11:46:43Z</time></trkpt><trkpt lat="44.80539345585702" lon="7.186238369532746"><ele>644.0</ele><time>2026-04-16T11:46:44Z</time></trkpt><trkpt lat="44.80533249775405" lon="7.186067066655855"><ele>643.0</ele><time>2026-04-16T11:46:45Z</time></trkpt><trkpt lat="44.80529216285101" lon="7.185944271233527"><ele>642.0</ele><time>2026-04-16T11:46:46.001Z</time></trkpt><trkpt lat="44.805259729783465" lon="7.185804755890725"><ele>641.0</ele><time>2026-04-16T11:46:47.001Z</time></trkpt><trkpt lat="44.80524225008077" lon="7.1856228862394005"><ele>640.0</ele><time>2026-04-16T11:46:48.001Z</time></trkpt><trkpt lat="44.80522175662057" lon="7.185419185894423"><ele>640.0</ele><time>2026-04-16T11:46:49.001Z</time></trkpt><trkpt lat="44.80523229869906" lon="7.185226507071477"><ele>640.0</ele><time>2026-04-16T11:46:50.001Z</time></trkpt><trkpt lat="44.80522894365981" lon="7.1849863905206695"><ele>640.0</ele><time>2026-04-16T11:46:51.001Z</time></trkpt><trkpt lat="44.80522000141972" lon="7.184762322391249"><ele>641.6666666666667</ele><time>2026-04-16T11:46:52.001Z</time></trkpt><trkpt lat="44.80521894172531" lon="7.184550226961744"><ele>643.3333333333334</ele><time>2026-04-16T11:46:53.001Z</time></trkpt><trkpt lat="44.80521152562763" lon="7.1843106069847815"><ele>645.0</ele><time>2026-04-16T11:46:54.001Z</time></trkpt><trkpt lat="44.80520169166933" lon="7.184122513587953"><ele>647.0</ele><time>2026-04-16T11:46:55.001Z</time></trkpt><trkpt lat="44.8051707676477" lon="7.1839539777197015"><ele>649.0</ele><time>2026-04-16T11:46:56.001Z</time></trkpt><trkpt lat="44.80514470611912" lon="7.183801958620248"><ele>651.0</ele><time>2026-04-16T11:46:57.001Z</time></trkpt><trkpt lat="44.8051501339942" lon="7.183661852502531"><ele>653.0</ele><time>2026-04-16T11:46:58.001Z</time></trkpt><trkpt lat="44.805142673625774" lon="7.183497013218207"><ele>660.75</ele><time>2026-04-16T11:46:59.001Z</time></trkpt><trkpt lat="44.80513415067754" lon="7.183321997173867"><ele>668.5</ele><time>2026-04-16T11:47:00.001Z</time></trkpt><trkpt lat="44.805125893033875" lon="7.183126479322457"><ele>676.25</ele><time>2026-04-16T11:47:01.001Z</time></trkpt><trkpt lat="44.80513079087464" lon="7.182901920811131"><ele>684.0</ele><time>2026-04-16T11:47:02.001Z</time></trkpt><trkpt lat="44.80511856382583" lon="7.182690129978941"><ele>684.0</ele><time>2026-04-16T11:47:03.001Z</time></trkpt><trkpt lat="44.80514109303959" lon="7.182537637362756"><ele>684.0</ele><time>2026-04-16T11:47:04.001Z</time></trkpt><trkpt lat="44.80514700542704" lon="7.182398219416194"><ele>684.0</ele><time>2026-04-16T11:47:05.001Z</time></trkpt><trkpt lat="44.805157415376065" lon="7.182275588640259"><ele>684.0</ele><time>2026-04-16T11:47:06.001Z</time></trkpt><trkpt lat="44.80517206620669" lon="7.182136741403947"><ele>684.0</ele><time>2026-04-16T11:47:07.001Z</time></trkpt><trkpt lat="44.805166513688924" lon="7.182028800313314"><ele>684.2</ele><time>2026-04-16T11:47:08.001Z</time></trkpt><trkpt lat="44.80518803544669" lon="7.181913283872068"><ele>684.4000000000001</ele><time>2026-04-16T11:47:09.001Z</time></trkpt><trkpt lat="44.80518494740644" lon="7.181793136118869"><ele>684.6</ele><time>2026-04-16T11:47:10.001Z</time></trkpt><trkpt lat="44.805139332235406" lon="7.181678208304946"><ele>684.8</ele><time>2026-04-16T11:47:11.001Z</time></trkpt><trkpt lat="44.805104292341866" lon="7.18154796214712"><ele>685.0</ele><time>2026-04-16T11:47:12.001Z</time></trkpt><trkpt lat="44.80508080500072" lon="7.181421901966518"><ele>684.0</ele><time>2026-04-16T11:47:13.001Z</time></trkpt><trkpt lat="44.80502635923392" lon="7.181296818208524"><ele>683.0</ele><time>2026-04-16T11:47:14.001Z</time></trkpt><trkpt lat="44.80494325583543" lon="7.181170279442605"><ele>682.0</ele><time>2026-04-16T11:47:15.001Z</time></trkpt><trkpt lat="44.80486915689711" lon="7.181049076475266"><ele>681.0</ele><time>2026-04-16T11:47:16.001Z</time></trkpt><trkpt lat="44.80478530744895" lon="7.180910354373654"><ele>681.0</ele><time>2026-04-16T11:47:17.001Z</time></trkpt><trkpt lat="44.80469358707696" lon="7.18079692224145"><ele>681.0</ele><time>2026-04-16T11:47:18.001Z</time></trkpt><trkpt lat="44.80457960096815" lon="7.180660034726777"><ele>681.0</ele><time>2026-04-16T11:47:19.001Z</time></trkpt><trkpt lat="44.80450523317445" lon="7.180561684027692"><ele>681.0</ele><time>2026-04-16T11:47:20.001Z</time></trkpt><trkpt lat="44.804465366944896" lon="7.180437474860121"><ele>679.4</ele><time>2026-04-16T11:47:22.001Z</time></trkpt><trkpt lat="44.804463785907565" lon="7.180270187307306"><ele>677.8</ele><time>2026-04-16T11:47:24.001Z</time></trkpt><trkpt lat="44.80443439758674" lon="7.180118776183083"><ele>676.1999999999999</ele><time>2026-04-16T11:47:25.001Z</time></trkpt><trkpt lat="44.80442173948122" lon="7.1799564898662"><ele>674.5999999999999</ele><time>2026-04-16T11:47:26.001Z</time></trkpt><trkpt lat="44.80441396013165" lon="7.179814122330932"><ele>673.0</ele><time>2026-04-16T11:47:27.001Z</time></trkpt><trkpt lat="44.80441437909801" lon="7.1796719844472205"><ele>671.8</ele><time>2026-04-16T11:47:28.001Z</time></trkpt><trkpt lat="44.80438810466258" lon="7.179535317781745"><ele>670.5999999999999</ele><time>2026-04-16T11:47:29.001Z</time></trkpt><trkpt lat="44.804385291221294" lon="7.1793709752020085"><ele>669.4000000000001</ele><time>2026-04-16T11:47:30.001Z</time></trkpt><trkpt lat="44.804384045672876" lon="7.1792460479471965"><ele>668.2</ele><time>2026-04-16T11:47:31.001Z</time></trkpt><trkpt lat="44.80437385897534" lon="7.1791452766031565"><ele>667.0</ele><time>2026-04-16T11:47:32.001Z</time></trkpt><trkpt lat="44.80439250587976" lon="7.179009237567022"><ele>666.0</ele><time>2026-04-16T11:47:33.001Z</time></trkpt><trkpt lat="44.80438850758395" lon="7.178874513244788"><ele>665.0</ele><time>2026-04-16T11:47:34.001Z</time></trkpt><trkpt lat="44.80440629753438" lon="7.178705312147029"><ele>664.0</ele><time>2026-04-16T11:47:35.001Z</time></trkpt><trkpt lat="44.80441571424579" lon="7.178524773862413"><ele>663.0</ele><time>2026-04-16T11:47:36.001Z</time></trkpt><trkpt lat="44.80442115416447" lon="7.178399475361395"><ele>662.0</ele><time>2026-04-16T11:47:37.001Z</time></trkpt><trkpt lat="44.80442936663077" lon="7.178276780985427"><ele>661.4000000000001</ele><time>2026-04-16T11:47:38.001Z</time></trkpt><trkpt lat="44.80443180051918" lon="7.178165530688321"><ele>660.8000000000001</ele><time>2026-04-16T11:47:39.001Z</time></trkpt><trkpt lat="44.804425928393734" lon="7.178014585648288"><ele>660.2</ele><time>2026-04-16T11:47:41.001Z</time></trkpt><trkpt lat="44.8043787518162" lon="7.177879405276194"><ele>659.6</ele><time>2026-04-16T11:47:43.001Z</time></trkpt><trkpt lat="44.80430906559772" lon="7.177763215660809"><ele>659.0</ele><time>2026-04-16T11:47:44.001Z</time></trkpt><trkpt lat="44.804230957421524" lon="7.177641332183655"><ele>668.75</ele><time>2026-04-16T11:47:45.001Z</time></trkpt><trkpt lat="44.80419833990779" lon="7.177473167357481"><ele>678.5</ele><time>2026-04-16T11:47:46.001Z</time></trkpt><trkpt lat="44.804158337759006" lon="7.177311510101008"><ele>688.25</ele><time>2026-04-16T11:47:47.001Z</time></trkpt><trkpt lat="44.80409538819935" lon="7.177122716253919"><ele>698.0</ele><time>2026-04-16T11:47:48.001Z</time></trkpt><trkpt lat="44.80403413761734" lon="7.17694973256068"><ele>698.0</ele><time>2026-04-16T11:47:49.001Z</time></trkpt><trkpt lat="44.80395435814777" lon="7.176790465827841"><ele>698.0</ele><time>2026-04-16T11:47:50.001Z</time></trkpt><trkpt lat="44.80389146940978" lon="7.176648325549333"><ele>698.0</ele><time>2026-04-16T11:47:51.001Z</time></trkpt><trkpt lat="44.80381967354825" lon="7.176498960935579"><ele>698.0</ele><time>2026-04-16T11:47:52.001Z</time></trkpt><trkpt lat="44.80376971019915" lon="7.176323217258378"><ele>694.8</ele><time>2026-04-16T11:47:53.001Z</time></trkpt><trkpt lat="44.803702658586" lon="7.176149557711398"><ele>691.5999999999999</ele><time>2026-04-16T11:47:54.001Z</time></trkpt><trkpt lat="44.80365504852219" lon="7.175978010558616"><ele>688.4000000000001</ele><time>2026-04-16T11:47:55.001Z</time></trkpt><trkpt lat="44.803619693830846" lon="7.175860888494281"><ele>685.2</ele><time>2026-04-16T11:47:56.001Z</time></trkpt><trkpt lat="44.80358502286965" lon="7.175771854909677"><ele>682.0</ele><time>2026-04-16T11:47:57.001Z</time></trkpt><trkpt lat="44.80351886408501" lon="7.175690648127337"><ele>686.6</ele><time>2026-04-16T11:47:58Z</time></trkpt><trkpt lat="44.803421373421024" lon="7.175623939771687"><ele>691.2</ele><time>2026-04-16T11:48:00Z</time></trkpt><trkpt lat="44.80332137402322" lon="7.17571729693395"><ele>695.8</ele><time>2026-04-16T11:48:03Z</time></trkpt><trkpt lat="44.80332782229351" lon="7.1758667190645395"><ele>700.4</ele><time>2026-04-16T11:48:05Z</time></trkpt><trkpt lat="44.803409426278726" lon="7.17597681393801"><ele>705.0</ele><time>2026-04-16T11:48:07Z</time></trkpt><trkpt lat="44.803480786911024" lon="7.176093333688569"><ele>703.6</ele><time>2026-04-16T11:48:09Z</time></trkpt><trkpt lat="44.80354417367477" lon="7.176198350074564"><ele>702.2</ele><time>2026-04-16T11:48:11Z</time></trkpt><trkpt lat="44.80359423896757" lon="7.176279186293253"><ele>700.8</ele><time>2026-04-16T11:48:14Z</time></trkpt><trkpt lat="44.80361406946578" lon="7.17636808538161"><ele>699.4</ele><time>2026-04-16T11:48:19Z</time></trkpt><trkpt lat="44.803627722785635" lon="7.176495213398613"><ele>698.0</ele><time>2026-04-16T11:48:24Z</time></trkpt><trkpt lat="44.80367380689394" lon="7.176696621587241"><ele>698.0</ele><time>2026-04-16T11:48:26Z</time></trkpt><trkpt lat="44.80370092415136" lon="7.176831143232627"><ele>698.0</ele><time>2026-04-16T11:48:27Z</time></trkpt><trkpt lat="44.803714893888824" lon="7.177006696646188"><ele>698.0</ele><time>2026-04-16T11:48:28Z</time></trkpt><trkpt lat="44.803761236326665" lon="7.177196565831784"><ele>698.0</ele><time>2026-04-16T11:48:29Z</time></trkpt><trkpt lat="44.80377318651855" lon="7.177428725490552"><ele>702.25</ele><time>2026-04-16T11:48:30Z</time></trkpt><trkpt lat="44.80382849104156" lon="7.177595646828945"><ele>706.5</ele><time>2026-04-16T11:48:31Z</time></trkpt><trkpt lat="44.80384414084664" lon="7.177818856069196"><ele>710.75</ele><time>2026-04-16T11:48:32Z</time></trkpt><trkpt lat="44.803865446386226" lon="7.178020325642613"><ele>715.0</ele><time>2026-04-16T11:48:33Z</time></trkpt><trkpt lat="44.803877292086625" lon="7.178174517939966"><ele>716.3333333333334</ele><time>2026-04-16T11:48:34Z</time></trkpt><trkpt lat="44.80388511531387" lon="7.17831571975193"><ele>717.6666666666667</ele><time>2026-04-16T11:48:35Z</time></trkpt><trkpt lat="44.80388488172832" lon="7.178440396570763"><ele>719.0</ele><time>2026-04-16T11:48:36Z</time></trkpt><trkpt lat="44.803881290064474" lon="7.178558878193021"><ele>720.3333333333334</ele><time>2026-04-16T11:48:37Z</time></trkpt><trkpt lat="44.80387568067046" lon="7.178667378239389"><ele>721.6666666666666</ele><time>2026-04-16T11:48:38Z</time></trkpt><trkpt lat="44.80386669331809" lon="7.178759389046904"><ele>723.0</ele><time>2026-04-16T11:48:39Z</time></trkpt><trkpt lat="44.80386465841067" lon="7.178875610602705"><ele>723.0</ele><time>2026-04-16T11:48:40Z</time></trkpt><trkpt lat="44.80382204131793" lon="7.178945905684907"><ele>723.0</ele><time>2026-04-16T11:48:41Z</time></trkpt><trkpt lat="44.80380562048112" lon="7.179086113300504"><ele>723.0</ele><time>2026-04-16T11:48:42Z</time></trkpt><trkpt lat="44.80378272329998" lon="7.179244024954872"><ele>723.0</ele><time>2026-04-16T11:48:43Z</time></trkpt><trkpt lat="44.80376347859809" lon="7.179377587305124"><ele>723.0</ele><time>2026-04-16T11:48:44Z</time></trkpt><trkpt lat="44.80372854257421" lon="7.179516968136087"><ele>722.5999999999999</ele><time>2026-04-16T11:48:45Z</time></trkpt><trkpt lat="44.80373929985186" lon="7.1796627431861"><ele>722.1999999999999</ele><time>2026-04-16T11:48:46Z</time></trkpt><trkpt lat="44.8037286064843" lon="7.179774129098179"><ele>721.8</ele><time>2026-04-16T11:48:47Z</time></trkpt><trkpt lat="44.80371811325091" lon="7.179899146056027"><ele>721.4</ele><time>2026-04-16T11:48:48Z</time></trkpt><trkpt lat="44.80368444158492" lon="7.1800171302367275"><ele>721.0</ele><time>2026-04-16T11:48:49.001Z</time></trkpt><trkpt lat="44.80365805941875" lon="7.1801513262895185"><ele>720.5</ele><time>2026-04-16T11:48:50.001Z</time></trkpt><trkpt lat="44.80363985300433" lon="7.180279641662769"><ele>720.0</ele><time>2026-04-16T11:48:51.001Z</time></trkpt><trkpt lat="44.803614541564095" lon="7.180398345657543"><ele>719.5</ele><time>2026-04-16T11:48:52.001Z</time></trkpt><trkpt lat="44.803591448607655" lon="7.180499469296954"><ele>719.0</ele><time>2026-04-16T11:48:53.001Z</time></trkpt><trkpt lat="44.80355722055202" lon="7.180579133945779"><ele>718.5</ele><time>2026-04-16T11:48:54.001Z</time></trkpt><trkpt lat="44.803517139709484" lon="7.180660076474112"><ele>718.0</ele><time>2026-04-16T11:48:55.001Z</time></trkpt><trkpt lat="44.80343297330144" lon="7.180780751133162"><ele>724.8333333333334</ele><time>2026-04-16T11:48:57.001Z</time></trkpt><trkpt lat="44.803379796511635" lon="7.1808463920081405"><ele>731.6666666666667</ele><time>2026-04-16T11:48:58.001Z</time></trkpt><trkpt lat="44.803322514786245" lon="7.180906246518541"><ele>738.5</ele><time>2026-04-16T11:48:59.001Z</time></trkpt><trkpt lat="44.8032197409836" lon="7.180959027552376"><ele>745.3333333333334</ele><time>2026-04-16T11:49:01.001Z</time></trkpt><trkpt lat="44.80313078979738" lon="7.180974026918613"><ele>752.1666666666666</ele><time>2026-04-16T11:49:02.001Z</time></trkpt><trkpt lat="44.803040800653775" lon="7.180994951763923"><ele>759.0</ele><time>2026-04-16T11:49:03.001Z</time></trkpt><trkpt lat="44.80294213709391" lon="7.180976603818995"><ele>759.0</ele><time>2026-04-16T11:49:04.001Z</time></trkpt><trkpt lat="44.8028618447406" lon="7.181026417324348"><ele>759.0</ele><time>2026-04-16T11:49:05.001Z</time></trkpt><trkpt lat="44.80279598097045" lon="7.181069196506306"><ele>759.0</ele><time>2026-04-16T11:49:06.001Z</time></trkpt><trkpt lat="44.80275504015554" lon="7.181170331932524"><ele>759.0</ele><time>2026-04-16T11:49:07.001Z</time></trkpt><trkpt lat="44.80270135220728" lon="7.181336220751457"><ele>759.0</ele><time>2026-04-16T11:49:09.001Z</time></trkpt><trkpt lat="44.80267614713532" lon="7.181455871421578"><ele>763.8333333333334</ele><time>2026-04-16T11:49:10.001Z</time></trkpt><trkpt lat="44.802650905230294" lon="7.181604194197316"><ele>768.6666666666667</ele><time>2026-04-16T11:49:11.001Z</time></trkpt><trkpt lat="44.802639916833336" lon="7.181693394418711"><ele>773.5</ele><time>2026-04-16T11:49:12.001Z</time></trkpt><trkpt lat="44.802629718283285" lon="7.181846792655588"><ele>778.3333333333334</ele><time>2026-04-16T11:49:13.001Z</time></trkpt><trkpt lat="44.802631437420985" lon="7.181943894114515"><ele>783.1666666666667</ele><time>2026-04-16T11:49:14.001Z</time></trkpt><trkpt lat="44.80261013596696" lon="7.182072388081292"><ele>788.0</ele><time>2026-04-16T11:49:15.001Z</time></trkpt><trkpt lat="44.80262938469816" lon="7.18219427056169"><ele>788.0</ele><time>2026-04-16T11:49:16.001Z</time></trkpt><trkpt lat="44.8026348056442" lon="7.182318583179386"><ele>788.0</ele><time>2026-04-16T11:49:17.001Z</time></trkpt><trkpt lat="44.802656001722774" lon="7.182479630208534"><ele>788.0</ele><time>2026-04-16T11:49:18.001Z</time></trkpt><trkpt lat="44.80267410365061" lon="7.182610522004146"><ele>788.0</ele><time>2026-04-16T11:49:19.001Z</time></trkpt><trkpt lat="44.80268289496844" lon="7.1827372127581155"><ele>788.0</ele><time>2026-04-16T11:49:20.001Z</time></trkpt><trkpt lat="44.802703087192334" lon="7.182870367264619"><ele>786.7142857142858</ele><time>2026-04-16T11:49:21.001Z</time></trkpt><trkpt lat="44.80272127512743" lon="7.182970180013315"><ele>785.4285714285714</ele><time>2026-04-16T11:49:22.001Z</time></trkpt><trkpt lat="44.802745079979964" lon="7.183060544887866"><ele>784.1428571428571</ele><time>2026-04-16T11:49:24.001Z</time></trkpt><trkpt lat="44.802773428364475" lon="7.1831563058949"><ele>782.8571428571429</ele><time>2026-04-16T11:49:25.001Z</time></trkpt><trkpt lat="44.802811947422974" lon="7.18325562016044"><ele>781.5714285714286</ele><time>2026-04-16T11:49:26.001Z</time></trkpt><trkpt lat="44.802863706918494" lon="7.183307950541139"><ele>780.2857142857143</ele><time>2026-04-16T11:49:27.001Z</time></trkpt><trkpt lat="44.80294477000572" lon="7.183331481007645"><ele>779.0</ele><time>2026-04-16T11:49:28.001Z</time></trkpt><trkpt lat="44.80305713116688" lon="7.183331514439035"><ele>779.0</ele><time>2026-04-16T11:49:30.001Z</time></trkpt><trkpt lat="44.80313502579482" lon="7.183214494789432"><ele>779.0</ele><time>2026-04-16T11:49:31.001Z</time></trkpt><trkpt lat="44.80320689249657" lon="7.183160161478474"><ele>779.0</ele><time>2026-04-16T11:49:32.001Z</time></trkpt><trkpt lat="44.80330748252612" lon="7.183096596070468"><ele>779.0</ele><time>2026-04-16T11:49:34.001Z</time></trkpt><trkpt lat="44.803398313531886" lon="7.18308634039391"><ele>779.0</ele><time>2026-04-16T11:49:36.001Z</time></trkpt><trkpt lat="44.803464972834206" lon="7.183154531096897"><ele>779.0000000000001</ele><time>2026-04-16T11:49:37.001Z</time></trkpt><trkpt lat="44.80354755104754" lon="7.183211560795318"><ele>779.0</ele><time>2026-04-16T11:49:38.001Z</time></trkpt><trkpt lat="44.80360017921043" lon="7.1832827560449095"><ele>779.0</ele><time>2026-04-16T11:49:39.001Z</time></trkpt><trkpt lat="44.8036580872353" lon="7.1833928473825885"><ele>779.0</ele><time>2026-04-16T11:49:41.001Z</time></trkpt><trkpt lat="44.8035981557864" lon="7.183432250822215"><ele>779.0000000000001</ele><time>2026-04-16T11:49:44.001Z</time></trkpt><trkpt lat="44.80348350132999" lon="7.183467433206856"><ele>779.0</ele><time>2026-04-16T11:49:47.001Z</time></trkpt><trkpt lat="44.803400350223114" lon="7.183496882713527"><ele>779.0000000000001</ele><time>2026-04-16T11:49:48.001Z</time></trkpt><trkpt lat="44.80330292361957" lon="7.183518210948328"><ele>779.0</ele><time>2026-04-16T11:49:49.001Z</time></trkpt><trkpt lat="44.803217566108486" lon="7.183541519759421"><ele>779.0</ele><time>2026-04-16T11:49:50.001Z</time></trkpt><trkpt lat="44.80312582120258" lon="7.183564765274349"><ele>779.0</ele><time>2026-04-16T11:49:51.001Z</time></trkpt><trkpt lat="44.803063159836526" lon="7.183591852273704"><ele>779.0000000000001</ele><time>2026-04-16T11:49:52.001Z</time></trkpt><trkpt lat="44.802988225353296" lon="7.183619086259921"><ele>779.0</ele><time>2026-04-16T11:49:53.001Z</time></trkpt><trkpt lat="44.80289354665466" lon="7.183618114035464"><ele>779.0000000000001</ele><time>2026-04-16T11:49:54.001Z</time></trkpt><trkpt lat="44.80278282759934" lon="7.183615271387593"><ele>779.0</ele><time>2026-04-16T11:49:55.001Z</time></trkpt><trkpt lat="44.80270996084219" lon="7.183595967807198"><ele>779.0</ele><time>2026-04-16T11:49:56.001Z</time></trkpt><trkpt lat="44.80265607993725" lon="7.18349372843093"><ele>779.0</ele><time>2026-04-16T11:49:58.001Z</time></trkpt><trkpt lat="44.80260459333477" lon="7.183366669414522"><ele>779.0000000000001</ele><time>2026-04-16T11:50:00.001Z</time></trkpt><trkpt lat="44.80256783553307" lon="7.183287200123648"><ele>779.0</ele><time>2026-04-16T11:50:01.001Z</time></trkpt><trkpt lat="44.802541601594505" lon="7.1831960994942055"><ele>781.2</ele><time>2026-04-16T11:50:02.002Z</time></trkpt><trkpt lat="44.80254278257274" lon="7.183097864720054"><ele>783.4000000000001</ele><time>2026-04-16T11:50:03.002Z</time></trkpt><trkpt lat="44.802499029165546" lon="7.182984307433935"><ele>785.6</ele><time>2026-04-16T11:50:05Z</time></trkpt><trkpt lat="44.802458487693066" lon="7.182709426321789"><ele>787.8</ele><time>2026-04-16T11:50:07Z</time></trkpt><trkpt lat="44.80241248061861" lon="7.182644342603846"><ele>790.0</ele><time>2026-04-16T11:50:08Z</time></trkpt><trkpt lat="44.80233946430745" lon="7.182541050186124"><ele>789.9999999999999</ele><time>2026-04-16T11:50:10Z</time></trkpt><trkpt lat="44.80226877807296" lon="7.182569586645841"><ele>790.0</ele><time>2026-04-16T11:50:11Z</time></trkpt><trkpt lat="44.8022288675103" lon="7.182669897085734"><ele>790.0</ele><time>2026-04-16T11:50:12Z</time></trkpt><trkpt lat="44.802274290271065" lon="7.182768078630109"><ele>790.0</ele><time>2026-04-16T11:50:13Z</time></trkpt><trkpt lat="44.802266315950206" lon="7.1828776994192145"><ele>789.9999999999999</ele><time>2026-04-16T11:50:15Z</time></trkpt><trkpt lat="44.802272350099635" lon="7.182989055705578"><ele>790.0</ele><time>2026-04-16T11:50:16Z</time></trkpt><trkpt lat="44.80225923875337" lon="7.183112453654996"><ele>791.8</ele><time>2026-04-16T11:50:18Z</time></trkpt><trkpt lat="44.802242540579925" lon="7.183271720775823"><ele>793.6</ele><time>2026-04-16T11:50:20Z</time></trkpt><trkpt lat="44.802202025515854" lon="7.183360520046811"><ele>795.4000000000001</ele><time>2026-04-16T11:50:23Z</time></trkpt><trkpt lat="44.80211597377153" lon="7.183506522177797"><ele>797.2</ele><time>2026-04-16T11:50:25Z</time></trkpt><trkpt lat="44.80207186518865" lon="7.1836465800733516"><ele>799.0</ele><time>2026-04-16T11:50:27Z</time></trkpt><trkpt lat="44.80206785728588" lon="7.183775287849998"><ele>799.0</ele><time>2026-04-16T11:50:29Z</time></trkpt><trkpt lat="44.80205431508771" lon="7.183867411961539"><ele>799.0</ele><time>2026-04-16T11:50:30Z</time></trkpt><trkpt lat="44.80209858977486" lon="7.184027825347868"><ele>799.0</ele><time>2026-04-16T11:50:32Z</time></trkpt><trkpt lat="44.80217446566795" lon="7.184085364148344"><ele>799.0</ele><time>2026-04-16T11:50:33Z</time></trkpt><trkpt lat="44.80227567769192" lon="7.184200566513362"><ele>799.0</ele><time>2026-04-16T11:50:35Z</time></trkpt><trkpt lat="44.80231504000841" lon="7.184280101899384"><ele>801.3333333333333</ele><time>2026-04-16T11:50:36Z</time></trkpt><trkpt lat="44.80235410738334" lon="7.184375623181834"><ele>803.6666666666666</ele><time>2026-04-16T11:50:37Z</time></trkpt><trkpt lat="44.8023857206788" lon="7.184461662685327"><ele>806.0</ele><time>2026-04-16T11:50:38Z</time></trkpt><trkpt lat="44.80241606318517" lon="7.18454854623926"><ele>808.3333333333333</ele><time>2026-04-16T11:50:39.001Z</time></trkpt><trkpt lat="44.802469296226164" lon="7.184687605775823"><ele>810.6666666666666</ele><time>2026-04-16T11:50:40.001Z</time></trkpt><trkpt lat="44.80248043533734" lon="7.184788607272246"><ele>813.0</ele><time>2026-04-16T11:50:41.001Z</time></trkpt><trkpt lat="44.802528519519676" lon="7.184923415078299"><ele>817.0</ele><time>2026-04-16T11:50:42.001Z</time></trkpt><trkpt lat="44.80255175696842" lon="7.185042492331254"><ele>821.0</ele><time>2026-04-16T11:50:43.001Z</time></trkpt><trkpt lat="44.8025963199016" lon="7.185173720168158"><ele>825.0</ele><time>2026-04-16T11:50:44.001Z</time></trkpt><trkpt lat="44.80262650805741" lon="7.185319322136117"><ele>829.0</ele><time>2026-04-16T11:50:45.001Z</time></trkpt><trkpt lat="44.80265813377598" lon="7.185412669809469"><ele>833.0</ele><time>2026-04-16T11:50:46.001Z</time></trkpt><trkpt lat="44.80270676185029" lon="7.18555431454384"><ele>827.4</ele><time>2026-04-16T11:50:48.001Z</time></trkpt><trkpt lat="44.80273498821763" lon="7.1856393586843685"><ele>821.8</ele><time>2026-04-16T11:50:50.001Z</time></trkpt><trkpt lat="44.80279274627502" lon="7.185768181206032"><ele>816.2</ele><time>2026-04-16T11:50:52.001Z</time></trkpt><trkpt lat="44.80284602005485" lon="7.185913999864098"><ele>810.6</ele><time>2026-04-16T11:50:53.001Z</time></trkpt><trkpt lat="44.802883993679956" lon="7.186003029455958"><ele>805.0</ele><time>2026-04-16T11:50:54.001Z</time></trkpt><trkpt lat="44.802936474747774" lon="7.186125127006505"><ele>804.9999999999999</ele><time>2026-04-16T11:50:55.001Z</time></trkpt><trkpt lat="44.802978063739" lon="7.186260070660073"><ele>805.0</ele><time>2026-04-16T11:50:56.001Z</time></trkpt><trkpt lat="44.802987938664714" lon="7.1863492339483175"><ele>805.0</ele><time>2026-04-16T11:50:58.001Z</time></trkpt><trkpt lat="44.802933999234824" lon="7.1864579606990695"><ele>805.0</ele><time>2026-04-16T11:51:01.001Z</time></trkpt><trkpt lat="44.8028698594894" lon="7.186494285964724"><ele>804.9999999999999</ele><time>2026-04-16T11:51:02.001Z</time></trkpt><trkpt lat="44.80280129870533" lon="7.186557389163702"><ele>805.0</ele><time>2026-04-16T11:51:03.001Z</time></trkpt><trkpt lat="44.802732357543725" lon="7.186630564149029"><ele>805.1666666666666</ele><time>2026-04-16T11:51:04.001Z</time></trkpt><trkpt lat="44.80267133884734" lon="7.186712271479587"><ele>805.3333333333333</ele><time>2026-04-16T11:51:05.001Z</time></trkpt><trkpt lat="44.80263543750274" lon="7.186849677512957"><ele>805.5</ele><time>2026-04-16T11:51:06.001Z</time></trkpt><trkpt lat="44.802601731828354" lon="7.186973957329418"><ele>805.6666666666667</ele><time>2026-04-16T11:51:07.001Z</time></trkpt><trkpt lat="44.802580498839944" lon="7.187078740297867"><ele>805.8333333333334</ele><time>2026-04-16T11:51:08.001Z</time></trkpt><trkpt lat="44.80256273572361" lon="7.187185361860156"><ele>806.0</ele><time>2026-04-16T11:51:09.001Z</time></trkpt><trkpt lat="44.80254577136729" lon="7.187338419048624"><ele>816.1666666666667</ele><time>2026-04-16T11:51:11.001Z</time></trkpt><trkpt lat="44.80253849029916" lon="7.187477310929365"><ele>826.3333333333334</ele><time>2026-04-16T11:51:13.001Z</time></trkpt><trkpt lat="44.80257604887029" lon="7.1875678743894955"><ele>836.5</ele><time>2026-04-16T11:51:14.001Z</time></trkpt><trkpt lat="44.802603697587344" lon="7.1876696938877656"><ele>846.6666666666667</ele><time>2026-04-16T11:51:15.001Z</time></trkpt><trkpt lat="44.802617185205264" lon="7.187788185254178"><ele>856.8333333333334</ele><time>2026-04-16T11:51:16.001Z</time></trkpt><trkpt lat="44.80264552531278" lon="7.187904205432075"><ele>867.0</ele><time>2026-04-16T11:51:17.001Z</time></trkpt><trkpt lat="44.80265725445211" lon="7.1880354334405965"><ele>858.0</ele><time>2026-04-16T11:51:18.001Z</time></trkpt><trkpt lat="44.802704425258824" lon="7.1881580815114"><ele>849.0</ele><time>2026-04-16T11:51:19.001Z</time></trkpt><trkpt lat="44.802753367645096" lon="7.188290890750231"><ele>840.0</ele><time>2026-04-16T11:51:20.001Z</time></trkpt><trkpt lat="44.80279636868271" lon="7.188412039957937"><ele>831.0</ele><time>2026-04-16T11:51:21.001Z</time></trkpt><trkpt lat="44.80283214103789" lon="7.188497197858107"><ele>822.0</ele><time>2026-04-16T11:51:22.001Z</time></trkpt><trkpt lat="44.802890387791805" lon="7.18859448759718"><ele>822.0</ele><time>2026-04-16T11:51:23.001Z</time></trkpt><trkpt lat="44.80290573255843" lon="7.188720450544676"><ele>822.0</ele><time>2026-04-16T11:51:25.001Z</time></trkpt><trkpt lat="44.80284031509252" lon="7.188792151697528"><ele>822.0</ele><time>2026-04-16T11:51:30.001Z</time></trkpt><trkpt lat="44.80277378502364" lon="7.188853274811938"><ele>822.0</ele><time>2026-04-16T11:51:32.001Z</time></trkpt><trkpt lat="44.802692552224784" lon="7.1888739657930065"><ele>822.0</ele><time>2026-04-16T11:51:34.001Z</time></trkpt><trkpt lat="44.802627559508174" lon="7.18890689991247"><ele>822.0</ele><time>2026-04-16T11:51:36.001Z</time></trkpt><trkpt lat="44.80256636167566" lon="7.18895783709762"><ele>829.3333333333334</ele><time>2026-04-16T11:51:37.001Z</time></trkpt><trkpt lat="44.8024954939789" lon="7.189007610440547"><ele>836.6666666666667</ele><time>2026-04-16T11:51:38.001Z</time></trkpt><trkpt lat="44.80243614849696" lon="7.189115227456492"><ele>844.0</ele><time>2026-04-16T11:51:40.001Z</time></trkpt><trkpt lat="44.80246413338031" lon="7.189204462745851"><ele>851.3333333333334</ele><time>2026-04-16T11:51:41.001Z</time></trkpt><trkpt lat="44.80251079326972" lon="7.189281667442365"><ele>858.6666666666667</ele><time>2026-04-16T11:51:42.001Z</time></trkpt><trkpt lat="44.80254314641363" lon="7.189360840982846"><ele>866.0</ele><time>2026-04-16T11:51:43.001Z</time></trkpt><trkpt lat="44.80256471024402" lon="7.18949413607808"><ele>866.0</ele><time>2026-04-16T11:51:44.001Z</time></trkpt><trkpt lat="44.80258425982362" lon="7.189606773240881"><ele>865.9999999999999</ele><time>2026-04-16T11:51:45.001Z</time></trkpt><trkpt lat="44.80259801046099" lon="7.189730687638272"><ele>865.9999999999999</ele><time>2026-04-16T11:51:46.001Z</time></trkpt><trkpt lat="44.80260699544198" lon="7.189926946560257"><ele>866.0</ele><time>2026-04-16T11:51:47.001Z</time></trkpt><trkpt lat="44.8026305677561" lon="7.190079428590812"><ele>866.0</ele><time>2026-04-16T11:51:48.001Z</time></trkpt><trkpt lat="44.8026487850016" lon="7.190210602445845"><ele>867.5999999999999</ele><time>2026-04-16T11:51:49.001Z</time></trkpt><trkpt lat="44.802667673957345" lon="7.190349552684417"><ele>869.1999999999999</ele><time>2026-04-16T11:51:50.001Z</time></trkpt><trkpt lat="44.80266361384369" lon="7.190528711945184"><ele>870.8000000000001</ele><time>2026-04-16T11:51:51.001Z</time></trkpt><trkpt lat="44.80266229015692" lon="7.190626998842834"><ele>872.4000000000001</ele><time>2026-04-16T11:51:52.001Z</time></trkpt><trkpt lat="44.80266854051883" lon="7.190779424344578"><ele>874.0</ele><time>2026-04-16T11:51:53.001Z</time></trkpt><trkpt lat="44.80267322663919" lon="7.190926811284741"><ele>868.4000000000001</ele><time>2026-04-16T11:51:54.001Z</time></trkpt><trkpt lat="44.802689869445295" lon="7.191093058387311"><ele>862.8000000000001</ele><time>2026-04-16T11:51:55.001Z</time></trkpt><trkpt lat="44.80270143758953" lon="7.1912556172060285"><ele>857.2</ele><time>2026-04-16T11:51:56.001Z</time></trkpt><trkpt lat="44.80271580908006" lon="7.1914169765385925"><ele>851.5999999999999</ele><time>2026-04-16T11:51:57.001Z</time></trkpt><trkpt lat="44.80272711851729" lon="7.191549389719476"><ele>846.0</ele><time>2026-04-16T11:51:58.001Z</time></trkpt><trkpt lat="44.80273241065293" lon="7.1916680353931"><ele>846.0</ele><time>2026-04-16T11:51:59.002Z</time></trkpt><trkpt lat="44.802774911369724" lon="7.191810570984766"><ele>846.0</ele><time>2026-04-16T11:52:00.002Z</time></trkpt><trkpt lat="44.802744354795905" lon="7.191945409490819"><ele>846.0</ele><time>2026-04-16T11:52:01.002Z</time></trkpt><trkpt lat="44.80276208722833" lon="7.1920534446601305"><ele>846.0</ele><time>2026-04-16T11:52:02.002Z</time></trkpt><trkpt lat="44.8027262680841" lon="7.19219227485358"><ele>846.0</ele><time>2026-04-16T11:52:04.002Z</time></trkpt><trkpt lat="44.80277160035558" lon="7.192323607090239"><ele>848.4285714285714</ele><time>2026-04-16T11:52:06.002Z</time></trkpt><trkpt lat="44.80282134820318" lon="7.192395785578948"><ele>850.8571428571429</ele><time>2026-04-16T11:52:07.002Z</time></trkpt><trkpt lat="44.802847132386866" lon="7.192509135417525"><ele>853.2857142857143</ele><time>2026-04-16T11:52:08.002Z</time></trkpt><trkpt lat="44.802871552864055" lon="7.19260603277462"><ele>855.7142857142858</ele><time>2026-04-16T11:52:09.002Z</time></trkpt><trkpt lat="44.80289733280231" lon="7.192713107577022"><ele>858.1428571428571</ele><time>2026-04-16T11:52:10.001Z</time></trkpt><trkpt lat="44.80291569154197" lon="7.192804376739964"><ele>860.5714285714287</ele><time>2026-04-16T11:52:11.001Z</time></trkpt><trkpt lat="44.80293349731744" lon="7.192890957313237"><ele>863.0</ele><time>2026-04-16T11:52:12.001Z</time></trkpt><trkpt lat="44.802949915266275" lon="7.192978610779657"><ele>863.0</ele><time>2026-04-16T11:52:13.001Z</time></trkpt><trkpt lat="44.802967135020005" lon="7.193081757402593"><ele>863.0</ele><time>2026-04-16T11:52:14Z</time></trkpt><trkpt lat="44.80297149870827" lon="7.1931714382894265"><ele>863.0</ele><time>2026-04-16T11:52:15Z</time></trkpt><trkpt lat="44.80298771907272" lon="7.193337759020991"><ele>863.0</ele><time>2026-04-16T11:52:17Z</time></trkpt><trkpt lat="44.80298774481183" lon="7.193514796242211"><ele>863.0</ele><time>2026-04-16T11:52:18Z</time></trkpt><trkpt lat="44.80299305671413" lon="7.1936556850350595"><ele>866.1666666666667</ele><time>2026-04-16T11:52:19Z</time></trkpt><trkpt lat="44.80301780255311" lon="7.193788724034462"><ele>869.3333333333334</ele><time>2026-04-16T11:52:20Z</time></trkpt><trkpt lat="44.8030452395567" lon="7.193889179371915"><ele>872.5</ele><time>2026-04-16T11:52:21Z</time></trkpt><trkpt lat="44.80310822247516" lon="7.193975869464685"><ele>875.6666666666667</ele><time>2026-04-16T11:52:22Z</time></trkpt><trkpt lat="44.80315022661123" lon="7.194080451693972"><ele>878.8333333333334</ele><time>2026-04-16T11:52:23Z</time></trkpt><trkpt lat="44.80319015023303" lon="7.194209650531293"><ele>882.0</ele><time>2026-04-16T11:52:24Z</time></trkpt><trkpt lat="44.80326924511881" lon="7.194357860768058"><ele>882.6</ele><time>2026-04-16T11:52:25Z</time></trkpt><trkpt lat="44.80333209378001" lon="7.194492767259278"><ele>883.2</ele><time>2026-04-16T11:52:26Z</time></trkpt><trkpt lat="44.80339247993754" lon="7.194641257417113"><ele>883.8</ele><time>2026-04-16T11:52:27Z</time></trkpt><trkpt lat="44.803442240770146" lon="7.1947550439826005"><ele>884.4</ele><time>2026-04-16T11:52:28Z</time></trkpt><trkpt lat="44.80348303235907" lon="7.194847939244381"><ele>885.0</ele><time>2026-04-16T11:52:29Z</time></trkpt><trkpt lat="44.80355654292711" lon="7.1950107220848265"><ele>885.0</ele><time>2026-04-16T11:52:31Z</time></trkpt><trkpt lat="44.803594364547706" lon="7.195101850326534"><ele>885.0</ele><time>2026-04-16T11:52:32Z</time></trkpt><trkpt lat="44.803634246174525" lon="7.195234219624422"><ele>885.0</ele><time>2026-04-16T11:52:33Z</time></trkpt><trkpt lat="44.80368229341144" lon="7.19534373118102"><ele>885.0</ele><time>2026-04-16T11:52:34Z</time></trkpt><trkpt lat="44.80372026370707" lon="7.1954554043493655"><ele>885.0</ele><time>2026-04-16T11:52:35Z</time></trkpt><trkpt lat="44.80374139696096" lon="7.195544943165749"><ele>885.0</ele><time>2026-04-16T11:52:36Z</time></trkpt><trkpt lat="44.80371112705479" lon="7.195636596798561"><ele>885.0</ele><time>2026-04-16T11:52:38Z</time></trkpt><trkpt lat="44.80363170848172" lon="7.195642650475631"><ele>885.0</ele><time>2026-04-16T11:52:39Z</time></trkpt><trkpt lat="44.803565123238926" lon="7.195601580249741"><ele>885.0</ele><time>2026-04-16T11:52:40Z</time></trkpt><trkpt lat="44.80351753057668" lon="7.195488904364758"><ele>885.0</ele><time>2026-04-16T11:52:42Z</time></trkpt><trkpt lat="44.803455857137706" lon="7.195389377120632"><ele>885.0</ele><time>2026-04-16T11:52:43Z</time></trkpt><trkpt lat="44.80339484525967" lon="7.195295417826189"><ele>885.0</ele><time>2026-04-16T11:52:44Z</time></trkpt><trkpt lat="44.803334566351815" lon="7.19520258734166"><ele>886.8</ele><time>2026-04-16T11:52:45Z</time></trkpt><trkpt lat="44.80327489108474" lon="7.195134425414488"><ele>888.6</ele><time>2026-04-16T11:52:47Z</time></trkpt><trkpt lat="44.8032015476275" lon="7.195037151509855"><ele>890.4000000000001</ele><time>2026-04-16T11:52:51.001Z</time></trkpt><trkpt lat="44.80311118860627" lon="7.194944260512402"><ele>892.2</ele><time>2026-04-16T11:52:53.001Z</time></trkpt><trkpt lat="44.803053719109386" lon="7.19487555965772"><ele>894.0</ele><time>2026-04-16T11:52:54.001Z</time></trkpt><trkpt lat="44.802967545542685" lon="7.194815090631705"><ele>894.0</ele><time>2026-04-16T11:52:55.001Z</time></trkpt><trkpt lat="44.802888333618334" lon="7.194724932728167"><ele>894.0000000000001</ele><time>2026-04-16T11:52:56.001Z</time></trkpt><trkpt lat="44.80279314177612" lon="7.194652409443841"><ele>894.0000000000001</ele><time>2026-04-16T11:52:57.001Z</time></trkpt><trkpt lat="44.80272500483638" lon="7.19458911305499"><ele>894.0</ele><time>2026-04-16T11:52:58.001Z</time></trkpt><trkpt lat="44.80262990796461" lon="7.194447476419431"><ele>894.0</ele><time>2026-04-16T11:53:00.001Z</time></trkpt><trkpt lat="44.802589348830736" lon="7.19432729621597"><ele>897.3333333333334</ele><time>2026-04-16T11:53:01.001Z</time></trkpt><trkpt lat="44.80255620296624" lon="7.194221828841377"><ele>900.6666666666667</ele><time>2026-04-16T11:53:02.001Z</time></trkpt><trkpt lat="44.802523890083265" lon="7.194096238824479"><ele>904.0</ele><time>2026-04-16T11:53:03.001Z</time></trkpt><trkpt lat="44.80247111401105" lon="7.193947561857786"><ele>907.3333333333334</ele><time>2026-04-16T11:53:04.001Z</time></trkpt><trkpt lat="44.80243236364852" lon="7.193856121838961"><ele>910.6666666666667</ele><time>2026-04-16T11:53:05.001Z</time></trkpt><trkpt lat="44.80238930828663" lon="7.19376350776239"><ele>914.0</ele><time>2026-04-16T11:53:06.001Z</time></trkpt><trkpt lat="44.802327889785616" lon="7.193666058225042"><ele>914.0</ele><time>2026-04-16T11:53:07.001Z</time></trkpt><trkpt lat="44.80228717183871" lon="7.193544210314042"><ele>914.0000000000001</ele><time>2026-04-16T11:53:08.001Z</time></trkpt><trkpt lat="44.80220078317671" lon="7.19344232068776"><ele>914.0000000000001</ele><time>2026-04-16T11:53:09.001Z</time></trkpt><trkpt lat="44.8021450428278" lon="7.193317427146353"><ele>914.0</ele><time>2026-04-16T11:53:10.001Z</time></trkpt><trkpt lat="44.802073501981305" lon="7.193201356648051"><ele>914.0</ele><time>2026-04-16T11:53:11.001Z</time></trkpt><trkpt lat="44.80199491911419" lon="7.193085128942782"><ele>911.6</ele><time>2026-04-16T11:53:12.001Z</time></trkpt><trkpt lat="44.801908614990964" lon="7.19297669159511"><ele>909.2</ele><time>2026-04-16T11:53:14.001Z</time></trkpt><trkpt lat="44.80182383678866" lon="7.19290778138956"><ele>906.8000000000001</ele><time>2026-04-16T11:53:15.001Z</time></trkpt><trkpt lat="44.80174683682517" lon="7.1928045352156795"><ele>904.4000000000001</ele><time>2026-04-16T11:53:17.001Z</time></trkpt><trkpt lat="44.80173709693877" lon="7.192681073125401"><ele>902.0</ele><time>2026-04-16T11:53:19.001Z</time></trkpt><trkpt lat="44.801724806740175" lon="7.19257410213511"><ele>909.3333333333334</ele><time>2026-04-16T11:53:20.001Z</time></trkpt><trkpt lat="44.80171125471512" lon="7.192457744684794"><ele>916.6666666666667</ele><time>2026-04-16T11:53:21.001Z</time></trkpt><trkpt lat="44.80169602818633" lon="7.192311981968547"><ele>924.0</ele><time>2026-04-16T11:53:22.001Z</time></trkpt><trkpt lat="44.80167275466406" lon="7.192226017635477"><ele>931.3333333333333</ele><time>2026-04-16T11:53:23.001Z</time></trkpt><trkpt lat="44.80166997089274" lon="7.192101903775823"><ele>938.6666666666666</ele><time>2026-04-16T11:53:24.001Z</time></trkpt><trkpt lat="44.80166101122309" lon="7.191983978642669"><ele>946.0</ele><time>2026-04-16T11:53:25.001Z</time></trkpt><trkpt lat="44.801633636946654" lon="7.191856555129214"><ele>945.9999999999999</ele><time>2026-04-16T11:53:26.001Z</time></trkpt><trkpt lat="44.80161989174117" lon="7.191736306214427"><ele>946.0</ele><time>2026-04-16T11:53:27.001Z</time></trkpt><trkpt lat="44.80162091626645" lon="7.191612400291614"><ele>946.0</ele><time>2026-04-16T11:53:28.001Z</time></trkpt><trkpt lat="44.801614779382135" lon="7.1915153583330165"><ele>946.0</ele><time>2026-04-16T11:53:29.001Z</time></trkpt><trkpt lat="44.80159921024078" lon="7.191415165802075"><ele>945.9999999999999</ele><time>2026-04-16T11:53:31.001Z</time></trkpt><trkpt lat="44.80158634838109" lon="7.191286067311781"><ele>946.0</ele><time>2026-04-16T11:53:33.001Z</time></trkpt><trkpt lat="44.80156411835831" lon="7.191127913477894"><ele>944.0</ele><time>2026-04-16T11:53:35.001Z</time></trkpt><trkpt lat="44.801509673281984" lon="7.190949557253191"><ele>941.9999999999999</ele><time>2026-04-16T11:53:37.001Z</time></trkpt><trkpt lat="44.80146185681576" lon="7.190856502334437"><ele>939.9999999999999</ele><time>2026-04-16T11:53:38.001Z</time></trkpt><trkpt lat="44.80136610187851" lon="7.190714837618257"><ele>938.0</ele><time>2026-04-16T11:53:40.001Z</time></trkpt><trkpt lat="44.80130873030177" lon="7.190645192006461"><ele>936.0</ele><time>2026-04-16T11:53:41.001Z</time></trkpt><trkpt lat="44.80125355909087" lon="7.190593320270719"><ele>932.0</ele><time>2026-04-16T11:53:42.001Z</time></trkpt><trkpt lat="44.80118854415041" lon="7.1905408839455704"><ele>927.9999999999999</ele><time>2026-04-16T11:53:43.001Z</time></trkpt><trkpt lat="44.80106438465837" lon="7.190481111229385"><ele>923.9999999999999</ele><time>2026-04-16T11:53:45.001Z</time></trkpt><trkpt lat="44.80098795696255" lon="7.190405749581013"><ele>920.0</ele><time>2026-04-16T11:53:46.001Z</time></trkpt><trkpt lat="44.800892754053145" lon="7.190341653279358"><ele>916.0</ele><time>2026-04-16T11:53:47.001Z</time></trkpt><trkpt lat="44.80083522372856" lon="7.190301925644748"><ele>924.0</ele><time>2026-04-16T11:53:48.001Z</time></trkpt><trkpt lat="44.800777999925245" lon="7.190256365018953"><ele>931.9999999999999</ele><time>2026-04-16T11:53:49.001Z</time></trkpt><trkpt lat="44.800654683566435" lon="7.190156655162207"><ele>939.9999999999999</ele><time>2026-04-16T11:53:51.001Z</time></trkpt><trkpt lat="44.80058996296887" lon="7.190098550603982"><ele>948.0</ele><time>2026-04-16T11:53:52.001Z</time></trkpt><trkpt lat="44.80052735228771" lon="7.190017978240427"><ele>956.0</ele><time>2026-04-16T11:53:53.001Z</time></trkpt><trkpt lat="44.800459805559235" lon="7.189910956359818"><ele>956.0</ele><time>2026-04-16T11:53:55.001Z</time></trkpt><trkpt lat="44.800380708187454" lon="7.189757262909328"><ele>955.9999999999999</ele><time>2026-04-16T11:53:57.001Z</time></trkpt><trkpt lat="44.80034598941814" lon="7.189666277401892"><ele>955.9999999999999</ele><time>2026-04-16T11:53:58.001Z</time></trkpt><trkpt lat="44.800317919133434" lon="7.189565307520931"><ele>956.0</ele><time>2026-04-16T11:53:59.001Z</time></trkpt><trkpt lat="44.80031032208678" lon="7.189433292602401"><ele>956.0</ele><time>2026-04-16T11:54:01.001Z</time></trkpt><trkpt lat="44.8003362490268" lon="7.189284312313902"><ele>956.0</ele><time>2026-04-16T11:54:03.001Z</time></trkpt><trkpt lat="44.800382140540144" lon="7.189201087272732"><ele>955.9999999999999</ele><time>2026-04-16T11:54:05.001Z</time></trkpt><trkpt lat="44.80040119283286" lon="7.189103879995213"><ele>955.9999999999999</ele><time>2026-04-16T11:54:07.001Z</time></trkpt><trkpt lat="44.80043810567958" lon="7.1889379498836155"><ele>956.0</ele><time>2026-04-16T11:54:09.001Z</time></trkpt><trkpt lat="44.80047630498914" lon="7.188860132167623"><ele>956.0</ele><time>2026-04-16T11:54:10.001Z</time></trkpt><trkpt lat="44.80054627755442" lon="7.188698290217238"><ele>957.8</ele><time>2026-04-16T11:54:12.001Z</time></trkpt><trkpt lat="44.800553842501195" lon="7.188538256130483"><ele>959.5999999999999</ele><time>2026-04-16T11:54:14.001Z</time></trkpt><trkpt lat="44.80053452501716" lon="7.188374690926465"><ele>961.4</ele><time>2026-04-16T11:54:16.001Z</time></trkpt><trkpt lat="44.80047336186294" lon="7.188318059686872"><ele>963.2</ele><time>2026-04-16T11:54:17.001Z</time></trkpt><trkpt lat="44.80039599974048" lon="7.188259491463578"><ele>965.0</ele><time>2026-04-16T11:54:18.001Z</time></trkpt><trkpt lat="44.800318365902946" lon="7.188180959177083"><ele>962.5</ele><time>2026-04-16T11:54:19.001Z</time></trkpt><trkpt lat="44.80024150274678" lon="7.188067764273853"><ele>960.0</ele><time>2026-04-16T11:54:20.001Z</time></trkpt><trkpt lat="44.80015423119557" lon="7.187937082240918"><ele>957.5</ele><time>2026-04-16T11:54:21.001Z</time></trkpt><trkpt lat="44.80007503443619" lon="7.187827793957054"><ele>955.0</ele><time>2026-04-16T11:54:22.001Z</time></trkpt><trkpt lat="44.80001283936433" lon="7.187712598302369"><ele>959.6666666666666</ele><time>2026-04-16T11:54:23.001Z</time></trkpt><trkpt lat="44.79996560615074" lon="7.187606939997961"><ele>964.3333333333333</ele><time>2026-04-16T11:54:24.001Z</time></trkpt><trkpt lat="44.799906681864606" lon="7.187522800981969"><ele>969.0</ele><time>2026-04-16T11:54:25.001Z</time></trkpt><trkpt lat="44.79982368948425" lon="7.187481293162024"><ele>973.6666666666667</ele><time>2026-04-16T11:54:26.001Z</time></trkpt><trkpt lat="44.79975321827082" lon="7.187437502030061"><ele>978.3333333333334</ele><time>2026-04-16T11:54:27.001Z</time></trkpt><trkpt lat="44.79968408049112" lon="7.187418221194649"><ele>983.0</ele><time>2026-04-16T11:54:28Z</time></trkpt><trkpt lat="44.7995817133924" lon="7.1873639602183355"><ele>985.0</ele><time>2026-04-16T11:54:30Z</time></trkpt><trkpt lat="44.79944677804677" lon="7.187276695270308"><ele>987.0</ele><time>2026-04-16T11:54:32Z</time></trkpt><trkpt lat="44.79938397126987" lon="7.187208816169627"><ele>989.0</ele><time>2026-04-16T11:54:33Z</time></trkpt><trkpt lat="44.79932767751471" lon="7.187132066637574"><ele>991.0</ele><time>2026-04-16T11:54:34Z</time></trkpt><trkpt lat="44.79926249070466" lon="7.187102798206553"><ele>993.0</ele><time>2026-04-16T11:54:36Z</time></trkpt><trkpt lat="44.79925635464455" lon="7.1872265347195645"><ele>991.0</ele><time>2026-04-16T11:54:39Z</time></trkpt><trkpt lat="44.79934386737623" lon="7.187288590381019"><ele>989.0</ele><time>2026-04-16T11:54:41Z</time></trkpt><trkpt lat="44.7994455011113" lon="7.187344076639641"><ele>987.0</ele><time>2026-04-16T11:54:42Z</time></trkpt><trkpt lat="44.79950938199489" lon="7.187395898734073"><ele>985.0</ele><time>2026-04-16T11:54:43Z</time></trkpt><trkpt lat="44.79956018804843" lon="7.187462520944895"><ele>983.0</ele><time>2026-04-16T11:54:44Z</time></trkpt><trkpt lat="44.79964819844919" lon="7.187593522736742"><ele>983.0</ele><time>2026-04-16T11:54:46Z</time></trkpt><trkpt lat="44.79968071041849" lon="7.18770423066224"><ele>983.0</ele><time>2026-04-16T11:54:47Z</time></trkpt><trkpt lat="44.79972282873629" lon="7.187889968637491"><ele>983.0</ele><time>2026-04-16T11:54:49Z</time></trkpt><trkpt lat="44.799765633555026" lon="7.188037432774866"><ele>983.0</ele><time>2026-04-16T11:54:50Z</time></trkpt><trkpt lat="44.79980256242524" lon="7.188167883585392"><ele>983.0</ele><time>2026-04-16T11:54:51Z</time></trkpt><trkpt lat="44.79984564685013" lon="7.188284532353748"><ele>985.8333333333334</ele><time>2026-04-16T11:54:52Z</time></trkpt><trkpt lat="44.799811234499685" lon="7.188375778747058"><ele>988.6666666666667</ele><time>2026-04-16T11:54:53Z</time></trkpt><trkpt lat="44.79982688440915" lon="7.188498375685645"><ele>991.5</ele><time>2026-04-16T11:54:54Z</time></trkpt><trkpt lat="44.79984460046366" lon="7.188613123339463"><ele>994.3333333333333</ele><time>2026-04-16T11:54:55Z</time></trkpt><trkpt lat="44.79984172058442" lon="7.188703698697481"><ele>997.1666666666666</ele><time>2026-04-16T11:54:56Z</time></trkpt><trkpt lat="44.7998253606578" lon="7.188820794457219"><ele>1000.0</ele><time>2026-04-16T11:54:57Z</time></trkpt><trkpt lat="44.79978460217141" lon="7.188909772518563"><ele>999.9999999999999</ele><time>2026-04-16T11:54:58Z</time></trkpt><trkpt lat="44.799695896787505" lon="7.1889890100086316"><ele>1000.0</ele><time>2026-04-16T11:54:59Z</time></trkpt><trkpt lat="44.79963903238281" lon="7.189071866149157"><ele>1000.0</ele><time>2026-04-16T11:55:00Z</time></trkpt><trkpt lat="44.79959179008566" lon="7.189138971966696"><ele>1000.0</ele><time>2026-04-16T11:55:01Z</time></trkpt><trkpt lat="44.79958292542362" lon="7.189246249454003"><ele>999.9999999999999</ele><time>2026-04-16T11:55:03Z</time></trkpt><trkpt lat="44.79954691994619" lon="7.189327699514148"><ele>1000.0</ele><time>2026-04-16T11:55:04Z</time></trkpt><trkpt lat="44.79952158291409" lon="7.189419039041498"><ele>1000.0</ele><time>2026-04-16T11:55:05Z</time></trkpt><trkpt lat="44.79946449231532" lon="7.189491972923349"><ele>1000.0</ele><time>2026-04-16T11:55:06Z</time></trkpt><trkpt lat="44.79941219575205" lon="7.1896122392260695"><ele>1000.0</ele><time>2026-04-16T11:55:07Z</time></trkpt><trkpt lat="44.79941253238525" lon="7.18978232970083"><ele>1000.0</ele><time>2026-04-16T11:55:09Z</time></trkpt><trkpt lat="44.79949235284533" lon="7.189911512029285"><ele>1000.0</ele><time>2026-04-16T11:55:11Z</time></trkpt><trkpt lat="44.799579237705444" lon="7.190051161533125"><ele>1000.0</ele><time>2026-04-16T11:55:13Z</time></trkpt><trkpt lat="44.79960796143063" lon="7.190172469835108"><ele>1000.0</ele><time>2026-04-16T11:55:14Z</time></trkpt><trkpt lat="44.79964246851962" lon="7.190290433916714"><ele>1000.0</ele><time>2026-04-16T11:55:15Z</time></trkpt><trkpt lat="44.79966685383842" lon="7.190424823158598"><ele>1000.0</ele><time>2026-04-16T11:55:16Z</time></trkpt><trkpt lat="44.79971880776079" lon="7.190544938909605"><ele>1000.0</ele><time>2026-04-16T11:55:17Z</time></trkpt><trkpt lat="44.799751878246695" lon="7.190635797790616"><ele>1003.0</ele><time>2026-04-16T11:55:18Z</time></trkpt><trkpt lat="44.799794244038644" lon="7.19081104959048"><ele>1006.0</ele><time>2026-04-16T11:55:20Z</time></trkpt><trkpt lat="44.799820986490836" lon="7.190934534464008"><ele>1009.0</ele><time>2026-04-16T11:55:21Z</time></trkpt><trkpt lat="44.799842875739024" lon="7.191059683320868"><ele>1012.0</ele><time>2026-04-16T11:55:22Z</time></trkpt><trkpt lat="44.79987257051735" lon="7.191205982014148"><ele>1015.0</ele><time>2026-04-16T11:55:24Z</time></trkpt><trkpt lat="44.799919342469146" lon="7.191318769929256"><ele>1014.9999999999999</ele><time>2026-04-16T11:55:25Z</time></trkpt><trkpt lat="44.79996650340077" lon="7.191424113021914"><ele>1015.0</ele><time>2026-04-16T11:55:26Z</time></trkpt><trkpt lat="44.800000528617716" lon="7.191505107841375"><ele>1015.0</ele><time>2026-04-16T11:55:27Z</time></trkpt><trkpt lat="44.80006332421151" lon="7.191624483032081"><ele>1015.0</ele><time>2026-04-16T11:55:29Z</time></trkpt><trkpt lat="44.800124129096545" lon="7.191687073057466"><ele>1014.9999999999999</ele><time>2026-04-16T11:55:30Z</time></trkpt><trkpt lat="44.80015913214164" lon="7.191810709484051"><ele>1015.0</ele><time>2026-04-16T11:55:31Z</time></trkpt><trkpt lat="44.80018883894853" lon="7.191916270296431"><ele>1013.2</ele><time>2026-04-16T11:55:32.001Z</time></trkpt><trkpt lat="44.800215716245596" lon="7.192057829994207"><ele>1011.4</ele><time>2026-04-16T11:55:34.001Z</time></trkpt><trkpt lat="44.80025134664997" lon="7.192167918886957"><ele>1009.5999999999999</ele><time>2026-04-16T11:55:35.001Z</time></trkpt><trkpt lat="44.80028475504002" lon="7.192289394409526"><ele>1007.8</ele><time>2026-04-16T11:55:36.001Z</time></trkpt><trkpt lat="44.80029761263903" lon="7.1924048670281655"><ele>1006.0</ele><time>2026-04-16T11:55:37.001Z</time></trkpt><trkpt lat="44.80027459009439" lon="7.192599955606807"><ele>1005.9999999999999</ele><time>2026-04-16T11:55:39.001Z</time></trkpt><trkpt lat="44.800287895158924" lon="7.1927287156440896"><ele>1006.0</ele><time>2026-04-16T11:55:41.001Z</time></trkpt><trkpt lat="44.80024120020907" lon="7.192903861162356"><ele>1006.0</ele><time>2026-04-16T11:55:43.001Z</time></trkpt><trkpt lat="44.800185816122365" lon="7.192992881278503"><ele>1006.0</ele><time>2026-04-16T11:55:44.001Z</time></trkpt><trkpt lat="44.80013280127309" lon="7.193044375111746"><ele>1005.9999999999999</ele><time>2026-04-16T11:55:45.001Z</time></trkpt><trkpt lat="44.80012049560951" lon="7.19314281301282"><ele>1006.0</ele><time>2026-04-16T11:55:46.001Z</time></trkpt><trkpt lat="44.80011668008107" lon="7.193256631576676"><ele>1015.5999999999999</ele><time>2026-04-16T11:55:47.001Z</time></trkpt><trkpt lat="44.800127728926775" lon="7.193386005307763"><ele>1025.1999999999998</ele><time>2026-04-16T11:55:48.001Z</time></trkpt><trkpt lat="44.80015413618975" lon="7.193497183371826"><ele>1034.8000000000002</ele><time>2026-04-16T11:55:49.001Z</time></trkpt><trkpt lat="44.8001378536839" lon="7.193695805845475"><ele>1044.4</ele><time>2026-04-16T11:55:51.001Z</time></trkpt><trkpt lat="44.80012637411749" lon="7.193805041522053"><ele>1054.0</ele><time>2026-04-16T11:55:52.001Z</time></trkpt><trkpt lat="44.800115706526775" lon="7.193950182376523"><ele>1054.8</ele><time>2026-04-16T11:55:53.001Z</time></trkpt><trkpt lat="44.80014392432409" lon="7.194097928454235"><ele>1055.6000000000001</ele><time>2026-04-16T11:55:54.001Z</time></trkpt><trkpt lat="44.80015835307248" lon="7.194239314630951"><ele>1056.4</ele><time>2026-04-16T11:55:55.001Z</time></trkpt><trkpt lat="44.80018238845902" lon="7.194366344629949"><ele>1057.2</ele><time>2026-04-16T11:55:56.001Z</time></trkpt><trkpt lat="44.800170329610935" lon="7.194509255722814"><ele>1058.0</ele><time>2026-04-16T11:55:57.001Z</time></trkpt><trkpt lat="44.800180935332534" lon="7.194665539615253"><ele>1052.2</ele><time>2026-04-16T11:55:58.001Z</time></trkpt><trkpt lat="44.800192539941165" lon="7.194824591852534"><ele>1046.4</ele><time>2026-04-16T11:55:59.001Z</time></trkpt><trkpt lat="44.8002063582891" lon="7.194947499695766"><ele>1040.6000000000001</ele><time>2026-04-16T11:56:00.001Z</time></trkpt><trkpt lat="44.800200706093115" lon="7.195080026114882"><ele>1034.8</ele><time>2026-04-16T11:56:01.001Z</time></trkpt><trkpt lat="44.800203519400355" lon="7.195211250179838"><ele>1029.0</ele><time>2026-04-16T11:56:02.001Z</time></trkpt><trkpt lat="44.8002149925203" lon="7.195366885627452"><ele>1029.0</ele><time>2026-04-16T11:56:03.001Z</time></trkpt><trkpt lat="44.80020073311629" lon="7.195516411987985"><ele>1029.0</ele><time>2026-04-16T11:56:04.001Z</time></trkpt><trkpt lat="44.80018283490045" lon="7.195647360808669"><ele>1029.0</ele><time>2026-04-16T11:56:05.001Z</time></trkpt><trkpt lat="44.80016585263615" lon="7.195740419488758"><ele>1029.0</ele><time>2026-04-16T11:56:06.001Z</time></trkpt><trkpt lat="44.800150131662235" lon="7.195861334096593"><ele>1029.0</ele><time>2026-04-16T11:56:07.001Z</time></trkpt><trkpt lat="44.80015863000088" lon="7.195983485930581"><ele>1029.0</ele><time>2026-04-16T11:56:08.001Z</time></trkpt><trkpt lat="44.80016795104934" lon="7.196102591927107"><ele>1029.6666666666667</ele><time>2026-04-16T11:56:09.001Z</time></trkpt><trkpt lat="44.800186471948464" lon="7.1961886158264186"><ele>1030.3333333333333</ele><time>2026-04-16T11:56:10.001Z</time></trkpt><trkpt lat="44.80018022587821" lon="7.196305019161376"><ele>1031.0</ele><time>2026-04-16T11:56:11.001Z</time></trkpt><trkpt lat="44.80021598761474" lon="7.196412671465774"><ele>1031.6666666666665</ele><time>2026-04-16T11:56:12.001Z</time></trkpt><trkpt lat="44.80022763753651" lon="7.196520724489246"><ele>1032.3333333333333</ele><time>2026-04-16T11:56:13.001Z</time></trkpt><trkpt lat="44.8002809566174" lon="7.196648912429689"><ele>1033.0</ele><time>2026-04-16T11:56:14.001Z</time></trkpt><trkpt lat="44.80028838125467" lon="7.196768480724851"><ele>1034.4</ele><time>2026-04-16T11:56:15.001Z</time></trkpt><trkpt lat="44.80026801233356" lon="7.196869143208738"><ele>1035.8</ele><time>2026-04-16T11:56:16.001Z</time></trkpt><trkpt lat="44.80033988788259" lon="7.1969928759263295"><ele>1037.2</ele><time>2026-04-16T11:56:18.001Z</time></trkpt><trkpt lat="44.800369741529146" lon="7.197110445277423"><ele>1038.6</ele><time>2026-04-16T11:56:20.001Z</time></trkpt><trkpt lat="44.8003771638258" lon="7.197208802648387"><ele>1040.0</ele><time>2026-04-16T11:56:21.001Z</time></trkpt><trkpt lat="44.80038026888829" lon="7.197370843536427"><ele>1041.5</ele><time>2026-04-16T11:56:23Z</time></trkpt><trkpt lat="44.80037107899042" lon="7.197491876156059"><ele>1043.0</ele><time>2026-04-16T11:56:24Z</time></trkpt><trkpt lat="44.800373840838745" lon="7.1976348714139515"><ele>1044.5</ele><time>2026-04-16T11:56:25Z</time></trkpt><trkpt lat="44.80041432499136" lon="7.197737030208757"><ele>1046.0</ele><time>2026-04-16T11:56:26Z</time></trkpt><trkpt lat="44.80040308829197" lon="7.1978353728060265"><ele>1047.5</ele><time>2026-04-16T11:56:27Z</time></trkpt><trkpt lat="44.800397440049906" lon="7.197932310372031"><ele>1049.0</ele><time>2026-04-16T11:56:28Z</time></trkpt><trkpt lat="44.800408903501044" lon="7.198137788542629"><ele>1052.2</ele><time>2026-04-16T11:56:30Z</time></trkpt><trkpt lat="44.800402815943805" lon="7.198246165018917"><ele>1055.4</ele><time>2026-04-16T11:56:31Z</time></trkpt><trkpt lat="44.80040126631458" lon="7.198403637078504"><ele>1058.6</ele><time>2026-04-16T11:56:33Z</time></trkpt><trkpt lat="44.800460082077514" lon="7.198565421136122"><ele>1061.8</ele><time>2026-04-16T11:56:35Z</time></trkpt><trkpt lat="44.80049889127456" lon="7.198693140157242"><ele>1065.0</ele><time>2026-04-16T11:56:36Z</time></trkpt><trkpt lat="44.800549540581" lon="7.19880652653157"><ele>1065.0</ele><time>2026-04-16T11:56:37Z</time></trkpt><trkpt lat="44.800580406025574" lon="7.198899276735673"><ele>1065.0</ele><time>2026-04-16T11:56:38Z</time></trkpt><trkpt lat="44.80060637469337" lon="7.19900498385592"><ele>1065.0</ele><time>2026-04-16T11:56:39Z</time></trkpt><trkpt lat="44.80065867441291" lon="7.199143466147858"><ele>1065.0</ele><time>2026-04-16T11:56:41Z</time></trkpt><trkpt lat="44.800705797930654" lon="7.199293898146528"><ele>1065.0</ele><time>2026-04-16T11:56:43Z</time></trkpt><trkpt lat="44.80070368086846" lon="7.199410057389316"><ele>1067.3333333333333</ele><time>2026-04-16T11:56:44Z</time></trkpt><trkpt lat="44.800711991938876" lon="7.199529036850034"><ele>1069.6666666666667</ele><time>2026-04-16T11:56:45Z</time></trkpt><trkpt lat="44.80074431966112" lon="7.199631643861404"><ele>1072.0</ele><time>2026-04-16T11:56:46Z</time></trkpt><trkpt lat="44.80080715636511" lon="7.199753710259178"><ele>1074.3333333333335</ele><time>2026-04-16T11:56:47Z</time></trkpt><trkpt lat="44.80086306157468" lon="7.199859140701007"><ele>1076.6666666666667</ele><time>2026-04-16T11:56:48Z</time></trkpt><trkpt lat="44.800905382330114" lon="7.1999570454973645"><ele>1079.0</ele><time>2026-04-16T11:56:49Z</time></trkpt><trkpt lat="44.80094509758428" lon="7.200029781350504"><ele>1081.6666666666667</ele><time>2026-04-16T11:56:50Z</time></trkpt><trkpt lat="44.800983552270424" lon="7.200137375364434"><ele>1084.3333333333335</ele><time>2026-04-16T11:56:51Z</time></trkpt><trkpt lat="44.80103623809119" lon="7.200258652402485"><ele>1087.0</ele><time>2026-04-16T11:56:52Z</time></trkpt><trkpt lat="44.80107806493073" lon="7.200376396298202"><ele>1089.6666666666667</ele><time>2026-04-16T11:56:53Z</time></trkpt><trkpt lat="44.80112407846549" lon="7.200472934932126"><ele>1092.3333333333333</ele><time>2026-04-16T11:56:54Z</time></trkpt><trkpt lat="44.801129251653165" lon="7.200562199423913"><ele>1095.0</ele><time>2026-04-16T11:56:55Z</time></trkpt><trkpt lat="44.80116124996493" lon="7.200638817387184"><ele>1091.8</ele><time>2026-04-16T11:56:56Z</time></trkpt><trkpt lat="44.80123644613725" lon="7.200728324752494"><ele>1088.6</ele><time>2026-04-16T11:56:57Z</time></trkpt><trkpt lat="44.8013011133782" lon="7.200822556734882"><ele>1085.4</ele><time>2026-04-16T11:56:58Z</time></trkpt><trkpt lat="44.80134900532116" lon="7.200918160285329"><ele>1082.2</ele><time>2026-04-16T11:56:59Z</time></trkpt><trkpt lat="44.801416460754254" lon="7.201092389747151"><ele>1079.0</ele><time>2026-04-16T11:57:01.001Z</time></trkpt><trkpt lat="44.8014738094433" lon="7.201199658899782"><ele>1079.0</ele><time>2026-04-16T11:57:02.001Z</time></trkpt><trkpt lat="44.801507366706886" lon="7.2012866604701795"><ele>1079.0</ele><time>2026-04-16T11:57:03.001Z</time></trkpt><trkpt lat="44.8015393502055" lon="7.201380152183348"><ele>1079.0</ele><time>2026-04-16T11:57:04.001Z</time></trkpt><trkpt lat="44.80156967191635" lon="7.2014898606452515"><ele>1079.0</ele><time>2026-04-16T11:57:05.001Z</time></trkpt><trkpt lat="44.80162716436513" lon="7.201548090297086"><ele>1079.0</ele><time>2026-04-16T11:57:06.001Z</time></trkpt><trkpt lat="44.80167265925384" lon="7.201641299118128"><ele>1079.0</ele><time>2026-04-16T11:57:07.001Z</time></trkpt><trkpt lat="44.801716668009" lon="7.201732330614667"><ele>1078.1666666666667</ele><time>2026-04-16T11:57:08.001Z</time></trkpt><trkpt lat="44.80173960578497" lon="7.201825355995966"><ele>1077.3333333333335</ele><time>2026-04-16T11:57:09.001Z</time></trkpt><trkpt lat="44.801763628183956" lon="7.201924276907985"><ele>1076.5</ele><time>2026-04-16T11:57:10.001Z</time></trkpt><trkpt lat="44.801800081959115" lon="7.202003230045176"><ele>1075.6666666666667</ele><time>2026-04-16T11:57:11.001Z</time></trkpt><trkpt lat="44.80185534939317" lon="7.202198065901119"><ele>1074.8333333333333</ele><time>2026-04-16T11:57:13.001Z</time></trkpt><trkpt lat="44.801881682031116" lon="7.202280147836797"><ele>1074.0</ele><time>2026-04-16T11:57:14.001Z</time></trkpt><trkpt lat="44.80193058917014" lon="7.202375753795382"><ele>1077.1666666666667</ele><time>2026-04-16T11:57:15.001Z</time></trkpt><trkpt lat="44.80197292149867" lon="7.2024838066167005"><ele>1080.3333333333333</ele><time>2026-04-16T11:57:16.001Z</time></trkpt><trkpt lat="44.80201089441437" lon="7.202606535432847"><ele>1083.5</ele><time>2026-04-16T11:57:18.001Z</time></trkpt><trkpt lat="44.801936915691996" lon="7.2026702840909955"><ele>1086.6666666666665</ele><time>2026-04-16T11:57:20.001Z</time></trkpt><trkpt lat="44.801849266242805" lon="7.202609915028641"><ele>1089.8333333333333</ele><time>2026-04-16T11:57:23.001Z</time></trkpt><trkpt lat="44.80179559773726" lon="7.202552005118837"><ele>1093.0</ele><time>2026-04-16T11:57:24.001Z</time></trkpt><trkpt lat="44.80171449552943" lon="7.20242696780321"><ele>1095.0</ele><time>2026-04-16T11:57:26.001Z</time></trkpt><trkpt lat="44.80163176443041" lon="7.202237498308265"><ele>1097.0</ele><time>2026-04-16T11:57:28.001Z</time></trkpt><trkpt lat="44.8015820282283" lon="7.202112563332951"><ele>1099.0</ele><time>2026-04-16T11:57:29.001Z</time></trkpt><trkpt lat="44.80153612219835" lon="7.2019884123592135"><ele>1101.0</ele><time>2026-04-16T11:57:30.001Z</time></trkpt><trkpt lat="44.80146938686682" lon="7.201887974519163"><ele>1101.0</ele><time>2026-04-16T11:57:31.001Z</time></trkpt><trkpt lat="44.80138246476747" lon="7.201739185143578"><ele>1101.0</ele><time>2026-04-16T11:57:32.001Z</time></trkpt><trkpt lat="44.80129541444021" lon="7.2016351858788585"><ele>1101.0</ele><time>2026-04-16T11:57:33.001Z</time></trkpt><trkpt lat="44.80121625474915" lon="7.201554919754371"><ele>1101.0</ele><time>2026-04-16T11:57:34.001Z</time></trkpt><trkpt lat="44.801104145875314" lon="7.201485930723758"><ele>1104.0</ele><time>2026-04-16T11:57:35.001Z</time></trkpt><trkpt lat="44.80100522589537" lon="7.2014554182258435"><ele>1107.0</ele><time>2026-04-16T11:57:36.001Z</time></trkpt><trkpt lat="44.800903362491454" lon="7.201400554947319"><ele>1110.0</ele><time>2026-04-16T11:57:37.001Z</time></trkpt><trkpt lat="44.800774458922334" lon="7.20130249821253"><ele>1113.0</ele><time>2026-04-16T11:57:38.001Z</time></trkpt><trkpt lat="44.80066183303655" lon="7.201252839688505"><ele>1113.0</ele><time>2026-04-16T11:57:39.001Z</time></trkpt><trkpt lat="44.80059122831866" lon="7.201212891765925"><ele>1113.0</ele><time>2026-04-16T11:57:40.001Z</time></trkpt><trkpt lat="44.80052006502864" lon="7.201143186598161"><ele>1113.0</ele><time>2026-04-16T11:57:42.001Z</time></trkpt><trkpt lat="44.80049593647192" lon="7.200959908987514"><ele>1113.0</ele><time>2026-04-16T11:57:44.001Z</time></trkpt><trkpt lat="44.800459601012555" lon="7.2008463049645295"><ele>1113.0</ele><time>2026-04-16T11:57:45.001Z</time></trkpt><trkpt lat="44.800390258907306" lon="7.200717100218006"><ele>1109.4</ele><time>2026-04-16T11:57:47.001Z</time></trkpt><trkpt lat="44.80028825288375" lon="7.200637756055353"><ele>1105.8</ele><time>2026-04-16T11:57:48.001Z</time></trkpt><trkpt lat="44.800235532742526" lon="7.200536238517637"><ele>1102.2</ele><time>2026-04-16T11:57:49.001Z</time></trkpt><trkpt lat="44.80019855231238" lon="7.2004219288028395"><ele>1098.6</ele><time>2026-04-16T11:57:51.001Z</time></trkpt><trkpt lat="44.80015139072581" lon="7.200323398450675"><ele>1095.0</ele><time>2026-04-16T11:57:53.001Z</time></trkpt><trkpt lat="44.80007267336478" lon="7.200267147343005"><ele>1101.0</ele><time>2026-04-16T11:57:55.001Z</time></trkpt><trkpt lat="44.8000083894837" lon="7.200271957550604"><ele>1107.0</ele><time>2026-04-16T11:57:57.001Z</time></trkpt><trkpt lat="44.799982080275974" lon="7.200185896276614"><ele>1113.0</ele><time>2026-04-16T12:03:54.001Z</time></trkpt><trkpt lat="44.79993971356803" lon="7.200093866008054"><ele>1119.0</ele><time>2026-04-16T12:04:07.001Z</time></trkpt><trkpt lat="44.799874584879376" lon="7.200155385997561"><ele>1125.0</ele><time>2026-04-16T12:06:24Z</time></trkpt><trkpt lat="44.79974673376522" lon="7.200226820224844"><ele>1131.0</ele><time>2026-04-16T12:06:26Z</time></trkpt><trkpt lat="44.799672384390135" lon="7.200220551754427"><ele>1131.0</ele><time>2026-04-16T12:06:27Z</time></trkpt><trkpt lat="44.799568810408324" lon="7.200103142062964"><ele>1131.0</ele><time>2026-04-16T12:06:29Z</time></trkpt><trkpt lat="44.79947765002221" lon="7.200091747771851"><ele>1131.0</ele><time>2026-04-16T12:06:32Z</time></trkpt><trkpt lat="44.799380847976" lon="7.200071417496931"><ele>1131.0</ele><time>2026-04-16T12:06:34Z</time></trkpt><trkpt lat="44.79930810295329" lon="7.200034141126192"><ele>1131.0</ele><time>2026-04-16T12:06:37Z</time></trkpt><trkpt lat="44.79923492935581" lon="7.199890503450621"><ele>1134.3999999999999</ele><time>2026-04-16T12:06:40Z</time></trkpt><trkpt lat="44.79920344724086" lon="7.199796174263054"><ele>1137.8</ele><time>2026-04-16T12:06:41Z</time></trkpt><trkpt lat="44.799151988512264" lon="7.199679111851817"><ele>1141.1999999999998</ele><time>2026-04-16T12:06:42Z</time></trkpt><trkpt lat="44.79912117257101" lon="7.1995944372134195"><ele>1144.6</ele><time>2026-04-16T12:06:43Z</time></trkpt><trkpt lat="44.799115040598174" lon="7.199470105452213"><ele>1148.0</ele><time>2026-04-16T12:06:44Z</time></trkpt><trkpt lat="44.7990308618721" lon="7.199303399191988"><ele>1148.0</ele><time>2026-04-16T12:06:46Z</time></trkpt><trkpt lat="44.79896778397457" lon="7.199161403329555"><ele>1148.0</ele><time>2026-04-16T12:06:48Z</time></trkpt><trkpt lat="44.798914975921555" lon="7.199080457048495"><ele>1148.0</ele><time>2026-04-16T12:06:49Z</time></trkpt><trkpt lat="44.79887164484266" lon="7.198957842971168"><ele>1148.0</ele><time>2026-04-16T12:06:50Z</time></trkpt><trkpt lat="44.79883541184019" lon="7.198816014652726"><ele>1148.0</ele><time>2026-04-16T12:06:51Z</time></trkpt><trkpt lat="44.79878286028593" lon="7.198720665083836"><ele>1146.6</ele><time>2026-04-16T12:06:52Z</time></trkpt><trkpt lat="44.79877654874191" lon="7.198581863635772"><ele>1145.1999999999998</ele><time>2026-04-16T12:06:53Z</time></trkpt><trkpt lat="44.79875836105563" lon="7.198481121866078"><ele>1143.8</ele><time>2026-04-16T12:06:54Z</time></trkpt><trkpt lat="44.79873992054992" lon="7.198394543732481"><ele>1142.3999999999999</ele><time>2026-04-16T12:06:56Z</time></trkpt><trkpt lat="44.79868132019134" lon="7.1981915459227075"><ele>1141.0</ele><time>2026-04-16T12:06:58Z</time></trkpt><trkpt lat="44.79866653965871" lon="7.198047087216923"><ele>1139.5</ele><time>2026-04-16T12:06:59Z</time></trkpt><trkpt lat="44.798609847615026" lon="7.197964495479386"><ele>1138.0</ele><time>2026-04-16T12:07:00Z</time></trkpt><trkpt lat="44.798563768220895" lon="7.197899347188051"><ele>1136.5</ele><time>2026-04-16T12:07:01Z</time></trkpt><trkpt lat="44.79849095572198" lon="7.197820265046696"><ele>1135.0</ele><time>2026-04-16T12:07:03Z</time></trkpt><trkpt lat="44.798415708417586" lon="7.197820002763437"><ele>1133.5</ele><time>2026-04-16T12:07:06Z</time></trkpt><trkpt lat="44.79846830237869" lon="7.197880243854238"><ele>1132.0</ele><time>2026-04-16T12:07:18Z</time></trkpt><trkpt lat="44.798553212914555" lon="7.197953886394676"><ele>1132.0</ele><time>2026-04-16T12:07:20Z</time></trkpt><trkpt lat="44.79860188272764" lon="7.19801666386911"><ele>1132.0</ele><time>2026-04-16T12:07:21Z</time></trkpt><trkpt lat="44.798642520176124" lon="7.198106404187874"><ele>1132.0</ele><time>2026-04-16T12:07:22Z</time></trkpt><trkpt lat="44.798651699317034" lon="7.198214950630845"><ele>1132.0</ele><time>2026-04-16T12:07:23Z</time></trkpt><trkpt lat="44.79867341845101" lon="7.198310972362961"><ele>1132.0</ele><time>2026-04-16T12:07:24Z</time></trkpt><trkpt lat="44.798705586184994" lon="7.1984337867267305"><ele>1132.0</ele><time>2026-04-16T12:07:26Z</time></trkpt><trkpt lat="44.79875025813256" lon="7.198538871814392"><ele>1133.5</ele><time>2026-04-16T12:07:28Z</time></trkpt><trkpt lat="44.79878046403656" lon="7.198708572420007"><ele>1135.0</ele><time>2026-04-16T12:07:30Z</time></trkpt><trkpt lat="44.79880385575303" lon="7.198813908128265"><ele>1136.5</ele><time>2026-04-16T12:07:31Z</time></trkpt><trkpt lat="44.79882348368588" lon="7.198927200391938"><ele>1138.0</ele><time>2026-04-16T12:07:32Z</time></trkpt><trkpt lat="44.798846906379964" lon="7.199030611856921"><ele>1139.5</ele><time>2026-04-16T12:07:33Z</time></trkpt><trkpt lat="44.79887694771663" lon="7.199132656049135"><ele>1141.0</ele><time>2026-04-16T12:07:34Z</time></trkpt><trkpt lat="44.798910466671984" lon="7.199237017142432"><ele>1142.1666666666665</ele><time>2026-04-16T12:07:35Z</time></trkpt><trkpt lat="44.79896640228128" lon="7.19933315116931"><ele>1143.3333333333333</ele><time>2026-04-16T12:07:36Z</time></trkpt><trkpt lat="44.79901106637481" lon="7.199410294027784"><ele>1144.5</ele><time>2026-04-16T12:07:37Z</time></trkpt><trkpt lat="44.79905373705201" lon="7.199503506837017"><ele>1145.6666666666667</ele><time>2026-04-16T12:07:39Z</time></trkpt><trkpt lat="44.799065165928454" lon="7.199659416429771"><ele>1146.8333333333335</ele><time>2026-04-16T12:07:41Z</time></trkpt><trkpt lat="44.7991155205626" lon="7.199728492786414"><ele>1148.0</ele><time>2026-04-16T12:07:42Z</time></trkpt><trkpt lat="44.79914461645634" lon="7.199811930138857"><ele>1148.6666666666667</ele><time>2026-04-16T12:07:43Z</time></trkpt><trkpt lat="44.799183661047365" lon="7.199901573184868"><ele>1149.3333333333335</ele><time>2026-04-16T12:07:44Z</time></trkpt><trkpt lat="44.799220416968446" lon="7.199990783809087"><ele>1150.0</ele><time>2026-04-16T12:07:45Z</time></trkpt><trkpt lat="44.79927807424306" lon="7.20005754079024"><ele>1150.6666666666667</ele><time>2026-04-16T12:07:46Z</time></trkpt><trkpt lat="44.79932241061566" lon="7.200133650184455"><ele>1151.3333333333333</ele><time>2026-04-16T12:07:47Z</time></trkpt><trkpt lat="44.79943813703719" lon="7.2001880868087405"><ele>1152.0</ele><time>2026-04-16T12:07:49Z</time></trkpt><trkpt lat="44.799513088621225" lon="7.200245952341509"><ele>1147.8</ele><time>2026-04-16T12:07:51Z</time></trkpt><trkpt lat="44.79960571373802" lon="7.200233549291837"><ele>1143.6</ele><time>2026-04-16T12:07:52Z</time></trkpt><trkpt lat="44.79966429586558" lon="7.200183724642081"><ele>1139.3999999999999</ele><time>2026-04-16T12:07:53Z</time></trkpt><trkpt lat="44.79976955193659" lon="7.200181659141806"><ele>1135.2</ele><time>2026-04-16T12:07:55Z</time></trkpt><trkpt lat="44.79988551980687" lon="7.200191061796211"><ele>1131.0</ele><time>2026-04-16T12:07:58Z</time></trkpt><trkpt lat="44.799961226528076" lon="7.2002554047118075"><ele>1131.0</ele><time>2026-04-16T12:08:00Z</time></trkpt><trkpt lat="44.80002183103751" lon="7.200280121702118"><ele>1131.0</ele><time>2026-04-16T12:08:03Z</time></trkpt><trkpt lat="44.80003290857876" lon="7.200191409344148"><ele>1131.0</ele><time>2026-04-16T12:08:09Z</time></trkpt><trkpt lat="44.799947611228895" lon="7.200115067052739"><ele>1131.0</ele><time>2026-04-16T12:08:16Z</time></trkpt><trkpt lat="44.79986679532784" lon="7.200069539988415"><ele>1131.0</ele><time>2026-04-16T12:08:19Z</time></trkpt><trkpt lat="44.79996895469649" lon="7.200137429732232"><ele>1131.0</ele><time>2026-04-16T12:08:23Z</time></trkpt><trkpt lat="44.7999034223277" lon="7.200142067106883"><ele>1131.0</ele><time>2026-04-16T12:08:34Z</time></trkpt><trkpt lat="44.799833767852334" lon="7.200114916242049"><ele>1131.0</ele><time>2026-04-16T12:08:50Z</time></trkpt><trkpt lat="44.79980587876357" lon="7.200202712133347"><ele>1131.0</ele><time>2026-04-16T12:09:24.999Z</time></trkpt><trkpt lat="44.79969548040901" lon="7.200195729109211"><ele>1131.0</ele><time>2026-04-16T12:09:26.999Z</time></trkpt><trkpt lat="44.799638213775445" lon="7.20024331616761"><ele>1131.0</ele><time>2026-04-16T12:09:28.999Z</time></trkpt><trkpt lat="44.799555250551855" lon="7.200230796264384"><ele>1131.0</ele><time>2026-04-16T12:09:29.999Z</time></trkpt><trkpt lat="44.799488008672" lon="7.200222247461226"><ele>1131.0</ele><time>2026-04-16T12:09:30.999Z</time></trkpt><trkpt lat="44.79939308678808" lon="7.200173595653704"><ele>1131.0</ele><time>2026-04-16T12:09:32.999Z</time></trkpt><trkpt lat="44.799313927120245" lon="7.200118940117826"><ele>1131.0</ele><time>2026-04-16T12:09:34.999Z</time></trkpt><trkpt lat="44.79925726203447" lon="7.200027685228933"><ele>1131.0</ele><time>2026-04-16T12:09:35.999Z</time></trkpt><trkpt lat="44.799218125602316" lon="7.19994038928531"><ele>1131.0</ele><time>2026-04-16T12:09:36.999Z</time></trkpt><trkpt lat="44.79914439477656" lon="7.199824056450095"><ele>1134.3999999999999</ele><time>2026-04-16T12:09:37.999Z</time></trkpt><trkpt lat="44.79910562566856" lon="7.1996941685426235"><ele>1137.8</ele><time>2026-04-16T12:09:38.999Z</time></trkpt><trkpt lat="44.79908420965614" lon="7.199495369498499"><ele>1141.1999999999998</ele><time>2026-04-16T12:09:39.999Z</time></trkpt><trkpt lat="44.79905656276925" lon="7.199393352067401"><ele>1144.6</ele><time>2026-04-16T12:09:40.999Z</time></trkpt><trkpt lat="44.799002427344874" lon="7.199256316287917"><ele>1148.0</ele><time>2026-04-16T12:09:42.999Z</time></trkpt><trkpt lat="44.798975875620826" lon="7.1991408621557165"><ele>1148.0</ele><time>2026-04-16T12:09:43.999Z</time></trkpt><trkpt lat="44.798929812642896" lon="7.199044785869504"><ele>1148.0</ele><time>2026-04-16T12:09:44.999Z</time></trkpt><trkpt lat="44.798872981663756" lon="7.198929484527188"><ele>1148.0</ele><time>2026-04-16T12:09:45.999Z</time></trkpt><trkpt lat="44.79885073733908" lon="7.198834388745862"><ele>1148.0</ele><time>2026-04-16T12:09:46.999Z</time></trkpt><trkpt lat="44.79878898051341" lon="7.198714510960221"><ele>1148.0</ele><time>2026-04-16T12:09:47.999Z</time></trkpt><trkpt lat="44.79875017389138" lon="7.198613048985584"><ele>1148.0</ele><time>2026-04-16T12:09:49Z</time></trkpt><trkpt lat="44.79874964383072" lon="7.198509320064189"><ele>1146.6</ele><time>2026-04-16T12:09:50Z</time></trkpt><trkpt lat="44.79867567549439" lon="7.198344207282063"><ele>1145.1999999999998</ele><time>2026-04-16T12:09:52Z</time></trkpt><trkpt lat="44.7986146844531" lon="7.198252246969636"><ele>1143.8</ele><time>2026-04-16T12:09:53Z</time></trkpt><trkpt lat="44.79857221815648" lon="7.198132677965746"><ele>1142.3999999999999</ele><time>2026-04-16T12:09:54Z</time></trkpt><trkpt lat="44.798544041471004" lon="7.1980389754432945"><ele>1141.0</ele><time>2026-04-16T12:09:55Z</time></trkpt><trkpt lat="44.798507280814114" lon="7.1979524875284095"><ele>1139.5</ele><time>2026-04-16T12:09:56Z</time></trkpt><trkpt lat="44.79843422182386" lon="7.197870865760408"><ele>1138.0</ele><time>2026-04-16T12:09:58Z</time></trkpt><trkpt lat="44.79840894534063" lon="7.197775411626581"><ele>1136.5</ele><time>2026-04-16T12:10:03Z</time></trkpt><trkpt lat="44.798393242352034" lon="7.197865211502156"><ele>1135.0</ele><time>2026-04-16T12:10:11Z</time></trkpt><trkpt lat="44.7984537525352" lon="7.197906339772655"><ele>1133.5</ele><time>2026-04-16T12:10:14Z</time></trkpt><trkpt lat="44.798511387887245" lon="7.197947320354966"><ele>1132.0</ele><time>2026-04-16T12:10:16Z</time></trkpt><trkpt lat="44.79860068045571" lon="7.1980356843528295"><ele>1132.0</ele><time>2026-04-16T12:10:18Z</time></trkpt><trkpt lat="44.798638503438305" lon="7.198126354670635"><ele>1132.0</ele><time>2026-04-16T12:10:19Z</time></trkpt><trkpt lat="44.79866270632335" lon="7.198260193532368"><ele>1132.0</ele><time>2026-04-16T12:10:20Z</time></trkpt><trkpt lat="44.79867812099303" lon="7.198366869533719"><ele>1132.0</ele><time>2026-04-16T12:10:21Z</time></trkpt><trkpt lat="44.79873197271791" lon="7.198496403762718"><ele>1132.0</ele><time>2026-04-16T12:10:23Z</time></trkpt><trkpt lat="44.798765963674256" lon="7.198646365886717"><ele>1133.5</ele><time>2026-04-16T12:10:25Z</time></trkpt><trkpt lat="44.79876387584117" lon="7.19874341333105"><ele>1135.0</ele><time>2026-04-16T12:10:26Z</time></trkpt><trkpt lat="44.79877521145323" lon="7.19884245115722"><ele>1136.5</ele><time>2026-04-16T12:10:27Z</time></trkpt><trkpt lat="44.79883778005748" lon="7.198956269070662"><ele>1138.0</ele><time>2026-04-16T12:10:28Z</time></trkpt><trkpt lat="44.798849311015644" lon="7.199060518404099"><ele>1139.5</ele><time>2026-04-16T12:10:29Z</time></trkpt><trkpt lat="44.79887495793297" lon="7.199164381954093"><ele>1141.0</ele><time>2026-04-16T12:10:30Z</time></trkpt><trkpt lat="44.79891552755678" lon="7.199242764065902"><ele>1142.1666666666665</ele><time>2026-04-16T12:10:31Z</time></trkpt><trkpt lat="44.79895761968259" lon="7.199330859423498"><ele>1143.3333333333333</ele><time>2026-04-16T12:10:32Z</time></trkpt><trkpt lat="44.799000064071464" lon="7.199399644737333"><ele>1144.5</ele><time>2026-04-16T12:10:33Z</time></trkpt><trkpt lat="44.79904132714651" lon="7.1995230718129415"><ele>1145.6666666666667</ele><time>2026-04-16T12:10:35Z</time></trkpt><trkpt lat="44.79906509929355" lon="7.199614243276918"><ele>1146.8333333333335</ele><time>2026-04-16T12:10:36Z</time></trkpt><trkpt lat="44.79909486119403" lon="7.199721509122262"><ele>1148.0</ele><time>2026-04-16T12:10:37Z</time></trkpt><trkpt lat="44.799144217258245" lon="7.199871880184743"><ele>1148.8</ele><time>2026-04-16T12:10:39Z</time></trkpt><trkpt lat="44.79920311090924" lon="7.19997095738509"><ele>1149.6</ele><time>2026-04-16T12:10:40Z</time></trkpt><trkpt lat="44.79928578575429" lon="7.200076686242701"><ele>1150.4</ele><time>2026-04-16T12:10:42Z</time></trkpt><trkpt lat="44.799354403884216" lon="7.200112626864615"><ele>1151.2</ele><time>2026-04-16T12:10:43Z</time></trkpt><trkpt lat="44.79941823901858" lon="7.200128296796255"><ele>1152.0</ele><time>2026-04-16T12:10:44Z</time></trkpt><trkpt lat="44.799526336994454" lon="7.200136383475417"><ele>1147.8</ele><time>2026-04-16T12:10:46Z</time></trkpt><trkpt lat="44.79964753123761" lon="7.200154672788637"><ele>1143.6</ele><time>2026-04-16T12:10:48Z</time></trkpt><trkpt lat="44.79976846841213" lon="7.200134896982679"><ele>1139.3999999999999</ele><time>2026-04-16T12:10:49Z</time></trkpt><trkpt lat="44.79986856748416" lon="7.200168285079322"><ele>1135.2</ele><time>2026-04-16T12:10:51Z</time></trkpt><trkpt lat="44.79995593240861" lon="7.200195447925451"><ele>1131.0</ele><time>2026-04-16T12:10:53Z</time></trkpt><trkpt lat="44.80001845267806" lon="7.200210528153612"><ele>1131.0</ele><time>2026-04-16T12:11:01Z</time></trkpt><trkpt lat="44.80002978270964" lon="7.200100631301459"><ele>1131.0</ele><time>2026-04-16T12:11:34.999Z</time></trkpt><trkpt lat="44.799992143566314" lon="7.200188341081359"><ele>1131.0</ele><time>2026-04-16T12:11:50.999Z</time></trkpt><trkpt lat="44.79991456463673" lon="7.200244983276585"><ele>1131.0</ele><time>2026-04-16T12:14:14Z</time></trkpt><trkpt lat="44.79985160169604" lon="7.2002524093030615"><ele>1131.0</ele><time>2026-04-16T12:14:17Z</time></trkpt><trkpt lat="44.799760538185446" lon="7.200251913878593"><ele>1131.0</ele><time>2026-04-16T12:14:20Z</time></trkpt><trkpt lat="44.79967529742884" lon="7.200232596633084"><ele>1131.0</ele><time>2026-04-16T12:14:23Z</time></trkpt><trkpt lat="44.79961886746411" lon="7.2001070151257975"><ele>1131.0</ele><time>2026-04-16T12:14:24Z</time></trkpt><trkpt lat="44.799548182154936" lon="7.200101368988658"><ele>1131.0</ele><time>2026-04-16T12:14:25Z</time></trkpt><trkpt lat="44.79942458943972" lon="7.200080751009002"><ele>1131.0</ele><time>2026-04-16T12:14:27Z</time></trkpt><trkpt lat="44.799325149181016" lon="7.200043773743588"><ele>1131.0</ele><time>2026-04-16T12:14:29Z</time></trkpt><trkpt lat="44.7992548169146" lon="7.200018075274328"><ele>1134.3999999999999</ele><time>2026-04-16T12:14:31Z</time></trkpt><trkpt lat="44.799202958760894" lon="7.19993127388992"><ele>1137.8</ele><time>2026-04-16T12:14:32Z</time></trkpt><trkpt lat="44.79916815985625" lon="7.19979222823499"><ele>1141.1999999999998</ele><time>2026-04-16T12:14:33Z</time></trkpt><trkpt lat="44.79914801879377" lon="7.199663372038351"><ele>1144.6</ele><time>2026-04-16T12:14:34Z</time></trkpt><trkpt lat="44.79910487063344" lon="7.199494834232535"><ele>1148.0</ele><time>2026-04-16T12:14:35Z</time></trkpt><trkpt lat="44.79906353616333" lon="7.199411030077431"><ele>1148.0</ele><time>2026-04-16T12:14:36Z</time></trkpt><trkpt lat="44.79897866615981" lon="7.199185292598302"><ele>1148.0</ele><time>2026-04-16T12:14:38Z</time></trkpt><trkpt lat="44.798905393151415" lon="7.199054845264084"><ele>1148.0</ele><time>2026-04-16T12:14:39Z</time></trkpt><trkpt lat="44.79887380959203" lon="7.198884736389006"><ele>1148.0</ele><time>2026-04-16T12:14:40Z</time></trkpt><trkpt lat="44.798814657370016" lon="7.198745221273994"><ele>1146.6</ele><time>2026-04-16T12:14:41Z</time></trkpt><trkpt lat="44.798795820315604" lon="7.19861026835477"><ele>1145.1999999999998</ele><time>2026-04-16T12:14:42Z</time></trkpt><trkpt lat="44.79875545348003" lon="7.1984529614068835"><ele>1143.8</ele><time>2026-04-16T12:14:44Z</time></trkpt><trkpt lat="44.798724500894636" lon="7.198334448066677"><ele>1142.3999999999999</ele><time>2026-04-16T12:14:48Z</time></trkpt><trkpt lat="44.79869460118962" lon="7.1982199664768975"><ele>1141.0</ele><time>2026-04-16T12:14:50Z</time></trkpt><trkpt lat="44.79866504850194" lon="7.198126740059594"><ele>1139.2</ele><time>2026-04-16T12:14:52Z</time></trkpt><trkpt lat="44.79859830802267" lon="7.1979894040402765"><ele>1137.3999999999999</ele><time>2026-04-16T12:14:54Z</time></trkpt><trkpt lat="44.798537051589385" lon="7.1979119450361"><ele>1135.6</ele><time>2026-04-16T12:14:55Z</time></trkpt><trkpt lat="44.79844176334805" lon="7.197861998395885"><ele>1133.8</ele><time>2026-04-16T12:14:56Z</time></trkpt><trkpt lat="44.79837168188848" lon="7.197819589542224"><ele>1132.0</ele><time>2026-04-16T12:14:57Z</time></trkpt><trkpt lat="44.798260520708304" lon="7.197771060142575"><ele>1136.2</ele><time>2026-04-16T12:14:59Z</time></trkpt><trkpt lat="44.798192410581315" lon="7.197754928635512"><ele>1140.4</ele><time>2026-04-16T12:15:00Z</time></trkpt><trkpt lat="44.798095873176166" lon="7.197741022170238"><ele>1144.6</ele><time>2026-04-16T12:15:02Z</time></trkpt><trkpt lat="44.7980088710654" lon="7.197779373682139"><ele>1148.8</ele><time>2026-04-16T12:15:04Z</time></trkpt><trkpt lat="44.79796909773646" lon="7.197907574614548"><ele>1153.0</ele><time>2026-04-16T12:15:06Z</time></trkpt><trkpt lat="44.79789090303901" lon="7.197987169463502"><ele>1153.0</ele><time>2026-04-16T12:15:08Z</time></trkpt><trkpt lat="44.7978446156835" lon="7.1980493856523085"><ele>1153.0</ele><time>2026-04-16T12:15:09Z</time></trkpt><trkpt lat="44.79776368158897" lon="7.198188910779635"><ele>1153.0</ele><time>2026-04-16T12:15:11.001Z</time></trkpt><trkpt lat="44.79766546159878" lon="7.198248359898127"><ele>1153.0</ele><time>2026-04-16T12:15:13.001Z</time></trkpt><trkpt lat="44.79756548011782" lon="7.198320693025476"><ele>1153.0</ele><time>2026-04-16T12:15:15.001Z</time></trkpt><trkpt lat="44.79745928653093" lon="7.1983861665834175"><ele>1151.8</ele><time>2026-04-16T12:15:17Z</time></trkpt><trkpt lat="44.797353794801154" lon="7.198428008467767"><ele>1150.6</ele><time>2026-04-16T12:15:19Z</time></trkpt><trkpt lat="44.79725045067959" lon="7.198445860393446"><ele>1149.4</ele><time>2026-04-16T12:15:21Z</time></trkpt><trkpt lat="44.79716134384859" lon="7.198431258434858"><ele>1148.2</ele><time>2026-04-16T12:15:23Z</time></trkpt><trkpt lat="44.797112784183675" lon="7.198333684482999"><ele>1147.0</ele><time>2026-04-16T12:15:26Z</time></trkpt><trkpt lat="44.79706747909987" lon="7.198233654204906"><ele>1148.0</ele><time>2026-04-16T12:16:43.001Z</time></trkpt><trkpt lat="44.796997653477135" lon="7.198118222470849"><ele>1149.0</ele><time>2026-04-16T12:16:45.001Z</time></trkpt><trkpt lat="44.79693874772666" lon="7.198021051640516"><ele>1150.0</ele><time>2026-04-16T12:16:46.001Z</time></trkpt><trkpt lat="44.79687754223879" lon="7.197916650226145"><ele>1151.0</ele><time>2026-04-16T12:16:47.001Z</time></trkpt><trkpt lat="44.79682773066203" lon="7.197836552186951"><ele>1152.0</ele><time>2026-04-16T12:16:48.001Z</time></trkpt><trkpt lat="44.796784755322314" lon="7.197768408917696"><ele>1153.0</ele><time>2026-04-16T12:16:49.001Z</time></trkpt><trkpt lat="44.79671896471632" lon="7.1976298594446"><ele>1149.4</ele><time>2026-04-16T12:16:51.001Z</time></trkpt><trkpt lat="44.79668872391128" lon="7.19746904746853"><ele>1145.8</ele><time>2026-04-16T12:16:53.001Z</time></trkpt><trkpt lat="44.79667927650336" lon="7.197353360984109"><ele>1142.2</ele><time>2026-04-16T12:16:54.001Z</time></trkpt><trkpt lat="44.796675296059796" lon="7.197223528082634"><ele>1138.6</ele><time>2026-04-16T12:16:55.001Z</time></trkpt><trkpt lat="44.796673148084444" lon="7.197080687556144"><ele>1135.0</ele><time>2026-04-16T12:16:56.001Z</time></trkpt><trkpt lat="44.79666994016015" lon="7.196938413277555"><ele>1135.0</ele><time>2026-04-16T12:16:57.001Z</time></trkpt><trkpt lat="44.79665356510396" lon="7.196798577225104"><ele>1135.0</ele><time>2026-04-16T12:16:58.001Z</time></trkpt><trkpt lat="44.796608117101584" lon="7.196666805585273"><ele>1135.0</ele><time>2026-04-16T12:16:59.001Z</time></trkpt><trkpt lat="44.79656260763271" lon="7.196564682041712"><ele>1135.0</ele><time>2026-04-16T12:17:00.001Z</time></trkpt><trkpt lat="44.79651877083131" lon="7.196472606643705"><ele>1135.0</ele><time>2026-04-16T12:17:01.001Z</time></trkpt><trkpt lat="44.7964578291579" lon="7.196341461968366"><ele>1135.0</ele><time>2026-04-16T12:17:03.001Z</time></trkpt><trkpt lat="44.79637919958084" lon="7.196281545754512"><ele>1135.0</ele><time>2026-04-16T12:17:05.001Z</time></trkpt><trkpt lat="44.79635878260285" lon="7.196477339017007"><ele>1135.0</ele><time>2026-04-16T12:17:07.001Z</time></trkpt><trkpt lat="44.7963982521573" lon="7.196581091916956"><ele>1135.0</ele><time>2026-04-16T12:17:08.001Z</time></trkpt><trkpt lat="44.79643117785442" lon="7.196693425271271"><ele>1135.0</ele><time>2026-04-16T12:17:09.001Z</time></trkpt><trkpt lat="44.79645018177351" lon="7.196798588327512"><ele>1135.0</ele><time>2026-04-16T12:17:10.001Z</time></trkpt><trkpt lat="44.796411348275555" lon="7.19693482705317"><ele>1135.0</ele><time>2026-04-16T12:17:12.001Z</time></trkpt><trkpt lat="44.796344758066446" lon="7.197061654610262"><ele>1135.0</ele><time>2026-04-16T12:17:14.001Z</time></trkpt><trkpt lat="44.796284050887564" lon="7.1971453828620575"><ele>1135.0</ele><time>2026-04-16T12:17:15.001Z</time></trkpt><trkpt lat="44.796232363675635" lon="7.197246220256185"><ele>1135.0</ele><time>2026-04-16T12:17:16.001Z</time></trkpt><trkpt lat="44.796185846298904" lon="7.197366196768453"><ele>1133.4</ele><time>2026-04-16T12:17:17.001Z</time></trkpt><trkpt lat="44.7961403885826" lon="7.197495738292986"><ele>1131.8</ele><time>2026-04-16T12:17:18.001Z</time></trkpt><trkpt lat="44.79609734824336" lon="7.197652626089173"><ele>1130.2</ele><time>2026-04-16T12:17:19.001Z</time></trkpt><trkpt lat="44.79605273067083" lon="7.197801912169637"><ele>1128.6</ele><time>2026-04-16T12:17:20.001Z</time></trkpt><trkpt lat="44.796000671315554" lon="7.19791610522651"><ele>1127.0</ele><time>2026-04-16T12:17:21.001Z</time></trkpt><trkpt lat="44.79592619875767" lon="7.197982872422479"><ele>1122.8333333333335</ele><time>2026-04-16T12:17:22Z</time></trkpt><trkpt lat="44.79587521701612" lon="7.198069233584059"><ele>1118.6666666666667</ele><time>2026-04-16T12:17:23Z</time></trkpt><trkpt lat="44.79581935932966" lon="7.198159846260199"><ele>1114.5</ele><time>2026-04-16T12:17:24Z</time></trkpt><trkpt lat="44.795761150587154" lon="7.198255861009061"><ele>1110.3333333333333</ele><time>2026-04-16T12:17:25Z</time></trkpt><trkpt lat="44.79571544615459" lon="7.198337242328912"><ele>1106.1666666666665</ele><time>2026-04-16T12:17:26Z</time></trkpt><trkpt lat="44.795670550927255" lon="7.198418146258352"><ele>1102.0</ele><time>2026-04-16T12:17:27Z</time></trkpt><trkpt lat="44.79560410397927" lon="7.198505461365101"><ele>1102.0</ele><time>2026-04-16T12:17:29Z</time></trkpt><trkpt lat="44.79558254464873" lon="7.198265319688978"><ele>1102.0</ele><time>2026-04-16T12:17:33Z</time></trkpt><trkpt lat="44.79556730373371" lon="7.198108834590842"><ele>1102.0</ele><time>2026-04-16T12:17:34Z</time></trkpt><trkpt lat="44.795543667052165" lon="7.197937091065994"><ele>1102.0</ele><time>2026-04-16T12:17:35Z</time></trkpt><trkpt lat="44.79551431028513" lon="7.197768726080161"><ele>1102.1666666666665</ele><time>2026-04-16T12:17:36Z</time></trkpt><trkpt lat="44.79550526021825" lon="7.197625498921401"><ele>1102.3333333333333</ele><time>2026-04-16T12:17:37Z</time></trkpt><trkpt lat="44.79548410959479" lon="7.197513066515534"><ele>1102.5</ele><time>2026-04-16T12:17:38Z</time></trkpt><trkpt lat="44.79545043808562" lon="7.1974203425549765"><ele>1102.6666666666667</ele><time>2026-04-16T12:17:39Z</time></trkpt><trkpt lat="44.79543851652975" lon="7.197311814926165"><ele>1102.8333333333335</ele><time>2026-04-16T12:17:40Z</time></trkpt><trkpt lat="44.79541150596182" lon="7.197202857679523"><ele>1103.0</ele><time>2026-04-16T12:17:41Z</time></trkpt><trkpt lat="44.795372383128864" lon="7.197093872090454"><ele>1103.0</ele><time>2026-04-16T12:17:42Z</time></trkpt><trkpt lat="44.79534760142975" lon="7.196975419353201"><ele>1103.0</ele><time>2026-04-16T12:17:43Z</time></trkpt><trkpt lat="44.79529589429766" lon="7.196869335748157"><ele>1103.0</ele><time>2026-04-16T12:17:44Z</time></trkpt><trkpt lat="44.79524516324411" lon="7.196775217518794"><ele>1103.0</ele><time>2026-04-16T12:17:45Z</time></trkpt><trkpt lat="44.795195597827714" lon="7.196703826601152"><ele>1103.0</ele><time>2026-04-16T12:17:46Z</time></trkpt><trkpt lat="44.79513247229755" lon="7.19662946540772"><ele>1103.0</ele><time>2026-04-16T12:17:47Z</time></trkpt><trkpt lat="44.79505060379756" lon="7.196595575250738"><ele>1099.0</ele><time>2026-04-16T12:17:48Z</time></trkpt><trkpt lat="44.7950051676068" lon="7.196510593796493"><ele>1095.0</ele><time>2026-04-16T12:17:49Z</time></trkpt><trkpt lat="44.79494282037673" lon="7.196436402563246"><ele>1091.0</ele><time>2026-04-16T12:17:50Z</time></trkpt><trkpt lat="44.794881643325276" lon="7.196351381050232"><ele>1087.0</ele><time>2026-04-16T12:17:51Z</time></trkpt><trkpt lat="44.79483879209361" lon="7.196256007385515"><ele>1083.0</ele><time>2026-04-16T12:17:52Z</time></trkpt><trkpt lat="44.79482729093857" lon="7.196156867385467"><ele>1079.0</ele><time>2026-04-16T12:17:53Z</time></trkpt><trkpt lat="44.794806074013806" lon="7.196049610470711"><ele>1079.0</ele><time>2026-04-16T12:17:54Z</time></trkpt><trkpt lat="44.79475436657559" lon="7.19593172955363"><ele>1079.0</ele><time>2026-04-16T12:17:55Z</time></trkpt><trkpt lat="44.7947176749271" lon="7.195803766543036"><ele>1079.0</ele><time>2026-04-16T12:17:56Z</time></trkpt><trkpt lat="44.79466754080709" lon="7.195694234106928"><ele>1079.0</ele><time>2026-04-16T12:17:57Z</time></trkpt><trkpt lat="44.79462693449834" lon="7.1956062674822086"><ele>1079.0</ele><time>2026-04-16T12:17:58Z</time></trkpt><trkpt lat="44.79458482562351" lon="7.195528287567649"><ele>1079.0</ele><time>2026-04-16T12:17:59Z</time></trkpt><trkpt lat="44.79453167178597" lon="7.195400076173056"><ele>1079.0</ele><time>2026-04-16T12:18:01Z</time></trkpt><trkpt lat="44.79446422371775" lon="7.19534522651196"><ele>1079.0</ele><time>2026-04-16T12:18:03Z</time></trkpt><trkpt lat="44.79437003131562" lon="7.1953477403552"><ele>1079.0</ele><time>2026-04-16T12:18:05Z</time></trkpt><trkpt lat="44.79438519978629" lon="7.1955022723429645"><ele>1079.0</ele><time>2026-04-16T12:18:06Z</time></trkpt><trkpt lat="44.79439346455019" lon="7.195621424020895"><ele>1079.0</ele><time>2026-04-16T12:18:07Z</time></trkpt><trkpt lat="44.794377555228714" lon="7.195736915435145"><ele>1079.0</ele><time>2026-04-16T12:18:08Z</time></trkpt><trkpt lat="44.794392057941955" lon="7.195854204808741"><ele>1079.0</ele><time>2026-04-16T12:18:09Z</time></trkpt><trkpt lat="44.79439740389449" lon="7.195966929922163"><ele>1079.0</ele><time>2026-04-16T12:18:10Z</time></trkpt><trkpt lat="44.794406656678184" lon="7.196078527198833"><ele>1079.0</ele><time>2026-04-16T12:18:11Z</time></trkpt><trkpt lat="44.794430020252456" lon="7.196196059672844"><ele>1079.0</ele><time>2026-04-16T12:18:12Z</time></trkpt><trkpt lat="44.79443038612904" lon="7.196304017806754"><ele>1079.0</ele><time>2026-04-16T12:18:13Z</time></trkpt><trkpt lat="44.79439762929838" lon="7.196401524492944"><ele>1079.0</ele><time>2026-04-16T12:18:14Z</time></trkpt><trkpt lat="44.79435044341672" lon="7.196497791465133"><ele>1079.0</ele><time>2026-04-16T12:18:15Z</time></trkpt><trkpt lat="44.79431726556061" lon="7.196621391306921"><ele>1079.0</ele><time>2026-04-16T12:18:16Z</time></trkpt><trkpt lat="44.79428354671595" lon="7.196762007098292"><ele>1079.0</ele><time>2026-04-16T12:18:17Z</time></trkpt><trkpt lat="44.7942562114078" lon="7.1968917767224365"><ele>1079.0</ele><time>2026-04-16T12:18:18Z</time></trkpt><trkpt lat="44.794247425125185" lon="7.197001450913727"><ele>1071.3333333333335</ele><time>2026-04-16T12:18:19Z</time></trkpt><trkpt lat="44.794221320261805" lon="7.197094833369189"><ele>1063.6666666666667</ele><time>2026-04-16T12:18:20Z</time></trkpt><trkpt lat="44.79417366372719" lon="7.197198077151702"><ele>1056.0</ele><time>2026-04-16T12:18:21Z</time></trkpt><trkpt lat="44.79411998418737" lon="7.197289062259787"><ele>1048.3333333333333</ele><time>2026-04-16T12:18:22Z</time></trkpt><trkpt lat="44.7940671377623" lon="7.197401177666608"><ele>1040.6666666666665</ele><time>2026-04-16T12:18:23Z</time></trkpt><trkpt lat="44.79402580505828" lon="7.19751617107454"><ele>1033.0</ele><time>2026-04-16T12:18:24Z</time></trkpt><trkpt lat="44.79399434772178" lon="7.197652323209385"><ele>1033.0</ele><time>2026-04-16T12:18:25.001Z</time></trkpt><trkpt lat="44.793963301976326" lon="7.197790135265376"><ele>1033.0</ele><time>2026-04-16T12:18:26.001Z</time></trkpt><trkpt lat="44.79392858394476" lon="7.197938171726862"><ele>1033.0</ele><time>2026-04-16T12:18:27.001Z</time></trkpt><trkpt lat="44.79389022960613" lon="7.198079271782112"><ele>1033.0</ele><time>2026-04-16T12:18:28.001Z</time></trkpt><trkpt lat="44.79387122577058" lon="7.198204464333422"><ele>1033.0</ele><time>2026-04-16T12:18:29.001Z</time></trkpt><trkpt lat="44.793852369933234" lon="7.1983273491700075"><ele>1033.0</ele><time>2026-04-16T12:18:30.001Z</time></trkpt><trkpt lat="44.793831527651605" lon="7.198430346197493"><ele>1033.0</ele><time>2026-04-16T12:18:31.001Z</time></trkpt><trkpt lat="44.793831344775136" lon="7.198524350510766"><ele>1033.0</ele><time>2026-04-16T12:18:32.001Z</time></trkpt><trkpt lat="44.793847171567556" lon="7.198682384819016"><ele>1033.0</ele><time>2026-04-16T12:18:34.001Z</time></trkpt><trkpt lat="44.79383929919431" lon="7.198810531649702"><ele>1033.0</ele><time>2026-04-16T12:18:36.001Z</time></trkpt><trkpt lat="44.79378760464545" lon="7.1988850682096635"><ele>1033.0</ele><time>2026-04-16T12:18:39.001Z</time></trkpt><trkpt lat="44.793738822921426" lon="7.198800634991417"><ele>1033.0</ele><time>2026-04-16T12:18:40.001Z</time></trkpt><trkpt lat="44.79377137224065" lon="7.1986839006355305"><ele>1033.0</ele><time>2026-04-16T12:18:41.001Z</time></trkpt><trkpt lat="44.79375529182762" lon="7.198564767487543"><ele>1033.0</ele><time>2026-04-16T12:18:42.001Z</time></trkpt><trkpt lat="44.79373188297521" lon="7.198431070329514"><ele>1033.0</ele><time>2026-04-16T12:18:43.001Z</time></trkpt><trkpt lat="44.79370628132868" lon="7.198279274885026"><ele>1033.0</ele><time>2026-04-16T12:18:44.001Z</time></trkpt><trkpt lat="44.79368322558009" lon="7.198129475172505"><ele>1033.0</ele><time>2026-04-16T12:18:45.001Z</time></trkpt><trkpt lat="44.793662846411515" lon="7.197961012099967"><ele>1033.0</ele><time>2026-04-16T12:18:46.001Z</time></trkpt><trkpt lat="44.79364487190069" lon="7.19779861168571"><ele>1033.0</ele><time>2026-04-16T12:18:47.001Z</time></trkpt><trkpt lat="44.79362687777421" lon="7.197636033767223"><ele>1033.0</ele><time>2026-04-16T12:18:48.001Z</time></trkpt><trkpt lat="44.79360868967893" lon="7.197473551793963"><ele>1032.8</ele><time>2026-04-16T12:18:49.001Z</time></trkpt><trkpt lat="44.79359085418152" lon="7.1973259135086805"><ele>1032.6</ele><time>2026-04-16T12:18:50.001Z</time></trkpt><trkpt lat="44.79357376617473" lon="7.197188398855669"><ele>1032.4</ele><time>2026-04-16T12:18:51.001Z</time></trkpt><trkpt lat="44.793557971731815" lon="7.197070292745178"><ele>1032.2</ele><time>2026-04-16T12:18:52.001Z</time></trkpt><trkpt lat="44.79354395948556" lon="7.196967710996118"><ele>1032.0</ele><time>2026-04-16T12:18:53.001Z</time></trkpt><trkpt lat="44.79352030046489" lon="7.1968344536691635"><ele>1032.0</ele><time>2026-04-16T12:18:55.001Z</time></trkpt><trkpt lat="44.79351393046961" lon="7.196746136363057"><ele>1032.0</ele><time>2026-04-16T12:18:59.001Z</time></trkpt><trkpt lat="44.79343145881596" lon="7.196891311279969"><ele>1032.0</ele><time>2026-04-16T12:19:04.001Z</time></trkpt><trkpt lat="44.79342680119341" lon="7.196984327563095"><ele>1032.0</ele><time>2026-04-16T12:19:05.001Z</time></trkpt><trkpt lat="44.793423529289306" lon="7.197103167706457"><ele>1032.0</ele><time>2026-04-16T12:19:06.001Z</time></trkpt><trkpt lat="44.79342184854295" lon="7.19723561160306"><ele>1032.0</ele><time>2026-04-16T12:19:07.001Z</time></trkpt><trkpt lat="44.79343346884858" lon="7.1973549974507804"><ele>1023.2</ele><time>2026-04-16T12:19:08.001Z</time></trkpt><trkpt lat="44.79342569045618" lon="7.19749174312275"><ele>1014.4000000000001</ele><time>2026-04-16T12:19:09.001Z</time></trkpt><trkpt lat="44.793412593553256" lon="7.197641239987524"><ele>1005.5999999999999</ele><time>2026-04-16T12:19:10.001Z</time></trkpt><trkpt lat="44.79339558826206" lon="7.197775571838421"><ele>996.8</ele><time>2026-04-16T12:19:11.001Z</time></trkpt><trkpt lat="44.79336241877214" lon="7.197903439433922"><ele>988.0</ele><time>2026-04-16T12:19:12.001Z</time></trkpt><trkpt lat="44.793333391888495" lon="7.198018785897187"><ele>987.9999999999999</ele><time>2026-04-16T12:19:13.001Z</time></trkpt><trkpt lat="44.793295973092725" lon="7.198100264251135"><ele>988.0</ele><time>2026-04-16T12:19:14.001Z</time></trkpt><trkpt lat="44.79323621772861" lon="7.198163422267132"><ele>988.0</ele><time>2026-04-16T12:19:15.001Z</time></trkpt><trkpt lat="44.79319571785209" lon="7.19825045289529"><ele>988.0</ele><time>2026-04-16T12:19:16.001Z</time></trkpt><trkpt lat="44.79316147131409" lon="7.198336090905023"><ele>987.9999999999999</ele><time>2026-04-16T12:19:17.001Z</time></trkpt><trkpt lat="44.79314451039368" lon="7.198440420321356"><ele>988.0</ele><time>2026-04-16T12:19:18.001Z</time></trkpt><trkpt lat="44.79312984586572" lon="7.198587441080994"><ele>987.8</ele><time>2026-04-16T12:19:19.001Z</time></trkpt><trkpt lat="44.793107261111594" lon="7.198731929426499"><ele>987.5999999999999</ele><time>2026-04-16T12:19:20.001Z</time></trkpt><trkpt lat="44.79307547280489" lon="7.198863913910263"><ele>987.4000000000001</ele><time>2026-04-16T12:19:21.001Z</time></trkpt><trkpt lat="44.79303402568396" lon="7.198985278317003"><ele>987.2</ele><time>2026-04-16T12:19:22.001Z</time></trkpt><trkpt lat="44.79298909916489" lon="7.199119374777715"><ele>987.0</ele><time>2026-04-16T12:19:23.001Z</time></trkpt><trkpt lat="44.792950341927046" lon="7.199236248896546"><ele>987.6666666666666</ele><time>2026-04-16T12:19:24.001Z</time></trkpt><trkpt lat="44.79291719986667" lon="7.199364772880289"><ele>988.3333333333333</ele><time>2026-04-16T12:19:25.001Z</time></trkpt><trkpt lat="44.79286572473671" lon="7.19944829540026"><ele>989.0</ele><time>2026-04-16T12:19:26.001Z</time></trkpt><trkpt lat="44.79283288075427" lon="7.199524954220098"><ele>989.6666666666666</ele><time>2026-04-16T12:19:27.001Z</time></trkpt><trkpt lat="44.792790044890275" lon="7.199590135500687"><ele>990.3333333333333</ele><time>2026-04-16T12:19:29Z</time></trkpt><trkpt lat="44.79284252430954" lon="7.199463140341066"><ele>991.0</ele><time>2026-04-16T12:19:33Z</time></trkpt><trkpt lat="44.79278641962096" lon="7.199235944408166"><ele>991.0</ele><time>2026-04-16T12:19:36Z</time></trkpt><trkpt lat="44.79269282754283" lon="7.199183877501222"><ele>990.9999999999999</ele><time>2026-04-16T12:19:38Z</time></trkpt><trkpt lat="44.79262553472278" lon="7.1991274441590845"><ele>990.9999999999999</ele><time>2026-04-16T12:19:40Z</time></trkpt><trkpt lat="44.79260827971687" lon="7.1989658604129145"><ele>991.0</ele><time>2026-04-16T12:19:43Z</time></trkpt><trkpt lat="44.79261965841925" lon="7.198846809432471"><ele>991.0</ele><time>2026-04-16T12:19:45Z</time></trkpt><trkpt lat="44.79260650589672" lon="7.198728425274449"><ele>983.1999999999999</ele><time>2026-04-16T12:19:47Z</time></trkpt><trkpt lat="44.79260533439318" lon="7.198586074263048"><ele>975.3999999999999</ele><time>2026-04-16T12:19:49Z</time></trkpt><trkpt lat="44.79260540266067" lon="7.198419805229652"><ele>967.6</ele><time>2026-04-16T12:19:51Z</time></trkpt><trkpt lat="44.79258887463416" lon="7.198260861165284"><ele>959.8</ele><time>2026-04-16T12:19:53Z</time></trkpt><trkpt lat="44.79255591335227" lon="7.198135188580568"><ele>952.0</ele><time>2026-04-16T12:19:55Z</time></trkpt><trkpt lat="44.79251689241201" lon="7.198036161922244"><ele>952.0</ele><time>2026-04-16T12:19:58Z</time></trkpt><trkpt lat="44.79242407505022" lon="7.198107684400666"><ele>952.0</ele><time>2026-04-16T12:20:02Z</time></trkpt><trkpt lat="44.792427124373155" lon="7.19828532406874"><ele>952.0</ele><time>2026-04-16T12:20:04Z</time></trkpt><trkpt lat="44.792427491677095" lon="7.198388795980841"><ele>952.0</ele><time>2026-04-16T12:20:05Z</time></trkpt><trkpt lat="44.79235443137326" lon="7.1984744266504865"><ele>952.0</ele><time>2026-04-16T12:20:06Z</time></trkpt><trkpt lat="44.79234103024705" lon="7.198561195893256"><ele>952.0</ele><time>2026-04-16T12:20:07Z</time></trkpt><trkpt lat="44.79229170250167" lon="7.198691089590878"><ele>952.0</ele><time>2026-04-16T12:20:09Z</time></trkpt><trkpt lat="44.79218889696775" lon="7.198821484350087"><ele>952.0</ele><time>2026-04-16T12:20:11Z</time></trkpt><trkpt lat="44.792137255078586" lon="7.198939003645211"><ele>952.0</ele><time>2026-04-16T12:20:12Z</time></trkpt><trkpt lat="44.79209266465547" lon="7.199067668610669"><ele>952.0</ele><time>2026-04-16T12:20:13Z</time></trkpt><trkpt lat="44.792051120622055" lon="7.199190406969401"><ele>952.4000000000001</ele><time>2026-04-16T12:20:14Z</time></trkpt><trkpt lat="44.79201754688945" lon="7.199325864965872"><ele>952.8000000000001</ele><time>2026-04-16T12:20:15Z</time></trkpt><trkpt lat="44.79197570478808" lon="7.1994544368148805"><ele>953.2</ele><time>2026-04-16T12:20:16Z</time></trkpt><trkpt lat="44.79192030464932" lon="7.199595913874907"><ele>953.6</ele><time>2026-04-16T12:20:17Z</time></trkpt><trkpt lat="44.79186454488817" lon="7.199735089847621"><ele>954.0</ele><time>2026-04-16T12:20:18Z</time></trkpt><trkpt lat="44.79181771038307" lon="7.1998520472847165"><ele>948.6</ele><time>2026-04-16T12:20:19Z</time></trkpt><trkpt lat="44.7917713806391" lon="7.199969441019628"><ele>943.2</ele><time>2026-04-16T12:20:20Z</time></trkpt><trkpt lat="44.79172420427155" lon="7.200088979963998"><ele>937.8000000000001</ele><time>2026-04-16T12:20:21Z</time></trkpt><trkpt lat="44.79168052902031" lon="7.200199647415721"><ele>932.4000000000001</ele><time>2026-04-16T12:20:22Z</time></trkpt><trkpt lat="44.79163748413558" lon="7.200309533954768"><ele>927.0</ele><time>2026-04-16T12:20:23Z</time></trkpt><trkpt lat="44.791598209066265" lon="7.200416578972727"><ele>927.0</ele><time>2026-04-16T12:20:24Z</time></trkpt><trkpt lat="44.791561484915434" lon="7.200532433017093"><ele>927.0</ele><time>2026-04-16T12:20:25Z</time></trkpt><trkpt lat="44.79152846381276" lon="7.200655146289548"><ele>927.0</ele><time>2026-04-16T12:20:26Z</time></trkpt><trkpt lat="44.79149140978164" lon="7.200777910852911"><ele>927.0</ele><time>2026-04-16T12:20:27Z</time></trkpt><trkpt lat="44.7914586191646" lon="7.200869644191663"><ele>927.0</ele><time>2026-04-16T12:20:28Z</time></trkpt><trkpt lat="44.79138346600267" lon="7.200948975826468"><ele>927.0</ele><time>2026-04-16T12:20:30Z</time></trkpt><trkpt lat="44.79135631580761" lon="7.200765456197951"><ele>927.0</ele><time>2026-04-16T12:20:33Z</time></trkpt><trkpt lat="44.791399413674604" lon="7.200662557011798"><ele>927.0</ele><time>2026-04-16T12:20:34Z</time></trkpt><trkpt lat="44.79142654356346" lon="7.200510890052028"><ele>927.0</ele><time>2026-04-16T12:20:35Z</time></trkpt><trkpt lat="44.79145375484986" lon="7.200333453397437"><ele>927.0</ele><time>2026-04-16T12:20:36Z</time></trkpt><trkpt lat="44.79143624051142" lon="7.200142631425186"><ele>927.0</ele><time>2026-04-16T12:20:37.001Z</time></trkpt><trkpt lat="44.79144240374954" lon="7.199964185584125"><ele>927.0</ele><time>2026-04-16T12:20:38.001Z</time></trkpt><trkpt lat="44.791440070487184" lon="7.199792587702953"><ele>927.0</ele><time>2026-04-16T12:20:39.001Z</time></trkpt><trkpt lat="44.79143999838425" lon="7.199621334355383"><ele>927.0</ele><time>2026-04-16T12:20:40.001Z</time></trkpt><trkpt lat="44.79144007263599" lon="7.199465644806793"><ele>926.8333333333334</ele><time>2026-04-16T12:20:41.001Z</time></trkpt><trkpt lat="44.79143677033144" lon="7.199340027567212"><ele>926.6666666666667</ele><time>2026-04-16T12:20:42.001Z</time></trkpt><trkpt lat="44.7914339572654" lon="7.199236780682155"><ele>926.5</ele><time>2026-04-16T12:20:43.001Z</time></trkpt><trkpt lat="44.79142691452389" lon="7.1991462657122245"><ele>926.3333333333334</ele><time>2026-04-16T12:20:44.001Z</time></trkpt><trkpt lat="44.79137336664783" lon="7.199050506381118"><ele>926.1666666666667</ele><time>2026-04-16T12:20:46.001Z</time></trkpt><trkpt lat="44.79127510131862" lon="7.1991147796656545"><ele>926.0</ele><time>2026-04-16T12:20:47.001Z</time></trkpt><trkpt lat="44.79128897314369" lon="7.199321925692743"><ele>926.0</ele><time>2026-04-16T12:20:49.001Z</time></trkpt><trkpt lat="44.79131425226148" lon="7.199450330714686"><ele>926.0</ele><time>2026-04-16T12:20:50.001Z</time></trkpt><trkpt lat="44.791281687648116" lon="7.199596023453023"><ele>926.0</ele><time>2026-04-16T12:20:51.001Z</time></trkpt><trkpt lat="44.791227901435164" lon="7.199754359923058"><ele>926.0</ele><time>2026-04-16T12:20:52.001Z</time></trkpt><trkpt lat="44.791161750308895" lon="7.199946401353352"><ele>926.3333333333334</ele><time>2026-04-16T12:20:53.001Z</time></trkpt><trkpt lat="44.79109210235987" lon="7.200141716859121"><ele>926.6666666666667</ele><time>2026-04-16T12:20:54.001Z</time></trkpt><trkpt lat="44.79102434591291" lon="7.200345027510255"><ele>927.0</ele><time>2026-04-16T12:20:55.001Z</time></trkpt><trkpt lat="44.79097875184078" lon="7.200535278727392"><ele>921.4000000000001</ele><time>2026-04-16T12:20:56.001Z</time></trkpt><trkpt lat="44.790921264577" lon="7.200686000852361"><ele>915.8000000000001</ele><time>2026-04-16T12:20:57.001Z</time></trkpt><trkpt lat="44.79088886266645" lon="7.200823286261465"><ele>910.2</ele><time>2026-04-16T12:20:58.001Z</time></trkpt><trkpt lat="44.79090116861242" lon="7.200942991016883"><ele>904.6</ele><time>2026-04-16T12:20:59.001Z</time></trkpt><trkpt lat="44.790849754590525" lon="7.201087579285981"><ele>899.0</ele><time>2026-04-16T12:21:01.001Z</time></trkpt><trkpt lat="44.790778035776356" lon="7.201113211028164"><ele>899.0</ele><time>2026-04-16T12:21:03.001Z</time></trkpt><trkpt lat="44.79072401273264" lon="7.200962852506096"><ele>899.0000000000001</ele><time>2026-04-16T12:21:04.001Z</time></trkpt><trkpt lat="44.790730171333344" lon="7.2008643038774816"><ele>899.0000000000001</ele><time>2026-04-16T12:21:05.001Z</time></trkpt><trkpt lat="44.79077019352475" lon="7.200716075798012"><ele>899.0</ele><time>2026-04-16T12:21:06.001Z</time></trkpt><trkpt lat="44.790774650363744" lon="7.2005375297738015"><ele>899.0</ele><time>2026-04-16T12:21:07.001Z</time></trkpt><trkpt lat="44.79080065786586" lon="7.2003422427515735"><ele>897.8000000000001</ele><time>2026-04-16T12:21:08.001Z</time></trkpt><trkpt lat="44.790814494242966" lon="7.200159043034538"><ele>896.6000000000001</ele><time>2026-04-16T12:21:09.001Z</time></trkpt><trkpt lat="44.79083061322512" lon="7.199998867210172"><ele>895.4</ele><time>2026-04-16T12:21:10.001Z</time></trkpt><trkpt lat="44.790844403421026" lon="7.199860641961313"><ele>894.2</ele><time>2026-04-16T12:21:11.001Z</time></trkpt><trkpt lat="44.79085320767807" lon="7.19975619833011"><ele>893.0</ele><time>2026-04-16T12:21:12.001Z</time></trkpt><trkpt lat="44.79084621247313" lon="7.199665520507984"><ele>893.0</ele><time>2026-04-16T12:21:13.001Z</time></trkpt><trkpt lat="44.79072765972426" lon="7.1996185544573095"><ele>893.0</ele><time>2026-04-16T12:21:15.001Z</time></trkpt><trkpt lat="44.79065985002177" lon="7.199673824849791"><ele>893.0</ele><time>2026-04-16T12:21:16.001Z</time></trkpt><trkpt lat="44.790636754152736" lon="7.199806495203628"><ele>893.0</ele><time>2026-04-16T12:21:17.001Z</time></trkpt><trkpt lat="44.790636051360785" lon="7.199978034280382"><ele>893.0</ele><time>2026-04-16T12:21:18.001Z</time></trkpt><trkpt lat="44.79059735049068" lon="7.200164348544088"><ele>893.0</ele><time>2026-04-16T12:21:19.001Z</time></trkpt><trkpt lat="44.79054165218527" lon="7.200360546021627"><ele>893.0</ele><time>2026-04-16T12:21:20.001Z</time></trkpt><trkpt lat="44.79047830445949" lon="7.200566212168661"><ele>893.0</ele><time>2026-04-16T12:21:21.001Z</time></trkpt><trkpt lat="44.79043340402874" lon="7.200733029426285"><ele>893.0</ele><time>2026-04-16T12:21:22.001Z</time></trkpt><trkpt lat="44.79037574123457" lon="7.200871229372187"><ele>894.2</ele><time>2026-04-16T12:21:23.001Z</time></trkpt><trkpt lat="44.79034616278283" lon="7.201023502471232"><ele>895.4</ele><time>2026-04-16T12:21:24.001Z</time></trkpt><trkpt lat="44.790366187611255" lon="7.201151285657019"><ele>896.6000000000001</ele><time>2026-04-16T12:21:25.001Z</time></trkpt><trkpt lat="44.790358840477026" lon="7.201244473246493"><ele>897.8000000000001</ele><time>2026-04-16T12:21:26.001Z</time></trkpt><trkpt lat="44.79024186977668" lon="7.201209027822461"><ele>899.0</ele><time>2026-04-16T12:21:29.001Z</time></trkpt><trkpt lat="44.79023021518658" lon="7.201119939697563"><ele>899.0</ele><time>2026-04-16T12:21:30.001Z</time></trkpt><trkpt lat="44.79025300460971" lon="7.200996247625594"><ele>899.0</ele><time>2026-04-16T12:21:31.001Z</time></trkpt><trkpt lat="44.79027799749804" lon="7.2008457520583855"><ele>899.0</ele><time>2026-04-16T12:21:32.001Z</time></trkpt><trkpt lat="44.79030441389514" lon="7.200654863801734"><ele>899.0</ele><time>2026-04-16T12:21:33.001Z</time></trkpt><trkpt lat="44.790316273701286" lon="7.20044340921461"><ele>897.0</ele><time>2026-04-16T12:21:34Z</time></trkpt><trkpt lat="44.79032135399298" lon="7.200217653599242"><ele>895.0</ele><time>2026-04-16T12:21:35Z</time></trkpt><trkpt lat="44.79032488142032" lon="7.19995273177731"><ele>893.0</ele><time>2026-04-16T12:21:36Z</time></trkpt><trkpt lat="44.79032525071223" lon="7.1997148798804"><ele>892.75</ele><time>2026-04-16T12:21:37Z</time></trkpt><trkpt lat="44.79032063641351" lon="7.199499819714487"><ele>892.5</ele><time>2026-04-16T12:21:38Z</time></trkpt><trkpt lat="44.79031996909117" lon="7.199301245355556"><ele>892.25</ele><time>2026-04-16T12:21:39Z</time></trkpt><trkpt lat="44.79031414037021" lon="7.199129292986362"><ele>892.0</ele><time>2026-04-16T12:21:40Z</time></trkpt><trkpt lat="44.790317015127656" lon="7.198962731053486"><ele>892.8333333333333</ele><time>2026-04-16T12:21:41Z</time></trkpt><trkpt lat="44.79034778936756" lon="7.198806164936843"><ele>893.6666666666666</ele><time>2026-04-16T12:21:42Z</time></trkpt><trkpt lat="44.790382056944836" lon="7.198676105637207"><ele>894.5</ele><time>2026-04-16T12:21:43Z</time></trkpt><trkpt lat="44.79040626630796" lon="7.198572277499207"><ele>895.3333333333333</ele><time>2026-04-16T12:21:44Z</time></trkpt><trkpt lat="44.79039834157734" lon="7.19847496502166"><ele>896.1666666666666</ele><time>2026-04-16T12:21:45Z</time></trkpt><trkpt lat="44.7903481334712" lon="7.198402074449435"><ele>897.0</ele><time>2026-04-16T12:21:46Z</time></trkpt><trkpt lat="44.790196291946785" lon="7.198376958555953"><ele>892.0</ele><time>2026-04-16T12:21:48Z</time></trkpt><trkpt lat="44.79010409280698" lon="7.1985169351539255"><ele>887.0</ele><time>2026-04-16T12:21:49Z</time></trkpt><trkpt lat="44.789977144478385" lon="7.198611952278619"><ele>882.0</ele><time>2026-04-16T12:21:50Z</time></trkpt><trkpt lat="44.78982246027696" lon="7.198638458750376"><ele>877.0</ele><time>2026-04-16T12:21:51Z</time></trkpt><trkpt lat="44.78965505737382" lon="7.198658753846947"><ele>877.0</ele><time>2026-04-16T12:21:52Z</time></trkpt><trkpt lat="44.789474081273724" lon="7.198671406027166"><ele>877.0</ele><time>2026-04-16T12:21:53Z</time></trkpt><trkpt lat="44.78929469289913" lon="7.198694386398001"><ele>877.0</ele><time>2026-04-16T12:21:54Z</time></trkpt><trkpt lat="44.78913204258946" lon="7.1986630152845725"><ele>875.3333333333333</ele><time>2026-04-16T12:21:55Z</time></trkpt><trkpt lat="44.7889789596452" lon="7.198654383459178"><ele>873.6666666666667</ele><time>2026-04-16T12:21:56Z</time></trkpt><trkpt lat="44.78882328404397" lon="7.198574557620789"><ele>872.0</ele><time>2026-04-16T12:21:57Z</time></trkpt><trkpt lat="44.788678925855805" lon="7.198497330161768"><ele>872.0</ele><time>2026-04-16T12:21:58Z</time></trkpt><trkpt lat="44.78854132571352" lon="7.198445014535037"><ele>872.0</ele><time>2026-04-16T12:21:59Z</time></trkpt><trkpt lat="44.78837179666503" lon="7.198446015639658"><ele>872.0</ele><time>2026-04-16T12:22:00Z</time></trkpt><trkpt lat="44.788201448020786" lon="7.198463911565503"><ele>871.25</ele><time>2026-04-16T12:22:01Z</time></trkpt><trkpt lat="44.788037497064444" lon="7.198506311601892"><ele>870.5</ele><time>2026-04-16T12:22:02Z</time></trkpt><trkpt lat="44.787911921335294" lon="7.198514504663311"><ele>869.75</ele><time>2026-04-16T12:22:03Z</time></trkpt><trkpt lat="44.78778087686218" lon="7.198461773388142"><ele>869.0</ele><time>2026-04-16T12:22:04Z</time></trkpt><trkpt lat="44.7876368771839" lon="7.19837189154371"><ele>862.75</ele><time>2026-04-16T12:22:05Z</time></trkpt><trkpt lat="44.787505888616735" lon="7.198255801592801"><ele>856.5</ele><time>2026-04-16T12:22:06Z</time></trkpt><trkpt lat="44.78740808425454" lon="7.198163106016421"><ele>850.25</ele><time>2026-04-16T12:22:07Z</time></trkpt><trkpt lat="44.787324160575885" lon="7.198074345008505"><ele>844.0</ele><time>2026-04-16T12:22:08Z</time></trkpt><trkpt lat="44.78726610160148" lon="7.197954131591503"><ele>844.0</ele><time>2026-04-16T12:22:09Z</time></trkpt><trkpt lat="44.787226332276504" lon="7.1978456825850445"><ele>844.0</ele><time>2026-04-16T12:22:10Z</time></trkpt><trkpt lat="44.78711851839128" lon="7.197793447501841"><ele>844.0</ele><time>2026-04-16T12:22:12Z</time></trkpt><trkpt lat="44.78706174363235" lon="7.197840936819224"><ele>844.0</ele><time>2026-04-16T12:22:13Z</time></trkpt><trkpt lat="44.78704220522917" lon="7.197953114403844"><ele>844.0</ele><time>2026-04-16T12:22:14Z</time></trkpt><trkpt lat="44.78710186250686" lon="7.198077088916978"><ele>843.5</ele><time>2026-04-16T12:22:15Z</time></trkpt><trkpt lat="44.78718127259179" lon="7.198206419443835"><ele>843.0</ele><time>2026-04-16T12:22:16Z</time></trkpt><trkpt lat="44.78729027497258" lon="7.198337081718873"><ele>842.5</ele><time>2026-04-16T12:22:17Z</time></trkpt><trkpt lat="44.787439017580695" lon="7.198458463091044"><ele>842.0</ele><time>2026-04-16T12:22:18Z</time></trkpt><trkpt lat="44.787600732962765" lon="7.1985899101592485"><ele>851.0</ele><time>2026-04-16T12:22:19Z</time></trkpt><trkpt lat="44.78777446694486" lon="7.198749549304732"><ele>860.0</ele><time>2026-04-16T12:22:20Z</time></trkpt><trkpt lat="44.787962256349644" lon="7.198872800935113"><ele>869.0</ele><time>2026-04-16T12:22:21Z</time></trkpt><trkpt lat="44.78816466247671" lon="7.1989910555749335"><ele>861.3333333333334</ele><time>2026-04-16T12:22:22Z</time></trkpt><trkpt lat="44.78834591852346" lon="7.199113820022297"><ele>853.6666666666667</ele><time>2026-04-16T12:22:23Z</time></trkpt><trkpt lat="44.78851898064488" lon="7.1992414422723625"><ele>846.0</ele><time>2026-04-16T12:22:24Z</time></trkpt><trkpt lat="44.78868132739916" lon="7.1993606077913075"><ele>846.0</ele><time>2026-04-16T12:22:25Z</time></trkpt><trkpt lat="44.78882474620818" lon="7.199451421783064"><ele>846.0</ele><time>2026-04-16T12:22:26Z</time></trkpt><trkpt lat="44.78890463651577" lon="7.199504455553969"><ele>846.0</ele><time>2026-04-16T12:22:27Z</time></trkpt><trkpt lat="44.7889913882422" lon="7.199565340141639"><ele>846.0</ele><time>2026-04-16T12:22:28Z</time></trkpt><trkpt lat="44.78902929889126" lon="7.199658801872671"><ele>846.0</ele><time>2026-04-16T12:22:29Z</time></trkpt><trkpt lat="44.788980478721186" lon="7.199819803431156"><ele>842.0</ele><time>2026-04-16T12:22:31.001Z</time></trkpt><trkpt lat="44.788929061930425" lon="7.199913760024113"><ele>838.0</ele><time>2026-04-16T12:22:32.001Z</time></trkpt><trkpt lat="44.78884825415885" lon="7.200055133638813"><ele>834.0</ele><time>2026-04-16T12:22:33.001Z</time></trkpt><trkpt lat="44.78876676587165" lon="7.2002330839220265"><ele>830.0</ele><time>2026-04-16T12:22:34.001Z</time></trkpt><trkpt lat="44.788703232044156" lon="7.200457400140187"><ele>831.0</ele><time>2026-04-16T12:22:35.001Z</time></trkpt><trkpt lat="44.78866764354784" lon="7.200668613822642"><ele>832.0</ele><time>2026-04-16T12:22:36.001Z</time></trkpt><trkpt lat="44.78863525258198" lon="7.200847940273653"><ele>833.0</ele><time>2026-04-16T12:22:37.001Z</time></trkpt><trkpt lat="44.788583151728155" lon="7.201013329543087"><ele>834.0</ele><time>2026-04-16T12:22:38.001Z</time></trkpt><trkpt lat="44.788512767027385" lon="7.201166577821869"><ele>828.8333333333334</ele><time>2026-04-16T12:22:39.001Z</time></trkpt><trkpt lat="44.78844747246832" lon="7.201286161037323"><ele>823.6666666666667</ele><time>2026-04-16T12:22:40.001Z</time></trkpt><trkpt lat="44.78839119687663" lon="7.201380494790321"><ele>818.5</ele><time>2026-04-16T12:22:41.001Z</time></trkpt><trkpt lat="44.78833957493664" lon="7.201456555760718"><ele>813.3333333333334</ele><time>2026-04-16T12:22:42.001Z</time></trkpt><trkpt lat="44.78827132697298" lon="7.2014867673724625"><ele>808.1666666666667</ele><time>2026-04-16T12:22:44.001Z</time></trkpt><trkpt lat="44.78826177732715" lon="7.201369839269544"><ele>803.0</ele><time>2026-04-16T12:22:46.001Z</time></trkpt><trkpt lat="44.788306127067536" lon="7.201295970702586"><ele>803.0000000000001</ele><time>2026-04-16T12:22:47.001Z</time></trkpt><trkpt lat="44.78836095127223" lon="7.20120186481393"><ele>803.0</ele><time>2026-04-16T12:22:48.001Z</time></trkpt><trkpt lat="44.78837372004916" lon="7.201073258624508"><ele>803.0</ele><time>2026-04-16T12:22:49.001Z</time></trkpt><trkpt lat="44.78837706697983" lon="7.2009645695759845"><ele>803.0</ele><time>2026-04-16T12:22:50.001Z</time></trkpt><trkpt lat="44.78833007956334" lon="7.2008713206102914"><ele>803.0000000000001</ele><time>2026-04-16T12:22:51.001Z</time></trkpt><trkpt lat="44.78823750174476" lon="7.200784323353978"><ele>803.0</ele><time>2026-04-16T12:22:52.001Z</time></trkpt><trkpt lat="44.78811943312929" lon="7.2006915961964735"><ele>803.5999999999999</ele><time>2026-04-16T12:22:53.001Z</time></trkpt><trkpt lat="44.78800575375972" lon="7.2005470951032295"><ele>804.1999999999999</ele><time>2026-04-16T12:22:55.001Z</time></trkpt><trkpt lat="44.78800238755598" lon="7.200445208240196"><ele>804.8</ele><time>2026-04-16T12:22:56.001Z</time></trkpt><trkpt lat="44.78801327140177" lon="7.200329921510554"><ele>805.4</ele><time>2026-04-16T12:22:57.001Z</time></trkpt><trkpt lat="44.788039674679545" lon="7.200198453736922"><ele>806.0</ele><time>2026-04-16T12:22:58.001Z</time></trkpt><trkpt lat="44.78807710731309" lon="7.200045536301685"><ele>806.0000000000001</ele><time>2026-04-16T12:22:59.001Z</time></trkpt><trkpt lat="44.788081658261504" lon="7.199899913441747"><ele>806.0</ele><time>2026-04-16T12:23:00.001Z</time></trkpt><trkpt lat="44.78807628035444" lon="7.199792386143852"><ele>806.0</ele><time>2026-04-16T12:23:01.001Z</time></trkpt><trkpt lat="44.78801836441551" lon="7.199640244942047"><ele>806.0</ele><time>2026-04-16T12:23:03.001Z</time></trkpt><trkpt lat="44.78795827372882" lon="7.199603075632128"><ele>806.0000000000001</ele><time>2026-04-16T12:23:04.001Z</time></trkpt><trkpt lat="44.787900603503196" lon="7.199542377576618"><ele>806.0</ele><time>2026-04-16T12:23:05.001Z</time></trkpt><trkpt lat="44.78781649058086" lon="7.19952762319388"><ele>806.5999999999999</ele><time>2026-04-16T12:23:06.001Z</time></trkpt><trkpt lat="44.787724158765805" lon="7.199539953938206"><ele>807.2</ele><time>2026-04-16T12:23:07.001Z</time></trkpt><trkpt lat="44.78761428597819" lon="7.199505457654904"><ele>807.8</ele><time>2026-04-16T12:23:08.001Z</time></trkpt><trkpt lat="44.78749931289206" lon="7.19947609736151"><ele>808.4000000000001</ele><time>2026-04-16T12:23:09.001Z</time></trkpt><trkpt lat="44.787408414049914" lon="7.199411583769992"><ele>809.0</ele><time>2026-04-16T12:23:10.001Z</time></trkpt><trkpt lat="44.787320891105765" lon="7.199330703519692"><ele>809.0</ele><time>2026-04-16T12:23:11.001Z</time></trkpt><trkpt lat="44.787226437064064" lon="7.199246091615568"><ele>809.0</ele><time>2026-04-16T12:23:12.001Z</time></trkpt><trkpt lat="44.78713713785498" lon="7.199165665828619"><ele>809.0</ele><time>2026-04-16T12:23:13.001Z</time></trkpt><trkpt lat="44.787037243482615" lon="7.199073848930709"><ele>809.0</ele><time>2026-04-16T12:23:14.001Z</time></trkpt><trkpt lat="44.78694675343015" lon="7.198987665004764"><ele>809.0</ele><time>2026-04-16T12:23:15.001Z</time></trkpt><trkpt lat="44.78687720573059" lon="7.198933924721138"><ele>809.0</ele><time>2026-04-16T12:23:16.001Z</time></trkpt><trkpt lat="44.78677402867295" lon="7.198892144260259"><ele>809.0</ele><time>2026-04-16T12:23:18.001Z</time></trkpt><trkpt lat="44.78670441675833" lon="7.198936873778838"><ele>809.0</ele><time>2026-04-16T12:23:20.001Z</time></trkpt><trkpt lat="44.786754777133964" lon="7.19911868411942"><ele>809.0</ele><time>2026-04-16T12:23:21.001Z</time></trkpt><trkpt lat="44.78686202982016" lon="7.199216997351814"><ele>809.0</ele><time>2026-04-16T12:23:22.001Z</time></trkpt><trkpt lat="44.7869624362608" lon="7.199321935200975"><ele>809.0</ele><time>2026-04-16T12:23:23.001Z</time></trkpt><trkpt lat="44.787086820471025" lon="7.1994533647280905"><ele>809.0</ele><time>2026-04-16T12:23:24.001Z</time></trkpt><trkpt lat="44.78720822847511" lon="7.199585287778835"><ele>809.0</ele><time>2026-04-16T12:23:25.001Z</time></trkpt><trkpt lat="44.787297372709496" lon="7.199698029714938"><ele>809.0</ele><time>2026-04-16T12:23:26.001Z</time></trkpt><trkpt lat="44.78737326208186" lon="7.1998208518008795"><ele>809.0</ele><time>2026-04-16T12:23:27.001Z</time></trkpt><trkpt lat="44.78742540386857" lon="7.1999429239976545"><ele>809.0</ele><time>2026-04-16T12:23:28.001Z</time></trkpt><trkpt lat="44.78738763015735" lon="7.200090402681457"><ele>809.0</ele><time>2026-04-16T12:23:29.001Z</time></trkpt><trkpt lat="44.78742574872529" lon="7.200305044524107"><ele>799.3333333333334</ele><time>2026-04-16T12:23:30.001Z</time></trkpt><trkpt lat="44.7874774021897" lon="7.200576578222811"><ele>789.6666666666667</ele><time>2026-04-16T12:23:31.001Z</time></trkpt><trkpt lat="44.78756531824261" lon="7.200855703874525"><ele>780.0</ele><time>2026-04-16T12:23:32.001Z</time></trkpt><trkpt lat="44.787642731209246" lon="7.2011231172059444"><ele>785.3333333333333</ele><time>2026-04-16T12:23:33.001Z</time></trkpt><trkpt lat="44.787709554135034" lon="7.2013550426007304"><ele>790.6666666666666</ele><time>2026-04-16T12:23:34.001Z</time></trkpt><trkpt lat="44.78775788649395" lon="7.20155287261273"><ele>796.0</ele><time>2026-04-16T12:23:35.001Z</time></trkpt><trkpt lat="44.787803096735864" lon="7.201720122528654"><ele>796.0</ele><time>2026-04-16T12:23:36.001Z</time></trkpt><trkpt lat="44.78784396297937" lon="7.201873703193552"><ele>796.0</ele><time>2026-04-16T12:23:37.001Z</time></trkpt><trkpt lat="44.787896051226596" lon="7.202007650697382"><ele>796.0</ele><time>2026-04-16T12:23:38.001Z</time></trkpt><trkpt lat="44.787941752855524" lon="7.202164486191105"><ele>796.0</ele><time>2026-04-16T12:23:39.001Z</time></trkpt><trkpt lat="44.7880178208538" lon="7.202285401792317"><ele>790.9999999999999</ele><time>2026-04-16T12:23:40Z</time></trkpt><trkpt lat="44.78809419192605" lon="7.202388819136779"><ele>786.0</ele><time>2026-04-16T12:23:41Z</time></trkpt><trkpt lat="44.78816607771592" lon="7.202484037993056"><ele>781.0</ele><time>2026-04-16T12:23:42Z</time></trkpt><trkpt lat="44.78820674197111" lon="7.202568790594928"><ele>776.0</ele><time>2026-04-16T12:23:43Z</time></trkpt><trkpt lat="44.78825366435154" lon="7.2026546724503575"><ele>771.0</ele><time>2026-04-16T12:23:44Z</time></trkpt><trkpt lat="44.78830182973438" lon="7.202718332070677"><ele>766.0</ele><time>2026-04-16T12:23:45Z</time></trkpt><trkpt lat="44.788366424180985" lon="7.202770249593483"><ele>766.0</ele><time>2026-04-16T12:23:46Z</time></trkpt><trkpt lat="44.78844684529418" lon="7.2028216094080815"><ele>766.0</ele><time>2026-04-16T12:23:47Z</time></trkpt><trkpt lat="44.78852460291001" lon="7.2028882530837155"><ele>766.0</ele><time>2026-04-16T12:23:48Z</time></trkpt><trkpt lat="44.78857412439477" lon="7.202976162993676"><ele>766.0</ele><time>2026-04-16T12:23:49Z</time></trkpt><trkpt lat="44.78860392604906" lon="7.203110318808139"><ele>766.0</ele><time>2026-04-16T12:23:50Z</time></trkpt><trkpt lat="44.78861132795919" lon="7.203319341826993"><ele>770.0</ele><time>2026-04-16T12:23:51Z</time></trkpt><trkpt lat="44.7886494101414" lon="7.203557379059026"><ele>774.0</ele><time>2026-04-16T12:23:52Z</time></trkpt><trkpt lat="44.788715049754444" lon="7.203837606225072"><ele>778.0</ele><time>2026-04-16T12:23:53Z</time></trkpt><trkpt lat="44.788778176263705" lon="7.20406458447555"><ele>778.0</ele><time>2026-04-16T12:23:54Z</time></trkpt><trkpt lat="44.788809370527225" lon="7.204263906552656"><ele>778.0</ele><time>2026-04-16T12:23:55Z</time></trkpt><trkpt lat="44.788809412390144" lon="7.204462662802488"><ele>778.0</ele><time>2026-04-16T12:23:56Z</time></trkpt><trkpt lat="44.78878827709152" lon="7.204645477284798"><ele>778.0</ele><time>2026-04-16T12:23:57Z</time></trkpt><trkpt lat="44.78872518416371" lon="7.204786211494877"><ele>775.0</ele><time>2026-04-16T12:23:58Z</time></trkpt><trkpt lat="44.7886458163772" lon="7.204939130148311"><ele>772.0</ele><time>2026-04-16T12:23:59Z</time></trkpt><trkpt lat="44.78850490914331" lon="7.205118366431448"><ele>769.0</ele><time>2026-04-16T12:24:00Z</time></trkpt><trkpt lat="44.788414886810386" lon="7.2053187817933635"><ele>757.3333333333333</ele><time>2026-04-16T12:24:01Z</time></trkpt><trkpt lat="44.78835321499394" lon="7.205547235263281"><ele>745.6666666666666</ele><time>2026-04-16T12:24:02Z</time></trkpt><trkpt lat="44.78832578321848" lon="7.205765752682694"><ele>734.0</ele><time>2026-04-16T12:24:03Z</time></trkpt><trkpt lat="44.788311259808715" lon="7.20593584860562"><ele>734.0</ele><time>2026-04-16T12:24:04Z</time></trkpt><trkpt lat="44.78830311433954" lon="7.206086265662152"><ele>734.0</ele><time>2026-04-16T12:24:05Z</time></trkpt><trkpt lat="44.78833302784844" lon="7.206228254565268"><ele>734.0</ele><time>2026-04-16T12:24:06Z</time></trkpt><trkpt lat="44.788387906354025" lon="7.206366563119593"><ele>734.0</ele><time>2026-04-16T12:24:07Z</time></trkpt><trkpt lat="44.78847475957837" lon="7.206484165025207"><ele>734.0</ele><time>2026-04-16T12:24:08Z</time></trkpt><trkpt lat="44.78858837127069" lon="7.206563621359958"><ele>739.75</ele><time>2026-04-16T12:24:09Z</time></trkpt><trkpt lat="44.78871664460379" lon="7.206597466036154"><ele>745.5</ele><time>2026-04-16T12:24:10Z</time></trkpt><trkpt lat="44.78884733553803" lon="7.206627321241965"><ele>751.25</ele><time>2026-04-16T12:24:11Z</time></trkpt><trkpt lat="44.78894179785252" lon="7.20669425075975"><ele>757.0</ele><time>2026-04-16T12:24:12Z</time></trkpt><trkpt lat="44.78895073198218" lon="7.2068361490444435"><ele>757.0</ele><time>2026-04-16T12:24:13Z</time></trkpt><trkpt lat="44.78901023644913" lon="7.206982305127241"><ele>757.0</ele><time>2026-04-16T12:24:14Z</time></trkpt><trkpt lat="44.78910226366955" lon="7.2071833971883965"><ele>757.0</ele><time>2026-04-16T12:24:15Z</time></trkpt><trkpt lat="44.7892096458464" lon="7.207421527044442"><ele>756.6666666666667</ele><time>2026-04-16T12:24:16Z</time></trkpt><trkpt lat="44.78931585231837" lon="7.207614881324883"><ele>756.3333333333334</ele><time>2026-04-16T12:24:17Z</time></trkpt><trkpt lat="44.78938703779018" lon="7.2078023242220794"><ele>756.0</ele><time>2026-04-16T12:24:18Z</time></trkpt><trkpt lat="44.78949973943578" lon="7.207933776433015"><ele>756.0</ele><time>2026-04-16T12:24:19Z</time></trkpt><trkpt lat="44.78963773589343" lon="7.208088728196865"><ele>756.0</ele><time>2026-04-16T12:24:20Z</time></trkpt><trkpt lat="44.78977898714352" lon="7.208226514331432"><ele>756.0</ele><time>2026-04-16T12:24:21Z</time></trkpt><trkpt lat="44.78989143469056" lon="7.208337991747388"><ele>753.8</ele><time>2026-04-16T12:24:22Z</time></trkpt><trkpt lat="44.78997923485398" lon="7.208480157652417"><ele>751.5999999999999</ele><time>2026-04-16T12:24:23Z</time></trkpt><trkpt lat="44.790063243768465" lon="7.208570496191786"><ele>749.4</ele><time>2026-04-16T12:24:24Z</time></trkpt><trkpt lat="44.79015381068549" lon="7.208628397445692"><ele>747.2</ele><time>2026-04-16T12:24:25Z</time></trkpt><trkpt lat="44.79024879030114" lon="7.208663433379001"><ele>745.0</ele><time>2026-04-16T12:24:26Z</time></trkpt><trkpt lat="44.79035590973929" lon="7.2086301662433785"><ele>745.0</ele><time>2026-04-16T12:24:27.001Z</time></trkpt><trkpt lat="44.79042898430989" lon="7.208752146956073"><ele>745.0</ele><time>2026-04-16T12:24:29.001Z</time></trkpt><trkpt lat="44.79043345224654" lon="7.208890816757888"><ele>745.0</ele><time>2026-04-16T12:24:30.001Z</time></trkpt><trkpt lat="44.79043239704541" lon="7.209084407821418"><ele>745.0</ele><time>2026-04-16T12:24:31.001Z</time></trkpt><trkpt lat="44.79042647435661" lon="7.209315372204063"><ele>737.0</ele><time>2026-04-16T12:24:32.001Z</time></trkpt><trkpt lat="44.790404669407444" lon="7.209575456218197"><ele>729.0</ele><time>2026-04-16T12:24:33.001Z</time></trkpt><trkpt lat="44.790371837629465" lon="7.209796071135164"><ele>721.0</ele><time>2026-04-16T12:24:34.001Z</time></trkpt><trkpt lat="44.79033531940889" lon="7.20997037216489"><ele>718.3333333333334</ele><time>2026-04-16T12:24:35.001Z</time></trkpt><trkpt lat="44.790303984184085" lon="7.210095189919016"><ele>715.6666666666667</ele><time>2026-04-16T12:24:36.001Z</time></trkpt><trkpt lat="44.79027693503722" lon="7.21020088664685"><ele>713.0</ele><time>2026-04-16T12:24:37.001Z</time></trkpt><trkpt lat="44.79020088382275" lon="7.210288569612815"><ele>710.3333333333334</ele><time>2026-04-16T12:24:39.001Z</time></trkpt><trkpt lat="44.790129692402466" lon="7.210224155568625"><ele>707.6666666666666</ele><time>2026-04-16T12:24:41.001Z</time></trkpt><trkpt lat="44.79010095337845" lon="7.210129133265183"><ele>705.0</ele><time>2026-04-16T12:24:42.001Z</time></trkpt><trkpt lat="44.79010763059421" lon="7.2099979372814476"><ele>709.0</ele><time>2026-04-16T12:24:43.001Z</time></trkpt><trkpt lat="44.79014184805412" lon="7.2098578449260575"><ele>713.0</ele><time>2026-04-16T12:24:44.001Z</time></trkpt><trkpt lat="44.79021926515206" lon="7.209663070513381"><ele>717.0</ele><time>2026-04-16T12:24:45.001Z</time></trkpt><trkpt lat="44.79027324182765" lon="7.209487578318581"><ele>721.0</ele><time>2026-04-16T12:24:46.001Z</time></trkpt><trkpt lat="44.7902951524943" lon="7.209317354561569"><ele>721.0</ele><time>2026-04-16T12:24:47.001Z</time></trkpt><trkpt lat="44.790301625580945" lon="7.209183591926923"><ele>721.0</ele><time>2026-04-16T12:24:48.001Z</time></trkpt><trkpt lat="44.790268973686906" lon="7.209070839526014"><ele>721.0</ele><time>2026-04-16T12:24:49.001Z</time></trkpt><trkpt lat="44.79019745863993" lon="7.208959403086044"><ele>721.0</ele><time>2026-04-16T12:24:50.001Z</time></trkpt><trkpt lat="44.79006135064946" lon="7.208852501431703"><ele>721.0</ele><time>2026-04-16T12:24:51.001Z</time></trkpt><trkpt lat="44.78990495659327" lon="7.2087386757618175"><ele>720.0</ele><time>2026-04-16T12:24:52.001Z</time></trkpt><trkpt lat="44.7897537364281" lon="7.208628122517194"><ele>719.0</ele><time>2026-04-16T12:24:53.001Z</time></trkpt><trkpt lat="44.78963188349225" lon="7.20853601572668"><ele>718.0</ele><time>2026-04-16T12:24:54.001Z</time></trkpt><trkpt lat="44.78953729131797" lon="7.2084775479174725"><ele>717.0</ele><time>2026-04-16T12:24:55.001Z</time></trkpt><trkpt lat="44.789486868198466" lon="7.20840934098266"><ele>717.0</ele><time>2026-04-16T12:24:56.001Z</time></trkpt><trkpt lat="44.789407121199844" lon="7.208392091095564"><ele>717.0</ele><time>2026-04-16T12:24:57.001Z</time></trkpt><trkpt lat="44.78934030115244" lon="7.208516061801109"><ele>717.0</ele><time>2026-04-16T12:24:59.001Z</time></trkpt><trkpt lat="44.78938139256771" lon="7.208601043074916"><ele>717.0</ele><time>2026-04-16T12:25:00.001Z</time></trkpt><trkpt lat="44.789450560541255" lon="7.208661982554287"><ele>717.0</ele><time>2026-04-16T12:25:01.001Z</time></trkpt><trkpt lat="44.78954330292489" lon="7.208729499632269"><ele>717.0</ele><time>2026-04-16T12:25:02.001Z</time></trkpt><trkpt lat="44.78962225889165" lon="7.208785135709625"><ele>717.0</ele><time>2026-04-16T12:25:03.001Z</time></trkpt><trkpt lat="44.78968686653255" lon="7.208860057559581"><ele>717.0</ele><time>2026-04-16T12:25:04.001Z</time></trkpt><trkpt lat="44.78971384189052" lon="7.2089527177920525"><ele>717.0</ele><time>2026-04-16T12:25:05.001Z</time></trkpt><trkpt lat="44.78968841264435" lon="7.20903541388082"><ele>717.0</ele><time>2026-04-16T12:25:06.001Z</time></trkpt><trkpt lat="44.78965338204099" lon="7.209152047421289"><ele>717.0</ele><time>2026-04-16T12:25:07.001Z</time></trkpt><trkpt lat="44.78957854672537" lon="7.2092705990897015"><ele>708.75</ele><time>2026-04-16T12:25:08.001Z</time></trkpt><trkpt lat="44.7895106996072" lon="7.209412397999058"><ele>700.5</ele><time>2026-04-16T12:25:09.001Z</time></trkpt><trkpt lat="44.78946984287886" lon="7.209606270293254"><ele>692.25</ele><time>2026-04-16T12:25:10.001Z</time></trkpt><trkpt lat="44.789446996146246" lon="7.209821095365909"><ele>684.0</ele><time>2026-04-16T12:25:11.001Z</time></trkpt><trkpt lat="44.78943173841489" lon="7.209997169843157"><ele>684.0</ele><time>2026-04-16T12:25:12.001Z</time></trkpt><trkpt lat="44.789397160924466" lon="7.2101695989307615"><ele>684.0</ele><time>2026-04-16T12:25:13.001Z</time></trkpt><trkpt lat="44.789393230788775" lon="7.210335331338781"><ele>684.0</ele><time>2026-04-16T12:25:14.001Z</time></trkpt><trkpt lat="44.78940609693169" lon="7.210507748596196"><ele>684.0</ele><time>2026-04-16T12:25:15.001Z</time></trkpt><trkpt lat="44.78943266555527" lon="7.210665955480448"><ele>680.75</ele><time>2026-04-16T12:25:16.001Z</time></trkpt><trkpt lat="44.78947764417771" lon="7.210815218919515"><ele>677.5</ele><time>2026-04-16T12:25:17.001Z</time></trkpt><trkpt lat="44.789550054521264" lon="7.210941191980836"><ele>674.25</ele><time>2026-04-16T12:25:18.001Z</time></trkpt><trkpt lat="44.78963341463223" lon="7.211049143322123"><ele>671.0</ele><time>2026-04-16T12:25:19.001Z</time></trkpt><trkpt lat="44.78972580043271" lon="7.211139325469586"><ele>671.0</ele><time>2026-04-16T12:25:20.001Z</time></trkpt><trkpt lat="44.78981358395003" lon="7.211215730017083"><ele>671.0</ele><time>2026-04-16T12:25:21.001Z</time></trkpt><trkpt lat="44.78989568327613" lon="7.211273884596626"><ele>671.0</ele><time>2026-04-16T12:25:22.001Z</time></trkpt><trkpt lat="44.78996381128935" lon="7.211321079997883"><ele>671.0</ele><time>2026-04-16T12:25:23.001Z</time></trkpt><trkpt lat="44.79002917599072" lon="7.211360697061829"><ele>671.0</ele><time>2026-04-16T12:25:24.001Z</time></trkpt><trkpt lat="44.790093784062435" lon="7.211377471852945"><ele>671.0</ele><time>2026-04-16T12:25:25.001Z</time></trkpt><trkpt lat="44.79020058366343" lon="7.21131090709835"><ele>672.5</ele><time>2026-04-16T12:25:27.001Z</time></trkpt><trkpt lat="44.79029984048292" lon="7.21123176012861"><ele>674.0</ele><time>2026-04-16T12:25:29.001Z</time></trkpt><trkpt lat="44.790361731382376" lon="7.211261536578956"><ele>675.5</ele><time>2026-04-16T12:25:30.001Z</time></trkpt><trkpt lat="44.79042351190787" lon="7.211318671317669"><ele>677.0</ele><time>2026-04-16T12:25:31.001Z</time></trkpt><trkpt lat="44.790502374092384" lon="7.211418112997108"><ele>678.5</ele><time>2026-04-16T12:25:32.001Z</time></trkpt><trkpt lat="44.79057095476905" lon="7.2114988860402125"><ele>680.0</ele><time>2026-04-16T12:25:33.001Z</time></trkpt><trkpt lat="44.79064994731187" lon="7.211573678391643"><ele>678.4</ele><time>2026-04-16T12:25:34.001Z</time></trkpt><trkpt lat="44.790732628779104" lon="7.211634197394177"><ele>676.8</ele><time>2026-04-16T12:25:35.001Z</time></trkpt><trkpt lat="44.79082191279248" lon="7.2116824411606855"><ele>675.2</ele><time>2026-04-16T12:25:36.001Z</time></trkpt><trkpt lat="44.79091763161343" lon="7.211721100809074"><ele>673.6</ele><time>2026-04-16T12:25:37.001Z</time></trkpt><trkpt lat="44.79101356234665" lon="7.211744901923547"><ele>672.0</ele><time>2026-04-16T12:25:38.001Z</time></trkpt><trkpt lat="44.79110377987922" lon="7.211768690511556"><ele>672.0</ele><time>2026-04-16T12:25:39.002Z</time></trkpt><trkpt lat="44.791198034502855" lon="7.211792928648155"><ele>672.0</ele><time>2026-04-16T12:25:40.002Z</time></trkpt><trkpt lat="44.791288164476036" lon="7.211821445385874"><ele>672.0</ele><time>2026-04-16T12:25:41.002Z</time></trkpt><trkpt lat="44.79137755693909" lon="7.2118474834928445"><ele>672.0</ele><time>2026-04-16T12:25:42.002Z</time></trkpt><trkpt lat="44.79147534442004" lon="7.211885044013794"><ele>672.0</ele><time>2026-04-16T12:25:43.002Z</time></trkpt><trkpt lat="44.79157011876541" lon="7.211934601301029"><ele>672.0</ele><time>2026-04-16T12:25:44.002Z</time></trkpt><trkpt lat="44.79165420341074" lon="7.212016953522293"><ele>672.0</ele><time>2026-04-16T12:25:45.002Z</time></trkpt><trkpt lat="44.791735637110655" lon="7.2120936155173725"><ele>672.0</ele><time>2026-04-16T12:25:46Z</time></trkpt><trkpt lat="44.791808090070475" lon="7.212178408992975"><ele>672.0</ele><time>2026-04-16T12:25:47Z</time></trkpt><trkpt lat="44.791884897950766" lon="7.212258855620728"><ele>672.0</ele><time>2026-04-16T12:25:48Z</time></trkpt><trkpt lat="44.79196020724723" lon="7.21236533811097"><ele>673.6</ele><time>2026-04-16T12:25:49Z</time></trkpt><trkpt lat="44.79202408875171" lon="7.21247704858066"><ele>675.2</ele><time>2026-04-16T12:25:50Z</time></trkpt><trkpt lat="44.792086284466706" lon="7.212577254175459"><ele>676.8</ele><time>2026-04-16T12:25:51Z</time></trkpt><trkpt lat="44.792147579996524" lon="7.212685654352314"><ele>678.4</ele><time>2026-04-16T12:25:52Z</time></trkpt><trkpt lat="44.79221106287087" lon="7.212785398065296"><ele>680.0</ele><time>2026-04-16T12:25:53Z</time></trkpt><trkpt lat="44.79225079880485" lon="7.212900961450449"><ele>680.0</ele><time>2026-04-16T12:25:54Z</time></trkpt><trkpt lat="44.79229964716182" lon="7.213003402938984"><ele>680.0</ele><time>2026-04-16T12:25:55Z</time></trkpt><trkpt lat="44.7923507567653" lon="7.213105101150739"><ele>680.0</ele><time>2026-04-16T12:25:56Z</time></trkpt><trkpt lat="44.79238728254148" lon="7.213210121988641"><ele>680.0</ele><time>2026-04-16T12:25:57Z</time></trkpt><trkpt lat="44.79240070827415" lon="7.213331756137675"><ele>680.0</ele><time>2026-04-16T12:25:58Z</time></trkpt><trkpt lat="44.79241460012625" lon="7.213455327455633"><ele>680.0</ele><time>2026-04-16T12:25:59Z</time></trkpt><trkpt lat="44.79244520692277" lon="7.213593985745094"><ele>671.4</ele><time>2026-04-16T12:26:00Z</time></trkpt><trkpt lat="44.792483924943475" lon="7.213726298230526"><ele>662.8</ele><time>2026-04-16T12:26:01Z</time></trkpt><trkpt lat="44.79252963853865" lon="7.213846725573756"><ele>654.2</ele><time>2026-04-16T12:26:02Z</time></trkpt><trkpt lat="44.79256955329688" lon="7.213958988484289"><ele>645.6</ele><time>2026-04-16T12:26:03Z</time></trkpt><trkpt lat="44.79260896586114" lon="7.214073680107734"><ele>637.0</ele><time>2026-04-16T12:26:04Z</time></trkpt><trkpt lat="44.79266851901491" lon="7.214164201803713"><ele>641.3333333333334</ele><time>2026-04-16T12:26:05Z</time></trkpt><trkpt lat="44.7927363679797" lon="7.214247311918211"><ele>645.6666666666667</ele><time>2026-04-16T12:26:06Z</time></trkpt><trkpt lat="44.79281018899051" lon="7.214310650371558"><ele>650.0</ele><time>2026-04-16T12:26:07Z</time></trkpt><trkpt lat="44.7928757442066" lon="7.214363395437624"><ele>654.3333333333334</ele><time>2026-04-16T12:26:08Z</time></trkpt><trkpt lat="44.79292254017551" lon="7.214436600531319"><ele>658.6666666666666</ele><time>2026-04-16T12:26:09Z</time></trkpt><trkpt lat="44.79294150135452" lon="7.21455587270586"><ele>663.0</ele><time>2026-04-16T12:26:10Z</time></trkpt><trkpt lat="44.792960800823" lon="7.214674725566489"><ele>663.0</ele><time>2026-04-16T12:26:11Z</time></trkpt><trkpt lat="44.79297817322102" lon="7.214789408299942"><ele>663.0</ele><time>2026-04-16T12:26:12Z</time></trkpt><trkpt lat="44.79301168480007" lon="7.214898737769487"><ele>663.0</ele><time>2026-04-16T12:26:13Z</time></trkpt><trkpt lat="44.79305130812709" lon="7.214988628092755"><ele>663.0</ele><time>2026-04-16T12:26:14Z</time></trkpt><trkpt lat="44.793092280963066" lon="7.215074733529212"><ele>663.0</ele><time>2026-04-16T12:26:15Z</time></trkpt><trkpt lat="44.79313408315106" lon="7.215161015741222"><ele>663.0</ele><time>2026-04-16T12:26:16Z</time></trkpt><trkpt lat="44.79318428903621" lon="7.215258609078131"><ele>660.2</ele><time>2026-04-16T12:26:17Z</time></trkpt><trkpt lat="44.79325213738656" lon="7.215372756137419"><ele>657.4</ele><time>2026-04-16T12:26:18Z</time></trkpt><trkpt lat="44.79332745342607" lon="7.215488888225503"><ele>654.6</ele><time>2026-04-16T12:26:19Z</time></trkpt><trkpt lat="44.793398419157164" lon="7.215595146401174"><ele>651.8000000000001</ele><time>2026-04-16T12:26:20Z</time></trkpt><trkpt lat="44.79347995903519" lon="7.21570362374773"><ele>649.0</ele><time>2026-04-16T12:26:21Z</time></trkpt><trkpt lat="44.79357234643676" lon="7.215803630283554"><ele>649.0</ele><time>2026-04-16T12:26:22Z</time></trkpt><trkpt lat="44.79365370890069" lon="7.215931608024171"><ele>649.0</ele><time>2026-04-16T12:26:23Z</time></trkpt><trkpt lat="44.793731507575075" lon="7.216045714199468"><ele>649.0</ele><time>2026-04-16T12:26:24Z</time></trkpt><trkpt lat="44.79380507728739" lon="7.216145198189167"><ele>649.0</ele><time>2026-04-16T12:26:25Z</time></trkpt><trkpt lat="44.7938733336734" lon="7.216247757664219"><ele>649.0</ele><time>2026-04-16T12:26:26Z</time></trkpt><trkpt lat="44.79393063600521" lon="7.216372364012371"><ele>644.4000000000001</ele><time>2026-04-16T12:26:27Z</time></trkpt><trkpt lat="44.793973314795984" lon="7.216535908728067"><ele>639.8000000000001</ele><time>2026-04-16T12:26:28Z</time></trkpt><trkpt lat="44.79400319611765" lon="7.2166890670295745"><ele>635.2</ele><time>2026-04-16T12:26:29Z</time></trkpt><trkpt lat="44.79401228076085" lon="7.216829718986121"><ele>630.6</ele><time>2026-04-16T12:26:30Z</time></trkpt><trkpt lat="44.79404584078592" lon="7.216958013558773"><ele>626.0</ele><time>2026-04-16T12:26:31Z</time></trkpt><trkpt lat="44.79411403207781" lon="7.217098614685485"><ele>626.0</ele><time>2026-04-16T12:26:32Z</time></trkpt><trkpt lat="44.79421873697986" lon="7.217281432851588"><ele>626.0</ele><time>2026-04-16T12:26:33Z</time></trkpt><trkpt lat="44.79434495790382" lon="7.217491875072842"><ele>626.0</ele><time>2026-04-16T12:26:34Z</time></trkpt><trkpt lat="44.79446180405032" lon="7.217726167820866"><ele>629.6666666666666</ele><time>2026-04-16T12:26:35Z</time></trkpt><trkpt lat="44.79455377665957" lon="7.217940995137398"><ele>633.3333333333334</ele><time>2026-04-16T12:26:36Z</time></trkpt><trkpt lat="44.794654356516375" lon="7.218140588642061"><ele>637.0</ele><time>2026-04-16T12:26:37Z</time></trkpt><trkpt lat="44.7947784338289" lon="7.2183362129639566"><ele>644.6666666666667</ele><time>2026-04-16T12:26:38Z</time></trkpt><trkpt lat="44.79493787860514" lon="7.218530608114766"><ele>652.3333333333334</ele><time>2026-04-16T12:26:39Z</time></trkpt><trkpt lat="44.79509239750042" lon="7.218733674501725"><ele>660.0</ele><time>2026-04-16T12:26:40Z</time></trkpt><trkpt lat="44.79522540469924" lon="7.218935867910454"><ele>649.0</ele><time>2026-04-16T12:26:41Z</time></trkpt><trkpt lat="44.795352480953014" lon="7.219142558156289"><ele>638.0</ele><time>2026-04-16T12:26:42Z</time></trkpt><trkpt lat="44.795485623504575" lon="7.219380525199305"><ele>627.0</ele><time>2026-04-16T12:26:43Z</time></trkpt><trkpt lat="44.795605199738326" lon="7.219612159130735"><ele>618.3333333333334</ele><time>2026-04-16T12:26:44Z</time></trkpt><trkpt lat="44.7956750992128" lon="7.219819647665127"><ele>609.6666666666667</ele><time>2026-04-16T12:26:45Z</time></trkpt><trkpt lat="44.79578953384459" lon="7.220084239269037"><ele>601.0</ele><time>2026-04-16T12:26:46Z</time></trkpt><trkpt lat="44.795885244686545" lon="7.220354657847325"><ele>601.0</ele><time>2026-04-16T12:26:47Z</time></trkpt><trkpt lat="44.795984867033255" lon="7.220603658584016"><ele>601.0</ele><time>2026-04-16T12:26:48Z</time></trkpt><trkpt lat="44.79610715519014" lon="7.2208536186943695"><ele>601.0</ele><time>2026-04-16T12:26:49Z</time></trkpt><trkpt lat="44.796252809417055" lon="7.22111614225098"><ele>595.5</ele><time>2026-04-16T12:26:50Z</time></trkpt><trkpt lat="44.796406715048754" lon="7.221372738965622"><ele>590.0</ele><time>2026-04-16T12:26:51Z</time></trkpt><trkpt lat="44.79655507339789" lon="7.221617445181342"><ele>590.0</ele><time>2026-04-16T12:26:52.001Z</time></trkpt><trkpt lat="44.79667588619123" lon="7.221847052762423"><ele>590.0</ele><time>2026-04-16T12:26:53.001Z</time></trkpt><trkpt lat="44.79679881660649" lon="7.222059740809598"><ele>590.0</ele><time>2026-04-16T12:26:54.001Z</time></trkpt><trkpt lat="44.796931061819585" lon="7.222248640477771"><ele>593.3333333333333</ele><time>2026-04-16T12:26:55.001Z</time></trkpt><trkpt lat="44.79704210792533" lon="7.222438351675677"><ele>596.6666666666666</ele><time>2026-04-16T12:26:56.001Z</time></trkpt><trkpt lat="44.79715345606838" lon="7.22260633964708"><ele>600.0</ele><time>2026-04-16T12:26:57.001Z</time></trkpt><trkpt lat="44.7972642224933" lon="7.2227594088437455"><ele>600.0</ele><time>2026-04-16T12:26:58.001Z</time></trkpt><trkpt lat="44.797370089449196" lon="7.22290372384567"><ele>600.0</ele><time>2026-04-16T12:26:59.001Z</time></trkpt><trkpt lat="44.79750902437173" lon="7.223024365507366"><ele>600.0</ele><time>2026-04-16T12:27:00.001Z</time></trkpt><trkpt lat="44.79762574351628" lon="7.223138671185508"><ele>596.5</ele><time>2026-04-16T12:27:01.001Z</time></trkpt><trkpt lat="44.79772785926587" lon="7.223222707078765"><ele>593.0</ele><time>2026-04-16T12:27:02.001Z</time></trkpt><trkpt lat="44.79784175611162" lon="7.223279424788987"><ele>589.5</ele><time>2026-04-16T12:27:03.001Z</time></trkpt><trkpt lat="44.79798343209465" lon="7.223307843519714"><ele>586.0</ele><time>2026-04-16T12:27:04.001Z</time></trkpt><trkpt lat="44.798144295393975" lon="7.223294547759786"><ele>586.0</ele><time>2026-04-16T12:27:05.001Z</time></trkpt><trkpt lat="44.79829224591319" lon="7.2233554490902785"><ele>586.0</ele><time>2026-04-16T12:27:06.001Z</time></trkpt><trkpt lat="44.79843239988633" lon="7.223425685241006"><ele>586.0</ele><time>2026-04-16T12:27:07.001Z</time></trkpt><trkpt lat="44.79857721445805" lon="7.2235328718483425"><ele>591.3333333333334</ele><time>2026-04-16T12:27:08.001Z</time></trkpt><trkpt lat="44.79873632064107" lon="7.22367706788854"><ele>596.6666666666666</ele><time>2026-04-16T12:27:09.001Z</time></trkpt><trkpt lat="44.79890804349127" lon="7.223857023226063"><ele>602.0</ele><time>2026-04-16T12:27:10.001Z</time></trkpt><trkpt lat="44.79910009728713" lon="7.224040747878564"><ele>595.3333333333333</ele><time>2026-04-16T12:27:11.001Z</time></trkpt><trkpt lat="44.79928450530773" lon="7.2242331285930845"><ele>588.6666666666666</ele><time>2026-04-16T12:27:12.001Z</time></trkpt><trkpt lat="44.7994614871471" lon="7.224403001615008"><ele>582.0</ele><time>2026-04-16T12:27:13.001Z</time></trkpt><trkpt lat="44.7996225529869" lon="7.224556018926685"><ele>582.0</ele><time>2026-04-16T12:27:14.001Z</time></trkpt><trkpt lat="44.79977878906179" lon="7.224701747985853"><ele>582.0</ele><time>2026-04-16T12:27:15.001Z</time></trkpt><trkpt lat="44.799910304885344" lon="7.224842220214874"><ele>582.0</ele><time>2026-04-16T12:27:16.001Z</time></trkpt><trkpt lat="44.80003411542266" lon="7.224980811647452"><ele>582.0</ele><time>2026-04-16T12:27:17.001Z</time></trkpt><trkpt lat="44.800145823468576" lon="7.225126799949783"><ele>582.0</ele><time>2026-04-16T12:27:18.001Z</time></trkpt><trkpt lat="44.800239581563325" lon="7.225288086226165"><ele>582.0</ele><time>2026-04-16T12:27:19.001Z</time></trkpt><trkpt lat="44.80032039198244" lon="7.225444798180806"><ele>582.0</ele><time>2026-04-16T12:27:20.001Z</time></trkpt><trkpt lat="44.80038653984298" lon="7.22560239486962"><ele>577.75</ele><time>2026-04-16T12:27:21.001Z</time></trkpt><trkpt lat="44.800453106150414" lon="7.225746655748311"><ele>573.5</ele><time>2026-04-16T12:27:22.001Z</time></trkpt><trkpt lat="44.80052312997498" lon="7.225884175751848"><ele>569.25</ele><time>2026-04-16T12:27:23.001Z</time></trkpt><trkpt lat="44.80056804968082" lon="7.226041773917002"><ele>565.0</ele><time>2026-04-16T12:27:24.001Z</time></trkpt><trkpt lat="44.80063486855572" lon="7.226221170505608"><ele>565.0</ele><time>2026-04-16T12:27:25.001Z</time></trkpt><trkpt lat="44.80071696316126" lon="7.226430449568318"><ele>565.0</ele><time>2026-04-16T12:27:26.001Z</time></trkpt><trkpt lat="44.800823450795065" lon="7.226655348891288"><ele>565.0</ele><time>2026-04-16T12:27:27.001Z</time></trkpt><trkpt lat="44.80091159580086" lon="7.226867473129292"><ele>562.3333333333334</ele><time>2026-04-16T12:27:28.001Z</time></trkpt><trkpt lat="44.80097476119506" lon="7.227069859686421"><ele>559.6666666666666</ele><time>2026-04-16T12:27:29.001Z</time></trkpt><trkpt lat="44.800989817545386" lon="7.227294785382826"><ele>557.0</ele><time>2026-04-16T12:27:30.001Z</time></trkpt><trkpt lat="44.80099844451238" lon="7.227537243151927"><ele>559.3333333333333</ele><time>2026-04-16T12:27:31.001Z</time></trkpt><trkpt lat="44.801022557713665" lon="7.227738738062951"><ele>561.6666666666666</ele><time>2026-04-16T12:27:32.001Z</time></trkpt><trkpt lat="44.801095863923216" lon="7.227920727238197"><ele>564.0</ele><time>2026-04-16T12:27:33.001Z</time></trkpt><trkpt lat="44.801220606785726" lon="7.228123273007948"><ele>564.0</ele><time>2026-04-16T12:27:34.001Z</time></trkpt><trkpt lat="44.80135956457912" lon="7.2282627898510725"><ele>564.0</ele><time>2026-04-16T12:27:35.001Z</time></trkpt><trkpt lat="44.80146334798272" lon="7.228429002462758"><ele>564.0</ele><time>2026-04-16T12:27:36.001Z</time></trkpt><trkpt lat="44.80152775298853" lon="7.2286161230892505"><ele>564.0</ele><time>2026-04-16T12:27:37.001Z</time></trkpt><trkpt lat="44.8015633609132" lon="7.228823162212699"><ele>564.0</ele><time>2026-04-16T12:27:38.001Z</time></trkpt><trkpt lat="44.80159294875639" lon="7.229078300484169"><ele>564.0</ele><time>2026-04-16T12:27:39.001Z</time></trkpt><trkpt lat="44.80166063850293" lon="7.22937250993168"><ele>561.5</ele><time>2026-04-16T12:27:40.001Z</time></trkpt><trkpt lat="44.80174320008174" lon="7.229668213633684"><ele>559.0</ele><time>2026-04-16T12:27:41.001Z</time></trkpt><trkpt lat="44.80184455067456" lon="7.229960326297471"><ele>563.6666666666667</ele><time>2026-04-16T12:27:42.001Z</time></trkpt><trkpt lat="44.801959879097275" lon="7.230213160663372"><ele>568.3333333333334</ele><time>2026-04-16T12:27:43.001Z</time></trkpt><trkpt lat="44.80208948459003" lon="7.230406907385034"><ele>573.0</ele><time>2026-04-16T12:27:44.001Z</time></trkpt><trkpt lat="44.802246956407565" lon="7.230593822907429"><ele>564.0</ele><time>2026-04-16T12:27:45.001Z</time></trkpt><trkpt lat="44.802397616077045" lon="7.230796174706222"><ele>555.0</ele><time>2026-04-16T12:27:46.001Z</time></trkpt><trkpt lat="44.80251950165547" lon="7.231044460226781"><ele>546.0</ele><time>2026-04-16T12:27:47.001Z</time></trkpt><trkpt lat="44.80265070626985" lon="7.231337145400098"><ele>545.0</ele><time>2026-04-16T12:27:48.001Z</time></trkpt><trkpt lat="44.802772733113365" lon="7.23162587086278"><ele>544.0</ele><time>2026-04-16T12:27:49.001Z</time></trkpt><trkpt lat="44.8028870338513" lon="7.2318868473203475"><ele>544.0</ele><time>2026-04-16T12:27:50.001Z</time></trkpt><trkpt lat="44.80299483178611" lon="7.232135395074814"><ele>544.0</ele><time>2026-04-16T12:27:51.001Z</time></trkpt><trkpt lat="44.80308851359523" lon="7.2323341570134"><ele>544.0</ele><time>2026-04-16T12:27:51.999Z</time></trkpt><trkpt lat="44.80316205881736" lon="7.232513633101316"><ele>542.6666666666667</ele><time>2026-04-16T12:27:52.999Z</time></trkpt><trkpt lat="44.803251218423384" lon="7.232686675114643"><ele>541.3333333333334</ele><time>2026-04-16T12:27:53.999Z</time></trkpt><trkpt lat="44.80333149195455" lon="7.23286426361791"><ele>540.0</ele><time>2026-04-16T12:27:54.999Z</time></trkpt><trkpt lat="44.80340263173622" lon="7.23305636634303"><ele>540.0</ele><time>2026-04-16T12:27:55.999Z</time></trkpt><trkpt lat="44.80346691493356" lon="7.233276857672782"><ele>540.0</ele><time>2026-04-16T12:27:56.999Z</time></trkpt><trkpt lat="44.80352903533742" lon="7.23352100055732"><ele>540.0</ele><time>2026-04-16T12:27:57.999Z</time></trkpt><trkpt lat="44.8035802641221" lon="7.233760911187774"><ele>547.0</ele><time>2026-04-16T12:27:58.999Z</time></trkpt><trkpt lat="44.80362068856377" lon="7.233991699096865"><ele>554.0</ele><time>2026-04-16T12:27:59.999Z</time></trkpt><trkpt lat="44.80364486064695" lon="7.23421992514096"><ele>561.0</ele><time>2026-04-16T12:28:00.999Z</time></trkpt><trkpt lat="44.803669122996375" lon="7.234444689887031"><ele>561.0</ele><time>2026-04-16T12:28:01.999Z</time></trkpt><trkpt lat="44.803699437534185" lon="7.234649040011044"><ele>561.0</ele><time>2026-04-16T12:28:02.999Z</time></trkpt><trkpt lat="44.80371986697112" lon="7.2348561002525"><ele>561.0</ele><time>2026-04-16T12:28:03.999Z</time></trkpt><trkpt lat="44.80372873728651" lon="7.235065452126796"><ele>561.0</ele><time>2026-04-16T12:28:05Z</time></trkpt><trkpt lat="44.80372878775555" lon="7.235288029020152"><ele>557.6666666666666</ele><time>2026-04-16T12:28:06Z</time></trkpt><trkpt lat="44.80372595280951" lon="7.235518718348103"><ele>554.3333333333333</ele><time>2026-04-16T12:28:07Z</time></trkpt><trkpt lat="44.80373116544929" lon="7.2357453156650005"><ele>551.0</ele><time>2026-04-16T12:28:08Z</time></trkpt><trkpt lat="44.80373367547284" lon="7.235975159892886"><ele>548.0</ele><time>2026-04-16T12:28:09Z</time></trkpt><trkpt lat="44.80373149056015" lon="7.236179700080772"><ele>545.0</ele><time>2026-04-16T12:28:10Z</time></trkpt><trkpt lat="44.80373196146205" lon="7.236376903249647"><ele>542.0</ele><time>2026-04-16T12:28:11Z</time></trkpt><trkpt lat="44.80373038118621" lon="7.236568967365171"><ele>539.0</ele><time>2026-04-16T12:28:12Z</time></trkpt><trkpt lat="44.80372179177458" lon="7.236758714125953"><ele>535.6666666666666</ele><time>2026-04-16T12:28:13Z</time></trkpt><trkpt lat="44.803697501895755" lon="7.236960929472478"><ele>532.3333333333334</ele><time>2026-04-16T12:28:14Z</time></trkpt><trkpt lat="44.80366589918432" lon="7.237168267209143"><ele>529.0</ele><time>2026-04-16T12:28:15Z</time></trkpt><trkpt lat="44.80363968697355" lon="7.237390111860689"><ele>529.0</ele><time>2026-04-16T12:28:16Z</time></trkpt><trkpt lat="44.80362475617817" lon="7.237606175991608"><ele>529.0</ele><time>2026-04-16T12:28:17Z</time></trkpt><trkpt lat="44.803610654599375" lon="7.237808766214429"><ele>529.0</ele><time>2026-04-16T12:28:18Z</time></trkpt><trkpt lat="44.80359577880367" lon="7.238013019031288"><ele>529.0</ele><time>2026-04-16T12:28:19Z</time></trkpt><trkpt lat="44.803587475596345" lon="7.238208679173723"><ele>528.5</ele><time>2026-04-16T12:28:20Z</time></trkpt><trkpt lat="44.80357689792175" lon="7.238406322208143"><ele>528.0</ele><time>2026-04-16T12:28:21Z</time></trkpt><trkpt lat="44.803570463783615" lon="7.238590883795462"><ele>527.5</ele><time>2026-04-16T12:28:22Z</time></trkpt><trkpt lat="44.80358412564822" lon="7.238770641567131"><ele>527.0</ele><time>2026-04-16T12:28:23Z</time></trkpt><trkpt lat="44.80361352535323" lon="7.238959290672263"><ele>525.3333333333333</ele><time>2026-04-16T12:28:24Z</time></trkpt><trkpt lat="44.8036785960707" lon="7.2391646955716"><ele>523.6666666666666</ele><time>2026-04-16T12:28:25Z</time></trkpt><trkpt lat="44.80375296359825" lon="7.239370149068487"><ele>522.0</ele><time>2026-04-16T12:28:26Z</time></trkpt><trkpt lat="44.80385168064283" lon="7.239572829568664"><ele>522.0</ele><time>2026-04-16T12:28:27Z</time></trkpt><trkpt lat="44.80396015978424" lon="7.239759024234888"><ele>522.0</ele><time>2026-04-16T12:28:28Z</time></trkpt><trkpt lat="44.80407211230465" lon="7.239930596197356"><ele>522.0</ele><time>2026-04-16T12:28:29Z</time></trkpt><trkpt lat="44.804181814020595" lon="7.240078158519871"><ele>519.3333333333334</ele><time>2026-04-16T12:28:30Z</time></trkpt><trkpt lat="44.8042904821067" lon="7.240235391327066"><ele>516.6666666666667</ele><time>2026-04-16T12:28:31Z</time></trkpt><trkpt lat="44.804388288052834" lon="7.240416340134135"><ele>514.0</ele><time>2026-04-16T12:28:32Z</time></trkpt><trkpt lat="44.80442973843259" lon="7.240626870176292"><ele>523.6666666666667</ele><time>2026-04-16T12:28:33Z</time></trkpt><trkpt lat="44.80448996313856" lon="7.24085876154092"><ele>533.3333333333334</ele><time>2026-04-16T12:28:34Z</time></trkpt><trkpt lat="44.804586782592835" lon="7.241085297183461"><ele>543.0</ele><time>2026-04-16T12:28:35Z</time></trkpt><trkpt lat="44.80467700592481" lon="7.241303936900758"><ele>537.3333333333334</ele><time>2026-04-16T12:28:36Z</time></trkpt><trkpt lat="44.804770084406" lon="7.241494518336933"><ele>531.6666666666667</ele><time>2026-04-16T12:28:37Z</time></trkpt><trkpt lat="44.8048533574069" lon="7.241672483442922"><ele>526.0</ele><time>2026-04-16T12:28:38Z</time></trkpt><trkpt lat="44.80491865972436" lon="7.241853690773778"><ele>526.0</ele><time>2026-04-16T12:28:39Z</time></trkpt><trkpt lat="44.80495340306531" lon="7.242038785888259"><ele>526.0</ele><time>2026-04-16T12:28:40Z</time></trkpt><trkpt lat="44.8050023772183" lon="7.242187271527691"><ele>526.0</ele><time>2026-04-16T12:28:41Z</time></trkpt><trkpt lat="44.80503047962368" lon="7.24231808716242"><ele>526.0</ele><time>2026-04-16T12:28:42Z</time></trkpt><trkpt lat="44.80505703743958" lon="7.242419886859921"><ele>526.0</ele><time>2026-04-16T12:28:43Z</time></trkpt><trkpt lat="44.80507563806079" lon="7.242505561398278"><ele>522.4</ele><time>2026-04-16T12:28:44Z</time></trkpt><trkpt lat="44.80508424223764" lon="7.24267284765331"><ele>518.8</ele><time>2026-04-16T12:28:46Z</time></trkpt><trkpt lat="44.80505947696293" lon="7.242852973892785"><ele>515.1999999999999</ele><time>2026-04-16T12:28:48Z</time></trkpt><trkpt lat="44.80506314141599" lon="7.242950795932353"><ele>511.59999999999997</ele><time>2026-04-16T12:28:49Z</time></trkpt><trkpt lat="44.80507012270504" lon="7.24305851612641"><ele>508.0</ele><time>2026-04-16T12:28:50Z</time></trkpt><trkpt lat="44.80508679887563" lon="7.243193744382679"><ele>505.75</ele><time>2026-04-16T12:28:51Z</time></trkpt><trkpt lat="44.80508857509919" lon="7.24336510162941"><ele>503.5</ele><time>2026-04-16T12:28:52Z</time></trkpt><trkpt lat="44.80507676478631" lon="7.2435552619029115"><ele>501.25</ele><time>2026-04-16T12:28:53.001Z</time></trkpt><trkpt lat="44.8050529522268" lon="7.243785901068686"><ele>499.0</ele><time>2026-04-16T12:28:54.001Z</time></trkpt><trkpt lat="44.80501625948287" lon="7.24403554016622"><ele>497.33333333333337</ele><time>2026-04-16T12:28:55.001Z</time></trkpt><trkpt lat="44.804961094116926" lon="7.244275700588795"><ele>495.66666666666663</ele><time>2026-04-16T12:28:56.001Z</time></trkpt><trkpt lat="44.80488222906227" lon="7.244514202060281"><ele>494.0</ele><time>2026-04-16T12:28:57.001Z</time></trkpt><trkpt lat="44.80478437791366" lon="7.24475607692675"><ele>493.3333333333333</ele><time>2026-04-16T12:28:58.001Z</time></trkpt><trkpt lat="44.804666709955214" lon="7.245003674077266"><ele>492.66666666666663</ele><time>2026-04-16T12:28:59.001Z</time></trkpt><trkpt lat="44.80454481771784" lon="7.245239318212974"><ele>492.0</ele><time>2026-04-16T12:29:00.001Z</time></trkpt><trkpt lat="44.804439644617524" lon="7.24544880775928"><ele>491.66666666666663</ele><time>2026-04-16T12:29:01.001Z</time></trkpt><trkpt lat="44.80434720714291" lon="7.245639811878999"><ele>491.3333333333333</ele><time>2026-04-16T12:29:02.001Z</time></trkpt><trkpt lat="44.80425865923549" lon="7.245826193277326"><ele>491.0</ele><time>2026-04-16T12:29:03.001Z</time></trkpt><trkpt lat="44.8041796074385" lon="7.245999671920999"><ele>491.0</ele><time>2026-04-16T12:29:04.001Z</time></trkpt><trkpt lat="44.80411747837277" lon="7.246162671024331"><ele>491.0</ele><time>2026-04-16T12:29:05.001Z</time></trkpt><trkpt lat="44.80407893422457" lon="7.246345034689669"><ele>491.0</ele><time>2026-04-16T12:29:06.001Z</time></trkpt><trkpt lat="44.80406523744213" lon="7.246549936607348"><ele>491.0</ele><time>2026-04-16T12:29:07.001Z</time></trkpt><trkpt lat="44.80408773390334" lon="7.246767704189997"><ele>491.0</ele><time>2026-04-16T12:29:08.001Z</time></trkpt><trkpt lat="44.80414918905841" lon="7.24697949478662"><ele>491.0</ele><time>2026-04-16T12:29:09.001Z</time></trkpt><trkpt lat="44.80423358620537" lon="7.247171188835688"><ele>491.0</ele><time>2026-04-16T12:29:10.001Z</time></trkpt><trkpt lat="44.80434494533639" lon="7.247345936420632"><ele>486.66666666666663</ele><time>2026-04-16T12:29:11.001Z</time></trkpt><trkpt lat="44.8044658887619" lon="7.247513500398287"><ele>482.33333333333337</ele><time>2026-04-16T12:29:12.001Z</time></trkpt><trkpt lat="44.80456743718984" lon="7.247672436776545"><ele>478.0</ele><time>2026-04-16T12:29:13.001Z</time></trkpt><trkpt lat="44.80465868438325" lon="7.247822541864106"><ele>478.0</ele><time>2026-04-16T12:29:14.001Z</time></trkpt><trkpt lat="44.80474198148891" lon="7.247981246543216"><ele>478.0</ele><time>2026-04-16T12:29:15.001Z</time></trkpt><trkpt lat="44.80482454924732" lon="7.248140113961295"><ele>478.0</ele><time>2026-04-16T12:29:16.001Z</time></trkpt><trkpt lat="44.80490430881315" lon="7.248286181096685"><ele>478.0</ele><time>2026-04-16T12:29:17.001Z</time></trkpt><trkpt lat="44.80498720192689" lon="7.248451008274695"><ele>479.0</ele><time>2026-04-16T12:29:18.001Z</time></trkpt><trkpt lat="44.80507527858467" lon="7.248634034928005"><ele>480.0</ele><time>2026-04-16T12:29:19.001Z</time></trkpt><trkpt lat="44.805125084111815" lon="7.24886564222389"><ele>481.0</ele><time>2026-04-16T12:29:20.001Z</time></trkpt><trkpt lat="44.80519263170658" lon="7.249105880582614"><ele>473.5</ele><time>2026-04-16T12:29:21.001Z</time></trkpt><trkpt lat="44.80527354708535" lon="7.249394959192234"><ele>466.0</ele><time>2026-04-16T12:29:22.001Z</time></trkpt><trkpt lat="44.80536081618909" lon="7.2497079873014965"><ele>465.5</ele><time>2026-04-16T12:29:23.001Z</time></trkpt><trkpt lat="44.80545343087377" lon="7.250047823373949"><ele>465.0</ele><time>2026-04-16T12:29:24.001Z</time></trkpt><trkpt lat="44.805551594843" lon="7.250400097131932"><ele>467.5</ele><time>2026-04-16T12:29:25.001Z</time></trkpt><trkpt lat="44.80567093619047" lon="7.250741526591589"><ele>470.0</ele><time>2026-04-16T12:29:26.001Z</time></trkpt><trkpt lat="44.805767110610596" lon="7.251069676956583"><ele>470.0</ele><time>2026-04-16T12:29:27.001Z</time></trkpt><trkpt lat="44.80584281442458" lon="7.251356897329471"><ele>470.0</ele><time>2026-04-16T12:29:28.001Z</time></trkpt><trkpt lat="44.80589966104548" lon="7.251618296694393"><ele>470.0</ele><time>2026-04-16T12:29:29.001Z</time></trkpt><trkpt lat="44.80592515558563" lon="7.251866104918672"><ele>471.3333333333333</ele><time>2026-04-16T12:29:30.001Z</time></trkpt><trkpt lat="44.80589767274629" lon="7.252132742853918"><ele>472.66666666666663</ele><time>2026-04-16T12:29:31.001Z</time></trkpt><trkpt lat="44.80587117304412" lon="7.252426309706503"><ele>474.0</ele><time>2026-04-16T12:29:32.001Z</time></trkpt><trkpt lat="44.80584374733557" lon="7.252735497235647"><ele>474.0</ele><time>2026-04-16T12:29:33.001Z</time></trkpt><trkpt lat="44.80583610547908" lon="7.253082032765954"><ele>474.0</ele><time>2026-04-16T12:29:34.001Z</time></trkpt><trkpt lat="44.80583360570741" lon="7.253376658148655"><ele>474.0</ele><time>2026-04-16T12:29:35.001Z</time></trkpt><trkpt lat="44.80582217885187" lon="7.2536602198833915"><ele>474.0</ele><time>2026-04-16T12:29:36.001Z</time></trkpt><trkpt lat="44.80583544586829" lon="7.253913400622626"><ele>474.0</ele><time>2026-04-16T12:29:37.001Z</time></trkpt><trkpt lat="44.80582259372126" lon="7.25413321711019"><ele>475.0</ele><time>2026-04-16T12:29:38.001Z</time></trkpt><trkpt lat="44.80580842445779" lon="7.254330557091648"><ele>476.0</ele><time>2026-04-16T12:29:39.001Z</time></trkpt><trkpt lat="44.80579035951114" lon="7.254515160732893"><ele>477.0</ele><time>2026-04-16T12:29:40.001Z</time></trkpt><trkpt lat="44.80575890186604" lon="7.254667468781285"><ele>478.0</ele><time>2026-04-16T12:29:41.001Z</time></trkpt><trkpt lat="44.805712622591706" lon="7.2548251687490595"><ele>479.0</ele><time>2026-04-16T12:29:42.001Z</time></trkpt><trkpt lat="44.805656451170464" lon="7.254975420751758"><ele>479.99999999999994</ele><time>2026-04-16T12:29:43.001Z</time></trkpt><trkpt lat="44.80559062338241" lon="7.255105168108112"><ele>480.99999999999994</ele><time>2026-04-16T12:29:44.001Z</time></trkpt><trkpt lat="44.80551199686529" lon="7.255203482679875"><ele>482.0</ele><time>2026-04-16T12:29:45.001Z</time></trkpt><trkpt lat="44.8054487425087" lon="7.2553016703217565"><ele>483.0</ele><time>2026-04-16T12:29:46.001Z</time></trkpt><trkpt lat="44.80540000080804" lon="7.255390940023578"><ele>483.0</ele><time>2026-04-16T12:29:47.001Z</time></trkpt><trkpt lat="44.80532911661761" lon="7.255440412820257"><ele>483.0</ele><time>2026-04-16T12:29:48.001Z</time></trkpt><trkpt lat="44.80526484004048" lon="7.25549571572201"><ele>483.0</ele><time>2026-04-16T12:29:49.001Z</time></trkpt><trkpt lat="44.80519736235016" lon="7.255545918739003"><ele>483.0</ele><time>2026-04-16T12:29:50.001Z</time></trkpt><trkpt lat="44.805136225001824" lon="7.255588701530877"><ele>483.0</ele><time>2026-04-16T12:29:51.001Z</time></trkpt><trkpt lat="44.80502718241454" lon="7.255663758777284"><ele>483.0</ele><time>2026-04-16T12:29:53.001Z</time></trkpt><trkpt lat="44.80496631497906" lon="7.255704372059792"><ele>483.8333333333333</ele><time>2026-04-16T12:29:54.002Z</time></trkpt><trkpt lat="44.80487794395425" lon="7.255751521270993"><ele>484.66666666666663</ele><time>2026-04-16T12:29:56.002Z</time></trkpt><trkpt lat="44.804785065852826" lon="7.255778120366059"><ele>485.5</ele><time>2026-04-16T12:29:57.999Z</time></trkpt><trkpt lat="44.80469597700195" lon="7.255758385009148"><ele>486.3333333333333</ele><time>2026-04-16T12:30:00Z</time></trkpt><trkpt lat="44.80462295190936" lon="7.255729591215013"><ele>487.16666666666663</ele><time>2026-04-16T12:30:02Z</time></trkpt><trkpt lat="44.80454923179324" lon="7.25580558822124"><ele>488.0</ele><time>2026-04-16T12:30:04Z</time></trkpt><trkpt lat="44.804517140618806" lon="7.255936927494759"><ele>487.99999999999994</ele><time>2026-04-16T12:30:06Z</time></trkpt><trkpt lat="44.80454783900574" lon="7.256016923670288"><ele>488.0</ele><time>2026-04-16T12:30:07Z</time></trkpt><trkpt lat="44.80461697060959" lon="7.256168466933558"><ele>488.0</ele><time>2026-04-16T12:30:09Z</time></trkpt><trkpt lat="44.804650284706675" lon="7.2562504257897595"><ele>488.0</ele><time>2026-04-16T12:30:10Z</time></trkpt><trkpt lat="44.80468204912622" lon="7.256345136910739"><ele>487.99999999999994</ele><time>2026-04-16T12:30:11Z</time></trkpt><trkpt lat="44.80472202121184" lon="7.256462467218065"><ele>488.0</ele><time>2026-04-16T12:30:12Z</time></trkpt><trkpt lat="44.80475019970418" lon="7.256578716819238"><ele>487.25</ele><time>2026-04-16T12:30:13Z</time></trkpt><trkpt lat="44.804793951477826" lon="7.256711446350624"><ele>486.5</ele><time>2026-04-16T12:30:14Z</time></trkpt><trkpt lat="44.80484760416325" lon="7.256864248291567"><ele>485.75</ele><time>2026-04-16T12:30:15Z</time></trkpt><trkpt lat="44.8049032835969" lon="7.25702380746256"><ele>485.0</ele><time>2026-04-16T12:30:16Z</time></trkpt><trkpt lat="44.804957291402985" lon="7.257164288809196"><ele>484.25</ele><time>2026-04-16T12:30:17Z</time></trkpt><trkpt lat="44.80500444630397" lon="7.257305468295942"><ele>483.5</ele><time>2026-04-16T12:30:18Z</time></trkpt><trkpt lat="44.80505642464275" lon="7.257443081119032"><ele>482.75</ele><time>2026-04-16T12:30:19Z</time></trkpt><trkpt lat="44.80511175809737" lon="7.257594594167373"><ele>482.0</ele><time>2026-04-16T12:30:20Z</time></trkpt><trkpt lat="44.805168987046336" lon="7.257761136519035"><ele>482.0</ele><time>2026-04-16T12:30:21Z</time></trkpt><trkpt lat="44.805220208246936" lon="7.2579278130095455"><ele>482.0</ele><time>2026-04-16T12:30:22Z</time></trkpt><trkpt lat="44.805246781981694" lon="7.258106020915189"><ele>482.0</ele><time>2026-04-16T12:30:23Z</time></trkpt><trkpt lat="44.805264029703174" lon="7.258290611857708"><ele>482.0</ele><time>2026-04-16T12:30:24Z</time></trkpt><trkpt lat="44.80527838285178" lon="7.258496931642065"><ele>480.66666666666663</ele><time>2026-04-16T12:30:25Z</time></trkpt><trkpt lat="44.8052546699217" lon="7.258714873229586"><ele>479.33333333333337</ele><time>2026-04-16T12:30:26Z</time></trkpt><trkpt lat="44.80524240275237" lon="7.258967168085396"><ele>478.0</ele><time>2026-04-16T12:30:27Z</time></trkpt><trkpt lat="44.80522808998986" lon="7.259267029530304"><ele>476.0</ele><time>2026-04-16T12:30:28Z</time></trkpt><trkpt lat="44.805212167755926" lon="7.25961235297563"><ele>474.0</ele><time>2026-04-16T12:30:29Z</time></trkpt><trkpt lat="44.805200653743476" lon="7.259978552512702"><ele>472.0</ele><time>2026-04-16T12:30:30Z</time></trkpt><trkpt lat="44.80520864680283" lon="7.260356202822188"><ele>470.0</ele><time>2026-04-16T12:30:31Z</time></trkpt><trkpt lat="44.80520868844564" lon="7.260739917694878"><ele>468.5</ele><time>2026-04-16T12:30:32Z</time></trkpt><trkpt lat="44.80522468303596" lon="7.261078102279841"><ele>467.0</ele><time>2026-04-16T12:30:33Z</time></trkpt><trkpt lat="44.805245323623" lon="7.261401654487064"><ele>465.0</ele><time>2026-04-16T12:30:34Z</time></trkpt><trkpt lat="44.805276283479316" lon="7.261698377227341"><ele>463.0</ele><time>2026-04-16T12:30:35Z</time></trkpt><trkpt lat="44.80533954771544" lon="7.2619983293524655"><ele>461.0</ele><time>2026-04-16T12:30:36Z</time></trkpt><trkpt lat="44.80541103499014" lon="7.262269931968228"><ele>460.3333333333333</ele><time>2026-04-16T12:30:37Z</time></trkpt><trkpt lat="44.80547928641717" lon="7.262527836397693"><ele>459.66666666666663</ele><time>2026-04-16T12:30:38Z</time></trkpt><trkpt lat="44.805524266939514" lon="7.262805086360119"><ele>459.0</ele><time>2026-04-16T12:30:39Z</time></trkpt><trkpt lat="44.805540698499" lon="7.263070740107888"><ele>460.33333333333337</ele><time>2026-04-16T12:30:40Z</time></trkpt><trkpt lat="44.80553350238026" lon="7.263323314367078"><ele>461.6666666666667</ele><time>2026-04-16T12:30:41Z</time></trkpt><trkpt lat="44.805512349152934" lon="7.263573536833946"><ele>463.0</ele><time>2026-04-16T12:30:42Z</time></trkpt><trkpt lat="44.80547786459193" lon="7.26383124372499"><ele>464.6666666666667</ele><time>2026-04-16T12:30:43Z</time></trkpt><trkpt lat="44.80542957717325" lon="7.264111228555748"><ele>466.33333333333337</ele><time>2026-04-16T12:30:44Z</time></trkpt><trkpt lat="44.80537370320781" lon="7.264397506554711"><ele>468.0</ele><time>2026-04-16T12:30:45Z</time></trkpt><trkpt lat="44.80531791263178" lon="7.264689902466494"><ele>467.33333333333337</ele><time>2026-04-16T12:30:46.001Z</time></trkpt><trkpt lat="44.80526607412525" lon="7.264969632362211"><ele>466.6666666666667</ele><time>2026-04-16T12:30:47.001Z</time></trkpt><trkpt lat="44.80522064703307" lon="7.265221281162153"><ele>466.0</ele><time>2026-04-16T12:30:48.001Z</time></trkpt><trkpt lat="44.80518161448699" lon="7.265471226701921"><ele>469.33333333333337</ele><time>2026-04-16T12:30:49.001Z</time></trkpt><trkpt lat="44.80515499345222" lon="7.265721003469025"><ele>472.66666666666663</ele><time>2026-04-16T12:30:50.001Z</time></trkpt><trkpt lat="44.80514133680894" lon="7.265967460674678"><ele>476.0</ele><time>2026-04-16T12:30:51.001Z</time></trkpt><trkpt lat="44.805144554826654" lon="7.266227363028676"><ele>472.3333333333333</ele><time>2026-04-16T12:30:52.001Z</time></trkpt><trkpt lat="44.80516256521527" lon="7.266509057953083"><ele>468.66666666666663</ele><time>2026-04-16T12:30:53.001Z</time></trkpt><trkpt lat="44.80517776132963" lon="7.266786176094165"><ele>465.0</ele><time>2026-04-16T12:30:54.001Z</time></trkpt><trkpt lat="44.805263930955675" lon="7.2670992686048335"><ele>465.0</ele><time>2026-04-16T12:30:55.001Z</time></trkpt><trkpt lat="44.80534124868945" lon="7.2674108546858385"><ele>465.0</ele><time>2026-04-16T12:30:56.001Z</time></trkpt><trkpt lat="44.805418947578744" lon="7.267727541612481"><ele>465.0</ele><time>2026-04-16T12:30:57.001Z</time></trkpt><trkpt lat="44.80547495528131" lon="7.268054823252839"><ele>465.0</ele><time>2026-04-16T12:30:58.001Z</time></trkpt><trkpt lat="44.80552176839731" lon="7.268373243949757"><ele>463.66666666666663</ele><time>2026-04-16T12:30:59.001Z</time></trkpt><trkpt lat="44.805566338825464" lon="7.268685646483889"><ele>462.3333333333333</ele><time>2026-04-16T12:31:00.001Z</time></trkpt><trkpt lat="44.805612486179804" lon="7.268990216458063"><ele>461.0</ele><time>2026-04-16T12:31:01.001Z</time></trkpt><trkpt lat="44.805659753231474" lon="7.269277899089617"><ele>461.0</ele><time>2026-04-16T12:31:02.001Z</time></trkpt><trkpt lat="44.805703207305484" lon="7.269551389542179"><ele>461.0</ele><time>2026-04-16T12:31:03.001Z</time></trkpt><trkpt lat="44.805746343440596" lon="7.269816566465167"><ele>461.0</ele><time>2026-04-16T12:31:04.001Z</time></trkpt><trkpt lat="44.80579818194921" lon="7.270080575323149"><ele>460.0</ele><time>2026-04-16T12:31:05.001Z</time></trkpt><trkpt lat="44.80587570278175" lon="7.270350612638743"><ele>459.0</ele><time>2026-04-16T12:31:06.001Z</time></trkpt><trkpt lat="44.805980296017104" lon="7.270628560725935"><ele>458.0</ele><time>2026-04-16T12:31:07.001Z</time></trkpt><trkpt lat="44.80609475389472" lon="7.270909396341003"><ele>457.66666666666663</ele><time>2026-04-16T12:31:08.001Z</time></trkpt><trkpt lat="44.806210988079144" lon="7.271185221573975"><ele>457.33333333333337</ele><time>2026-04-16T12:31:09.001Z</time></trkpt><trkpt lat="44.806315085095996" lon="7.271437222177602"><ele>457.0</ele><time>2026-04-16T12:31:10.001Z</time></trkpt><trkpt lat="44.80639817152207" lon="7.271645194009066"><ele>457.0</ele><time>2026-04-16T12:31:11.001Z</time></trkpt><trkpt lat="44.80647018116007" lon="7.271816682419314"><ele>457.0</ele><time>2026-04-16T12:31:12.001Z</time></trkpt><trkpt lat="44.80652786086688" lon="7.271969765601311"><ele>457.0</ele><time>2026-04-16T12:31:13.001Z</time></trkpt><trkpt lat="44.80657430861042" lon="7.272119083193823"><ele>457.0</ele><time>2026-04-16T12:31:14.001Z</time></trkpt><trkpt lat="44.8066064349536" lon="7.272258223712518"><ele>456.83333333333337</ele><time>2026-04-16T12:31:15.001Z</time></trkpt><trkpt lat="44.806618238885115" lon="7.272392016145085"><ele>456.6666666666667</ele><time>2026-04-16T12:31:16.001Z</time></trkpt><trkpt lat="44.80660371654155" lon="7.272511494096037"><ele>456.5</ele><time>2026-04-16T12:31:17.001Z</time></trkpt><trkpt lat="44.80657418661037" lon="7.272636473009912"><ele>456.33333333333337</ele><time>2026-04-16T12:31:18.001Z</time></trkpt><trkpt lat="44.80654575769005" lon="7.272757926209777"><ele>456.1666666666667</ele><time>2026-04-16T12:31:19.001Z</time></trkpt><trkpt lat="44.80656473138506" lon="7.2728521648302005"><ele>456.0</ele><time>2026-04-16T12:31:20.001Z</time></trkpt><trkpt lat="44.80662173631085" lon="7.27292926901254"><ele>456.0</ele><time>2026-04-16T12:31:21.001Z</time></trkpt><trkpt lat="44.806714043719325" lon="7.27295681813834"><ele>456.0</ele><time>2026-04-16T12:31:22.001Z</time></trkpt><trkpt lat="44.80682711479951" lon="7.273009210650985"><ele>456.0</ele><time>2026-04-16T12:31:23.001Z</time></trkpt><trkpt lat="44.806950479363294" lon="7.27310861547254"><ele>456.0</ele><time>2026-04-16T12:31:24.001Z</time></trkpt><trkpt lat="44.807078926742015" lon="7.273290227468059"><ele>456.66666666666663</ele><time>2026-04-16T12:31:25.001Z</time></trkpt><trkpt lat="44.807219472898566" lon="7.273494238709158"><ele>457.3333333333333</ele><time>2026-04-16T12:31:26.001Z</time></trkpt><trkpt lat="44.80734277172684" lon="7.273674490431159"><ele>458.0</ele><time>2026-04-16T12:31:27.001Z</time></trkpt><trkpt lat="44.80744722353693" lon="7.273842487612909"><ele>457.0</ele><time>2026-04-16T12:31:28.001Z</time></trkpt><trkpt lat="44.80752128035712" lon="7.274009815078273"><ele>456.0</ele><time>2026-04-16T12:31:29.001Z</time></trkpt><trkpt lat="44.80757333061327" lon="7.274190734647134"><ele>455.0</ele><time>2026-04-16T12:31:30.001Z</time></trkpt><trkpt lat="44.807599959056404" lon="7.274385716762858"><ele>454.0</ele><time>2026-04-16T12:31:31.001Z</time></trkpt><trkpt lat="44.807592149320406" lon="7.2745977539142395"><ele>452.33333333333337</ele><time>2026-04-16T12:31:32.001Z</time></trkpt><trkpt lat="44.80756997049014" lon="7.274801632647824"><ele>450.66666666666663</ele><time>2026-04-16T12:31:33.001Z</time></trkpt><trkpt lat="44.807565640497366" lon="7.27502750938733"><ele>449.0</ele><time>2026-04-16T12:31:34.001Z</time></trkpt><trkpt lat="44.80743535865815" lon="7.27529935646467"><ele>443.5</ele><time>2026-04-16T12:31:35.001Z</time></trkpt><trkpt lat="44.80732261202539" lon="7.275616118198735"><ele>438.0</ele><time>2026-04-16T12:31:36.001Z</time></trkpt><trkpt lat="44.80720400177366" lon="7.275963452506006"><ele>438.0</ele><time>2026-04-16T12:31:37.001Z</time></trkpt><trkpt lat="44.80709397806527" lon="7.276315614049691"><ele>438.0</ele><time>2026-04-16T12:31:38.001Z</time></trkpt><trkpt lat="44.80697756216714" lon="7.276669984929701"><ele>436.66666666666663</ele><time>2026-04-16T12:31:39.001Z</time></trkpt><trkpt lat="44.806880928009456" lon="7.27697618318749"><ele>435.3333333333333</ele><time>2026-04-16T12:31:40.002Z</time></trkpt><trkpt lat="44.806802642736784" lon="7.277225434507061"><ele>434.0</ele><time>2026-04-16T12:31:41.002Z</time></trkpt><trkpt lat="44.806731387811006" lon="7.277458719612586"><ele>434.0</ele><time>2026-04-16T12:31:42.002Z</time></trkpt><trkpt lat="44.806674993984586" lon="7.277729714883761"><ele>434.0</ele><time>2026-04-16T12:31:43.002Z</time></trkpt><trkpt lat="44.80663875241363" lon="7.27804437544221"><ele>434.0</ele><time>2026-04-16T12:31:44.002Z</time></trkpt><trkpt lat="44.80662120558448" lon="7.278377440342018"><ele>431.5</ele><time>2026-04-16T12:31:45.002Z</time></trkpt><trkpt lat="44.80661343118055" lon="7.278726081471371"><ele>429.0</ele><time>2026-04-16T12:31:46.002Z</time></trkpt><trkpt lat="44.80661759038819" lon="7.279066079624247"><ele>427.66666666666663</ele><time>2026-04-16T12:31:47.002Z</time></trkpt><trkpt lat="44.806633548470316" lon="7.279376747005502"><ele>426.3333333333333</ele><time>2026-04-16T12:31:48.002Z</time></trkpt><trkpt lat="44.80665377716203" lon="7.279664621150092"><ele>425.0</ele><time>2026-04-16T12:31:49.002Z</time></trkpt><trkpt lat="44.80666702230174" lon="7.27993750960065"><ele>424.66666666666663</ele><time>2026-04-16T12:31:50.002Z</time></trkpt><trkpt lat="44.80666743557878" lon="7.280210986280884"><ele>424.33333333333337</ele><time>2026-04-16T12:31:51.002Z</time></trkpt><trkpt lat="44.806650621035296" lon="7.280487076289749"><ele>424.0</ele><time>2026-04-16T12:31:52.002Z</time></trkpt><trkpt lat="44.80661768595491" lon="7.280756433968883"><ele>423.6666666666667</ele><time>2026-04-16T12:31:53.002Z</time></trkpt><trkpt lat="44.8065776438778" lon="7.281032742473051"><ele>423.33333333333337</ele><time>2026-04-16T12:31:54.002Z</time></trkpt><trkpt lat="44.80652307026282" lon="7.281288346810038"><ele>423.0</ele><time>2026-04-16T12:31:55.002Z</time></trkpt><trkpt lat="44.80646278532538" lon="7.2815263022781505"><ele>422.33333333333337</ele><time>2026-04-16T12:31:56.002Z</time></trkpt><trkpt lat="44.806402247420955" lon="7.2817716386212155"><ele>421.6666666666667</ele><time>2026-04-16T12:31:57.002Z</time></trkpt><trkpt lat="44.80634947434499" lon="7.281996663793286"><ele>421.0</ele><time>2026-04-16T12:31:58.002Z</time></trkpt><trkpt lat="44.80631462865785" lon="7.282229526976055"><ele>421.33333333333337</ele><time>2026-04-16T12:31:59.002Z</time></trkpt><trkpt lat="44.80629888242603" lon="7.282471552711538"><ele>421.66666666666663</ele><time>2026-04-16T12:32:00.002Z</time></trkpt><trkpt lat="44.806301465443454" lon="7.282726593305647"><ele>422.0</ele><time>2026-04-16T12:32:01.002Z</time></trkpt><trkpt lat="44.80631540357792" lon="7.282964660982139"><ele>421.25</ele><time>2026-04-16T12:32:02.002Z</time></trkpt><trkpt lat="44.80633897171893" lon="7.283183710276706"><ele>420.5</ele><time>2026-04-16T12:32:03.002Z</time></trkpt><trkpt lat="44.80635928187514" lon="7.283373207645392"><ele>419.75</ele><time>2026-04-16T12:32:04Z</time></trkpt><trkpt lat="44.80637297634029" lon="7.283544553731855"><ele>419.0</ele><time>2026-04-16T12:32:05Z</time></trkpt><trkpt lat="44.806388290486666" lon="7.283726226363487"><ele>419.0</ele><time>2026-04-16T12:32:06Z</time></trkpt><trkpt lat="44.80640398622299" lon="7.283882085341846"><ele>419.0</ele><time>2026-04-16T12:32:07Z</time></trkpt><trkpt lat="44.8064165989168" lon="7.284024363833122"><ele>419.0</ele><time>2026-04-16T12:32:08Z</time></trkpt><trkpt lat="44.80641815099603" lon="7.284158096916301"><ele>419.0</ele><time>2026-04-16T12:32:09Z</time></trkpt><trkpt lat="44.80640268903417" lon="7.284302519386258"><ele>419.0</ele><time>2026-04-16T12:32:10Z</time></trkpt><trkpt lat="44.80638887250393" lon="7.284443305396449"><ele>419.0</ele><time>2026-04-16T12:32:11Z</time></trkpt><trkpt lat="44.80640222519706" lon="7.284595332411757"><ele>419.0</ele><time>2026-04-16T12:32:12Z</time></trkpt><trkpt lat="44.806417307624116" lon="7.284781596174934"><ele>419.0</ele><time>2026-04-16T12:32:13Z</time></trkpt><trkpt lat="44.8064027196456" lon="7.284992104394584"><ele>419.0</ele><time>2026-04-16T12:32:14Z</time></trkpt><trkpt lat="44.80637632665464" lon="7.285210262286309"><ele>419.0</ele><time>2026-04-16T12:32:15Z</time></trkpt><trkpt lat="44.80635583566884" lon="7.285436897120054"><ele>419.0</ele><time>2026-04-16T12:32:16Z</time></trkpt><trkpt lat="44.80633798518078" lon="7.285629171355704"><ele>419.0</ele><time>2026-04-16T12:32:17Z</time></trkpt><trkpt lat="44.806324304190504" lon="7.285784630633203"><ele>419.0</ele><time>2026-04-16T12:32:18Z</time></trkpt><trkpt lat="44.80632104235502" lon="7.285913737527013"><ele>418.66666666666663</ele><time>2026-04-16T12:32:19Z</time></trkpt><trkpt lat="44.80632410429739" lon="7.286036505056007"><ele>418.3333333333333</ele><time>2026-04-16T12:32:20Z</time></trkpt><trkpt lat="44.80632263358266" lon="7.286151596426398"><ele>418.0</ele><time>2026-04-16T12:32:21Z</time></trkpt><trkpt lat="44.8063197672815" lon="7.286253380465297"><ele>417.66666666666663</ele><time>2026-04-16T12:32:22Z</time></trkpt><trkpt lat="44.806320008173316" lon="7.286355780614181"><ele>417.3333333333333</ele><time>2026-04-16T12:32:23Z</time></trkpt><trkpt lat="44.8063240485942" lon="7.286479842417832"><ele>417.0</ele><time>2026-04-16T12:32:24Z</time></trkpt><trkpt lat="44.80632734726202" lon="7.286604828686169"><ele>416.5</ele><time>2026-04-16T12:32:25Z</time></trkpt><trkpt lat="44.80633778940233" lon="7.286740950475468"><ele>416.0</ele><time>2026-04-16T12:32:26Z</time></trkpt><trkpt lat="44.80635494097259" lon="7.2868573668135115"><ele>415.5</ele><time>2026-04-16T12:32:27Z</time></trkpt><trkpt lat="44.80636961741745" lon="7.286954005607557"><ele>415.0</ele><time>2026-04-16T12:32:28Z</time></trkpt><trkpt lat="44.806383738796626" lon="7.2870477199786166"><ele>414.5</ele><time>2026-04-16T12:32:29Z</time></trkpt><trkpt lat="44.806381003588406" lon="7.287210641484781"><ele>414.0</ele><time>2026-04-16T12:32:31Z</time></trkpt><trkpt lat="44.80633462717076" lon="7.287336498569472"><ele>413.79999999999995</ele><time>2026-04-16T12:32:33Z</time></trkpt><trkpt lat="44.80625491152662" lon="7.287418398398528"><ele>413.59999999999997</ele><time>2026-04-16T12:32:35Z</time></trkpt><trkpt lat="44.80617708594613" lon="7.287533750872825"><ele>413.4</ele><time>2026-04-16T12:32:37Z</time></trkpt><trkpt lat="44.8061781821131" lon="7.287691092761094"><ele>413.2</ele><time>2026-04-16T12:32:39Z</time></trkpt><trkpt lat="44.806261948953384" lon="7.287785385305815"><ele>413.0</ele><time>2026-04-16T12:32:41Z</time></trkpt><trkpt lat="44.80638581110645" lon="7.287741031734838"><ele>413.0</ele><time>2026-04-16T12:32:43Z</time></trkpt><trkpt lat="44.806470108122305" lon="7.287654742462532"><ele>413.0</ele><time>2026-04-16T12:32:44Z</time></trkpt><trkpt lat="44.806559431634234" lon="7.287603450001541"><ele>413.0</ele><time>2026-04-16T12:32:45Z</time></trkpt><trkpt lat="44.8066325105707" lon="7.2875460156801"><ele>413.0</ele><time>2026-04-16T12:32:46Z</time></trkpt><trkpt lat="44.806751129453396" lon="7.2875967817607785"><ele>413.0</ele><time>2026-04-16T12:32:47Z</time></trkpt><trkpt lat="44.806852994243165" lon="7.287633658062388"><ele>411.99999999999994</ele><time>2026-04-16T12:32:48Z</time></trkpt><trkpt lat="44.80693911145369" lon="7.287687393866945"><ele>411.0</ele><time>2026-04-16T12:32:49Z</time></trkpt><trkpt lat="44.80701620286514" lon="7.28773002497994"><ele>410.0</ele><time>2026-04-16T12:32:50Z</time></trkpt><trkpt lat="44.80709096017196" lon="7.28776423778818"><ele>409.0</ele><time>2026-04-16T12:32:51Z</time></trkpt><trkpt lat="44.80716935105401" lon="7.28780037469233"><ele>407.99999999999994</ele><time>2026-04-16T12:32:52Z</time></trkpt><trkpt lat="44.807247296663036" lon="7.287834717588223"><ele>407.0</ele><time>2026-04-16T12:32:53Z</time></trkpt><trkpt lat="44.80731496297933" lon="7.287866030645342"><ele>407.0</ele><time>2026-04-16T12:32:54Z</time></trkpt><trkpt lat="44.80740331028967" lon="7.287906256113451"><ele>407.0</ele><time>2026-04-16T12:32:56Z</time></trkpt><trkpt lat="44.80750271179335" lon="7.287954498160272"><ele>407.0</ele><time>2026-04-16T12:32:57.999Z</time></trkpt><trkpt lat="44.80761509300053" lon="7.288006190729684"><ele>407.0</ele><time>2026-04-16T12:32:59.999Z</time></trkpt><trkpt lat="44.807684005926504" lon="7.288028262754891"><ele>407.0</ele><time>2026-04-16T12:33:00.999Z</time></trkpt><trkpt lat="44.807765134256925" lon="7.2880509526750465"><ele>408.20000000000005</ele><time>2026-04-16T12:33:01.999Z</time></trkpt><trkpt lat="44.80785484691722" lon="7.288074092270325"><ele>409.4</ele><time>2026-04-16T12:33:02.999Z</time></trkpt><trkpt lat="44.807943842803645" lon="7.28812224396537"><ele>410.6</ele><time>2026-04-16T12:33:03.999Z</time></trkpt><trkpt lat="44.80802394940299" lon="7.288166366637771"><ele>411.79999999999995</ele><time>2026-04-16T12:33:04.999Z</time></trkpt><trkpt lat="44.80811267691835" lon="7.28822446524999"><ele>413.0</ele><time>2026-04-16T12:33:06.999Z</time></trkpt><trkpt lat="44.80820041153106" lon="7.288249295184174"><ele>413.0</ele><time>2026-04-16T12:33:10.998Z</time></trkpt><trkpt lat="44.80829098757426" lon="7.288314857509613"><ele>413.0</ele><time>2026-04-16T12:33:12.998Z</time></trkpt><trkpt lat="44.80839814721613" lon="7.288448184438785"><ele>413.0</ele><time>2026-04-16T12:33:14.998Z</time></trkpt><trkpt lat="44.808459242378206" lon="7.288539438435877"><ele>413.0</ele><time>2026-04-16T12:33:15.998Z</time></trkpt><trkpt lat="44.8085176378094" lon="7.288634948660318"><ele>413.0</ele><time>2026-04-16T12:33:16.998Z</time></trkpt><trkpt lat="44.808576279794764" lon="7.288736000546358"><ele>414.8333333333333</ele><time>2026-04-16T12:33:17.998Z</time></trkpt><trkpt lat="44.80863392879132" lon="7.28885115644688"><ele>416.66666666666663</ele><time>2026-04-16T12:33:18.998Z</time></trkpt><trkpt lat="44.80867986476208" lon="7.288969254750082"><ele>418.5</ele><time>2026-04-16T12:33:19.998Z</time></trkpt><trkpt lat="44.80871523693909" lon="7.289086958367891"><ele>420.33333333333337</ele><time>2026-04-16T12:33:20.998Z</time></trkpt><trkpt lat="44.808751625849574" lon="7.289203910438775"><ele>422.1666666666667</ele><time>2026-04-16T12:33:21.998Z</time></trkpt><trkpt lat="44.80878252062662" lon="7.289291364485372"><ele>424.0</ele><time>2026-04-16T12:33:22.998Z</time></trkpt><trkpt lat="44.80883433384628" lon="7.28940972230415"><ele>424.0</ele><time>2026-04-16T12:33:23.998Z</time></trkpt><trkpt lat="44.808876728114626" lon="7.2895029068330635"><ele>424.0</ele><time>2026-04-16T12:33:24.998Z</time></trkpt><trkpt lat="44.80892062552844" lon="7.289609695433209"><ele>424.0</ele><time>2026-04-16T12:33:25.998Z</time></trkpt><trkpt lat="44.8089561627348" lon="7.289727357189046"><ele>424.0</ele><time>2026-04-16T12:33:26.998Z</time></trkpt><trkpt lat="44.80901683580725" lon="7.289841839599755"><ele>424.0</ele><time>2026-04-16T12:33:27.998Z</time></trkpt><trkpt lat="44.8090848355442" lon="7.28996067448814"><ele>424.0</ele><time>2026-04-16T12:33:28.998Z</time></trkpt><trkpt lat="44.80915774671714" lon="7.29007757586802"><ele>424.0</ele><time>2026-04-16T12:33:29.998Z</time></trkpt><trkpt lat="44.80923603272884" lon="7.290197486973291"><ele>424.0</ele><time>2026-04-16T12:33:30.998Z</time></trkpt><trkpt lat="44.80932070498162" lon="7.290319246349285"><ele>424.0</ele><time>2026-04-16T12:33:31.998Z</time></trkpt><trkpt lat="44.80940716338512" lon="7.290436937736807"><ele>424.25</ele><time>2026-04-16T12:33:32.998Z</time></trkpt><trkpt lat="44.80949902831294" lon="7.290549748785969"><ele>424.5</ele><time>2026-04-16T12:33:33.998Z</time></trkpt><trkpt lat="44.80960116504282" lon="7.2906583111007"><ele>424.75</ele><time>2026-04-16T12:33:34.998Z</time></trkpt><trkpt lat="44.80969828183604" lon="7.290765987734322"><ele>425.0</ele><time>2026-04-16T12:33:35.998Z</time></trkpt><trkpt lat="44.80980237609761" lon="7.290876914976833"><ele>425.0</ele><time>2026-04-16T12:33:36.998Z</time></trkpt><trkpt lat="44.809904283181815" lon="7.290992034239611"><ele>425.0</ele><time>2026-04-16T12:33:37.998Z</time></trkpt><trkpt lat="44.80999931461674" lon="7.291110609613615"><ele>425.0</ele><time>2026-04-16T12:33:38.998Z</time></trkpt><trkpt lat="44.81010639962977" lon="7.2912372714760485"><ele>425.0</ele><time>2026-04-16T12:33:39.998Z</time></trkpt><trkpt lat="44.810212763366614" lon="7.291363648966436"><ele>424.5</ele><time>2026-04-16T12:33:40.998Z</time></trkpt><trkpt lat="44.81032407371792" lon="7.2914946253239235"><ele>424.0</ele><time>2026-04-16T12:33:41.998Z</time></trkpt><trkpt lat="44.810434289363364" lon="7.291630981988276"><ele>423.5</ele><time>2026-04-16T12:33:42.998Z</time></trkpt><trkpt lat="44.810546724288976" lon="7.291763442866232"><ele>423.0</ele><time>2026-04-16T12:33:43.998Z</time></trkpt><trkpt lat="44.81066253637097" lon="7.2918994858006725"><ele>423.0</ele><time>2026-04-16T12:33:44.998Z</time></trkpt><trkpt lat="44.81077810915376" lon="7.292039528690621"><ele>423.0</ele><time>2026-04-16T12:33:45.998Z</time></trkpt><trkpt lat="44.81088918175772" lon="7.292174483634444"><ele>423.0</ele><time>2026-04-16T12:33:46.998Z</time></trkpt><trkpt lat="44.81100120575382" lon="7.292310027550051"><ele>423.0</ele><time>2026-04-16T12:33:47.998Z</time></trkpt><trkpt lat="44.81110981459128" lon="7.292438937724326"><ele>422.25</ele><time>2026-04-16T12:33:48.998Z</time></trkpt><trkpt lat="44.81121106469685" lon="7.292564743777944"><ele>421.5</ele><time>2026-04-16T12:33:49.998Z</time></trkpt><trkpt lat="44.81131595001022" lon="7.292689775706581"><ele>420.75</ele><time>2026-04-16T12:33:50.998Z</time></trkpt><trkpt lat="44.81142073478088" lon="7.292816282171893"><ele>420.0</ele><time>2026-04-16T12:33:51.998Z</time></trkpt><trkpt lat="44.811515007116014" lon="7.292932759583838"><ele>420.0</ele><time>2026-04-16T12:33:52.998Z</time></trkpt><trkpt lat="44.81159927335353" lon="7.293033215078422"><ele>420.0</ele><time>2026-04-16T12:33:53.998Z</time></trkpt><trkpt lat="44.81168427399996" lon="7.293134896229182"><ele>420.0</ele><time>2026-04-16T12:33:54.998Z</time></trkpt><trkpt lat="44.811761767161" lon="7.293219946239122"><ele>420.0</ele><time>2026-04-16T12:33:55.998Z</time></trkpt><trkpt lat="44.811837674948066" lon="7.293303088672466"><ele>420.0</ele><time>2026-04-16T12:33:56.998Z</time></trkpt><trkpt lat="44.81190317163282" lon="7.293400302698095"><ele>419.5</ele><time>2026-04-16T12:33:57.998Z</time></trkpt><trkpt lat="44.811987836455884" lon="7.293500521784789"><ele>419.0</ele><time>2026-04-16T12:33:58.998Z</time></trkpt><trkpt lat="44.81208530020873" lon="7.293612815824114"><ele>418.5</ele><time>2026-04-16T12:33:59.998Z</time></trkpt><trkpt lat="44.81218759008468" lon="7.293731804707391"><ele>418.0</ele><time>2026-04-16T12:34:00.998Z</time></trkpt><trkpt lat="44.81229686656366" lon="7.293860271276414"><ele>417.6666666666667</ele><time>2026-04-16T12:34:01.998Z</time></trkpt><trkpt lat="44.81242068950679" lon="7.294005906766221"><ele>417.33333333333337</ele><time>2026-04-16T12:34:02.999Z</time></trkpt><trkpt lat="44.81256497944159" lon="7.294161668613214"><ele>417.0</ele><time>2026-04-16T12:34:03.999Z</time></trkpt><trkpt lat="44.81269183344368" lon="7.294314138109399"><ele>417.0</ele><time>2026-04-16T12:34:04.999Z</time></trkpt><trkpt lat="44.81280920349704" lon="7.294454728204287"><ele>417.0</ele><time>2026-04-16T12:34:05.999Z</time></trkpt><trkpt lat="44.812921429706094" lon="7.294583415091023"><ele>417.0</ele><time>2026-04-16T12:34:06.999Z</time></trkpt><trkpt lat="44.81304524848867" lon="7.294722981966279"><ele>416.0</ele><time>2026-04-16T12:34:07.999Z</time></trkpt><trkpt lat="44.81317152646725" lon="7.294860177198794"><ele>415.0</ele><time>2026-04-16T12:34:08.999Z</time></trkpt><trkpt lat="44.813292531073685" lon="7.294982835033887"><ele>414.0</ele><time>2026-04-16T12:34:09.996Z</time></trkpt><trkpt lat="44.813412822877474" lon="7.2950937082632"><ele>413.75</ele><time>2026-04-16T12:34:10.996Z</time></trkpt><trkpt lat="44.81352402641919" lon="7.295199650373547"><ele>413.5</ele><time>2026-04-16T12:34:11.997Z</time></trkpt><trkpt lat="44.813627623156" lon="7.2953028096159915"><ele>413.25</ele><time>2026-04-16T12:34:12.997Z</time></trkpt><trkpt lat="44.81373497187949" lon="7.2954041722662035"><ele>413.0</ele><time>2026-04-16T12:34:13.997Z</time></trkpt><trkpt lat="44.813850930639504" lon="7.295505653427603"><ele>412.79999999999995</ele><time>2026-04-16T12:34:14.997Z</time></trkpt><trkpt lat="44.813960138224914" lon="7.295605805267126"><ele>412.6</ele><time>2026-04-16T12:34:15.997Z</time></trkpt><trkpt lat="44.81405448763708" lon="7.295693950900625"><ele>412.4</ele><time>2026-04-16T12:34:16.998Z</time></trkpt><trkpt lat="44.81413375424206" lon="7.295768800202479"><ele>412.20000000000005</ele><time>2026-04-16T12:34:17.998Z</time></trkpt><trkpt lat="44.81420102351002" lon="7.295841596924562"><ele>412.0</ele><time>2026-04-16T12:34:18.998Z</time></trkpt><trkpt lat="44.81426256786948" lon="7.295935464642984"><ele>412.0</ele><time>2026-04-16T12:34:19.998Z</time></trkpt><trkpt lat="44.8143128655451" lon="7.296039503553792"><ele>412.0</ele><time>2026-04-16T12:34:20.998Z</time></trkpt><trkpt lat="44.814362771980555" lon="7.296139932651909"><ele>412.0</ele><time>2026-04-16T12:34:21.998Z</time></trkpt><trkpt lat="44.81440841320704" lon="7.296251766478818"><ele>412.0</ele><time>2026-04-16T12:34:22.998Z</time></trkpt><trkpt lat="44.81446359293451" lon="7.2963700687341495"><ele>412.0</ele><time>2026-04-16T12:34:23.998Z</time></trkpt><trkpt lat="44.81449991398269" lon="7.296538635845454"><ele>410.6666666666667</ele><time>2026-04-16T12:34:24.999Z</time></trkpt><trkpt lat="44.81452776260882" lon="7.296770114913977"><ele>409.33333333333337</ele><time>2026-04-16T12:34:25.999Z</time></trkpt><trkpt lat="44.81458754962232" lon="7.2970078448480695"><ele>408.0</ele><time>2026-04-16T12:34:26.999Z</time></trkpt><trkpt lat="44.81465298252289" lon="7.2972644485208775"><ele>407.66666666666663</ele><time>2026-04-16T12:34:27.999Z</time></trkpt><trkpt lat="44.81474808728986" lon="7.297533839856246"><ele>407.3333333333333</ele><time>2026-04-16T12:34:28.999Z</time></trkpt><trkpt lat="44.81486135638683" lon="7.29780335292802"><ele>407.0</ele><time>2026-04-16T12:34:29.999Z</time></trkpt><trkpt lat="44.81498223862203" lon="7.298090357019465"><ele>406.0</ele><time>2026-04-16T12:34:30.999Z</time></trkpt><trkpt lat="44.81509695007491" lon="7.298370075329088"><ele>405.0</ele><time>2026-04-16T12:34:31.999Z</time></trkpt><trkpt lat="44.81520562303267" lon="7.298629584072622"><ele>404.0</ele><time>2026-04-16T12:34:32.999Z</time></trkpt><trkpt lat="44.815303678134896" lon="7.298870805644683"><ele>403.66666666666663</ele><time>2026-04-16T12:34:33.999Z</time></trkpt><trkpt lat="44.815404253768115" lon="7.29909393800694"><ele>403.33333333333337</ele><time>2026-04-16T12:34:34.999Z</time></trkpt><trkpt lat="44.81550364485268" lon="7.299311131742527"><ele>403.0</ele><time>2026-04-16T12:34:35.999Z</time></trkpt><trkpt lat="44.81559582933266" lon="7.299512531915159"><ele>403.0</ele><time>2026-04-16T12:34:37Z</time></trkpt><trkpt lat="44.8156918514501" lon="7.29970040574283"><ele>403.0</ele><time>2026-04-16T12:34:38Z</time></trkpt><trkpt lat="44.81579407640951" lon="7.299888786626366"><ele>403.0</ele><time>2026-04-16T12:34:39Z</time></trkpt><trkpt lat="44.81589847623647" lon="7.300063729553936"><ele>402.75</ele><time>2026-04-16T12:34:40Z</time></trkpt><trkpt lat="44.815989005680834" lon="7.30022169271846"><ele>402.5</ele><time>2026-04-16T12:34:41Z</time></trkpt><trkpt lat="44.81607842587079" lon="7.300375499176925"><ele>402.25</ele><time>2026-04-16T12:34:42Z</time></trkpt><trkpt lat="44.81618072443242" lon="7.300530245758484"><ele>402.0</ele><time>2026-04-16T12:34:43Z</time></trkpt><trkpt lat="44.81629716897791" lon="7.300688677191226"><ele>401.0</ele><time>2026-04-16T12:34:44Z</time></trkpt><trkpt lat="44.81642725901555" lon="7.300890703127948"><ele>400.0</ele><time>2026-04-16T12:34:45Z</time></trkpt><trkpt lat="44.81655106420203" lon="7.301069791178678"><ele>399.0</ele><time>2026-04-16T12:34:46Z</time></trkpt><trkpt lat="44.816666132376625" lon="7.301239478011998"><ele>399.0</ele><time>2026-04-16T12:34:47Z</time></trkpt><trkpt lat="44.81677361093862" lon="7.301400889420728"><ele>399.0</ele><time>2026-04-16T12:34:48Z</time></trkpt><trkpt lat="44.816876300004886" lon="7.30155709030901"><ele>399.0</ele><time>2026-04-16T12:34:49Z</time></trkpt><trkpt lat="44.816985355417465" lon="7.301716476476298"><ele>398.25</ele><time>2026-04-16T12:34:50Z</time></trkpt><trkpt lat="44.817093652665115" lon="7.301867919797072"><ele>397.5</ele><time>2026-04-16T12:34:51Z</time></trkpt><trkpt lat="44.81719641822222" lon="7.302013278398279"><ele>396.75</ele><time>2026-04-16T12:34:52Z</time></trkpt><trkpt lat="44.81729590548648" lon="7.302144297268656"><ele>396.0</ele><time>2026-04-16T12:34:53Z</time></trkpt><trkpt lat="44.81738510392821" lon="7.3022740043830465"><ele>395.75</ele><time>2026-04-16T12:34:54Z</time></trkpt><trkpt lat="44.81746784026387" lon="7.302400572717982"><ele>395.5</ele><time>2026-04-16T12:34:55Z</time></trkpt><trkpt lat="44.81755050242311" lon="7.302523683820622"><ele>395.25</ele><time>2026-04-16T12:34:56Z</time></trkpt><trkpt lat="44.817636594206334" lon="7.3026489950150735"><ele>395.0</ele><time>2026-04-16T12:34:57Z</time></trkpt><trkpt lat="44.8177202549758" lon="7.302766566030892"><ele>395.0</ele><time>2026-04-16T12:34:58Z</time></trkpt><trkpt lat="44.817807481830144" lon="7.30289116866341"><ele>395.0</ele><time>2026-04-16T12:34:59Z</time></trkpt><trkpt lat="44.81789059867835" lon="7.303008779135903"><ele>395.0</ele><time>2026-04-16T12:35:00.001Z</time></trkpt><trkpt lat="44.817976340964925" lon="7.303123592335161"><ele>395.0</ele><time>2026-04-16T12:35:01.001Z</time></trkpt><trkpt lat="44.81804887560804" lon="7.303235669121584"><ele>394.99999999999994</ele><time>2026-04-16T12:35:02.001Z</time></trkpt><trkpt lat="44.818124505533305" lon="7.303339711550741"><ele>395.0</ele><time>2026-04-16T12:35:03.001Z</time></trkpt><trkpt lat="44.818189479455846" lon="7.303427389699455"><ele>395.0</ele><time>2026-04-16T12:35:04.001Z</time></trkpt><trkpt lat="44.81825060896354" lon="7.303496826463985"><ele>395.0</ele><time>2026-04-16T12:35:05.001Z</time></trkpt><trkpt lat="44.81830490462609" lon="7.303565565943702"><ele>394.99999999999994</ele><time>2026-04-16T12:35:06.001Z</time></trkpt><trkpt lat="44.81835093646693" lon="7.303640257021071"><ele>395.0</ele><time>2026-04-16T12:35:07.001Z</time></trkpt><trkpt lat="44.81839249069838" lon="7.303737922733823"><ele>395.0</ele><time>2026-04-16T12:35:08.001Z</time></trkpt><trkpt lat="44.81843837726533" lon="7.303847311390122"><ele>395.0</ele><time>2026-04-16T12:35:09.001Z</time></trkpt><trkpt lat="44.81849838094635" lon="7.3039452670079426"><ele>395.0</ele><time>2026-04-16T12:35:10.001Z</time></trkpt><trkpt lat="44.8185838172779" lon="7.304022749924433"><ele>395.0</ele><time>2026-04-16T12:35:11.001Z</time></trkpt><trkpt lat="44.818679823482825" lon="7.304120741799446"><ele>395.0</ele><time>2026-04-16T12:35:12.001Z</time></trkpt><trkpt lat="44.81876427591708" lon="7.304231752960928"><ele>394.25</ele><time>2026-04-16T12:35:13.001Z</time></trkpt><trkpt lat="44.8188493580114" lon="7.304367317656796"><ele>393.5</ele><time>2026-04-16T12:35:14.001Z</time></trkpt><trkpt lat="44.81893046017354" lon="7.304492569924252"><ele>392.75</ele><time>2026-04-16T12:35:15.001Z</time></trkpt><trkpt lat="44.81902559073772" lon="7.304632881544647"><ele>392.0</ele><time>2026-04-16T12:35:16.001Z</time></trkpt><trkpt lat="44.819122447789546" lon="7.304780260547093"><ele>391.5</ele><time>2026-04-16T12:35:17.001Z</time></trkpt><trkpt lat="44.819216779456305" lon="7.304915977316235"><ele>391.0</ele><time>2026-04-16T12:35:18.001Z</time></trkpt><trkpt lat="44.81932162866829" lon="7.305039427296006"><ele>390.5</ele><time>2026-04-16T12:35:19.001Z</time></trkpt><trkpt lat="44.81941213538781" lon="7.305186625039322"><ele>390.0</ele><time>2026-04-16T12:35:20.001Z</time></trkpt><trkpt lat="44.81946563776454" lon="7.30537229407382"><ele>389.75</ele><time>2026-04-16T12:35:21.001Z</time></trkpt><trkpt lat="44.81955522949637" lon="7.305501083889864"><ele>389.5</ele><time>2026-04-16T12:35:22.001Z</time></trkpt><trkpt lat="44.819643616515556" lon="7.305627893772962"><ele>389.25</ele><time>2026-04-16T12:35:23.001Z</time></trkpt><trkpt lat="44.81972823400991" lon="7.305749002988714"><ele>389.0</ele><time>2026-04-16T12:35:24.001Z</time></trkpt><trkpt lat="44.8198068007158" lon="7.305861451976227"><ele>388.75</ele><time>2026-04-16T12:35:25.001Z</time></trkpt><trkpt lat="44.819888457139754" lon="7.305978961664883"><ele>388.5</ele><time>2026-04-16T12:35:26.001Z</time></trkpt><trkpt lat="44.819968732208004" lon="7.306094793785136"><ele>388.25</ele><time>2026-04-16T12:35:27.001Z</time></trkpt><trkpt lat="44.82005057360158" lon="7.306212886161188"><ele>388.0</ele><time>2026-04-16T12:35:28.001Z</time></trkpt><trkpt lat="44.82013637927562" lon="7.306336698728843"><ele>388.25</ele><time>2026-04-16T12:35:29.001Z</time></trkpt><trkpt lat="44.82022544622344" lon="7.3064652170739075"><ele>388.5</ele><time>2026-04-16T12:35:30.001Z</time></trkpt><trkpt lat="44.82031071825703" lon="7.306589638532108"><ele>388.75</ele><time>2026-04-16T12:35:31.001Z</time></trkpt><trkpt lat="44.820394012518186" lon="7.306713254355422"><ele>389.0</ele><time>2026-04-16T12:35:32.001Z</time></trkpt><trkpt lat="44.82047961349412" lon="7.306840293552863"><ele>389.0</ele><time>2026-04-16T12:35:33.001Z</time></trkpt><trkpt lat="44.82056516896523" lon="7.306967265033047"><ele>389.0</ele><time>2026-04-16T12:35:34.001Z</time></trkpt><trkpt lat="44.82065536272805" lon="7.307100018116744"><ele>389.0</ele><time>2026-04-16T12:35:35.001Z</time></trkpt><trkpt lat="44.82075187750405" lon="7.307242268195836"><ele>389.0</ele><time>2026-04-16T12:35:36.001Z</time></trkpt><trkpt lat="44.820864402146206" lon="7.307364624996189"><ele>388.5</ele><time>2026-04-16T12:35:37.001Z</time></trkpt><trkpt lat="44.8209624639031" lon="7.307513288790015"><ele>388.0</ele><time>2026-04-16T12:35:38.001Z</time></trkpt><trkpt lat="44.82105973362087" lon="7.307661572601248"><ele>387.5</ele><time>2026-04-16T12:35:39.001Z</time></trkpt><trkpt lat="44.82116114543148" lon="7.3078105625655265"><ele>387.0</ele><time>2026-04-16T12:35:40.001Z</time></trkpt><trkpt lat="44.82126372823274" lon="7.307962391869976"><ele>386.25</ele><time>2026-04-16T12:35:41.001Z</time></trkpt><trkpt lat="44.82136208442693" lon="7.30810354126877"><ele>385.5</ele><time>2026-04-16T12:35:42.001Z</time></trkpt><trkpt lat="44.82145937510105" lon="7.308242086614541"><ele>384.75</ele><time>2026-04-16T12:35:43.001Z</time></trkpt><trkpt lat="44.82155832506498" lon="7.308387560636024"><ele>384.0</ele><time>2026-04-16T12:35:44.002Z</time></trkpt><trkpt lat="44.8216604991675" lon="7.308531821314427"><ele>384.0</ele><time>2026-04-16T12:35:45.002Z</time></trkpt><trkpt lat="44.821767754908876" lon="7.308687146664455"><ele>384.0</ele><time>2026-04-16T12:35:46.002Z</time></trkpt><trkpt lat="44.82187039446652" lon="7.308837813716949"><ele>384.0</ele><time>2026-04-16T12:35:47.002Z</time></trkpt><trkpt lat="44.821976810000976" lon="7.30898247381496"><ele>383.25</ele><time>2026-04-16T12:35:48.002Z</time></trkpt><trkpt lat="44.82206831671139" lon="7.309115705001278"><ele>382.5</ele><time>2026-04-16T12:35:49.002Z</time></trkpt><trkpt lat="44.82216937970759" lon="7.309262166534585"><ele>381.75</ele><time>2026-04-16T12:35:50.002Z</time></trkpt><trkpt lat="44.82227656009218" lon="7.309416150634136"><ele>381.0</ele><time>2026-04-16T12:35:51.002Z</time></trkpt><trkpt lat="44.82237752925786" lon="7.30956369451878"><ele>381.0</ele><time>2026-04-16T12:35:52.002Z</time></trkpt><trkpt lat="44.82247687832949" lon="7.3097085278758005"><ele>381.0</ele><time>2026-04-16T12:35:53.002Z</time></trkpt><trkpt lat="44.822583398702776" lon="7.309859774054567"><ele>381.0</ele><time>2026-04-16T12:35:54.002Z</time></trkpt><trkpt lat="44.82270130133607" lon="7.310022196245794"><ele>379.6666666666667</ele><time>2026-04-16T12:35:55.002Z</time></trkpt><trkpt lat="44.822818206929014" lon="7.3101720578132525"><ele>378.33333333333337</ele><time>2026-04-16T12:35:56.002Z</time></trkpt><trkpt lat="44.822930966629166" lon="7.3103226371178405"><ele>377.0</ele><time>2026-04-16T12:35:57.002Z</time></trkpt><trkpt lat="44.823046173333644" lon="7.310465986955282"><ele>376.0</ele><time>2026-04-16T12:35:58.002Z</time></trkpt><trkpt lat="44.82315959559728" lon="7.3105982728113235"><ele>375.0</ele><time>2026-04-16T12:35:59.002Z</time></trkpt><trkpt lat="44.82328333109424" lon="7.310726195289283"><ele>374.0</ele><time>2026-04-16T12:36:00.002Z</time></trkpt><trkpt lat="44.82340342419132" lon="7.310852605829376"><ele>374.25</ele><time>2026-04-16T12:36:01.002Z</time></trkpt><trkpt lat="44.82352278022954" lon="7.310971439109792"><ele>374.5</ele><time>2026-04-16T12:36:02.002Z</time></trkpt><trkpt lat="44.82364030607285" lon="7.311080002736788"><ele>374.75</ele><time>2026-04-16T12:36:03.002Z</time></trkpt><trkpt lat="44.82376062609571" lon="7.311183039835329"><ele>375.0</ele><time>2026-04-16T12:36:04.002Z</time></trkpt><trkpt lat="44.82388038606648" lon="7.311279956814063"><ele>375.0</ele><time>2026-04-16T12:36:05.002Z</time></trkpt><trkpt lat="44.824000404617976" lon="7.311368475839754"><ele>375.0</ele><time>2026-04-16T12:36:06.002Z</time></trkpt><trkpt lat="44.82412582613473" lon="7.311455209401163"><ele>375.0</ele><time>2026-04-16T12:36:07.002Z</time></trkpt><trkpt lat="44.82425069211919" lon="7.311538814931082"><ele>375.0</ele><time>2026-04-16T12:36:08.002Z</time></trkpt><trkpt lat="44.824375426380385" lon="7.311619241978756"><ele>374.5</ele><time>2026-04-16T12:36:09.002Z</time></trkpt><trkpt lat="44.824494176072044" lon="7.3116810862278125"><ele>374.0</ele><time>2026-04-16T12:36:10.002Z</time></trkpt><trkpt lat="44.82460780476418" lon="7.311740766961509"><ele>373.5</ele><time>2026-04-16T12:36:11.002Z</time></trkpt><trkpt lat="44.82471919558106" lon="7.311793612814246"><ele>373.0</ele><time>2026-04-16T12:36:12.002Z</time></trkpt><trkpt lat="44.824823508749006" lon="7.311846044104817"><ele>373.0</ele><time>2026-04-16T12:36:13.002Z</time></trkpt><trkpt lat="44.82493272212613" lon="7.311893574113402"><ele>373.0</ele><time>2026-04-16T12:36:14.002Z</time></trkpt><trkpt lat="44.825029013467585" lon="7.311953252724038"><ele>373.0</ele><time>2026-04-16T12:36:15.002Z</time></trkpt><trkpt lat="44.82511645195577" lon="7.31202044842333"><ele>373.0</ele><time>2026-04-16T12:36:16Z</time></trkpt><trkpt lat="44.825179670387236" lon="7.312099328035481"><ele>373.0</ele><time>2026-04-16T12:36:17Z</time></trkpt><trkpt lat="44.82523987768499" lon="7.312184463648382"><ele>372.2</ele><time>2026-04-16T12:36:18Z</time></trkpt><trkpt lat="44.82530122452153" lon="7.31227738064683"><ele>371.4</ele><time>2026-04-16T12:36:19Z</time></trkpt><trkpt lat="44.825346818939735" lon="7.312386373848749"><ele>370.59999999999997</ele><time>2026-04-16T12:36:20Z</time></trkpt><trkpt lat="44.82539090144629" lon="7.312505443803765"><ele>369.79999999999995</ele><time>2026-04-16T12:36:21Z</time></trkpt><trkpt lat="44.8254521330267" lon="7.3126167884435205"><ele>369.0</ele><time>2026-04-16T12:36:22Z</time></trkpt><trkpt lat="44.82553103534623" lon="7.3127014409712965"><ele>369.0</ele><time>2026-04-16T12:36:23Z</time></trkpt><trkpt lat="44.82564263830607" lon="7.312775944155672"><ele>369.0</ele><time>2026-04-16T12:36:24Z</time></trkpt><trkpt lat="44.8257775796779" lon="7.312872965016747"><ele>369.0</ele><time>2026-04-16T12:36:25Z</time></trkpt><trkpt lat="44.82588839073632" lon="7.312997114372207"><ele>369.0</ele><time>2026-04-16T12:36:26Z</time></trkpt><trkpt lat="44.8260342785965" lon="7.3131764984762375"><ele>367.6666666666667</ele><time>2026-04-16T12:36:27Z</time></trkpt><trkpt lat="44.826172596692835" lon="7.313376974334052"><ele>366.33333333333337</ele><time>2026-04-16T12:36:28Z</time></trkpt><trkpt lat="44.82635030115367" lon="7.313589127049229"><ele>365.0</ele><time>2026-04-16T12:36:29Z</time></trkpt><trkpt lat="44.82656501501276" lon="7.3138223390965456"><ele>365.5</ele><time>2026-04-16T12:36:30Z</time></trkpt><trkpt lat="44.82677549167231" lon="7.314042235624034"><ele>366.0</ele><time>2026-04-16T12:36:31Z</time></trkpt><trkpt lat="44.82699471615155" lon="7.314266166618894"><ele>366.5</ele><time>2026-04-16T12:36:32Z</time></trkpt><trkpt lat="44.82721019611183" lon="7.314492936468402"><ele>367.0</ele><time>2026-04-16T12:36:33Z</time></trkpt><trkpt lat="44.82740578931843" lon="7.314697417261699"><ele>367.0</ele><time>2026-04-16T12:36:34Z</time></trkpt><trkpt lat="44.827588031413555" lon="7.314884182591846"><ele>367.0</ele><time>2026-04-16T12:36:35Z</time></trkpt><trkpt lat="44.827759874736095" lon="7.31506494040991"><ele>367.0</ele><time>2026-04-16T12:36:36Z</time></trkpt><trkpt lat="44.827938367632306" lon="7.315251003407327"><ele>367.3333333333333</ele><time>2026-04-16T12:36:37Z</time></trkpt><trkpt lat="44.82811307418493" lon="7.3154327675261985"><ele>367.6666666666667</ele><time>2026-04-16T12:36:38Z</time></trkpt><trkpt lat="44.8282776960885" lon="7.31560456735387"><ele>368.0</ele><time>2026-04-16T12:36:39Z</time></trkpt><trkpt lat="44.828439278812205" lon="7.315775507874273"><ele>366.6666666666667</ele><time>2026-04-16T12:36:40Z</time></trkpt><trkpt lat="44.82859812863196" lon="7.315942773769697"><ele>365.3333333333333</ele><time>2026-04-16T12:36:41Z</time></trkpt><trkpt lat="44.828765992743584" lon="7.316113786927136"><ele>364.0</ele><time>2026-04-16T12:36:42Z</time></trkpt><trkpt lat="44.82893690075258" lon="7.316290300678806"><ele>363.3333333333333</ele><time>2026-04-16T12:36:43Z</time></trkpt><trkpt lat="44.82909293723587" lon="7.31645366541281"><ele>362.6666666666667</ele><time>2026-04-16T12:36:44Z</time></trkpt><trkpt lat="44.82924533494149" lon="7.316616406541788"><ele>362.0</ele><time>2026-04-16T12:36:45Z</time></trkpt><trkpt lat="44.829392498774645" lon="7.316771613543408"><ele>362.0</ele><time>2026-04-16T12:36:46Z</time></trkpt><trkpt lat="44.829542410654454" lon="7.316924478670348"><ele>362.0</ele><time>2026-04-16T12:36:47Z</time></trkpt><trkpt lat="44.829687967193095" lon="7.317069724822543"><ele>362.0</ele><time>2026-04-16T12:36:48Z</time></trkpt><trkpt lat="44.82982932462587" lon="7.317213510991751"><ele>361.33333333333337</ele><time>2026-04-16T12:36:49Z</time></trkpt><trkpt lat="44.82996845652818" lon="7.317351554234487"><ele>360.6666666666667</ele><time>2026-04-16T12:36:50Z</time></trkpt><trkpt lat="44.83010569444049" lon="7.3174836219617605"><ele>360.0</ele><time>2026-04-16T12:36:51Z</time></trkpt><trkpt lat="44.83023814501094" lon="7.317616888869253"><ele>360.0</ele><time>2026-04-16T12:36:52Z</time></trkpt><trkpt lat="44.830377897087715" lon="7.317752313443206"><ele>360.0</ele><time>2026-04-16T12:36:53Z</time></trkpt><trkpt lat="44.830508776745006" lon="7.317880364437079"><ele>360.0</ele><time>2026-04-16T12:36:54Z</time></trkpt><trkpt lat="44.830643582587506" lon="7.318013228906818"><ele>360.0</ele><time>2026-04-16T12:36:55Z</time></trkpt><trkpt lat="44.83078507938513" lon="7.318148402527012"><ele>360.0</ele><time>2026-04-16T12:36:56Z</time></trkpt><trkpt lat="44.83093308368914" lon="7.318291090841666"><ele>360.0</ele><time>2026-04-16T12:36:57Z</time></trkpt><trkpt lat="44.83108427306779" lon="7.318440581762545"><ele>360.0</ele><time>2026-04-16T12:36:58Z</time></trkpt><trkpt lat="44.831233860983104" lon="7.318586688753427"><ele>360.0</ele><time>2026-04-16T12:36:59Z</time></trkpt><trkpt lat="44.83137888756323" lon="7.318729930433908"><ele>360.0</ele><time>2026-04-16T12:37:00Z</time></trkpt><trkpt lat="44.831519186361845" lon="7.318859095748436"><ele>360.3333333333333</ele><time>2026-04-16T12:37:01Z</time></trkpt><trkpt lat="44.831648742833956" lon="7.318980615579175"><ele>360.66666666666663</ele><time>2026-04-16T12:37:02Z</time></trkpt><trkpt lat="44.831775801038745" lon="7.319104595238396"><ele>361.0</ele><time>2026-04-16T12:37:03Z</time></trkpt><trkpt lat="44.83190793743818" lon="7.319233926359904"><ele>360.0</ele><time>2026-04-16T12:37:04Z</time></trkpt><trkpt lat="44.83204745640546" lon="7.31936556913404"><ele>359.0</ele><time>2026-04-16T12:37:05Z</time></trkpt><trkpt lat="44.83218632844584" lon="7.319498305314757"><ele>358.0</ele><time>2026-04-16T12:37:06.001Z</time></trkpt><trkpt lat="44.832326852827876" lon="7.319633963244134"><ele>358.66666666666663</ele><time>2026-04-16T12:37:07.001Z</time></trkpt><trkpt lat="44.83246199340401" lon="7.319765557908928"><ele>359.3333333333333</ele><time>2026-04-16T12:37:08.001Z</time></trkpt><trkpt lat="44.832595167114846" lon="7.319897931030248"><ele>360.0</ele><time>2026-04-16T12:37:09.001Z</time></trkpt><trkpt lat="44.832732802066246" lon="7.3200343590832455"><ele>358.0</ele><time>2026-04-16T12:37:10.001Z</time></trkpt><trkpt lat="44.83287373165393" lon="7.320177734703446"><ele>356.0</ele><time>2026-04-16T12:37:11.001Z</time></trkpt><trkpt lat="44.83301412015598" lon="7.320329234984802"><ele>354.0</ele><time>2026-04-16T12:37:12.001Z</time></trkpt><trkpt lat="44.83315489315569" lon="7.320489622416306"><ele>354.0</ele><time>2026-04-16T12:37:13.001Z</time></trkpt><trkpt lat="44.83329472887676" lon="7.320650002041626"><ele>354.0</ele><time>2026-04-16T12:37:14.001Z</time></trkpt><trkpt lat="44.83342878219662" lon="7.320809735654819"><ele>354.0</ele><time>2026-04-16T12:37:15.001Z</time></trkpt><trkpt lat="44.833557693735344" lon="7.3209569937381085"><ele>354.0</ele><time>2026-04-16T12:37:16.001Z</time></trkpt><trkpt lat="44.83368365613357" lon="7.321100649904122"><ele>354.0</ele><time>2026-04-16T12:37:17.001Z</time></trkpt><trkpt lat="44.83380105473639" lon="7.321236489214472"><ele>354.0</ele><time>2026-04-16T12:37:18.001Z</time></trkpt><trkpt lat="44.83389349680843" lon="7.321339421598976"><ele>354.0</ele><time>2026-04-16T12:37:19.001Z</time></trkpt><trkpt lat="44.83401940423121" lon="7.321487464330416"><ele>353.6666666666667</ele><time>2026-04-16T12:37:20.001Z</time></trkpt><trkpt lat="44.83414238144421" lon="7.321639442552548"><ele>353.33333333333337</ele><time>2026-04-16T12:37:21.001Z</time></trkpt><trkpt lat="44.83426394882379" lon="7.321783422907006"><ele>353.0</ele><time>2026-04-16T12:37:22.001Z</time></trkpt><trkpt lat="44.834381549913935" lon="7.321925057187196"><ele>352.0</ele><time>2026-04-16T12:37:23.001Z</time></trkpt><trkpt lat="44.834509447796826" lon="7.32208215442733"><ele>351.0</ele><time>2026-04-16T12:37:24.001Z</time></trkpt><trkpt lat="44.83462686968853" lon="7.322247687618584"><ele>350.0</ele><time>2026-04-16T12:37:25.001Z</time></trkpt><trkpt lat="44.83474549649539" lon="7.322425288509459"><ele>349.6666666666667</ele><time>2026-04-16T12:37:26.001Z</time></trkpt><trkpt lat="44.83485453034498" lon="7.322600451574645"><ele>349.3333333333333</ele><time>2026-04-16T12:37:27.001Z</time></trkpt><trkpt lat="44.83496023719255" lon="7.322780083829105"><ele>349.0</ele><time>2026-04-16T12:37:28.001Z</time></trkpt><trkpt lat="44.83506743472851" lon="7.32298170467911"><ele>348.66666666666663</ele><time>2026-04-16T12:37:29.001Z</time></trkpt><trkpt lat="44.835166767384244" lon="7.323177791373674"><ele>348.3333333333333</ele><time>2026-04-16T12:37:30.001Z</time></trkpt><trkpt lat="44.83526447100173" lon="7.3233885292912495"><ele>348.0</ele><time>2026-04-16T12:37:31.001Z</time></trkpt><trkpt lat="44.835366606249835" lon="7.32360258863745"><ele>348.0</ele><time>2026-04-16T12:37:32.001Z</time></trkpt><trkpt lat="44.83547294443094" lon="7.323825039807287"><ele>348.0</ele><time>2026-04-16T12:37:33.001Z</time></trkpt><trkpt lat="44.8355762039214" lon="7.324040261065973"><ele>348.0</ele><time>2026-04-16T12:37:34.001Z</time></trkpt><trkpt lat="44.835678771154576" lon="7.324253865880292"><ele>347.6666666666667</ele><time>2026-04-16T12:37:35.001Z</time></trkpt><trkpt lat="44.83577903171415" lon="7.324460476378512"><ele>347.33333333333337</ele><time>2026-04-16T12:37:36.001Z</time></trkpt><trkpt lat="44.835876822330924" lon="7.324667020335001"><ele>347.0</ele><time>2026-04-16T12:37:37.001Z</time></trkpt><trkpt lat="44.83597597327356" lon="7.324878261319372"><ele>347.0</ele><time>2026-04-16T12:37:38.001Z</time></trkpt><trkpt lat="44.8360716962642" lon="7.325077092081088"><ele>347.0</ele><time>2026-04-16T12:37:39.001Z</time></trkpt><trkpt lat="44.83616255441708" lon="7.325272911594724"><ele>347.0</ele><time>2026-04-16T12:37:40.001Z</time></trkpt><trkpt lat="44.83625741777298" lon="7.325473431697066"><ele>346.33333333333337</ele><time>2026-04-16T12:37:41.001Z</time></trkpt><trkpt lat="44.83634235891444" lon="7.325666930003477"><ele>345.6666666666667</ele><time>2026-04-16T12:37:42.001Z</time></trkpt><trkpt lat="44.83642873044095" lon="7.325856747639931"><ele>345.0</ele><time>2026-04-16T12:37:43.001Z</time></trkpt><trkpt lat="44.836520976852796" lon="7.326052620883593"><ele>345.0</ele><time>2026-04-16T12:37:44.001Z</time></trkpt><trkpt lat="44.836611833353764" lon="7.326245898751117"><ele>345.0</ele><time>2026-04-16T12:37:45.001Z</time></trkpt><trkpt lat="44.83670074856668" lon="7.326445118420155"><ele>345.0</ele><time>2026-04-16T12:37:46.001Z</time></trkpt><trkpt lat="44.836793388000395" lon="7.326647837244429"><ele>344.0</ele><time>2026-04-16T12:37:47.001Z</time></trkpt><trkpt lat="44.836874431753884" lon="7.326841402561055"><ele>343.0</ele><time>2026-04-16T12:37:48.001Z</time></trkpt><trkpt lat="44.836947247533544" lon="7.327041171236303"><ele>342.0</ele><time>2026-04-16T12:37:49.001Z</time></trkpt><trkpt lat="44.83700938554826" lon="7.327243986152167"><ele>342.0</ele><time>2026-04-16T12:37:50.001Z</time></trkpt><trkpt lat="44.83706225352125" lon="7.327452886394392"><ele>342.0</ele><time>2026-04-16T12:37:51.001Z</time></trkpt><trkpt lat="44.83710583147022" lon="7.327666698634937"><ele>342.0</ele><time>2026-04-16T12:37:52.002Z</time></trkpt><trkpt lat="44.83714834220335" lon="7.327895091481159"><ele>343.0</ele><time>2026-04-16T12:37:53.002Z</time></trkpt><trkpt lat="44.83718643578933" lon="7.3281217040420525"><ele>344.0</ele><time>2026-04-16T12:37:54.002Z</time></trkpt><trkpt lat="44.83722124702099" lon="7.328333194752471"><ele>345.0</ele><time>2026-04-16T12:37:55.002Z</time></trkpt><trkpt lat="44.83725635090917" lon="7.328541482152462"><ele>345.0</ele><time>2026-04-16T12:37:56.002Z</time></trkpt><trkpt lat="44.83729229499882" lon="7.328751603982617"><ele>345.0</ele><time>2026-04-16T12:37:57.002Z</time></trkpt><trkpt lat="44.83732998989764" lon="7.328957380273474"><ele>345.0</ele><time>2026-04-16T12:37:58.002Z</time></trkpt><trkpt lat="44.83736281112269" lon="7.329162591655598"><ele>344.3333333333333</ele><time>2026-04-16T12:37:59.002Z</time></trkpt><trkpt lat="44.83739502876308" lon="7.329369258675884"><ele>343.66666666666663</ele><time>2026-04-16T12:38:00.002Z</time></trkpt><trkpt lat="44.83742955412156" lon="7.32958110060553"><ele>343.0</ele><time>2026-04-16T12:38:01.002Z</time></trkpt><trkpt lat="44.837463735063345" lon="7.329787866891203"><ele>342.3333333333333</ele><time>2026-04-16T12:38:02.002Z</time></trkpt><trkpt lat="44.83750125140392" lon="7.329995142648506"><ele>341.6666666666667</ele><time>2026-04-16T12:38:03.002Z</time></trkpt><trkpt lat="44.83754306296034" lon="7.330209879718975"><ele>341.0</ele><time>2026-04-16T12:38:04.002Z</time></trkpt><trkpt lat="44.83759341922277" lon="7.330421332089993"><ele>341.33333333333337</ele><time>2026-04-16T12:38:05.002Z</time></trkpt><trkpt lat="44.83765841485023" lon="7.330628379957877"><ele>341.6666666666667</ele><time>2026-04-16T12:38:06.002Z</time></trkpt><trkpt lat="44.83773415962257" lon="7.330831567689263"><ele>342.0</ele><time>2026-04-16T12:38:07.002Z</time></trkpt><trkpt lat="44.837821321650736" lon="7.3310148459059645"><ele>342.0</ele><time>2026-04-16T12:38:08.002Z</time></trkpt><trkpt lat="44.837916394411806" lon="7.331202656418224"><ele>342.0</ele><time>2026-04-16T12:38:09.002Z</time></trkpt><trkpt lat="44.83801279703773" lon="7.331371154658054"><ele>342.0</ele><time>2026-04-16T12:38:10.002Z</time></trkpt><trkpt lat="44.838110684113936" lon="7.331541507833817"><ele>341.0</ele><time>2026-04-16T12:38:11.002Z</time></trkpt><trkpt lat="44.838201072569525" lon="7.3317006304817065"><ele>340.0</ele><time>2026-04-16T12:38:12.002Z</time></trkpt><trkpt lat="44.83828579783893" lon="7.331856961470963"><ele>339.0</ele><time>2026-04-16T12:38:13.002Z</time></trkpt><trkpt lat="44.83837621501625" lon="7.3320149800488625"><ele>338.0</ele><time>2026-04-16T12:38:14.002Z</time></trkpt><trkpt lat="44.8384673950543" lon="7.3321844801794684"><ele>337.5</ele><time>2026-04-16T12:38:15.002Z</time></trkpt><trkpt lat="44.83856322062484" lon="7.332344023471919"><ele>337.0</ele><time>2026-04-16T12:38:16.002Z</time></trkpt><trkpt lat="44.838661099322266" lon="7.332506184807816"><ele>336.5</ele><time>2026-04-16T12:38:17.002Z</time></trkpt><trkpt lat="44.83876146981448" lon="7.332655590773145"><ele>336.0</ele><time>2026-04-16T12:38:18.002Z</time></trkpt><trkpt lat="44.83885983835637" lon="7.332788902495075"><ele>336.0</ele><time>2026-04-16T12:38:19.002Z</time></trkpt><trkpt lat="44.838954467511634" lon="7.332921888915087"><ele>336.0</ele><time>2026-04-16T12:38:20.002Z</time></trkpt><trkpt lat="44.83905386782214" lon="7.3330351654682975"><ele>336.0</ele><time>2026-04-16T12:38:21.002Z</time></trkpt><trkpt lat="44.83915925964887" lon="7.333129774350594"><ele>336.0</ele><time>2026-04-16T12:38:21.999Z</time></trkpt><trkpt lat="44.83926787666237" lon="7.333218521001815"><ele>335.75</ele><time>2026-04-16T12:38:22.999Z</time></trkpt><trkpt lat="44.83938031330469" lon="7.333302236906522"><ele>335.5</ele><time>2026-04-16T12:38:23.999Z</time></trkpt><trkpt lat="44.839492712580956" lon="7.3333683280016135"><ele>335.25</ele><time>2026-04-16T12:38:24.999Z</time></trkpt><trkpt lat="44.839597569405356" lon="7.333420876924727"><ele>335.0</ele><time>2026-04-16T12:38:25.999Z</time></trkpt><trkpt lat="44.83968974135862" lon="7.333456297671069"><ele>335.0</ele><time>2026-04-16T12:38:26.999Z</time></trkpt><trkpt lat="44.83977365025954" lon="7.333485558397381"><ele>335.0</ele><time>2026-04-16T12:38:27.999Z</time></trkpt><trkpt lat="44.83985381820267" lon="7.333518102462263"><ele>335.0</ele><time>2026-04-16T12:38:28.999Z</time></trkpt><trkpt lat="44.83992757259399" lon="7.333547560406013"><ele>335.0</ele><time>2026-04-16T12:38:29.999Z</time></trkpt><trkpt lat="44.83999941644329" lon="7.333584170608483"><ele>335.0</ele><time>2026-04-16T12:38:30.999Z</time></trkpt><trkpt lat="44.840068170158055" lon="7.333628752306904"><ele>335.0</ele><time>2026-04-16T12:38:31.999Z</time></trkpt><trkpt lat="44.84014738139243" lon="7.333702263883589"><ele>335.0</ele><time>2026-04-16T12:38:33Z</time></trkpt><trkpt lat="44.84021878393713" lon="7.333788678170992"><ele>335.0</ele><time>2026-04-16T12:38:34Z</time></trkpt><trkpt lat="44.84029605451839" lon="7.333839167016383"><ele>335.0</ele><time>2026-04-16T12:38:35Z</time></trkpt><trkpt lat="44.84038507277956" lon="7.333841278266135"><ele>335.0</ele><time>2026-04-16T12:38:36Z</time></trkpt><trkpt lat="44.84050696217481" lon="7.333811040230273"><ele>335.0</ele><time>2026-04-16T12:38:37Z</time></trkpt><trkpt lat="44.84064241548862" lon="7.33380140012146"><ele>335.0</ele><time>2026-04-16T12:38:38Z</time></trkpt><trkpt lat="44.84078371649279" lon="7.33383066074068"><ele>335.0</ele><time>2026-04-16T12:38:39Z</time></trkpt><trkpt lat="44.8409271118318" lon="7.333884882937817"><ele>335.0</ele><time>2026-04-16T12:38:40Z</time></trkpt><trkpt lat="44.841089370620374" lon="7.333948856971604"><ele>335.33333333333337</ele><time>2026-04-16T12:38:41Z</time></trkpt><trkpt lat="44.84125278368407" lon="7.334007371496724"><ele>335.6666666666667</ele><time>2026-04-16T12:38:42Z</time></trkpt><trkpt lat="44.841417718265724" lon="7.334064474733711"><ele>336.0</ele><time>2026-04-16T12:38:43Z</time></trkpt><trkpt lat="44.84156996147826" lon="7.334113095902256"><ele>336.0</ele><time>2026-04-16T12:38:44Z</time></trkpt><trkpt lat="44.84171326770365" lon="7.334161207703272"><ele>336.0</ele><time>2026-04-16T12:38:45Z</time></trkpt><trkpt lat="44.84185529616899" lon="7.334211991122838"><ele>336.0</ele><time>2026-04-16T12:38:46Z</time></trkpt><trkpt lat="44.84199458070805" lon="7.334259401023183"><ele>336.0</ele><time>2026-04-16T12:38:47Z</time></trkpt><trkpt lat="44.8421365370797" lon="7.334308875554085"><ele>336.6666666666667</ele><time>2026-04-16T12:38:48Z</time></trkpt><trkpt lat="44.84229638349089" lon="7.334361195452757"><ele>337.33333333333337</ele><time>2026-04-16T12:38:49Z</time></trkpt><trkpt lat="44.84246024842918" lon="7.3344147441504735"><ele>338.0</ele><time>2026-04-16T12:38:50Z</time></trkpt><trkpt lat="44.84262186576769" lon="7.33447189103486"><ele>337.33333333333337</ele><time>2026-04-16T12:38:51Z</time></trkpt><trkpt lat="44.84278312465139" lon="7.3345272599074605"><ele>336.6666666666667</ele><time>2026-04-16T12:38:52Z</time></trkpt><trkpt lat="44.84294772177959" lon="7.334581513929728"><ele>336.0</ele><time>2026-04-16T12:38:53Z</time></trkpt><trkpt lat="44.84311498173401" lon="7.334636317717382"><ele>336.0</ele><time>2026-04-16T12:38:54Z</time></trkpt><trkpt lat="44.843284814240626" lon="7.3346905611153375"><ele>336.0</ele><time>2026-04-16T12:38:55Z</time></trkpt><trkpt lat="44.84345752484094" lon="7.334748721166361"><ele>336.0</ele><time>2026-04-16T12:38:56Z</time></trkpt><trkpt lat="44.84362447685977" lon="7.334806953276092"><ele>336.3333333333333</ele><time>2026-04-16T12:38:57Z</time></trkpt><trkpt lat="44.84379133849339" lon="7.334864327690443"><ele>336.66666666666663</ele><time>2026-04-16T12:38:58Z</time></trkpt><trkpt lat="44.84395673543126" lon="7.334920902619217"><ele>337.0</ele><time>2026-04-16T12:38:59Z</time></trkpt><trkpt lat="44.844124465856986" lon="7.334974819248146"><ele>337.66666666666663</ele><time>2026-04-16T12:39:00Z</time></trkpt><trkpt lat="44.8443014834687" lon="7.335035848358512"><ele>338.3333333333333</ele><time>2026-04-16T12:39:01Z</time></trkpt><trkpt lat="44.844463901311116" lon="7.335092356833686"><ele>339.0</ele><time>2026-04-16T12:39:02Z</time></trkpt><trkpt lat="44.84461225811521" lon="7.3351464108460265"><ele>339.0</ele><time>2026-04-16T12:39:03Z</time></trkpt><trkpt lat="44.84474485023371" lon="7.3351921198979735"><ele>339.0</ele><time>2026-04-16T12:39:04Z</time></trkpt><trkpt lat="44.84487099299838" lon="7.335231910367869"><ele>339.0</ele><time>2026-04-16T12:39:05Z</time></trkpt><trkpt lat="44.84499700088635" lon="7.335274900423592"><ele>339.0</ele><time>2026-04-16T12:39:06Z</time></trkpt><trkpt lat="44.845115132838934" lon="7.3353159955485845"><ele>339.2</ele><time>2026-04-16T12:39:07Z</time></trkpt><trkpt lat="44.84521656106301" lon="7.335351184258376"><ele>339.4</ele><time>2026-04-16T12:39:08.001Z</time></trkpt><trkpt lat="44.84530070246935" lon="7.3353851294405565"><ele>339.6</ele><time>2026-04-16T12:39:09.001Z</time></trkpt><trkpt lat="44.845379304786185" lon="7.335428827181151"><ele>339.8</ele><time>2026-04-16T12:39:10.001Z</time></trkpt><trkpt lat="44.84544348690498" lon="7.335486847722036"><ele>340.0</ele><time>2026-04-16T12:39:11.001Z</time></trkpt><trkpt lat="44.8455171380802" lon="7.335581138695357"><ele>340.25</ele><time>2026-04-16T12:39:12.001Z</time></trkpt><trkpt lat="44.84559045172907" lon="7.335669846270019"><ele>340.5</ele><time>2026-04-16T12:39:13.001Z</time></trkpt><trkpt lat="44.84567449300297" lon="7.335706019832122"><ele>340.75</ele><time>2026-04-16T12:39:14.001Z</time></trkpt><trkpt lat="44.8457875241077" lon="7.335721084097795"><ele>341.0</ele><time>2026-04-16T12:39:15.001Z</time></trkpt><trkpt lat="44.84594207053039" lon="7.335724773731546"><ele>341.5</ele><time>2026-04-16T12:39:16.001Z</time></trkpt><trkpt lat="44.8460821424676" lon="7.335762225646961"><ele>342.0</ele><time>2026-04-16T12:39:17.001Z</time></trkpt><trkpt lat="44.84621360793607" lon="7.335832834722681"><ele>342.5</ele><time>2026-04-16T12:39:18.001Z</time></trkpt><trkpt lat="44.84635381103358" lon="7.335912140825285"><ele>343.0</ele><time>2026-04-16T12:39:19.001Z</time></trkpt><trkpt lat="44.84650789545118" lon="7.33599386987669"><ele>343.0</ele><time>2026-04-16T12:39:20.001Z</time></trkpt><trkpt lat="44.84666583103342" lon="7.3360733216054745"><ele>343.0</ele><time>2026-04-16T12:39:21.001Z</time></trkpt><trkpt lat="44.84681177691145" lon="7.336152637603144"><ele>343.0</ele><time>2026-04-16T12:39:22.001Z</time></trkpt><trkpt lat="44.846955783079885" lon="7.336224823370651"><ele>343.0</ele><time>2026-04-16T12:39:23.001Z</time></trkpt><trkpt lat="44.84710469269207" lon="7.336297834089968"><ele>343.0</ele><time>2026-04-16T12:39:24.001Z</time></trkpt><trkpt lat="44.84725409025263" lon="7.336380913378964"><ele>343.0</ele><time>2026-04-16T12:39:25.001Z</time></trkpt><trkpt lat="44.84742736829576" lon="7.33647213413015"><ele>342.3333333333333</ele><time>2026-04-16T12:39:26.001Z</time></trkpt><trkpt lat="44.84758887693264" lon="7.336553717026496"><ele>341.6666666666667</ele><time>2026-04-16T12:39:27.001Z</time></trkpt><trkpt lat="44.84774013257847" lon="7.336633467489937"><ele>341.0</ele><time>2026-04-16T12:39:28.001Z</time></trkpt><trkpt lat="44.84789691279111" lon="7.336716347136354"><ele>340.75</ele><time>2026-04-16T12:39:29.001Z</time></trkpt><trkpt lat="44.84803640227125" lon="7.336790088234014"><ele>340.5</ele><time>2026-04-16T12:39:30.001Z</time></trkpt><trkpt lat="44.848172701509256" lon="7.336864024478779"><ele>340.25</ele><time>2026-04-16T12:39:31.001Z</time></trkpt><trkpt lat="44.848312586002294" lon="7.336937211688785"><ele>340.0</ele><time>2026-04-16T12:39:32.001Z</time></trkpt><trkpt lat="44.84845967806909" lon="7.337012843573809"><ele>340.5</ele><time>2026-04-16T12:39:33.001Z</time></trkpt><trkpt lat="44.8485977903537" lon="7.337085309009294"><ele>341.0</ele><time>2026-04-16T12:39:34.001Z</time></trkpt><trkpt lat="44.84873145651529" lon="7.3371551587744"><ele>341.5</ele><time>2026-04-16T12:39:35.001Z</time></trkpt><trkpt lat="44.848854227222816" lon="7.33722051759127"><ele>342.0</ele><time>2026-04-16T12:39:36.001Z</time></trkpt><trkpt lat="44.84896942912272" lon="7.33728024377105"><ele>342.25</ele><time>2026-04-16T12:39:37.001Z</time></trkpt><trkpt lat="44.84908292185784" lon="7.337340426652359"><ele>342.5</ele><time>2026-04-16T12:39:38.001Z</time></trkpt><trkpt lat="44.84919806396184" lon="7.3373994140847305"><ele>342.75</ele><time>2026-04-16T12:39:39.001Z</time></trkpt><trkpt lat="44.84931200067546" lon="7.337460226523564"><ele>343.0</ele><time>2026-04-16T12:39:40.001Z</time></trkpt><trkpt lat="44.84942942678819" lon="7.3375230052260765"><ele>343.5</ele><time>2026-04-16T12:39:41.001Z</time></trkpt><trkpt lat="44.8495491760166" lon="7.337588036206906"><ele>344.0</ele><time>2026-04-16T12:39:42.001Z</time></trkpt><trkpt lat="44.84966726682828" lon="7.337650684324717"><ele>344.5</ele><time>2026-04-16T12:39:43.001Z</time></trkpt><trkpt lat="44.84978670957789" lon="7.33771148822228"><ele>345.0</ele><time>2026-04-16T12:39:44.001Z</time></trkpt><trkpt lat="44.849897298989035" lon="7.337761683687314"><ele>345.0</ele><time>2026-04-16T12:39:45.001Z</time></trkpt><trkpt lat="44.84999593147413" lon="7.337810782165221"><ele>345.0</ele><time>2026-04-16T12:39:46.001Z</time></trkpt><trkpt lat="44.85008013684257" lon="7.337857061883914"><ele>345.0</ele><time>2026-04-16T12:39:47.001Z</time></trkpt><trkpt lat="44.850161129452935" lon="7.337905916503387"><ele>345.0</ele><time>2026-04-16T12:39:48.001Z</time></trkpt><trkpt lat="44.85023711349195" lon="7.3379430775288865"><ele>345.0</ele><time>2026-04-16T12:39:49.001Z</time></trkpt><trkpt lat="44.85029783650118" lon="7.337975087612257"><ele>345.0</ele><time>2026-04-16T12:39:50.001Z</time></trkpt><trkpt lat="44.85040104438947" lon="7.338032791671242"><ele>345.2</ele><time>2026-04-16T12:39:52.002Z</time></trkpt><trkpt lat="44.85047675075076" lon="7.3380736156385735"><ele>345.4</ele><time>2026-04-16T12:39:54.002Z</time></trkpt><trkpt lat="44.85054346383771" lon="7.338126995856979"><ele>345.6</ele><time>2026-04-16T12:39:57.002Z</time></trkpt><trkpt lat="44.85062698982243" lon="7.3381898483475"><ele>345.8</ele><time>2026-04-16T12:39:59.002Z</time></trkpt><trkpt lat="44.8507196703194" lon="7.338338425331634"><ele>346.0</ele><time>2026-04-16T12:40:01.002Z</time></trkpt><trkpt lat="44.85076900975835" lon="7.3384427726072845"><ele>346.0</ele><time>2026-04-16T12:40:02.002Z</time></trkpt><trkpt lat="44.850831411451686" lon="7.33849217705048"><ele>346.0</ele><time>2026-04-16T12:40:03.002Z</time></trkpt><trkpt lat="44.8509016253175" lon="7.338502220588285"><ele>346.0</ele><time>2026-04-16T12:40:04.002Z</time></trkpt><trkpt lat="44.85096787382404" lon="7.338483976620862"><ele>346.0</ele><time>2026-04-16T12:40:05.002Z</time></trkpt><trkpt lat="44.851030365746105" lon="7.338438880727658"><ele>346.0</ele><time>2026-04-16T12:40:06.002Z</time></trkpt><trkpt lat="44.85108442029504" lon="7.338365238718414"><ele>346.0</ele><time>2026-04-16T12:40:07.002Z</time></trkpt><trkpt lat="44.85115701119406" lon="7.338287090993396"><ele>346.0</ele><time>2026-04-16T12:40:08.002Z</time></trkpt><trkpt lat="44.851229998775565" lon="7.338229620078257"><ele>346.3333333333333</ele><time>2026-04-16T12:40:09.002Z</time></trkpt><trkpt lat="44.85129342393346" lon="7.338191200693597"><ele>346.66666666666663</ele><time>2026-04-16T12:40:10.002Z</time></trkpt><trkpt lat="44.85138195191041" lon="7.338140152844768"><ele>347.0</ele><time>2026-04-16T12:40:12.002Z</time></trkpt><trkpt lat="44.85145377743851" lon="7.338085081870215"><ele>347.3333333333333</ele><time>2026-04-16T12:40:14.002Z</time></trkpt><trkpt lat="44.85152886420871" lon="7.338021503660761"><ele>347.6666666666667</ele><time>2026-04-16T12:40:16.002Z</time></trkpt><trkpt lat="44.851622098373234" lon="7.337954638308659"><ele>348.0</ele><time>2026-04-16T12:40:18.002Z</time></trkpt><trkpt lat="44.85168359930241" lon="7.337922395882291"><ele>348.0</ele><time>2026-04-16T12:40:19.002Z</time></trkpt><trkpt lat="44.85175063628513" lon="7.337877758487368"><ele>348.0</ele><time>2026-04-16T12:40:20.002Z</time></trkpt><trkpt lat="44.85182274906969" lon="7.337836584931726"><ele>348.0</ele><time>2026-04-16T12:40:21.002Z</time></trkpt><trkpt lat="44.85189765286619" lon="7.337795102812401"><ele>348.0</ele><time>2026-04-16T12:40:22.002Z</time></trkpt><trkpt lat="44.85197029535262" lon="7.337764992900927"><ele>348.0</ele><time>2026-04-16T12:40:23.002Z</time></trkpt><trkpt lat="44.85204633447928" lon="7.337732563555774"><ele>348.0</ele><time>2026-04-16T12:40:24.002Z</time></trkpt><trkpt lat="44.852125217564854" lon="7.3377023799245515"><ele>348.0</ele><time>2026-04-16T12:40:25.002Z</time></trkpt><trkpt lat="44.852208209540585" lon="7.3376719199783755"><ele>348.0</ele><time>2026-04-16T12:40:26.002Z</time></trkpt><trkpt lat="44.85229374558806" lon="7.337646170409126"><ele>348.0</ele><time>2026-04-16T12:40:27.002Z</time></trkpt><trkpt lat="44.85237250064286" lon="7.337618337987391"><ele>348.0</ele><time>2026-04-16T12:40:27.999Z</time></trkpt><trkpt lat="44.85245849362158" lon="7.337588695693256"><ele>348.0</ele><time>2026-04-16T12:40:28.999Z</time></trkpt><trkpt lat="44.852547021824996" lon="7.337558888154729"><ele>348.0</ele><time>2026-04-16T12:40:29.999Z</time></trkpt><trkpt lat="44.85263794612014" lon="7.337526972540842"><ele>347.2</ele><time>2026-04-16T12:40:30.999Z</time></trkpt><trkpt lat="44.85272900407841" lon="7.337494204371409"><ele>346.4</ele><time>2026-04-16T12:40:31.999Z</time></trkpt><trkpt lat="44.85281655188969" lon="7.337461880102564"><ele>345.59999999999997</ele><time>2026-04-16T12:40:33Z</time></trkpt><trkpt lat="44.85290500373457" lon="7.337428255200157"><ele>344.79999999999995</ele><time>2026-04-16T12:40:33.999Z</time></trkpt><trkpt lat="44.85299771016615" lon="7.337400594456487"><ele>344.0</ele><time>2026-04-16T12:40:34.999Z</time></trkpt><trkpt lat="44.85308540549245" lon="7.337372181943008"><ele>344.0</ele><time>2026-04-16T12:40:36Z</time></trkpt><trkpt lat="44.85318089989823" lon="7.337336951902306"><ele>344.0</ele><time>2026-04-16T12:40:37Z</time></trkpt><trkpt lat="44.853281355166565" lon="7.337297882846347"><ele>344.0</ele><time>2026-04-16T12:40:38Z</time></trkpt><trkpt lat="44.85337326736217" lon="7.337259099749467"><ele>344.0</ele><time>2026-04-16T12:40:39Z</time></trkpt><trkpt lat="44.853469862732744" lon="7.337222622770604"><ele>344.0</ele><time>2026-04-16T12:40:40Z</time></trkpt><trkpt lat="44.85356745110038" lon="7.337182944980078"><ele>344.2</ele><time>2026-04-16T12:40:40.999Z</time></trkpt><trkpt lat="44.8536707196466" lon="7.3371525127442885"><ele>344.4</ele><time>2026-04-16T12:40:41.999Z</time></trkpt><trkpt lat="44.853759806046334" lon="7.337114580837682"><ele>344.6</ele><time>2026-04-16T12:40:43Z</time></trkpt><trkpt lat="44.85385793231483" lon="7.337080773857491"><ele>344.8</ele><time>2026-04-16T12:40:44Z</time></trkpt><trkpt lat="44.853967073856886" lon="7.3370423432482035"><ele>345.0</ele><time>2026-04-16T12:40:45Z</time></trkpt><trkpt lat="44.854077604773664" lon="7.337002904160257"><ele>345.0</ele><time>2026-04-16T12:40:46Z</time></trkpt><trkpt lat="44.85417755347586" lon="7.336963954557437"><ele>345.0</ele><time>2026-04-16T12:40:47Z</time></trkpt><trkpt lat="44.854269698445215" lon="7.33692286873001"><ele>345.0</ele><time>2026-04-16T12:40:48Z</time></trkpt><trkpt lat="44.85435322239477" lon="7.33689006408171"><ele>345.0</ele><time>2026-04-16T12:40:49Z</time></trkpt><trkpt lat="44.854427770891746" lon="7.3368513756252485"><ele>345.0</ele><time>2026-04-16T12:40:50Z</time></trkpt><trkpt lat="44.854507601798076" lon="7.336809392875822"><ele>345.4</ele><time>2026-04-16T12:40:51Z</time></trkpt><trkpt lat="44.85458892088013" lon="7.336770779161811"><ele>345.8</ele><time>2026-04-16T12:40:52Z</time></trkpt><trkpt lat="44.8546630155604" lon="7.336740616120333"><ele>346.20000000000005</ele><time>2026-04-16T12:40:53Z</time></trkpt><trkpt lat="44.85478227806498" lon="7.336735476862573"><ele>346.6</ele><time>2026-04-16T12:40:55Z</time></trkpt><trkpt lat="44.85489601201661" lon="7.33678341202756"><ele>347.0</ele><time>2026-04-16T12:40:57Z</time></trkpt><trkpt lat="44.85495901466676" lon="7.336799435927426"><ele>347.0</ele><time>2026-04-16T12:40:58Z</time></trkpt><trkpt lat="44.855077133241856" lon="7.336724518494186"><ele>347.0</ele><time>2026-04-16T12:41:00Z</time></trkpt><trkpt lat="44.855171553133964" lon="7.3366202768347275"><ele>347.0</ele><time>2026-04-16T12:41:01Z</time></trkpt><trkpt lat="44.85526535225261" lon="7.336567680868411"><ele>347.0</ele><time>2026-04-16T12:41:02Z</time></trkpt><trkpt lat="44.85538504200383" lon="7.336512468523993"><ele>347.0</ele><time>2026-04-16T12:41:03Z</time></trkpt><trkpt lat="44.855531487596394" lon="7.336465191655969"><ele>347.0</ele><time>2026-04-16T12:41:04Z</time></trkpt><trkpt lat="44.85567764145598" lon="7.336430430860664"><ele>347.0</ele><time>2026-04-16T12:41:05Z</time></trkpt><trkpt lat="44.85582547728606" lon="7.336394140771285"><ele>347.0</ele><time>2026-04-16T12:41:06Z</time></trkpt><trkpt lat="44.85596734212371" lon="7.336355047751908"><ele>347.0</ele><time>2026-04-16T12:41:07Z</time></trkpt><trkpt lat="44.85611182481584" lon="7.336318205157645"><ele>347.0</ele><time>2026-04-16T12:41:08Z</time></trkpt><trkpt lat="44.85625819342174" lon="7.336275488595805"><ele>347.0</ele><time>2026-04-16T12:41:09Z</time></trkpt><trkpt lat="44.85639814636724" lon="7.336234582725633"><ele>347.0</ele><time>2026-04-16T12:41:10Z</time></trkpt><trkpt lat="44.85653817842391" lon="7.336191919517059"><ele>347.0</ele><time>2026-04-16T12:41:11Z</time></trkpt><trkpt lat="44.85668003501183" lon="7.33614957549972"><ele>347.0</ele><time>2026-04-16T12:41:12Z</time></trkpt><trkpt lat="44.856832188286326" lon="7.336103474086647"><ele>347.0</ele><time>2026-04-16T12:41:13Z</time></trkpt><trkpt lat="44.85699921755128" lon="7.336046292864144"><ele>347.33333333333337</ele><time>2026-04-16T12:41:14Z</time></trkpt><trkpt lat="44.857184453655776" lon="7.336002771243589"><ele>347.6666666666667</ele><time>2026-04-16T12:41:15Z</time></trkpt><trkpt lat="44.8573881438114" lon="7.335934958975245"><ele>348.0</ele><time>2026-04-16T12:41:16Z</time></trkpt><trkpt lat="44.85761738394814" lon="7.335856681005482"><ele>348.6666666666667</ele><time>2026-04-16T12:41:17.001Z</time></trkpt><trkpt lat="44.85782766313491" lon="7.335784877580914"><ele>349.33333333333337</ele><time>2026-04-16T12:41:18.001Z</time></trkpt><trkpt lat="44.85802122616894" lon="7.335718617001947"><ele>350.0</ele><time>2026-04-16T12:41:19.001Z</time></trkpt><trkpt lat="44.85819627577673" lon="7.3356581917929145"><ele>350.0</ele><time>2026-04-16T12:41:20.001Z</time></trkpt><trkpt lat="44.85836434817115" lon="7.335600175045455"><ele>350.0</ele><time>2026-04-16T12:41:21.001Z</time></trkpt><trkpt lat="44.858524724086145" lon="7.335544815033779"><ele>350.0</ele><time>2026-04-16T12:41:22.001Z</time></trkpt><trkpt lat="44.85866838113036" lon="7.335495226195663"><ele>350.6666666666667</ele><time>2026-04-16T12:41:23.001Z</time></trkpt><trkpt lat="44.85882265939024" lon="7.335441971028193"><ele>351.3333333333333</ele><time>2026-04-16T12:41:24.001Z</time></trkpt><trkpt lat="44.85898290772215" lon="7.335386655058886"><ele>352.0</ele><time>2026-04-16T12:41:25.001Z</time></trkpt><trkpt lat="44.85914774304656" lon="7.335314102279939"><ele>352.5</ele><time>2026-04-16T12:41:26.001Z</time></trkpt><trkpt lat="44.85929628217421" lon="7.33525846512104"><ele>353.0</ele><time>2026-04-16T12:41:27.001Z</time></trkpt><trkpt lat="44.859441158546616" lon="7.33521109028548"><ele>353.5</ele><time>2026-04-16T12:41:28.001Z</time></trkpt><trkpt lat="44.85956948064085" lon="7.3351669319325605"><ele>354.0</ele><time>2026-04-16T12:41:29.001Z</time></trkpt><trkpt lat="44.85970356414972" lon="7.335120539197451"><ele>354.0</ele><time>2026-04-16T12:41:30.001Z</time></trkpt><trkpt lat="44.859838269753936" lon="7.335074658859634"><ele>354.0</ele><time>2026-04-16T12:41:31.001Z</time></trkpt><trkpt lat="44.85997657947786" lon="7.335026929347294"><ele>354.0</ele><time>2026-04-16T12:41:32.001Z</time></trkpt><trkpt lat="44.860116198575376" lon="7.334976660840242"><ele>354.0</ele><time>2026-04-16T12:41:33.001Z</time></trkpt><trkpt lat="44.86026164161465" lon="7.334926699234014"><ele>353.3333333333333</ele><time>2026-04-16T12:41:34.001Z</time></trkpt><trkpt lat="44.86041788805109" lon="7.334871535921039"><ele>352.66666666666663</ele><time>2026-04-16T12:41:35.001Z</time></trkpt><trkpt lat="44.86058760155738" lon="7.3348184797244835"><ele>352.0</ele><time>2026-04-16T12:41:36.001Z</time></trkpt><trkpt lat="44.860754104660685" lon="7.3347612531006945"><ele>352.66666666666663</ele><time>2026-04-16T12:41:37.001Z</time></trkpt><trkpt lat="44.860920567766385" lon="7.334704244073351"><ele>353.3333333333333</ele><time>2026-04-16T12:41:38.001Z</time></trkpt><trkpt lat="44.86107686120809" lon="7.334647839813431"><ele>354.0</ele><time>2026-04-16T12:41:39.001Z</time></trkpt><trkpt lat="44.86123213831083" lon="7.334592169723045"><ele>354.25</ele><time>2026-04-16T12:41:40.001Z</time></trkpt><trkpt lat="44.86137717788878" lon="7.334546142507808"><ele>354.5</ele><time>2026-04-16T12:41:41.001Z</time></trkpt><trkpt lat="44.86151622603539" lon="7.334501055284666"><ele>354.75</ele><time>2026-04-16T12:41:42.001Z</time></trkpt><trkpt lat="44.861666678127875" lon="7.334451091716673"><ele>355.0</ele><time>2026-04-16T12:41:43.001Z</time></trkpt><trkpt lat="44.86180925269884" lon="7.334400833933184"><ele>355.0</ele><time>2026-04-16T12:41:44.001Z</time></trkpt><trkpt lat="44.861958800114614" lon="7.334352912387163"><ele>355.0</ele><time>2026-04-16T12:41:45.001Z</time></trkpt><trkpt lat="44.86210848927011" lon="7.334303062884659"><ele>355.0</ele><time>2026-04-16T12:41:46.001Z</time></trkpt><trkpt lat="44.862259650401406" lon="7.334249696654731"><ele>355.0</ele><time>2026-04-16T12:41:47.001Z</time></trkpt><trkpt lat="44.86241145813547" lon="7.334195380187584"><ele>355.0</ele><time>2026-04-16T12:41:48.001Z</time></trkpt><trkpt lat="44.86256674551325" lon="7.334150817912793"><ele>355.0</ele><time>2026-04-16T12:41:49.001Z</time></trkpt><trkpt lat="44.86271397010421" lon="7.3341008827655365"><ele>354.75</ele><time>2026-04-16T12:41:50.001Z</time></trkpt><trkpt lat="44.86286467719531" lon="7.334049828766402"><ele>354.5</ele><time>2026-04-16T12:41:51.001Z</time></trkpt><trkpt lat="44.863010605531436" lon="7.333998651058514"><ele>354.25</ele><time>2026-04-16T12:41:52.001Z</time></trkpt><trkpt lat="44.863150879746264" lon="7.3339526182822885"><ele>354.0</ele><time>2026-04-16T12:41:53.001Z</time></trkpt><trkpt lat="44.8632773790394" lon="7.333915292700152"><ele>354.2</ele><time>2026-04-16T12:41:54.001Z</time></trkpt><trkpt lat="44.86340163146284" lon="7.333883678767277"><ele>354.4</ele><time>2026-04-16T12:41:55.001Z</time></trkpt><trkpt lat="44.86352312246422" lon="7.3338585269868135"><ele>354.6</ele><time>2026-04-16T12:41:56.001Z</time></trkpt><trkpt lat="44.863620538995484" lon="7.333834530499797"><ele>354.8</ele><time>2026-04-16T12:41:57.002Z</time></trkpt><trkpt lat="44.863697633678385" lon="7.333812871969533"><ele>355.0</ele><time>2026-04-16T12:41:58.002Z</time></trkpt><trkpt lat="44.863771569141576" lon="7.33378820581993"><ele>355.8</ele><time>2026-04-16T12:41:59.002Z</time></trkpt><trkpt lat="44.86383491957922" lon="7.3337670411246725"><ele>356.6</ele><time>2026-04-16T12:42:00.002Z</time></trkpt><trkpt lat="44.863949478893566" lon="7.333727247531211"><ele>357.4</ele><time>2026-04-16T12:42:02.002Z</time></trkpt><trkpt lat="44.86407508571005" lon="7.333704805001206"><ele>358.2</ele><time>2026-04-16T12:42:04.002Z</time></trkpt><trkpt lat="44.864158052856794" lon="7.333725797843686"><ele>359.0</ele><time>2026-04-16T12:42:05.002Z</time></trkpt><trkpt lat="44.86422884386547" lon="7.333751668915793"><ele>358.79999999999995</ele><time>2026-04-16T12:42:06.002Z</time></trkpt><trkpt lat="44.86431223084758" lon="7.333816835572102"><ele>358.59999999999997</ele><time>2026-04-16T12:42:08.002Z</time></trkpt><trkpt lat="44.86436768937145" lon="7.333879090365177"><ele>358.4</ele><time>2026-04-16T12:42:09.002Z</time></trkpt><trkpt lat="44.86443864792853" lon="7.333967913715628"><ele>358.2</ele><time>2026-04-16T12:42:10.002Z</time></trkpt><trkpt lat="44.86450883299815" lon="7.334065516559136"><ele>358.0</ele><time>2026-04-16T12:42:11.002Z</time></trkpt><trkpt lat="44.864565299432" lon="7.334205986481164"><ele>358.0</ele><time>2026-04-16T12:42:12.002Z</time></trkpt><trkpt lat="44.86466417821622" lon="7.334359614348236"><ele>358.0</ele><time>2026-04-16T12:42:13.002Z</time></trkpt><trkpt lat="44.864763014855335" lon="7.334510606066765"><ele>358.0</ele><time>2026-04-16T12:42:14.002Z</time></trkpt><trkpt lat="44.864847398643725" lon="7.334629213357433"><ele>358.0</ele><time>2026-04-16T12:42:15.002Z</time></trkpt><trkpt lat="44.864918528797" lon="7.3346854326432265"><ele>357.79999999999995</ele><time>2026-04-16T12:42:16.002Z</time></trkpt><trkpt lat="44.864984287199775" lon="7.334747533431625"><ele>357.6</ele><time>2026-04-16T12:42:17.002Z</time></trkpt><trkpt lat="44.865052786727716" lon="7.334796384243549"><ele>357.4</ele><time>2026-04-16T12:42:18.002Z</time></trkpt><trkpt lat="44.865145000869724" lon="7.33476576702978"><ele>357.20000000000005</ele><time>2026-04-16T12:42:19.002Z</time></trkpt><trkpt lat="44.865248149558354" lon="7.334747219655234"><ele>357.0</ele><time>2026-04-16T12:42:20.002Z</time></trkpt><trkpt lat="44.8653448975423" lon="7.334722682847091"><ele>357.0</ele><time>2026-04-16T12:42:21.002Z</time></trkpt><trkpt lat="44.865441032051045" lon="7.334708131853495"><ele>357.0</ele><time>2026-04-16T12:42:22.002Z</time></trkpt><trkpt lat="44.865539074160694" lon="7.334707297202279"><ele>357.0</ele><time>2026-04-16T12:42:23.002Z</time></trkpt><trkpt lat="44.86562845773691" lon="7.334725270726946"><ele>357.0</ele><time>2026-04-16T12:42:24.002Z</time></trkpt><trkpt lat="44.865721342291955" lon="7.334775461677452"><ele>357.0</ele><time>2026-04-16T12:42:25.002Z</time></trkpt><trkpt lat="44.86579458657272" lon="7.33484424633722"><ele>357.0</ele><time>2026-04-16T12:42:26.002Z</time></trkpt><trkpt lat="44.865884213475695" lon="7.334957272723267"><ele>357.0</ele><time>2026-04-16T12:42:27.002Z</time></trkpt><trkpt lat="44.865987796514496" lon="7.335098579842584"><ele>357.0</ele><time>2026-04-16T12:42:28.002Z</time></trkpt><trkpt lat="44.86609535404897" lon="7.335241062987551"><ele>357.0</ele><time>2026-04-16T12:42:29.002Z</time></trkpt><trkpt lat="44.86620813969172" lon="7.33536099669208"><ele>356.6666666666667</ele><time>2026-04-16T12:42:30.002Z</time></trkpt><trkpt lat="44.86630226511995" lon="7.335536469608883"><ele>356.33333333333337</ele><time>2026-04-16T12:42:31.002Z</time></trkpt><trkpt lat="44.86641421689019" lon="7.33569420788639"><ele>356.0</ele><time>2026-04-16T12:42:32.002Z</time></trkpt><trkpt lat="44.86652161862832" lon="7.3358513622347195"><ele>355.6666666666667</ele><time>2026-04-16T12:42:33.002Z</time></trkpt><trkpt lat="44.86661625566813" lon="7.336005404165905"><ele>355.3333333333333</ele><time>2026-04-16T12:42:33.999Z</time></trkpt><trkpt lat="44.866725080518634" lon="7.336161127259447"><ele>355.0</ele><time>2026-04-16T12:42:34.999Z</time></trkpt><trkpt lat="44.86686079051395" lon="7.3363419336519495"><ele>355.0</ele><time>2026-04-16T12:42:35.999Z</time></trkpt><trkpt lat="44.867002749399646" lon="7.336552007249203"><ele>355.0</ele><time>2026-04-16T12:42:36.999Z</time></trkpt><trkpt lat="44.867153789885336" lon="7.336769755585507"><ele>355.0</ele><time>2026-04-16T12:42:37.999Z</time></trkpt><trkpt lat="44.86730210193769" lon="7.3369821334971785"><ele>355.0</ele><time>2026-04-16T12:42:38.999Z</time></trkpt><trkpt lat="44.86744100600845" lon="7.337194072110446"><ele>355.0</ele><time>2026-04-16T12:42:39.999Z</time></trkpt><trkpt lat="44.86758154727803" lon="7.337410211595845"><ele>355.0</ele><time>2026-04-16T12:42:40.999Z</time></trkpt><trkpt lat="44.867712273508275" lon="7.337620072418459"><ele>356.0</ele><time>2026-04-16T12:42:41.999Z</time></trkpt><trkpt lat="44.867838717369736" lon="7.337819576294968"><ele>357.0</ele><time>2026-04-16T12:42:42.999Z</time></trkpt><trkpt lat="44.86796175121022" lon="7.338014828102147"><ele>358.0</ele><time>2026-04-16T12:42:43.999Z</time></trkpt><trkpt lat="44.86809121411221" lon="7.3382155506217055"><ele>358.0</ele><time>2026-04-16T12:42:44.999Z</time></trkpt><trkpt lat="44.86822330671024" lon="7.338427719235345"><ele>358.0</ele><time>2026-04-16T12:42:45.999Z</time></trkpt><trkpt lat="44.868350317898575" lon="7.338652064465699"><ele>358.0</ele><time>2026-04-16T12:42:46.999Z</time></trkpt><trkpt lat="44.86848013619558" lon="7.338886275492885"><ele>358.66666666666663</ele><time>2026-04-16T12:42:47.999Z</time></trkpt><trkpt lat="44.86860759429433" lon="7.339132885854066"><ele>359.3333333333333</ele><time>2026-04-16T12:42:48.999Z</time></trkpt><trkpt lat="44.86873108827079" lon="7.33938592168121"><ele>360.0</ele><time>2026-04-16T12:42:50Z</time></trkpt><trkpt lat="44.86884604967874" lon="7.339639973276516"><ele>358.0</ele><time>2026-04-16T12:42:51Z</time></trkpt><trkpt lat="44.86895175596529" lon="7.339892348818355"><ele>356.0</ele><time>2026-04-16T12:42:52Z</time></trkpt><trkpt lat="44.8690520754914" lon="7.340146621862334"><ele>354.0</ele><time>2026-04-16T12:42:53Z</time></trkpt><trkpt lat="44.869136421532346" lon="7.340402340827299"><ele>354.0</ele><time>2026-04-16T12:42:54Z</time></trkpt><trkpt lat="44.86922178652611" lon="7.34064758478848"><ele>354.0</ele><time>2026-04-16T12:42:55Z</time></trkpt><trkpt lat="44.869306134770405" lon="7.340891524898121"><ele>354.0</ele><time>2026-04-16T12:42:56Z</time></trkpt><trkpt lat="44.86936986849547" lon="7.341114597775044"><ele>355.0</ele><time>2026-04-16T12:42:57Z</time></trkpt><trkpt lat="44.86942728377849" lon="7.341331998299484"><ele>356.0</ele><time>2026-04-16T12:42:58Z</time></trkpt><trkpt lat="44.86949201272195" lon="7.341549064933305"><ele>357.0</ele><time>2026-04-16T12:42:59Z</time></trkpt><trkpt lat="44.86954968576204" lon="7.341763183820627"><ele>357.0</ele><time>2026-04-16T12:43:00Z</time></trkpt><trkpt lat="44.86961314615208" lon="7.341982696887868"><ele>357.0</ele><time>2026-04-16T12:43:01Z</time></trkpt><trkpt lat="44.869678323351586" lon="7.342201924142189"><ele>357.0</ele><time>2026-04-16T12:43:02Z</time></trkpt><trkpt lat="44.86974218840295" lon="7.342422814131584"><ele>356.6666666666667</ele><time>2026-04-16T12:43:03Z</time></trkpt><trkpt lat="44.869805521701025" lon="7.342638819701687"><ele>356.33333333333337</ele><time>2026-04-16T12:43:04Z</time></trkpt><trkpt lat="44.86987113337093" lon="7.342857777655119"><ele>356.0</ele><time>2026-04-16T12:43:05Z</time></trkpt><trkpt lat="44.86994364910817" lon="7.343116554054409"><ele>356.0</ele><time>2026-04-16T12:43:06Z</time></trkpt><trkpt lat="44.87001890627548" lon="7.343389259458498"><ele>356.0</ele><time>2026-04-16T12:43:07Z</time></trkpt><trkpt lat="44.87008221031161" lon="7.343641473695181"><ele>356.0</ele><time>2026-04-16T12:43:08Z</time></trkpt><trkpt lat="44.870130720988264" lon="7.3438815493037035"><ele>355.33333333333337</ele><time>2026-04-16T12:43:09Z</time></trkpt><trkpt lat="44.87017425773991" lon="7.344110420911031"><ele>354.6666666666667</ele><time>2026-04-16T12:43:10Z</time></trkpt><trkpt lat="44.87021379217315" lon="7.344313473407489"><ele>354.0</ele><time>2026-04-16T12:43:11Z</time></trkpt><trkpt lat="44.8702482935527" lon="7.344505463867932"><ele>354.0</ele><time>2026-04-16T12:43:12Z</time></trkpt><trkpt lat="44.87028709734367" lon="7.344709365529583"><ele>354.0</ele><time>2026-04-16T12:43:13Z</time></trkpt><trkpt lat="44.87033668686254" lon="7.344943048073939"><ele>354.0</ele><time>2026-04-16T12:43:14Z</time></trkpt><trkpt lat="44.870361711397756" lon="7.345160435498804"><ele>354.0</ele><time>2026-04-16T12:43:15Z</time></trkpt><trkpt lat="44.87038845876665" lon="7.3453643431426014"><ele>354.0</ele><time>2026-04-16T12:43:16Z</time></trkpt><trkpt lat="44.87041483333557" lon="7.345556130659971"><ele>354.0</ele><time>2026-04-16T12:43:17Z</time></trkpt><trkpt lat="44.870445053313645" lon="7.345751152946264"><ele>354.0</ele><time>2026-04-16T12:43:18Z</time></trkpt><trkpt lat="44.87047808879133" lon="7.345943559222762"><ele>354.0</ele><time>2026-04-16T12:43:19Z</time></trkpt><trkpt lat="44.8705139633946" lon="7.346125123106592"><ele>354.0</ele><time>2026-04-16T12:43:20.001Z</time></trkpt><trkpt lat="44.870545256459486" lon="7.346303253516876"><ele>354.0</ele><time>2026-04-16T12:43:21.001Z</time></trkpt><trkpt lat="44.87058293601099" lon="7.346495628764155"><ele>354.0</ele><time>2026-04-16T12:43:22.001Z</time></trkpt><trkpt lat="44.87062869319505" lon="7.346694594979393"><ele>353.3333333333333</ele><time>2026-04-16T12:43:23.001Z</time></trkpt><trkpt lat="44.870682819503934" lon="7.346900155032391"><ele>352.66666666666663</ele><time>2026-04-16T12:43:24.001Z</time></trkpt><trkpt lat="44.87075748242486" lon="7.347135053615085"><ele>352.0</ele><time>2026-04-16T12:43:25.001Z</time></trkpt><trkpt lat="44.87082939148817" lon="7.347370426166388"><ele>352.0</ele><time>2026-04-16T12:43:26.001Z</time></trkpt><trkpt lat="44.870914326658834" lon="7.347593989424617"><ele>352.0</ele><time>2026-04-16T12:43:27.001Z</time></trkpt><trkpt lat="44.8710140281358" lon="7.347813081988348"><ele>352.0</ele><time>2026-04-16T12:43:28.001Z</time></trkpt><trkpt lat="44.871135308780666" lon="7.348027163769351"><ele>351.66666666666663</ele><time>2026-04-16T12:43:29.001Z</time></trkpt><trkpt lat="44.871272196520124" lon="7.348247372455659"><ele>351.3333333333333</ele><time>2026-04-16T12:43:30.001Z</time></trkpt><trkpt lat="44.871426862672884" lon="7.34846596263653"><ele>351.0</ele><time>2026-04-16T12:43:31.001Z</time></trkpt><trkpt lat="44.87159338155843" lon="7.348659214027554"><ele>350.0</ele><time>2026-04-16T12:43:32.001Z</time></trkpt><trkpt lat="44.8717740912817" lon="7.348823487426926"><ele>349.0</ele><time>2026-04-16T12:43:33.001Z</time></trkpt><trkpt lat="44.87195986516481" lon="7.3489621830381004"><ele>348.0</ele><time>2026-04-16T12:43:34.001Z</time></trkpt><trkpt lat="44.872151328923515" lon="7.349096158401842"><ele>348.0</ele><time>2026-04-16T12:43:35.001Z</time></trkpt><trkpt lat="44.87234032956993" lon="7.34922039643561"><ele>348.0</ele><time>2026-04-16T12:43:36.001Z</time></trkpt><trkpt lat="44.87252273888973" lon="7.349345649284041"><ele>348.0</ele><time>2026-04-16T12:43:37.001Z</time></trkpt><trkpt lat="44.87269509794464" lon="7.349467981238485"><ele>348.6666666666667</ele><time>2026-04-16T12:43:38.001Z</time></trkpt><trkpt lat="44.87287252605941" lon="7.349593698433911"><ele>349.33333333333337</ele><time>2026-04-16T12:43:39.001Z</time></trkpt><trkpt lat="44.87304575717479" lon="7.349726190026592"><ele>350.0</ele><time>2026-04-16T12:43:40.001Z</time></trkpt><trkpt lat="44.873222002802926" lon="7.349866517943797"><ele>350.0</ele><time>2026-04-16T12:43:41.001Z</time></trkpt><trkpt lat="44.87337800982636" lon="7.350011239124362"><ele>350.0</ele><time>2026-04-16T12:43:42.001Z</time></trkpt><trkpt lat="44.87354737784292" lon="7.350161964000528"><ele>350.0</ele><time>2026-04-16T12:43:43.001Z</time></trkpt><trkpt lat="44.87371753382473" lon="7.350326056033354"><ele>349.5</ele><time>2026-04-16T12:43:44.001Z</time></trkpt><trkpt lat="44.87390723240884" lon="7.350508146739682"><ele>349.0</ele><time>2026-04-16T12:43:45.001Z</time></trkpt><trkpt lat="44.874106928744126" lon="7.350698529314502"><ele>347.5</ele><time>2026-04-16T12:43:46.001Z</time></trkpt><trkpt lat="44.87432113658272" lon="7.350898003231602"><ele>346.0</ele><time>2026-04-16T12:43:47.001Z</time></trkpt><trkpt lat="44.874530117445126" lon="7.351090356783554"><ele>346.0</ele><time>2026-04-16T12:43:48.001Z</time></trkpt><trkpt lat="44.874736210602435" lon="7.351285333085799"><ele>346.0</ele><time>2026-04-16T12:43:49.001Z</time></trkpt><trkpt lat="44.87493892588512" lon="7.351491459666427"><ele>346.0</ele><time>2026-04-16T12:43:50.001Z</time></trkpt><trkpt lat="44.87513479020265" lon="7.351691446989282"><ele>346.0</ele><time>2026-04-16T12:43:51.001Z</time></trkpt><trkpt lat="44.87531811709714" lon="7.351881667501314"><ele>346.0</ele><time>2026-04-16T12:43:52.001Z</time></trkpt><trkpt lat="44.875496210536056" lon="7.352066082655335"><ele>346.0</ele><time>2026-04-16T12:43:53.001Z</time></trkpt><trkpt lat="44.87566851228952" lon="7.3522561154470925"><ele>346.0</ele><time>2026-04-16T12:43:54.001Z</time></trkpt><trkpt lat="44.875837494827714" lon="7.352442586450201"><ele>345.0</ele><time>2026-04-16T12:43:55.001Z</time></trkpt><trkpt lat="44.876032494285155" lon="7.352611369281921"><ele>344.0</ele><time>2026-04-16T12:43:56.002Z</time></trkpt><trkpt lat="44.87621892799008" lon="7.352804904039901"><ele>344.0</ele><time>2026-04-16T12:43:57.002Z</time></trkpt><trkpt lat="44.87641627765332" lon="7.3530056957375285"><ele>344.0</ele><time>2026-04-16T12:43:58.002Z</time></trkpt><trkpt lat="44.87660763281204" lon="7.353195970442633"><ele>344.5</ele><time>2026-04-16T12:43:59.002Z</time></trkpt><trkpt lat="44.87679290110165" lon="7.353379291729324"><ele>345.0</ele><time>2026-04-16T12:44:00.002Z</time></trkpt><trkpt lat="44.876984764550386" lon="7.353569603815226"><ele>345.0</ele><time>2026-04-16T12:44:01.002Z</time></trkpt><trkpt lat="44.87716807335235" lon="7.353764440270739"><ele>345.0</ele><time>2026-04-16T12:44:02.002Z</time></trkpt><trkpt lat="44.877279424366556" lon="7.354128393153745"><ele>345.5</ele><time>2026-04-16T12:44:03.002Z</time></trkpt><trkpt lat="44.87748028515688" lon="7.354365827234698"><ele>346.0</ele><time>2026-04-16T12:44:04.002Z</time></trkpt><trkpt lat="44.877675470939046" lon="7.354596099508983"><ele>345.0</ele><time>2026-04-16T12:44:05.002Z</time></trkpt><trkpt lat="44.87788354267995" lon="7.354816157516445"><ele>344.0</ele><time>2026-04-16T12:44:06.002Z</time></trkpt><trkpt lat="44.87812173165872" lon="7.354993745143048"><ele>344.0</ele><time>2026-04-16T12:44:07.002Z</time></trkpt><trkpt lat="44.878324398196106" lon="7.355104066216495"><ele>344.0</ele><time>2026-04-16T12:44:08.002Z</time></trkpt><trkpt lat="44.87851288773223" lon="7.35521648251553"><ele>344.0</ele><time>2026-04-16T12:44:09.002Z</time></trkpt><trkpt lat="44.878702529891925" lon="7.355339146262183"><ele>344.0</ele><time>2026-04-16T12:44:10.002Z</time></trkpt><trkpt lat="44.87886398322176" lon="7.355608647203625"><ele>344.0</ele><time>2026-04-16T12:44:11.002Z</time></trkpt><trkpt lat="44.87904285179829" lon="7.355819946244026"><ele>344.0</ele><time>2026-04-16T12:44:12.002Z</time></trkpt><trkpt lat="44.87922003056942" lon="7.356042962236909"><ele>344.0</ele><time>2026-04-16T12:44:13.002Z</time></trkpt><trkpt lat="44.87939354561532" lon="7.3562752317857685"><ele>344.5</ele><time>2026-04-16T12:44:14.002Z</time></trkpt><trkpt lat="44.87956928946913" lon="7.356513365728766"><ele>345.0</ele><time>2026-04-16T12:44:15.002Z</time></trkpt><trkpt lat="44.879723489833836" lon="7.35675040060788"><ele>345.0</ele><time>2026-04-16T12:44:16.002Z</time></trkpt><trkpt lat="44.87987990582547" lon="7.356992256225495"><ele>345.0</ele><time>2026-04-16T12:44:17.002Z</time></trkpt><trkpt lat="44.88003626222273" lon="7.357259339446625"><ele>344.0</ele><time>2026-04-16T12:44:18.002Z</time></trkpt><trkpt lat="44.880191748661694" lon="7.357535641895527"><ele>343.0</ele><time>2026-04-16T12:44:19.002Z</time></trkpt><trkpt lat="44.88034652801386" lon="7.357819810494687"><ele>343.0</ele><time>2026-04-16T12:44:20.002Z</time></trkpt><trkpt lat="44.88049513225277" lon="7.358105190131697"><ele>343.0</ele><time>2026-04-16T12:44:21.002Z</time></trkpt><trkpt lat="44.88063371299895" lon="7.358399742516693"><ele>343.0</ele><time>2026-04-16T12:44:22.002Z</time></trkpt><trkpt lat="44.88077041336859" lon="7.358697659926146"><ele>343.0</ele><time>2026-04-16T12:44:23.002Z</time></trkpt><trkpt lat="44.880895557034904" lon="7.358999651260925"><ele>343.0</ele><time>2026-04-16T12:44:24.002Z</time></trkpt><trkpt lat="44.881021275783624" lon="7.359318397084933"><ele>343.0</ele><time>2026-04-16T12:44:25.002Z</time></trkpt><trkpt lat="44.88114463850636" lon="7.359652392754763"><ele>342.5</ele><time>2026-04-16T12:44:26.002Z</time></trkpt><trkpt lat="44.88126743602556" lon="7.359991854446786"><ele>342.0</ele><time>2026-04-16T12:44:27.002Z</time></trkpt><trkpt lat="44.881390450311" lon="7.360342368946104"><ele>342.0</ele><time>2026-04-16T12:44:28.002Z</time></trkpt><trkpt lat="44.881512598882104" lon="7.360696715655774"><ele>342.0</ele><time>2026-04-16T12:44:29.002Z</time></trkpt><trkpt lat="44.881634299097726" lon="7.361055367102568"><ele>341.0</ele><time>2026-04-16T12:44:30.002Z</time></trkpt><trkpt lat="44.88174725860365" lon="7.361394706152865"><ele>340.0</ele><time>2026-04-16T12:44:31.002Z</time></trkpt><trkpt lat="44.881852430120965" lon="7.361710127658933"><ele>339.5</ele><time>2026-04-16T12:44:32.002Z</time></trkpt><trkpt lat="44.88195895665563" lon="7.362020290935113"><ele>339.0</ele><time>2026-04-16T12:44:33.002Z</time></trkpt><trkpt lat="44.88206657965931" lon="7.362342537211143"><ele>339.0</ele><time>2026-04-16T12:44:34.002Z</time></trkpt><trkpt lat="44.882170895053235" lon="7.362656769710994"><ele>339.0</ele><time>2026-04-16T12:44:35.003Z</time></trkpt><trkpt lat="44.88227652505949" lon="7.3629751419103195"><ele>339.5</ele><time>2026-04-16T12:44:36.003Z</time></trkpt><trkpt lat="44.88238611999964" lon="7.363287571164174"><ele>340.0</ele><time>2026-04-16T12:44:37.003Z</time></trkpt><trkpt lat="44.88249657027914" lon="7.363592612396614"><ele>339.0</ele><time>2026-04-16T12:44:38.003Z</time></trkpt><trkpt lat="44.88260611342677" lon="7.363911272673803"><ele>338.0</ele><time>2026-04-16T12:44:39.003Z</time></trkpt><trkpt lat="44.88271269588543" lon="7.364225811099475"><ele>338.0</ele><time>2026-04-16T12:44:40Z</time></trkpt><trkpt lat="44.88281932962108" lon="7.364548902593112"><ele>338.0</ele><time>2026-04-16T12:44:41Z</time></trkpt><trkpt lat="44.882927264387114" lon="7.3648703143807674"><ele>337.5</ele><time>2026-04-16T12:44:42Z</time></trkpt><trkpt lat="44.883033032504414" lon="7.365182351635738"><ele>337.0</ele><time>2026-04-16T12:44:43Z</time></trkpt><trkpt lat="44.88313623408887" lon="7.365492397589698"><ele>337.0</ele><time>2026-04-16T12:44:44Z</time></trkpt><trkpt lat="44.883240856528154" lon="7.365810289251478"><ele>337.0</ele><time>2026-04-16T12:44:45Z</time></trkpt><trkpt lat="44.88335182774963" lon="7.366137365442797"><ele>337.0</ele><time>2026-04-16T12:44:46Z</time></trkpt><trkpt lat="44.88346231517094" lon="7.366474608228357"><ele>337.0</ele><time>2026-04-16T12:44:47Z</time></trkpt><trkpt lat="44.883575733493515" lon="7.366813095285636"><ele>337.0</ele><time>2026-04-16T12:44:48Z</time></trkpt><trkpt lat="44.8836875353958" lon="7.3671491717654325"><ele>337.0</ele><time>2026-04-16T12:44:49Z</time></trkpt><trkpt lat="44.883801678706696" lon="7.367497572177246"><ele>336.5</ele><time>2026-04-16T12:44:50Z</time></trkpt><trkpt lat="44.883919027740404" lon="7.367849974031888"><ele>336.0</ele><time>2026-04-16T12:44:51Z</time></trkpt><trkpt lat="44.88403727092614" lon="7.368192209775104"><ele>336.0</ele><time>2026-04-16T12:44:52Z</time></trkpt><trkpt lat="44.88415775220479" lon="7.368534367308148"><ele>336.0</ele><time>2026-04-16T12:44:53Z</time></trkpt><trkpt lat="44.88426944387628" lon="7.368878532020554"><ele>336.0</ele><time>2026-04-16T12:44:54Z</time></trkpt><trkpt lat="44.88438322156129" lon="7.36922391183928"><ele>336.0</ele><time>2026-04-16T12:44:55Z</time></trkpt><trkpt lat="44.884497017972016" lon="7.369565027465084"><ele>336.5</ele><time>2026-04-16T12:44:56Z</time></trkpt><trkpt lat="44.884608276665276" lon="7.3699018864343175"><ele>337.0</ele><time>2026-04-16T12:44:57Z</time></trkpt><trkpt lat="44.884722101712725" lon="7.3702334612712015"><ele>335.5</ele><time>2026-04-16T12:44:58Z</time></trkpt><trkpt lat="44.88483487872812" lon="7.3705686843022695"><ele>334.0</ele><time>2026-04-16T12:44:59Z</time></trkpt><trkpt lat="44.88494995034326" lon="7.3709034005331"><ele>334.0</ele><time>2026-04-16T12:45:00Z</time></trkpt><trkpt lat="44.88505645910024" lon="7.371228429915253"><ele>334.0</ele><time>2026-04-16T12:45:01Z</time></trkpt><trkpt lat="44.8851607397476" lon="7.371551243198235"><ele>332.5</ele><time>2026-04-16T12:45:02Z</time></trkpt><trkpt lat="44.88525894312353" lon="7.371870308704162"><ele>331.0</ele><time>2026-04-16T12:45:03Z</time></trkpt><trkpt lat="44.885363525383" lon="7.372177059282663"><ele>330.5</ele><time>2026-04-16T12:45:04Z</time></trkpt><trkpt lat="44.88546946128597" lon="7.372478765422902"><ele>330.0</ele><time>2026-04-16T12:45:05Z</time></trkpt><trkpt lat="44.885564684164926" lon="7.372777201414853"><ele>329.5</ele><time>2026-04-16T12:45:06Z</time></trkpt><trkpt lat="44.885654153976105" lon="7.373070766673141"><ele>329.0</ele><time>2026-04-16T12:45:07Z</time></trkpt><trkpt lat="44.88574446717127" lon="7.373375240089391"><ele>329.0</ele><time>2026-04-16T12:45:08Z</time></trkpt><trkpt lat="44.88583714854587" lon="7.373681643700368"><ele>329.0</ele><time>2026-04-16T12:45:09Z</time></trkpt><trkpt lat="44.885927395876315" lon="7.373998190620892"><ele>328.5</ele><time>2026-04-16T12:45:10Z</time></trkpt><trkpt lat="44.88601861459736" lon="7.374322323079779"><ele>328.0</ele><time>2026-04-16T12:45:11Z</time></trkpt><trkpt lat="44.8861108780842" lon="7.3746394511556685"><ele>327.5</ele><time>2026-04-16T12:45:12Z</time></trkpt><trkpt lat="44.88620132053535" lon="7.374949726836158"><ele>327.0</ele><time>2026-04-16T12:45:13Z</time></trkpt><trkpt lat="44.88628721246251" lon="7.375261714538175"><ele>327.0</ele><time>2026-04-16T12:45:14Z</time></trkpt><trkpt lat="44.886374121861344" lon="7.375585295460249"><ele>327.0</ele><time>2026-04-16T12:45:15Z</time></trkpt><trkpt lat="44.88645775536657" lon="7.375902019562307"><ele>327.0</ele><time>2026-04-16T12:45:16Z</time></trkpt><trkpt lat="44.88654362557941" lon="7.376212648882145"><ele>327.0</ele><time>2026-04-16T12:45:17Z</time></trkpt><trkpt lat="44.88662722576233" lon="7.376516195520636"><ele>327.0</ele><time>2026-04-16T12:45:18.001Z</time></trkpt><trkpt lat="44.88671281742071" lon="7.376818514503972"><ele>327.0</ele><time>2026-04-16T12:45:19.001Z</time></trkpt><trkpt lat="44.88680070612662" lon="7.377116532761383"><ele>326.0</ele><time>2026-04-16T12:45:20.001Z</time></trkpt><trkpt lat="44.886887145502676" lon="7.377400086523682"><ele>325.0</ele><time>2026-04-16T12:45:21.001Z</time></trkpt><trkpt lat="44.88696736525667" lon="7.377681589818818"><ele>324.0</ele><time>2026-04-16T12:45:22.001Z</time></trkpt><trkpt lat="44.88704712675291" lon="7.377962834170285"><ele>323.6666666666667</ele><time>2026-04-16T12:45:23.001Z</time></trkpt><trkpt lat="44.88712833978821" lon="7.378242282615703"><ele>323.33333333333337</ele><time>2026-04-16T12:45:24.001Z</time></trkpt><trkpt lat="44.88721374688137" lon="7.378534398163998"><ele>323.0</ele><time>2026-04-16T12:45:25.001Z</time></trkpt><trkpt lat="44.887300935973514" lon="7.378833941814756"><ele>323.0</ele><time>2026-04-16T12:45:26.001Z</time></trkpt><trkpt lat="44.88738832112182" lon="7.379135976431763"><ele>323.0</ele><time>2026-04-16T12:45:27.001Z</time></trkpt><trkpt lat="44.88747283563169" lon="7.379435484840994"><ele>322.5</ele><time>2026-04-16T12:45:28.001Z</time></trkpt><trkpt lat="44.88755958596921" lon="7.37973718103423"><ele>322.0</ele><time>2026-04-16T12:45:29.001Z</time></trkpt><trkpt lat="44.887646985966704" lon="7.380038466115886"><ele>321.5</ele><time>2026-04-16T12:45:30.001Z</time></trkpt><trkpt lat="44.88773485543867" lon="7.380335025212811"><ele>321.0</ele><time>2026-04-16T12:45:31.001Z</time></trkpt><trkpt lat="44.88782324321853" lon="7.380630309933311"><ele>321.0</ele><time>2026-04-16T12:45:32.001Z</time></trkpt><trkpt lat="44.887908763905514" lon="7.380917639542018"><ele>321.0</ele><time>2026-04-16T12:45:33.001Z</time></trkpt><trkpt lat="44.88798364368758" lon="7.381208119062544"><ele>321.0</ele><time>2026-04-16T12:45:34.001Z</time></trkpt><trkpt lat="44.8880685345082" lon="7.3814866171119355"><ele>321.0</ele><time>2026-04-16T12:45:35.001Z</time></trkpt><trkpt lat="44.88815464986132" lon="7.381760418598785"><ele>321.0</ele><time>2026-04-16T12:45:36.001Z</time></trkpt><trkpt lat="44.88823227583496" lon="7.3820324369321515"><ele>321.0</ele><time>2026-04-16T12:45:37.001Z</time></trkpt><trkpt lat="44.88829618420775" lon="7.382288694202282"><ele>321.3333333333333</ele><time>2026-04-16T12:45:38.001Z</time></trkpt><trkpt lat="44.88836806509467" lon="7.382525852825816"><ele>321.66666666666663</ele><time>2026-04-16T12:45:39.001Z</time></trkpt><trkpt lat="44.88841734561488" lon="7.3827656121641185"><ele>322.0</ele><time>2026-04-16T12:45:40.001Z</time></trkpt><trkpt lat="44.88848543285549" lon="7.383013047602834"><ele>321.3333333333333</ele><time>2026-04-16T12:45:41.001Z</time></trkpt><trkpt lat="44.88856250979812" lon="7.383263059857629"><ele>320.6666666666667</ele><time>2026-04-16T12:45:42.001Z</time></trkpt><trkpt lat="44.88863517245319" lon="7.383509908227177"><ele>320.0</ele><time>2026-04-16T12:45:43.001Z</time></trkpt><trkpt lat="44.88870899068844" lon="7.383761292460978"><ele>319.6666666666667</ele><time>2026-04-16T12:45:44.001Z</time></trkpt><trkpt lat="44.88879212512731" lon="7.384022045961697"><ele>319.3333333333333</ele><time>2026-04-16T12:45:45.001Z</time></trkpt><trkpt lat="44.888861158173164" lon="7.384285944542994"><ele>319.0</ele><time>2026-04-16T12:45:46.001Z</time></trkpt><trkpt lat="44.88893470676184" lon="7.38454730672645"><ele>318.66666666666663</ele><time>2026-04-16T12:45:47.001Z</time></trkpt><trkpt lat="44.88900191467844" lon="7.384774340195879"><ele>318.3333333333333</ele><time>2026-04-16T12:45:48.001Z</time></trkpt><trkpt lat="44.88906986302875" lon="7.385014658561529"><ele>318.0</ele><time>2026-04-16T12:45:49.001Z</time></trkpt><trkpt lat="44.889149258928654" lon="7.38526561628278"><ele>317.3333333333333</ele><time>2026-04-16T12:45:50.001Z</time></trkpt><trkpt lat="44.88922945833492" lon="7.385533964589493"><ele>316.66666666666663</ele><time>2026-04-16T12:45:51.001Z</time></trkpt><trkpt lat="44.889307876126125" lon="7.385817065961623"><ele>316.0</ele><time>2026-04-16T12:45:52.001Z</time></trkpt><trkpt lat="44.88938841915507" lon="7.386097431881095"><ele>316.0</ele><time>2026-04-16T12:45:53.001Z</time></trkpt><trkpt lat="44.88948109096945" lon="7.386396620652824"><ele>316.0</ele><time>2026-04-16T12:45:54.002Z</time></trkpt><trkpt lat="44.889583870320244" lon="7.386718637236926"><ele>316.0</ele><time>2026-04-16T12:45:55.002Z</time></trkpt><trkpt lat="44.88969221777847" lon="7.387056738119254"><ele>316.0</ele><time>2026-04-16T12:45:56.002Z</time></trkpt><trkpt lat="44.889796619294955" lon="7.387395734773622"><ele>315.5</ele><time>2026-04-16T12:45:57.002Z</time></trkpt><trkpt lat="44.889900358935954" lon="7.387751927681277"><ele>315.0</ele><time>2026-04-16T12:45:58.002Z</time></trkpt><trkpt lat="44.89000628992987" lon="7.3881251724963874"><ele>315.0</ele><time>2026-04-16T12:45:59.002Z</time></trkpt><trkpt lat="44.89011266689991" lon="7.388503835583106"><ele>315.0</ele><time>2026-04-16T12:46:00.002Z</time></trkpt><trkpt lat="44.89021534185566" lon="7.388876467987679"><ele>314.0</ele><time>2026-04-16T12:46:01.002Z</time></trkpt><trkpt lat="44.89031737162475" lon="7.389247592910714"><ele>313.0</ele><time>2026-04-16T12:46:02.002Z</time></trkpt><trkpt lat="44.890420165517874" lon="7.389598788781515"><ele>313.0</ele><time>2026-04-16T12:46:03.002Z</time></trkpt><trkpt lat="44.890510371119696" lon="7.389930517642189"><ele>313.0</ele><time>2026-04-16T12:46:04.002Z</time></trkpt><trkpt lat="44.890603874228596" lon="7.390243040981311"><ele>313.0</ele><time>2026-04-16T12:46:05.002Z</time></trkpt><trkpt lat="44.89069735412197" lon="7.390557217049249"><ele>313.0</ele><time>2026-04-16T12:46:06.002Z</time></trkpt><trkpt lat="44.89078594468913" lon="7.390881773011914"><ele>313.0</ele><time>2026-04-16T12:46:07.002Z</time></trkpt><trkpt lat="44.89087843749262" lon="7.39121074704596"><ele>313.0</ele><time>2026-04-16T12:46:08.002Z</time></trkpt><trkpt lat="44.890971696198854" lon="7.391527644546525"><ele>313.0</ele><time>2026-04-16T12:46:09.002Z</time></trkpt><trkpt lat="44.891059865441996" lon="7.391837620812541"><ele>313.0</ele><time>2026-04-16T12:46:10.002Z</time></trkpt><trkpt lat="44.891137313355806" lon="7.392132208044674"><ele>313.3333333333333</ele><time>2026-04-16T12:46:11.002Z</time></trkpt><trkpt lat="44.89120776981458" lon="7.392427605561123"><ele>313.6666666666667</ele><time>2026-04-16T12:46:12.002Z</time></trkpt><trkpt lat="44.8912802588996" lon="7.392668348795883"><ele>314.0</ele><time>2026-04-16T12:46:13.002Z</time></trkpt><trkpt lat="44.8913582966226" lon="7.392921678869761"><ele>314.33333333333337</ele><time>2026-04-16T12:46:14.002Z</time></trkpt><trkpt lat="44.89143537464653" lon="7.393180213259482"><ele>314.6666666666667</ele><time>2026-04-16T12:46:15.002Z</time></trkpt><trkpt lat="44.89151103927861" lon="7.393439059607885"><ele>315.0</ele><time>2026-04-16T12:46:16.002Z</time></trkpt><trkpt lat="44.89159150792271" lon="7.39369092285713"><ele>315.0</ele><time>2026-04-16T12:46:17.002Z</time></trkpt><trkpt lat="44.89167850353678" lon="7.3939328620888825"><ele>315.0</ele><time>2026-04-16T12:46:18.002Z</time></trkpt><trkpt lat="44.89177217652063" lon="7.3941743838769245"><ele>315.0</ele><time>2026-04-16T12:46:19.002Z</time></trkpt><trkpt lat="44.89186199567464" lon="7.394407832468714"><ele>313.6666666666667</ele><time>2026-04-16T12:46:20.002Z</time></trkpt><trkpt lat="44.891946550841894" lon="7.394650992965615"><ele>312.33333333333337</ele><time>2026-04-16T12:46:21.002Z</time></trkpt><trkpt lat="44.89205113823534" lon="7.394872555224012"><ele>311.0</ele><time>2026-04-16T12:46:22.002Z</time></trkpt><trkpt lat="44.892150771458226" lon="7.39509292563037"><ele>310.6666666666667</ele><time>2026-04-16T12:46:23.002Z</time></trkpt><trkpt lat="44.89225585299226" lon="7.395315461357178"><ele>310.3333333333333</ele><time>2026-04-16T12:46:24.002Z</time></trkpt><trkpt lat="44.89236990328614" lon="7.395561464151777"><ele>310.0</ele><time>2026-04-16T12:46:25.002Z</time></trkpt><trkpt lat="44.89249331349595" lon="7.395804967329414"><ele>309.5</ele><time>2026-04-16T12:46:26.002Z</time></trkpt><trkpt lat="44.89263780963466" lon="7.396061113561644"><ele>309.0</ele><time>2026-04-16T12:46:27.002Z</time></trkpt><trkpt lat="44.8927872950984" lon="7.396324738180612"><ele>310.0</ele><time>2026-04-16T12:46:28.002Z</time></trkpt><trkpt lat="44.892951967062764" lon="7.396600893954802"><ele>311.0</ele><time>2026-04-16T12:46:29.002Z</time></trkpt><trkpt lat="44.893122936885625" lon="7.396875493890224"><ele>311.0</ele><time>2026-04-16T12:46:30.003Z</time></trkpt><trkpt lat="44.89328900374358" lon="7.397143169897222"><ele>311.0</ele><time>2026-04-16T12:46:31.003Z</time></trkpt><trkpt lat="44.893454641174415" lon="7.397414802355959"><ele>311.0</ele><time>2026-04-16T12:46:32.003Z</time></trkpt><trkpt lat="44.89362641764152" lon="7.397696264740035"><ele>311.0</ele><time>2026-04-16T12:46:33.003Z</time></trkpt><trkpt lat="44.89380308597096" lon="7.397993686192325"><ele>308.5</ele><time>2026-04-16T12:46:34.003Z</time></trkpt><trkpt lat="44.89397939869224" lon="7.398295362041401"><ele>306.0</ele><time>2026-04-16T12:46:35.003Z</time></trkpt><trkpt lat="44.89415820155244" lon="7.398600376699305"><ele>305.5</ele><time>2026-04-16T12:46:36.003Z</time></trkpt><trkpt lat="44.89433599775425" lon="7.39890173102597"><ele>305.0</ele><time>2026-04-16T12:46:37.003Z</time></trkpt><trkpt lat="44.894513215335515" lon="7.3991986203631805"><ele>305.0</ele><time>2026-04-16T12:46:38.003Z</time></trkpt><trkpt lat="44.894688744430525" lon="7.3994910110376715"><ele>305.0</ele><time>2026-04-16T12:46:39.003Z</time></trkpt><trkpt lat="44.894878219312126" lon="7.39979456071124"><ele>305.0</ele><time>2026-04-16T12:46:40.003Z</time></trkpt><trkpt lat="44.89506068663127" lon="7.400120057311544"><ele>305.0</ele><time>2026-04-16T12:46:41.003Z</time></trkpt><trkpt lat="44.89524200092898" lon="7.400448203304701"><ele>305.0</ele><time>2026-04-16T12:46:42.003Z</time></trkpt><trkpt lat="44.89541673791724" lon="7.40077435980788"><ele>305.0</ele><time>2026-04-16T12:46:43.003Z</time></trkpt><trkpt lat="44.89557607208769" lon="7.401102209271632"><ele>304.5</ele><time>2026-04-16T12:46:44.003Z</time></trkpt><trkpt lat="44.895729851140615" lon="7.401438719264016"><ele>304.0</ele><time>2026-04-16T12:46:45.003Z</time></trkpt><trkpt lat="44.89590070172851" lon="7.4017599509499545"><ele>304.0</ele><time>2026-04-16T12:46:46Z</time></trkpt><trkpt lat="44.89604195861326" lon="7.402091218407944"><ele>304.0</ele><time>2026-04-16T12:46:47Z</time></trkpt><trkpt lat="44.89615208294376" lon="7.402436360540935"><ele>304.0</ele><time>2026-04-16T12:46:48Z</time></trkpt><trkpt lat="44.89625852618016" lon="7.402795890739231"><ele>304.0</ele><time>2026-04-16T12:46:49Z</time></trkpt><trkpt lat="44.89636251729753" lon="7.403143660228409"><ele>305.0</ele><time>2026-04-16T12:46:50Z</time></trkpt><trkpt lat="44.89645482729784" lon="7.403471430471157"><ele>306.0</ele><time>2026-04-16T12:46:51Z</time></trkpt><trkpt lat="44.89653962365018" lon="7.403775856885477"><ele>306.3333333333333</ele><time>2026-04-16T12:46:52Z</time></trkpt><trkpt lat="44.89662321855278" lon="7.404063919228451"><ele>306.66666666666663</ele><time>2026-04-16T12:46:53Z</time></trkpt><trkpt lat="44.896703874762515" lon="7.404348832895896"><ele>307.0</ele><time>2026-04-16T12:46:54Z</time></trkpt><trkpt lat="44.89678082410029" lon="7.404641716823701"><ele>305.0</ele><time>2026-04-16T12:46:55Z</time></trkpt><trkpt lat="44.89686158349786" lon="7.404936315553977"><ele>303.0</ele><time>2026-04-16T12:46:56Z</time></trkpt><trkpt lat="44.89694427118319" lon="7.405241224442916"><ele>301.0</ele><time>2026-04-16T12:46:57Z</time></trkpt><trkpt lat="44.89703236625022" lon="7.405555630191877"><ele>299.0</ele><time>2026-04-16T12:46:58Z</time></trkpt><trkpt lat="44.89711448424551" lon="7.4058706603857365"><ele>299.0</ele><time>2026-04-16T12:46:59Z</time></trkpt><trkpt lat="44.89719982480863" lon="7.4061837545923"><ele>299.0</ele><time>2026-04-16T12:47:00Z</time></trkpt><trkpt lat="44.89728879740893" lon="7.406508434610585"><ele>299.0</ele><time>2026-04-16T12:47:01Z</time></trkpt><trkpt lat="44.89738560950522" lon="7.40686382463118"><ele>299.0</ele><time>2026-04-16T12:47:02Z</time></trkpt><trkpt lat="44.897480276926814" lon="7.407213429804525"><ele>299.0</ele><time>2026-04-16T12:47:03Z</time></trkpt><trkpt lat="44.89757565745609" lon="7.4075527489825985"><ele>299.0</ele><time>2026-04-16T12:47:04Z</time></trkpt><trkpt lat="44.89766670481955" lon="7.407881035688398"><ele>298.5</ele><time>2026-04-16T12:47:05Z</time></trkpt><trkpt lat="44.89775799166826" lon="7.408197980897661"><ele>298.0</ele><time>2026-04-16T12:47:06Z</time></trkpt><trkpt lat="44.89784530741333" lon="7.408505368361982"><ele>298.0</ele><time>2026-04-16T12:47:07Z</time></trkpt><trkpt lat="44.89793104115034" lon="7.408814540424421"><ele>298.0</ele><time>2026-04-16T12:47:08Z</time></trkpt><trkpt lat="44.89801233578575" lon="7.409121216617307"><ele>297.5</ele><time>2026-04-16T12:47:09Z</time></trkpt><trkpt lat="44.89809975733612" lon="7.409452654487066"><ele>297.0</ele><time>2026-04-16T12:47:10Z</time></trkpt><trkpt lat="44.89819699508468" lon="7.409809135493957"><ele>297.0</ele><time>2026-04-16T12:47:11Z</time></trkpt><trkpt lat="44.898285475440346" lon="7.41013363066996"><ele>297.0</ele><time>2026-04-16T12:47:12Z</time></trkpt><trkpt lat="44.89836851721842" lon="7.410409387939952"><ele>296.6666666666667</ele><time>2026-04-16T12:47:13.001Z</time></trkpt><trkpt lat="44.89844563522193" lon="7.410666477164553"><ele>296.33333333333337</ele><time>2026-04-16T12:47:14.001Z</time></trkpt><trkpt lat="44.89851518234365" lon="7.410918780523828"><ele>296.0</ele><time>2026-04-16T12:47:15.001Z</time></trkpt><trkpt lat="44.89858541957807" lon="7.411177949837326"><ele>296.33333333333337</ele><time>2026-04-16T12:47:16.001Z</time></trkpt><trkpt lat="44.898655929227935" lon="7.411443594104899"><ele>296.6666666666667</ele><time>2026-04-16T12:47:17.001Z</time></trkpt><trkpt lat="44.89873034385245" lon="7.411712592758264"><ele>297.0</ele><time>2026-04-16T12:47:18.001Z</time></trkpt><trkpt lat="44.89880562903495" lon="7.411977841876415"><ele>296.3333333333333</ele><time>2026-04-16T12:47:19.001Z</time></trkpt><trkpt lat="44.8988841731309" lon="7.412252279657179"><ele>295.66666666666663</ele><time>2026-04-16T12:47:20.001Z</time></trkpt><trkpt lat="44.8989579120598" lon="7.412523988918337"><ele>295.0</ele><time>2026-04-16T12:47:21.001Z</time></trkpt><trkpt lat="44.89903030764845" lon="7.412790059364257"><ele>294.3333333333333</ele><time>2026-04-16T12:47:22.001Z</time></trkpt><trkpt lat="44.89910500174678" lon="7.413064618973311"><ele>293.6666666666667</ele><time>2026-04-16T12:47:23.001Z</time></trkpt><trkpt lat="44.89918569664836" lon="7.4133418132925675"><ele>293.0</ele><time>2026-04-16T12:47:24.001Z</time></trkpt><trkpt lat="44.89926437843878" lon="7.413623442959108"><ele>293.0</ele><time>2026-04-16T12:47:25.001Z</time></trkpt><trkpt lat="44.8993403458813" lon="7.413905216162766"><ele>293.0</ele><time>2026-04-16T12:47:26.001Z</time></trkpt><trkpt lat="44.89941671235542" lon="7.414186840846653"><ele>293.0</ele><time>2026-04-16T12:47:27.001Z</time></trkpt><trkpt lat="44.899495044856344" lon="7.4144685544183275"><ele>292.6666666666667</ele><time>2026-04-16T12:47:28.001Z</time></trkpt><trkpt lat="44.89957108673062" lon="7.414750675931068"><ele>292.3333333333333</ele><time>2026-04-16T12:47:29.001Z</time></trkpt><trkpt lat="44.89964751496401" lon="7.415033343328843"><ele>292.0</ele><time>2026-04-16T12:47:30.001Z</time></trkpt><trkpt lat="44.89972088796872" lon="7.4153092589509475"><ele>292.0</ele><time>2026-04-16T12:47:31.001Z</time></trkpt><trkpt lat="44.89979779858388" lon="7.415581500729881"><ele>292.0</ele><time>2026-04-16T12:47:32.001Z</time></trkpt><trkpt lat="44.89987372856605" lon="7.415855833175203"><ele>292.0</ele><time>2026-04-16T12:47:33.001Z</time></trkpt><trkpt lat="44.89994668106002" lon="7.416130665222003"><ele>292.0</ele><time>2026-04-16T12:47:34.001Z</time></trkpt><trkpt lat="44.900021018097256" lon="7.416408316033182"><ele>292.0</ele><time>2026-04-16T12:47:35.001Z</time></trkpt><trkpt lat="44.90009818995395" lon="7.416692134446426"><ele>292.0</ele><time>2026-04-16T12:47:36.001Z</time></trkpt><trkpt lat="44.90017488078814" lon="7.4169757425527925"><ele>292.0</ele><time>2026-04-16T12:47:37.001Z</time></trkpt><trkpt lat="44.90025368294828" lon="7.417267418527054"><ele>292.0</ele><time>2026-04-16T12:47:38.001Z</time></trkpt><trkpt lat="44.900335374802616" lon="7.417554213518097"><ele>292.0</ele><time>2026-04-16T12:47:39.001Z</time></trkpt><trkpt lat="44.900412742308106" lon="7.417839265054933"><ele>291.3333333333333</ele><time>2026-04-16T12:47:40.001Z</time></trkpt><trkpt lat="44.900488841755944" lon="7.418122375355078"><ele>290.6666666666667</ele><time>2026-04-16T12:47:41.001Z</time></trkpt><trkpt lat="44.90056904412862" lon="7.41840164878496"><ele>290.0</ele><time>2026-04-16T12:47:42.001Z</time></trkpt><trkpt lat="44.90064216299906" lon="7.4186594231710155"><ele>290.33333333333337</ele><time>2026-04-16T12:47:43.001Z</time></trkpt><trkpt lat="44.900715946636154" lon="7.418918903524758"><ele>290.6666666666667</ele><time>2026-04-16T12:47:44.001Z</time></trkpt><trkpt lat="44.90078852010053" lon="7.419168489323222"><ele>291.0</ele><time>2026-04-16T12:47:45.001Z</time></trkpt><trkpt lat="44.90086302805824" lon="7.41941801605158"><ele>291.0</ele><time>2026-04-16T12:47:46.001Z</time></trkpt><trkpt lat="44.90094419973714" lon="7.419666092744188"><ele>291.0</ele><time>2026-04-16T12:47:47.001Z</time></trkpt><trkpt lat="44.901030511816806" lon="7.419915876010839"><ele>291.0</ele><time>2026-04-16T12:47:48.001Z</time></trkpt><trkpt lat="44.90112576487296" lon="7.420169959898143"><ele>291.0</ele><time>2026-04-16T12:47:49.001Z</time></trkpt><trkpt lat="44.90123166513042" lon="7.420421594043599"><ele>291.0</ele><time>2026-04-16T12:47:50.001Z</time></trkpt><trkpt lat="44.90134247473086" lon="7.420666616501294"><ele>291.0</ele><time>2026-04-16T12:47:51.001Z</time></trkpt><trkpt lat="44.90146046632513" lon="7.4209113487010185"><ele>290.6666666666667</ele><time>2026-04-16T12:47:52.002Z</time></trkpt><trkpt lat="44.90158737019658" lon="7.421147797771577"><ele>290.33333333333337</ele><time>2026-04-16T12:47:53.002Z</time></trkpt><trkpt lat="44.90172438541307" lon="7.42138041082698"><ele>290.0</ele><time>2026-04-16T12:47:54.002Z</time></trkpt><trkpt lat="44.901861112049495" lon="7.421611007663447"><ele>290.0</ele><time>2026-04-16T12:47:55.002Z</time></trkpt><trkpt lat="44.90201127162342" lon="7.421846344873093"><ele>290.0</ele><time>2026-04-16T12:47:56.002Z</time></trkpt><trkpt lat="44.90216986116277" lon="7.42208192802703"><ele>289.5</ele><time>2026-04-16T12:47:57.002Z</time></trkpt><trkpt lat="44.902337201181965" lon="7.422307094079996"><ele>289.0</ele><time>2026-04-16T12:47:58.002Z</time></trkpt><trkpt lat="44.902511914739925" lon="7.422522942207874"><ele>289.0</ele><time>2026-04-16T12:47:59.002Z</time></trkpt><trkpt lat="44.90270406291504" lon="7.422744167842155"><ele>289.0</ele><time>2026-04-16T12:48:00.002Z</time></trkpt><trkpt lat="44.902893866146066" lon="7.422943794884333"><ele>287.5</ele><time>2026-04-16T12:48:01.002Z</time></trkpt><trkpt lat="44.90310118118002" lon="7.423145114762081"><ele>286.0</ele><time>2026-04-16T12:48:02.002Z</time></trkpt><trkpt lat="44.903310978499526" lon="7.423331612549762"><ele>287.0</ele><time>2026-04-16T12:48:03.002Z</time></trkpt><trkpt lat="44.90352399972907" lon="7.423513532211329"><ele>288.0</ele><time>2026-04-16T12:48:04.002Z</time></trkpt><trkpt lat="44.903745042221516" lon="7.42369144862566"><ele>288.0</ele><time>2026-04-16T12:48:05.002Z</time></trkpt><trkpt lat="44.90395685882471" lon="7.423874638948697"><ele>288.0</ele><time>2026-04-16T12:48:06.002Z</time></trkpt><trkpt lat="44.904166513470535" lon="7.42406360703527"><ele>287.5</ele><time>2026-04-16T12:48:07.002Z</time></trkpt><trkpt lat="44.90437807289404" lon="7.424267176694626"><ele>287.0</ele><time>2026-04-16T12:48:08.002Z</time></trkpt><trkpt lat="44.9045842236623" lon="7.424486913707965"><ele>285.5</ele><time>2026-04-16T12:48:09.002Z</time></trkpt><trkpt lat="44.90477918187103" lon="7.424726109031257"><ele>284.0</ele><time>2026-04-16T12:48:10.002Z</time></trkpt><trkpt lat="44.90497432627799" lon="7.424977971949578"><ele>282.5</ele><time>2026-04-16T12:48:11.002Z</time></trkpt><trkpt lat="44.90514572920603" lon="7.425235703523181"><ele>281.0</ele><time>2026-04-16T12:48:12.002Z</time></trkpt><trkpt lat="44.90530422579591" lon="7.425493826334014"><ele>281.0</ele><time>2026-04-16T12:48:13.002Z</time></trkpt><trkpt lat="44.90544653573949" lon="7.425753084683911"><ele>281.0</ele><time>2026-04-16T12:48:14.002Z</time></trkpt><trkpt lat="44.90558739050432" lon="7.4260152660827785"><ele>281.0</ele><time>2026-04-16T12:48:15.002Z</time></trkpt><trkpt lat="44.90571826808915" lon="7.426297768007686"><ele>281.0</ele><time>2026-04-16T12:48:16.002Z</time></trkpt><trkpt lat="44.905846174270366" lon="7.426582761866902"><ele>282.5</ele><time>2026-04-16T12:48:17.002Z</time></trkpt><trkpt lat="44.905975140688106" lon="7.426862440858642"><ele>284.0</ele><time>2026-04-16T12:48:18.002Z</time></trkpt><trkpt lat="44.906084882337716" lon="7.4271715317276685"><ele>284.33333333333337</ele><time>2026-04-16T12:48:19.002Z</time></trkpt><trkpt lat="44.90618131849823" lon="7.427443855817262"><ele>284.6666666666667</ele><time>2026-04-16T12:48:20.002Z</time></trkpt><trkpt lat="44.90627045627321" lon="7.427694810125911"><ele>285.0</ele><time>2026-04-16T12:48:21.002Z</time></trkpt><trkpt lat="44.90635197392434" lon="7.427922852978404"><ele>284.3333333333333</ele><time>2026-04-16T12:48:22.002Z</time></trkpt><trkpt lat="44.906435477221635" lon="7.428132459168693"><ele>283.66666666666663</ele><time>2026-04-16T12:48:23.002Z</time></trkpt><trkpt lat="44.90651058949038" lon="7.428328944421137"><ele>283.0</ele><time>2026-04-16T12:48:24.002Z</time></trkpt><trkpt lat="44.906574960370186" lon="7.428539379675188"><ele>283.0</ele><time>2026-04-16T12:48:25.002Z</time></trkpt><trkpt lat="44.90663026720752" lon="7.428778072069524"><ele>283.0</ele><time>2026-04-16T12:48:26.002Z</time></trkpt><trkpt lat="44.90667535549761" lon="7.429021127475762"><ele>283.0</ele><time>2026-04-16T12:48:27.002Z</time></trkpt><trkpt lat="44.90672712708962" lon="7.429243645662311"><ele>282.75</ele><time>2026-04-16T12:48:28.002Z</time></trkpt><trkpt lat="44.90679976209545" lon="7.429433681332022"><ele>282.5</ele><time>2026-04-16T12:48:29.003Z</time></trkpt><trkpt lat="44.9068670376433" lon="7.429584609549485"><ele>282.25</ele><time>2026-04-16T12:48:30.003Z</time></trkpt><trkpt lat="44.906928105996265" lon="7.429706570780197"><ele>282.0</ele><time>2026-04-16T12:48:31.003Z</time></trkpt><trkpt lat="44.906970292305665" lon="7.4298093686596305"><ele>281.8333333333333</ele><time>2026-04-16T12:48:32.003Z</time></trkpt><trkpt lat="44.90698123497676" lon="7.4299191773271795"><ele>281.6666666666667</ele><time>2026-04-16T12:48:33.003Z</time></trkpt><trkpt lat="44.90696313380952" lon="7.430028199962687"><ele>281.5</ele><time>2026-04-16T12:48:34.003Z</time></trkpt><trkpt lat="44.90694778688846" lon="7.430143360710028"><ele>281.33333333333337</ele><time>2026-04-16T12:48:35.003Z</time></trkpt><trkpt lat="44.906952960999654" lon="7.430269633776373"><ele>281.1666666666667</ele><time>2026-04-16T12:48:36.003Z</time></trkpt><trkpt lat="44.90697898270198" lon="7.4303789143551375"><ele>281.0</ele><time>2026-04-16T12:48:38.003Z</time></trkpt><trkpt lat="44.90691199212655" lon="7.430429983708914"><ele>281.0</ele><time>2026-04-16T12:50:31.003Z</time></trkpt><trkpt lat="44.90689184986537" lon="7.430569566793209"><ele>281.0</ele><time>2026-04-16T12:53:11.002Z</time></trkpt><trkpt lat="44.906658217538954" lon="7.4307302101953265"><ele>281.0</ele><time>2026-04-16T12:53:12.002Z</time></trkpt><trkpt lat="44.9065936767711" lon="7.430742790220849"><ele>281.0</ele><time>2026-04-16T12:53:15.002Z</time></trkpt><trkpt lat="44.906672076364224" lon="7.430716920650967"><ele>281.0</ele><time>2026-04-16T12:53:26.001Z</time></trkpt><trkpt lat="44.90691077978552" lon="7.430554382104025"><ele>281.0</ele><time>2026-04-16T12:53:34.001Z</time></trkpt><trkpt lat="44.90690379447888" lon="7.430373363676365"><ele>281.0</ele><time>2026-04-16T12:54:18.002Z</time></trkpt><trkpt lat="44.907057859319096" lon="7.430098673009925"><ele>282.0</ele><time>2026-04-16T12:54:37.022Z</time></trkpt><trkpt lat="44.906900666025315" lon="7.430733636502019"><ele>282.0</ele><time>2026-04-16T12:54:44.024Z</time></trkpt><trkpt lat="44.90696428769867" lon="7.430653228759874"><ele>282.0</ele><time>2026-04-16T12:55:01.002Z</time></trkpt><trkpt lat="44.906865807094135" lon="7.430524770585574"><ele>282.0</ele><time>2026-04-16T12:55:03.002Z</time></trkpt><trkpt lat="44.906852217700184" lon="7.430415723931636"><ele>282.0</ele><time>2026-04-16T12:55:05.002Z</time></trkpt><trkpt lat="44.906917161439885" lon="7.430424595879274"><ele>282.0</ele><time>2026-04-16T12:55:25.001Z</time></trkpt><trkpt lat="44.906973125013366" lon="7.430508563941148"><ele>282.0</ele><time>2026-04-16T13:04:13Z</time></trkpt><trkpt lat="44.90705416363229" lon="7.430547650471606"><ele>282.0</ele><time>2026-04-16T13:04:55Z</time></trkpt><trkpt lat="44.907147814136536" lon="7.430702815437019"><ele>282.0</ele><time>2026-04-16T13:04:57Z</time></trkpt><trkpt lat="44.90720267287424" lon="7.430815066540118"><ele>282.0</ele><time>2026-04-16T13:04:58.001Z</time></trkpt><trkpt lat="44.90726709475123" lon="7.430944027474848"><ele>282.0</ele><time>2026-04-16T13:04:59.001Z</time></trkpt><trkpt lat="44.90731591670893" lon="7.4310490477084485"><ele>282.0</ele><time>2026-04-16T13:05:00.001Z</time></trkpt><trkpt lat="44.90736296025285" lon="7.43113896511232"><ele>282.0</ele><time>2026-04-16T13:05:01.001Z</time></trkpt><trkpt lat="44.90740203435269" lon="7.431226377660087"><ele>282.0</ele><time>2026-04-16T13:05:02.001Z</time></trkpt><trkpt lat="44.90746066510841" lon="7.431329845005216"><ele>282.0</ele><time>2026-04-16T13:05:03.001Z</time></trkpt><trkpt lat="44.90752308308769" lon="7.431419630334172"><ele>282.0</ele><time>2026-04-16T13:05:04.001Z</time></trkpt><trkpt lat="44.90759820553893" lon="7.431516249274025"><ele>282.0</ele><time>2026-04-16T13:05:05.001Z</time></trkpt><trkpt lat="44.9076727264697" lon="7.431610103333858"><ele>282.0</ele><time>2026-04-16T13:05:06.001Z</time></trkpt><trkpt lat="44.90775727257114" lon="7.431720552020284"><ele>282.0</ele><time>2026-04-16T13:05:07.001Z</time></trkpt><trkpt lat="44.90784920886213" lon="7.431866719978793"><ele>282.0</ele><time>2026-04-16T13:05:08.001Z</time></trkpt><trkpt lat="44.907947866182006" lon="7.432021860001235"><ele>282.0</ele><time>2026-04-16T13:05:09.001Z</time></trkpt><trkpt lat="44.90801083088475" lon="7.432252726729671"><ele>282.0</ele><time>2026-04-16T13:05:10.001Z</time></trkpt><trkpt lat="44.90810713283148" lon="7.432514486319042"><ele>282.0</ele><time>2026-04-16T13:05:11.001Z</time></trkpt><trkpt lat="44.908209692207144" lon="7.432785943115251"><ele>282.0</ele><time>2026-04-16T13:05:12.001Z</time></trkpt><trkpt lat="44.90832939408268" lon="7.433080487593888"><ele>282.0</ele><time>2026-04-16T13:05:13.001Z</time></trkpt><trkpt lat="44.908454562481154" lon="7.433403688999505"><ele>282.0</ele><time>2026-04-16T13:05:14.001Z</time></trkpt><trkpt lat="44.90857777639919" lon="7.433716789869091"><ele>281.5</ele><time>2026-04-16T13:05:15.001Z</time></trkpt><trkpt lat="44.90871723762604" lon="7.4340369877781685"><ele>281.0</ele><time>2026-04-16T13:05:16.001Z</time></trkpt><trkpt lat="44.90884646639076" lon="7.43438419101402"><ele>281.0</ele><time>2026-04-16T13:05:17.001Z</time></trkpt><trkpt lat="44.90898774908958" lon="7.434752941077019"><ele>281.0</ele><time>2026-04-16T13:05:18.001Z</time></trkpt><trkpt lat="44.90912383759738" lon="7.435106789001667"><ele>280.0</ele><time>2026-04-16T13:05:19.001Z</time></trkpt><trkpt lat="44.90925243237016" lon="7.43544089539411"><ele>279.0</ele><time>2026-04-16T13:05:20.001Z</time></trkpt><trkpt lat="44.90937702878801" lon="7.435766746501987"><ele>278.5</ele><time>2026-04-16T13:05:21.001Z</time></trkpt><trkpt lat="44.90949820312631" lon="7.436087925354852"><ele>278.0</ele><time>2026-04-16T13:05:22.001Z</time></trkpt><trkpt lat="44.90962286892136" lon="7.436409875243617"><ele>277.5</ele><time>2026-04-16T13:05:23.001Z</time></trkpt><trkpt lat="44.90974830335321" lon="7.436735377688253"><ele>277.0</ele><time>2026-04-16T13:05:24.001Z</time></trkpt><trkpt lat="44.90987697568291" lon="7.437067320490117"><ele>277.0</ele><time>2026-04-16T13:05:25.001Z</time></trkpt><trkpt lat="44.91000410244899" lon="7.437399444160072"><ele>277.0</ele><time>2026-04-16T13:05:26.001Z</time></trkpt><trkpt lat="44.910129353446145" lon="7.43772926712633"><ele>276.0</ele><time>2026-04-16T13:05:27.001Z</time></trkpt><trkpt lat="44.91025605928517" lon="7.43806874471072"><ele>275.0</ele><time>2026-04-16T13:05:28.001Z</time></trkpt><trkpt lat="44.91038187029201" lon="7.438402512475233"><ele>275.0</ele><time>2026-04-16T13:05:29.001Z</time></trkpt><trkpt lat="44.91050829936163" lon="7.438725258029887"><ele>275.0</ele><time>2026-04-16T13:05:30.001Z</time></trkpt><trkpt lat="44.91063436442467" lon="7.439041648430525"><ele>275.5</ele><time>2026-04-16T13:05:31.001Z</time></trkpt><trkpt lat="44.91075822082085" lon="7.439362371656985"><ele>276.0</ele><time>2026-04-16T13:05:32.001Z</time></trkpt><trkpt lat="44.910885268829404" lon="7.439691917501079"><ele>276.0</ele><time>2026-04-16T13:05:33.001Z</time></trkpt><trkpt lat="44.911013172320565" lon="7.44002896760448"><ele>276.0</ele><time>2026-04-16T13:05:34.001Z</time></trkpt><trkpt lat="44.91114283609299" lon="7.4403648636209825"><ele>275.5</ele><time>2026-04-16T13:05:35.001Z</time></trkpt><trkpt lat="44.91126802280333" lon="7.440690444993272"><ele>275.0</ele><time>2026-04-16T13:05:36.001Z</time></trkpt><trkpt lat="44.91139181952087" lon="7.44101083320947"><ele>275.0</ele><time>2026-04-16T13:05:37.001Z</time></trkpt><trkpt lat="44.911519024323844" lon="7.441331020263157"><ele>275.0</ele><time>2026-04-16T13:05:38.001Z</time></trkpt><trkpt lat="44.91164643880839" lon="7.441649867518529"><ele>275.0</ele><time>2026-04-16T13:05:39.001Z</time></trkpt><trkpt lat="44.911780550811415" lon="7.441969616185629"><ele>275.0</ele><time>2026-04-16T13:05:39.998Z</time></trkpt><trkpt lat="44.91191931589381" lon="7.442297320227555"><ele>274.5</ele><time>2026-04-16T13:05:40.998Z</time></trkpt><trkpt lat="44.91206584621414" lon="7.44263064699526"><ele>274.0</ele><time>2026-04-16T13:05:41.998Z</time></trkpt><trkpt lat="44.91221987609859" lon="7.442960848568435"><ele>273.0</ele><time>2026-04-16T13:05:42.998Z</time></trkpt><trkpt lat="44.912383476632286" lon="7.443296621101143"><ele>272.0</ele><time>2026-04-16T13:05:43.998Z</time></trkpt><trkpt lat="44.912551249357364" lon="7.443615061781084"><ele>273.0</ele><time>2026-04-16T13:05:44.998Z</time></trkpt><trkpt lat="44.91272762008251" lon="7.4439290668898925"><ele>274.0</ele><time>2026-04-16T13:05:45.998Z</time></trkpt><trkpt lat="44.91290888674914" lon="7.4442272555187055"><ele>274.0</ele><time>2026-04-16T13:05:46.998Z</time></trkpt><trkpt lat="44.91309686251185" lon="7.444521885526481"><ele>274.0</ele><time>2026-04-16T13:05:47.998Z</time></trkpt><trkpt lat="44.913290291012814" lon="7.444804772696075"><ele>273.0</ele><time>2026-04-16T13:05:48.998Z</time></trkpt><trkpt lat="44.91348790657666" lon="7.445076516876416"><ele>272.0</ele><time>2026-04-16T13:05:49.998Z</time></trkpt><trkpt lat="44.91369100196096" lon="7.445340408821019"><ele>271.5</ele><time>2026-04-16T13:05:50.999Z</time></trkpt><trkpt lat="44.913898482594654" lon="7.445599564480904"><ele>271.0</ele><time>2026-04-16T13:05:51.999Z</time></trkpt><trkpt lat="44.91412105808105" lon="7.445870679448134"><ele>271.0</ele><time>2026-04-16T13:05:52.999Z</time></trkpt><trkpt lat="44.914354629901624" lon="7.446154170394364"><ele>271.0</ele><time>2026-04-16T13:05:53.999Z</time></trkpt><trkpt lat="44.91459498981787" lon="7.44644039458394"><ele>271.0</ele><time>2026-04-16T13:05:54.999Z</time></trkpt><trkpt lat="44.914830578423974" lon="7.446724450084258"><ele>271.0</ele><time>2026-04-16T13:05:55.999Z</time></trkpt><trkpt lat="44.91504658839101" lon="7.446979531120918"><ele>271.0</ele><time>2026-04-16T13:05:56.999Z</time></trkpt><trkpt lat="44.91524399087876" lon="7.447215562733624"><ele>271.0</ele><time>2026-04-16T13:05:57.999Z</time></trkpt><trkpt lat="44.91544635908835" lon="7.447447857557024"><ele>271.0</ele><time>2026-04-16T13:05:58.999Z</time></trkpt><trkpt lat="44.91564850983018" lon="7.447683600533612"><ele>271.0</ele><time>2026-04-16T13:05:59.999Z</time></trkpt><trkpt lat="44.91585012717316" lon="7.447915464591845"><ele>271.0</ele><time>2026-04-16T13:06:00.999Z</time></trkpt><trkpt lat="44.916052781006336" lon="7.448151882962707"><ele>271.0</ele><time>2026-04-16T13:06:01.999Z</time></trkpt><trkpt lat="44.91625525444675" lon="7.448388962236431"><ele>271.0</ele><time>2026-04-16T13:06:02.999Z</time></trkpt><trkpt lat="44.91645776216285" lon="7.448629156274015"><ele>271.0</ele><time>2026-04-16T13:06:03.999Z</time></trkpt><trkpt lat="44.91666752314715" lon="7.448869164188764"><ele>270.0</ele><time>2026-04-16T13:06:04.999Z</time></trkpt><trkpt lat="44.9168787702838" lon="7.449116462468031"><ele>269.0</ele><time>2026-04-16T13:06:05.999Z</time></trkpt><trkpt lat="44.91708880205372" lon="7.449362301223079"><ele>269.0</ele><time>2026-04-16T13:06:06.999Z</time></trkpt><trkpt lat="44.917302769495514" lon="7.449612741534157"><ele>269.0</ele><time>2026-04-16T13:06:07.999Z</time></trkpt><trkpt lat="44.91751999308369" lon="7.449868853420015"><ele>269.0</ele><time>2026-04-16T13:06:08.999Z</time></trkpt><trkpt lat="44.91774474381987" lon="7.45013094265483"><ele>269.0</ele><time>2026-04-16T13:06:09.999Z</time></trkpt><trkpt lat="44.91797408667394" lon="7.450399738519422"><ele>269.0</ele><time>2026-04-16T13:06:10.999Z</time></trkpt><trkpt lat="44.918203732084436" lon="7.450672309579843"><ele>269.0</ele><time>2026-04-16T13:06:11.999Z</time></trkpt><trkpt lat="44.918434677377775" lon="7.450950753796236"><ele>269.0</ele><time>2026-04-16T13:06:12.999Z</time></trkpt><trkpt lat="44.9186646501201" lon="7.451225502386646"><ele>269.0</ele><time>2026-04-16T13:06:13.999Z</time></trkpt><trkpt lat="44.91889165974957" lon="7.45149873810478"><ele>268.5</ele><time>2026-04-16T13:06:14.999Z</time></trkpt><trkpt lat="44.919119039157295" lon="7.45176545122573"><ele>268.0</ele><time>2026-04-16T13:06:15.999Z</time></trkpt><trkpt lat="44.9193422111841" lon="7.452026248331415"><ele>268.0</ele><time>2026-04-16T13:06:16.999Z</time></trkpt><trkpt lat="44.919564420872724" lon="7.452290943709266"><ele>268.0</ele><time>2026-04-16T13:06:17.999Z</time></trkpt><trkpt lat="44.919780481348546" lon="7.452553060074777"><ele>268.0</ele><time>2026-04-16T13:06:18.999Z</time></trkpt><trkpt lat="44.9199957123046" lon="7.452806331761711"><ele>268.0</ele><time>2026-04-16T13:06:19.999Z</time></trkpt><trkpt lat="44.920208213446436" lon="7.453054952037967"><ele>267.0</ele><time>2026-04-16T13:06:20.999Z</time></trkpt><trkpt lat="44.92041962283486" lon="7.453300555801225"><ele>266.0</ele><time>2026-04-16T13:06:21.999Z</time></trkpt><trkpt lat="44.92063250767927" lon="7.453549436858854"><ele>266.0</ele><time>2026-04-16T13:06:23Z</time></trkpt><trkpt lat="44.9208363606777" lon="7.453792011569312"><ele>266.0</ele><time>2026-04-16T13:06:24Z</time></trkpt><trkpt lat="44.92104024190617" lon="7.454037210980971"><ele>266.0</ele><time>2026-04-16T13:06:25Z</time></trkpt><trkpt lat="44.92124501755592" lon="7.454284231909002"><ele>266.0</ele><time>2026-04-16T13:06:26Z</time></trkpt><trkpt lat="44.92144882701723" lon="7.454525790648273"><ele>266.0</ele><time>2026-04-16T13:06:27Z</time></trkpt><trkpt lat="44.92165726242335" lon="7.454774093897775"><ele>266.0</ele><time>2026-04-16T13:06:28Z</time></trkpt><trkpt lat="44.92186551400321" lon="7.455020260908112"><ele>266.0</ele><time>2026-04-16T13:06:29Z</time></trkpt><trkpt lat="44.92207592712612" lon="7.455265182865939"><ele>266.0</ele><time>2026-04-16T13:06:30Z</time></trkpt><trkpt lat="44.92228784438797" lon="7.455511339866262"><ele>266.5</ele><time>2026-04-16T13:06:31Z</time></trkpt><trkpt lat="44.92250080553403" lon="7.455757166521994"><ele>267.0</ele><time>2026-04-16T13:06:32Z</time></trkpt><trkpt lat="44.92271502820989" lon="7.456008864013939"><ele>267.0</ele><time>2026-04-16T13:06:33Z</time></trkpt><trkpt lat="44.92292686949122" lon="7.45625821503638"><ele>267.0</ele><time>2026-04-16T13:06:34Z</time></trkpt><trkpt lat="44.923131611451545" lon="7.456503207859277"><ele>267.0</ele><time>2026-04-16T13:06:35Z</time></trkpt><trkpt lat="44.923334071942" lon="7.456745311772095"><ele>267.0</ele><time>2026-04-16T13:06:36Z</time></trkpt><trkpt lat="44.92353303878809" lon="7.456990493091965"><ele>265.0</ele><time>2026-04-16T13:06:37Z</time></trkpt><trkpt lat="44.92372639953008" lon="7.457235514416201"><ele>263.0</ele><time>2026-04-16T13:06:38Z</time></trkpt><trkpt lat="44.92391474264655" lon="7.457487203037764"><ele>263.0</ele><time>2026-04-16T13:06:39Z</time></trkpt><trkpt lat="44.92409966290078" lon="7.45774866289123"><ele>263.0</ele><time>2026-04-16T13:06:40Z</time></trkpt><trkpt lat="44.92428061731604" lon="7.458024574921063"><ele>264.0</ele><time>2026-04-16T13:06:41Z</time></trkpt><trkpt lat="44.92445202018268" lon="7.458306366038293"><ele>265.0</ele><time>2026-04-16T13:06:42Z</time></trkpt><trkpt lat="44.92462091539651" lon="7.4586003529912475"><ele>264.0</ele><time>2026-04-16T13:06:43Z</time></trkpt><trkpt lat="44.924781670398374" lon="7.458896275627268"><ele>263.0</ele><time>2026-04-16T13:06:44Z</time></trkpt><trkpt lat="44.924939406782435" lon="7.459203093616514"><ele>264.0</ele><time>2026-04-16T13:06:45Z</time></trkpt><trkpt lat="44.92509253651958" lon="7.459525823745012"><ele>265.0</ele><time>2026-04-16T13:06:46Z</time></trkpt><trkpt lat="44.92523783029226" lon="7.459859691826493"><ele>265.0</ele><time>2026-04-16T13:06:47Z</time></trkpt><trkpt lat="44.92537471698852" lon="7.460200975707043"><ele>265.0</ele><time>2026-04-16T13:06:48Z</time></trkpt><trkpt lat="44.925503397074834" lon="7.460546356290308"><ele>264.5</ele><time>2026-04-16T13:06:49Z</time></trkpt><trkpt lat="44.9256209109755" lon="7.460894809049819"><ele>264.0</ele><time>2026-04-16T13:06:50Z</time></trkpt><trkpt lat="44.92572522256346" lon="7.461250496187723"><ele>263.5</ele><time>2026-04-16T13:06:51Z</time></trkpt><trkpt lat="44.92582770461039" lon="7.461601838284526"><ele>263.0</ele><time>2026-04-16T13:06:52Z</time></trkpt><trkpt lat="44.92592128994364" lon="7.461960055733062"><ele>264.0</ele><time>2026-04-16T13:06:53Z</time></trkpt><trkpt lat="44.92600554385656" lon="7.4623246457996935"><ele>265.0</ele><time>2026-04-16T13:06:54Z</time></trkpt><trkpt lat="44.92607898342399" lon="7.46269603474851"><ele>264.5</ele><time>2026-04-16T13:06:55Z</time></trkpt><trkpt lat="44.92614479959188" lon="7.463074306116233"><ele>264.0</ele><time>2026-04-16T13:06:56Z</time></trkpt><trkpt lat="44.92620268143969" lon="7.46345818124603"><ele>264.0</ele><time>2026-04-16T13:06:57Z</time></trkpt><trkpt lat="44.92625134496402" lon="7.463845321664019"><ele>264.0</ele><time>2026-04-16T13:06:58Z</time></trkpt><trkpt lat="44.92629181163348" lon="7.464227156004593"><ele>263.5</ele><time>2026-04-16T13:06:59Z</time></trkpt><trkpt lat="44.92632697925899" lon="7.464614580170099"><ele>263.0</ele><time>2026-04-16T13:07:00Z</time></trkpt><trkpt lat="44.92635864467565" lon="7.464992627442715"><ele>263.0</ele><time>2026-04-16T13:07:01Z</time></trkpt><trkpt lat="44.92638673739004" lon="7.465375871101282"><ele>263.0</ele><time>2026-04-16T13:07:02Z</time></trkpt><trkpt lat="44.926417434020756" lon="7.465746562621644"><ele>263.0</ele><time>2026-04-16T13:07:03Z</time></trkpt><trkpt lat="44.92644452440488" lon="7.466112336166787"><ele>263.0</ele><time>2026-04-16T13:07:04Z</time></trkpt><trkpt lat="44.926472344130794" lon="7.466472484737185"><ele>263.0</ele><time>2026-04-16T13:07:05Z</time></trkpt><trkpt lat="44.92650131396876" lon="7.466837361537913"><ele>263.0</ele><time>2026-04-16T13:07:06Z</time></trkpt><trkpt lat="44.926531708625284" lon="7.4671965677858445"><ele>262.5</ele><time>2026-04-16T13:07:07Z</time></trkpt><trkpt lat="44.926562705937556" lon="7.467564442051614"><ele>262.0</ele><time>2026-04-16T13:07:08Z</time></trkpt><trkpt lat="44.92659618726174" lon="7.467941582642363"><ele>261.5</ele><time>2026-04-16T13:07:09Z</time></trkpt><trkpt lat="44.92663179379002" lon="7.468324255944637"><ele>261.0</ele><time>2026-04-16T13:07:10Z</time></trkpt><trkpt lat="44.9266730998162" lon="7.468712252934463"><ele>261.0</ele><time>2026-04-16T13:07:11Z</time></trkpt><trkpt lat="44.926717453889566" lon="7.46910767159994"><ele>261.0</ele><time>2026-04-16T13:07:12Z</time></trkpt><trkpt lat="44.92676583323067" lon="7.469507312951085"><ele>260.5</ele><time>2026-04-16T13:07:13Z</time></trkpt><trkpt lat="44.92681906172373" lon="7.4699019011462156"><ele>260.0</ele><time>2026-04-16T13:07:14Z</time></trkpt><trkpt lat="44.926872676562354" lon="7.470299254819453"><ele>260.0</ele><time>2026-04-16T13:07:15Z</time></trkpt><trkpt lat="44.926927145527316" lon="7.470686008179982"><ele>260.0</ele><time>2026-04-16T13:07:16Z</time></trkpt><trkpt lat="44.926978560158474" lon="7.471065200795072"><ele>260.0</ele><time>2026-04-16T13:07:17Z</time></trkpt><trkpt lat="44.92703315125184" lon="7.471428000695252"><ele>260.0</ele><time>2026-04-16T13:07:18Z</time></trkpt><trkpt lat="44.92709780184887" lon="7.471785850644462"><ele>260.0</ele><time>2026-04-16T13:07:19Z</time></trkpt><trkpt lat="44.927168153567344" lon="7.472159773019806"><ele>260.0</ele><time>2026-04-16T13:07:20Z</time></trkpt><trkpt lat="44.92724576462961" lon="7.472537550756918"><ele>260.0</ele><time>2026-04-16T13:07:21Z</time></trkpt><trkpt lat="44.92732020769815" lon="7.47292656237386"><ele>260.0</ele><time>2026-04-16T13:07:22Z</time></trkpt><trkpt lat="44.92739680512379" lon="7.473325530545405"><ele>260.0</ele><time>2026-04-16T13:07:23Z</time></trkpt><trkpt lat="44.927470573832565" lon="7.473706001382664"><ele>260.0</ele><time>2026-04-16T13:07:24Z</time></trkpt><trkpt lat="44.92754363595153" lon="7.474091575542154"><ele>262.5</ele><time>2026-04-16T13:07:25Z</time></trkpt><trkpt lat="44.92761621651467" lon="7.474479772519757"><ele>265.0</ele><time>2026-04-16T13:07:26Z</time></trkpt><trkpt lat="44.92769202830648" lon="7.47486483406569"><ele>266.0</ele><time>2026-04-16T13:07:27Z</time></trkpt><trkpt lat="44.92776043075435" lon="7.475251713627381"><ele>267.0</ele><time>2026-04-16T13:07:28Z</time></trkpt><trkpt lat="44.92782626421997" lon="7.475636747481024"><ele>264.0</ele><time>2026-04-16T13:07:29Z</time></trkpt><trkpt lat="44.92789025642686" lon="7.476021432392211"><ele>261.0</ele><time>2026-04-16T13:07:30Z</time></trkpt><trkpt lat="44.92795667493694" lon="7.476404981197028"><ele>260.5</ele><time>2026-04-16T13:07:31Z</time></trkpt><trkpt lat="44.92802695195053" lon="7.476786409582329"><ele>260.0</ele><time>2026-04-16T13:07:32Z</time></trkpt><trkpt lat="44.92810334160069" lon="7.4771637356348695"><ele>259.5</ele><time>2026-04-16T13:07:33Z</time></trkpt><trkpt lat="44.92817964970635" lon="7.477542677612838"><ele>259.0</ele><time>2026-04-16T13:07:34Z</time></trkpt><trkpt lat="44.92825102594548" lon="7.477929415967847"><ele>259.0</ele><time>2026-04-16T13:07:35Z</time></trkpt><trkpt lat="44.92832314975597" lon="7.478306925716687"><ele>259.0</ele><time>2026-04-16T13:07:36.001Z</time></trkpt><trkpt lat="44.92839563955068" lon="7.478687625764943"><ele>258.0</ele><time>2026-04-16T13:07:37.001Z</time></trkpt><trkpt lat="44.92846818959348" lon="7.479074793344464"><ele>257.0</ele><time>2026-04-16T13:07:38.001Z</time></trkpt><trkpt lat="44.928549397549816" lon="7.479448350273347"><ele>258.0</ele><time>2026-04-16T13:07:39.001Z</time></trkpt><trkpt lat="44.928629864381705" lon="7.479841993484586"><ele>259.0</ele><time>2026-04-16T13:07:40.001Z</time></trkpt><trkpt lat="44.928710156250034" lon="7.480238604621669"><ele>258.5</ele><time>2026-04-16T13:07:41.001Z</time></trkpt><trkpt lat="44.928790046178506" lon="7.480628208668638"><ele>258.0</ele><time>2026-04-16T13:07:42.001Z</time></trkpt><trkpt lat="44.92886763261016" lon="7.4810139836488885"><ele>258.0</ele><time>2026-04-16T13:07:43.001Z</time></trkpt><trkpt lat="44.928945481734594" lon="7.481394052632039"><ele>258.0</ele><time>2026-04-16T13:07:44.001Z</time></trkpt><trkpt lat="44.92901910376886" lon="7.481775629708843"><ele>258.0</ele><time>2026-04-16T13:07:45.001Z</time></trkpt><trkpt lat="44.92909431732515" lon="7.482158900835522"><ele>258.0</ele><time>2026-04-16T13:07:45.998Z</time></trkpt><trkpt lat="44.929167147743875" lon="7.482551818649519"><ele>258.0</ele><time>2026-04-16T13:07:46.998Z</time></trkpt><trkpt lat="44.92924128411247" lon="7.482947408719849"><ele>258.0</ele><time>2026-04-16T13:07:47.998Z</time></trkpt><trkpt lat="44.929309400530876" lon="7.48333693761132"><ele>258.0</ele><time>2026-04-16T13:07:48.998Z</time></trkpt><trkpt lat="44.929379186703024" lon="7.483725574286485"><ele>258.0</ele><time>2026-04-16T13:07:49.998Z</time></trkpt><trkpt lat="44.92944970598031" lon="7.4841107615612295"><ele>258.5</ele><time>2026-04-16T13:07:50.998Z</time></trkpt><trkpt lat="44.92951846001516" lon="7.484491239561075"><ele>259.0</ele><time>2026-04-16T13:07:51.998Z</time></trkpt><trkpt lat="44.9295880966022" lon="7.4848702809191785"><ele>259.0</ele><time>2026-04-16T13:07:52.998Z</time></trkpt><trkpt lat="44.92966133748813" lon="7.485243639845371"><ele>259.0</ele><time>2026-04-16T13:07:53.998Z</time></trkpt><trkpt lat="44.92973001167939" lon="7.485610358542207"><ele>258.0</ele><time>2026-04-16T13:07:54.998Z</time></trkpt><trkpt lat="44.92980145915698" lon="7.485976562847169"><ele>257.0</ele><time>2026-04-16T13:07:55.998Z</time></trkpt><trkpt lat="44.92986959272261" lon="7.486341615361708"><ele>257.0</ele><time>2026-04-16T13:07:56.998Z</time></trkpt><trkpt lat="44.92993992013139" lon="7.486697726905955"><ele>257.0</ele><time>2026-04-16T13:07:57.998Z</time></trkpt><trkpt lat="44.930008660946065" lon="7.487057127092525"><ele>256.5</ele><time>2026-04-16T13:07:58.998Z</time></trkpt><trkpt lat="44.93007716886896" lon="7.487410120224085"><ele>256.0</ele><time>2026-04-16T13:07:59.998Z</time></trkpt><trkpt lat="44.93014522107078" lon="7.487757993887832"><ele>257.0</ele><time>2026-04-16T13:08:00.999Z</time></trkpt><trkpt lat="44.93021393170447" lon="7.488106562669249"><ele>258.0</ele><time>2026-04-16T13:08:01.999Z</time></trkpt><trkpt lat="44.930281465028244" lon="7.4884521093672785"><ele>258.0</ele><time>2026-04-16T13:08:02.999Z</time></trkpt><trkpt lat="44.93035061841549" lon="7.488799499376436"><ele>258.0</ele><time>2026-04-16T13:08:03.999Z</time></trkpt><trkpt lat="44.93041864236337" lon="7.4891446531369015"><ele>258.0</ele><time>2026-04-16T13:08:04.999Z</time></trkpt><trkpt lat="44.93049778662548" lon="7.489490016344013"><ele>258.0</ele><time>2026-04-16T13:08:05.999Z</time></trkpt><trkpt lat="44.930564744514975" lon="7.489837478547596"><ele>256.5</ele><time>2026-04-16T13:08:06.999Z</time></trkpt><trkpt lat="44.93063197858051" lon="7.490185517727172"><ele>255.0</ele><time>2026-04-16T13:08:07.999Z</time></trkpt><trkpt lat="44.93070301572353" lon="7.4905236105343"><ele>255.0</ele><time>2026-04-16T13:08:08.999Z</time></trkpt><trkpt lat="44.93077790350204" lon="7.490867761694577"><ele>255.0</ele><time>2026-04-16T13:08:09.999Z</time></trkpt><trkpt lat="44.93085766840026" lon="7.491226141693451"><ele>255.5</ele><time>2026-04-16T13:08:10.999Z</time></trkpt><trkpt lat="44.93094024713753" lon="7.491592985484053"><ele>256.0</ele><time>2026-04-16T13:08:11.999Z</time></trkpt><trkpt lat="44.93102473829905" lon="7.49196274021594"><ele>255.5</ele><time>2026-04-16T13:08:12.999Z</time></trkpt><trkpt lat="44.931107413482664" lon="7.4923339069592485"><ele>255.0</ele><time>2026-04-16T13:08:13.999Z</time></trkpt><trkpt lat="44.93119208694459" lon="7.492699363577318"><ele>254.5</ele><time>2026-04-16T13:08:14.999Z</time></trkpt><trkpt lat="44.93127836205119" lon="7.493069659247325"><ele>254.0</ele><time>2026-04-16T13:08:15.999Z</time></trkpt><trkpt lat="44.9313696744265" lon="7.493433853007303"><ele>254.0</ele><time>2026-04-16T13:08:16.999Z</time></trkpt><trkpt lat="44.931468753443916" lon="7.493797419733488"><ele>254.0</ele><time>2026-04-16T13:08:17.999Z</time></trkpt><trkpt lat="44.93156728164475" lon="7.494159768784689"><ele>254.0</ele><time>2026-04-16T13:08:18.999Z</time></trkpt><trkpt lat="44.93166790143699" lon="7.494516188440964"><ele>254.0</ele><time>2026-04-16T13:08:19.999Z</time></trkpt><trkpt lat="44.93177319503779" lon="7.494864506969971"><ele>254.5</ele><time>2026-04-16T13:08:20.999Z</time></trkpt><trkpt lat="44.9318804037335" lon="7.495208776569575"><ele>255.0</ele><time>2026-04-16T13:08:21.999Z</time></trkpt><trkpt lat="44.9319864079852" lon="7.495554064352975"><ele>255.0</ele><time>2026-04-16T13:08:22.999Z</time></trkpt><trkpt lat="44.93209410568923" lon="7.495893177546956"><ele>255.0</ele><time>2026-04-16T13:08:23.999Z</time></trkpt><trkpt lat="44.932208598582214" lon="7.496231645706569"><ele>255.0</ele><time>2026-04-16T13:08:25Z</time></trkpt><trkpt lat="44.932327780340756" lon="7.496571081182164"><ele>255.0</ele><time>2026-04-16T13:08:26Z</time></trkpt><trkpt lat="44.93245156248623" lon="7.496913008814313"><ele>256.0</ele><time>2026-04-16T13:08:27Z</time></trkpt><trkpt lat="44.93258051201892" lon="7.497247691818485"><ele>257.0</ele><time>2026-04-16T13:08:28Z</time></trkpt><trkpt lat="44.932713864492236" lon="7.497581177113492"><ele>257.0</ele><time>2026-04-16T13:08:29Z</time></trkpt><trkpt lat="44.93284487876183" lon="7.497906008070007"><ele>257.0</ele><time>2026-04-16T13:08:30Z</time></trkpt><trkpt lat="44.93298271519387" lon="7.498228145248846"><ele>256.0</ele><time>2026-04-16T13:08:31Z</time></trkpt><trkpt lat="44.933126131185496" lon="7.498544663119883"><ele>255.0</ele><time>2026-04-16T13:08:32Z</time></trkpt><trkpt lat="44.93327247592568" lon="7.498860390398379"><ele>254.0</ele><time>2026-04-16T13:08:33Z</time></trkpt><trkpt lat="44.93342277770261" lon="7.499170229101856"><ele>253.0</ele><time>2026-04-16T13:08:34Z</time></trkpt><trkpt lat="44.93358257839491" lon="7.499469200506675"><ele>253.0</ele><time>2026-04-16T13:08:35Z</time></trkpt><trkpt lat="44.933752532331354" lon="7.499777323531768"><ele>253.0</ele><time>2026-04-16T13:08:36Z</time></trkpt><trkpt lat="44.933921391086365" lon="7.500079015676945"><ele>253.0</ele><time>2026-04-16T13:08:37Z</time></trkpt><trkpt lat="44.93409745273757" lon="7.500379111329348"><ele>253.0</ele><time>2026-04-16T13:08:38Z</time></trkpt><trkpt lat="44.93427904741975" lon="7.500674704524803"><ele>253.0</ele><time>2026-04-16T13:08:39Z</time></trkpt><trkpt lat="44.934465892415524" lon="7.500963617202599"><ele>253.0</ele><time>2026-04-16T13:08:40Z</time></trkpt><trkpt lat="44.93466104594189" lon="7.501243185422704"><ele>252.5</ele><time>2026-04-16T13:08:41Z</time></trkpt><trkpt lat="44.934859471103124" lon="7.501510912766158"><ele>252.0</ele><time>2026-04-16T13:08:42Z</time></trkpt><trkpt lat="44.935067170512035" lon="7.501776567386799"><ele>252.0</ele><time>2026-04-16T13:08:43Z</time></trkpt><trkpt lat="44.93527325640778" lon="7.502029523572501"><ele>252.0</ele><time>2026-04-16T13:08:44Z</time></trkpt><trkpt lat="44.935490862302636" lon="7.502275007625558"><ele>252.0</ele><time>2026-04-16T13:08:45Z</time></trkpt><trkpt lat="44.93570828243782" lon="7.502514882710373"><ele>252.0</ele><time>2026-04-16T13:08:46Z</time></trkpt><trkpt lat="44.935920995569646" lon="7.502739877736576"><ele>250.5</ele><time>2026-04-16T13:08:47Z</time></trkpt><trkpt lat="44.93614702797354" lon="7.502958785898639"><ele>249.0</ele><time>2026-04-16T13:08:48Z</time></trkpt><trkpt lat="44.9363759608158" lon="7.503167532946699"><ele>249.0</ele><time>2026-04-16T13:08:49Z</time></trkpt><trkpt lat="44.93661376799405" lon="7.50336993755751"><ele>249.0</ele><time>2026-04-16T13:08:50Z</time></trkpt><trkpt lat="44.93685698528407" lon="7.503559262501944"><ele>250.0</ele><time>2026-04-16T13:08:51Z</time></trkpt><trkpt lat="44.93709773949785" lon="7.503735458569695"><ele>251.0</ele><time>2026-04-16T13:08:52Z</time></trkpt><trkpt lat="44.93734639339799" lon="7.503902403671845"><ele>251.0</ele><time>2026-04-16T13:08:53Z</time></trkpt><trkpt lat="44.93760141770648" lon="7.504054763138891"><ele>251.0</ele><time>2026-04-16T13:08:54Z</time></trkpt><trkpt lat="44.93786229082788" lon="7.504193512867452"><ele>251.0</ele><time>2026-04-16T13:08:55Z</time></trkpt><trkpt lat="44.938124513066136" lon="7.504322053863905"><ele>251.0</ele><time>2026-04-16T13:08:56Z</time></trkpt><trkpt lat="44.938390814956314" lon="7.504440717620373"><ele>251.0</ele><time>2026-04-16T13:08:57Z</time></trkpt><trkpt lat="44.938657751400605" lon="7.504543943757136"><ele>251.0</ele><time>2026-04-16T13:08:58Z</time></trkpt><trkpt lat="44.93892888221971" lon="7.504631035161918"><ele>250.5</ele><time>2026-04-16T13:08:59Z</time></trkpt><trkpt lat="44.93920252741978" lon="7.504705941647323"><ele>250.0</ele><time>2026-04-16T13:09:00Z</time></trkpt><trkpt lat="44.939477487141176" lon="7.5047650071189995"><ele>249.5</ele><time>2026-04-16T13:09:01Z</time></trkpt><trkpt lat="44.939756356130026" lon="7.504811569410723"><ele>249.0</ele><time>2026-04-16T13:09:02Z</time></trkpt><trkpt lat="44.940034503545675" lon="7.504845223461999"><ele>250.5</ele><time>2026-04-16T13:09:03Z</time></trkpt><trkpt lat="44.94031642525434" lon="7.504867822402903"><ele>252.0</ele><time>2026-04-16T13:09:04Z</time></trkpt><trkpt lat="44.9405971864907" lon="7.5048833128257355"><ele>252.0</ele><time>2026-04-16T13:09:05Z</time></trkpt><trkpt lat="44.94087492227855" lon="7.504897327853835"><ele>252.0</ele><time>2026-04-16T13:09:06Z</time></trkpt><trkpt lat="44.94115204235134" lon="7.504898711290289"><ele>252.5</ele><time>2026-04-16T13:09:07Z</time></trkpt><trkpt lat="44.94142370109067" lon="7.504884942236631"><ele>253.0</ele><time>2026-04-16T13:09:08Z</time></trkpt><trkpt lat="44.94172008979455" lon="7.504840337058903"><ele>251.5</ele><time>2026-04-16T13:09:09Z</time></trkpt><trkpt lat="44.94197895180492" lon="7.504795734036009"><ele>250.0</ele><time>2026-04-16T13:09:10Z</time></trkpt><trkpt lat="44.94224228017534" lon="7.504731030184344"><ele>250.0</ele><time>2026-04-16T13:09:11Z</time></trkpt><trkpt lat="44.94251156075688" lon="7.504650424635352"><ele>250.0</ele><time>2026-04-16T13:09:12Z</time></trkpt><trkpt lat="44.942780848432996" lon="7.5045554287224245"><ele>250.5</ele><time>2026-04-16T13:09:13Z</time></trkpt><trkpt lat="44.943054660053505" lon="7.504440293584912"><ele>251.0</ele><time>2026-04-16T13:09:14.001Z</time></trkpt><trkpt lat="44.94332790376294" lon="7.504313248358773"><ele>252.0</ele><time>2026-04-16T13:09:15.001Z</time></trkpt><trkpt lat="44.94359302709537" lon="7.504171435649694"><ele>253.0</ele><time>2026-04-16T13:09:16.001Z</time></trkpt><trkpt lat="44.94386285291466" lon="7.504035383624611"><ele>253.0</ele><time>2026-04-16T13:09:17.001Z</time></trkpt><trkpt lat="44.944133419223256" lon="7.5038993504150895"><ele>253.0</ele><time>2026-04-16T13:09:18.001Z</time></trkpt><trkpt lat="44.94441030497699" lon="7.503769921170265"><ele>252.0</ele><time>2026-04-16T13:09:19.001Z</time></trkpt><trkpt lat="44.9446673192964" lon="7.503647761522362"><ele>251.0</ele><time>2026-04-16T13:09:20.001Z</time></trkpt><trkpt lat="44.94494070328847" lon="7.50350060701648"><ele>251.5</ele><time>2026-04-16T13:09:21.001Z</time></trkpt><trkpt lat="44.94521256000852" lon="7.503368736790539"><ele>252.0</ele><time>2026-04-16T13:09:22.001Z</time></trkpt><trkpt lat="44.9454746028713" lon="7.503237359637017"><ele>252.0</ele><time>2026-04-16T13:09:23.001Z</time></trkpt><trkpt lat="44.945739218118845" lon="7.503107667487656"><ele>252.0</ele><time>2026-04-16T13:09:24.001Z</time></trkpt><trkpt lat="44.9459999867409" lon="7.5029775568667745"><ele>253.0</ele><time>2026-04-16T13:09:25.001Z</time></trkpt><trkpt lat="44.946263284047504" lon="7.502848764363939"><ele>254.0</ele><time>2026-04-16T13:09:26.001Z</time></trkpt><trkpt lat="44.94652462889723" lon="7.502721604105523"><ele>254.0</ele><time>2026-04-16T13:09:27.001Z</time></trkpt><trkpt lat="44.946793215975106" lon="7.5025900424320655"><ele>254.0</ele><time>2026-04-16T13:09:28.001Z</time></trkpt><trkpt lat="44.94706201086462" lon="7.502455614805407"><ele>254.0</ele><time>2026-04-16T13:09:29.001Z</time></trkpt><trkpt lat="44.94733628133584" lon="7.502318130078017"><ele>254.0</ele><time>2026-04-16T13:09:30.001Z</time></trkpt><trkpt lat="44.947606422690335" lon="7.502185072240376"><ele>254.0</ele><time>2026-04-16T13:09:31.001Z</time></trkpt><trkpt lat="44.94787559993809" lon="7.502049578069664"><ele>254.0</ele><time>2026-04-16T13:09:32.001Z</time></trkpt><trkpt lat="44.94814168304314" lon="7.501914638523048"><ele>255.0</ele><time>2026-04-16T13:09:33.001Z</time></trkpt><trkpt lat="44.9484050441819" lon="7.501775537783222"><ele>256.0</ele><time>2026-04-16T13:09:34.001Z</time></trkpt><trkpt lat="44.94867454849411" lon="7.501635630026063"><ele>256.0</ele><time>2026-04-16T13:09:35.001Z</time></trkpt><trkpt lat="44.94895069497626" lon="7.501489752383967"><ele>256.0</ele><time>2026-04-16T13:09:36.001Z</time></trkpt><trkpt lat="44.94923312096371" lon="7.501350466329949"><ele>255.5</ele><time>2026-04-16T13:09:37.001Z</time></trkpt><trkpt lat="44.94951291263638" lon="7.501213056743286"><ele>255.0</ele><time>2026-04-16T13:09:38.001Z</time></trkpt><trkpt lat="44.949792143878504" lon="7.50107538999284"><ele>254.5</ele><time>2026-04-16T13:09:39.001Z</time></trkpt><trkpt lat="44.9500702768984" lon="7.500941837909466"><ele>254.0</ele><time>2026-04-16T13:09:40.001Z</time></trkpt><trkpt lat="44.950342832220194" lon="7.500809018467617"><ele>254.0</ele><time>2026-04-16T13:09:41.001Z</time></trkpt><trkpt lat="44.95061412389358" lon="7.500687583867089"><ele>254.0</ele><time>2026-04-16T13:09:42.001Z</time></trkpt><trkpt lat="44.95088670751647" lon="7.5005838182992"><ele>254.0</ele><time>2026-04-16T13:09:43.001Z</time></trkpt><trkpt lat="44.95115151404816" lon="7.50048908451434"><ele>254.0</ele><time>2026-04-16T13:09:44.001Z</time></trkpt><trkpt lat="44.95142042408621" lon="7.500417851274442"><ele>254.0</ele><time>2026-04-16T13:09:45.001Z</time></trkpt><trkpt lat="44.95168821853094" lon="7.5003644880235445"><ele>254.0</ele><time>2026-04-16T13:09:46.001Z</time></trkpt><trkpt lat="44.951969295323515" lon="7.500294152514713"><ele>254.0</ele><time>2026-04-16T13:09:47.001Z</time></trkpt><trkpt lat="44.95224756802248" lon="7.500234703157949"><ele>254.0</ele><time>2026-04-16T13:09:48.001Z</time></trkpt><trkpt lat="44.95252416737458" lon="7.500180032051622"><ele>253.5</ele><time>2026-04-16T13:09:49.001Z</time></trkpt><trkpt lat="44.95280275394358" lon="7.500139781460353"><ele>253.0</ele><time>2026-04-16T13:09:50.001Z</time></trkpt><trkpt lat="44.95308433686327" lon="7.5001064402492466"><ele>253.0</ele><time>2026-04-16T13:09:51.001Z</time></trkpt><trkpt lat="44.95336764725286" lon="7.500081651562739"><ele>253.0</ele><time>2026-04-16T13:09:51.999Z</time></trkpt><trkpt lat="44.95364782471006" lon="7.500070465443709"><ele>252.5</ele><time>2026-04-16T13:09:52.999Z</time></trkpt><trkpt lat="44.953929490239034" lon="7.500069033517862"><ele>252.0</ele><time>2026-04-16T13:09:53.999Z</time></trkpt><trkpt lat="44.95421632163802" lon="7.500076420899317"><ele>252.0</ele><time>2026-04-16T13:09:54.999Z</time></trkpt><trkpt lat="44.9544970443752" lon="7.50008716595183"><ele>252.0</ele><time>2026-04-16T13:09:55.999Z</time></trkpt><trkpt lat="44.95478752619102" lon="7.500113611546949"><ele>252.0</ele><time>2026-04-16T13:09:56.999Z</time></trkpt><trkpt lat="44.95507488871002" lon="7.500148760804766"><ele>252.0</ele><time>2026-04-16T13:09:57.999Z</time></trkpt><trkpt lat="44.95536022619008" lon="7.500192690152786"><ele>252.0</ele><time>2026-04-16T13:09:58.999Z</time></trkpt><trkpt lat="44.95564388470298" lon="7.500245283547402"><ele>252.0</ele><time>2026-04-16T13:09:59.999Z</time></trkpt><trkpt lat="44.955925939005255" lon="7.500310519087085"><ele>253.5</ele><time>2026-04-16T13:10:00.999Z</time></trkpt><trkpt lat="44.95620517267298" lon="7.500384291223556"><ele>255.0</ele><time>2026-04-16T13:10:01.999Z</time></trkpt><trkpt lat="44.95648435796356" lon="7.500466154288936"><ele>255.5</ele><time>2026-04-16T13:10:02.999Z</time></trkpt><trkpt lat="44.956761554167095" lon="7.500556806467776"><ele>256.0</ele><time>2026-04-16T13:10:03.999Z</time></trkpt><trkpt lat="44.9570286245333" lon="7.500664190561869"><ele>256.0</ele><time>2026-04-16T13:10:04.999Z</time></trkpt><trkpt lat="44.9573027261503" lon="7.500766993857519"><ele>256.0</ele><time>2026-04-16T13:10:05.999Z</time></trkpt><trkpt lat="44.957571322267256" lon="7.500885320065677"><ele>256.0</ele><time>2026-04-16T13:10:07Z</time></trkpt><trkpt lat="44.95783908294047" lon="7.501008530500655"><ele>256.0</ele><time>2026-04-16T13:10:08Z</time></trkpt><trkpt lat="44.958113746930316" lon="7.5011435251269365"><ele>255.5</ele><time>2026-04-16T13:10:09Z</time></trkpt><trkpt lat="44.958386161719915" lon="7.50129404329943"><ele>255.0</ele><time>2026-04-16T13:10:10Z</time></trkpt><trkpt lat="44.95865763932759" lon="7.501459555455419"><ele>255.0</ele><time>2026-04-16T13:10:11Z</time></trkpt><trkpt lat="44.958923590897804" lon="7.501633678095263"><ele>255.0</ele><time>2026-04-16T13:10:12Z</time></trkpt><trkpt lat="44.95919169013762" lon="7.501816748752833"><ele>256.0</ele><time>2026-04-16T13:10:13Z</time></trkpt><trkpt lat="44.959451845561254" lon="7.502008735105908"><ele>257.0</ele><time>2026-04-16T13:10:14Z</time></trkpt><trkpt lat="44.9597041788785" lon="7.502201444303073"><ele>257.0</ele><time>2026-04-16T13:10:15Z</time></trkpt><trkpt lat="44.95994641112155" lon="7.502401113556858"><ele>257.0</ele><time>2026-04-16T13:10:16Z</time></trkpt><trkpt lat="44.96017797749077" lon="7.502617861286787"><ele>257.0</ele><time>2026-04-16T13:10:17Z</time></trkpt><trkpt lat="44.960404822119024" lon="7.502844049483671"><ele>257.0</ele><time>2026-04-16T13:10:18Z</time></trkpt><trkpt lat="44.960629935051976" lon="7.503079108498709"><ele>257.0</ele><time>2026-04-16T13:10:19Z</time></trkpt><trkpt lat="44.96085019865957" lon="7.503317056698296"><ele>257.0</ele><time>2026-04-16T13:10:20Z</time></trkpt><trkpt lat="44.96106658043684" lon="7.503553941285951"><ele>257.0</ele><time>2026-04-16T13:10:21Z</time></trkpt><trkpt lat="44.96128181340367" lon="7.503786751278576"><ele>257.0</ele><time>2026-04-16T13:10:22Z</time></trkpt><trkpt lat="44.96150136384406" lon="7.504019099216951"><ele>256.5</ele><time>2026-04-16T13:10:23Z</time></trkpt><trkpt lat="44.961717609162896" lon="7.504252542467211"><ele>256.0</ele><time>2026-04-16T13:10:24Z</time></trkpt><trkpt lat="44.96194224996734" lon="7.504492099132939"><ele>256.0</ele><time>2026-04-16T13:10:25Z</time></trkpt><trkpt lat="44.96216319986" lon="7.504730892834323"><ele>256.0</ele><time>2026-04-16T13:10:26Z</time></trkpt><trkpt lat="44.962384866449554" lon="7.50497096442389"><ele>255.5</ele><time>2026-04-16T13:10:27Z</time></trkpt><trkpt lat="44.96260723762626" lon="7.5052100228849445"><ele>255.0</ele><time>2026-04-16T13:10:28Z</time></trkpt><trkpt lat="44.962827026849894" lon="7.505453951996707"><ele>255.0</ele><time>2026-04-16T13:10:29Z</time></trkpt><trkpt lat="44.963048812424994" lon="7.505693715297899"><ele>255.0</ele><time>2026-04-16T13:10:30Z</time></trkpt><trkpt lat="44.96326964088174" lon="7.505929185863332"><ele>255.5</ele><time>2026-04-16T13:10:31Z</time></trkpt><trkpt lat="44.963491623755104" lon="7.506163187286132"><ele>256.0</ele><time>2026-04-16T13:10:32Z</time></trkpt><trkpt lat="44.9637108770547" lon="7.506396545689486"><ele>256.0</ele><time>2026-04-16T13:10:33Z</time></trkpt><trkpt lat="44.96393114921117" lon="7.506635488263626"><ele>256.0</ele><time>2026-04-16T13:10:34Z</time></trkpt><trkpt lat="44.96415357504433" lon="7.50687120581737"><ele>256.0</ele><time>2026-04-16T13:10:35Z</time></trkpt><trkpt lat="44.964372716550045" lon="7.507109600419144"><ele>256.0</ele><time>2026-04-16T13:10:36Z</time></trkpt><trkpt lat="44.96458775820531" lon="7.5073480016525975"><ele>256.0</ele><time>2026-04-16T13:10:37Z</time></trkpt><trkpt lat="44.96480698157779" lon="7.507582823187885"><ele>256.0</ele><time>2026-04-16T13:10:38.001Z</time></trkpt><trkpt lat="44.965024748162506" lon="7.5078147736304555"><ele>257.0</ele><time>2026-04-16T13:10:39.001Z</time></trkpt><trkpt lat="44.965238541272" lon="7.508041609192499"><ele>258.0</ele><time>2026-04-16T13:10:40.001Z</time></trkpt><trkpt lat="44.96545235768117" lon="7.50827160618186"><ele>258.0</ele><time>2026-04-16T13:10:41.001Z</time></trkpt><trkpt lat="44.96566782027997" lon="7.508502179915875"><ele>258.0</ele><time>2026-04-16T13:10:42.001Z</time></trkpt><trkpt lat="44.96588844069322" lon="7.508738037993662"><ele>258.5</ele><time>2026-04-16T13:10:43.001Z</time></trkpt><trkpt lat="44.966110926466534" lon="7.508966652962557"><ele>259.0</ele><time>2026-04-16T13:10:44.001Z</time></trkpt><trkpt lat="44.966326910841765" lon="7.509201997547109"><ele>259.0</ele><time>2026-04-16T13:10:45.001Z</time></trkpt><trkpt lat="44.96653987475937" lon="7.509436433222828"><ele>259.0</ele><time>2026-04-16T13:10:46.001Z</time></trkpt><trkpt lat="44.96675529534962" lon="7.50967047501577"><ele>259.0</ele><time>2026-04-16T13:10:47.001Z</time></trkpt><trkpt lat="44.96697195905493" lon="7.509905376089382"><ele>259.0</ele><time>2026-04-16T13:10:48.001Z</time></trkpt><trkpt lat="44.96718768723483" lon="7.510139640661214"><ele>259.0</ele><time>2026-04-16T13:10:49.001Z</time></trkpt><trkpt lat="44.96740134979654" lon="7.510368237798371"><ele>259.0</ele><time>2026-04-16T13:10:50.001Z</time></trkpt><trkpt lat="44.96761937930876" lon="7.510603753010389"><ele>258.0</ele><time>2026-04-16T13:10:51.001Z</time></trkpt><trkpt lat="44.9678293931646" lon="7.51083713016099"><ele>257.0</ele><time>2026-04-16T13:10:52.001Z</time></trkpt><trkpt lat="44.96804272391882" lon="7.511070018634287"><ele>257.0</ele><time>2026-04-16T13:10:53.001Z</time></trkpt><trkpt lat="44.968253112867174" lon="7.511298962571202"><ele>257.0</ele><time>2026-04-16T13:10:54.001Z</time></trkpt><trkpt lat="44.96846870923868" lon="7.511524015213215"><ele>257.5</ele><time>2026-04-16T13:10:55.001Z</time></trkpt><trkpt lat="44.96867606341993" lon="7.51175787284769"><ele>258.0</ele><time>2026-04-16T13:10:56.001Z</time></trkpt><trkpt lat="44.96888715520286" lon="7.511989339605916"><ele>258.0</ele><time>2026-04-16T13:10:57.001Z</time></trkpt><trkpt lat="44.969098469772206" lon="7.5122192451923295"><ele>258.0</ele><time>2026-04-16T13:10:58.001Z</time></trkpt><trkpt lat="44.96931214920286" lon="7.512449635995303"><ele>257.5</ele><time>2026-04-16T13:10:59.001Z</time></trkpt><trkpt lat="44.96952369926848" lon="7.512678869101208"><ele>257.0</ele><time>2026-04-16T13:11:00.001Z</time></trkpt><trkpt lat="44.969740395855275" lon="7.512909227158546"><ele>257.0</ele><time>2026-04-16T13:11:01.001Z</time></trkpt><trkpt lat="44.96995628003779" lon="7.513138297026387"><ele>257.0</ele><time>2026-04-16T13:11:02.001Z</time></trkpt><trkpt lat="44.97016936332638" lon="7.513374360739537"><ele>257.5</ele><time>2026-04-16T13:11:03.001Z</time></trkpt><trkpt lat="44.970377831417125" lon="7.513611708389045"><ele>258.0</ele><time>2026-04-16T13:11:04.001Z</time></trkpt><trkpt lat="44.970577939169765" lon="7.513852767196132"><ele>258.0</ele><time>2026-04-16T13:11:05.001Z</time></trkpt><trkpt lat="44.970773543503235" lon="7.51410307358836"><ele>258.0</ele><time>2026-04-16T13:11:06.001Z</time></trkpt><trkpt lat="44.97096452927664" lon="7.514361591340877"><ele>258.0</ele><time>2026-04-16T13:11:07.001Z</time></trkpt><trkpt lat="44.971150037835024" lon="7.5146239594159825"><ele>258.0</ele><time>2026-04-16T13:11:08.001Z</time></trkpt><trkpt lat="44.971334947590535" lon="7.514889718282287"><ele>258.0</ele><time>2026-04-16T13:11:09.001Z</time></trkpt><trkpt lat="44.97152018890884" lon="7.515164837356846"><ele>258.0</ele><time>2026-04-16T13:11:10.001Z</time></trkpt><trkpt lat="44.97170225832375" lon="7.515445340179905"><ele>258.5</ele><time>2026-04-16T13:11:11.001Z</time></trkpt><trkpt lat="44.971880148753165" lon="7.515736289275141"><ele>259.0</ele><time>2026-04-16T13:11:12.001Z</time></trkpt><trkpt lat="44.972064341198774" lon="7.516038349081036"><ele>258.5</ele><time>2026-04-16T13:11:13.001Z</time></trkpt><trkpt lat="44.97224598601543" lon="7.516354147036025"><ele>258.0</ele><time>2026-04-16T13:11:14.001Z</time></trkpt><trkpt lat="44.97242422100868" lon="7.516675893013346"><ele>258.5</ele><time>2026-04-16T13:11:15.001Z</time></trkpt><trkpt lat="44.97259048673827" lon="7.517009157454027"><ele>259.0</ele><time>2026-04-16T13:11:16.001Z</time></trkpt><trkpt lat="44.97275507440398" lon="7.517344740847119"><ele>259.0</ele><time>2026-04-16T13:11:17.001Z</time></trkpt><trkpt lat="44.97291805031843" lon="7.5176873994357845"><ele>259.0</ele><time>2026-04-16T13:11:18.001Z</time></trkpt><trkpt lat="44.973073163230175" lon="7.5180373471273585"><ele>259.5</ele><time>2026-04-16T13:11:19.001Z</time></trkpt><trkpt lat="44.9732225103339" lon="7.518394825497489"><ele>260.0</ele><time>2026-04-16T13:11:20.001Z</time></trkpt><trkpt lat="44.973367200364" lon="7.518763938725046"><ele>260.0</ele><time>2026-04-16T13:11:21.001Z</time></trkpt><trkpt lat="44.973509289010394" lon="7.519140186409086"><ele>260.0</ele><time>2026-04-16T13:11:22.001Z</time></trkpt><trkpt lat="44.97364543807528" lon="7.519526566346939"><ele>259.0</ele><time>2026-04-16T13:11:23.001Z</time></trkpt><trkpt lat="44.973770672811696" lon="7.519914864819207"><ele>258.0</ele><time>2026-04-16T13:11:24.002Z</time></trkpt><trkpt lat="44.97388940048759" lon="7.520303763302939"><ele>257.0</ele><time>2026-04-16T13:11:25.002Z</time></trkpt><trkpt lat="44.97399662499325" lon="7.520702810216839"><ele>256.0</ele><time>2026-04-16T13:11:26.002Z</time></trkpt><trkpt lat="44.974093841665855" lon="7.521099668793598"><ele>257.5</ele><time>2026-04-16T13:11:27.002Z</time></trkpt><trkpt lat="44.97418609478435" lon="7.521490968160001"><ele>259.0</ele><time>2026-04-16T13:11:28.002Z</time></trkpt><trkpt lat="44.974269056573945" lon="7.521879461180048"><ele>258.5</ele><time>2026-04-16T13:11:29.002Z</time></trkpt><trkpt lat="44.97434890196491" lon="7.522265513055294"><ele>258.0</ele><time>2026-04-16T13:11:30.002Z</time></trkpt><trkpt lat="44.97442127471837" lon="7.522645310476159"><ele>257.5</ele><time>2026-04-16T13:11:31.002Z</time></trkpt><trkpt lat="44.97448323727492" lon="7.5230356512390175"><ele>257.0</ele><time>2026-04-16T13:11:32.002Z</time></trkpt><trkpt lat="44.97454188257928" lon="7.523398526416668"><ele>257.5</ele><time>2026-04-16T13:11:33.002Z</time></trkpt><trkpt lat="44.97458835224327" lon="7.523744828789778"><ele>258.0</ele><time>2026-04-16T13:11:34.002Z</time></trkpt><trkpt lat="44.97462971249316" lon="7.524094879163765"><ele>258.0</ele><time>2026-04-16T13:11:35.002Z</time></trkpt><trkpt lat="44.9746659396393" lon="7.524418397278737"><ele>258.0</ele><time>2026-04-16T13:11:36.002Z</time></trkpt><trkpt lat="44.97470404912312" lon="7.524747288989167"><ele>258.0</ele><time>2026-04-16T13:11:37.002Z</time></trkpt><trkpt lat="44.97474421963404" lon="7.525105159941706"><ele>258.0</ele><time>2026-04-16T13:11:38.002Z</time></trkpt><trkpt lat="44.97478843374656" lon="7.525475726267023"><ele>257.5</ele><time>2026-04-16T13:11:39.002Z</time></trkpt><trkpt lat="44.974836626059734" lon="7.525863482918326"><ele>257.0</ele><time>2026-04-16T13:11:40.002Z</time></trkpt><trkpt lat="44.974884868399435" lon="7.526261252812702"><ele>258.0</ele><time>2026-04-16T13:11:41.002Z</time></trkpt><trkpt lat="44.97493156273108" lon="7.526668672385004"><ele>259.0</ele><time>2026-04-16T13:11:42.002Z</time></trkpt><trkpt lat="44.974978843783276" lon="7.527076025242511"><ele>259.5</ele><time>2026-04-16T13:11:43.002Z</time></trkpt><trkpt lat="44.97502428109502" lon="7.527482539596701"><ele>260.0</ele><time>2026-04-16T13:11:44.002Z</time></trkpt><trkpt lat="44.975069875488906" lon="7.527885941395917"><ele>260.5</ele><time>2026-04-16T13:11:45.002Z</time></trkpt><trkpt lat="44.97511202330879" lon="7.52828392215555"><ele>261.0</ele><time>2026-04-16T13:11:46.002Z</time></trkpt><trkpt lat="44.97515514187206" lon="7.528676600375696"><ele>260.5</ele><time>2026-04-16T13:11:47.002Z</time></trkpt><trkpt lat="44.97519367336905" lon="7.529060315196036"><ele>260.0</ele><time>2026-04-16T13:11:48.002Z</time></trkpt><trkpt lat="44.975233839441394" lon="7.529434067021655"><ele>260.0</ele><time>2026-04-16T13:11:49.002Z</time></trkpt><trkpt lat="44.97527521765261" lon="7.5298071003552876"><ele>260.0</ele><time>2026-04-16T13:11:50.002Z</time></trkpt><trkpt lat="44.97531444232997" lon="7.530176552566886"><ele>260.5</ele><time>2026-04-16T13:11:51.002Z</time></trkpt><trkpt lat="44.97533479648209" lon="7.530540917213343"><ele>261.0</ele><time>2026-04-16T13:11:52.002Z</time></trkpt><trkpt lat="44.97539091934044" lon="7.5309147534278775"><ele>261.0</ele><time>2026-04-16T13:11:53.002Z</time></trkpt><trkpt lat="44.975433763973385" lon="7.531290913681526"><ele>261.0</ele><time>2026-04-16T13:11:54.002Z</time></trkpt><trkpt lat="44.975480538790414" lon="7.531671770855771"><ele>259.5</ele><time>2026-04-16T13:11:55.002Z</time></trkpt><trkpt lat="44.97552505772972" lon="7.532068212162221"><ele>258.0</ele><time>2026-04-16T13:11:56.002Z</time></trkpt><trkpt lat="44.97557554778327" lon="7.53246952560377"><ele>258.0</ele><time>2026-04-16T13:11:57.002Z</time></trkpt><trkpt lat="44.97561673685385" lon="7.532861474348627"><ele>258.0</ele><time>2026-04-16T13:11:58Z</time></trkpt><trkpt lat="44.97565883796375" lon="7.533265744099833"><ele>258.0</ele><time>2026-04-16T13:11:59Z</time></trkpt><trkpt lat="44.97570177404118" lon="7.533668220929255"><ele>258.0</ele><time>2026-04-16T13:12:00Z</time></trkpt><trkpt lat="44.975743892834046" lon="7.534080412497599"><ele>258.0</ele><time>2026-04-16T13:12:01Z</time></trkpt><trkpt lat="44.975780143699865" lon="7.534475613254303"><ele>258.0</ele><time>2026-04-16T13:12:02Z</time></trkpt><trkpt lat="44.97582407091246" lon="7.534880691936875"><ele>258.5</ele><time>2026-04-16T13:12:03Z</time></trkpt><trkpt lat="44.97587195041591" lon="7.535283145426475"><ele>259.0</ele><time>2026-04-16T13:12:04Z</time></trkpt><trkpt lat="44.97591557763576" lon="7.535678588999256"><ele>259.0</ele><time>2026-04-16T13:12:05Z</time></trkpt><trkpt lat="44.975955839475624" lon="7.536074066421032"><ele>259.0</ele><time>2026-04-16T13:12:06Z</time></trkpt><trkpt lat="44.97599473743136" lon="7.536466997670195"><ele>259.0</ele><time>2026-04-16T13:12:07Z</time></trkpt><trkpt lat="44.976031111138234" lon="7.536857307268209"><ele>259.0</ele><time>2026-04-16T13:12:08Z</time></trkpt><trkpt lat="44.97607007289809" lon="7.537239537600625"><ele>257.5</ele><time>2026-04-16T13:12:09Z</time></trkpt><trkpt lat="44.97610558778655" lon="7.537622291494783"><ele>256.0</ele><time>2026-04-16T13:12:10Z</time></trkpt><trkpt lat="44.97614087643512" lon="7.538008427292517"><ele>256.0</ele><time>2026-04-16T13:12:11Z</time></trkpt><trkpt lat="44.97618184087247" lon="7.5383971817389455"><ele>256.0</ele><time>2026-04-16T13:12:12Z</time></trkpt><trkpt lat="44.97622279200475" lon="7.538781380326477"><ele>255.5</ele><time>2026-04-16T13:12:13Z</time></trkpt><trkpt lat="44.97626592629367" lon="7.539174169582841"><ele>255.0</ele><time>2026-04-16T13:12:14Z</time></trkpt><trkpt lat="44.97631018828429" lon="7.539566821629453"><ele>254.0</ele><time>2026-04-16T13:12:15Z</time></trkpt><trkpt lat="44.97635236793292" lon="7.5399602170609406"><ele>253.0</ele><time>2026-04-16T13:12:16Z</time></trkpt><trkpt lat="44.97639282434382" lon="7.540349120141417"><ele>255.5</ele><time>2026-04-16T13:12:17Z</time></trkpt><trkpt lat="44.97643176088154" lon="7.54073783033526"><ele>258.0</ele><time>2026-04-16T13:12:18Z</time></trkpt><trkpt lat="44.976471664538856" lon="7.541125077426553"><ele>258.0</ele><time>2026-04-16T13:12:19Z</time></trkpt><trkpt lat="44.97651483350244" lon="7.541509497033785"><ele>258.0</ele><time>2026-04-16T13:12:20Z</time></trkpt><trkpt lat="44.976558054290635" lon="7.5418899422383685"><ele>258.0</ele><time>2026-04-16T13:12:21Z</time></trkpt><trkpt lat="44.97660334149775" lon="7.542261529430204"><ele>258.0</ele><time>2026-04-16T13:12:22Z</time></trkpt><trkpt lat="44.97665803885787" lon="7.54262953331045"><ele>255.5</ele><time>2026-04-16T13:12:23Z</time></trkpt><trkpt lat="44.976719809083114" lon="7.543004901018754"><ele>253.0</ele><time>2026-04-16T13:12:24Z</time></trkpt><trkpt lat="44.97678743871169" lon="7.543373109458946"><ele>255.0</ele><time>2026-04-16T13:12:25Z</time></trkpt><trkpt lat="44.97686034690992" lon="7.543748623818738"><ele>257.0</ele><time>2026-04-16T13:12:26.001Z</time></trkpt><trkpt lat="44.976936812772195" lon="7.544128296286271"><ele>257.0</ele><time>2026-04-16T13:12:27.001Z</time></trkpt><trkpt lat="44.97701976624414" lon="7.544502753017077"><ele>257.0</ele><time>2026-04-16T13:12:28.001Z</time></trkpt><trkpt lat="44.97711062193858" lon="7.544878252239363"><ele>257.5</ele><time>2026-04-16T13:12:29.001Z</time></trkpt><trkpt lat="44.97720811287513" lon="7.545249902783267"><ele>258.0</ele><time>2026-04-16T13:12:30.001Z</time></trkpt><trkpt lat="44.977314681683644" lon="7.545636251413165"><ele>257.0</ele><time>2026-04-16T13:12:31.001Z</time></trkpt><trkpt lat="44.97742525256015" lon="7.5459992265996885"><ele>256.0</ele><time>2026-04-16T13:12:32.001Z</time></trkpt><trkpt lat="44.977543089591286" lon="7.5463689338541515"><ele>256.0</ele><time>2026-04-16T13:12:33.001Z</time></trkpt><trkpt lat="44.977666778924025" lon="7.546741770790156"><ele>256.0</ele><time>2026-04-16T13:12:34.001Z</time></trkpt><trkpt lat="44.97779207619228" lon="7.547109279430536"><ele>256.5</ele><time>2026-04-16T13:12:35.001Z</time></trkpt><trkpt lat="44.97792248061462" lon="7.5474799035146045"><ele>257.0</ele><time>2026-04-16T13:12:36.001Z</time></trkpt><trkpt lat="44.978058642505594" lon="7.547818818715857"><ele>257.0</ele><time>2026-04-16T13:12:37.001Z</time></trkpt><trkpt lat="44.97820017839254" lon="7.548164138236629"><ele>257.0</ele><time>2026-04-16T13:12:38.001Z</time></trkpt><trkpt lat="44.97834609976601" lon="7.548499183730185"><ele>256.0</ele><time>2026-04-16T13:12:39.001Z</time></trkpt><trkpt lat="44.978498043373946" lon="7.548832046786142"><ele>255.0</ele><time>2026-04-16T13:12:40.001Z</time></trkpt><trkpt lat="44.97865635906169" lon="7.549156764861956"><ele>255.0</ele><time>2026-04-16T13:12:41.001Z</time></trkpt><trkpt lat="44.97881669976308" lon="7.5494767043422755"><ele>255.0</ele><time>2026-04-16T13:12:42.001Z</time></trkpt><trkpt lat="44.978982819422306" lon="7.549790786033656"><ele>256.0</ele><time>2026-04-16T13:12:43.001Z</time></trkpt><trkpt lat="44.97915632830238" lon="7.550095337800948"><ele>257.0</ele><time>2026-04-16T13:12:44.001Z</time></trkpt><trkpt lat="44.97933565358211" lon="7.550394854831758"><ele>257.5</ele><time>2026-04-16T13:12:45.001Z</time></trkpt><trkpt lat="44.97951130462975" lon="7.5506886173758"><ele>258.0</ele><time>2026-04-16T13:12:46.001Z</time></trkpt><trkpt lat="44.979698225781696" lon="7.550983701581901"><ele>258.0</ele><time>2026-04-16T13:12:47.001Z</time></trkpt><trkpt lat="44.979890485144004" lon="7.551268958261866"><ele>258.0</ele><time>2026-04-16T13:12:48.001Z</time></trkpt><trkpt lat="44.98009271453991" lon="7.551547177916869"><ele>258.0</ele><time>2026-04-16T13:12:49.001Z</time></trkpt><trkpt lat="44.980299929285785" lon="7.551818390624332"><ele>258.0</ele><time>2026-04-16T13:12:50.001Z</time></trkpt><trkpt lat="44.98050352105698" lon="7.552075777714994"><ele>258.5</ele><time>2026-04-16T13:12:51.001Z</time></trkpt><trkpt lat="44.98071577574566" lon="7.552327204427101"><ele>259.0</ele><time>2026-04-16T13:12:52.001Z</time></trkpt><trkpt lat="44.9809279499079" lon="7.552557449948831"><ele>258.5</ele><time>2026-04-16T13:12:53.001Z</time></trkpt><trkpt lat="44.98115089007383" lon="7.55277944558444"><ele>258.0</ele><time>2026-04-16T13:12:54.001Z</time></trkpt><trkpt lat="44.981384303532536" lon="7.552994306768996"><ele>258.0</ele><time>2026-04-16T13:12:55.001Z</time></trkpt><trkpt lat="44.981622025143146" lon="7.553192382891514"><ele>258.0</ele><time>2026-04-16T13:12:56.001Z</time></trkpt><trkpt lat="44.98186759796075" lon="7.553379836111121"><ele>257.5</ele><time>2026-04-16T13:12:57.001Z</time></trkpt><trkpt lat="44.98212260919013" lon="7.553557030187569"><ele>257.0</ele><time>2026-04-16T13:12:58.001Z</time></trkpt><trkpt lat="44.98238016197646" lon="7.553733935891367"><ele>257.0</ele><time>2026-04-16T13:12:59.001Z</time></trkpt><trkpt lat="44.982647709914126" lon="7.553909193570248"><ele>257.0</ele><time>2026-04-16T13:13:00.001Z</time></trkpt><trkpt lat="44.982917782784426" lon="7.554080146159391"><ele>257.0</ele><time>2026-04-16T13:13:01.001Z</time></trkpt><trkpt lat="44.98318711380228" lon="7.554259072456269"><ele>257.0</ele><time>2026-04-16T13:13:02.001Z</time></trkpt><trkpt lat="44.98345072822915" lon="7.5544345730692735"><ele>257.0</ele><time>2026-04-16T13:13:03.001Z</time></trkpt><trkpt lat="44.983706401858115" lon="7.554605633046991"><ele>257.0</ele><time>2026-04-16T13:13:04.001Z</time></trkpt><trkpt lat="44.983968294828045" lon="7.554776925643991"><ele>257.0</ele><time>2026-04-16T13:13:05.001Z</time></trkpt><trkpt lat="44.984222388777106" lon="7.5549428188882635"><ele>257.0</ele><time>2026-04-16T13:13:06.001Z</time></trkpt><trkpt lat="44.98447134026289" lon="7.5551059008022206"><ele>257.0</ele><time>2026-04-16T13:13:07.001Z</time></trkpt><trkpt lat="44.98471720625344" lon="7.555271187217357"><ele>257.0</ele><time>2026-04-16T13:13:08.001Z</time></trkpt><trkpt lat="44.984952760224424" lon="7.555445390660501"><ele>257.0</ele><time>2026-04-16T13:13:09.001Z</time></trkpt><trkpt lat="44.985180613157056" lon="7.5556286538542095"><ele>257.0</ele><time>2026-04-16T13:13:10.001Z</time></trkpt><trkpt lat="44.98540308504883" lon="7.555822890184258"><ele>257.0</ele><time>2026-04-16T13:13:11.001Z</time></trkpt><trkpt lat="44.98562286262117" lon="7.556028303002274"><ele>257.0</ele><time>2026-04-16T13:13:12.001Z</time></trkpt><trkpt lat="44.985845084550384" lon="7.556248036305834"><ele>256.0</ele><time>2026-04-16T13:13:13.001Z</time></trkpt><trkpt lat="44.98606751630577" lon="7.556478160802222"><ele>255.0</ele><time>2026-04-16T13:13:14.001Z</time></trkpt><trkpt lat="44.986292200953464" lon="7.556714084422419"><ele>255.0</ele><time>2026-04-16T13:13:15.001Z</time></trkpt><trkpt lat="44.98651304376369" lon="7.556949537717087"><ele>255.0</ele><time>2026-04-16T13:13:16.001Z</time></trkpt><trkpt lat="44.98673032082193" lon="7.557187854613233"><ele>256.5</ele><time>2026-04-16T13:13:17.001Z</time></trkpt><trkpt lat="44.98694882965558" lon="7.557417649176146"><ele>258.0</ele><time>2026-04-16T13:13:18.001Z</time></trkpt><trkpt lat="44.98716452173915" lon="7.557646046090306"><ele>258.0</ele><time>2026-04-16T13:13:19.001Z</time></trkpt><trkpt lat="44.987376665134626" lon="7.557872902737162"><ele>258.0</ele><time>2026-04-16T13:13:20.001Z</time></trkpt><trkpt lat="44.98758472539786" lon="7.55808634395681"><ele>258.0</ele><time>2026-04-16T13:13:21.002Z</time></trkpt><trkpt lat="44.98779260814688" lon="7.5582904838321125"><ele>258.0</ele><time>2026-04-16T13:13:22.002Z</time></trkpt><trkpt lat="44.98799833592011" lon="7.558482565221719"><ele>258.0</ele><time>2026-04-16T13:13:23.002Z</time></trkpt><trkpt lat="44.98821462947015" lon="7.5586605912250935"><ele>258.0</ele><time>2026-04-16T13:13:24.002Z</time></trkpt><trkpt lat="44.988437211257306" lon="7.558829716439019"><ele>257.5</ele><time>2026-04-16T13:13:25.002Z</time></trkpt><trkpt lat="44.98867396397709" lon="7.558994382492784"><ele>257.0</ele><time>2026-04-16T13:13:26.002Z</time></trkpt><trkpt lat="44.98892840745608" lon="7.559157866228018"><ele>257.5</ele><time>2026-04-16T13:13:27.002Z</time></trkpt><trkpt lat="44.98919498659155" lon="7.559310820368894"><ele>258.0</ele><time>2026-04-16T13:13:28.002Z</time></trkpt><trkpt lat="44.989466507660055" lon="7.559452383109519"><ele>257.5</ele><time>2026-04-16T13:13:29.002Z</time></trkpt><trkpt lat="44.989733462760384" lon="7.559572127970246"><ele>257.0</ele><time>2026-04-16T13:13:30.002Z</time></trkpt><trkpt lat="44.990006778886844" lon="7.559680124104878"><ele>257.5</ele><time>2026-04-16T13:13:31.002Z</time></trkpt><trkpt lat="44.99027889313267" lon="7.559782223516728"><ele>258.0</ele><time>2026-04-16T13:13:32.002Z</time></trkpt><trkpt lat="44.99055250562268" lon="7.559891795330067"><ele>258.0</ele><time>2026-04-16T13:13:33.002Z</time></trkpt><trkpt lat="44.99082823654729" lon="7.560001776608957"><ele>258.0</ele><time>2026-04-16T13:13:34.002Z</time></trkpt><trkpt lat="44.99110053289661" lon="7.560108898017919"><ele>255.5</ele><time>2026-04-16T13:13:35.002Z</time></trkpt><trkpt lat="44.99137262012342" lon="7.560216561913591"><ele>253.0</ele><time>2026-04-16T13:13:36.002Z</time></trkpt><trkpt lat="44.99163943997539" lon="7.560324406150497"><ele>255.0</ele><time>2026-04-16T13:13:37.002Z</time></trkpt><trkpt lat="44.9919020062178" lon="7.560435094345745"><ele>257.0</ele><time>2026-04-16T13:13:38.002Z</time></trkpt><trkpt lat="44.99215861485857" lon="7.560551678963999"><ele>257.0</ele><time>2026-04-16T13:13:39.002Z</time></trkpt><trkpt lat="44.99241628731666" lon="7.560680950510344"><ele>257.0</ele><time>2026-04-16T13:13:40.002Z</time></trkpt><trkpt lat="44.99266678208127" lon="7.560823489682301"><ele>257.0</ele><time>2026-04-16T13:13:41.002Z</time></trkpt><trkpt lat="44.99291429089285" lon="7.5609825773240775"><ele>257.0</ele><time>2026-04-16T13:13:42.002Z</time></trkpt><trkpt lat="44.99316313174382" lon="7.561157067412136"><ele>257.0</ele><time>2026-04-16T13:13:43.002Z</time></trkpt><trkpt lat="44.993420541334665" lon="7.561345572406785"><ele>257.0</ele><time>2026-04-16T13:13:44.002Z</time></trkpt><trkpt lat="44.993686435475645" lon="7.561543993158614"><ele>257.0</ele><time>2026-04-16T13:13:45.002Z</time></trkpt><trkpt lat="44.993958863837356" lon="7.561742090046147"><ele>257.0</ele><time>2026-04-16T13:13:46.002Z</time></trkpt><trkpt lat="44.99423163848279" lon="7.5619382777672435"><ele>257.0</ele><time>2026-04-16T13:13:47.002Z</time></trkpt><trkpt lat="44.99449823451721" lon="7.56212900547787"><ele>257.0</ele><time>2026-04-16T13:13:48.002Z</time></trkpt><trkpt lat="44.99475079219652" lon="7.5623095517568935"><ele>257.0</ele><time>2026-04-16T13:13:49.002Z</time></trkpt><trkpt lat="44.995003922274705" lon="7.562492527191347"><ele>257.0</ele><time>2026-04-16T13:13:50.002Z</time></trkpt><trkpt lat="44.99526136539383" lon="7.5626712653649655"><ele>257.0</ele><time>2026-04-16T13:13:51.002Z</time></trkpt><trkpt lat="44.99551877045713" lon="7.562847010631169"><ele>257.0</ele><time>2026-04-16T13:13:52.002Z</time></trkpt><trkpt lat="44.995777578881196" lon="7.562991142220847"><ele>257.5</ele><time>2026-04-16T13:13:53.002Z</time></trkpt><trkpt lat="44.996045260521264" lon="7.5631215119331365"><ele>258.0</ele><time>2026-04-16T13:13:54.002Z</time></trkpt><trkpt lat="44.9963199003827" lon="7.563240152854657"><ele>258.0</ele><time>2026-04-16T13:13:55.002Z</time></trkpt><trkpt lat="44.99660108659758" lon="7.563346658585425"><ele>258.0</ele><time>2026-04-16T13:13:56.002Z</time></trkpt><trkpt lat="44.996886067214575" lon="7.563438577013356"><ele>257.0</ele><time>2026-04-16T13:13:57.002Z</time></trkpt><trkpt lat="44.997176597397846" lon="7.563513678534326"><ele>256.0</ele><time>2026-04-16T13:13:58.002Z</time></trkpt><trkpt lat="44.99747230727822" lon="7.563575676802527"><ele>256.5</ele><time>2026-04-16T13:13:59.002Z</time></trkpt><trkpt lat="44.9977704595061" lon="7.563631552409591"><ele>257.0</ele><time>2026-04-16T13:14:00.002Z</time></trkpt><trkpt lat="44.99807047951519" lon="7.563677834151148"><ele>257.5</ele><time>2026-04-16T13:14:01.002Z</time></trkpt><trkpt lat="44.9983731787477" lon="7.563730378252026"><ele>258.0</ele><time>2026-04-16T13:14:02.002Z</time></trkpt><trkpt lat="44.99866824666715" lon="7.563787865425114"><ele>258.0</ele><time>2026-04-16T13:14:03.002Z</time></trkpt><trkpt lat="44.99895695786658" lon="7.563842234199114"><ele>258.0</ele><time>2026-04-16T13:14:04Z</time></trkpt><trkpt lat="44.999246392766686" lon="7.563897590821202"><ele>259.0</ele><time>2026-04-16T13:14:05Z</time></trkpt><trkpt lat="44.99954003071946" lon="7.5639577790508365"><ele>260.0</ele><time>2026-04-16T13:14:06.001Z</time></trkpt><trkpt lat="44.9998347206155" lon="7.564012591744044"><ele>260.0</ele><time>2026-04-16T13:14:07Z</time></trkpt><trkpt lat="45.0001271339056" lon="7.564068086172681"><ele>260.0</ele><time>2026-04-16T13:14:08Z</time></trkpt><trkpt lat="45.00041355347992" lon="7.564115239118777"><ele>260.0</ele><time>2026-04-16T13:14:09Z</time></trkpt><trkpt lat="45.00069673766303" lon="7.56416507141444"><ele>260.0</ele><time>2026-04-16T13:14:10Z</time></trkpt><trkpt lat="45.000974825721734" lon="7.564212918619627"><ele>257.0</ele><time>2026-04-16T13:14:11Z</time></trkpt><trkpt lat="45.00125251006334" lon="7.564263398302099"><ele>254.0</ele><time>2026-04-16T13:14:12Z</time></trkpt><trkpt lat="45.00152329800152" lon="7.56431030316739"><ele>255.0</ele><time>2026-04-16T13:14:13Z</time></trkpt><trkpt lat="45.0017948504271" lon="7.564362856088708"><ele>256.0</ele><time>2026-04-16T13:14:14Z</time></trkpt><trkpt lat="45.00206228315824" lon="7.5644123625215824"><ele>256.0</ele><time>2026-04-16T13:14:15Z</time></trkpt><trkpt lat="45.002328628515926" lon="7.564463248198687"><ele>256.0</ele><time>2026-04-16T13:14:16Z</time></trkpt><trkpt lat="45.00258945764457" lon="7.5645151851974655"><ele>257.0</ele><time>2026-04-16T13:14:17Z</time></trkpt><trkpt lat="45.002843857832886" lon="7.564582261818184"><ele>258.0</ele><time>2026-04-16T13:14:18Z</time></trkpt><trkpt lat="45.00309650459372" lon="7.564672503141044"><ele>258.5</ele><time>2026-04-16T13:14:19Z</time></trkpt><trkpt lat="45.0033466884297" lon="7.564778274099798"><ele>259.0</ele><time>2026-04-16T13:14:20Z</time></trkpt><trkpt lat="45.00359603430228" lon="7.5649025622317545"><ele>259.0</ele><time>2026-04-16T13:14:21Z</time></trkpt><trkpt lat="45.00384516520613" lon="7.565041657423387"><ele>259.0</ele><time>2026-04-16T13:14:22Z</time></trkpt><trkpt lat="45.00408736732873" lon="7.565197889752245"><ele>259.5</ele><time>2026-04-16T13:14:23Z</time></trkpt><trkpt lat="45.004322810640886" lon="7.565372130801761"><ele>260.0</ele><time>2026-04-16T13:14:24Z</time></trkpt><trkpt lat="45.004546563029464" lon="7.565561640613987"><ele>260.0</ele><time>2026-04-16T13:14:25Z</time></trkpt><trkpt lat="45.00476718665923" lon="7.565774846837349"><ele>260.0</ele><time>2026-04-16T13:14:26Z</time></trkpt><trkpt lat="45.00499695519662" lon="7.5660034876632904"><ele>261.0</ele><time>2026-04-16T13:14:27.001Z</time></trkpt><trkpt lat="45.00521053095597" lon="7.566238764847377"><ele>262.0</ele><time>2026-04-16T13:14:28.001Z</time></trkpt><trkpt lat="45.005414478100676" lon="7.566492407374678"><ele>262.0</ele><time>2026-04-16T13:14:29.001Z</time></trkpt><trkpt lat="45.00560937362335" lon="7.566759533894032"><ele>262.0</ele><time>2026-04-16T13:14:30.001Z</time></trkpt><trkpt lat="45.00579497351935" lon="7.567034400357275"><ele>256.5</ele><time>2026-04-16T13:14:31.001Z</time></trkpt><trkpt lat="45.00597276713407" lon="7.567317447338539"><ele>251.0</ele><time>2026-04-16T13:14:32.001Z</time></trkpt><trkpt lat="45.006143742067025" lon="7.56760424105362"><ele>252.5</ele><time>2026-04-16T13:14:33.001Z</time></trkpt><trkpt lat="45.006309008392996" lon="7.567909002720594"><ele>254.0</ele><time>2026-04-16T13:14:34.001Z</time></trkpt><trkpt lat="45.006463443019555" lon="7.56822312851565"><ele>254.0</ele><time>2026-04-16T13:14:35.001Z</time></trkpt><trkpt lat="45.00661307272285" lon="7.568556390293915"><ele>254.0</ele><time>2026-04-16T13:14:36.001Z</time></trkpt><trkpt lat="45.006754054897854" lon="7.568889211265599"><ele>254.0</ele><time>2026-04-16T13:14:37.001Z</time></trkpt><trkpt lat="45.0068876941703" lon="7.569229793942476"><ele>254.0</ele><time>2026-04-16T13:14:38.001Z</time></trkpt><trkpt lat="45.00701898611114" lon="7.56957149607359"><ele>254.0</ele><time>2026-04-16T13:14:39.001Z</time></trkpt><trkpt lat="45.00715362529834" lon="7.569910839992387"><ele>254.0</ele><time>2026-04-16T13:14:40.001Z</time></trkpt><trkpt lat="45.00728930047726" lon="7.570254949332736"><ele>254.5</ele><time>2026-04-16T13:14:41.001Z</time></trkpt><trkpt lat="45.00742972014146" lon="7.570607640818397"><ele>255.0</ele><time>2026-04-16T13:14:42.001Z</time></trkpt><trkpt lat="45.0075729714057" lon="7.570957748840905"><ele>254.0</ele><time>2026-04-16T13:14:43.001Z</time></trkpt><trkpt lat="45.007714265274615" lon="7.571319110707716"><ele>253.0</ele><time>2026-04-16T13:14:44.001Z</time></trkpt><trkpt lat="45.007854662072134" lon="7.5716762480403865"><ele>253.5</ele><time>2026-04-16T13:14:45.001Z</time></trkpt><trkpt lat="45.0079959918463" lon="7.572043065448482"><ele>254.0</ele><time>2026-04-16T13:14:46.001Z</time></trkpt><trkpt lat="45.008136772459416" lon="7.572418084349757"><ele>254.0</ele><time>2026-04-16T13:14:47.001Z</time></trkpt><trkpt lat="45.00827374861197" lon="7.572763677821904"><ele>254.0</ele><time>2026-04-16T13:14:48.001Z</time></trkpt><trkpt lat="45.0084124481344" lon="7.573115564109805"><ele>253.5</ele><time>2026-04-16T13:14:49.001Z</time></trkpt><trkpt lat="45.00855252492406" lon="7.573472657041773"><ele>253.0</ele><time>2026-04-16T13:14:50.001Z</time></trkpt><trkpt lat="45.00869190416119" lon="7.57382250255233"><ele>253.0</ele><time>2026-04-16T13:14:51.001Z</time></trkpt><trkpt lat="45.008829633971104" lon="7.574176700049648"><ele>253.0</ele><time>2026-04-16T13:14:52.001Z</time></trkpt><trkpt lat="45.00897024125243" lon="7.5745281786910175"><ele>253.0</ele><time>2026-04-16T13:14:53.001Z</time></trkpt><trkpt lat="45.009109396226044" lon="7.574881367740009"><ele>253.0</ele><time>2026-04-16T13:14:54.001Z</time></trkpt><trkpt lat="45.00925011290212" lon="7.575227534208399"><ele>253.0</ele><time>2026-04-16T13:14:55.001Z</time></trkpt><trkpt lat="45.00943746544504" lon="7.575515062071015"><ele>253.0</ele><time>2026-04-16T13:14:56.001Z</time></trkpt><trkpt lat="45.00953561786047" lon="7.575890441605571"><ele>253.0</ele><time>2026-04-16T13:14:57.001Z</time></trkpt><trkpt lat="45.00967119335101" lon="7.5762431890557025"><ele>253.0</ele><time>2026-04-16T13:14:58.001Z</time></trkpt><trkpt lat="45.00980836555358" lon="7.57659937539794"><ele>253.0</ele><time>2026-04-16T13:14:59.001Z</time></trkpt><trkpt lat="45.00993625851155" lon="7.576949412873793"><ele>253.0</ele><time>2026-04-16T13:15:00.001Z</time></trkpt><trkpt lat="45.01006854225807" lon="7.577298839953951"><ele>253.5</ele><time>2026-04-16T13:15:01.001Z</time></trkpt><trkpt lat="45.01020282140938" lon="7.577639082352684"><ele>254.0</ele><time>2026-04-16T13:15:02.001Z</time></trkpt><trkpt lat="45.01033452995926" lon="7.577975453642487"><ele>253.0</ele><time>2026-04-16T13:15:03.001Z</time></trkpt><trkpt lat="45.01045923141989" lon="7.578325643397308"><ele>252.0</ele><time>2026-04-16T13:15:04.001Z</time></trkpt><trkpt lat="45.0105945359002" lon="7.578647233627887"><ele>252.5</ele><time>2026-04-16T13:15:05.001Z</time></trkpt><trkpt lat="45.0107246842937" lon="7.578980765892523"><ele>253.0</ele><time>2026-04-16T13:15:06.001Z</time></trkpt><trkpt lat="45.01085096243876" lon="7.5793106444493725"><ele>251.5</ele><time>2026-04-16T13:15:07.001Z</time></trkpt><trkpt lat="45.01097912581594" lon="7.579642195981588"><ele>250.0</ele><time>2026-04-16T13:15:08.001Z</time></trkpt><trkpt lat="45.01110594629875" lon="7.579986314793004"><ele>250.0</ele><time>2026-04-16T13:15:09.001Z</time></trkpt><trkpt lat="45.011245656098446" lon="7.5802975303039295"><ele>250.0</ele><time>2026-04-16T13:15:10.001Z</time></trkpt><trkpt lat="45.01136902405169" lon="7.580618268523092"><ele>249.0</ele><time>2026-04-16T13:15:11.001Z</time></trkpt><trkpt lat="45.01150063487397" lon="7.580946815950602"><ele>248.0</ele><time>2026-04-16T13:15:12.001Z</time></trkpt><trkpt lat="45.01163498929377" lon="7.581287044883474"><ele>250.5</ele><time>2026-04-16T13:15:13.001Z</time></trkpt><trkpt lat="45.01176645163095" lon="7.581638344278019"><ele>253.0</ele><time>2026-04-16T13:15:14.001Z</time></trkpt><trkpt lat="45.01190135152562" lon="7.581951462782402"><ele>252.0</ele><time>2026-04-16T13:15:15.001Z</time></trkpt><trkpt lat="45.01201837813278" lon="7.582233879771548"><ele>251.0</ele><time>2026-04-16T13:15:16.001Z</time></trkpt><trkpt lat="45.01213402338919" lon="7.58252563395437"><ele>251.0</ele><time>2026-04-16T13:15:17.001Z</time></trkpt><trkpt lat="45.01225275596756" lon="7.5828155201813345"><ele>251.0</ele><time>2026-04-16T13:15:18.001Z</time></trkpt><trkpt lat="45.012373536324475" lon="7.583115044038503"><ele>251.0</ele><time>2026-04-16T13:15:19.001Z</time></trkpt><trkpt lat="45.01249279037571" lon="7.58341125875719"><ele>251.0</ele><time>2026-04-16T13:15:20.001Z</time></trkpt><trkpt lat="45.01260272341058" lon="7.583684543341404"><ele>251.0</ele><time>2026-04-16T13:15:21.001Z</time></trkpt><trkpt lat="45.012700052154216" lon="7.583940087906251"><ele>251.0</ele><time>2026-04-16T13:15:22.001Z</time></trkpt><trkpt lat="45.01279326656733" lon="7.584183740118091"><ele>251.0</ele><time>2026-04-16T13:15:23.001Z</time></trkpt><trkpt lat="45.012880969615075" lon="7.584413096660064"><ele>251.33333333333334</ele><time>2026-04-16T13:15:24.001Z</time></trkpt><trkpt lat="45.01296477019733" lon="7.584621858382695"><ele>251.66666666666669</ele><time>2026-04-16T13:15:25.001Z</time></trkpt><trkpt lat="45.01304245404297" lon="7.5848305479075915"><ele>252.0</ele><time>2026-04-16T13:15:26.001Z</time></trkpt><trkpt lat="45.01311228358597" lon="7.585037972145343"><ele>252.0</ele><time>2026-04-16T13:15:27.001Z</time></trkpt><trkpt lat="45.01318388292366" lon="7.585237865785088"><ele>252.0</ele><time>2026-04-16T13:15:28.002Z</time></trkpt><trkpt lat="45.013253364562686" lon="7.585435151748338"><ele>252.0</ele><time>2026-04-16T13:15:29.002Z</time></trkpt><trkpt lat="45.01331763691171" lon="7.58563016057932"><ele>251.5</ele><time>2026-04-16T13:15:30.002Z</time></trkpt><trkpt lat="45.013370188376975" lon="7.585846339651991"><ele>251.0</ele><time>2026-04-16T13:15:31.002Z</time></trkpt><trkpt lat="45.013436800774805" lon="7.585986171653254"><ele>250.5</ele><time>2026-04-16T13:15:32.002Z</time></trkpt><trkpt lat="45.01349416628542" lon="7.586137690208255"><ele>250.0</ele><time>2026-04-16T13:15:33.002Z</time></trkpt><trkpt lat="45.013552732513695" lon="7.586281179143969"><ele>249.8</ele><time>2026-04-16T13:15:34.002Z</time></trkpt><trkpt lat="45.01359624367618" lon="7.58641692272643"><ele>249.6</ele><time>2026-04-16T13:15:35.002Z</time></trkpt><trkpt lat="45.01363393721811" lon="7.586504084261278"><ele>249.39999999999998</ele><time>2026-04-16T13:15:36.002Z</time></trkpt><trkpt lat="45.013669888528185" lon="7.586587217113378"><ele>249.2</ele><time>2026-04-16T13:15:37.002Z</time></trkpt><trkpt lat="45.01373170773678" lon="7.586722555218216"><ele>249.0</ele><time>2026-04-16T13:15:39.002Z</time></trkpt><trkpt lat="45.01378669088016" lon="7.586837232923096"><ele>249.0</ele><time>2026-04-16T13:15:41.002Z</time></trkpt><trkpt lat="45.01383183782674" lon="7.586929657646742"><ele>248.99999999999997</ele><time>2026-04-16T13:15:42.002Z</time></trkpt><trkpt lat="45.013885397011116" lon="7.587036417857233"><ele>248.99999999999997</ele><time>2026-04-16T13:15:43.002Z</time></trkpt><trkpt lat="45.013951807428924" lon="7.58716880011048"><ele>249.0</ele><time>2026-04-16T13:15:44.002Z</time></trkpt><trkpt lat="45.0140269881371" lon="7.587281076526243"><ele>249.0</ele><time>2026-04-16T13:15:45.002Z</time></trkpt><trkpt lat="45.01407686132529" lon="7.587421001300917"><ele>249.0</ele><time>2026-04-16T13:15:46.002Z</time></trkpt><trkpt lat="45.01412165767568" lon="7.587559968331275"><ele>248.99999999999997</ele><time>2026-04-16T13:15:47.002Z</time></trkpt><trkpt lat="45.014173517949615" lon="7.587683354696681"><ele>248.99999999999997</ele><time>2026-04-16T13:15:48.002Z</time></trkpt><trkpt lat="45.014237318370256" lon="7.58778927854108"><ele>249.0</ele><time>2026-04-16T13:15:49.002Z</time></trkpt><trkpt lat="45.014301664484314" lon="7.587892594316064"><ele>249.0</ele><time>2026-04-16T13:15:50.002Z</time></trkpt><trkpt lat="45.014359177426556" lon="7.587978644620662"><ele>249.33333333333334</ele><time>2026-04-16T13:15:51.002Z</time></trkpt><trkpt lat="45.014420005572305" lon="7.588061013028486"><ele>249.66666666666669</ele><time>2026-04-16T13:15:52.002Z</time></trkpt><trkpt lat="45.01446561140726" lon="7.588135704482279"><ele>250.0</ele><time>2026-04-16T13:15:53.002Z</time></trkpt><trkpt lat="45.014538693953035" lon="7.588221501745893"><ele>250.33333333333334</ele><time>2026-04-16T13:15:55.002Z</time></trkpt><trkpt lat="45.01459087429614" lon="7.588283209557264"><ele>250.66666666666669</ele><time>2026-04-16T13:15:57.002Z</time></trkpt><trkpt lat="45.01465307165605" lon="7.5883786709178995"><ele>251.0</ele><time>2026-04-16T13:16:00.002Z</time></trkpt><trkpt lat="45.01468808453601" lon="7.588476258926661"><ele>251.0</ele><time>2026-04-16T13:16:02.002Z</time></trkpt><trkpt lat="45.01477846791768" lon="7.588613183217065"><ele>251.0</ele><time>2026-04-16T13:16:04.002Z</time></trkpt><trkpt lat="45.01485644536964" lon="7.5887467536229956"><ele>251.0</ele><time>2026-04-16T13:16:05.002Z</time></trkpt><trkpt lat="45.014962944389325" lon="7.588927561573136"><ele>251.0</ele><time>2026-04-16T13:16:06.002Z</time></trkpt><trkpt lat="45.01508372919902" lon="7.589118787256463"><ele>249.66666666666669</ele><time>2026-04-16T13:16:07.002Z</time></trkpt><trkpt lat="45.01522866662593" lon="7.589338938592176"><ele>248.33333333333331</ele><time>2026-04-16T13:16:08.002Z</time></trkpt><trkpt lat="45.01537773495561" lon="7.589560944665795"><ele>247.0</ele><time>2026-04-16T13:16:09.002Z</time></trkpt><trkpt lat="45.01553915068628" lon="7.589799023051182"><ele>247.0</ele><time>2026-04-16T13:16:10.001Z</time></trkpt><trkpt lat="45.015725261143615" lon="7.59005764945359"><ele>247.0</ele><time>2026-04-16T13:16:11.001Z</time></trkpt><trkpt lat="45.01591648643429" lon="7.590317785896163"><ele>245.5</ele><time>2026-04-16T13:16:12.001Z</time></trkpt><trkpt lat="45.01611169270716" lon="7.590578545649384"><ele>244.0</ele><time>2026-04-16T13:16:13.001Z</time></trkpt><trkpt lat="45.01631637428235" lon="7.590836491200962"><ele>244.0</ele><time>2026-04-16T13:16:14.001Z</time></trkpt><trkpt lat="45.01653256441471" lon="7.5911008369665"><ele>244.0</ele><time>2026-04-16T13:16:15.001Z</time></trkpt><trkpt lat="45.01674717786661" lon="7.591359134234399"><ele>245.0</ele><time>2026-04-16T13:16:16.001Z</time></trkpt><trkpt lat="45.01695938732906" lon="7.591616361229527"><ele>246.0</ele><time>2026-04-16T13:16:17.001Z</time></trkpt><trkpt lat="45.0171785870747" lon="7.591866776381495"><ele>246.0</ele><time>2026-04-16T13:16:18.001Z</time></trkpt><trkpt lat="45.01739889300288" lon="7.592112577171375"><ele>246.0</ele><time>2026-04-16T13:16:19Z</time></trkpt><trkpt lat="45.01762124741174" lon="7.592354181158692"><ele>247.5</ele><time>2026-04-16T13:16:20Z</time></trkpt><trkpt lat="45.017842347434566" lon="7.592584410354987"><ele>249.0</ele><time>2026-04-16T13:16:21Z</time></trkpt><trkpt lat="45.01806558224423" lon="7.592803764693817"><ele>249.5</ele><time>2026-04-16T13:16:22Z</time></trkpt><trkpt lat="45.01829241625366" lon="7.593022687574092"><ele>250.0</ele><time>2026-04-16T13:16:23Z</time></trkpt><trkpt lat="45.01851653847775" lon="7.593236321258816"><ele>252.0</ele><time>2026-04-16T13:16:24Z</time></trkpt><trkpt lat="45.01875029707852" lon="7.593454642594837"><ele>254.0</ele><time>2026-04-16T13:16:25Z</time></trkpt><trkpt lat="45.01898368147944" lon="7.593667983299383"><ele>255.0</ele><time>2026-04-16T13:16:26Z</time></trkpt><trkpt lat="45.01921381836636" lon="7.59387942859889"><ele>256.0</ele><time>2026-04-16T13:16:27Z</time></trkpt><trkpt lat="45.01943222012344" lon="7.5940823790209695"><ele>256.0</ele><time>2026-04-16T13:16:28Z</time></trkpt><trkpt lat="45.019670807384955" lon="7.594300555713468"><ele>256.0</ele><time>2026-04-16T13:16:29Z</time></trkpt><trkpt lat="45.01989585326712" lon="7.594508103213997"><ele>256.0</ele><time>2026-04-16T13:16:30Z</time></trkpt><trkpt lat="45.02012685184267" lon="7.594730192048713"><ele>256.0</ele><time>2026-04-16T13:16:31.001Z</time></trkpt><trkpt lat="45.02033631122667" lon="7.594936782901699"><ele>256.0</ele><time>2026-04-16T13:16:32.001Z</time></trkpt><trkpt lat="45.02055127493055" lon="7.5951317511000305"><ele>256.0</ele><time>2026-04-16T13:16:33.001Z</time></trkpt><trkpt lat="45.02075939524929" lon="7.595349216765156"><ele>255.0</ele><time>2026-04-16T13:16:34.001Z</time></trkpt><trkpt lat="45.020956457462674" lon="7.595582878647971"><ele>254.0</ele><time>2026-04-16T13:16:35.001Z</time></trkpt><trkpt lat="45.02114194640769" lon="7.595834536665466"><ele>254.0</ele><time>2026-04-16T13:16:36.001Z</time></trkpt><trkpt lat="45.02131366203429" lon="7.596096231207974"><ele>254.0</ele><time>2026-04-16T13:16:37.001Z</time></trkpt><trkpt lat="45.02147601338522" lon="7.596371471239605"><ele>254.5</ele><time>2026-04-16T13:16:38.001Z</time></trkpt><trkpt lat="45.02162840373389" lon="7.5966624482555645"><ele>255.0</ele><time>2026-04-16T13:16:39.001Z</time></trkpt><trkpt lat="45.0217812119694" lon="7.5969954258608245"><ele>256.0</ele><time>2026-04-16T13:16:40.001Z</time></trkpt><trkpt lat="45.02192115781581" lon="7.597317873920704"><ele>257.0</ele><time>2026-04-16T13:16:41.001Z</time></trkpt><trkpt lat="45.0220572864476" lon="7.597655524884401"><ele>257.5</ele><time>2026-04-16T13:16:42.001Z</time></trkpt><trkpt lat="45.02219179926452" lon="7.598012827483757"><ele>258.0</ele><time>2026-04-16T13:16:43.001Z</time></trkpt><trkpt lat="45.02232592986646" lon="7.5983830569249005"><ele>255.5</ele><time>2026-04-16T13:16:44.001Z</time></trkpt><trkpt lat="45.022461060638015" lon="7.598749115282497"><ele>253.0</ele><time>2026-04-16T13:16:45.001Z</time></trkpt><trkpt lat="45.02259504419714" lon="7.599129290259462"><ele>253.0</ele><time>2026-04-16T13:16:46.001Z</time></trkpt><trkpt lat="45.022725027738744" lon="7.599469314137495"><ele>253.0</ele><time>2026-04-16T13:16:47.001Z</time></trkpt><trkpt lat="45.02285440207717" lon="7.599818247628815"><ele>253.0</ele><time>2026-04-16T13:16:48.001Z</time></trkpt><trkpt lat="45.02298499293699" lon="7.600172012121011"><ele>253.0</ele><time>2026-04-16T13:16:49.001Z</time></trkpt><trkpt lat="45.02311051917536" lon="7.600519683570686"><ele>252.5</ele><time>2026-04-16T13:16:50.001Z</time></trkpt><trkpt lat="45.02323459635617" lon="7.600862798904124"><ele>252.0</ele><time>2026-04-16T13:16:51.001Z</time></trkpt><trkpt lat="45.023360437137" lon="7.60121034819758"><ele>252.0</ele><time>2026-04-16T13:16:52.001Z</time></trkpt><trkpt lat="45.02349710171369" lon="7.601567762650879"><ele>252.0</ele><time>2026-04-16T13:16:53.001Z</time></trkpt><trkpt lat="45.023648575847666" lon="7.601934834750015"><ele>253.5</ele><time>2026-04-16T13:16:54.001Z</time></trkpt><trkpt lat="45.02381087077798" lon="7.602286273851615"><ele>255.0</ele><time>2026-04-16T13:16:55.001Z</time></trkpt><trkpt lat="45.02397959282176" lon="7.602615601392236"><ele>254.5</ele><time>2026-04-16T13:16:56.001Z</time></trkpt><trkpt lat="45.02416465967962" lon="7.602924366052183"><ele>254.0</ele><time>2026-04-16T13:16:57.001Z</time></trkpt><trkpt lat="45.02434487059326" lon="7.603198528113613"><ele>254.0</ele><time>2026-04-16T13:16:58.001Z</time></trkpt><trkpt lat="45.024524174850455" lon="7.6034441053793635"><ele>254.0</ele><time>2026-04-16T13:16:59.001Z</time></trkpt><trkpt lat="45.0247118304468" lon="7.603679730120671"><ele>254.5</ele><time>2026-04-16T13:17:00.001Z</time></trkpt><trkpt lat="45.02491099115507" lon="7.603927169157821"><ele>255.0</ele><time>2026-04-16T13:17:01.001Z</time></trkpt><trkpt lat="45.02512775630372" lon="7.604121425734526"><ele>254.0</ele><time>2026-04-16T13:17:02.001Z</time></trkpt><trkpt lat="45.02535365694509" lon="7.604313912422253"><ele>253.0</ele><time>2026-04-16T13:17:03.001Z</time></trkpt><trkpt lat="45.025598870049734" lon="7.6044997321014245"><ele>253.5</ele><time>2026-04-16T13:17:04.001Z</time></trkpt><trkpt lat="45.02585713759912" lon="7.604680869003239"><ele>254.0</ele><time>2026-04-16T13:17:05.001Z</time></trkpt><trkpt lat="45.026124780500055" lon="7.604860395319574"><ele>254.0</ele><time>2026-04-16T13:17:06.001Z</time></trkpt><trkpt lat="45.02639578448511" lon="7.605023097520311"><ele>254.0</ele><time>2026-04-16T13:17:07.001Z</time></trkpt><trkpt lat="45.026667555865714" lon="7.605189906633728"><ele>253.5</ele><time>2026-04-16T13:17:08.001Z</time></trkpt><trkpt lat="45.02692952815228" lon="7.60534761551453"><ele>253.0</ele><time>2026-04-16T13:17:09.001Z</time></trkpt><trkpt lat="45.02717511485012" lon="7.60549093311059"><ele>253.0</ele><time>2026-04-16T13:17:10.001Z</time></trkpt><trkpt lat="45.02741766746201" lon="7.605633083653528"><ele>253.0</ele><time>2026-04-16T13:17:11.001Z</time></trkpt><trkpt lat="45.0276541681167" lon="7.605771374917521"><ele>254.0</ele><time>2026-04-16T13:17:12.001Z</time></trkpt><trkpt lat="45.027879909595406" lon="7.605903021594304"><ele>255.0</ele><time>2026-04-16T13:17:13.001Z</time></trkpt><trkpt lat="45.02807452073209" lon="7.606012182581164"><ele>255.0</ele><time>2026-04-16T13:17:14.001Z</time></trkpt><trkpt lat="45.028251063799736" lon="7.606113631544207"><ele>255.0</ele><time>2026-04-16T13:17:15.001Z</time></trkpt><trkpt lat="45.0284074046756" lon="7.606203137223347"><ele>255.0</ele><time>2026-04-16T13:17:16.001Z</time></trkpt><trkpt lat="45.02855634008367" lon="7.606281809502017"><ele>254.66666666666669</ele><time>2026-04-16T13:17:17.001Z</time></trkpt><trkpt lat="45.02872069175734" lon="7.606331511558284"><ele>254.33333333333334</ele><time>2026-04-16T13:17:18.001Z</time></trkpt><trkpt lat="45.02888891794273" lon="7.606341759047009"><ele>254.0</ele><time>2026-04-16T13:17:19.001Z</time></trkpt><trkpt lat="45.029047151702365" lon="7.606320774824669"><ele>255.25</ele><time>2026-04-16T13:17:20.001Z</time></trkpt><trkpt lat="45.02919935559688" lon="7.606276749616471"><ele>256.5</ele><time>2026-04-16T13:17:21.001Z</time></trkpt><trkpt lat="45.02933966571758" lon="7.606220423272075"><ele>257.75</ele><time>2026-04-16T13:17:22.001Z</time></trkpt><trkpt lat="45.02947365548741" lon="7.606160634388747"><ele>259.0</ele><time>2026-04-16T13:17:23.001Z</time></trkpt><trkpt lat="45.029601622161564" lon="7.606115450799598"><ele>259.0</ele><time>2026-04-16T13:17:24.001Z</time></trkpt><trkpt lat="45.0297350909427" lon="7.6061104226650285"><ele>259.0</ele><time>2026-04-16T13:17:25.001Z</time></trkpt><trkpt lat="45.029854243873864" lon="7.606130929043049"><ele>259.0</ele><time>2026-04-16T13:17:26.001Z</time></trkpt><trkpt lat="45.029978464503955" lon="7.606189411026494"><ele>259.0</ele><time>2026-04-16T13:17:27.001Z</time></trkpt><trkpt lat="45.03009784287983" lon="7.606284166004951"><ele>259.0</ele><time>2026-04-16T13:17:28.001Z</time></trkpt><trkpt lat="45.03020376693968" lon="7.60641403261622"><ele>259.0</ele><time>2026-04-16T13:17:29.001Z</time></trkpt><trkpt lat="45.03030303176468" lon="7.6065722418300545"><ele>259.0</ele><time>2026-04-16T13:17:30.001Z</time></trkpt><trkpt lat="45.03037997693134" lon="7.606765574243532"><ele>259.0</ele><time>2026-04-16T13:17:31.001Z</time></trkpt><trkpt lat="45.03042175084061" lon="7.606980587910056"><ele>259.0</ele><time>2026-04-16T13:17:32.001Z</time></trkpt><trkpt lat="45.03043133317169" lon="7.607213303367255"><ele>259.0</ele><time>2026-04-16T13:17:33.001Z</time></trkpt><trkpt lat="45.03041505125461" lon="7.607448756040478"><ele>259.0</ele><time>2026-04-16T13:17:34.001Z</time></trkpt><trkpt lat="45.030396560135216" lon="7.607691186114795"><ele>258.66666666666663</ele><time>2026-04-16T13:17:35.002Z</time></trkpt><trkpt lat="45.03038801522709" lon="7.607947871565446"><ele>258.3333333333333</ele><time>2026-04-16T13:17:36.002Z</time></trkpt><trkpt lat="45.03038224627184" lon="7.608175779107889"><ele>258.0</ele><time>2026-04-16T13:17:37.002Z</time></trkpt><trkpt lat="45.03037793776695" lon="7.608381976949801"><ele>258.0</ele><time>2026-04-16T13:17:38.002Z</time></trkpt><trkpt lat="45.03036765729487" lon="7.608581187803453"><ele>258.0</ele><time>2026-04-16T13:17:39.002Z</time></trkpt><trkpt lat="45.03035986231712" lon="7.608781849887589"><ele>258.0</ele><time>2026-04-16T13:17:40.002Z</time></trkpt><trkpt lat="45.03035952629971" lon="7.608969018567987"><ele>258.0</ele><time>2026-04-16T13:17:41.002Z</time></trkpt><trkpt lat="45.03037095670911" lon="7.609145694455191"><ele>258.0</ele><time>2026-04-16T13:17:42.002Z</time></trkpt><trkpt lat="45.03039845140804" lon="7.609313714170748"><ele>258.0</ele><time>2026-04-16T13:17:43.002Z</time></trkpt><trkpt lat="45.03043658970592" lon="7.609499606566671"><ele>258.0</ele><time>2026-04-16T13:17:44.002Z</time></trkpt><trkpt lat="45.03048456542942" lon="7.609735839326679"><ele>258.0</ele><time>2026-04-16T13:17:45.002Z</time></trkpt><trkpt lat="45.030543492843314" lon="7.609991278722008"><ele>258.0</ele><time>2026-04-16T13:17:46.002Z</time></trkpt><trkpt lat="45.030630367073826" lon="7.610275782845783"><ele>258.0</ele><time>2026-04-16T13:17:47.002Z</time></trkpt><trkpt lat="45.0307129787507" lon="7.610578898638211"><ele>258.0</ele><time>2026-04-16T13:17:48.002Z</time></trkpt><trkpt lat="45.030800417639014" lon="7.610891280466254"><ele>257.6666666666667</ele><time>2026-04-16T13:17:49.002Z</time></trkpt><trkpt lat="45.03089205170899" lon="7.611183610651861"><ele>257.33333333333337</ele><time>2026-04-16T13:17:50.002Z</time></trkpt><trkpt lat="45.030953194338174" lon="7.611396936060353"><ele>257.0</ele><time>2026-04-16T13:17:51.002Z</time></trkpt><trkpt lat="45.03100556665487" lon="7.6116076393899945"><ele>257.0</ele><time>2026-04-16T13:17:52.002Z</time></trkpt><trkpt lat="45.031049992683045" lon="7.611834716825038"><ele>257.0</ele><time>2026-04-16T13:17:53.002Z</time></trkpt><trkpt lat="45.031090634586114" lon="7.612081927822642"><ele>257.0</ele><time>2026-04-16T13:17:54.002Z</time></trkpt><trkpt lat="45.03112130891064" lon="7.612301183303128"><ele>257.0</ele><time>2026-04-16T13:17:55.002Z</time></trkpt><trkpt lat="45.03115169236402" lon="7.612557375370697"><ele>257.0</ele><time>2026-04-16T13:17:56.002Z</time></trkpt><trkpt lat="45.0311624550866" lon="7.612731555061971"><ele>257.0</ele><time>2026-04-16T13:17:57.002Z</time></trkpt><trkpt lat="45.031177847943525" lon="7.612903447415508"><ele>257.0</ele><time>2026-04-16T13:17:58.002Z</time></trkpt><trkpt lat="45.031196012997896" lon="7.613056794071656"><ele>257.0</ele><time>2026-04-16T13:17:59.002Z</time></trkpt><trkpt lat="45.03119156757632" lon="7.613191214968593"><ele>257.0</ele><time>2026-04-16T13:18:00.002Z</time></trkpt><trkpt lat="45.0311627513312" lon="7.613314187516945"><ele>257.0</ele><time>2026-04-16T13:18:01.002Z</time></trkpt><trkpt lat="45.03113023752341" lon="7.613421723599391"><ele>257.0</ele><time>2026-04-16T13:18:02.002Z</time></trkpt><trkpt lat="45.03110640511158" lon="7.613511515485281"><ele>257.0</ele><time>2026-04-16T13:18:03.002Z</time></trkpt><trkpt lat="45.031063009360665" lon="7.6136511423814115"><ele>257.0</ele><time>2026-04-16T13:18:05.002Z</time></trkpt><trkpt lat="45.031041719194704" lon="7.613759793785713"><ele>257.5</ele><time>2026-04-16T13:18:07.002Z</time></trkpt><trkpt lat="45.031009541171414" lon="7.613865168147048"><ele>258.0</ele><time>2026-04-16T13:18:17Z</time></trkpt><trkpt lat="45.030964234262896" lon="7.613995925257483"><ele>258.5</ele><time>2026-04-16T13:18:18Z</time></trkpt><trkpt lat="45.0308998233004" lon="7.614157502255586"><ele>259.0</ele><time>2026-04-16T13:18:19Z</time></trkpt><trkpt lat="45.0308237237963" lon="7.614331877698263"><ele>258.66666666666663</ele><time>2026-04-16T13:18:20Z</time></trkpt><trkpt lat="45.03073973780368" lon="7.61451696112455"><ele>258.3333333333333</ele><time>2026-04-16T13:18:21Z</time></trkpt><trkpt lat="45.030650887578666" lon="7.61470780089244"><ele>258.0</ele><time>2026-04-16T13:18:22Z</time></trkpt><trkpt lat="45.03056418025361" lon="7.6149015795296"><ele>258.0</ele><time>2026-04-16T13:18:23Z</time></trkpt><trkpt lat="45.03049007000493" lon="7.61510081576136"><ele>258.0</ele><time>2026-04-16T13:18:24Z</time></trkpt><trkpt lat="45.03039869315024" lon="7.615288398791576"><ele>258.0</ele><time>2026-04-16T13:18:25Z</time></trkpt><trkpt lat="45.03033307329213" lon="7.615475625765053"><ele>258.6666666666667</ele><time>2026-04-16T13:18:26Z</time></trkpt><trkpt lat="45.03026763641343" lon="7.6156768735048805"><ele>259.33333333333337</ele><time>2026-04-16T13:18:27Z</time></trkpt><trkpt lat="45.03020149463231" lon="7.615884273699155"><ele>260.0</ele><time>2026-04-16T13:18:28Z</time></trkpt><trkpt lat="45.030115903127026" lon="7.616106793081744"><ele>259.33333333333337</ele><time>2026-04-16T13:18:29Z</time></trkpt><trkpt lat="45.03003215694155" lon="7.616330827160503"><ele>258.6666666666667</ele><time>2026-04-16T13:18:30Z</time></trkpt><trkpt lat="45.0299459538972" lon="7.616553230425571"><ele>258.0</ele><time>2026-04-16T13:18:31Z</time></trkpt><trkpt lat="45.0298619588098" lon="7.616755712037676"><ele>258.0</ele><time>2026-04-16T13:18:32Z</time></trkpt><trkpt lat="45.02978687008157" lon="7.616947599140956"><ele>258.0</ele><time>2026-04-16T13:18:33Z</time></trkpt><trkpt lat="45.02971130659712" lon="7.617147270825157"><ele>258.0</ele><time>2026-04-16T13:18:34Z</time></trkpt><trkpt lat="45.02963083825218" lon="7.617347670351389"><ele>258.0</ele><time>2026-04-16T13:18:35Z</time></trkpt><trkpt lat="45.029550911507485" lon="7.617555551092855"><ele>258.0</ele><time>2026-04-16T13:18:36Z</time></trkpt><trkpt lat="45.0294667583011" lon="7.617763318392492"><ele>258.0</ele><time>2026-04-16T13:18:37Z</time></trkpt><trkpt lat="45.02938644187118" lon="7.617975141120109"><ele>258.0</ele><time>2026-04-16T13:18:38Z</time></trkpt><trkpt lat="45.02930129046478" lon="7.618202909034555"><ele>258.0</ele><time>2026-04-16T13:18:39Z</time></trkpt><trkpt lat="45.029211619651775" lon="7.618433465043623"><ele>258.0</ele><time>2026-04-16T13:18:40Z</time></trkpt><trkpt lat="45.029115554032806" lon="7.618664337537374"><ele>257.6666666666667</ele><time>2026-04-16T13:18:41Z</time></trkpt><trkpt lat="45.029020538923675" lon="7.618895631202738"><ele>257.33333333333337</ele><time>2026-04-16T13:18:42Z</time></trkpt><trkpt lat="45.028943915783515" lon="7.619133182190752"><ele>257.0</ele><time>2026-04-16T13:18:43Z</time></trkpt><trkpt lat="45.028748138407714" lon="7.61964155816869"><ele>256.33333333333337</ele><time>2026-04-16T13:18:45Z</time></trkpt><trkpt lat="45.028660109958565" lon="7.619860364969407"><ele>255.66666666666669</ele><time>2026-04-16T13:18:46Z</time></trkpt><trkpt lat="45.02856181905763" lon="7.620115703308003"><ele>255.0</ele><time>2026-04-16T13:18:47Z</time></trkpt><trkpt lat="45.02846533103214" lon="7.620357109444564"><ele>255.0</ele><time>2026-04-16T13:18:48Z</time></trkpt><trkpt lat="45.028376623028144" lon="7.62059961980239"><ele>255.0</ele><time>2026-04-16T13:18:49Z</time></trkpt><trkpt lat="45.02828631323669" lon="7.6208394402105695"><ele>255.0</ele><time>2026-04-16T13:18:50Z</time></trkpt><trkpt lat="45.028193096497304" lon="7.62108309279176"><ele>255.33333333333331</ele><time>2026-04-16T13:18:51.001Z</time></trkpt><trkpt lat="45.028097811727086" lon="7.621321226296966"><ele>255.66666666666666</ele><time>2026-04-16T13:18:52.001Z</time></trkpt><trkpt lat="45.028003401880525" lon="7.621552256760549"><ele>256.0</ele><time>2026-04-16T13:18:53.001Z</time></trkpt><trkpt lat="45.02791473826956" lon="7.621784128815831"><ele>255.0</ele><time>2026-04-16T13:18:54.001Z</time></trkpt><trkpt lat="45.02782529999118" lon="7.622017040550922"><ele>254.0</ele><time>2026-04-16T13:18:55.001Z</time></trkpt><trkpt lat="45.02773737430822" lon="7.62225100451474"><ele>253.0</ele><time>2026-04-16T13:18:56.001Z</time></trkpt><trkpt lat="45.027649677782264" lon="7.622490543707951"><ele>253.0</ele><time>2026-04-16T13:18:57.001Z</time></trkpt><trkpt lat="45.02754936885492" lon="7.622760668275314"><ele>253.0</ele><time>2026-04-16T13:18:58.001Z</time></trkpt><trkpt lat="45.02743821010956" lon="7.623036058987466"><ele>253.0</ele><time>2026-04-16T13:18:59.001Z</time></trkpt><trkpt lat="45.02732677599895" lon="7.623315937153753"><ele>253.0</ele><time>2026-04-16T13:19:00.001Z</time></trkpt><trkpt lat="45.02722169610409" lon="7.623592455643636"><ele>253.0</ele><time>2026-04-16T13:19:01.001Z</time></trkpt><trkpt lat="45.02711430098724" lon="7.623859183315234"><ele>253.0</ele><time>2026-04-16T13:19:02.001Z</time></trkpt><trkpt lat="45.02701216847387" lon="7.624126457500202"><ele>252.66666666666666</ele><time>2026-04-16T13:19:03.001Z</time></trkpt><trkpt lat="45.026918472592655" lon="7.624387186723429"><ele>252.33333333333331</ele><time>2026-04-16T13:19:04.001Z</time></trkpt><trkpt lat="45.026813569787166" lon="7.624650672920468"><ele>252.0</ele><time>2026-04-16T13:19:05.001Z</time></trkpt><trkpt lat="45.02671594988241" lon="7.624912346941619"><ele>252.33333333333331</ele><time>2026-04-16T13:19:06.001Z</time></trkpt><trkpt lat="45.0266014839265" lon="7.625184912120588"><ele>252.66666666666666</ele><time>2026-04-16T13:19:07.001Z</time></trkpt><trkpt lat="45.02650052604104" lon="7.625449004323274"><ele>253.0</ele><time>2026-04-16T13:19:08.001Z</time></trkpt><trkpt lat="45.02640020502248" lon="7.6257126139238975"><ele>253.0</ele><time>2026-04-16T13:19:09.001Z</time></trkpt><trkpt lat="45.026298574261574" lon="7.625966304734541"><ele>253.0</ele><time>2026-04-16T13:19:10.001Z</time></trkpt><trkpt lat="45.02620622752518" lon="7.626210421569744"><ele>253.0</ele><time>2026-04-16T13:19:11.001Z</time></trkpt><trkpt lat="45.02611443482988" lon="7.626456210025349"><ele>253.0</ele><time>2026-04-16T13:19:12.001Z</time></trkpt><trkpt lat="45.02602427588208" lon="7.626699250414395"><ele>253.0</ele><time>2026-04-16T13:19:13.001Z</time></trkpt><trkpt lat="45.02592985009073" lon="7.626942775292378"><ele>253.0</ele><time>2026-04-16T13:19:14.001Z</time></trkpt><trkpt lat="45.0258341260034" lon="7.627195094260062"><ele>253.33333333333331</ele><time>2026-04-16T13:19:15.001Z</time></trkpt><trkpt lat="45.02574247537943" lon="7.6274542023251515"><ele>253.66666666666669</ele><time>2026-04-16T13:19:16.001Z</time></trkpt><trkpt lat="45.02563874635636" lon="7.627709478862324"><ele>254.0</ele><time>2026-04-16T13:19:17.001Z</time></trkpt><trkpt lat="45.02553051460847" lon="7.6279840932966225"><ele>254.0</ele><time>2026-04-16T13:19:18.001Z</time></trkpt><trkpt lat="45.02542514286309" lon="7.628254575726837"><ele>254.0</ele><time>2026-04-16T13:19:19.001Z</time></trkpt><trkpt lat="45.025321249687934" lon="7.628526266847675"><ele>254.0</ele><time>2026-04-16T13:19:20.001Z</time></trkpt><trkpt lat="45.02521745887962" lon="7.628796907237964"><ele>254.0</ele><time>2026-04-16T13:19:21.001Z</time></trkpt><trkpt lat="45.025111647423635" lon="7.6290605866869035"><ele>254.0</ele><time>2026-04-16T13:19:22.001Z</time></trkpt><trkpt lat="45.02500731666912" lon="7.629327221501608"><ele>254.0</ele><time>2026-04-16T13:19:23.001Z</time></trkpt><trkpt lat="45.02490136566636" lon="7.629594865643363"><ele>254.0</ele><time>2026-04-16T13:19:24.001Z</time></trkpt><trkpt lat="45.024796592732585" lon="7.629865937460887"><ele>254.0</ele><time>2026-04-16T13:19:25.001Z</time></trkpt><trkpt lat="45.02469324643873" lon="7.630139178862028"><ele>254.0</ele><time>2026-04-16T13:19:26.001Z</time></trkpt><trkpt lat="45.024586943143646" lon="7.630411816866764"><ele>252.66666666666669</ele><time>2026-04-16T13:19:27.001Z</time></trkpt><trkpt lat="45.0244823335661" lon="7.6306788334626106"><ele>251.33333333333331</ele><time>2026-04-16T13:19:28.001Z</time></trkpt><trkpt lat="45.02438751245213" lon="7.630939872010594"><ele>250.0</ele><time>2026-04-16T13:19:29.001Z</time></trkpt><trkpt lat="45.02428879119521" lon="7.631205276377074"><ele>249.66666666666666</ele><time>2026-04-16T13:19:30.001Z</time></trkpt><trkpt lat="45.02418091360898" lon="7.631467995955253"><ele>249.33333333333331</ele><time>2026-04-16T13:19:31.001Z</time></trkpt><trkpt lat="45.024077004027944" lon="7.631735363525218"><ele>249.0</ele><time>2026-04-16T13:19:32.001Z</time></trkpt><trkpt lat="45.02397600766305" lon="7.631978754540616"><ele>248.66666666666669</ele><time>2026-04-16T13:19:33.001Z</time></trkpt><trkpt lat="45.0238883868289" lon="7.6322047969674935"><ele>248.33333333333334</ele><time>2026-04-16T13:19:34.001Z</time></trkpt><trkpt lat="45.0238043722549" lon="7.632407055505193"><ele>248.0</ele><time>2026-04-16T13:19:35.001Z</time></trkpt><trkpt lat="45.02373458596252" lon="7.632605117019504"><ele>248.0</ele><time>2026-04-16T13:19:36.001Z</time></trkpt><trkpt lat="45.02365693347883" lon="7.6327440144575975"><ele>248.0</ele><time>2026-04-16T13:19:37.001Z</time></trkpt><trkpt lat="45.02358170208176" lon="7.632928317490729"><ele>248.0</ele><time>2026-04-16T13:19:38.001Z</time></trkpt><trkpt lat="45.02351155781449" lon="7.633102372348128"><ele>248.0</ele><time>2026-04-16T13:19:39.001Z</time></trkpt><trkpt lat="45.023461139280755" lon="7.633256150624402"><ele>247.60000000000002</ele><time>2026-04-16T13:19:40.001Z</time></trkpt><trkpt lat="45.023406922321" lon="7.6333943768606005"><ele>247.20000000000002</ele><time>2026-04-16T13:19:41.001Z</time></trkpt><trkpt lat="45.023362171154616" lon="7.633526156908843"><ele>246.8</ele><time>2026-04-16T13:19:42.001Z</time></trkpt><trkpt lat="45.023320929219004" lon="7.633651709690617"><ele>246.4</ele><time>2026-04-16T13:19:43.001Z</time></trkpt><trkpt lat="45.023278530022765" lon="7.6337754433721"><ele>246.0</ele><time>2026-04-16T13:19:44.001Z</time></trkpt><trkpt lat="45.0232351591352" lon="7.633896483157611"><ele>246.0</ele><time>2026-04-16T13:19:45.001Z</time></trkpt><trkpt lat="45.02319460474353" lon="7.634001498296754"><ele>246.00000000000003</ele><time>2026-04-16T13:19:46.001Z</time></trkpt><trkpt lat="45.02317019040639" lon="7.634088357138699"><ele>246.00000000000003</ele><time>2026-04-16T13:19:47.001Z</time></trkpt><trkpt lat="45.02311559180077" lon="7.6342138726323086"><ele>246.0</ele><time>2026-04-16T13:19:49.001Z</time></trkpt><trkpt lat="45.02306229132442" lon="7.6343007305252835"><ele>246.0</ele><time>2026-04-16T13:20:36Z</time></trkpt><trkpt lat="45.02299294235579" lon="7.634470664671108"><ele>246.16666666666666</ele><time>2026-04-16T13:20:38Z</time></trkpt><trkpt lat="45.02291951972588" lon="7.634545375900202"><ele>246.33333333333331</ele><time>2026-04-16T13:20:39Z</time></trkpt><trkpt lat="45.02285159704229" lon="7.634614740194084"><ele>246.5</ele><time>2026-04-16T13:20:40Z</time></trkpt><trkpt lat="45.02276659284281" lon="7.634681591466626"><ele>246.66666666666666</ele><time>2026-04-16T13:20:41Z</time></trkpt><trkpt lat="45.02268927678191" lon="7.63474595180489"><ele>246.83333333333331</ele><time>2026-04-16T13:20:42Z</time></trkpt><trkpt lat="45.022626243521536" lon="7.634818967834396"><ele>247.0</ele><time>2026-04-16T13:20:43Z</time></trkpt><trkpt lat="45.02258699980788" lon="7.63490476255019"><ele>247.0</ele><time>2026-04-16T13:20:44Z</time></trkpt><trkpt lat="45.02256351263251" lon="7.63501648093071"><ele>247.0</ele><time>2026-04-16T13:20:45Z</time></trkpt><trkpt lat="45.02255696951785" lon="7.635163745549462"><ele>247.0</ele><time>2026-04-16T13:20:46Z</time></trkpt><trkpt lat="45.02255673288583" lon="7.63533942118168"><ele>247.0</ele><time>2026-04-16T13:20:47Z</time></trkpt><trkpt lat="45.022558500129726" lon="7.6355221551956785"><ele>247.0</ele><time>2026-04-16T13:20:48Z</time></trkpt><trkpt lat="45.02253586764653" lon="7.635699979263259"><ele>248.0</ele><time>2026-04-16T13:20:49Z</time></trkpt><trkpt lat="45.02248423260596" lon="7.635884166222933"><ele>249.0</ele><time>2026-04-16T13:20:50Z</time></trkpt><trkpt lat="45.022420557709104" lon="7.636071673719619"><ele>250.0</ele><time>2026-04-16T13:20:51Z</time></trkpt><trkpt lat="45.02234575960549" lon="7.636291333957134"><ele>250.0</ele><time>2026-04-16T13:20:52Z</time></trkpt><trkpt lat="45.02227741195911" lon="7.63651874738419"><ele>250.0</ele><time>2026-04-16T13:20:53Z</time></trkpt><trkpt lat="45.02219525260746" lon="7.636758043220445"><ele>250.0</ele><time>2026-04-16T13:20:54Z</time></trkpt><trkpt lat="45.02210177177694" lon="7.636965422124313"><ele>249.66666666666666</ele><time>2026-04-16T13:20:55Z</time></trkpt><trkpt lat="45.02202734658734" lon="7.637192224203835"><ele>249.33333333333331</ele><time>2026-04-16T13:20:56Z</time></trkpt><trkpt lat="45.02194085827934" lon="7.637455787121275"><ele>249.0</ele><time>2026-04-16T13:20:57Z</time></trkpt><trkpt lat="45.02185244926541" lon="7.637725203305521"><ele>248.66666666666669</ele><time>2026-04-16T13:20:58Z</time></trkpt><trkpt lat="45.021765802598324" lon="7.6379892488542165"><ele>248.33333333333334</ele><time>2026-04-16T13:20:59Z</time></trkpt><trkpt lat="45.021687160013556" lon="7.638233640762508"><ele>248.0</ele><time>2026-04-16T13:21:00Z</time></trkpt><trkpt lat="45.02161765147162" lon="7.638450503713113"><ele>246.0</ele><time>2026-04-16T13:21:01Z</time></trkpt><trkpt lat="45.0215683225092" lon="7.638673908336562"><ele>244.0</ele><time>2026-04-16T13:21:02Z</time></trkpt><trkpt lat="45.02150728280437" lon="7.638866438368426"><ele>242.0</ele><time>2026-04-16T13:21:03Z</time></trkpt><trkpt lat="45.02144961471781" lon="7.639041129420304"><ele>242.0</ele><time>2026-04-16T13:21:04Z</time></trkpt><trkpt lat="45.021408539976115" lon="7.639188063925742"><ele>242.0</ele><time>2026-04-16T13:21:05Z</time></trkpt><trkpt lat="45.02136281622131" lon="7.639318113489817"><ele>242.0</ele><time>2026-04-16T13:21:06Z</time></trkpt><trkpt lat="45.021333404090406" lon="7.639428804928317"><ele>242.0</ele><time>2026-04-16T13:21:07Z</time></trkpt><trkpt lat="45.021302582631066" lon="7.639508237566758"><ele>242.0</ele><time>2026-04-16T13:21:08Z</time></trkpt><trkpt lat="45.02125077605263" lon="7.639612922740793"><ele>242.2</ele><time>2026-04-16T13:21:10Z</time></trkpt><trkpt lat="45.021196628102466" lon="7.63975446674252"><ele>242.39999999999998</ele><time>2026-04-16T13:21:20.001Z</time></trkpt><trkpt lat="45.02114352152991" lon="7.639854831354618"><ele>242.60000000000002</ele><time>2026-04-16T13:21:21.001Z</time></trkpt><trkpt lat="45.02108682502349" lon="7.640002516196034"><ele>242.8</ele><time>2026-04-16T13:21:22.001Z</time></trkpt><trkpt lat="45.02100104602468" lon="7.640112309534714"><ele>243.0</ele><time>2026-04-16T13:21:23.001Z</time></trkpt><trkpt lat="45.020896703237256" lon="7.640239412190572"><ele>242.33333333333331</ele><time>2026-04-16T13:21:24.001Z</time></trkpt><trkpt lat="45.02078952185478" lon="7.640377875488372"><ele>241.66666666666666</ele><time>2026-04-16T13:21:25.001Z</time></trkpt><trkpt lat="45.020669725662046" lon="7.640542492631292"><ele>241.0</ele><time>2026-04-16T13:21:26.001Z</time></trkpt><trkpt lat="45.020549033702224" lon="7.64070042860999"><ele>241.0</ele><time>2026-04-16T13:21:27.001Z</time></trkpt><trkpt lat="45.02042003340784" lon="7.640862903855122"><ele>241.0</ele><time>2026-04-16T13:21:28.001Z</time></trkpt><trkpt lat="45.02028153643678" lon="7.6410384323643665"><ele>241.0</ele><time>2026-04-16T13:21:29.001Z</time></trkpt><trkpt lat="45.02013920865724" lon="7.641227745745829"><ele>240.66666666666666</ele><time>2026-04-16T13:21:30.001Z</time></trkpt><trkpt lat="45.01998296342902" lon="7.641424019501609"><ele>240.33333333333331</ele><time>2026-04-16T13:21:31.001Z</time></trkpt><trkpt lat="45.019828019198776" lon="7.641630962444029"><ele>240.0</ele><time>2026-04-16T13:21:32.001Z</time></trkpt><trkpt lat="45.01968566024954" lon="7.641814295141192"><ele>240.0</ele><time>2026-04-16T13:21:33.001Z</time></trkpt><trkpt lat="45.01955707578744" lon="7.6419766543629475"><ele>240.0</ele><time>2026-04-16T13:21:34.001Z</time></trkpt><trkpt lat="45.019445717793445" lon="7.642127331670217"><ele>240.0</ele><time>2026-04-16T13:21:35.001Z</time></trkpt><trkpt lat="45.01933919360026" lon="7.642263874202463"><ele>240.0</ele><time>2026-04-16T13:21:36.001Z</time></trkpt><trkpt lat="45.01923859875248" lon="7.64238960653045"><ele>240.0</ele><time>2026-04-16T13:21:37.001Z</time></trkpt><trkpt lat="45.01913814368184" lon="7.642508564645388"><ele>240.0</ele><time>2026-04-16T13:21:38.001Z</time></trkpt><trkpt lat="45.0190537693554" lon="7.642626831055824"><ele>240.0</ele><time>2026-04-16T13:21:39.001Z</time></trkpt><trkpt lat="45.01896827374912" lon="7.642745562642127"><ele>240.75</ele><time>2026-04-16T13:21:40.001Z</time></trkpt><trkpt lat="45.01888438530401" lon="7.642853047125412"><ele>241.5</ele><time>2026-04-16T13:21:41.001Z</time></trkpt><trkpt lat="45.01879434282557" lon="7.642957856640206"><ele>242.25</ele><time>2026-04-16T13:21:42.001Z</time></trkpt><trkpt lat="45.018693321102866" lon="7.64307632124427"><ele>243.0</ele><time>2026-04-16T13:21:43.001Z</time></trkpt><trkpt lat="45.01860519691971" lon="7.643228269176886"><ele>243.0</ele><time>2026-04-16T13:21:44.001Z</time></trkpt><trkpt lat="45.01851669323429" lon="7.643358568305948"><ele>243.0</ele><time>2026-04-16T13:21:45.001Z</time></trkpt><trkpt lat="45.01840296954635" lon="7.64351182350119"><ele>243.0</ele><time>2026-04-16T13:21:46.001Z</time></trkpt><trkpt lat="45.01833197915111" lon="7.6436791545991385"><ele>243.0</ele><time>2026-04-16T13:21:47.001Z</time></trkpt><trkpt lat="45.01827767722609" lon="7.643839108697605"><ele>242.5</ele><time>2026-04-16T13:21:48.001Z</time></trkpt><trkpt lat="45.01822734596342" lon="7.6440035365421934"><ele>242.0</ele><time>2026-04-16T13:21:49.001Z</time></trkpt><trkpt lat="45.01818216998478" lon="7.644178901186703"><ele>241.5</ele><time>2026-04-16T13:21:50.001Z</time></trkpt><trkpt lat="45.018143496432714" lon="7.644358676402166"><ele>241.0</ele><time>2026-04-16T13:21:51.001Z</time></trkpt><trkpt lat="45.01810460486017" lon="7.644525890418788"><ele>241.0</ele><time>2026-04-16T13:21:52.001Z</time></trkpt><trkpt lat="45.01807294064968" lon="7.644694586036508"><ele>241.0</ele><time>2026-04-16T13:21:53.001Z</time></trkpt><trkpt lat="45.01804213750805" lon="7.644859020219934"><ele>241.0</ele><time>2026-04-16T13:21:54.001Z</time></trkpt><trkpt lat="45.01801138238444" lon="7.645043835777944"><ele>241.0</ele><time>2026-04-16T13:21:55.001Z</time></trkpt><trkpt lat="45.01797575987548" lon="7.6452087012807"><ele>240.75</ele><time>2026-04-16T13:21:56.001Z</time></trkpt><trkpt lat="45.01793852759932" lon="7.645363405330342"><ele>240.5</ele><time>2026-04-16T13:21:57.001Z</time></trkpt><trkpt lat="45.0179055866663" lon="7.645525943738872"><ele>240.25</ele><time>2026-04-16T13:21:58.001Z</time></trkpt><trkpt lat="45.01785941500427" lon="7.645727055664698"><ele>240.0</ele><time>2026-04-16T13:21:59.001Z</time></trkpt><trkpt lat="45.01781062639399" lon="7.645937957158547"><ele>240.0</ele><time>2026-04-16T13:22:00.001Z</time></trkpt><trkpt lat="45.01777510999306" lon="7.646121458703847"><ele>240.0</ele><time>2026-04-16T13:22:01.001Z</time></trkpt><trkpt lat="45.01774514340786" lon="7.646280329478587"><ele>240.0</ele><time>2026-04-16T13:22:02.001Z</time></trkpt><trkpt lat="45.017714506466234" lon="7.646433905500396"><ele>240.0</ele><time>2026-04-16T13:22:03.001Z</time></trkpt><trkpt lat="45.017687644970785" lon="7.646585901571968"><ele>240.16666666666666</ele><time>2026-04-16T13:22:04.001Z</time></trkpt><trkpt lat="45.01765944398722" lon="7.646721996992137"><ele>240.33333333333331</ele><time>2026-04-16T13:22:05.001Z</time></trkpt><trkpt lat="45.0176381639986" lon="7.64682772411417"><ele>240.5</ele><time>2026-04-16T13:22:06.001Z</time></trkpt><trkpt lat="45.01761556158988" lon="7.646924332507331"><ele>240.66666666666666</ele><time>2026-04-16T13:22:07.001Z</time></trkpt><trkpt lat="45.01759628199515" lon="7.647021080375977"><ele>240.83333333333331</ele><time>2026-04-16T13:22:08.001Z</time></trkpt><trkpt lat="45.0175744305641" lon="7.647113329932583"><ele>241.0</ele><time>2026-04-16T13:22:09.001Z</time></trkpt><trkpt lat="45.01755891876939" lon="7.647201315799213"><ele>241.33333333333331</ele><time>2026-04-16T13:22:10.002Z</time></trkpt><trkpt lat="45.0175418693033" lon="7.64728797223567"><ele>241.66666666666666</ele><time>2026-04-16T13:22:11.002Z</time></trkpt><trkpt lat="45.01749060295004" lon="7.647417369104742"><ele>242.0</ele><time>2026-04-16T13:22:13.002Z</time></trkpt><trkpt lat="45.017468573328856" lon="7.647536209586148"><ele>242.33333333333331</ele><time>2026-04-16T13:22:16.002Z</time></trkpt><trkpt lat="45.01744528660481" lon="7.647649552601702"><ele>242.66666666666666</ele><time>2026-04-16T13:22:21.002Z</time></trkpt><trkpt lat="45.0174187467016" lon="7.647750111074547"><ele>243.0</ele><time>2026-04-16T13:22:23.002Z</time></trkpt><trkpt lat="45.01742064637605" lon="7.647881187269167"><ele>242.2</ele><time>2026-04-16T13:23:19.001Z</time></trkpt><trkpt lat="45.01739864422789" lon="7.647996723943574"><ele>241.4</ele><time>2026-04-16T13:23:20.001Z</time></trkpt><trkpt lat="45.01738106494444" lon="7.648120324451055"><ele>240.59999999999997</ele><time>2026-04-16T13:23:21.001Z</time></trkpt><trkpt lat="45.01737774072847" lon="7.648294855245771"><ele>239.79999999999998</ele><time>2026-04-16T13:23:22.001Z</time></trkpt><trkpt lat="45.0173711759227" lon="7.648479706430244"><ele>239.0</ele><time>2026-04-16T13:23:23.001Z</time></trkpt><trkpt lat="45.0173638097674" lon="7.648687122098009"><ele>239.0</ele><time>2026-04-16T13:23:24.001Z</time></trkpt><trkpt lat="45.01735725277304" lon="7.648899480046521"><ele>239.0</ele><time>2026-04-16T13:23:25.001Z</time></trkpt><trkpt lat="45.01734951489553" lon="7.64916654958268"><ele>239.0</ele><time>2026-04-16T13:23:26.001Z</time></trkpt><trkpt lat="45.01734205453536" lon="7.649430342512967"><ele>239.0</ele><time>2026-04-16T13:23:27.001Z</time></trkpt><trkpt lat="45.01734346112423" lon="7.649679845559122"><ele>239.0</ele><time>2026-04-16T13:23:28.001Z</time></trkpt><trkpt lat="45.01732891146642" lon="7.649904901425066"><ele>239.0</ele><time>2026-04-16T13:23:29.001Z</time></trkpt><trkpt lat="45.01733009492675" lon="7.65010752494982"><ele>239.0</ele><time>2026-04-16T13:23:30.001Z</time></trkpt><trkpt lat="45.0173218618036" lon="7.6502858796372335"><ele>239.0</ele><time>2026-04-16T13:23:31.001Z</time></trkpt><trkpt lat="45.017318626256035" lon="7.650450797056201"><ele>239.0</ele><time>2026-04-16T13:23:32.001Z</time></trkpt><trkpt lat="45.01732273605511" lon="7.65061166132205"><ele>239.0</ele><time>2026-04-16T13:23:33.001Z</time></trkpt><trkpt lat="45.01731269714532" lon="7.650809918003914"><ele>239.66666666666669</ele><time>2026-04-16T13:23:34.001Z</time></trkpt><trkpt lat="45.017313648457986" lon="7.6510301021174545"><ele>240.33333333333331</ele><time>2026-04-16T13:23:35.001Z</time></trkpt><trkpt lat="45.017320803928996" lon="7.651272042605672"><ele>241.0</ele><time>2026-04-16T13:23:36.001Z</time></trkpt><trkpt lat="45.01732108982167" lon="7.651511971897583"><ele>241.0</ele><time>2026-04-16T13:23:37.001Z</time></trkpt><trkpt lat="45.01732681637536" lon="7.6517492813373105"><ele>241.0</ele><time>2026-04-16T13:23:38.001Z</time></trkpt><trkpt lat="45.01731146878205" lon="7.651989518241422"><ele>241.0</ele><time>2026-04-16T13:23:39.001Z</time></trkpt><trkpt lat="45.017308268751556" lon="7.652219202480405"><ele>241.0</ele><time>2026-04-16T13:23:40.001Z</time></trkpt><trkpt lat="45.017308435333845" lon="7.6524558648479495"><ele>241.0</ele><time>2026-04-16T13:23:41.001Z</time></trkpt><trkpt lat="45.01731792840206" lon="7.652709497923132"><ele>241.0</ele><time>2026-04-16T13:23:42.001Z</time></trkpt><trkpt lat="45.0173160219244" lon="7.652935854615069"><ele>240.0</ele><time>2026-04-16T13:23:43.001Z</time></trkpt><trkpt lat="45.017323709194706" lon="7.653152813747477"><ele>239.0</ele><time>2026-04-16T13:23:44.001Z</time></trkpt><trkpt lat="45.017328198987855" lon="7.653373538652827"><ele>238.0</ele><time>2026-04-16T13:23:45.001Z</time></trkpt><trkpt lat="45.01734045862219" lon="7.653590249023516"><ele>238.25</ele><time>2026-04-16T13:23:46.001Z</time></trkpt><trkpt lat="45.01732776917262" lon="7.6538097275306045"><ele>238.5</ele><time>2026-04-16T13:23:47.001Z</time></trkpt><trkpt lat="45.017327479740885" lon="7.654000769368036"><ele>238.75</ele><time>2026-04-16T13:23:48.001Z</time></trkpt><trkpt lat="45.0173293697477" lon="7.654185078067674"><ele>239.0</ele><time>2026-04-16T13:23:49.001Z</time></trkpt><trkpt lat="45.01732953408345" lon="7.654355360781215"><ele>239.2</ele><time>2026-04-16T13:23:50.001Z</time></trkpt><trkpt lat="45.017334090177755" lon="7.654518502646535"><ele>239.39999999999998</ele><time>2026-04-16T13:23:51.001Z</time></trkpt><trkpt lat="45.017338203269524" lon="7.654672971770204"><ele>239.6</ele><time>2026-04-16T13:23:52.001Z</time></trkpt><trkpt lat="45.01734309345614" lon="7.6548279712164"><ele>239.8</ele><time>2026-04-16T13:23:53.001Z</time></trkpt><trkpt lat="45.0173430612517" lon="7.654969543032661"><ele>240.0</ele><time>2026-04-16T13:23:54.001Z</time></trkpt><trkpt lat="45.01734090024763" lon="7.655098871481215"><ele>240.0</ele><time>2026-04-16T13:23:55.001Z</time></trkpt><trkpt lat="45.01734396899176" lon="7.655209647546446"><ele>240.0</ele><time>2026-04-16T13:23:56.001Z</time></trkpt><trkpt lat="45.01732462312018" lon="7.655363457589624"><ele>240.0</ele><time>2026-04-16T13:23:58.001Z</time></trkpt><trkpt lat="45.0173261201075" lon="7.655552909173267"><ele>240.0</ele><time>2026-04-16T13:24:00.001Z</time></trkpt><trkpt lat="45.01732677015455" lon="7.655709399618914"><ele>240.0</ele><time>2026-04-16T13:24:01.001Z</time></trkpt><trkpt lat="45.017327528174384" lon="7.655891882881286"><ele>239.5</ele><time>2026-04-16T13:24:02.001Z</time></trkpt><trkpt lat="45.017328298220086" lon="7.656077261298483"><ele>239.0</ele><time>2026-04-16T13:24:03.001Z</time></trkpt><trkpt lat="45.01733804385603" lon="7.656269286361806"><ele>238.5</ele><time>2026-04-16T13:24:04.001Z</time></trkpt><trkpt lat="45.017332349750255" lon="7.6564673662884335"><ele>238.0</ele><time>2026-04-16T13:24:05.002Z</time></trkpt><trkpt lat="45.017333883327" lon="7.656650573752902"><ele>237.5</ele><time>2026-04-16T13:24:06.002Z</time></trkpt><trkpt lat="45.01733814232763" lon="7.65684229472596"><ele>237.0</ele><time>2026-04-16T13:24:07.002Z</time></trkpt><trkpt lat="45.01733956030087" lon="7.657030316817343"><ele>236.5</ele><time>2026-04-16T13:24:08.002Z</time></trkpt><trkpt lat="45.017347488164674" lon="7.657221630331186"><ele>236.0</ele><time>2026-04-16T13:24:09.002Z</time></trkpt><trkpt lat="45.0173357188737" lon="7.657420749305154"><ele>236.0</ele><time>2026-04-16T13:24:10.002Z</time></trkpt><trkpt lat="45.01733791040016" lon="7.657621182439863"><ele>236.0</ele><time>2026-04-16T13:24:11.002Z</time></trkpt><trkpt lat="45.017338895523274" lon="7.657802389617639"><ele>236.0</ele><time>2026-04-16T13:24:12.002Z</time></trkpt><trkpt lat="45.017344113866365" lon="7.657987033636082"><ele>236.0</ele><time>2026-04-16T13:24:13.002Z</time></trkpt><trkpt lat="45.01735084414597" lon="7.658161735522861"><ele>235.60000000000002</ele><time>2026-04-16T13:24:14.002Z</time></trkpt><trkpt lat="45.0173611264137" lon="7.658330398842076"><ele>235.20000000000002</ele><time>2026-04-16T13:24:15.002Z</time></trkpt><trkpt lat="45.01738103748548" lon="7.658487469916208"><ele>234.79999999999998</ele><time>2026-04-16T13:24:16.002Z</time></trkpt><trkpt lat="45.01741165555873" lon="7.658631636290524"><ele>234.39999999999998</ele><time>2026-04-16T13:24:17.002Z</time></trkpt><trkpt lat="45.017438958373724" lon="7.658749736154886"><ele>234.0</ele><time>2026-04-16T13:24:18.002Z</time></trkpt><trkpt lat="45.01746513086327" lon="7.658852753027312"><ele>234.79999999999998</ele><time>2026-04-16T13:24:19.002Z</time></trkpt><trkpt lat="45.017502291543785" lon="7.6589580949958584"><ele>235.59999999999997</ele><time>2026-04-16T13:24:20.002Z</time></trkpt><trkpt lat="45.017544282423465" lon="7.659063871828481"><ele>236.4</ele><time>2026-04-16T13:24:21.002Z</time></trkpt><trkpt lat="45.017593065261146" lon="7.6591917082622345"><ele>237.2</ele><time>2026-04-16T13:24:22.002Z</time></trkpt><trkpt lat="45.017636060721834" lon="7.659328762650844"><ele>238.0</ele><time>2026-04-16T13:24:23.002Z</time></trkpt><trkpt lat="45.017669323367045" lon="7.659467812760292"><ele>237.99999999999997</ele><time>2026-04-16T13:24:24.002Z</time></trkpt><trkpt lat="45.01769172163095" lon="7.6595979924979"><ele>238.0</ele><time>2026-04-16T13:24:25.002Z</time></trkpt><trkpt lat="45.017715600079484" lon="7.659724720194928"><ele>238.0</ele><time>2026-04-16T13:24:26.002Z</time></trkpt><trkpt lat="45.017741185236865" lon="7.659841165466632"><ele>238.0</ele><time>2026-04-16T13:24:27.002Z</time></trkpt><trkpt lat="45.01774950399607" lon="7.659961988783939"><ele>237.99999999999997</ele><time>2026-04-16T13:24:28.002Z</time></trkpt><trkpt lat="45.017763817993576" lon="7.660072230177379"><ele>238.0</ele><time>2026-04-16T13:24:29.002Z</time></trkpt><trkpt lat="45.017762272729286" lon="7.660182677560214"><ele>238.0</ele><time>2026-04-16T13:24:30.002Z</time></trkpt><trkpt lat="45.01775207121699" lon="7.660279246369295"><ele>238.0</ele><time>2026-04-16T13:24:31.002Z</time></trkpt><trkpt lat="45.017726642863416" lon="7.660372096107937"><ele>238.0</ele><time>2026-04-16T13:24:32.002Z</time></trkpt><trkpt lat="45.017695224529945" lon="7.6605277397270095"><ele>238.0</ele><time>2026-04-16T13:24:34.001Z</time></trkpt><trkpt lat="45.017674968604474" lon="7.660671553977836"><ele>238.0</ele><time>2026-04-16T13:24:36.001Z</time></trkpt><trkpt lat="45.017656613947345" lon="7.660803536184096"><ele>237.99999999999997</ele><time>2026-04-16T13:24:38.001Z</time></trkpt><trkpt lat="45.01762930341397" lon="7.660922226123915"><ele>238.0</ele><time>2026-04-16T13:24:40.001Z</time></trkpt><trkpt lat="45.01762150547813" lon="7.661019859012963"><ele>238.0</ele><time>2026-04-16T13:24:42.001Z</time></trkpt><trkpt lat="45.017595673644415" lon="7.661111766238453"><ele>238.0</ele><time>2026-04-16T13:24:44.001Z</time></trkpt><trkpt lat="45.01757445926067" lon="7.6612012948534085"><ele>237.99999999999997</ele><time>2026-04-16T13:24:46.001Z</time></trkpt><trkpt lat="45.017541486929694" lon="7.661341586683387"><ele>238.0</ele><time>2026-04-16T13:24:53.001Z</time></trkpt><trkpt lat="45.017531178883324" lon="7.661462870309162"><ele>237.5</ele><time>2026-04-16T13:24:54.001Z</time></trkpt><trkpt lat="45.01750607098775" lon="7.661617885098835"><ele>237.0</ele><time>2026-04-16T13:24:55.001Z</time></trkpt><trkpt lat="45.01747556557833" lon="7.66177966460601"><ele>236.5</ele><time>2026-04-16T13:24:56.001Z</time></trkpt><trkpt lat="45.01744025739615" lon="7.661958980865102"><ele>236.0</ele><time>2026-04-16T13:24:57.001Z</time></trkpt><trkpt lat="45.017390242065396" lon="7.662122660353611"><ele>236.0</ele><time>2026-04-16T13:24:58.001Z</time></trkpt><trkpt lat="45.01735804977125" lon="7.662276291343229"><ele>236.0</ele><time>2026-04-16T13:24:59.001Z</time></trkpt><trkpt lat="45.01732584679962" lon="7.662444798184016"><ele>236.0</ele><time>2026-04-16T13:25:00.001Z</time></trkpt><trkpt lat="45.0172954905948" lon="7.662611651010443"><ele>236.0</ele><time>2026-04-16T13:25:01.001Z</time></trkpt><trkpt lat="45.01726084760213" lon="7.662783858249568"><ele>236.0</ele><time>2026-04-16T13:25:02.001Z</time></trkpt><trkpt lat="45.01722501786684" lon="7.662951824844907"><ele>236.0</ele><time>2026-04-16T13:25:03.001Z</time></trkpt><trkpt lat="45.0171889092708" lon="7.663124744575045"><ele>236.0</ele><time>2026-04-16T13:25:04.001Z</time></trkpt><trkpt lat="45.017148489644136" lon="7.663319854416463"><ele>236.0</ele><time>2026-04-16T13:25:05.001Z</time></trkpt><trkpt lat="45.01711988431604" lon="7.663518587764946"><ele>235.20000000000002</ele><time>2026-04-16T13:25:06.001Z</time></trkpt><trkpt lat="45.01707489539463" lon="7.663682092921219"><ele>234.40000000000003</ele><time>2026-04-16T13:25:07.001Z</time></trkpt><trkpt lat="45.01705066349162" lon="7.66383685844816"><ele>233.6</ele><time>2026-04-16T13:25:08.001Z</time></trkpt><trkpt lat="45.01702658151434" lon="7.66397781862198"><ele>232.8</ele><time>2026-04-16T13:25:09.001Z</time></trkpt><trkpt lat="45.01700644761718" lon="7.664095605804099"><ele>232.0</ele><time>2026-04-16T13:25:10.001Z</time></trkpt><trkpt lat="45.01698585227472" lon="7.664208624097652"><ele>231.99999999999997</ele><time>2026-04-16T13:25:11.001Z</time></trkpt><trkpt lat="45.016953870822626" lon="7.66431119816702"><ele>232.0</ele><time>2026-04-16T13:25:12.001Z</time></trkpt><trkpt lat="45.016951079167264" lon="7.664411665385018"><ele>232.0</ele><time>2026-04-16T13:25:13.001Z</time></trkpt><trkpt lat="45.016929072449024" lon="7.664510932807922"><ele>232.0</ele><time>2026-04-16T13:25:14.001Z</time></trkpt><trkpt lat="45.01689980090034" lon="7.664606372441694"><ele>231.99999999999997</ele><time>2026-04-16T13:25:15.001Z</time></trkpt><trkpt lat="45.01687540464591" lon="7.66472245231358"><ele>232.0</ele><time>2026-04-16T13:25:17.001Z</time></trkpt><trkpt lat="45.01685522962817" lon="7.664835359757953"><ele>232.25</ele><time>2026-04-16T13:25:19.001Z</time></trkpt><trkpt lat="45.01703367904944" lon="7.665022388660956"><ele>232.5</ele><time>2026-04-16T13:25:21.001Z</time></trkpt><trkpt lat="45.017118967863034" lon="7.66508381457401"><ele>232.75</ele><time>2026-04-16T13:25:22.001Z</time></trkpt><trkpt lat="45.01719888780508" lon="7.665114167041905"><ele>233.0</ele><time>2026-04-16T13:25:23.001Z</time></trkpt><trkpt lat="45.01726272745317" lon="7.665137471380555"><ele>233.00000000000003</ele><time>2026-04-16T13:25:24.001Z</time></trkpt><trkpt lat="45.01733024141487" lon="7.6651751125618075"><ele>233.0</ele><time>2026-04-16T13:25:27.001Z</time></trkpt><trkpt lat="45.017416344536656" lon="7.665203186325118"><ele>233.0</ele><time>2026-04-16T13:25:30.001Z</time></trkpt><trkpt lat="45.017494166813556" lon="7.6652384353543646"><ele>233.0</ele><time>2026-04-16T13:25:39.001Z</time></trkpt><trkpt lat="45.01758338965095" lon="7.665277243172614"><ele>233.00000000000003</ele><time>2026-04-16T13:25:41.001Z</time></trkpt><trkpt lat="45.017669417959965" lon="7.665303298046595"><ele>233.0</ele><time>2026-04-16T13:25:43.001Z</time></trkpt><trkpt lat="45.017733135914526" lon="7.665332975006781"><ele>232.2</ele><time>2026-04-16T13:25:45.001Z</time></trkpt><trkpt lat="45.01779606732148" lon="7.665403555462235"><ele>231.4</ele><time>2026-04-16T13:25:49.001Z</time></trkpt><trkpt lat="45.01777867325946" lon="7.665546406848479"><ele>230.59999999999997</ele><time>2026-04-16T13:25:50.001Z</time></trkpt><trkpt lat="45.01776307844815" lon="7.665671985538521"><ele>229.79999999999998</ele><time>2026-04-16T13:25:51.001Z</time></trkpt><trkpt lat="45.017734782848954" lon="7.665817851083168"><ele>229.0</ele><time>2026-04-16T13:25:52.001Z</time></trkpt><trkpt lat="45.01769644564743" lon="7.665998924541709"><ele>228.66666666666666</ele><time>2026-04-16T13:25:53.001Z</time></trkpt><trkpt lat="45.01766367392111" lon="7.666197244124856"><ele>228.33333333333331</ele><time>2026-04-16T13:25:54.001Z</time></trkpt><trkpt lat="45.01761184211501" lon="7.666430350172278"><ele>228.0</ele><time>2026-04-16T13:25:55.001Z</time></trkpt><trkpt lat="45.01756575501471" lon="7.666672030984696"><ele>228.0</ele><time>2026-04-16T13:25:56.001Z</time></trkpt><trkpt lat="45.017518557616604" lon="7.666909853808981"><ele>228.0</ele><time>2026-04-16T13:25:57.001Z</time></trkpt><trkpt lat="45.017490921507694" lon="7.667129889644155"><ele>228.0</ele><time>2026-04-16T13:25:58.002Z</time></trkpt><trkpt lat="45.01746012835951" lon="7.6673038797668935"><ele>227.8</ele><time>2026-04-16T13:25:59.002Z</time></trkpt><trkpt lat="45.01743251185765" lon="7.667462041331517"><ele>227.60000000000002</ele><time>2026-04-16T13:26:00.002Z</time></trkpt><trkpt lat="45.01740652067591" lon="7.667600663410745"><ele>227.39999999999998</ele><time>2026-04-16T13:26:01.002Z</time></trkpt><trkpt lat="45.017386004163384" lon="7.667722098236304"><ele>227.2</ele><time>2026-04-16T13:26:02.002Z</time></trkpt><trkpt lat="45.01736659222455" lon="7.667813782824911"><ele>227.0</ele><time>2026-04-16T13:26:03.002Z</time></trkpt><trkpt lat="45.01734870082765" lon="7.6679200935230565"><ele>226.2</ele><time>2026-04-16T13:26:04.002Z</time></trkpt><trkpt lat="45.017296750280316" lon="7.6680009074770235"><ele>225.39999999999998</ele><time>2026-04-16T13:26:06.002Z</time></trkpt><trkpt lat="45.01716657636663" lon="7.668079310089379"><ele>224.60000000000002</ele><time>2026-04-16T13:26:14.002Z</time></trkpt><trkpt lat="45.01706439822566" lon="7.668127244960442"><ele>223.8</ele><time>2026-04-16T13:26:15.002Z</time></trkpt><trkpt lat="45.01699533039468" lon="7.668208889424683"><ele>223.0</ele><time>2026-04-16T13:26:16.002Z</time></trkpt><trkpt lat="45.016958430707724" lon="7.668338352621076"><ele>223.0</ele><time>2026-04-16T13:26:17.002Z</time></trkpt><trkpt lat="45.01696404688972" lon="7.668469205462701"><ele>223.0</ele><time>2026-04-16T13:26:18.002Z</time></trkpt><trkpt lat="45.017008984297476" lon="7.668582394536052"><ele>223.0</ele><time>2026-04-16T13:26:19.002Z</time></trkpt><trkpt lat="45.01708008518701" lon="7.668693056896137"><ele>223.0</ele><time>2026-04-16T13:26:20.002Z</time></trkpt><trkpt lat="45.017187740997514" lon="7.668793976726304"><ele>223.0</ele><time>2026-04-16T13:26:21.002Z</time></trkpt><trkpt lat="45.017307270664034" lon="7.668886523586327"><ele>223.0</ele><time>2026-04-16T13:26:22.002Z</time></trkpt><trkpt lat="45.01748465192234" lon="7.668911215372836"><ele>223.0</ele><time>2026-04-16T13:26:23.002Z</time></trkpt><trkpt lat="45.01766293238638" lon="7.668965947649975"><ele>223.0</ele><time>2026-04-16T13:26:24.002Z</time></trkpt><trkpt lat="45.01784994486863" lon="7.669028949913786"><ele>222.33333333333331</ele><time>2026-04-16T13:26:25.002Z</time></trkpt><trkpt lat="45.01803036249941" lon="7.669088766213654"><ele>221.66666666666669</ele><time>2026-04-16T13:26:26.002Z</time></trkpt><trkpt lat="45.018177291936254" lon="7.669139064240871"><ele>221.0</ele><time>2026-04-16T13:26:27.002Z</time></trkpt><trkpt lat="45.018295249077056" lon="7.669177393451475"><ele>222.0</ele><time>2026-04-16T13:26:28.002Z</time></trkpt><trkpt lat="45.01839203740367" lon="7.669215207383939"><ele>223.00000000000003</ele><time>2026-04-16T13:26:29.002Z</time></trkpt><trkpt lat="45.01849101686953" lon="7.669257265585518"><ele>224.00000000000003</ele><time>2026-04-16T13:26:30.002Z</time></trkpt><trkpt lat="45.01858948392572" lon="7.669295088223027"><ele>225.0</ele><time>2026-04-16T13:26:31.002Z</time></trkpt><trkpt lat="45.018682896519486" lon="7.669330031521361"><ele>226.0</ele><time>2026-04-16T13:26:32.002Z</time></trkpt><trkpt lat="45.01877284034251" lon="7.669366121022827"><ele>226.0</ele><time>2026-04-16T13:26:33.002Z</time></trkpt><trkpt lat="45.01888432082615" lon="7.6694174041176435"><ele>226.0</ele><time>2026-04-16T13:26:34.002Z</time></trkpt><trkpt lat="45.01904371162023" lon="7.669470445067706"><ele>226.0</ele><time>2026-04-16T13:26:35.002Z</time></trkpt><trkpt lat="45.019211048928526" lon="7.6695321023217335"><ele>225.66666666666666</ele><time>2026-04-16T13:26:36.002Z</time></trkpt><trkpt lat="45.019427166593346" lon="7.669587660481655"><ele>225.33333333333331</ele><time>2026-04-16T13:26:37.002Z</time></trkpt><trkpt lat="45.01962617793993" lon="7.6696527786702475"><ele>225.0</ele><time>2026-04-16T13:26:38.002Z</time></trkpt><trkpt lat="45.01981061139309" lon="7.669716055495074"><ele>225.66666666666669</ele><time>2026-04-16T13:26:39.002Z</time></trkpt><trkpt lat="45.019994019077096" lon="7.669781638488312"><ele>226.33333333333334</ele><time>2026-04-16T13:26:40Z</time></trkpt><trkpt lat="45.02018061476581" lon="7.6698367615308225"><ele>227.0</ele><time>2026-04-16T13:26:41Z</time></trkpt><trkpt lat="45.02035906818771" lon="7.669893904552317"><ele>227.0</ele><time>2026-04-16T13:26:42Z</time></trkpt><trkpt lat="45.02054346413086" lon="7.669956148148158"><ele>227.0</ele><time>2026-04-16T13:26:43Z</time></trkpt><trkpt lat="45.02073034938872" lon="7.670018356724072"><ele>227.0</ele><time>2026-04-16T13:26:44Z</time></trkpt><trkpt lat="45.02092212272114" lon="7.670081660908083"><ele>227.0</ele><time>2026-04-16T13:26:45Z</time></trkpt><trkpt lat="45.02112449745535" lon="7.670149613496616"><ele>227.0</ele><time>2026-04-16T13:26:46Z</time></trkpt><trkpt lat="45.02135314379478" lon="7.670225536218001"><ele>227.0</ele><time>2026-04-16T13:26:47Z</time></trkpt><trkpt lat="45.02158530926801" lon="7.670305884902193"><ele>226.5</ele><time>2026-04-16T13:26:48Z</time></trkpt><trkpt lat="45.02181678068164" lon="7.6703766665223325"><ele>226.0</ele><time>2026-04-16T13:26:49Z</time></trkpt><trkpt lat="45.022044482495446" lon="7.670445437671474"><ele>226.0</ele><time>2026-04-16T13:26:50Z</time></trkpt><trkpt lat="45.022268065495645" lon="7.6705167193490835"><ele>226.0</ele><time>2026-04-16T13:26:51Z</time></trkpt><trkpt lat="45.022475600299664" lon="7.670584794792906"><ele>226.0</ele><time>2026-04-16T13:26:52Z</time></trkpt><trkpt lat="45.02268441508446" lon="7.670650158474461"><ele>226.0</ele><time>2026-04-16T13:26:53Z</time></trkpt><trkpt lat="45.022896487616286" lon="7.670721406256472"><ele>226.0</ele><time>2026-04-16T13:26:54Z</time></trkpt><trkpt lat="45.023102290512355" lon="7.670788759662966"><ele>226.0</ele><time>2026-04-16T13:26:55Z</time></trkpt><trkpt lat="45.02329429735449" lon="7.670853489604931"><ele>226.66666666666666</ele><time>2026-04-16T13:26:56Z</time></trkpt><trkpt lat="45.02347869551085" lon="7.670916814224673"><ele>227.33333333333331</ele><time>2026-04-16T13:26:57Z</time></trkpt><trkpt lat="45.0236643450252" lon="7.6709793056956785"><ele>228.0</ele><time>2026-04-16T13:26:58Z</time></trkpt><trkpt lat="45.02385811652205" lon="7.671034248449929"><ele>228.0</ele><time>2026-04-16T13:26:59Z</time></trkpt><trkpt lat="45.02407752318161" lon="7.671070584172581"><ele>228.0</ele><time>2026-04-16T13:27:00Z</time></trkpt><trkpt lat="45.02428586986727" lon="7.6711428523847625"><ele>228.0</ele><time>2026-04-16T13:27:01Z</time></trkpt><trkpt lat="45.02447951235884" lon="7.671200916417895"><ele>227.33333333333331</ele><time>2026-04-16T13:27:02Z</time></trkpt><trkpt lat="45.02465988986477" lon="7.67125623959321"><ele>226.66666666666666</ele><time>2026-04-16T13:27:03Z</time></trkpt><trkpt lat="45.02482923348769" lon="7.671311376446328"><ele>226.0</ele><time>2026-04-16T13:27:04Z</time></trkpt><trkpt lat="45.02498667457911" lon="7.671362256710161"><ele>225.5</ele><time>2026-04-16T13:27:05Z</time></trkpt><trkpt lat="45.02513911776452" lon="7.671408226323409"><ele>225.0</ele><time>2026-04-16T13:27:06Z</time></trkpt><trkpt lat="45.02527943348574" lon="7.671458802079082"><ele>224.5</ele><time>2026-04-16T13:27:07Z</time></trkpt><trkpt lat="45.02542071683563" lon="7.671510490677426"><ele>224.0</ele><time>2026-04-16T13:27:08Z</time></trkpt><trkpt lat="45.02556578526894" lon="7.671556685139039"><ele>224.0</ele><time>2026-04-16T13:27:09Z</time></trkpt><trkpt lat="45.02571518631434" lon="7.671603791210289"><ele>224.0</ele><time>2026-04-16T13:27:10Z</time></trkpt><trkpt lat="45.025859137436214" lon="7.671649025553831"><ele>224.0</ele><time>2026-04-16T13:27:11Z</time></trkpt><trkpt lat="45.0260134274059" lon="7.671702999117544"><ele>224.33333333333334</ele><time>2026-04-16T13:27:12Z</time></trkpt><trkpt lat="45.0261601400778" lon="7.671753877209021"><ele>224.66666666666669</ele><time>2026-04-16T13:27:13Z</time></trkpt><trkpt lat="45.02630032652295" lon="7.671803975760669"><ele>225.0</ele><time>2026-04-16T13:27:14Z</time></trkpt><trkpt lat="45.02645548845007" lon="7.671854315091202"><ele>225.0</ele><time>2026-04-16T13:27:15Z</time></trkpt><trkpt lat="45.02662402470521" lon="7.67188046056456"><ele>225.0</ele><time>2026-04-16T13:27:16.001Z</time></trkpt><trkpt lat="45.026773560724415" lon="7.671945896213252"><ele>225.0</ele><time>2026-04-16T13:27:17.001Z</time></trkpt><trkpt lat="45.02693011028237" lon="7.671995667036152"><ele>224.66666666666669</ele><time>2026-04-16T13:27:18.001Z</time></trkpt><trkpt lat="45.027084619367145" lon="7.672042028197179"><ele>224.33333333333334</ele><time>2026-04-16T13:27:19.001Z</time></trkpt><trkpt lat="45.0272364305828" lon="7.672088524887934"><ele>224.0</ele><time>2026-04-16T13:27:20.001Z</time></trkpt><trkpt lat="45.02738274640087" lon="7.672132790522464"><ele>224.5</ele><time>2026-04-16T13:27:21.001Z</time></trkpt><trkpt lat="45.02752817784413" lon="7.672181551672594"><ele>225.0</ele><time>2026-04-16T13:27:22.001Z</time></trkpt><trkpt lat="45.02767516663876" lon="7.672226494225899"><ele>225.5</ele><time>2026-04-16T13:27:23.001Z</time></trkpt><trkpt lat="45.027815212859956" lon="7.672269032710054"><ele>226.0</ele><time>2026-04-16T13:27:24.001Z</time></trkpt><trkpt lat="45.027950951125135" lon="7.672314812627256"><ele>226.0</ele><time>2026-04-16T13:27:25.001Z</time></trkpt><trkpt lat="45.02808388472696" lon="7.672361152879317"><ele>226.0</ele><time>2026-04-16T13:27:26.001Z</time></trkpt><trkpt lat="45.028221637946395" lon="7.672402838587725"><ele>226.0</ele><time>2026-04-16T13:27:27.001Z</time></trkpt><trkpt lat="45.028354314460174" lon="7.672438429979575"><ele>226.0</ele><time>2026-04-16T13:27:28.001Z</time></trkpt><trkpt lat="45.028488373153046" lon="7.672474308667103"><ele>225.75</ele><time>2026-04-16T13:27:29.001Z</time></trkpt><trkpt lat="45.0286131587742" lon="7.6725107255261005"><ele>225.5</ele><time>2026-04-16T13:27:30.001Z</time></trkpt><trkpt lat="45.028728774261225" lon="7.672545722826026"><ele>225.25</ele><time>2026-04-16T13:27:31.001Z</time></trkpt><trkpt lat="45.02883476353288" lon="7.672591292688961"><ele>225.0</ele><time>2026-04-16T13:27:32.001Z</time></trkpt><trkpt lat="45.02892463947803" lon="7.672632173103602"><ele>225.0</ele><time>2026-04-16T13:27:33.001Z</time></trkpt><trkpt lat="45.02901219472118" lon="7.672645048847303"><ele>225.0</ele><time>2026-04-16T13:27:34.001Z</time></trkpt><trkpt lat="45.02907583118314" lon="7.672694037685211"><ele>225.0</ele><time>2026-04-16T13:27:35.001Z</time></trkpt><trkpt lat="45.02918830519959" lon="7.6727526458401725"><ele>225.0</ele><time>2026-04-16T13:27:37.001Z</time></trkpt><trkpt lat="45.02925521730348" lon="7.672789310924601"><ele>225.0</ele><time>2026-04-16T13:27:38.001Z</time></trkpt><trkpt lat="45.02931928477505" lon="7.672813445068733"><ele>225.0</ele><time>2026-04-16T13:27:39.001Z</time></trkpt><trkpt lat="45.02938137788596" lon="7.672845840596868"><ele>224.66666666666666</ele><time>2026-04-16T13:27:40.001Z</time></trkpt><trkpt lat="45.029457111910816" lon="7.672901489287682"><ele>224.33333333333331</ele><time>2026-04-16T13:27:42.001Z</time></trkpt><trkpt lat="45.02951969091208" lon="7.672944893117824"><ele>224.0</ele><time>2026-04-16T13:27:46.001Z</time></trkpt><trkpt lat="45.02958520618539" lon="7.673017660225245"><ele>223.66666666666666</ele><time>2026-04-16T13:28:03.001Z</time></trkpt><trkpt lat="45.02968756772575" lon="7.673085815938885"><ele>223.33333333333331</ele><time>2026-04-16T13:28:05.001Z</time></trkpt><trkpt lat="45.02976133246436" lon="7.673162945168977"><ele>223.0</ele><time>2026-04-16T13:28:06.001Z</time></trkpt><trkpt lat="45.029827419934364" lon="7.673229379207097"><ele>223.0</ele><time>2026-04-16T13:28:07.001Z</time></trkpt><trkpt lat="45.029906803395264" lon="7.673306611727878"><ele>223.0</ele><time>2026-04-16T13:28:08.001Z</time></trkpt><trkpt lat="45.02999353323578" lon="7.673390534787438"><ele>223.0</ele><time>2026-04-16T13:28:09.001Z</time></trkpt><trkpt lat="45.030092982180754" lon="7.673488991683962"><ele>223.0</ele><time>2026-04-16T13:28:10.001Z</time></trkpt><trkpt lat="45.03019210185142" lon="7.673587407041732"><ele>223.0</ele><time>2026-04-16T13:28:11.001Z</time></trkpt><trkpt lat="45.030293756009684" lon="7.673686709656391"><ele>223.0</ele><time>2026-04-16T13:28:12.001Z</time></trkpt><trkpt lat="45.03040241904336" lon="7.673791685377936"><ele>223.0</ele><time>2026-04-16T13:28:13.001Z</time></trkpt><trkpt lat="45.03050292154757" lon="7.673894526651843"><ele>223.0</ele><time>2026-04-16T13:28:14.001Z</time></trkpt><trkpt lat="45.030602372848946" lon="7.6739966195289355"><ele>223.0</ele><time>2026-04-16T13:28:15.001Z</time></trkpt><trkpt lat="45.03070800489258" lon="7.6740982517911975"><ele>223.0</ele><time>2026-04-16T13:28:16.001Z</time></trkpt><trkpt lat="45.03080461437094" lon="7.67419116106457"><ele>223.0</ele><time>2026-04-16T13:28:17.001Z</time></trkpt><trkpt lat="45.0309047188014" lon="7.674286508609525"><ele>223.0</ele><time>2026-04-16T13:28:18.001Z</time></trkpt><trkpt lat="45.03101312721283" lon="7.674385746319549"><ele>223.0</ele><time>2026-04-16T13:28:19.001Z</time></trkpt><trkpt lat="45.03113154618753" lon="7.674506069871001"><ele>222.66666666666666</ele><time>2026-04-16T13:28:20.001Z</time></trkpt><trkpt lat="45.03126877243871" lon="7.6746150623444676"><ele>222.33333333333331</ele><time>2026-04-16T13:28:21.001Z</time></trkpt><trkpt lat="45.031399741618706" lon="7.674720643670491"><ele>222.0</ele><time>2026-04-16T13:28:22.002Z</time></trkpt><trkpt lat="45.03152302872301" lon="7.674830656725905"><ele>223.66666666666669</ele><time>2026-04-16T13:28:23.002Z</time></trkpt><trkpt lat="45.03166259915547" lon="7.674932649471826"><ele>225.33333333333334</ele><time>2026-04-16T13:28:24.002Z</time></trkpt><trkpt lat="45.03181241365369" lon="7.675034824368884"><ele>227.0</ele><time>2026-04-16T13:28:25.002Z</time></trkpt><trkpt lat="45.03196004594579" lon="7.675141221273276"><ele>227.0</ele><time>2026-04-16T13:28:26.002Z</time></trkpt><trkpt lat="45.03210654557056" lon="7.675244602730354"><ele>227.0</ele><time>2026-04-16T13:28:27.002Z</time></trkpt><trkpt lat="45.03224750978522" lon="7.675338397685882"><ele>227.0</ele><time>2026-04-16T13:28:28.002Z</time></trkpt><trkpt lat="45.0323915752357" lon="7.675438287278684"><ele>226.33333333333334</ele><time>2026-04-16T13:28:29.002Z</time></trkpt><trkpt lat="45.03254645531005" lon="7.675537927827799"><ele>225.66666666666669</ele><time>2026-04-16T13:28:30.002Z</time></trkpt><trkpt lat="45.03269546702372" lon="7.675623198678545"><ele>225.0</ele><time>2026-04-16T13:28:31.002Z</time></trkpt><trkpt lat="45.032848453914234" lon="7.675697000399528"><ele>225.0</ele><time>2026-04-16T13:28:32.002Z</time></trkpt><trkpt lat="45.032964557865576" lon="7.675758437441342"><ele>225.0</ele><time>2026-04-16T13:28:33.002Z</time></trkpt><trkpt lat="45.033077248261684" lon="7.67582640199439"><ele>225.0</ele><time>2026-04-16T13:28:34.002Z</time></trkpt><trkpt lat="45.0332038784914" lon="7.675908871529543"><ele>225.0</ele><time>2026-04-16T13:28:35.002Z</time></trkpt><trkpt lat="45.03330948192514" lon="7.675932107865444"><ele>225.66666666666669</ele><time>2026-04-16T13:28:36.002Z</time></trkpt><trkpt lat="45.033448605719755" lon="7.6759674372965545"><ele>226.33333333333334</ele><time>2026-04-16T13:28:37.002Z</time></trkpt><trkpt lat="45.03361228376558" lon="7.676022975100618"><ele>227.0</ele><time>2026-04-16T13:28:38.002Z</time></trkpt><trkpt lat="45.0337797842131" lon="7.676099194006873"><ele>227.0</ele><time>2026-04-16T13:28:39.002Z</time></trkpt><trkpt lat="45.033946585453606" lon="7.6761589432614254"><ele>227.0</ele><time>2026-04-16T13:28:40.002Z</time></trkpt><trkpt lat="45.03411170223237" lon="7.67622559925415"><ele>227.0</ele><time>2026-04-16T13:28:41.002Z</time></trkpt><trkpt lat="45.03428628438613" lon="7.676288176532547"><ele>227.0</ele><time>2026-04-16T13:28:42.002Z</time></trkpt><trkpt lat="45.034471259790436" lon="7.6763504514559395"><ele>227.0</ele><time>2026-04-16T13:28:43.002Z</time></trkpt><trkpt lat="45.03464016373834" lon="7.6763901688230884"><ele>227.0</ele><time>2026-04-16T13:28:44.002Z</time></trkpt><trkpt lat="45.03478978714705" lon="7.676422497226198"><ele>227.0</ele><time>2026-04-16T13:28:45.002Z</time></trkpt><trkpt lat="45.03492292422658" lon="7.676450547919627"><ele>227.0</ele><time>2026-04-16T13:28:46Z</time></trkpt><trkpt lat="45.03504616380246" lon="7.67647270456378"><ele>227.0</ele><time>2026-04-16T13:28:47Z</time></trkpt><trkpt lat="45.035157037999625" lon="7.676488424936098"><ele>227.0</ele><time>2026-04-16T13:28:48Z</time></trkpt><trkpt lat="45.03525775426232" lon="7.676501341139296"><ele>227.00000000000003</ele><time>2026-04-16T13:28:49Z</time></trkpt><trkpt lat="45.03534384739248" lon="7.676515320045219"><ele>227.0</ele><time>2026-04-16T13:28:50Z</time></trkpt><trkpt lat="45.03543341880769" lon="7.676526716840779"><ele>227.0</ele><time>2026-04-16T13:28:51Z</time></trkpt><trkpt lat="45.03550759280526" lon="7.676532646709128"><ele>227.0</ele><time>2026-04-16T13:28:52Z</time></trkpt><trkpt lat="45.035576691344545" lon="7.676537068854972"><ele>227.00000000000003</ele><time>2026-04-16T13:28:53Z</time></trkpt><trkpt lat="45.03568618325688" lon="7.676549739779987"><ele>227.0</ele><time>2026-04-16T13:28:55Z</time></trkpt><trkpt lat="45.03576047583479" lon="7.676557300791156"><ele>226.8</ele><time>2026-04-16T13:28:57Z</time></trkpt><trkpt lat="45.03588493970453" lon="7.67662033740031"><ele>226.6</ele><time>2026-04-16T13:28:59Z</time></trkpt><trkpt lat="45.03597026786005" lon="7.676666265391409"><ele>226.40000000000003</ele><time>2026-04-16T13:29:00Z</time></trkpt><trkpt lat="45.036050421928756" lon="7.676684235436396"><ele>226.20000000000002</ele><time>2026-04-16T13:29:01Z</time></trkpt><trkpt lat="45.03612474642626" lon="7.676664832296442"><ele>226.0</ele><time>2026-04-16T13:29:02Z</time></trkpt><trkpt lat="45.03619829884498" lon="7.676621710604966"><ele>226.0</ele><time>2026-04-16T13:29:03Z</time></trkpt><trkpt lat="45.03628642706251" lon="7.676579406488394"><ele>226.00000000000003</ele><time>2026-04-16T13:29:04Z</time></trkpt><trkpt lat="45.03636194444891" lon="7.676556460021623"><ele>226.00000000000003</ele><time>2026-04-16T13:29:05Z</time></trkpt><trkpt lat="45.0364435556048" lon="7.676543819962924"><ele>226.0</ele><time>2026-04-16T13:29:06Z</time></trkpt><trkpt lat="45.03656189888565" lon="7.676540616301322"><ele>226.0</ele><time>2026-04-16T13:29:07Z</time></trkpt><trkpt lat="45.03672420900057" lon="7.676536975446607"><ele>225.66666666666666</ele><time>2026-04-16T13:29:08Z</time></trkpt><trkpt lat="45.036908974025295" lon="7.676534844534092"><ele>225.33333333333331</ele><time>2026-04-16T13:29:09Z</time></trkpt><trkpt lat="45.037099210865804" lon="7.676481838712199"><ele>225.0</ele><time>2026-04-16T13:29:10Z</time></trkpt><trkpt lat="45.03730867841574" lon="7.676475698243396"><ele>224.33333333333331</ele><time>2026-04-16T13:29:11Z</time></trkpt><trkpt lat="45.03749305671588" lon="7.67642971798169"><ele>223.66666666666666</ele><time>2026-04-16T13:29:12Z</time></trkpt><trkpt lat="45.03766417484064" lon="7.6763926484535"><ele>223.0</ele><time>2026-04-16T13:29:13Z</time></trkpt><trkpt lat="45.03783230021126" lon="7.676390754234487"><ele>223.0</ele><time>2026-04-16T13:29:14Z</time></trkpt><trkpt lat="45.03799910941638" lon="7.676342562337626"><ele>223.0</ele><time>2026-04-16T13:29:15Z</time></trkpt><trkpt lat="45.03815232723324" lon="7.676321036974599"><ele>223.0</ele><time>2026-04-16T13:29:16Z</time></trkpt><trkpt lat="45.038275656312784" lon="7.6763049624407795"><ele>223.0</ele><time>2026-04-16T13:29:17Z</time></trkpt><trkpt lat="45.03838376395385" lon="7.676285592046977"><ele>223.4</ele><time>2026-04-16T13:29:18Z</time></trkpt><trkpt lat="45.03848754146062" lon="7.676275479769435"><ele>223.8</ele><time>2026-04-16T13:29:19Z</time></trkpt><trkpt lat="45.03858080874096" lon="7.676264116140359"><ele>224.2</ele><time>2026-04-16T13:29:20Z</time></trkpt><trkpt lat="45.03867867683181" lon="7.676252236431048"><ele>224.6</ele><time>2026-04-16T13:29:21Z</time></trkpt><trkpt lat="45.03881422937641" lon="7.676240498245425"><ele>225.0</ele><time>2026-04-16T13:29:22Z</time></trkpt><trkpt lat="45.03893200468158" lon="7.676245473091691"><ele>225.0</ele><time>2026-04-16T13:29:23Z</time></trkpt><trkpt lat="45.03903447302538" lon="7.676250595109171"><ele>225.0</ele><time>2026-04-16T13:29:24Z</time></trkpt><trkpt lat="45.03912856580663" lon="7.67625129845535"><ele>225.0</ele><time>2026-04-16T13:29:25Z</time></trkpt><trkpt lat="45.039215037390264" lon="7.676250135767962"><ele>225.0</ele><time>2026-04-16T13:29:26Z</time></trkpt><trkpt lat="45.03930225911011" lon="7.6762492973238245"><ele>225.0</ele><time>2026-04-16T13:29:27Z</time></trkpt><trkpt lat="45.03942174681797" lon="7.676246155209526"><ele>225.5</ele><time>2026-04-16T13:29:28Z</time></trkpt><trkpt lat="45.039547819089435" lon="7.67622755992797"><ele>226.0</ele><time>2026-04-16T13:29:29Z</time></trkpt><trkpt lat="45.039673990477816" lon="7.676224752306792"><ele>226.5</ele><time>2026-04-16T13:29:30Z</time></trkpt><trkpt lat="45.03980053990437" lon="7.676241939816067"><ele>227.0</ele><time>2026-04-16T13:29:31Z</time></trkpt><trkpt lat="45.03993062971988" lon="7.676270338779453"><ele>227.75</ele><time>2026-04-16T13:29:32Z</time></trkpt><trkpt lat="45.0400526127773" lon="7.676294569299464"><ele>228.5</ele><time>2026-04-16T13:29:33Z</time></trkpt><trkpt lat="45.04018528088634" lon="7.676319175306508"><ele>229.25</ele><time>2026-04-16T13:29:34Z</time></trkpt><trkpt lat="45.04030625055251" lon="7.676321552039886"><ele>230.0</ele><time>2026-04-16T13:29:35Z</time></trkpt><trkpt lat="45.040425541641866" lon="7.676362409466215"><ele>230.0</ele><time>2026-04-16T13:29:36.001Z</time></trkpt><trkpt lat="45.04052852195153" lon="7.676393675448934"><ele>230.0</ele><time>2026-04-16T13:29:37.001Z</time></trkpt><trkpt lat="45.04061916379497" lon="7.6764268889219345"><ele>230.0</ele><time>2026-04-16T13:29:38.001Z</time></trkpt><trkpt lat="45.04071027516664" lon="7.676452300269328"><ele>230.0</ele><time>2026-04-16T13:29:39.001Z</time></trkpt><trkpt lat="45.04080685295126" lon="7.676481377047633"><ele>230.0</ele><time>2026-04-16T13:29:40.001Z</time></trkpt><trkpt lat="45.04088134351641" lon="7.6765339869472005"><ele>230.16666666666669</ele><time>2026-04-16T13:29:41.001Z</time></trkpt><trkpt lat="45.04094214429443" lon="7.676571167605769"><ele>230.33333333333334</ele><time>2026-04-16T13:29:42.001Z</time></trkpt><trkpt lat="45.041052520900365" lon="7.676619489108172"><ele>230.5</ele><time>2026-04-16T13:29:44.001Z</time></trkpt><trkpt lat="45.0411229357224" lon="7.676673894631452"><ele>230.66666666666669</ele><time>2026-04-16T13:29:46.001Z</time></trkpt><trkpt lat="45.04120114471002" lon="7.67670138837991"><ele>230.83333333333334</ele><time>2026-04-16T13:29:49.001Z</time></trkpt><trkpt lat="45.041261540172165" lon="7.676727578976401"><ele>231.0</ele><time>2026-04-16T13:29:51.001Z</time></trkpt><trkpt lat="45.04137856959723" lon="7.676809093904044"><ele>231.0</ele><time>2026-04-16T13:29:53.001Z</time></trkpt><trkpt lat="45.04143588851774" lon="7.676920417521654"><ele>231.00000000000003</ele><time>2026-04-16T13:29:55.001Z</time></trkpt><trkpt lat="45.041486377024654" lon="7.677052847280231"><ele>231.00000000000003</ele><time>2026-04-16T13:29:57.001Z</time></trkpt><trkpt lat="45.04151073821722" lon="7.677159138047059"><ele>231.0</ele><time>2026-04-16T13:29:58.001Z</time></trkpt><trkpt lat="45.041521698602175" lon="7.677286024549144"><ele>231.0</ele><time>2026-04-16T13:29:59.001Z</time></trkpt><trkpt lat="45.04151127789329" lon="7.6773941625044655"><ele>229.75</ele><time>2026-04-16T13:30:00.001Z</time></trkpt><trkpt lat="45.04148542686278" lon="7.677495504200003"><ele>228.5</ele><time>2026-04-16T13:30:01.001Z</time></trkpt><trkpt lat="45.04143692347352" lon="7.677638451823142"><ele>227.25</ele><time>2026-04-16T13:30:02.001Z</time></trkpt><trkpt lat="45.0413783994766" lon="7.677824050361589"><ele>226.0</ele><time>2026-04-16T13:30:03.001Z</time></trkpt><trkpt lat="45.0413247541061" lon="7.678017445340028"><ele>225.60000000000002</ele><time>2026-04-16T13:30:04.001Z</time></trkpt><trkpt lat="45.041274084552164" lon="7.6781911445778075"><ele>225.20000000000002</ele><time>2026-04-16T13:30:05.001Z</time></trkpt><trkpt lat="45.04123044108934" lon="7.678336263244655"><ele>224.79999999999998</ele><time>2026-04-16T13:30:06.001Z</time></trkpt><trkpt lat="45.041181881201794" lon="7.678469688697539"><ele>224.39999999999998</ele><time>2026-04-16T13:30:07.001Z</time></trkpt><trkpt lat="45.04114744127022" lon="7.678597422035661"><ele>224.0</ele><time>2026-04-16T13:30:08.001Z</time></trkpt><trkpt lat="45.04110181669205" lon="7.6787197170226005"><ele>224.0</ele><time>2026-04-16T13:30:09.001Z</time></trkpt><trkpt lat="45.041072958514846" lon="7.6788244050465915"><ele>223.99999999999997</ele><time>2026-04-16T13:30:10.001Z</time></trkpt><trkpt lat="45.04104175187697" lon="7.678910331576902"><ele>223.99999999999997</ele><time>2026-04-16T13:30:11.001Z</time></trkpt><trkpt lat="45.040994239409684" lon="7.679046270622736"><ele>224.0</ele><time>2026-04-16T13:30:13.001Z</time></trkpt><trkpt lat="45.040945217713" lon="7.679167641018597"><ele>224.0</ele><time>2026-04-16T13:30:15.001Z</time></trkpt><trkpt lat="45.04086713567975" lon="7.679255347606537"><ele>224.0</ele><time>2026-04-16T13:30:17.001Z</time></trkpt><trkpt lat="45.04080151461111" lon="7.679312072216078"><ele>223.99999999999997</ele><time>2026-04-16T13:30:20.001Z</time></trkpt><trkpt lat="45.04072829208054" lon="7.679360629578943"><ele>223.99999999999997</ele><time>2026-04-16T13:30:21.001Z</time></trkpt><trkpt lat="45.04062665739999" lon="7.679446263961865"><ele>224.0</ele><time>2026-04-16T13:30:22.001Z</time></trkpt><trkpt lat="45.04053506235383" lon="7.67957497920685"><ele>224.0</ele><time>2026-04-16T13:30:23.001Z</time></trkpt><trkpt lat="45.040485271778465" lon="7.679715870112515"><ele>224.79999999999998</ele><time>2026-04-16T13:30:24.001Z</time></trkpt><trkpt lat="45.04047679071428" lon="7.679847765146687"><ele>225.59999999999997</ele><time>2026-04-16T13:30:25.001Z</time></trkpt><trkpt lat="45.040507571868346" lon="7.679984431806842"><ele>226.4</ele><time>2026-04-16T13:30:26.001Z</time></trkpt><trkpt lat="45.04056835808425" lon="7.680123615232674"><ele>227.2</ele><time>2026-04-16T13:30:27.001Z</time></trkpt><trkpt lat="45.040645776630036" lon="7.680277077057383"><ele>228.0</ele><time>2026-04-16T13:30:28.001Z</time></trkpt><trkpt lat="45.04078120741521" lon="7.680287471834933"><ele>227.8</ele><time>2026-04-16T13:30:29.001Z</time></trkpt><trkpt lat="45.040889181137956" lon="7.680290368664008"><ele>227.60000000000002</ele><time>2026-04-16T13:30:30.001Z</time></trkpt><trkpt lat="45.04099885072558" lon="7.680241797690499"><ele>227.39999999999998</ele><time>2026-04-16T13:30:31.001Z</time></trkpt><trkpt lat="45.04105926495296" lon="7.680151752704041"><ele>227.2</ele><time>2026-04-16T13:30:32.001Z</time></trkpt><trkpt lat="45.04112655830286" lon="7.680078673560338"><ele>227.0</ele><time>2026-04-16T13:30:33.001Z</time></trkpt><trkpt lat="45.0411956059589" lon="7.680044574910797"><ele>227.0</ele><time>2026-04-16T13:30:34.001Z</time></trkpt><trkpt lat="45.04126788662495" lon="7.680090208098722"><ele>227.0</ele><time>2026-04-16T13:30:35.001Z</time></trkpt><trkpt lat="45.04135080983128" lon="7.680136403067566"><ele>227.0</ele><time>2026-04-16T13:30:36.001Z</time></trkpt><trkpt lat="45.04142981873639" lon="7.68033536176649"><ele>227.0</ele><time>2026-04-16T13:30:37.001Z</time></trkpt><trkpt lat="45.041550322120884" lon="7.6804920190711305"><ele>226.33333333333334</ele><time>2026-04-16T13:30:38.001Z</time></trkpt><trkpt lat="45.04166938786742" lon="7.680664079353237"><ele>225.66666666666669</ele><time>2026-04-16T13:30:39.001Z</time></trkpt><trkpt lat="45.04176929162131" lon="7.680826005250199"><ele>225.0</ele><time>2026-04-16T13:30:40.001Z</time></trkpt><trkpt lat="45.04185021996893" lon="7.680977372287868"><ele>225.33333333333331</ele><time>2026-04-16T13:30:41.002Z</time></trkpt><trkpt lat="45.041936228889135" lon="7.681148878895528"><ele>225.66666666666666</ele><time>2026-04-16T13:30:42.002Z</time></trkpt><trkpt lat="45.04202747293301" lon="7.681360148545197"><ele>226.0</ele><time>2026-04-16T13:30:43.002Z</time></trkpt><trkpt lat="45.04213047120201" lon="7.681589954440402"><ele>226.0</ele><time>2026-04-16T13:30:44.002Z</time></trkpt><trkpt lat="45.0422019445852" lon="7.681790986456159"><ele>226.0</ele><time>2026-04-16T13:30:45.002Z</time></trkpt><trkpt lat="45.04224885506912" lon="7.681970929740282"><ele>226.0</ele><time>2026-04-16T13:30:46.002Z</time></trkpt><trkpt lat="45.04228360000924" lon="7.682122016056654"><ele>226.0</ele><time>2026-04-16T13:30:47.002Z</time></trkpt><trkpt lat="45.0423041805901" lon="7.682259881687856"><ele>225.99999999999997</ele><time>2026-04-16T13:30:48.002Z</time></trkpt><trkpt lat="45.04232402296772" lon="7.6823489938933385"><ele>226.0</ele><time>2026-04-16T13:30:49.002Z</time></trkpt><trkpt lat="45.042357650337486" lon="7.682476392843187"><ele>226.0</ele><time>2026-04-16T13:30:51.002Z</time></trkpt><trkpt lat="45.04237225285233" lon="7.6825700475808505"><ele>226.0</ele><time>2026-04-16T13:30:53Z</time></trkpt><trkpt lat="45.04236019121308" lon="7.682676505425092"><ele>225.99999999999997</ele><time>2026-04-16T13:30:55Z</time></trkpt><trkpt lat="45.04231599254162" lon="7.682765257728347"><ele>226.0</ele><time>2026-04-16T13:30:57Z</time></trkpt><trkpt lat="45.04231686169974" lon="7.682880621085543"><ele>226.0</ele><time>2026-04-16T13:30:59Z</time></trkpt><trkpt lat="45.042409879129394" lon="7.682988384695381"><ele>226.00000000000003</ele><time>2026-04-16T13:31:01Z</time></trkpt><trkpt lat="45.04247757797137" lon="7.683058158936131"><ele>226.00000000000003</ele><time>2026-04-16T13:31:02Z</time></trkpt><trkpt lat="45.04254327289406" lon="7.68313193706797"><ele>226.0</ele><time>2026-04-16T13:31:03Z</time></trkpt><trkpt lat="45.04262182867408" lon="7.683199212533832"><ele>226.0</ele><time>2026-04-16T13:31:04Z</time></trkpt><trkpt lat="45.04270789477156" lon="7.6833095914408815"><ele>226.0</ele><time>2026-04-16T13:31:05Z</time></trkpt><trkpt lat="45.042832952336404" lon="7.683432219364592"><ele>226.0</ele><time>2026-04-16T13:31:06Z</time></trkpt><trkpt lat="45.042962208193394" lon="7.683562040588134"><ele>226.0</ele><time>2026-04-16T13:31:07Z</time></trkpt><trkpt lat="45.04308029165504" lon="7.683691547325734"><ele>226.0</ele><time>2026-04-16T13:31:08Z</time></trkpt><trkpt lat="45.043177975209936" lon="7.6838300248554585"><ele>226.0</ele><time>2026-04-16T13:31:09Z</time></trkpt><trkpt lat="45.043261763517876" lon="7.68395128583558"><ele>226.0</ele><time>2026-04-16T13:31:10Z</time></trkpt><trkpt lat="45.043339743006925" lon="7.684050487504005"><ele>226.0</ele><time>2026-04-16T13:31:11Z</time></trkpt><trkpt lat="45.04340495449421" lon="7.684146356074511"><ele>225.60000000000002</ele><time>2026-04-16T13:31:12Z</time></trkpt><trkpt lat="45.0434583054177" lon="7.684242933143308"><ele>225.20000000000002</ele><time>2026-04-16T13:31:13Z</time></trkpt><trkpt lat="45.04351034521752" lon="7.6843177905720585"><ele>224.79999999999998</ele><time>2026-04-16T13:31:15Z</time></trkpt><trkpt lat="45.04358671426946" lon="7.684438939998711"><ele>224.39999999999998</ele><time>2026-04-16T13:31:23Z</time></trkpt><trkpt lat="45.04365512647562" lon="7.684553465004897"><ele>224.0</ele><time>2026-04-16T13:31:24Z</time></trkpt><trkpt lat="45.04371494649293" lon="7.6846468362786275"><ele>224.66666666666669</ele><time>2026-04-16T13:31:25Z</time></trkpt><trkpt lat="45.043733264652765" lon="7.684778121970704"><ele>225.33333333333334</ele><time>2026-04-16T13:31:27Z</time></trkpt><trkpt lat="45.04372152683572" lon="7.684881214444888"><ele>226.0</ele><time>2026-04-16T13:31:29Z</time></trkpt><trkpt lat="45.04370330011023" lon="7.68498301914614"><ele>226.66666666666669</ele><time>2026-04-16T13:31:30Z</time></trkpt><trkpt lat="45.04368483885667" lon="7.685070417330202"><ele>227.33333333333334</ele><time>2026-04-16T13:31:31Z</time></trkpt><trkpt lat="45.043640997570954" lon="7.68515091482114"><ele>228.0</ele><time>2026-04-16T13:31:34Z</time></trkpt><trkpt lat="45.04383238941277" lon="7.685308239202193"><ele>230.0</ele><time>2026-04-16T13:31:36Z</time></trkpt><trkpt lat="45.043900939225836" lon="7.685355737752183"><ele>232.0</ele><time>2026-04-16T13:31:37Z</time></trkpt><trkpt lat="45.04398955471368" lon="7.685432892518828"><ele>234.0</ele><time>2026-04-16T13:31:38Z</time></trkpt><trkpt lat="45.0441160804358" lon="7.685527615801131"><ele>236.0</ele><time>2026-04-16T13:31:39Z</time></trkpt><trkpt lat="45.044234982415574" lon="7.685603412676022"><ele>236.0</ele><time>2026-04-16T13:31:40Z</time></trkpt><trkpt lat="45.04431252899248" lon="7.68564682974682"><ele>236.00000000000003</ele><time>2026-04-16T13:31:41Z</time></trkpt><trkpt lat="45.04438245793666" lon="7.685700181313817"><ele>236.00000000000003</ele><time>2026-04-16T13:31:42Z</time></trkpt><trkpt lat="45.04444344119025" lon="7.685739538755084"><ele>236.0</ele><time>2026-04-16T13:31:43Z</time></trkpt><trkpt lat="45.044541038001725" lon="7.685773580225447"><ele>236.0</ele><time>2026-04-16T13:32:04.001Z</time></trkpt><trkpt lat="45.044668588633115" lon="7.685865126260822"><ele>236.0</ele><time>2026-04-16T13:32:06.001Z</time></trkpt><trkpt lat="45.04478323863221" lon="7.685953335298561"><ele>236.0</ele><time>2026-04-16T13:32:07.001Z</time></trkpt><trkpt lat="45.04492017817707" lon="7.68604014003607"><ele>236.0</ele><time>2026-04-16T13:32:08.001Z</time></trkpt><trkpt lat="45.04507450556911" lon="7.686137070758297"><ele>236.0</ele><time>2026-04-16T13:32:09.001Z</time></trkpt><trkpt lat="45.04524732368244" lon="7.686239772211924"><ele>237.0</ele><time>2026-04-16T13:32:10.001Z</time></trkpt><trkpt lat="45.04544519665608" lon="7.686341258728072"><ele>238.0</ele><time>2026-04-16T13:32:11.001Z</time></trkpt><trkpt lat="45.04560851135311" lon="7.686419165043592"><ele>239.0</ele><time>2026-04-16T13:32:12.001Z</time></trkpt><trkpt lat="45.0457964848539" lon="7.686518350743957"><ele>239.0</ele><time>2026-04-16T13:32:13.001Z</time></trkpt><trkpt lat="45.04598919333311" lon="7.686582167173964"><ele>239.0</ele><time>2026-04-16T13:32:14.001Z</time></trkpt><trkpt lat="45.046202958118066" lon="7.6866919129026945"><ele>239.0</ele><time>2026-04-16T13:32:15.001Z</time></trkpt><trkpt lat="45.04642921201371" lon="7.6867672072932995"><ele>240.33333333333334</ele><time>2026-04-16T13:32:16.001Z</time></trkpt><trkpt lat="45.04663100384527" lon="7.686831641024424"><ele>241.66666666666669</ele><time>2026-04-16T13:32:17.001Z</time></trkpt><trkpt lat="45.04680764769695" lon="7.686909201090639"><ele>243.0</ele><time>2026-04-16T13:32:18.001Z</time></trkpt><trkpt lat="45.046968859289436" lon="7.686956831615262"><ele>243.0</ele><time>2026-04-16T13:32:19.001Z</time></trkpt><trkpt lat="45.04714015393466" lon="7.687005017597063"><ele>243.0</ele><time>2026-04-16T13:32:20.001Z</time></trkpt><trkpt lat="45.04728839141436" lon="7.687043304347219"><ele>243.0</ele><time>2026-04-16T13:32:21.001Z</time></trkpt><trkpt lat="45.047465994223145" lon="7.687094641171976"><ele>242.66666666666669</ele><time>2026-04-16T13:32:22.001Z</time></trkpt><trkpt lat="45.04764603124448" lon="7.687124148262173"><ele>242.33333333333334</ele><time>2026-04-16T13:32:23.001Z</time></trkpt><trkpt lat="45.04782186934187" lon="7.6871390968054545"><ele>242.0</ele><time>2026-04-16T13:32:24.001Z</time></trkpt><trkpt lat="45.04800999668454" lon="7.687162951360934"><ele>242.0</ele><time>2026-04-16T13:32:25.001Z</time></trkpt><trkpt lat="45.04821652091461" lon="7.687217710438803"><ele>242.0</ele><time>2026-04-16T13:32:26.001Z</time></trkpt><trkpt lat="45.0483788575562" lon="7.687240917905197"><ele>242.0</ele><time>2026-04-16T13:32:27.001Z</time></trkpt><trkpt lat="45.048542009563434" lon="7.6872913707311925"><ele>239.66666666666669</ele><time>2026-04-16T13:32:28.001Z</time></trkpt><trkpt lat="45.048700554395275" lon="7.687364573362072"><ele>237.33333333333331</ele><time>2026-04-16T13:32:29.001Z</time></trkpt><trkpt lat="45.04884549090426" lon="7.687432729633154"><ele>235.0</ele><time>2026-04-16T13:32:30.001Z</time></trkpt><trkpt lat="45.048987131250584" lon="7.6875200636812755"><ele>235.0</ele><time>2026-04-16T13:32:31.001Z</time></trkpt><trkpt lat="45.049111376173876" lon="7.687551927611036"><ele>235.0</ele><time>2026-04-16T13:32:32.001Z</time></trkpt><trkpt lat="45.04924749140372" lon="7.687651344885118"><ele>235.0</ele><time>2026-04-16T13:32:33.001Z</time></trkpt><trkpt lat="45.04937996014147" lon="7.687732015105709"><ele>235.0</ele><time>2026-04-16T13:32:34.001Z</time></trkpt><trkpt lat="45.049491754707525" lon="7.687781930906977"><ele>236.0</ele><time>2026-04-16T13:32:35.001Z</time></trkpt><trkpt lat="45.049585142592605" lon="7.687831487196567"><ele>237.0</ele><time>2026-04-16T13:32:36.001Z</time></trkpt><trkpt lat="45.04969173124981" lon="7.687880541981936"><ele>238.0</ele><time>2026-04-16T13:32:37.001Z</time></trkpt><trkpt lat="45.04979100342574" lon="7.687941977451903"><ele>239.0</ele><time>2026-04-16T13:32:38.001Z</time></trkpt><trkpt lat="45.04990811468559" lon="7.687999665614463"><ele>240.0</ele><time>2026-04-16T13:32:39.001Z</time></trkpt><trkpt lat="45.05004313198653" lon="7.688068877590944"><ele>240.0</ele><time>2026-04-16T13:32:40.001Z</time></trkpt><trkpt lat="45.050180442819794" lon="7.6881579413705445"><ele>240.0</ele><time>2026-04-16T13:32:41.001Z</time></trkpt><trkpt lat="45.05032413698379" lon="7.688247443053131"><ele>240.0</ele><time>2026-04-16T13:32:42.001Z</time></trkpt><trkpt lat="45.05045758877417" lon="7.688329771926099"><ele>240.0</ele><time>2026-04-16T13:32:43.001Z</time></trkpt><trkpt lat="45.05057372910835" lon="7.688440497503584"><ele>240.0</ele><time>2026-04-16T13:32:44.001Z</time></trkpt><trkpt lat="45.05069549446063" lon="7.688533754878549"><ele>240.0</ele><time>2026-04-16T13:32:45.001Z</time></trkpt><trkpt lat="45.05078890866809" lon="7.6885881564910195"><ele>240.0</ele><time>2026-04-16T13:32:46.002Z</time></trkpt><trkpt lat="45.05089100542647" lon="7.688643354447734"><ele>240.33333333333334</ele><time>2026-04-16T13:32:47.002Z</time></trkpt><trkpt lat="45.050970284485665" lon="7.688702534957656"><ele>240.66666666666669</ele><time>2026-04-16T13:32:48.002Z</time></trkpt><trkpt lat="45.05104075645702" lon="7.688747191635726"><ele>241.0</ele><time>2026-04-16T13:32:49.002Z</time></trkpt><trkpt lat="45.05110448256956" lon="7.688797809132485"><ele>241.33333333333334</ele><time>2026-04-16T13:32:50.002Z</time></trkpt><trkpt lat="45.05117078872429" lon="7.688828738414246"><ele>241.66666666666669</ele><time>2026-04-16T13:32:51.002Z</time></trkpt><trkpt lat="45.05126132949501" lon="7.688885741348516"><ele>242.0</ele><time>2026-04-16T13:32:53.002Z</time></trkpt><trkpt lat="45.05133563087543" lon="7.688931791499324"><ele>242.00000000000003</ele><time>2026-04-16T13:32:55.002Z</time></trkpt><trkpt lat="45.05142985131606" lon="7.688986832529384"><ele>242.0</ele><time>2026-04-16T13:32:57.002Z</time></trkpt><trkpt lat="45.05150481137095" lon="7.689017456849894"><ele>242.0</ele><time>2026-04-16T13:33:01Z</time></trkpt><trkpt lat="45.05157307481593" lon="7.689046425805181"><ele>242.0</ele><time>2026-04-16T13:33:06Z</time></trkpt><trkpt lat="45.051634992872266" lon="7.689094593222073"><ele>242.00000000000003</ele><time>2026-04-16T13:33:10Z</time></trkpt><trkpt lat="45.051736933501665" lon="7.68915654845243"><ele>242.0</ele><time>2026-04-16T13:33:12Z</time></trkpt><trkpt lat="45.05183867921746" lon="7.689207580305901"><ele>242.0</ele><time>2026-04-16T13:33:14Z</time></trkpt><trkpt lat="45.051911348592355" lon="7.689263656383284"><ele>242.0</ele><time>2026-04-16T13:33:17Z</time></trkpt><trkpt lat="45.05199738329993" lon="7.689305744816456"><ele>242.0</ele><time>2026-04-16T13:33:26Z</time></trkpt><trkpt lat="45.05210618980116" lon="7.689404021398092"><ele>242.0</ele><time>2026-04-16T13:33:28Z</time></trkpt><trkpt lat="45.052148128591064" lon="7.689505582981075"><ele>242.0</ele><time>2026-04-16T13:33:30Z</time></trkpt><trkpt lat="45.05208693570227" lon="7.68962467033577"><ele>242.0</ele><time>2026-04-16T13:33:31Z</time></trkpt><trkpt lat="45.05204305784185" lon="7.6897371560026615"><ele>242.0</ele><time>2026-04-16T13:33:32Z</time></trkpt><trkpt lat="45.051969934319764" lon="7.689866307076087"><ele>242.0</ele><time>2026-04-16T13:33:33Z</time></trkpt><trkpt lat="45.051928794498195" lon="7.689999811615539"><ele>242.0</ele><time>2026-04-16T13:33:34Z</time></trkpt><trkpt lat="45.05194351452335" lon="7.69013911146713"><ele>242.0</ele><time>2026-04-16T13:33:35.001Z</time></trkpt><trkpt lat="45.051956786597145" lon="7.6902692225177125"><ele>245.33333333333334</ele><time>2026-04-16T13:33:36.001Z</time></trkpt><trkpt lat="45.052104470864734" lon="7.690369765753641"><ele>248.66666666666669</ele><time>2026-04-16T13:33:37.001Z</time></trkpt><trkpt lat="45.05222406907308" lon="7.690485589858536"><ele>252.0</ele><time>2026-04-16T13:33:38.001Z</time></trkpt><trkpt lat="45.052362056240526" lon="7.690604472771695"><ele>248.0</ele><time>2026-04-16T13:33:39.001Z</time></trkpt><trkpt lat="45.052486045665994" lon="7.690750156888342"><ele>244.0</ele><time>2026-04-16T13:33:40.001Z</time></trkpt><trkpt lat="45.052619560088374" lon="7.690900177684437"><ele>240.0</ele><time>2026-04-16T13:33:41.001Z</time></trkpt><trkpt lat="45.052746894095286" lon="7.691051723423263"><ele>242.75</ele><time>2026-04-16T13:33:42.001Z</time></trkpt><trkpt lat="45.0528498986099" lon="7.691186612867963"><ele>245.5</ele><time>2026-04-16T13:33:43.001Z</time></trkpt><trkpt lat="45.05294673346698" lon="7.691302377890441"><ele>248.25</ele><time>2026-04-16T13:33:44.001Z</time></trkpt><trkpt lat="45.053031328349874" lon="7.691415490767161"><ele>251.0</ele><time>2026-04-16T13:33:45.001Z</time></trkpt><trkpt lat="45.053113381370565" lon="7.691525533940988"><ele>251.0</ele><time>2026-04-16T13:33:46.001Z</time></trkpt><trkpt lat="45.053189280436676" lon="7.691650040823425"><ele>251.0</ele><time>2026-04-16T13:33:47.001Z</time></trkpt><trkpt lat="45.05329559975733" lon="7.691782161978853"><ele>251.0</ele><time>2026-04-16T13:33:48.001Z</time></trkpt><trkpt lat="45.053403479331884" lon="7.691976281066558"><ele>251.0</ele><time>2026-04-16T13:33:49.001Z</time></trkpt><trkpt lat="45.05353139052665" lon="7.692161648741583"><ele>249.66666666666669</ele><time>2026-04-16T13:33:50.001Z</time></trkpt><trkpt lat="45.05364913031222" lon="7.692388760347801"><ele>248.33333333333331</ele><time>2026-04-16T13:33:51.001Z</time></trkpt><trkpt lat="45.053787885406905" lon="7.692611554747852"><ele>247.0</ele><time>2026-04-16T13:33:52.001Z</time></trkpt><trkpt lat="45.05390503535642" lon="7.692850337806363"><ele>245.33333333333331</ele><time>2026-04-16T13:33:53.001Z</time></trkpt><trkpt lat="45.05400683495715" lon="7.693068358527321"><ele>243.66666666666669</ele><time>2026-04-16T13:33:54.001Z</time></trkpt><trkpt lat="45.05409454377361" lon="7.693269003556385"><ele>242.0</ele><time>2026-04-16T13:33:55.001Z</time></trkpt><trkpt lat="45.05416650428969" lon="7.693459074811494"><ele>243.25</ele><time>2026-04-16T13:33:56.001Z</time></trkpt><trkpt lat="45.05424111109188" lon="7.693640883500236"><ele>244.5</ele><time>2026-04-16T13:33:57.001Z</time></trkpt><trkpt lat="45.054291160343936" lon="7.693791553774801"><ele>245.75</ele><time>2026-04-16T13:33:58.001Z</time></trkpt><trkpt lat="45.05433197294326" lon="7.693925552952383"><ele>247.0</ele><time>2026-04-16T13:33:59.001Z</time></trkpt><trkpt lat="45.0543706923318" lon="7.694040266560685"><ele>246.99999999999997</ele><time>2026-04-16T13:34:00.001Z</time></trkpt><trkpt lat="45.0544037650004" lon="7.694138695222766"><ele>247.0</ele><time>2026-04-16T13:34:01.001Z</time></trkpt><trkpt lat="45.05443553280877" lon="7.6942190677569435"><ele>247.0</ele><time>2026-04-16T13:34:02.001Z</time></trkpt><trkpt lat="45.054471951813845" lon="7.694305045077304"><ele>247.0</ele><time>2026-04-16T13:34:03.001Z</time></trkpt><trkpt lat="45.054551438946234" lon="7.694391570809286"><ele>246.99999999999997</ele><time>2026-04-16T13:34:04.001Z</time></trkpt><trkpt lat="45.05462342837472" lon="7.694530072343775"><ele>247.0</ele><time>2026-04-16T13:34:05.001Z</time></trkpt><trkpt lat="45.05468149817253" lon="7.69471169345776"><ele>248.33333333333331</ele><time>2026-04-16T13:34:06.001Z</time></trkpt><trkpt lat="45.05475612405045" lon="7.694936645907622"><ele>249.66666666666669</ele><time>2026-04-16T13:34:07.001Z</time></trkpt><trkpt lat="45.054835575091715" lon="7.695159459314725"><ele>251.0</ele><time>2026-04-16T13:34:08.001Z</time></trkpt><trkpt lat="45.05491227139327" lon="7.695356013321369"><ele>247.75</ele><time>2026-04-16T13:34:09.001Z</time></trkpt><trkpt lat="45.05497682795234" lon="7.695527185994701"><ele>244.5</ele><time>2026-04-16T13:34:10.001Z</time></trkpt><trkpt lat="45.05503257081142" lon="7.695682379693841"><ele>241.25</ele><time>2026-04-16T13:34:11.001Z</time></trkpt><trkpt lat="45.055084615426225" lon="7.69584915608786"><ele>238.0</ele><time>2026-04-16T13:34:12.001Z</time></trkpt><trkpt lat="45.055147132373435" lon="7.696003885772184"><ele>239.0</ele><time>2026-04-16T13:34:13.001Z</time></trkpt><trkpt lat="45.05518989825082" lon="7.696147482788919"><ele>240.0</ele><time>2026-04-16T13:34:14.001Z</time></trkpt><trkpt lat="45.05524741713156" lon="7.696267942068601"><ele>241.0</ele><time>2026-04-16T13:34:15.001Z</time></trkpt><trkpt lat="45.05530685487414" lon="7.696419713838507"><ele>242.0</ele><time>2026-04-16T13:34:16.001Z</time></trkpt><trkpt lat="45.05539560137816" lon="7.696592172832247"><ele>242.0</ele><time>2026-04-16T13:34:17.001Z</time></trkpt><trkpt lat="45.05549806939931" lon="7.696777476517425"><ele>242.0</ele><time>2026-04-16T13:34:18.001Z</time></trkpt><trkpt lat="45.055622535233375" lon="7.696959931642075"><ele>242.0</ele><time>2026-04-16T13:34:19.001Z</time></trkpt><trkpt lat="45.055769804489216" lon="7.69714606315206"><ele>245.0</ele><time>2026-04-16T13:34:20.001Z</time></trkpt><trkpt lat="45.055925294110516" lon="7.697320441735173"><ele>248.0</ele><time>2026-04-16T13:34:21.001Z</time></trkpt><trkpt lat="45.056059927784595" lon="7.697468453922675"><ele>251.0</ele><time>2026-04-16T13:34:22.001Z</time></trkpt><trkpt lat="45.0561616165289" lon="7.697582565718236"><ele>251.0</ele><time>2026-04-16T13:34:23.001Z</time></trkpt><trkpt lat="45.05625339671317" lon="7.697669808956368"><ele>251.00000000000003</ele><time>2026-04-16T13:34:24.001Z</time></trkpt><trkpt lat="45.05633401597464" lon="7.697736994525854"><ele>251.00000000000003</ele><time>2026-04-16T13:34:25.001Z</time></trkpt><trkpt lat="45.056411558110135" lon="7.697801271336782"><ele>251.0</ele><time>2026-04-16T13:34:26.001Z</time></trkpt><trkpt lat="45.05647531985065" lon="7.697861671988236"><ele>251.0</ele><time>2026-04-16T13:34:27.001Z</time></trkpt><trkpt lat="45.056552562406935" lon="7.697923530601168"><ele>253.50000000000003</ele><time>2026-04-16T13:34:28.001Z</time></trkpt><trkpt lat="45.05662752028356" lon="7.697981890654219"><ele>256.0</ele><time>2026-04-16T13:34:29.001Z</time></trkpt><trkpt lat="45.05669945523709" lon="7.698034064830489"><ele>258.5</ele><time>2026-04-16T13:34:30.001Z</time></trkpt><trkpt lat="45.05676238128298" lon="7.698077283996324"><ele>261.0</ele><time>2026-04-16T13:34:31.001Z</time></trkpt><trkpt lat="45.056824076129445" lon="7.698114426183499"><ele>263.5</ele><time>2026-04-16T13:34:32.001Z</time></trkpt><trkpt lat="45.056917177193505" lon="7.698156304858403"><ele>266.0</ele><time>2026-04-16T13:34:34.001Z</time></trkpt><trkpt lat="45.056999013162596" lon="7.698214407620753"><ele>266.0</ele><time>2026-04-16T13:34:35.001Z</time></trkpt><trkpt lat="45.05709220089671" lon="7.698274370413189"><ele>266.0</ele><time>2026-04-16T13:34:37.001Z</time></trkpt><trkpt lat="45.05715923080977" lon="7.698306415420816"><ele>266.0</ele><time>2026-04-16T13:34:39.002Z</time></trkpt><trkpt lat="45.05723556298486" lon="7.698357400939462"><ele>266.0</ele><time>2026-04-16T13:34:42.002Z</time></trkpt><trkpt lat="45.057309042053355" lon="7.698396920954936"><ele>266.0</ele><time>2026-04-16T13:34:44.002Z</time></trkpt><trkpt lat="45.057382411773574" lon="7.6984324491660825"><ele>266.0</ele><time>2026-04-16T13:34:45.002Z</time></trkpt><trkpt lat="45.05748225701304" lon="7.698466563375281"><ele>263.75</ele><time>2026-04-16T13:34:46.002Z</time></trkpt><trkpt lat="45.0576037945239" lon="7.698494870142146"><ele>261.5</ele><time>2026-04-16T13:34:47.002Z</time></trkpt><trkpt lat="45.057723302056715" lon="7.69853248031942"><ele>259.25</ele><time>2026-04-16T13:34:48.002Z</time></trkpt><trkpt lat="45.05786309374567" lon="7.698563512122737"><ele>257.0</ele><time>2026-04-16T13:34:49.002Z</time></trkpt><trkpt lat="45.057994556740425" lon="7.698583970196203"><ele>261.0</ele><time>2026-04-16T13:34:50.002Z</time></trkpt><trkpt lat="45.05810186929515" lon="7.69861079362799"><ele>265.0</ele><time>2026-04-16T13:34:51.002Z</time></trkpt><trkpt lat="45.05821062762261" lon="7.698617620853431"><ele>269.0</ele><time>2026-04-16T13:34:52.002Z</time></trkpt><trkpt lat="45.05835382018741" lon="7.698612345765464"><ele>273.0</ele><time>2026-04-16T13:34:53.002Z</time></trkpt><trkpt lat="45.058496235332406" lon="7.69861607976822"><ele>273.0</ele><time>2026-04-16T13:34:54.002Z</time></trkpt><trkpt lat="45.058662618195086" lon="7.6986151623885535"><ele>273.0</ele><time>2026-04-16T13:34:55.002Z</time></trkpt><trkpt lat="45.05877907142224" lon="7.698647889879907"><ele>273.0</ele><time>2026-04-16T13:34:56.002Z</time></trkpt><trkpt lat="45.05886192256708" lon="7.698698750228867"><ele>273.0</ele><time>2026-04-16T13:34:57.002Z</time></trkpt><trkpt lat="45.058917024601364" lon="7.698755244209022"><ele>273.0</ele><time>2026-04-16T13:34:58.002Z</time></trkpt><trkpt lat="45.058975058018284" lon="7.6988780672545225"><ele>273.0</ele><time>2026-04-16T13:35:32Z</time></trkpt><trkpt lat="45.059026832836444" lon="7.698996790314379"><ele>273.0</ele><time>2026-04-16T13:35:33Z</time></trkpt><trkpt lat="45.05906844049429" lon="7.699154678217014"><ele>273.0</ele><time>2026-04-16T13:35:34Z</time></trkpt><trkpt lat="45.059101025529976" lon="7.699340427529315"><ele>273.0</ele><time>2026-04-16T13:35:35Z</time></trkpt><trkpt lat="45.05913945289698" lon="7.699548309507549"><ele>272.0</ele><time>2026-04-16T13:35:36Z</time></trkpt><trkpt lat="45.05920773343513" lon="7.699774728954303"><ele>271.0</ele><time>2026-04-16T13:35:37Z</time></trkpt><trkpt lat="45.05924731077578" lon="7.700009560776692"><ele>270.0</ele><time>2026-04-16T13:35:38Z</time></trkpt><trkpt lat="45.05929613577189" lon="7.700257768133858"><ele>270.0</ele><time>2026-04-16T13:35:39Z</time></trkpt><trkpt lat="45.05935054460401" lon="7.7004851913556704"><ele>270.0</ele><time>2026-04-16T13:35:40Z</time></trkpt><trkpt lat="45.05937815094129" lon="7.700711934529238"><ele>270.0</ele><time>2026-04-16T13:35:41Z</time></trkpt><trkpt lat="45.0593791047516" lon="7.700947595851667"><ele>270.0</ele><time>2026-04-16T13:35:42Z</time></trkpt><trkpt lat="45.05935834353994" lon="7.701187285392039"><ele>270.0</ele><time>2026-04-16T13:35:43Z</time></trkpt><trkpt lat="45.05933366807792" lon="7.701444889920509"><ele>270.0</ele><time>2026-04-16T13:35:44Z</time></trkpt><trkpt lat="45.05930231879769" lon="7.70171004970396"><ele>270.0</ele><time>2026-04-16T13:35:45Z</time></trkpt><trkpt lat="45.059269615103446" lon="7.701963734792882"><ele>270.0</ele><time>2026-04-16T13:35:46Z</time></trkpt><trkpt lat="45.05923192661509" lon="7.702196967997949"><ele>270.0</ele><time>2026-04-16T13:35:47Z</time></trkpt><trkpt lat="45.05922883322622" lon="7.702411480948994"><ele>270.0</ele><time>2026-04-16T13:35:48Z</time></trkpt><trkpt lat="45.05922124637057" lon="7.70261792540655"><ele>270.0</ele><time>2026-04-16T13:35:49Z</time></trkpt><trkpt lat="45.05923214451037" lon="7.702810120062411"><ele>270.0</ele><time>2026-04-16T13:35:50Z</time></trkpt><trkpt lat="45.0592536851135" lon="7.703000311393732"><ele>270.0</ele><time>2026-04-16T13:35:51.001Z</time></trkpt><trkpt lat="45.059305049324955" lon="7.703207911810374"><ele>269.75</ele><time>2026-04-16T13:35:52.001Z</time></trkpt><trkpt lat="45.059343825606724" lon="7.7034014359599645"><ele>269.5</ele><time>2026-04-16T13:35:53.001Z</time></trkpt><trkpt lat="45.05937850278109" lon="7.703581127975192"><ele>269.25</ele><time>2026-04-16T13:35:54.001Z</time></trkpt><trkpt lat="45.05939685140624" lon="7.70372153429612"><ele>269.0</ele><time>2026-04-16T13:35:55.001Z</time></trkpt><trkpt lat="45.059400059034566" lon="7.703831159368054"><ele>269.5</ele><time>2026-04-16T13:35:56.001Z</time></trkpt><trkpt lat="45.059404140312125" lon="7.703948102560718"><ele>270.0</ele><time>2026-04-16T13:35:58.001Z</time></trkpt><trkpt lat="45.059385535211725" lon="7.704034262224291"><ele>270.5</ele><time>2026-04-16T13:36:17.001Z</time></trkpt><trkpt lat="45.059389882329015" lon="7.70413442988532"><ele>271.0</ele><time>2026-04-16T13:36:18.001Z</time></trkpt><trkpt lat="45.059396109401774" lon="7.704243907539263"><ele>271.5</ele><time>2026-04-16T13:36:19.001Z</time></trkpt><trkpt lat="45.059398428975314" lon="7.704373926003976"><ele>272.0</ele><time>2026-04-16T13:36:20.001Z</time></trkpt><trkpt lat="45.059390657093125" lon="7.704512679445674"><ele>272.0</ele><time>2026-04-16T13:36:21.001Z</time></trkpt><trkpt lat="45.059369860173426" lon="7.704661271602061"><ele>272.0</ele><time>2026-04-16T13:36:22.001Z</time></trkpt><trkpt lat="45.059336051862" lon="7.7048127600162"><ele>272.0</ele><time>2026-04-16T13:36:23.001Z</time></trkpt><trkpt lat="45.05930274866371" lon="7.704981352899713"><ele>272.0</ele><time>2026-04-16T13:36:24.001Z</time></trkpt><trkpt lat="45.05926898853714" lon="7.705137690419808"><ele>271.8</ele><time>2026-04-16T13:36:25.001Z</time></trkpt><trkpt lat="45.059254010705395" lon="7.705268774954595"><ele>271.6</ele><time>2026-04-16T13:36:26.001Z</time></trkpt><trkpt lat="45.05925544022668" lon="7.705403481351399"><ele>271.40000000000003</ele><time>2026-04-16T13:36:27.001Z</time></trkpt><trkpt lat="45.05929825592007" lon="7.70550865538684"><ele>271.2</ele><time>2026-04-16T13:36:28.001Z</time></trkpt><trkpt lat="45.05937788713278" lon="7.705584866724527"><ele>271.0</ele><time>2026-04-16T13:36:29.001Z</time></trkpt><trkpt lat="45.0595418686132" lon="7.7056046920556645"><ele>271.0</ele><time>2026-04-16T13:36:31.001Z</time></trkpt><trkpt lat="45.05961524963369" lon="7.705614109504585"><ele>271.0</ele><time>2026-04-16T13:36:32.001Z</time></trkpt><trkpt lat="45.059681410883066" lon="7.7056854348036365"><ele>271.0</ele><time>2026-04-16T13:36:34.001Z</time></trkpt><trkpt lat="45.05970212735482" lon="7.705485492886316"><ele>271.0</ele><time>2026-04-16T13:36:35.001Z</time></trkpt><trkpt lat="45.05968242652339" lon="7.705866601220442"><ele>271.0</ele><time>2026-04-16T13:36:36.001Z</time></trkpt><trkpt lat="45.05969863206014" lon="7.706032085027129"><ele>271.0</ele><time>2026-04-16T13:36:37.001Z</time></trkpt><trkpt lat="45.05970770285881" lon="7.706197668642944"><ele>271.0</ele><time>2026-04-16T13:36:38.001Z</time></trkpt><trkpt lat="45.05971945082997" lon="7.7064064607498795"><ele>271.0</ele><time>2026-04-16T13:36:39.001Z</time></trkpt><trkpt lat="45.05973520502986" lon="7.706571716236976"><ele>271.5</ele><time>2026-04-16T13:36:40.001Z</time></trkpt><trkpt lat="45.05976870295564" lon="7.706706362705361"><ele>272.0</ele><time>2026-04-16T13:36:41.001Z</time></trkpt><trkpt lat="45.059843921906726" lon="7.70680497583265"><ele>272.5</ele><time>2026-04-16T13:36:42.001Z</time></trkpt><trkpt lat="45.059923357373805" lon="7.706940625605813"><ele>273.0</ele><time>2026-04-16T13:36:43.001Z</time></trkpt><trkpt lat="45.06006460678747" lon="7.70703925183368"><ele>273.25</ele><time>2026-04-16T13:36:44.001Z</time></trkpt><trkpt lat="45.06019410071074" lon="7.707138102095854"><ele>273.5</ele><time>2026-04-16T13:36:45.001Z</time></trkpt><trkpt lat="45.06029019855541" lon="7.707241663823228"><ele>273.75</ele><time>2026-04-16T13:36:46.001Z</time></trkpt><trkpt lat="45.060387056594045" lon="7.707318623295957"><ele>274.0</ele><time>2026-04-16T13:36:47.001Z</time></trkpt><trkpt lat="45.06049024267372" lon="7.707449358701852"><ele>274.0</ele><time>2026-04-16T13:36:48.001Z</time></trkpt><trkpt lat="45.06057723083061" lon="7.707580734537062"><ele>274.0</ele><time>2026-04-16T13:36:49.001Z</time></trkpt><trkpt lat="45.06063893890511" lon="7.707707491338218"><ele>274.0</ele><time>2026-04-16T13:36:50.001Z</time></trkpt><trkpt lat="45.060721313322205" lon="7.707901881170985"><ele>274.0</ele><time>2026-04-16T13:36:51.001Z</time></trkpt><trkpt lat="45.060768172023266" lon="7.70804731844659"><ele>273.4</ele><time>2026-04-16T13:36:52.001Z</time></trkpt><trkpt lat="45.060788044030566" lon="7.70818416114226"><ele>272.79999999999995</ele><time>2026-04-16T13:36:53.001Z</time></trkpt><trkpt lat="45.06078260468219" lon="7.70832273834772"><ele>272.20000000000005</ele><time>2026-04-16T13:36:54.002Z</time></trkpt><trkpt lat="45.06076247619478" lon="7.708427801066095"><ele>271.6</ele><time>2026-04-16T13:36:55.002Z</time></trkpt><trkpt lat="45.060700532859165" lon="7.708561151757079"><ele>271.0</ele><time>2026-04-16T13:36:56.002Z</time></trkpt><trkpt lat="45.06064491769127" lon="7.708750174823089"><ele>276.8</ele><time>2026-04-16T13:36:57.002Z</time></trkpt><trkpt lat="45.060604340542014" lon="7.708884336804845"><ele>282.6</ele><time>2026-04-16T13:36:58.002Z</time></trkpt><trkpt lat="45.06059688248527" lon="7.709031928806028"><ele>288.4</ele><time>2026-04-16T13:36:59.002Z</time></trkpt><trkpt lat="45.06061209037698" lon="7.709151678161209"><ele>294.2</ele><time>2026-04-16T13:37:00.002Z</time></trkpt><trkpt lat="45.060642622857706" lon="7.709249567339949"><ele>300.0</ele><time>2026-04-16T13:37:01.002Z</time></trkpt><trkpt lat="45.060690581057614" lon="7.709343480069448"><ele>300.0</ele><time>2026-04-16T13:37:02.002Z</time></trkpt><trkpt lat="45.060745337168385" lon="7.709409287911899"><ele>300.0</ele><time>2026-04-16T13:37:03.002Z</time></trkpt><trkpt lat="45.06069983466799" lon="7.709478671807587"><ele>300.0</ele><time>2026-04-16T13:37:08.002Z</time></trkpt><trkpt lat="45.06063230657919" lon="7.709472576449091"><ele>300.0</ele><time>2026-04-16T13:37:09.002Z</time></trkpt><trkpt lat="45.06056096458189" lon="7.709413004065027"><ele>300.0</ele><time>2026-04-16T13:37:10Z</time></trkpt><trkpt lat="45.06050752740862" lon="7.709352527417944"><ele>300.0</ele><time>2026-04-16T13:37:11Z</time></trkpt><trkpt lat="45.06046109047879" lon="7.709236512071827"><ele>300.0</ele><time>2026-04-16T13:37:13Z</time></trkpt><trkpt lat="45.06044416114843" lon="7.7091433865667796"><ele>300.0</ele><time>2026-04-16T13:37:16Z</time></trkpt><trkpt lat="45.060432478834706" lon="7.708969029462811"><ele>300.0</ele><time>2026-04-16T13:37:32Z</time></trkpt><trkpt lat="45.060439087079565" lon="7.708768703131376"><ele>300.0</ele><time>2026-04-16T13:37:34Z</time></trkpt><trkpt lat="45.06046963451866" lon="7.708645709928921"><ele>300.0</ele><time>2026-04-16T13:37:35Z</time></trkpt><trkpt lat="45.06051237066125" lon="7.708536363219984"><ele>300.0</ele><time>2026-04-16T13:37:36Z</time></trkpt><trkpt lat="45.0605395899916" lon="7.708449368553701"><ele>300.0</ele><time>2026-04-16T13:37:37Z</time></trkpt><trkpt lat="45.06053464799338" lon="7.70832987426347"><ele>300.0</ele><time>2026-04-16T13:37:39Z</time></trkpt><trkpt lat="45.06045417826442" lon="7.708333220327657"><ele>300.0</ele><time>2026-04-16T13:37:41Z</time></trkpt><trkpt lat="45.06036573999506" lon="7.708471382388696"><ele>300.0</ele><time>2026-04-16T13:37:43Z</time></trkpt><trkpt lat="45.06029058897388" lon="7.708594103781699"><ele>300.0</ele><time>2026-04-16T13:37:44Z</time></trkpt><trkpt lat="45.060214666454016" lon="7.708715276260671"><ele>300.0</ele><time>2026-04-16T13:37:45Z</time></trkpt><trkpt lat="45.06013092820973" lon="7.708845593555777"><ele>300.0</ele><time>2026-04-16T13:37:46Z</time></trkpt><trkpt lat="45.06006533689784" lon="7.7089771314860895"><ele>300.0</ele><time>2026-04-16T13:37:47Z</time></trkpt><trkpt lat="45.06001761154683" lon="7.709083946034515"><ele>300.0</ele><time>2026-04-16T13:37:48Z</time></trkpt><trkpt lat="45.06000624747595" lon="7.709208144206995"><ele>300.0</ele><time>2026-04-16T13:37:49Z</time></trkpt><trkpt lat="45.060064430916576" lon="7.709363695463141"><ele>300.0</ele><time>2026-04-16T13:37:50Z</time></trkpt><trkpt lat="45.06009152207575" lon="7.709531723483552"><ele>300.0</ele><time>2026-04-16T13:37:51Z</time></trkpt><trkpt lat="45.06011059696245" lon="7.709663272663619"><ele>300.0</ele><time>2026-04-16T13:37:52Z</time></trkpt><trkpt lat="45.060080759249004" lon="7.709786841650839"><ele>300.0</ele><time>2026-04-16T13:37:54.001Z</time></trkpt><trkpt lat="45.05994479413145" lon="7.709852535531463"><ele>303.8</ele><time>2026-04-16T13:37:56.001Z</time></trkpt><trkpt lat="45.0598513006602" lon="7.7099348969323565"><ele>307.6</ele><time>2026-04-16T13:37:57.001Z</time></trkpt><trkpt lat="45.05975646731965" lon="7.710011798296185"><ele>311.4</ele><time>2026-04-16T13:37:58.001Z</time></trkpt><trkpt lat="45.05968603027746" lon="7.710082948109208"><ele>315.2</ele><time>2026-04-16T13:37:59.001Z</time></trkpt><trkpt lat="45.05963218301425" lon="7.71014165284799"><ele>319.0</ele><time>2026-04-16T13:38:01.001Z</time></trkpt><trkpt lat="45.05970828045799" lon="7.710422927640065"><ele>322.25</ele><time>2026-04-16T13:38:02.001Z</time></trkpt><trkpt lat="45.05974351120154" lon="7.710558181321425"><ele>325.5</ele><time>2026-04-16T13:38:03.001Z</time></trkpt><trkpt lat="45.05977302963189" lon="7.710727046319792"><ele>328.75</ele><time>2026-04-16T13:38:04.001Z</time></trkpt><trkpt lat="45.05980562578767" lon="7.710905338770017"><ele>332.0</ele><time>2026-04-16T13:38:05.001Z</time></trkpt><trkpt lat="45.05985492750744" lon="7.71103878829935"><ele>330.6</ele><time>2026-04-16T13:38:06.001Z</time></trkpt><trkpt lat="45.059944766459175" lon="7.711103784633044"><ele>329.20000000000005</ele><time>2026-04-16T13:38:07.001Z</time></trkpt><trkpt lat="45.060026214235876" lon="7.7111627552065"><ele>327.8</ele><time>2026-04-16T13:38:08.001Z</time></trkpt><trkpt lat="45.06009488526548" lon="7.711223957988469"><ele>326.4</ele><time>2026-04-16T13:38:09.001Z</time></trkpt><trkpt lat="45.06013200951271" lon="7.711358375813191"><ele>325.0</ele><time>2026-04-16T13:39:46.085Z</time></trkpt><trkpt lat="45.0602194124033" lon="7.711527333878174"><ele>325.0</ele><time>2026-04-16T13:39:47.502Z</time></trkpt></trkseg></trk></gpx>